<?xml version="1.0" encoding="UTF-8" standalone="no" ?>
<gpx xmlns="http://www.topografix.com/GPX/1/1" xmlns:xsi="http://www.w3.org/2001/XMLSchema-instance" xsi:schemaLocation="http://www.topografix.com/GPX/1/1 http://www.topografix.com/GPX/1/1/gpx.xsd" version="1.1" creator="VisuGPX - https://www.visugpx.com">
  <metadata>
    <name>3T_08_19-albarracin_san-clemente</name>
    <desc><![CDATA[Sur les traces des pionniers de l'aéropostale
Étape 5 Albaracin sans clemente]]></desc>
  </metadata>
  <trk>
    <name><![CDATA[3T_08_19-albarracin_san-clemente_1]]></name>
    <trkseg>
      <trkpt lat="40.37933" lon="-1.52768">
        <ele>1253.1</ele>
        <time>2023-08-19T06:44:01Z</time>
      </trkpt>
      <trkpt lat="40.37932" lon="-1.52769">
        <ele>1252.6</ele>
        <time>2023-08-19T06:44:04Z</time>
      </trkpt>
      <trkpt lat="40.37931" lon="-1.52771">
        <ele>1245.6</ele>
        <time>2023-08-19T06:44:08Z</time>
      </trkpt>
      <trkpt lat="40.37932" lon="-1.52775">
        <ele>1242.2</ele>
        <time>2023-08-19T06:44:11Z</time>
      </trkpt>
      <trkpt lat="40.37929" lon="-1.52781">
        <ele>1241.8</ele>
        <time>2023-08-19T06:44:15Z</time>
      </trkpt>
      <trkpt lat="40.37926" lon="-1.52788">
        <ele>1242</ele>
        <time>2023-08-19T06:44:18Z</time>
      </trkpt>
      <trkpt lat="40.37924" lon="-1.52792">
        <ele>1242.4</ele>
        <time>2023-08-19T06:44:21Z</time>
      </trkpt>
      <trkpt lat="40.3792" lon="-1.528">
        <ele>1244.5</ele>
        <time>2023-08-19T06:44:25Z</time>
      </trkpt>
      <trkpt lat="40.37913" lon="-1.52831">
        <ele>1255.4</ele>
        <time>2023-08-19T06:45:03Z</time>
      </trkpt>
      <trkpt lat="40.37914" lon="-1.52832">
        <ele>1255.3</ele>
        <time>2023-08-19T06:45:06Z</time>
      </trkpt>
      <trkpt lat="40.37916" lon="-1.52837">
        <ele>1255.8</ele>
        <time>2023-08-19T06:45:14Z</time>
      </trkpt>
      <trkpt lat="40.3792" lon="-1.52841">
        <ele>1255.5</ele>
        <time>2023-08-19T06:45:18Z</time>
      </trkpt>
      <trkpt lat="40.37925" lon="-1.52845">
        <ele>1255.5</ele>
        <time>2023-08-19T06:45:22Z</time>
      </trkpt>
      <trkpt lat="40.37929" lon="-1.52846">
        <ele>1255.8</ele>
        <time>2023-08-19T06:45:26Z</time>
      </trkpt>
      <trkpt lat="40.37936" lon="-1.52847">
        <ele>1255.7</ele>
        <time>2023-08-19T06:45:29Z</time>
      </trkpt>
      <trkpt lat="40.3794" lon="-1.52843">
        <ele>1255.6</ele>
        <time>2023-08-19T06:45:32Z</time>
      </trkpt>
      <trkpt lat="40.37943" lon="-1.52839">
        <ele>1257.8</ele>
        <time>2023-08-19T06:45:35Z</time>
      </trkpt>
      <trkpt lat="40.37947" lon="-1.52835">
        <ele>1258.4</ele>
        <time>2023-08-19T06:45:39Z</time>
      </trkpt>
      <trkpt lat="40.37951" lon="-1.52834">
        <ele>1256.2</ele>
        <time>2023-08-19T06:45:43Z</time>
      </trkpt>
      <trkpt lat="40.37954" lon="-1.52834">
        <ele>1257</ele>
        <time>2023-08-19T06:45:46Z</time>
      </trkpt>
      <trkpt lat="40.37955" lon="-1.52842">
        <ele>1257.6</ele>
        <time>2023-08-19T06:47:34Z</time>
      </trkpt>
      <trkpt lat="40.37959" lon="-1.52855">
        <ele>1257.7</ele>
        <time>2023-08-19T06:47:38Z</time>
      </trkpt>
      <trkpt lat="40.37959" lon="-1.52871">
        <ele>1257.6</ele>
        <time>2023-08-19T06:47:41Z</time>
      </trkpt>
      <trkpt lat="40.37958" lon="-1.52883">
        <ele>1258</ele>
        <time>2023-08-19T06:47:44Z</time>
      </trkpt>
      <trkpt lat="40.37959" lon="-1.52899">
        <ele>1258</ele>
        <time>2023-08-19T06:47:47Z</time>
      </trkpt>
      <trkpt lat="40.37963" lon="-1.5292">
        <ele>1258.1</ele>
        <time>2023-08-19T06:47:51Z</time>
      </trkpt>
      <trkpt lat="40.37968" lon="-1.52938">
        <ele>1258.6</ele>
        <time>2023-08-19T06:47:54Z</time>
      </trkpt>
      <trkpt lat="40.37977" lon="-1.52959">
        <ele>1258.9</ele>
        <time>2023-08-19T06:47:58Z</time>
      </trkpt>
      <trkpt lat="40.37988" lon="-1.52983">
        <ele>1259.3</ele>
        <time>2023-08-19T06:48:02Z</time>
      </trkpt>
      <trkpt lat="40.38001" lon="-1.53017">
        <ele>1260.2</ele>
        <time>2023-08-19T06:48:05Z</time>
      </trkpt>
      <trkpt lat="40.38006" lon="-1.53039">
        <ele>1260.1</ele>
        <time>2023-08-19T06:48:08Z</time>
      </trkpt>
      <trkpt lat="40.38008" lon="-1.53058">
        <ele>1260.3</ele>
        <time>2023-08-19T06:48:11Z</time>
      </trkpt>
      <trkpt lat="40.38012" lon="-1.5309">
        <ele>1259.7</ele>
        <time>2023-08-19T06:48:16Z</time>
      </trkpt>
      <trkpt lat="40.38014" lon="-1.53123">
        <ele>1260</ele>
        <time>2023-08-19T06:48:20Z</time>
      </trkpt>
      <trkpt lat="40.38013" lon="-1.53147">
        <ele>1260.2</ele>
        <time>2023-08-19T06:48:23Z</time>
      </trkpt>
      <trkpt lat="40.38007" lon="-1.5317">
        <ele>1261</ele>
        <time>2023-08-19T06:48:26Z</time>
      </trkpt>
      <trkpt lat="40.37993" lon="-1.532">
        <ele>1262.5</ele>
        <time>2023-08-19T06:48:29Z</time>
      </trkpt>
      <trkpt lat="40.37983" lon="-1.53223">
        <ele>1262.7</ele>
        <time>2023-08-19T06:48:33Z</time>
      </trkpt>
      <trkpt lat="40.3797" lon="-1.53251">
        <ele>1263.1</ele>
        <time>2023-08-19T06:48:37Z</time>
      </trkpt>
      <trkpt lat="40.3796" lon="-1.53272">
        <ele>1263.9</ele>
        <time>2023-08-19T06:48:40Z</time>
      </trkpt>
      <trkpt lat="40.37947" lon="-1.533">
        <ele>1265.3</ele>
        <time>2023-08-19T06:48:43Z</time>
      </trkpt>
      <trkpt lat="40.37933" lon="-1.53329">
        <ele>1266.2</ele>
        <time>2023-08-19T06:48:47Z</time>
      </trkpt>
      <trkpt lat="40.37918" lon="-1.53354">
        <ele>1266.9</ele>
        <time>2023-08-19T06:48:52Z</time>
      </trkpt>
      <trkpt lat="40.37893" lon="-1.53371">
        <ele>1267.4</ele>
        <time>2023-08-19T06:48:55Z</time>
      </trkpt>
      <trkpt lat="40.37868" lon="-1.5338">
        <ele>1267</ele>
        <time>2023-08-19T06:48:59Z</time>
      </trkpt>
      <trkpt lat="40.37849" lon="-1.53385">
        <ele>1267.2</ele>
        <time>2023-08-19T06:49:02Z</time>
      </trkpt>
      <trkpt lat="40.37823" lon="-1.53383">
        <ele>1269</ele>
        <time>2023-08-19T06:49:06Z</time>
      </trkpt>
      <trkpt lat="40.37805" lon="-1.53378">
        <ele>1268.6</ele>
        <time>2023-08-19T06:49:10Z</time>
      </trkpt>
      <trkpt lat="40.37781" lon="-1.53366">
        <ele>1268.3</ele>
        <time>2023-08-19T06:49:13Z</time>
      </trkpt>
      <trkpt lat="40.37763" lon="-1.53352">
        <ele>1269</ele>
        <time>2023-08-19T06:49:16Z</time>
      </trkpt>
      <trkpt lat="40.37747" lon="-1.53336">
        <ele>1269.5</ele>
        <time>2023-08-19T06:49:20Z</time>
      </trkpt>
      <trkpt lat="40.37731" lon="-1.5332">
        <ele>1269.8</ele>
        <time>2023-08-19T06:49:23Z</time>
      </trkpt>
      <trkpt lat="40.37711" lon="-1.53295">
        <ele>1270.5</ele>
        <time>2023-08-19T06:49:27Z</time>
      </trkpt>
      <trkpt lat="40.37692" lon="-1.53266">
        <ele>1270.3</ele>
        <time>2023-08-19T06:49:30Z</time>
      </trkpt>
      <trkpt lat="40.37679" lon="-1.53247">
        <ele>1270.6</ele>
        <time>2023-08-19T06:49:33Z</time>
      </trkpt>
      <trkpt lat="40.37667" lon="-1.53232">
        <ele>1270.2</ele>
        <time>2023-08-19T06:49:37Z</time>
      </trkpt>
      <trkpt lat="40.37647" lon="-1.53219">
        <ele>1270.4</ele>
        <time>2023-08-19T06:49:41Z</time>
      </trkpt>
      <trkpt lat="40.37624" lon="-1.53213">
        <ele>1270.2</ele>
        <time>2023-08-19T06:49:44Z</time>
      </trkpt>
      <trkpt lat="40.37606" lon="-1.53212">
        <ele>1270.4</ele>
        <time>2023-08-19T06:49:47Z</time>
      </trkpt>
      <trkpt lat="40.37586" lon="-1.53216">
        <ele>1271.1</ele>
        <time>2023-08-19T06:49:51Z</time>
      </trkpt>
      <trkpt lat="40.37563" lon="-1.5323">
        <ele>1271.3</ele>
        <time>2023-08-19T06:49:54Z</time>
      </trkpt>
      <trkpt lat="40.3755" lon="-1.53248">
        <ele>1273</ele>
        <time>2023-08-19T06:49:57Z</time>
      </trkpt>
      <trkpt lat="40.37531" lon="-1.53273">
        <ele>1273.5</ele>
        <time>2023-08-19T06:50:02Z</time>
      </trkpt>
      <trkpt lat="40.37514" lon="-1.53288">
        <ele>1274.3</ele>
        <time>2023-08-19T06:50:05Z</time>
      </trkpt>
      <trkpt lat="40.37494" lon="-1.53306">
        <ele>1274</ele>
        <time>2023-08-19T06:50:09Z</time>
      </trkpt>
      <trkpt lat="40.37473" lon="-1.53325">
        <ele>1274.7</ele>
        <time>2023-08-19T06:50:13Z</time>
      </trkpt>
      <trkpt lat="40.3746" lon="-1.5334">
        <ele>1275.8</ele>
        <time>2023-08-19T06:50:16Z</time>
      </trkpt>
      <trkpt lat="40.37444" lon="-1.53364">
        <ele>1275.6</ele>
        <time>2023-08-19T06:50:20Z</time>
      </trkpt>
      <trkpt lat="40.37431" lon="-1.53394">
        <ele>1276.2</ele>
        <time>2023-08-19T06:50:23Z</time>
      </trkpt>
      <trkpt lat="40.37417" lon="-1.53422">
        <ele>1276.2</ele>
        <time>2023-08-19T06:50:27Z</time>
      </trkpt>
      <trkpt lat="40.37402" lon="-1.53449">
        <ele>1277.1</ele>
        <time>2023-08-19T06:50:31Z</time>
      </trkpt>
      <trkpt lat="40.37386" lon="-1.53474">
        <ele>1277.6</ele>
        <time>2023-08-19T06:50:36Z</time>
      </trkpt>
      <trkpt lat="40.3737" lon="-1.53501">
        <ele>1277.5</ele>
        <time>2023-08-19T06:50:40Z</time>
      </trkpt>
      <trkpt lat="40.37354" lon="-1.53528">
        <ele>1278.2</ele>
        <time>2023-08-19T06:50:44Z</time>
      </trkpt>
      <trkpt lat="40.37336" lon="-1.53552">
        <ele>1277.5</ele>
        <time>2023-08-19T06:50:48Z</time>
      </trkpt>
      <trkpt lat="40.3732" lon="-1.53566">
        <ele>1277.9</ele>
        <time>2023-08-19T06:50:51Z</time>
      </trkpt>
      <trkpt lat="40.37296" lon="-1.53576">
        <ele>1277.5</ele>
        <time>2023-08-19T06:50:55Z</time>
      </trkpt>
      <trkpt lat="40.37273" lon="-1.53583">
        <ele>1276.9</ele>
        <time>2023-08-19T06:50:59Z</time>
      </trkpt>
      <trkpt lat="40.37249" lon="-1.53589">
        <ele>1277.9</ele>
        <time>2023-08-19T06:51:03Z</time>
      </trkpt>
      <trkpt lat="40.3723" lon="-1.53592">
        <ele>1278.2</ele>
        <time>2023-08-19T06:51:06Z</time>
      </trkpt>
      <trkpt lat="40.3721" lon="-1.53594">
        <ele>1277.9</ele>
        <time>2023-08-19T06:51:09Z</time>
      </trkpt>
      <trkpt lat="40.37186" lon="-1.53594">
        <ele>1278.9</ele>
        <time>2023-08-19T06:51:12Z</time>
      </trkpt>
      <trkpt lat="40.37166" lon="-1.53594">
        <ele>1279.9</ele>
        <time>2023-08-19T06:51:16Z</time>
      </trkpt>
      <trkpt lat="40.37146" lon="-1.53595">
        <ele>1280.1</ele>
        <time>2023-08-19T06:51:19Z</time>
      </trkpt>
      <trkpt lat="40.3712" lon="-1.53599">
        <ele>1279.8</ele>
        <time>2023-08-19T06:51:22Z</time>
      </trkpt>
      <trkpt lat="40.37092" lon="-1.53607">
        <ele>1280.1</ele>
        <time>2023-08-19T06:51:27Z</time>
      </trkpt>
      <trkpt lat="40.37066" lon="-1.53617">
        <ele>1281.2</ele>
        <time>2023-08-19T06:51:31Z</time>
      </trkpt>
      <trkpt lat="40.37047" lon="-1.53637">
        <ele>1282.1</ele>
        <time>2023-08-19T06:51:34Z</time>
      </trkpt>
      <trkpt lat="40.37033" lon="-1.53663">
        <ele>1282.6</ele>
        <time>2023-08-19T06:51:38Z</time>
      </trkpt>
      <trkpt lat="40.37026" lon="-1.53685">
        <ele>1283.4</ele>
        <time>2023-08-19T06:51:41Z</time>
      </trkpt>
      <trkpt lat="40.37019" lon="-1.53719">
        <ele>1283.1</ele>
        <time>2023-08-19T06:51:45Z</time>
      </trkpt>
      <trkpt lat="40.37015" lon="-1.53744">
        <ele>1283.8</ele>
        <time>2023-08-19T06:51:48Z</time>
      </trkpt>
      <trkpt lat="40.37009" lon="-1.53768">
        <ele>1284.7</ele>
        <time>2023-08-19T06:51:52Z</time>
      </trkpt>
      <trkpt lat="40.37" lon="-1.53799">
        <ele>1285.9</ele>
        <time>2023-08-19T06:51:56Z</time>
      </trkpt>
      <trkpt lat="40.36987" lon="-1.53828">
        <ele>1285.7</ele>
        <time>2023-08-19T06:52:00Z</time>
      </trkpt>
      <trkpt lat="40.36969" lon="-1.53854">
        <ele>1287.3</ele>
        <time>2023-08-19T06:52:04Z</time>
      </trkpt>
      <trkpt lat="40.36955" lon="-1.53871">
        <ele>1287.4</ele>
        <time>2023-08-19T06:52:07Z</time>
      </trkpt>
      <trkpt lat="40.36945" lon="-1.53902">
        <ele>1286.9</ele>
        <time>2023-08-19T06:52:10Z</time>
      </trkpt>
      <trkpt lat="40.3695" lon="-1.53927">
        <ele>1287.5</ele>
        <time>2023-08-19T06:52:14Z</time>
      </trkpt>
      <trkpt lat="40.36964" lon="-1.53957">
        <ele>1288.1</ele>
        <time>2023-08-19T06:52:17Z</time>
      </trkpt>
      <trkpt lat="40.3698" lon="-1.53985">
        <ele>1287.8</ele>
        <time>2023-08-19T06:52:21Z</time>
      </trkpt>
      <trkpt lat="40.36991" lon="-1.54005">
        <ele>1288.4</ele>
        <time>2023-08-19T06:52:25Z</time>
      </trkpt>
      <trkpt lat="40.37006" lon="-1.54031">
        <ele>1288.6</ele>
        <time>2023-08-19T06:52:28Z</time>
      </trkpt>
      <trkpt lat="40.37022" lon="-1.54058">
        <ele>1289</ele>
        <time>2023-08-19T06:52:32Z</time>
      </trkpt>
      <trkpt lat="40.37034" lon="-1.54087">
        <ele>1289.9</ele>
        <time>2023-08-19T06:52:36Z</time>
      </trkpt>
      <trkpt lat="40.37041" lon="-1.54111">
        <ele>1290.9</ele>
        <time>2023-08-19T06:52:39Z</time>
      </trkpt>
      <trkpt lat="40.37043" lon="-1.54135">
        <ele>1290.5</ele>
        <time>2023-08-19T06:52:42Z</time>
      </trkpt>
      <trkpt lat="40.37041" lon="-1.5416">
        <ele>1290.9</ele>
        <time>2023-08-19T06:52:46Z</time>
      </trkpt>
      <trkpt lat="40.37033" lon="-1.54192">
        <ele>1291.6</ele>
        <time>2023-08-19T06:52:49Z</time>
      </trkpt>
      <trkpt lat="40.37024" lon="-1.54213">
        <ele>1292.8</ele>
        <time>2023-08-19T06:52:53Z</time>
      </trkpt>
      <trkpt lat="40.37008" lon="-1.5424">
        <ele>1294.2</ele>
        <time>2023-08-19T06:52:56Z</time>
      </trkpt>
      <trkpt lat="40.36989" lon="-1.54263">
        <ele>1295.4</ele>
        <time>2023-08-19T06:53:01Z</time>
      </trkpt>
      <trkpt lat="40.3697" lon="-1.54284">
        <ele>1297.3</ele>
        <time>2023-08-19T06:53:05Z</time>
      </trkpt>
      <trkpt lat="40.3695" lon="-1.54303">
        <ele>1298.5</ele>
        <time>2023-08-19T06:53:08Z</time>
      </trkpt>
      <trkpt lat="40.36936" lon="-1.54314">
        <ele>1300.1</ele>
        <time>2023-08-19T06:53:12Z</time>
      </trkpt>
      <trkpt lat="40.36919" lon="-1.54321">
        <ele>1301.8</ele>
        <time>2023-08-19T06:53:15Z</time>
      </trkpt>
      <trkpt lat="40.36891" lon="-1.54324">
        <ele>1302.9</ele>
        <time>2023-08-19T06:53:18Z</time>
      </trkpt>
      <trkpt lat="40.36864" lon="-1.54326">
        <ele>1304.8</ele>
        <time>2023-08-19T06:53:23Z</time>
      </trkpt>
      <trkpt lat="40.36848" lon="-1.54332">
        <ele>1305.6</ele>
        <time>2023-08-19T06:53:26Z</time>
      </trkpt>
      <trkpt lat="40.36834" lon="-1.54351">
        <ele>1306.1</ele>
        <time>2023-08-19T06:53:30Z</time>
      </trkpt>
      <trkpt lat="40.36822" lon="-1.54377">
        <ele>1305.7</ele>
        <time>2023-08-19T06:53:33Z</time>
      </trkpt>
      <trkpt lat="40.36811" lon="-1.54402">
        <ele>1305.5</ele>
        <time>2023-08-19T06:53:37Z</time>
      </trkpt>
      <trkpt lat="40.36804" lon="-1.54423">
        <ele>1306.2</ele>
        <time>2023-08-19T06:53:41Z</time>
      </trkpt>
      <trkpt lat="40.36801" lon="-1.54452">
        <ele>1306.9</ele>
        <time>2023-08-19T06:53:44Z</time>
      </trkpt>
      <trkpt lat="40.36812" lon="-1.5448">
        <ele>1307.9</ele>
        <time>2023-08-19T06:53:49Z</time>
      </trkpt>
      <trkpt lat="40.36832" lon="-1.54505">
        <ele>1308.2</ele>
        <time>2023-08-19T06:53:53Z</time>
      </trkpt>
      <trkpt lat="40.36849" lon="-1.54526">
        <ele>1309</ele>
        <time>2023-08-19T06:53:56Z</time>
      </trkpt>
      <trkpt lat="40.36869" lon="-1.54552">
        <ele>1310.7</ele>
        <time>2023-08-19T06:54:00Z</time>
      </trkpt>
      <trkpt lat="40.36888" lon="-1.54576">
        <ele>1311.8</ele>
        <time>2023-08-19T06:54:04Z</time>
      </trkpt>
      <trkpt lat="40.36907" lon="-1.54598">
        <ele>1313.3</ele>
        <time>2023-08-19T06:54:07Z</time>
      </trkpt>
      <trkpt lat="40.36922" lon="-1.54616">
        <ele>1313.2</ele>
        <time>2023-08-19T06:54:10Z</time>
      </trkpt>
      <trkpt lat="40.36936" lon="-1.54634">
        <ele>1314.3</ele>
        <time>2023-08-19T06:54:14Z</time>
      </trkpt>
      <trkpt lat="40.3695" lon="-1.54651">
        <ele>1314.1</ele>
        <time>2023-08-19T06:54:17Z</time>
      </trkpt>
      <trkpt lat="40.36964" lon="-1.54668">
        <ele>1314.3</ele>
        <time>2023-08-19T06:54:20Z</time>
      </trkpt>
      <trkpt lat="40.36984" lon="-1.54689">
        <ele>1314.6</ele>
        <time>2023-08-19T06:54:24Z</time>
      </trkpt>
      <trkpt lat="40.37" lon="-1.54705">
        <ele>1315</ele>
        <time>2023-08-19T06:54:27Z</time>
      </trkpt>
      <trkpt lat="40.37015" lon="-1.54719">
        <ele>1315.3</ele>
        <time>2023-08-19T06:54:30Z</time>
      </trkpt>
      <trkpt lat="40.3703" lon="-1.54733">
        <ele>1316.3</ele>
        <time>2023-08-19T06:54:33Z</time>
      </trkpt>
      <trkpt lat="40.3705" lon="-1.54753">
        <ele>1316.7</ele>
        <time>2023-08-19T06:54:37Z</time>
      </trkpt>
      <trkpt lat="40.37065" lon="-1.54769">
        <ele>1316.4</ele>
        <time>2023-08-19T06:54:40Z</time>
      </trkpt>
      <trkpt lat="40.37086" lon="-1.5479">
        <ele>1316.7</ele>
        <time>2023-08-19T06:54:43Z</time>
      </trkpt>
      <trkpt lat="40.37108" lon="-1.54808">
        <ele>1317</ele>
        <time>2023-08-19T06:54:48Z</time>
      </trkpt>
      <trkpt lat="40.37133" lon="-1.54814">
        <ele>1317</ele>
        <time>2023-08-19T06:54:52Z</time>
      </trkpt>
      <trkpt lat="40.37155" lon="-1.54802">
        <ele>1317.8</ele>
        <time>2023-08-19T06:54:55Z</time>
      </trkpt>
      <trkpt lat="40.37178" lon="-1.54783">
        <ele>1318.1</ele>
        <time>2023-08-19T06:54:59Z</time>
      </trkpt>
      <trkpt lat="40.37192" lon="-1.54766">
        <ele>1317.8</ele>
        <time>2023-08-19T06:55:03Z</time>
      </trkpt>
      <trkpt lat="40.37208" lon="-1.5474">
        <ele>1317.6</ele>
        <time>2023-08-19T06:55:07Z</time>
      </trkpt>
      <trkpt lat="40.37223" lon="-1.54713">
        <ele>1317.7</ele>
        <time>2023-08-19T06:55:11Z</time>
      </trkpt>
      <trkpt lat="40.37239" lon="-1.54697">
        <ele>1317.6</ele>
        <time>2023-08-19T06:55:14Z</time>
      </trkpt>
      <trkpt lat="40.37257" lon="-1.54686">
        <ele>1317.7</ele>
        <time>2023-08-19T06:55:17Z</time>
      </trkpt>
      <trkpt lat="40.37282" lon="-1.54676">
        <ele>1317.5</ele>
        <time>2023-08-19T06:55:20Z</time>
      </trkpt>
      <trkpt lat="40.373" lon="-1.54673">
        <ele>1317.4</ele>
        <time>2023-08-19T06:55:24Z</time>
      </trkpt>
      <trkpt lat="40.37324" lon="-1.54681">
        <ele>1318.8</ele>
        <time>2023-08-19T06:55:28Z</time>
      </trkpt>
      <trkpt lat="40.37346" lon="-1.54696">
        <ele>1320.5</ele>
        <time>2023-08-19T06:55:32Z</time>
      </trkpt>
      <trkpt lat="40.37362" lon="-1.54723">
        <ele>1321.7</ele>
        <time>2023-08-19T06:55:36Z</time>
      </trkpt>
      <trkpt lat="40.37375" lon="-1.54752">
        <ele>1323.4</ele>
        <time>2023-08-19T06:55:39Z</time>
      </trkpt>
      <trkpt lat="40.3739" lon="-1.54781">
        <ele>1323.9</ele>
        <time>2023-08-19T06:55:44Z</time>
      </trkpt>
      <trkpt lat="40.37401" lon="-1.54802">
        <ele>1324.7</ele>
        <time>2023-08-19T06:55:47Z</time>
      </trkpt>
      <trkpt lat="40.37409" lon="-1.54825">
        <ele>1325.2</ele>
        <time>2023-08-19T06:55:50Z</time>
      </trkpt>
      <trkpt lat="40.37413" lon="-1.54859">
        <ele>1326.5</ele>
        <time>2023-08-19T06:55:54Z</time>
      </trkpt>
      <trkpt lat="40.37413" lon="-1.54885">
        <ele>1327.4</ele>
        <time>2023-08-19T06:55:57Z</time>
      </trkpt>
      <trkpt lat="40.37413" lon="-1.5491">
        <ele>1328.1</ele>
        <time>2023-08-19T06:56:00Z</time>
      </trkpt>
      <trkpt lat="40.3741" lon="-1.54942">
        <ele>1329.7</ele>
        <time>2023-08-19T06:56:04Z</time>
      </trkpt>
      <trkpt lat="40.37401" lon="-1.54969">
        <ele>1332.6</ele>
        <time>2023-08-19T06:56:08Z</time>
      </trkpt>
      <trkpt lat="40.37391" lon="-1.54996">
        <ele>1333.9</ele>
        <time>2023-08-19T06:56:11Z</time>
      </trkpt>
      <trkpt lat="40.37382" lon="-1.55027">
        <ele>1335.9</ele>
        <time>2023-08-19T06:56:16Z</time>
      </trkpt>
      <trkpt lat="40.37374" lon="-1.55056">
        <ele>1337.5</ele>
        <time>2023-08-19T06:56:20Z</time>
      </trkpt>
      <trkpt lat="40.37368" lon="-1.55074">
        <ele>1338.5</ele>
        <time>2023-08-19T06:56:23Z</time>
      </trkpt>
      <trkpt lat="40.37361" lon="-1.551">
        <ele>1340.3</ele>
        <time>2023-08-19T06:56:26Z</time>
      </trkpt>
      <trkpt lat="40.37356" lon="-1.5512">
        <ele>1342</ele>
        <time>2023-08-19T06:56:30Z</time>
      </trkpt>
      <trkpt lat="40.37351" lon="-1.55149">
        <ele>1343</ele>
        <time>2023-08-19T06:56:33Z</time>
      </trkpt>
      <trkpt lat="40.3735" lon="-1.55179">
        <ele>1343.9</ele>
        <time>2023-08-19T06:56:37Z</time>
      </trkpt>
      <trkpt lat="40.37349" lon="-1.552">
        <ele>1344.6</ele>
        <time>2023-08-19T06:56:41Z</time>
      </trkpt>
      <trkpt lat="40.37348" lon="-1.55228">
        <ele>1346.3</ele>
        <time>2023-08-19T06:56:45Z</time>
      </trkpt>
      <trkpt lat="40.37349" lon="-1.55257">
        <ele>1346.7</ele>
        <time>2023-08-19T06:56:49Z</time>
      </trkpt>
      <trkpt lat="40.37351" lon="-1.55281">
        <ele>1346.8</ele>
        <time>2023-08-19T06:56:52Z</time>
      </trkpt>
      <trkpt lat="40.37354" lon="-1.55306">
        <ele>1347</ele>
        <time>2023-08-19T06:56:55Z</time>
      </trkpt>
      <trkpt lat="40.37357" lon="-1.55337">
        <ele>1346.3</ele>
        <time>2023-08-19T06:56:58Z</time>
      </trkpt>
      <trkpt lat="40.37361" lon="-1.55358">
        <ele>1345.9</ele>
        <time>2023-08-19T06:57:01Z</time>
      </trkpt>
      <trkpt lat="40.37368" lon="-1.55389">
        <ele>1346</ele>
        <time>2023-08-19T06:57:06Z</time>
      </trkpt>
      <trkpt lat="40.37373" lon="-1.55413">
        <ele>1345.7</ele>
        <time>2023-08-19T06:57:09Z</time>
      </trkpt>
      <trkpt lat="40.3738" lon="-1.55439">
        <ele>1345.5</ele>
        <time>2023-08-19T06:57:12Z</time>
      </trkpt>
      <trkpt lat="40.37388" lon="-1.55472">
        <ele>1346.1</ele>
        <time>2023-08-19T06:57:16Z</time>
      </trkpt>
      <trkpt lat="40.37396" lon="-1.55503">
        <ele>1345.8</ele>
        <time>2023-08-19T06:57:19Z</time>
      </trkpt>
      <trkpt lat="40.37402" lon="-1.55527">
        <ele>1345.9</ele>
        <time>2023-08-19T06:57:23Z</time>
      </trkpt>
      <trkpt lat="40.37408" lon="-1.55559">
        <ele>1346.1</ele>
        <time>2023-08-19T06:57:27Z</time>
      </trkpt>
      <trkpt lat="40.37413" lon="-1.55582">
        <ele>1346.2</ele>
        <time>2023-08-19T06:57:30Z</time>
      </trkpt>
      <trkpt lat="40.37432" lon="-1.55609">
        <ele>1346</ele>
        <time>2023-08-19T06:57:33Z</time>
      </trkpt>
      <trkpt lat="40.3745" lon="-1.55622">
        <ele>1346.2</ele>
        <time>2023-08-19T06:57:37Z</time>
      </trkpt>
      <trkpt lat="40.37473" lon="-1.55633">
        <ele>1345.8</ele>
        <time>2023-08-19T06:57:40Z</time>
      </trkpt>
      <trkpt lat="40.37489" lon="-1.55641">
        <ele>1346.1</ele>
        <time>2023-08-19T06:57:43Z</time>
      </trkpt>
      <trkpt lat="40.3751" lon="-1.55651">
        <ele>1345.7</ele>
        <time>2023-08-19T06:57:48Z</time>
      </trkpt>
      <trkpt lat="40.37532" lon="-1.55664">
        <ele>1345.8</ele>
        <time>2023-08-19T06:57:52Z</time>
      </trkpt>
      <trkpt lat="40.3755" lon="-1.55675">
        <ele>1345.4</ele>
        <time>2023-08-19T06:57:55Z</time>
      </trkpt>
      <trkpt lat="40.37574" lon="-1.55687">
        <ele>1345.5</ele>
        <time>2023-08-19T06:57:59Z</time>
      </trkpt>
      <trkpt lat="40.37596" lon="-1.55707">
        <ele>1345.6</ele>
        <time>2023-08-19T06:58:03Z</time>
      </trkpt>
      <trkpt lat="40.37615" lon="-1.55731">
        <ele>1345.5</ele>
        <time>2023-08-19T06:58:07Z</time>
      </trkpt>
      <trkpt lat="40.37629" lon="-1.5576">
        <ele>1345.7</ele>
        <time>2023-08-19T06:58:11Z</time>
      </trkpt>
      <trkpt lat="40.37633" lon="-1.55784">
        <ele>1346.4</ele>
        <time>2023-08-19T06:58:14Z</time>
      </trkpt>
      <trkpt lat="40.37631" lon="-1.55819">
        <ele>1346.8</ele>
        <time>2023-08-19T06:58:18Z</time>
      </trkpt>
      <trkpt lat="40.37625" lon="-1.55854">
        <ele>1346.9</ele>
        <time>2023-08-19T06:58:21Z</time>
      </trkpt>
      <trkpt lat="40.37618" lon="-1.55879">
        <ele>1347.4</ele>
        <time>2023-08-19T06:58:25Z</time>
      </trkpt>
      <trkpt lat="40.37608" lon="-1.55909">
        <ele>1347.6</ele>
        <time>2023-08-19T06:58:29Z</time>
      </trkpt>
      <trkpt lat="40.37601" lon="-1.55931">
        <ele>1348</ele>
        <time>2023-08-19T06:58:32Z</time>
      </trkpt>
      <trkpt lat="40.37587" lon="-1.55956">
        <ele>1348.8</ele>
        <time>2023-08-19T06:58:36Z</time>
      </trkpt>
      <trkpt lat="40.3757" lon="-1.55981">
        <ele>1349</ele>
        <time>2023-08-19T06:58:40Z</time>
      </trkpt>
      <trkpt lat="40.37561" lon="-1.56013">
        <ele>1349.5</ele>
        <time>2023-08-19T06:58:44Z</time>
      </trkpt>
      <trkpt lat="40.37554" lon="-1.56044">
        <ele>1349.7</ele>
        <time>2023-08-19T06:58:47Z</time>
      </trkpt>
      <trkpt lat="40.37548" lon="-1.56067">
        <ele>1350</ele>
        <time>2023-08-19T06:58:51Z</time>
      </trkpt>
      <trkpt lat="40.37541" lon="-1.56091">
        <ele>1350.1</ele>
        <time>2023-08-19T06:58:54Z</time>
      </trkpt>
      <trkpt lat="40.37533" lon="-1.56114">
        <ele>1350.2</ele>
        <time>2023-08-19T06:58:57Z</time>
      </trkpt>
      <trkpt lat="40.37519" lon="-1.56143">
        <ele>1350.5</ele>
        <time>2023-08-19T06:59:01Z</time>
      </trkpt>
      <trkpt lat="40.37512" lon="-1.56167">
        <ele>1350.6</ele>
        <time>2023-08-19T06:59:04Z</time>
      </trkpt>
      <trkpt lat="40.37507" lon="-1.56192">
        <ele>1350.4</ele>
        <time>2023-08-19T06:59:07Z</time>
      </trkpt>
      <trkpt lat="40.37508" lon="-1.56225">
        <ele>1350.5</ele>
        <time>2023-08-19T06:59:10Z</time>
      </trkpt>
      <trkpt lat="40.37509" lon="-1.5625">
        <ele>1350.2</ele>
        <time>2023-08-19T06:59:13Z</time>
      </trkpt>
      <trkpt lat="40.37512" lon="-1.56274">
        <ele>1350.5</ele>
        <time>2023-08-19T06:59:16Z</time>
      </trkpt>
      <trkpt lat="40.37518" lon="-1.56307">
        <ele>1350.3</ele>
        <time>2023-08-19T06:59:21Z</time>
      </trkpt>
      <trkpt lat="40.37526" lon="-1.56331">
        <ele>1350.6</ele>
        <time>2023-08-19T06:59:24Z</time>
      </trkpt>
      <trkpt lat="40.37537" lon="-1.56361">
        <ele>1350</ele>
        <time>2023-08-19T06:59:28Z</time>
      </trkpt>
      <trkpt lat="40.37545" lon="-1.56383">
        <ele>1349.7</ele>
        <time>2023-08-19T06:59:31Z</time>
      </trkpt>
      <trkpt lat="40.37556" lon="-1.56414">
        <ele>1349.2</ele>
        <time>2023-08-19T06:59:34Z</time>
      </trkpt>
      <trkpt lat="40.37563" lon="-1.56437">
        <ele>1349.1</ele>
        <time>2023-08-19T06:59:38Z</time>
      </trkpt>
      <trkpt lat="40.37569" lon="-1.5646">
        <ele>1349.5</ele>
        <time>2023-08-19T06:59:41Z</time>
      </trkpt>
      <trkpt lat="40.37576" lon="-1.56493">
        <ele>1349.5</ele>
        <time>2023-08-19T06:59:45Z</time>
      </trkpt>
      <trkpt lat="40.3758" lon="-1.56517">
        <ele>1349.7</ele>
        <time>2023-08-19T06:59:48Z</time>
      </trkpt>
      <trkpt lat="40.3758" lon="-1.56551">
        <ele>1349.3</ele>
        <time>2023-08-19T06:59:52Z</time>
      </trkpt>
      <trkpt lat="40.37573" lon="-1.56584">
        <ele>1348.9</ele>
        <time>2023-08-19T06:59:56Z</time>
      </trkpt>
      <trkpt lat="40.37562" lon="-1.56615">
        <ele>1349</ele>
        <time>2023-08-19T07:00:00Z</time>
      </trkpt>
      <trkpt lat="40.3755" lon="-1.56642">
        <ele>1349.1</ele>
        <time>2023-08-19T07:00:03Z</time>
      </trkpt>
      <trkpt lat="40.37537" lon="-1.5666">
        <ele>1350.5</ele>
        <time>2023-08-19T07:00:07Z</time>
      </trkpt>
      <trkpt lat="40.37518" lon="-1.56684">
        <ele>1351.6</ele>
        <time>2023-08-19T07:00:10Z</time>
      </trkpt>
      <trkpt lat="40.37503" lon="-1.567">
        <ele>1352.9</ele>
        <time>2023-08-19T07:00:13Z</time>
      </trkpt>
      <trkpt lat="40.3748" lon="-1.56715">
        <ele>1354.3</ele>
        <time>2023-08-19T07:00:18Z</time>
      </trkpt>
      <trkpt lat="40.37457" lon="-1.56729">
        <ele>1355.3</ele>
        <time>2023-08-19T07:00:22Z</time>
      </trkpt>
      <trkpt lat="40.37434" lon="-1.56744">
        <ele>1355.9</ele>
        <time>2023-08-19T07:00:26Z</time>
      </trkpt>
      <trkpt lat="40.37416" lon="-1.56755">
        <ele>1355.9</ele>
        <time>2023-08-19T07:00:29Z</time>
      </trkpt>
      <trkpt lat="40.37395" lon="-1.56773">
        <ele>1356</ele>
        <time>2023-08-19T07:00:33Z</time>
      </trkpt>
      <trkpt lat="40.37377" lon="-1.56795">
        <ele>1356.4</ele>
        <time>2023-08-19T07:00:37Z</time>
      </trkpt>
      <trkpt lat="40.37358" lon="-1.56817">
        <ele>1356.4</ele>
        <time>2023-08-19T07:00:40Z</time>
      </trkpt>
      <trkpt lat="40.37338" lon="-1.56839">
        <ele>1356</ele>
        <time>2023-08-19T07:00:45Z</time>
      </trkpt>
      <trkpt lat="40.37319" lon="-1.56861">
        <ele>1356.1</ele>
        <time>2023-08-19T07:00:49Z</time>
      </trkpt>
      <trkpt lat="40.37304" lon="-1.56878">
        <ele>1356.3</ele>
        <time>2023-08-19T07:00:52Z</time>
      </trkpt>
      <trkpt lat="40.3729" lon="-1.56896">
        <ele>1356.5</ele>
        <time>2023-08-19T07:00:55Z</time>
      </trkpt>
      <trkpt lat="40.37271" lon="-1.56918">
        <ele>1356.5</ele>
        <time>2023-08-19T07:00:58Z</time>
      </trkpt>
      <trkpt lat="40.37253" lon="-1.5694">
        <ele>1356.9</ele>
        <time>2023-08-19T07:01:03Z</time>
      </trkpt>
      <trkpt lat="40.3724" lon="-1.56957">
        <ele>1357.5</ele>
        <time>2023-08-19T07:01:06Z</time>
      </trkpt>
      <trkpt lat="40.37226" lon="-1.56974">
        <ele>1356.9</ele>
        <time>2023-08-19T07:01:09Z</time>
      </trkpt>
      <trkpt lat="40.37207" lon="-1.56998">
        <ele>1357.6</ele>
        <time>2023-08-19T07:01:12Z</time>
      </trkpt>
      <trkpt lat="40.37196" lon="-1.57019">
        <ele>1357.5</ele>
        <time>2023-08-19T07:01:16Z</time>
      </trkpt>
      <trkpt lat="40.37189" lon="-1.57043">
        <ele>1357.9</ele>
        <time>2023-08-19T07:01:19Z</time>
      </trkpt>
      <trkpt lat="40.37187" lon="-1.57077">
        <ele>1358.3</ele>
        <time>2023-08-19T07:01:23Z</time>
      </trkpt>
      <trkpt lat="40.37189" lon="-1.57107">
        <ele>1358</ele>
        <time>2023-08-19T07:01:27Z</time>
      </trkpt>
      <trkpt lat="40.37191" lon="-1.57136">
        <ele>1358.2</ele>
        <time>2023-08-19T07:01:31Z</time>
      </trkpt>
      <trkpt lat="40.37191" lon="-1.57167">
        <ele>1358.7</ele>
        <time>2023-08-19T07:01:35Z</time>
      </trkpt>
      <trkpt lat="40.37191" lon="-1.57191">
        <ele>1358</ele>
        <time>2023-08-19T07:01:38Z</time>
      </trkpt>
      <trkpt lat="40.37193" lon="-1.57223">
        <ele>1357.6</ele>
        <time>2023-08-19T07:01:42Z</time>
      </trkpt>
      <trkpt lat="40.37197" lon="-1.57253">
        <ele>1358.3</ele>
        <time>2023-08-19T07:01:46Z</time>
      </trkpt>
      <trkpt lat="40.37202" lon="-1.57275">
        <ele>1358.6</ele>
        <time>2023-08-19T07:01:49Z</time>
      </trkpt>
      <trkpt lat="40.37209" lon="-1.57306">
        <ele>1358.4</ele>
        <time>2023-08-19T07:01:53Z</time>
      </trkpt>
      <trkpt lat="40.37216" lon="-1.57338">
        <ele>1358.7</ele>
        <time>2023-08-19T07:01:57Z</time>
      </trkpt>
      <trkpt lat="40.3722" lon="-1.5736">
        <ele>1358</ele>
        <time>2023-08-19T07:02:00Z</time>
      </trkpt>
      <trkpt lat="40.37227" lon="-1.57388">
        <ele>1358.1</ele>
        <time>2023-08-19T07:02:03Z</time>
      </trkpt>
      <trkpt lat="40.37233" lon="-1.57412">
        <ele>1357.8</ele>
        <time>2023-08-19T07:02:07Z</time>
      </trkpt>
      <trkpt lat="40.37239" lon="-1.57437">
        <ele>1358</ele>
        <time>2023-08-19T07:02:10Z</time>
      </trkpt>
      <trkpt lat="40.37245" lon="-1.5747">
        <ele>1358.4</ele>
        <time>2023-08-19T07:02:13Z</time>
      </trkpt>
      <trkpt lat="40.37254" lon="-1.57502">
        <ele>1358.9</ele>
        <time>2023-08-19T07:02:18Z</time>
      </trkpt>
      <trkpt lat="40.37257" lon="-1.57528">
        <ele>1358.9</ele>
        <time>2023-08-19T07:02:21Z</time>
      </trkpt>
      <trkpt lat="40.37254" lon="-1.57561">
        <ele>1359</ele>
        <time>2023-08-19T07:02:25Z</time>
      </trkpt>
      <trkpt lat="40.3725" lon="-1.57594">
        <ele>1359</ele>
        <time>2023-08-19T07:02:28Z</time>
      </trkpt>
      <trkpt lat="40.37249" lon="-1.57617">
        <ele>1358.6</ele>
        <time>2023-08-19T07:02:32Z</time>
      </trkpt>
      <trkpt lat="40.37241" lon="-1.57639">
        <ele>1358.6</ele>
        <time>2023-08-19T07:02:35Z</time>
      </trkpt>
      <trkpt lat="40.37232" lon="-1.5767">
        <ele>1358.5</ele>
        <time>2023-08-19T07:02:39Z</time>
      </trkpt>
      <trkpt lat="40.37229" lon="-1.57695">
        <ele>1358.9</ele>
        <time>2023-08-19T07:02:42Z</time>
      </trkpt>
      <trkpt lat="40.37223" lon="-1.5773">
        <ele>1359</ele>
        <time>2023-08-19T07:02:45Z</time>
      </trkpt>
      <trkpt lat="40.37213" lon="-1.57754">
        <ele>1359.7</ele>
        <time>2023-08-19T07:02:49Z</time>
      </trkpt>
      <trkpt lat="40.37198" lon="-1.57782">
        <ele>1359.6</ele>
        <time>2023-08-19T07:02:52Z</time>
      </trkpt>
      <trkpt lat="40.37185" lon="-1.57809">
        <ele>1360.1</ele>
        <time>2023-08-19T07:02:57Z</time>
      </trkpt>
      <trkpt lat="40.3717" lon="-1.57824">
        <ele>1360.2</ele>
        <time>2023-08-19T07:03:00Z</time>
      </trkpt>
      <trkpt lat="40.37148" lon="-1.57825">
        <ele>1360.5</ele>
        <time>2023-08-19T07:03:03Z</time>
      </trkpt>
      <trkpt lat="40.37121" lon="-1.57813">
        <ele>1360.9</ele>
        <time>2023-08-19T07:03:06Z</time>
      </trkpt>
      <trkpt lat="40.37104" lon="-1.57806">
        <ele>1360.4</ele>
        <time>2023-08-19T07:03:10Z</time>
      </trkpt>
      <trkpt lat="40.37079" lon="-1.57801">
        <ele>1360.7</ele>
        <time>2023-08-19T07:03:14Z</time>
      </trkpt>
      <trkpt lat="40.37054" lon="-1.578">
        <ele>1360.4</ele>
        <time>2023-08-19T07:03:18Z</time>
      </trkpt>
      <trkpt lat="40.37028" lon="-1.578">
        <ele>1360.5</ele>
        <time>2023-08-19T07:03:21Z</time>
      </trkpt>
      <trkpt lat="40.37001" lon="-1.578">
        <ele>1361</ele>
        <time>2023-08-19T07:03:26Z</time>
      </trkpt>
      <trkpt lat="40.36976" lon="-1.57795">
        <ele>1361.8</ele>
        <time>2023-08-19T07:03:30Z</time>
      </trkpt>
      <trkpt lat="40.36961" lon="-1.57786">
        <ele>1363</ele>
        <time>2023-08-19T07:03:33Z</time>
      </trkpt>
      <trkpt lat="40.36944" lon="-1.57769">
        <ele>1364.6</ele>
        <time>2023-08-19T07:03:37Z</time>
      </trkpt>
      <trkpt lat="40.36925" lon="-1.57758">
        <ele>1366.6</ele>
        <time>2023-08-19T07:03:41Z</time>
      </trkpt>
      <trkpt lat="40.36905" lon="-1.57749">
        <ele>1368.4</ele>
        <time>2023-08-19T07:03:44Z</time>
      </trkpt>
      <trkpt lat="40.3689" lon="-1.57743">
        <ele>1370.3</ele>
        <time>2023-08-19T07:03:47Z</time>
      </trkpt>
      <trkpt lat="40.36871" lon="-1.57731">
        <ele>1372.4</ele>
        <time>2023-08-19T07:03:52Z</time>
      </trkpt>
      <trkpt lat="40.36857" lon="-1.57717">
        <ele>1373.7</ele>
        <time>2023-08-19T07:03:55Z</time>
      </trkpt>
      <trkpt lat="40.36837" lon="-1.577">
        <ele>1375.6</ele>
        <time>2023-08-19T07:03:59Z</time>
      </trkpt>
      <trkpt lat="40.36815" lon="-1.57697">
        <ele>1377.6</ele>
        <time>2023-08-19T07:04:03Z</time>
      </trkpt>
      <trkpt lat="40.36794" lon="-1.57706">
        <ele>1379.8</ele>
        <time>2023-08-19T07:04:07Z</time>
      </trkpt>
      <trkpt lat="40.36776" lon="-1.57723">
        <ele>1381.9</ele>
        <time>2023-08-19T07:04:10Z</time>
      </trkpt>
      <trkpt lat="40.36764" lon="-1.57739">
        <ele>1383.5</ele>
        <time>2023-08-19T07:04:14Z</time>
      </trkpt>
      <trkpt lat="40.36752" lon="-1.57762">
        <ele>1385.1</ele>
        <time>2023-08-19T07:04:18Z</time>
      </trkpt>
      <trkpt lat="40.36743" lon="-1.57779">
        <ele>1386.2</ele>
        <time>2023-08-19T07:04:21Z</time>
      </trkpt>
      <trkpt lat="40.36731" lon="-1.57801">
        <ele>1388.2</ele>
        <time>2023-08-19T07:04:24Z</time>
      </trkpt>
      <trkpt lat="40.36717" lon="-1.57815">
        <ele>1389.6</ele>
        <time>2023-08-19T07:04:28Z</time>
      </trkpt>
      <trkpt lat="40.36695" lon="-1.57828">
        <ele>1391.7</ele>
        <time>2023-08-19T07:04:32Z</time>
      </trkpt>
      <trkpt lat="40.36673" lon="-1.57837">
        <ele>1393.9</ele>
        <time>2023-08-19T07:04:36Z</time>
      </trkpt>
      <trkpt lat="40.36657" lon="-1.57846">
        <ele>1395.1</ele>
        <time>2023-08-19T07:04:39Z</time>
      </trkpt>
      <trkpt lat="40.36641" lon="-1.57865">
        <ele>1397</ele>
        <time>2023-08-19T07:04:42Z</time>
      </trkpt>
      <trkpt lat="40.36629" lon="-1.5788">
        <ele>1398.7</ele>
        <time>2023-08-19T07:04:46Z</time>
      </trkpt>
      <trkpt lat="40.36613" lon="-1.57899">
        <ele>1399.7</ele>
        <time>2023-08-19T07:04:50Z</time>
      </trkpt>
      <trkpt lat="40.36601" lon="-1.57912">
        <ele>1401.4</ele>
        <time>2023-08-19T07:04:53Z</time>
      </trkpt>
      <trkpt lat="40.36585" lon="-1.5793">
        <ele>1402.9</ele>
        <time>2023-08-19T07:04:57Z</time>
      </trkpt>
      <trkpt lat="40.36567" lon="-1.57945">
        <ele>1405.6</ele>
        <time>2023-08-19T07:05:01Z</time>
      </trkpt>
      <trkpt lat="40.36546" lon="-1.57958">
        <ele>1406.6</ele>
        <time>2023-08-19T07:05:05Z</time>
      </trkpt>
      <trkpt lat="40.36525" lon="-1.57969">
        <ele>1408.5</ele>
        <time>2023-08-19T07:05:09Z</time>
      </trkpt>
      <trkpt lat="40.36506" lon="-1.57983">
        <ele>1410.4</ele>
        <time>2023-08-19T07:05:13Z</time>
      </trkpt>
      <trkpt lat="40.36493" lon="-1.57996">
        <ele>1411.9</ele>
        <time>2023-08-19T07:05:16Z</time>
      </trkpt>
      <trkpt lat="40.36482" lon="-1.58012">
        <ele>1413.5</ele>
        <time>2023-08-19T07:05:19Z</time>
      </trkpt>
      <trkpt lat="40.36475" lon="-1.58029">
        <ele>1415.5</ele>
        <time>2023-08-19T07:05:22Z</time>
      </trkpt>
      <trkpt lat="40.36472" lon="-1.58051">
        <ele>1417</ele>
        <time>2023-08-19T07:05:25Z</time>
      </trkpt>
      <trkpt lat="40.36467" lon="-1.58081">
        <ele>1418.7</ele>
        <time>2023-08-19T07:05:29Z</time>
      </trkpt>
      <trkpt lat="40.36456" lon="-1.58107">
        <ele>1421.5</ele>
        <time>2023-08-19T07:05:33Z</time>
      </trkpt>
      <trkpt lat="40.36444" lon="-1.58122">
        <ele>1423.3</ele>
        <time>2023-08-19T07:05:36Z</time>
      </trkpt>
      <trkpt lat="40.36422" lon="-1.58137">
        <ele>1424.9</ele>
        <time>2023-08-19T07:05:39Z</time>
      </trkpt>
      <trkpt lat="40.36395" lon="-1.58138">
        <ele>1426.7</ele>
        <time>2023-08-19T07:05:44Z</time>
      </trkpt>
      <trkpt lat="40.36376" lon="-1.58131">
        <ele>1428.9</ele>
        <time>2023-08-19T07:05:48Z</time>
      </trkpt>
      <trkpt lat="40.36359" lon="-1.58125">
        <ele>1431</ele>
        <time>2023-08-19T07:05:52Z</time>
      </trkpt>
      <trkpt lat="40.36341" lon="-1.58129">
        <ele>1433.1</ele>
        <time>2023-08-19T07:05:56Z</time>
      </trkpt>
      <trkpt lat="40.36319" lon="-1.58142">
        <ele>1434.5</ele>
        <time>2023-08-19T07:06:00Z</time>
      </trkpt>
      <trkpt lat="40.36298" lon="-1.58155">
        <ele>1436.2</ele>
        <time>2023-08-19T07:06:03Z</time>
      </trkpt>
      <trkpt lat="40.36282" lon="-1.58162">
        <ele>1437.7</ele>
        <time>2023-08-19T07:06:06Z</time>
      </trkpt>
      <trkpt lat="40.36265" lon="-1.58164">
        <ele>1439.5</ele>
        <time>2023-08-19T07:06:10Z</time>
      </trkpt>
      <trkpt lat="40.36242" lon="-1.58163">
        <ele>1440.8</ele>
        <time>2023-08-19T07:06:14Z</time>
      </trkpt>
      <trkpt lat="40.36221" lon="-1.5816">
        <ele>1443.1</ele>
        <time>2023-08-19T07:06:17Z</time>
      </trkpt>
      <trkpt lat="40.36206" lon="-1.58158">
        <ele>1444.1</ele>
        <time>2023-08-19T07:06:20Z</time>
      </trkpt>
      <trkpt lat="40.36184" lon="-1.58155">
        <ele>1445.5</ele>
        <time>2023-08-19T07:06:25Z</time>
      </trkpt>
      <trkpt lat="40.36167" lon="-1.58154">
        <ele>1446.7</ele>
        <time>2023-08-19T07:06:28Z</time>
      </trkpt>
      <trkpt lat="40.36146" lon="-1.58156">
        <ele>1448.7</ele>
        <time>2023-08-19T07:06:32Z</time>
      </trkpt>
      <trkpt lat="40.36123" lon="-1.58159">
        <ele>1450.5</ele>
        <time>2023-08-19T07:06:36Z</time>
      </trkpt>
      <trkpt lat="40.36107" lon="-1.58163">
        <ele>1451</ele>
        <time>2023-08-19T07:06:39Z</time>
      </trkpt>
      <trkpt lat="40.36091" lon="-1.58167">
        <ele>1453.1</ele>
        <time>2023-08-19T07:06:42Z</time>
      </trkpt>
      <trkpt lat="40.36069" lon="-1.58173">
        <ele>1454.8</ele>
        <time>2023-08-19T07:06:45Z</time>
      </trkpt>
      <trkpt lat="40.36052" lon="-1.58178">
        <ele>1456.6</ele>
        <time>2023-08-19T07:06:49Z</time>
      </trkpt>
      <trkpt lat="40.36036" lon="-1.58182">
        <ele>1457.8</ele>
        <time>2023-08-19T07:06:52Z</time>
      </trkpt>
      <trkpt lat="40.36015" lon="-1.58179">
        <ele>1459.6</ele>
        <time>2023-08-19T07:06:56Z</time>
      </trkpt>
      <trkpt lat="40.36" lon="-1.58155">
        <ele>1460.7</ele>
        <time>2023-08-19T07:06:59Z</time>
      </trkpt>
      <trkpt lat="40.35995" lon="-1.58129">
        <ele>1461</ele>
        <time>2023-08-19T07:07:03Z</time>
      </trkpt>
      <trkpt lat="40.3599" lon="-1.58106">
        <ele>1461.4</ele>
        <time>2023-08-19T07:07:06Z</time>
      </trkpt>
      <trkpt lat="40.35983" lon="-1.58079">
        <ele>1463</ele>
        <time>2023-08-19T07:07:09Z</time>
      </trkpt>
      <trkpt lat="40.35973" lon="-1.58058">
        <ele>1464.3</ele>
        <time>2023-08-19T07:07:14Z</time>
      </trkpt>
      <trkpt lat="40.35964" lon="-1.5804">
        <ele>1466.6</ele>
        <time>2023-08-19T07:07:17Z</time>
      </trkpt>
      <trkpt lat="40.35952" lon="-1.58015">
        <ele>1467.8</ele>
        <time>2023-08-19T07:07:21Z</time>
      </trkpt>
      <trkpt lat="40.35937" lon="-1.57992">
        <ele>1469.8</ele>
        <time>2023-08-19T07:07:25Z</time>
      </trkpt>
      <trkpt lat="40.35925" lon="-1.57979">
        <ele>1470.8</ele>
        <time>2023-08-19T07:07:28Z</time>
      </trkpt>
      <trkpt lat="40.35907" lon="-1.57967">
        <ele>1471.4</ele>
        <time>2023-08-19T07:07:31Z</time>
      </trkpt>
      <trkpt lat="40.35891" lon="-1.57961">
        <ele>1471.8</ele>
        <time>2023-08-19T07:07:35Z</time>
      </trkpt>
      <trkpt lat="40.35869" lon="-1.57958">
        <ele>1473.5</ele>
        <time>2023-08-19T07:07:39Z</time>
      </trkpt>
      <trkpt lat="40.35848" lon="-1.57961">
        <ele>1475.2</ele>
        <time>2023-08-19T07:07:42Z</time>
      </trkpt>
      <trkpt lat="40.35833" lon="-1.57966">
        <ele>1477.1</ele>
        <time>2023-08-19T07:07:46Z</time>
      </trkpt>
      <trkpt lat="40.35812" lon="-1.57973">
        <ele>1478.3</ele>
        <time>2023-08-19T07:07:50Z</time>
      </trkpt>
      <trkpt lat="40.35791" lon="-1.57978">
        <ele>1479.9</ele>
        <time>2023-08-19T07:07:53Z</time>
      </trkpt>
      <trkpt lat="40.35769" lon="-1.57983">
        <ele>1481.2</ele>
        <time>2023-08-19T07:07:58Z</time>
      </trkpt>
      <trkpt lat="40.35753" lon="-1.57982">
        <ele>1481.9</ele>
        <time>2023-08-19T07:08:01Z</time>
      </trkpt>
      <trkpt lat="40.3573" lon="-1.57978">
        <ele>1482.8</ele>
        <time>2023-08-19T07:08:05Z</time>
      </trkpt>
      <trkpt lat="40.35709" lon="-1.57978">
        <ele>1484.1</ele>
        <time>2023-08-19T07:08:08Z</time>
      </trkpt>
      <trkpt lat="40.35692" lon="-1.5798">
        <ele>1485.6</ele>
        <time>2023-08-19T07:08:11Z</time>
      </trkpt>
      <trkpt lat="40.35677" lon="-1.57985">
        <ele>1487.3</ele>
        <time>2023-08-19T07:08:15Z</time>
      </trkpt>
      <trkpt lat="40.35661" lon="-1.5799">
        <ele>1488.6</ele>
        <time>2023-08-19T07:08:18Z</time>
      </trkpt>
      <trkpt lat="40.35639" lon="-1.57994">
        <ele>1490.1</ele>
        <time>2023-08-19T07:08:22Z</time>
      </trkpt>
      <trkpt lat="40.35623" lon="-1.57997">
        <ele>1491.4</ele>
        <time>2023-08-19T07:08:25Z</time>
      </trkpt>
      <trkpt lat="40.35612" lon="-1.58012">
        <ele>1492.3</ele>
        <time>2023-08-19T07:08:28Z</time>
      </trkpt>
      <trkpt lat="40.35609" lon="-1.58033">
        <ele>1493.1</ele>
        <time>2023-08-19T07:08:31Z</time>
      </trkpt>
      <trkpt lat="40.35616" lon="-1.58061">
        <ele>1494.5</ele>
        <time>2023-08-19T07:08:35Z</time>
      </trkpt>
      <trkpt lat="40.35627" lon="-1.5808">
        <ele>1494.4</ele>
        <time>2023-08-19T07:08:38Z</time>
      </trkpt>
      <trkpt lat="40.35645" lon="-1.58102">
        <ele>1495.3</ele>
        <time>2023-08-19T07:08:41Z</time>
      </trkpt>
      <trkpt lat="40.35656" lon="-1.58117">
        <ele>1496.7</ele>
        <time>2023-08-19T07:08:44Z</time>
      </trkpt>
      <trkpt lat="40.35666" lon="-1.58132">
        <ele>1496.8</ele>
        <time>2023-08-19T07:08:47Z</time>
      </trkpt>
      <trkpt lat="40.35676" lon="-1.58155">
        <ele>1498.5</ele>
        <time>2023-08-19T07:08:52Z</time>
      </trkpt>
      <trkpt lat="40.35685" lon="-1.58181">
        <ele>1499.5</ele>
        <time>2023-08-19T07:08:56Z</time>
      </trkpt>
      <trkpt lat="40.35691" lon="-1.58201">
        <ele>1500.3</ele>
        <time>2023-08-19T07:08:59Z</time>
      </trkpt>
      <trkpt lat="40.35696" lon="-1.58222">
        <ele>1501.2</ele>
        <time>2023-08-19T07:09:02Z</time>
      </trkpt>
      <trkpt lat="40.35701" lon="-1.5825">
        <ele>1502.8</ele>
        <time>2023-08-19T07:09:05Z</time>
      </trkpt>
      <trkpt lat="40.35703" lon="-1.58272">
        <ele>1503.3</ele>
        <time>2023-08-19T07:09:08Z</time>
      </trkpt>
      <trkpt lat="40.357" lon="-1.58293">
        <ele>1505</ele>
        <time>2023-08-19T07:09:11Z</time>
      </trkpt>
      <trkpt lat="40.35693" lon="-1.58313">
        <ele>1506.5</ele>
        <time>2023-08-19T07:09:14Z</time>
      </trkpt>
      <trkpt lat="40.35681" lon="-1.58329">
        <ele>1507.7</ele>
        <time>2023-08-19T07:09:17Z</time>
      </trkpt>
      <trkpt lat="40.35667" lon="-1.5834">
        <ele>1509.1</ele>
        <time>2023-08-19T07:09:21Z</time>
      </trkpt>
      <trkpt lat="40.35647" lon="-1.5835">
        <ele>1510.3</ele>
        <time>2023-08-19T07:09:24Z</time>
      </trkpt>
      <trkpt lat="40.35629" lon="-1.58357">
        <ele>1511.4</ele>
        <time>2023-08-19T07:09:29Z</time>
      </trkpt>
      <trkpt lat="40.35612" lon="-1.58363">
        <ele>1512.8</ele>
        <time>2023-08-19T07:09:32Z</time>
      </trkpt>
      <trkpt lat="40.35589" lon="-1.58369">
        <ele>1514.2</ele>
        <time>2023-08-19T07:09:36Z</time>
      </trkpt>
      <trkpt lat="40.35572" lon="-1.58373">
        <ele>1515.6</ele>
        <time>2023-08-19T07:09:39Z</time>
      </trkpt>
      <trkpt lat="40.35555" lon="-1.58376">
        <ele>1518</ele>
        <time>2023-08-19T07:09:42Z</time>
      </trkpt>
      <trkpt lat="40.35533" lon="-1.58382">
        <ele>1519.7</ele>
        <time>2023-08-19T07:09:45Z</time>
      </trkpt>
      <trkpt lat="40.35511" lon="-1.5839">
        <ele>1521.9</ele>
        <time>2023-08-19T07:09:50Z</time>
      </trkpt>
      <trkpt lat="40.3549" lon="-1.58398">
        <ele>1522.8</ele>
        <time>2023-08-19T07:09:54Z</time>
      </trkpt>
      <trkpt lat="40.3547" lon="-1.58409">
        <ele>1524.3</ele>
        <time>2023-08-19T07:09:57Z</time>
      </trkpt>
      <trkpt lat="40.35451" lon="-1.58422">
        <ele>1526.4</ele>
        <time>2023-08-19T07:10:02Z</time>
      </trkpt>
      <trkpt lat="40.35438" lon="-1.58435">
        <ele>1527.2</ele>
        <time>2023-08-19T07:10:05Z</time>
      </trkpt>
      <trkpt lat="40.35423" lon="-1.58456">
        <ele>1528.9</ele>
        <time>2023-08-19T07:10:09Z</time>
      </trkpt>
      <trkpt lat="40.35414" lon="-1.58481">
        <ele>1530.8</ele>
        <time>2023-08-19T07:10:13Z</time>
      </trkpt>
      <trkpt lat="40.35416" lon="-1.58502">
        <ele>1532</ele>
        <time>2023-08-19T07:10:16Z</time>
      </trkpt>
      <trkpt lat="40.35427" lon="-1.58526">
        <ele>1534.1</ele>
        <time>2023-08-19T07:10:20Z</time>
      </trkpt>
      <trkpt lat="40.3544" lon="-1.5855">
        <ele>1535.7</ele>
        <time>2023-08-19T07:10:23Z</time>
      </trkpt>
      <trkpt lat="40.35452" lon="-1.58573">
        <ele>1537</ele>
        <time>2023-08-19T07:10:28Z</time>
      </trkpt>
      <trkpt lat="40.35461" lon="-1.58591">
        <ele>1538.7</ele>
        <time>2023-08-19T07:10:31Z</time>
      </trkpt>
      <trkpt lat="40.35471" lon="-1.58619">
        <ele>1540.1</ele>
        <time>2023-08-19T07:10:35Z</time>
      </trkpt>
      <trkpt lat="40.35476" lon="-1.58647">
        <ele>1543.1</ele>
        <time>2023-08-19T07:10:38Z</time>
      </trkpt>
      <trkpt lat="40.35475" lon="-1.58668">
        <ele>1543.7</ele>
        <time>2023-08-19T07:10:41Z</time>
      </trkpt>
      <trkpt lat="40.3546" lon="-1.58688">
        <ele>1545.9</ele>
        <time>2023-08-19T07:10:46Z</time>
      </trkpt>
      <trkpt lat="40.35438" lon="-1.58701">
        <ele>1548</ele>
        <time>2023-08-19T07:10:50Z</time>
      </trkpt>
      <trkpt lat="40.35423" lon="-1.5871">
        <ele>1548.8</ele>
        <time>2023-08-19T07:10:53Z</time>
      </trkpt>
      <trkpt lat="40.35409" lon="-1.58721">
        <ele>1549.4</ele>
        <time>2023-08-19T07:10:56Z</time>
      </trkpt>
      <trkpt lat="40.35394" lon="-1.58741">
        <ele>1551.4</ele>
        <time>2023-08-19T07:11:00Z</time>
      </trkpt>
      <trkpt lat="40.35384" lon="-1.58759">
        <ele>1552.5</ele>
        <time>2023-08-19T07:11:03Z</time>
      </trkpt>
      <trkpt lat="40.35375" lon="-1.58779">
        <ele>1553.4</ele>
        <time>2023-08-19T07:11:06Z</time>
      </trkpt>
      <trkpt lat="40.35365" lon="-1.58804">
        <ele>1555.7</ele>
        <time>2023-08-19T07:11:09Z</time>
      </trkpt>
      <trkpt lat="40.35356" lon="-1.5883">
        <ele>1558.4</ele>
        <time>2023-08-19T07:11:14Z</time>
      </trkpt>
      <trkpt lat="40.35343" lon="-1.58853">
        <ele>1559.6</ele>
        <time>2023-08-19T07:11:18Z</time>
      </trkpt>
      <trkpt lat="40.35324" lon="-1.5887">
        <ele>1560.2</ele>
        <time>2023-08-19T07:11:21Z</time>
      </trkpt>
      <trkpt lat="40.3531" lon="-1.58881">
        <ele>1561.7</ele>
        <time>2023-08-19T07:11:24Z</time>
      </trkpt>
      <trkpt lat="40.35297" lon="-1.58893">
        <ele>1562.9</ele>
        <time>2023-08-19T07:11:27Z</time>
      </trkpt>
      <trkpt lat="40.35283" lon="-1.58905">
        <ele>1564.3</ele>
        <time>2023-08-19T07:11:30Z</time>
      </trkpt>
      <trkpt lat="40.35264" lon="-1.58921">
        <ele>1565.3</ele>
        <time>2023-08-19T07:11:35Z</time>
      </trkpt>
      <trkpt lat="40.35244" lon="-1.58935">
        <ele>1567.6</ele>
        <time>2023-08-19T07:11:39Z</time>
      </trkpt>
      <trkpt lat="40.35225" lon="-1.58947">
        <ele>1570.3</ele>
        <time>2023-08-19T07:11:42Z</time>
      </trkpt>
      <trkpt lat="40.35209" lon="-1.58965">
        <ele>1571.8</ele>
        <time>2023-08-19T07:11:47Z</time>
      </trkpt>
      <trkpt lat="40.35198" lon="-1.5898">
        <ele>1572.4</ele>
        <time>2023-08-19T07:11:50Z</time>
      </trkpt>
      <trkpt lat="40.35183" lon="-1.58999">
        <ele>1573.9</ele>
        <time>2023-08-19T07:11:54Z</time>
      </trkpt>
      <trkpt lat="40.35164" lon="-1.59019">
        <ele>1574.6</ele>
        <time>2023-08-19T07:11:57Z</time>
      </trkpt>
      <trkpt lat="40.35151" lon="-1.59035">
        <ele>1574.8</ele>
        <time>2023-08-19T07:12:01Z</time>
      </trkpt>
      <trkpt lat="40.35134" lon="-1.59053">
        <ele>1575.6</ele>
        <time>2023-08-19T07:12:05Z</time>
      </trkpt>
      <trkpt lat="40.3512" lon="-1.5907">
        <ele>1578</ele>
        <time>2023-08-19T07:12:09Z</time>
      </trkpt>
      <trkpt lat="40.35108" lon="-1.59085">
        <ele>1579.9</ele>
        <time>2023-08-19T07:12:12Z</time>
      </trkpt>
      <trkpt lat="40.35095" lon="-1.59107">
        <ele>1581.8</ele>
        <time>2023-08-19T07:12:15Z</time>
      </trkpt>
      <trkpt lat="40.35087" lon="-1.59126">
        <ele>1582.5</ele>
        <time>2023-08-19T07:12:18Z</time>
      </trkpt>
      <trkpt lat="40.35076" lon="-1.59151">
        <ele>1584.6</ele>
        <time>2023-08-19T07:12:23Z</time>
      </trkpt>
      <trkpt lat="40.35062" lon="-1.59173">
        <ele>1586.5</ele>
        <time>2023-08-19T07:12:27Z</time>
      </trkpt>
      <trkpt lat="40.3505" lon="-1.59189">
        <ele>1587.6</ele>
        <time>2023-08-19T07:12:30Z</time>
      </trkpt>
      <trkpt lat="40.35033" lon="-1.59208">
        <ele>1589.8</ele>
        <time>2023-08-19T07:12:33Z</time>
      </trkpt>
      <trkpt lat="40.3502" lon="-1.59221">
        <ele>1592.7</ele>
        <time>2023-08-19T07:12:37Z</time>
      </trkpt>
      <trkpt lat="40.35006" lon="-1.59233">
        <ele>1592.9</ele>
        <time>2023-08-19T07:12:40Z</time>
      </trkpt>
      <trkpt lat="40.34988" lon="-1.59249">
        <ele>1594.6</ele>
        <time>2023-08-19T07:12:43Z</time>
      </trkpt>
      <trkpt lat="40.34969" lon="-1.59265">
        <ele>1596.3</ele>
        <time>2023-08-19T07:12:48Z</time>
      </trkpt>
      <trkpt lat="40.34951" lon="-1.59282">
        <ele>1598.4</ele>
        <time>2023-08-19T07:12:52Z</time>
      </trkpt>
      <trkpt lat="40.34933" lon="-1.593">
        <ele>1600.6</ele>
        <time>2023-08-19T07:12:55Z</time>
      </trkpt>
      <trkpt lat="40.34916" lon="-1.59317">
        <ele>1601.3</ele>
        <time>2023-08-19T07:13:00Z</time>
      </trkpt>
      <trkpt lat="40.349" lon="-1.59336">
        <ele>1603.5</ele>
        <time>2023-08-19T07:13:04Z</time>
      </trkpt>
      <trkpt lat="40.34887" lon="-1.59358">
        <ele>1605</ele>
        <time>2023-08-19T07:13:08Z</time>
      </trkpt>
      <trkpt lat="40.34877" lon="-1.59376">
        <ele>1606</ele>
        <time>2023-08-19T07:13:11Z</time>
      </trkpt>
      <trkpt lat="40.34868" lon="-1.59394">
        <ele>1607.3</ele>
        <time>2023-08-19T07:13:14Z</time>
      </trkpt>
      <trkpt lat="40.34856" lon="-1.59418">
        <ele>1609.5</ele>
        <time>2023-08-19T07:13:17Z</time>
      </trkpt>
      <trkpt lat="40.34843" lon="-1.59443">
        <ele>1610.3</ele>
        <time>2023-08-19T07:13:22Z</time>
      </trkpt>
      <trkpt lat="40.3483" lon="-1.59468">
        <ele>1611.4</ele>
        <time>2023-08-19T07:13:26Z</time>
      </trkpt>
      <trkpt lat="40.34816" lon="-1.59491">
        <ele>1611.8</ele>
        <time>2023-08-19T07:13:29Z</time>
      </trkpt>
      <trkpt lat="40.34803" lon="-1.59507">
        <ele>1610.5</ele>
        <time>2023-08-19T07:13:33Z</time>
      </trkpt>
      <trkpt lat="40.34783" lon="-1.59528">
        <ele>1609.4</ele>
        <time>2023-08-19T07:13:37Z</time>
      </trkpt>
      <trkpt lat="40.34764" lon="-1.59551">
        <ele>1607.6</ele>
        <time>2023-08-19T07:13:41Z</time>
      </trkpt>
      <trkpt lat="40.34752" lon="-1.59569">
        <ele>1606.6</ele>
        <time>2023-08-19T07:13:44Z</time>
      </trkpt>
      <trkpt lat="40.34741" lon="-1.59591">
        <ele>1605.6</ele>
        <time>2023-08-19T07:13:47Z</time>
      </trkpt>
      <trkpt lat="40.34736" lon="-1.59626">
        <ele>1602.2</ele>
        <time>2023-08-19T07:13:51Z</time>
      </trkpt>
      <trkpt lat="40.34747" lon="-1.59657">
        <ele>1600.4</ele>
        <time>2023-08-19T07:13:55Z</time>
      </trkpt>
      <trkpt lat="40.34762" lon="-1.59686">
        <ele>1599.5</ele>
        <time>2023-08-19T07:13:58Z</time>
      </trkpt>
      <trkpt lat="40.34768" lon="-1.59713">
        <ele>1598.9</ele>
        <time>2023-08-19T07:14:02Z</time>
      </trkpt>
      <trkpt lat="40.34768" lon="-1.59741">
        <ele>1597.5</ele>
        <time>2023-08-19T07:14:05Z</time>
      </trkpt>
      <trkpt lat="40.34759" lon="-1.59775">
        <ele>1596.5</ele>
        <time>2023-08-19T07:14:09Z</time>
      </trkpt>
      <trkpt lat="40.34745" lon="-1.59805">
        <ele>1596.2</ele>
        <time>2023-08-19T07:14:13Z</time>
      </trkpt>
      <trkpt lat="40.34733" lon="-1.59827">
        <ele>1595.2</ele>
        <time>2023-08-19T07:14:16Z</time>
      </trkpt>
      <trkpt lat="40.34719" lon="-1.59856">
        <ele>1593.4</ele>
        <time>2023-08-19T07:14:20Z</time>
      </trkpt>
      <trkpt lat="40.34708" lon="-1.59878">
        <ele>1592.8</ele>
        <time>2023-08-19T07:14:23Z</time>
      </trkpt>
      <trkpt lat="40.34699" lon="-1.59913">
        <ele>1591.9</ele>
        <time>2023-08-19T07:14:27Z</time>
      </trkpt>
      <trkpt lat="40.34697" lon="-1.5995">
        <ele>1590.9</ele>
        <time>2023-08-19T07:14:31Z</time>
      </trkpt>
      <trkpt lat="40.34697" lon="-1.59988">
        <ele>1590</ele>
        <time>2023-08-19T07:14:35Z</time>
      </trkpt>
      <trkpt lat="40.347" lon="-1.60023">
        <ele>1589.4</ele>
        <time>2023-08-19T07:14:39Z</time>
      </trkpt>
      <trkpt lat="40.34704" lon="-1.60059">
        <ele>1589.2</ele>
        <time>2023-08-19T07:14:43Z</time>
      </trkpt>
      <trkpt lat="40.34707" lon="-1.60084">
        <ele>1588</ele>
        <time>2023-08-19T07:14:46Z</time>
      </trkpt>
      <trkpt lat="40.34707" lon="-1.6012">
        <ele>1586.7</ele>
        <time>2023-08-19T07:14:49Z</time>
      </trkpt>
      <trkpt lat="40.34705" lon="-1.60156">
        <ele>1586.2</ele>
        <time>2023-08-19T07:14:54Z</time>
      </trkpt>
      <trkpt lat="40.34694" lon="-1.60191">
        <ele>1585.5</ele>
        <time>2023-08-19T07:14:58Z</time>
      </trkpt>
      <trkpt lat="40.34672" lon="-1.60213">
        <ele>1584.2</ele>
        <time>2023-08-19T07:15:02Z</time>
      </trkpt>
      <trkpt lat="40.34643" lon="-1.60219">
        <ele>1582.4</ele>
        <time>2023-08-19T07:15:06Z</time>
      </trkpt>
      <trkpt lat="40.34616" lon="-1.60218">
        <ele>1583</ele>
        <time>2023-08-19T07:15:10Z</time>
      </trkpt>
      <trkpt lat="40.34591" lon="-1.60231">
        <ele>1581.8</ele>
        <time>2023-08-19T07:15:13Z</time>
      </trkpt>
      <trkpt lat="40.34578" lon="-1.60253">
        <ele>1581</ele>
        <time>2023-08-19T07:15:17Z</time>
      </trkpt>
      <trkpt lat="40.34574" lon="-1.60279">
        <ele>1580.2</ele>
        <time>2023-08-19T07:15:20Z</time>
      </trkpt>
      <trkpt lat="40.34574" lon="-1.60306">
        <ele>1580.3</ele>
        <time>2023-08-19T07:15:23Z</time>
      </trkpt>
      <trkpt lat="40.34577" lon="-1.60333">
        <ele>1580.1</ele>
        <time>2023-08-19T07:15:26Z</time>
      </trkpt>
      <trkpt lat="40.34578" lon="-1.60368">
        <ele>1579.8</ele>
        <time>2023-08-19T07:15:30Z</time>
      </trkpt>
      <trkpt lat="40.34563" lon="-1.60395">
        <ele>1578.7</ele>
        <time>2023-08-19T07:15:34Z</time>
      </trkpt>
      <trkpt lat="40.34536" lon="-1.60404">
        <ele>1577.7</ele>
        <time>2023-08-19T07:15:38Z</time>
      </trkpt>
      <trkpt lat="40.34507" lon="-1.60405">
        <ele>1577</ele>
        <time>2023-08-19T07:15:42Z</time>
      </trkpt>
      <trkpt lat="40.34486" lon="-1.60407">
        <ele>1575.1</ele>
        <time>2023-08-19T07:15:45Z</time>
      </trkpt>
      <trkpt lat="40.3446" lon="-1.6042">
        <ele>1572.2</ele>
        <time>2023-08-19T07:15:49Z</time>
      </trkpt>
      <trkpt lat="40.34443" lon="-1.60435">
        <ele>1570.7</ele>
        <time>2023-08-19T07:15:52Z</time>
      </trkpt>
      <trkpt lat="40.34422" lon="-1.60457">
        <ele>1568.6</ele>
        <time>2023-08-19T07:15:56Z</time>
      </trkpt>
      <trkpt lat="40.34405" lon="-1.60473">
        <ele>1567</ele>
        <time>2023-08-19T07:15:59Z</time>
      </trkpt>
      <trkpt lat="40.34388" lon="-1.60488">
        <ele>1565.5</ele>
        <time>2023-08-19T07:16:02Z</time>
      </trkpt>
      <trkpt lat="40.34364" lon="-1.60507">
        <ele>1563.6</ele>
        <time>2023-08-19T07:16:05Z</time>
      </trkpt>
      <trkpt lat="40.3434" lon="-1.60525">
        <ele>1562</ele>
        <time>2023-08-19T07:16:10Z</time>
      </trkpt>
      <trkpt lat="40.34316" lon="-1.60543">
        <ele>1560.1</ele>
        <time>2023-08-19T07:16:14Z</time>
      </trkpt>
      <trkpt lat="40.34298" lon="-1.60557">
        <ele>1557.6</ele>
        <time>2023-08-19T07:16:17Z</time>
      </trkpt>
      <trkpt lat="40.34278" lon="-1.60566">
        <ele>1556.8</ele>
        <time>2023-08-19T07:16:20Z</time>
      </trkpt>
      <trkpt lat="40.34251" lon="-1.60565">
        <ele>1555.1</ele>
        <time>2023-08-19T07:16:24Z</time>
      </trkpt>
      <trkpt lat="40.34224" lon="-1.60556">
        <ele>1552.9</ele>
        <time>2023-08-19T07:16:28Z</time>
      </trkpt>
      <trkpt lat="40.34198" lon="-1.60547">
        <ele>1551.4</ele>
        <time>2023-08-19T07:16:32Z</time>
      </trkpt>
      <trkpt lat="40.34172" lon="-1.60542">
        <ele>1550.6</ele>
        <time>2023-08-19T07:16:36Z</time>
      </trkpt>
      <trkpt lat="40.34145" lon="-1.60542">
        <ele>1549.3</ele>
        <time>2023-08-19T07:16:40Z</time>
      </trkpt>
      <trkpt lat="40.34118" lon="-1.60543">
        <ele>1547.7</ele>
        <time>2023-08-19T07:16:44Z</time>
      </trkpt>
      <trkpt lat="40.34091" lon="-1.60546">
        <ele>1546.6</ele>
        <time>2023-08-19T07:16:48Z</time>
      </trkpt>
      <trkpt lat="40.34063" lon="-1.60553">
        <ele>1545.5</ele>
        <time>2023-08-19T07:16:52Z</time>
      </trkpt>
      <trkpt lat="40.34036" lon="-1.6056">
        <ele>1544.1</ele>
        <time>2023-08-19T07:16:56Z</time>
      </trkpt>
      <trkpt lat="40.3401" lon="-1.60564">
        <ele>1543.6</ele>
        <time>2023-08-19T07:16:59Z</time>
      </trkpt>
      <trkpt lat="40.33991" lon="-1.60566">
        <ele>1543.3</ele>
        <time>2023-08-19T07:17:02Z</time>
      </trkpt>
      <trkpt lat="40.33973" lon="-1.60573">
        <ele>1542</ele>
        <time>2023-08-19T07:17:06Z</time>
      </trkpt>
      <trkpt lat="40.33956" lon="-1.60588">
        <ele>1540.9</ele>
        <time>2023-08-19T07:17:09Z</time>
      </trkpt>
      <trkpt lat="40.33942" lon="-1.60608">
        <ele>1539.4</ele>
        <time>2023-08-19T07:17:12Z</time>
      </trkpt>
      <trkpt lat="40.33927" lon="-1.60639">
        <ele>1537.4</ele>
        <time>2023-08-19T07:17:15Z</time>
      </trkpt>
      <trkpt lat="40.33915" lon="-1.60671">
        <ele>1535.8</ele>
        <time>2023-08-19T07:17:20Z</time>
      </trkpt>
      <trkpt lat="40.33909" lon="-1.60704">
        <ele>1534.9</ele>
        <time>2023-08-19T07:17:24Z</time>
      </trkpt>
      <trkpt lat="40.33908" lon="-1.60739">
        <ele>1534</ele>
        <time>2023-08-19T07:17:28Z</time>
      </trkpt>
      <trkpt lat="40.33908" lon="-1.60775">
        <ele>1533.6</ele>
        <time>2023-08-19T07:17:32Z</time>
      </trkpt>
      <trkpt lat="40.33911" lon="-1.6081">
        <ele>1532.5</ele>
        <time>2023-08-19T07:17:36Z</time>
      </trkpt>
      <trkpt lat="40.33919" lon="-1.60843">
        <ele>1531.5</ele>
        <time>2023-08-19T07:17:40Z</time>
      </trkpt>
      <trkpt lat="40.33932" lon="-1.60876">
        <ele>1530.3</ele>
        <time>2023-08-19T07:17:44Z</time>
      </trkpt>
      <trkpt lat="40.33946" lon="-1.60906">
        <ele>1529.6</ele>
        <time>2023-08-19T07:17:47Z</time>
      </trkpt>
      <trkpt lat="40.33958" lon="-1.60928">
        <ele>1529.2</ele>
        <time>2023-08-19T07:17:51Z</time>
      </trkpt>
      <trkpt lat="40.33968" lon="-1.60951">
        <ele>1528.2</ele>
        <time>2023-08-19T07:17:54Z</time>
      </trkpt>
      <trkpt lat="40.33976" lon="-1.60976">
        <ele>1528.3</ele>
        <time>2023-08-19T07:17:57Z</time>
      </trkpt>
      <trkpt lat="40.33983" lon="-1.6101">
        <ele>1528.2</ele>
        <time>2023-08-19T07:18:01Z</time>
      </trkpt>
      <trkpt lat="40.33982" lon="-1.61044">
        <ele>1527.7</ele>
        <time>2023-08-19T07:18:05Z</time>
      </trkpt>
      <trkpt lat="40.33968" lon="-1.61073">
        <ele>1526.3</ele>
        <time>2023-08-19T07:18:09Z</time>
      </trkpt>
      <trkpt lat="40.33956" lon="-1.61093">
        <ele>1525.2</ele>
        <time>2023-08-19T07:18:12Z</time>
      </trkpt>
      <trkpt lat="40.33944" lon="-1.61112">
        <ele>1524.6</ele>
        <time>2023-08-19T07:18:15Z</time>
      </trkpt>
      <trkpt lat="40.33933" lon="-1.61131">
        <ele>1524.2</ele>
        <time>2023-08-19T07:18:18Z</time>
      </trkpt>
      <trkpt lat="40.33921" lon="-1.61157">
        <ele>1523.6</ele>
        <time>2023-08-19T07:18:21Z</time>
      </trkpt>
      <trkpt lat="40.33908" lon="-1.61183">
        <ele>1522.3</ele>
        <time>2023-08-19T07:18:26Z</time>
      </trkpt>
      <trkpt lat="40.33902" lon="-1.61202">
        <ele>1521.3</ele>
        <time>2023-08-19T07:18:29Z</time>
      </trkpt>
      <trkpt lat="40.33893" lon="-1.61229">
        <ele>1518.4</ele>
        <time>2023-08-19T07:18:33Z</time>
      </trkpt>
      <trkpt lat="40.33884" lon="-1.61256">
        <ele>1516.1</ele>
        <time>2023-08-19T07:18:37Z</time>
      </trkpt>
      <trkpt lat="40.33874" lon="-1.61285">
        <ele>1513.5</ele>
        <time>2023-08-19T07:18:41Z</time>
      </trkpt>
      <trkpt lat="40.33861" lon="-1.61312">
        <ele>1510.6</ele>
        <time>2023-08-19T07:18:45Z</time>
      </trkpt>
      <trkpt lat="40.33846" lon="-1.61329">
        <ele>1509.3</ele>
        <time>2023-08-19T07:18:48Z</time>
      </trkpt>
      <trkpt lat="40.33821" lon="-1.61338">
        <ele>1507.6</ele>
        <time>2023-08-19T07:18:52Z</time>
      </trkpt>
      <trkpt lat="40.33794" lon="-1.61338">
        <ele>1504.1</ele>
        <time>2023-08-19T07:18:55Z</time>
      </trkpt>
      <trkpt lat="40.33768" lon="-1.61335">
        <ele>1501.5</ele>
        <time>2023-08-19T07:19:00Z</time>
      </trkpt>
      <trkpt lat="40.33743" lon="-1.61332">
        <ele>1498.3</ele>
        <time>2023-08-19T07:19:04Z</time>
      </trkpt>
      <trkpt lat="40.33725" lon="-1.61331">
        <ele>1496.3</ele>
        <time>2023-08-19T07:19:07Z</time>
      </trkpt>
      <trkpt lat="40.33702" lon="-1.61329">
        <ele>1494.7</ele>
        <time>2023-08-19T07:19:11Z</time>
      </trkpt>
      <trkpt lat="40.33689" lon="-1.6133">
        <ele>1492.7</ele>
        <time>2023-08-19T07:19:15Z</time>
      </trkpt>
      <trkpt lat="40.33684" lon="-1.61334">
        <ele>1492.4</ele>
        <time>2023-08-19T07:19:19Z</time>
      </trkpt>
      <trkpt lat="40.33681" lon="-1.61338">
        <ele>1492.1</ele>
        <time>2023-08-19T07:19:22Z</time>
      </trkpt>
      <trkpt lat="40.33678" lon="-1.6134">
        <ele>1491.8</ele>
        <time>2023-08-19T07:19:53Z</time>
      </trkpt>
      <trkpt lat="40.33681" lon="-1.61337">
        <ele>1492</ele>
        <time>2023-08-19T07:21:21Z</time>
      </trkpt>
      <trkpt lat="40.33685" lon="-1.61336">
        <ele>1492.2</ele>
        <time>2023-08-19T07:21:27Z</time>
      </trkpt>
      <trkpt lat="40.33688" lon="-1.61332">
        <ele>1493.2</ele>
        <time>2023-08-19T07:21:30Z</time>
      </trkpt>
      <trkpt lat="40.3369" lon="-1.61331">
        <ele>1492.1</ele>
        <time>2023-08-19T07:21:33Z</time>
      </trkpt>
      <trkpt lat="40.33693" lon="-1.61329">
        <ele>1493.5</ele>
        <time>2023-08-19T07:21:36Z</time>
      </trkpt>
      <trkpt lat="40.33697" lon="-1.6133">
        <ele>1492.6</ele>
        <time>2023-08-19T07:21:40Z</time>
      </trkpt>
      <trkpt lat="40.337" lon="-1.61329">
        <ele>1492.9</ele>
        <time>2023-08-19T07:21:43Z</time>
      </trkpt>
      <trkpt lat="40.33702" lon="-1.6133">
        <ele>1493.5</ele>
        <time>2023-08-19T07:21:47Z</time>
      </trkpt>
      <trkpt lat="40.33673" lon="-1.6137">
        <ele>1495.8</ele>
        <time>2023-08-19T07:38:58Z</time>
      </trkpt>
      <trkpt lat="40.33675" lon="-1.61373">
        <ele>1495.8</ele>
        <time>2023-08-19T07:39:02Z</time>
      </trkpt>
      <trkpt lat="40.33677" lon="-1.61374">
        <ele>1495.9</ele>
        <time>2023-08-19T07:39:06Z</time>
      </trkpt>
      <trkpt lat="40.33694" lon="-1.61365">
        <ele>1495.6</ele>
        <time>2023-08-19T07:40:19Z</time>
      </trkpt>
      <trkpt lat="40.33692" lon="-1.61368">
        <ele>1496.6</ele>
        <time>2023-08-19T07:41:13Z</time>
      </trkpt>
      <trkpt lat="40.33689" lon="-1.6137">
        <ele>1496.6</ele>
        <time>2023-08-19T07:41:19Z</time>
      </trkpt>
      <trkpt lat="40.33686" lon="-1.61371">
        <ele>1496.3</ele>
        <time>2023-08-19T07:41:22Z</time>
      </trkpt>
      <trkpt lat="40.33683" lon="-1.61369">
        <ele>1496</ele>
        <time>2023-08-19T07:41:25Z</time>
      </trkpt>
      <trkpt lat="40.3368" lon="-1.61366">
        <ele>1496.1</ele>
        <time>2023-08-19T07:41:37Z</time>
      </trkpt>
      <trkpt lat="40.33703" lon="-1.61354">
        <ele>1492.2</ele>
        <time>2023-08-19T07:45:33Z</time>
      </trkpt>
      <trkpt lat="40.33701" lon="-1.61354">
        <ele>1490.9</ele>
        <time>2023-08-19T07:46:10Z</time>
      </trkpt>
      <trkpt lat="40.33699" lon="-1.61357">
        <ele>1491.3</ele>
        <time>2023-08-19T07:46:14Z</time>
      </trkpt>
      <trkpt lat="40.3369" lon="-1.61362">
        <ele>1491.2</ele>
        <time>2023-08-19T07:47:13Z</time>
      </trkpt>
      <trkpt lat="40.33689" lon="-1.61362">
        <ele>1490.7</ele>
        <time>2023-08-19T07:47:19Z</time>
      </trkpt>
      <trkpt lat="40.33691" lon="-1.61359">
        <ele>1490.4</ele>
        <time>2023-08-19T07:47:29Z</time>
      </trkpt>
      <trkpt lat="40.3369" lon="-1.61361">
        <ele>1490.5</ele>
        <time>2023-08-19T07:47:32Z</time>
      </trkpt>
      <trkpt lat="40.33699" lon="-1.61357">
        <ele>1491.8</ele>
        <time>2023-08-19T07:50:05Z</time>
      </trkpt>
      <trkpt lat="40.33697" lon="-1.61357">
        <ele>1492.3</ele>
        <time>2023-08-19T07:50:09Z</time>
      </trkpt>
      <trkpt lat="40.33696" lon="-1.61357">
        <ele>1492.4</ele>
        <time>2023-08-19T07:50:30Z</time>
      </trkpt>
      <trkpt lat="40.33699" lon="-1.61355">
        <ele>1492.7</ele>
        <time>2023-08-19T07:51:26Z</time>
      </trkpt>
      <trkpt lat="40.33669" lon="-1.61368">
        <ele>1491.4</ele>
        <time>2023-08-19T07:59:02Z</time>
      </trkpt>
      <trkpt lat="40.33674" lon="-1.61356">
        <ele>1491.5</ele>
        <time>2023-08-19T07:59:07Z</time>
      </trkpt>
      <trkpt lat="40.33675" lon="-1.61352">
        <ele>1491</ele>
        <time>2023-08-19T07:59:11Z</time>
      </trkpt>
      <trkpt lat="40.33676" lon="-1.61347">
        <ele>1491.1</ele>
        <time>2023-08-19T07:59:14Z</time>
      </trkpt>
      <trkpt lat="40.33674" lon="-1.61342">
        <ele>1490.3</ele>
        <time>2023-08-19T07:59:17Z</time>
      </trkpt>
      <trkpt lat="40.3367" lon="-1.6134">
        <ele>1490.1</ele>
        <time>2023-08-19T07:59:20Z</time>
      </trkpt>
      <trkpt lat="40.33667" lon="-1.61339">
        <ele>1489.4</ele>
        <time>2023-08-19T07:59:24Z</time>
      </trkpt>
      <trkpt lat="40.33663" lon="-1.61338">
        <ele>1489.6</ele>
        <time>2023-08-19T07:59:27Z</time>
      </trkpt>
      <trkpt lat="40.3366" lon="-1.61338">
        <ele>1489.5</ele>
        <time>2023-08-19T07:59:30Z</time>
      </trkpt>
      <trkpt lat="40.33657" lon="-1.61338">
        <ele>1490</ele>
        <time>2023-08-19T07:59:34Z</time>
      </trkpt>
      <trkpt lat="40.33655" lon="-1.61339">
        <ele>1489.5</ele>
        <time>2023-08-19T07:59:38Z</time>
      </trkpt>
      <trkpt lat="40.33653" lon="-1.6134">
        <ele>1490.4</ele>
        <time>2023-08-19T08:03:09Z</time>
      </trkpt>
      <trkpt lat="40.33648" lon="-1.61335">
        <ele>1490.1</ele>
        <time>2023-08-19T08:03:12Z</time>
      </trkpt>
      <trkpt lat="40.33651" lon="-1.61327">
        <ele>1491.1</ele>
        <time>2023-08-19T08:03:16Z</time>
      </trkpt>
      <trkpt lat="40.33657" lon="-1.6133">
        <ele>1491.5</ele>
        <time>2023-08-19T08:03:19Z</time>
      </trkpt>
      <trkpt lat="40.33663" lon="-1.61334">
        <ele>1491.4</ele>
        <time>2023-08-19T08:03:23Z</time>
      </trkpt>
      <trkpt lat="40.33663" lon="-1.61337">
        <ele>1491.6</ele>
        <time>2023-08-19T08:03:34Z</time>
      </trkpt>
      <trkpt lat="40.33664" lon="-1.61345">
        <ele>1491.8</ele>
        <time>2023-08-19T08:03:37Z</time>
      </trkpt>
      <trkpt lat="40.33655" lon="-1.61373">
        <ele>1491.4</ele>
        <time>2023-08-19T08:03:41Z</time>
      </trkpt>
      <trkpt lat="40.3365" lon="-1.61391">
        <ele>1491.9</ele>
        <time>2023-08-19T08:03:45Z</time>
      </trkpt>
      <trkpt lat="40.33644" lon="-1.61413">
        <ele>1491.7</ele>
        <time>2023-08-19T08:03:49Z</time>
      </trkpt>
      <trkpt lat="40.33639" lon="-1.61437">
        <ele>1491.6</ele>
        <time>2023-08-19T08:03:52Z</time>
      </trkpt>
      <trkpt lat="40.33633" lon="-1.61466">
        <ele>1492.3</ele>
        <time>2023-08-19T08:03:56Z</time>
      </trkpt>
      <trkpt lat="40.3363" lon="-1.61489">
        <ele>1492.3</ele>
        <time>2023-08-19T08:03:59Z</time>
      </trkpt>
      <trkpt lat="40.33625" lon="-1.61518">
        <ele>1493.4</ele>
        <time>2023-08-19T08:04:03Z</time>
      </trkpt>
      <trkpt lat="40.3362" lon="-1.61542">
        <ele>1493.8</ele>
        <time>2023-08-19T08:04:06Z</time>
      </trkpt>
      <trkpt lat="40.33613" lon="-1.61571">
        <ele>1492</ele>
        <time>2023-08-19T08:04:09Z</time>
      </trkpt>
      <trkpt lat="40.33606" lon="-1.61598">
        <ele>1490.9</ele>
        <time>2023-08-19T08:04:12Z</time>
      </trkpt>
      <trkpt lat="40.33601" lon="-1.61633">
        <ele>1489.6</ele>
        <time>2023-08-19T08:04:16Z</time>
      </trkpt>
      <trkpt lat="40.33604" lon="-1.6166">
        <ele>1488.3</ele>
        <time>2023-08-19T08:04:19Z</time>
      </trkpt>
      <trkpt lat="40.33611" lon="-1.61696">
        <ele>1486.3</ele>
        <time>2023-08-19T08:04:23Z</time>
      </trkpt>
      <trkpt lat="40.33618" lon="-1.6173">
        <ele>1484.5</ele>
        <time>2023-08-19T08:04:27Z</time>
      </trkpt>
      <trkpt lat="40.33624" lon="-1.61765">
        <ele>1482.6</ele>
        <time>2023-08-19T08:04:31Z</time>
      </trkpt>
      <trkpt lat="40.33631" lon="-1.618">
        <ele>1480.5</ele>
        <time>2023-08-19T08:04:35Z</time>
      </trkpt>
      <trkpt lat="40.33631" lon="-1.61836">
        <ele>1477.9</ele>
        <time>2023-08-19T08:04:39Z</time>
      </trkpt>
      <trkpt lat="40.33615" lon="-1.61867">
        <ele>1476.3</ele>
        <time>2023-08-19T08:04:43Z</time>
      </trkpt>
      <trkpt lat="40.336" lon="-1.61885">
        <ele>1475.4</ele>
        <time>2023-08-19T08:04:46Z</time>
      </trkpt>
      <trkpt lat="40.3358" lon="-1.6191">
        <ele>1475.1</ele>
        <time>2023-08-19T08:04:50Z</time>
      </trkpt>
      <trkpt lat="40.33563" lon="-1.61938">
        <ele>1474.3</ele>
        <time>2023-08-19T08:04:54Z</time>
      </trkpt>
      <trkpt lat="40.33547" lon="-1.61967">
        <ele>1473.1</ele>
        <time>2023-08-19T08:04:58Z</time>
      </trkpt>
      <trkpt lat="40.33532" lon="-1.61997">
        <ele>1472.3</ele>
        <time>2023-08-19T08:05:02Z</time>
      </trkpt>
      <trkpt lat="40.33521" lon="-1.62023">
        <ele>1472.4</ele>
        <time>2023-08-19T08:05:05Z</time>
      </trkpt>
      <trkpt lat="40.33511" lon="-1.62048">
        <ele>1472.7</ele>
        <time>2023-08-19T08:05:08Z</time>
      </trkpt>
      <trkpt lat="40.33499" lon="-1.62082">
        <ele>1474.1</ele>
        <time>2023-08-19T08:05:12Z</time>
      </trkpt>
      <trkpt lat="40.33489" lon="-1.62117">
        <ele>1475.2</ele>
        <time>2023-08-19T08:05:16Z</time>
      </trkpt>
      <trkpt lat="40.33481" lon="-1.62154">
        <ele>1475.8</ele>
        <time>2023-08-19T08:05:20Z</time>
      </trkpt>
      <trkpt lat="40.33474" lon="-1.62191">
        <ele>1476</ele>
        <time>2023-08-19T08:05:24Z</time>
      </trkpt>
      <trkpt lat="40.33469" lon="-1.62229">
        <ele>1475.9</ele>
        <time>2023-08-19T08:05:28Z</time>
      </trkpt>
      <trkpt lat="40.33465" lon="-1.62267">
        <ele>1476.6</ele>
        <time>2023-08-19T08:05:32Z</time>
      </trkpt>
      <trkpt lat="40.33463" lon="-1.62295">
        <ele>1476.6</ele>
        <time>2023-08-19T08:05:35Z</time>
      </trkpt>
      <trkpt lat="40.33459" lon="-1.62332">
        <ele>1477.9</ele>
        <time>2023-08-19T08:05:39Z</time>
      </trkpt>
      <trkpt lat="40.33456" lon="-1.6236">
        <ele>1477.2</ele>
        <time>2023-08-19T08:05:42Z</time>
      </trkpt>
      <trkpt lat="40.33452" lon="-1.62397">
        <ele>1477.7</ele>
        <time>2023-08-19T08:05:46Z</time>
      </trkpt>
      <trkpt lat="40.33449" lon="-1.62426">
        <ele>1478.1</ele>
        <time>2023-08-19T08:05:49Z</time>
      </trkpt>
      <trkpt lat="40.33444" lon="-1.62464">
        <ele>1478.7</ele>
        <time>2023-08-19T08:05:53Z</time>
      </trkpt>
      <trkpt lat="40.33441" lon="-1.62501">
        <ele>1479.5</ele>
        <time>2023-08-19T08:05:57Z</time>
      </trkpt>
      <trkpt lat="40.33437" lon="-1.62539">
        <ele>1480.7</ele>
        <time>2023-08-19T08:06:01Z</time>
      </trkpt>
      <trkpt lat="40.33435" lon="-1.62567">
        <ele>1481</ele>
        <time>2023-08-19T08:06:04Z</time>
      </trkpt>
      <trkpt lat="40.3343" lon="-1.62605">
        <ele>1481.1</ele>
        <time>2023-08-19T08:06:08Z</time>
      </trkpt>
      <trkpt lat="40.33427" lon="-1.62643">
        <ele>1481.2</ele>
        <time>2023-08-19T08:06:12Z</time>
      </trkpt>
      <trkpt lat="40.33424" lon="-1.62672">
        <ele>1481.4</ele>
        <time>2023-08-19T08:06:15Z</time>
      </trkpt>
      <trkpt lat="40.33422" lon="-1.62701">
        <ele>1480.9</ele>
        <time>2023-08-19T08:06:18Z</time>
      </trkpt>
      <trkpt lat="40.33419" lon="-1.6274">
        <ele>1480.4</ele>
        <time>2023-08-19T08:06:22Z</time>
      </trkpt>
      <trkpt lat="40.33417" lon="-1.62778">
        <ele>1480.7</ele>
        <time>2023-08-19T08:06:26Z</time>
      </trkpt>
      <trkpt lat="40.33419" lon="-1.62815">
        <ele>1479.4</ele>
        <time>2023-08-19T08:06:30Z</time>
      </trkpt>
      <trkpt lat="40.33422" lon="-1.62844">
        <ele>1479</ele>
        <time>2023-08-19T08:06:33Z</time>
      </trkpt>
      <trkpt lat="40.33427" lon="-1.62879">
        <ele>1479.4</ele>
        <time>2023-08-19T08:06:37Z</time>
      </trkpt>
      <trkpt lat="40.33432" lon="-1.62906">
        <ele>1480.1</ele>
        <time>2023-08-19T08:06:40Z</time>
      </trkpt>
      <trkpt lat="40.33439" lon="-1.62942">
        <ele>1480.5</ele>
        <time>2023-08-19T08:06:44Z</time>
      </trkpt>
      <trkpt lat="40.33444" lon="-1.62971">
        <ele>1481.2</ele>
        <time>2023-08-19T08:06:47Z</time>
      </trkpt>
      <trkpt lat="40.33451" lon="-1.63007">
        <ele>1481.7</ele>
        <time>2023-08-19T08:06:51Z</time>
      </trkpt>
      <trkpt lat="40.33457" lon="-1.63044">
        <ele>1481.1</ele>
        <time>2023-08-19T08:06:55Z</time>
      </trkpt>
      <trkpt lat="40.33462" lon="-1.63081">
        <ele>1481.9</ele>
        <time>2023-08-19T08:06:59Z</time>
      </trkpt>
      <trkpt lat="40.33465" lon="-1.6311">
        <ele>1482.3</ele>
        <time>2023-08-19T08:07:02Z</time>
      </trkpt>
      <trkpt lat="40.33466" lon="-1.63148">
        <ele>1482.4</ele>
        <time>2023-08-19T08:07:06Z</time>
      </trkpt>
      <trkpt lat="40.33466" lon="-1.63176">
        <ele>1483.6</ele>
        <time>2023-08-19T08:07:09Z</time>
      </trkpt>
      <trkpt lat="40.33466" lon="-1.63214">
        <ele>1484.4</ele>
        <time>2023-08-19T08:07:13Z</time>
      </trkpt>
      <trkpt lat="40.33465" lon="-1.63242">
        <ele>1483.8</ele>
        <time>2023-08-19T08:07:16Z</time>
      </trkpt>
      <trkpt lat="40.33465" lon="-1.63269">
        <ele>1484.6</ele>
        <time>2023-08-19T08:07:19Z</time>
      </trkpt>
      <trkpt lat="40.33462" lon="-1.63301">
        <ele>1486.9</ele>
        <time>2023-08-19T08:07:23Z</time>
      </trkpt>
      <trkpt lat="40.3346" lon="-1.63324">
        <ele>1488.7</ele>
        <time>2023-08-19T08:07:26Z</time>
      </trkpt>
      <trkpt lat="40.33455" lon="-1.63348">
        <ele>1489.7</ele>
        <time>2023-08-19T08:07:29Z</time>
      </trkpt>
      <trkpt lat="40.33447" lon="-1.63382">
        <ele>1492</ele>
        <time>2023-08-19T08:07:33Z</time>
      </trkpt>
      <trkpt lat="40.33439" lon="-1.63418">
        <ele>1493.9</ele>
        <time>2023-08-19T08:07:37Z</time>
      </trkpt>
      <trkpt lat="40.33433" lon="-1.63446">
        <ele>1494.4</ele>
        <time>2023-08-19T08:07:40Z</time>
      </trkpt>
      <trkpt lat="40.33426" lon="-1.63481">
        <ele>1495</ele>
        <time>2023-08-19T08:07:44Z</time>
      </trkpt>
      <trkpt lat="40.33419" lon="-1.63515">
        <ele>1496.7</ele>
        <time>2023-08-19T08:07:48Z</time>
      </trkpt>
      <trkpt lat="40.33413" lon="-1.63542">
        <ele>1497.3</ele>
        <time>2023-08-19T08:07:51Z</time>
      </trkpt>
      <trkpt lat="40.33404" lon="-1.6358">
        <ele>1498.5</ele>
        <time>2023-08-19T08:07:55Z</time>
      </trkpt>
      <trkpt lat="40.33396" lon="-1.63619">
        <ele>1500.3</ele>
        <time>2023-08-19T08:07:59Z</time>
      </trkpt>
      <trkpt lat="40.3339" lon="-1.63648">
        <ele>1500.7</ele>
        <time>2023-08-19T08:08:02Z</time>
      </trkpt>
      <trkpt lat="40.33385" lon="-1.63675">
        <ele>1501.4</ele>
        <time>2023-08-19T08:08:05Z</time>
      </trkpt>
      <trkpt lat="40.33381" lon="-1.6371">
        <ele>1503.1</ele>
        <time>2023-08-19T08:08:09Z</time>
      </trkpt>
      <trkpt lat="40.33378" lon="-1.63737">
        <ele>1504.3</ele>
        <time>2023-08-19T08:08:12Z</time>
      </trkpt>
      <trkpt lat="40.33376" lon="-1.63774">
        <ele>1505.2</ele>
        <time>2023-08-19T08:08:16Z</time>
      </trkpt>
      <trkpt lat="40.33376" lon="-1.63802">
        <ele>1506.3</ele>
        <time>2023-08-19T08:08:19Z</time>
      </trkpt>
      <trkpt lat="40.33376" lon="-1.63838">
        <ele>1508.5</ele>
        <time>2023-08-19T08:08:23Z</time>
      </trkpt>
      <trkpt lat="40.33377" lon="-1.63866">
        <ele>1508.7</ele>
        <time>2023-08-19T08:08:26Z</time>
      </trkpt>
      <trkpt lat="40.33378" lon="-1.63903">
        <ele>1509.7</ele>
        <time>2023-08-19T08:08:30Z</time>
      </trkpt>
      <trkpt lat="40.33378" lon="-1.6393">
        <ele>1510.8</ele>
        <time>2023-08-19T08:08:33Z</time>
      </trkpt>
      <trkpt lat="40.33379" lon="-1.63958">
        <ele>1512.7</ele>
        <time>2023-08-19T08:08:36Z</time>
      </trkpt>
      <trkpt lat="40.3338" lon="-1.63995">
        <ele>1513.9</ele>
        <time>2023-08-19T08:08:40Z</time>
      </trkpt>
      <trkpt lat="40.33382" lon="-1.64033">
        <ele>1515.8</ele>
        <time>2023-08-19T08:08:44Z</time>
      </trkpt>
      <trkpt lat="40.33383" lon="-1.64061">
        <ele>1516.6</ele>
        <time>2023-08-19T08:08:47Z</time>
      </trkpt>
      <trkpt lat="40.33384" lon="-1.64098">
        <ele>1517.8</ele>
        <time>2023-08-19T08:08:51Z</time>
      </trkpt>
      <trkpt lat="40.33386" lon="-1.64135">
        <ele>1517.9</ele>
        <time>2023-08-19T08:08:55Z</time>
      </trkpt>
      <trkpt lat="40.33386" lon="-1.64163">
        <ele>1519.2</ele>
        <time>2023-08-19T08:08:58Z</time>
      </trkpt>
      <trkpt lat="40.33388" lon="-1.642">
        <ele>1520.2</ele>
        <time>2023-08-19T08:09:02Z</time>
      </trkpt>
      <trkpt lat="40.33389" lon="-1.64228">
        <ele>1521.3</ele>
        <time>2023-08-19T08:09:05Z</time>
      </trkpt>
      <trkpt lat="40.33394" lon="-1.64266">
        <ele>1523.2</ele>
        <time>2023-08-19T08:09:09Z</time>
      </trkpt>
      <trkpt lat="40.33402" lon="-1.64305">
        <ele>1524.1</ele>
        <time>2023-08-19T08:09:13Z</time>
      </trkpt>
      <trkpt lat="40.33416" lon="-1.64342">
        <ele>1525.5</ele>
        <time>2023-08-19T08:09:17Z</time>
      </trkpt>
      <trkpt lat="40.33431" lon="-1.64374">
        <ele>1526</ele>
        <time>2023-08-19T08:09:21Z</time>
      </trkpt>
      <trkpt lat="40.33446" lon="-1.64403">
        <ele>1527.4</ele>
        <time>2023-08-19T08:09:25Z</time>
      </trkpt>
      <trkpt lat="40.3346" lon="-1.64431">
        <ele>1529.6</ele>
        <time>2023-08-19T08:09:29Z</time>
      </trkpt>
      <trkpt lat="40.33474" lon="-1.64459">
        <ele>1531.7</ele>
        <time>2023-08-19T08:09:33Z</time>
      </trkpt>
      <trkpt lat="40.33484" lon="-1.6448">
        <ele>1533.1</ele>
        <time>2023-08-19T08:09:36Z</time>
      </trkpt>
      <trkpt lat="40.33499" lon="-1.6451">
        <ele>1533.5</ele>
        <time>2023-08-19T08:09:40Z</time>
      </trkpt>
      <trkpt lat="40.33515" lon="-1.64543">
        <ele>1534.7</ele>
        <time>2023-08-19T08:09:44Z</time>
      </trkpt>
      <trkpt lat="40.33531" lon="-1.64575">
        <ele>1535.4</ele>
        <time>2023-08-19T08:09:48Z</time>
      </trkpt>
      <trkpt lat="40.33546" lon="-1.64608">
        <ele>1537.6</ele>
        <time>2023-08-19T08:09:52Z</time>
      </trkpt>
      <trkpt lat="40.33562" lon="-1.64639">
        <ele>1539.5</ele>
        <time>2023-08-19T08:09:56Z</time>
      </trkpt>
      <trkpt lat="40.33577" lon="-1.64671">
        <ele>1540.2</ele>
        <time>2023-08-19T08:10:00Z</time>
      </trkpt>
      <trkpt lat="40.33589" lon="-1.64694">
        <ele>1541</ele>
        <time>2023-08-19T08:10:03Z</time>
      </trkpt>
      <trkpt lat="40.336" lon="-1.64718">
        <ele>1542.4</ele>
        <time>2023-08-19T08:10:06Z</time>
      </trkpt>
      <trkpt lat="40.33614" lon="-1.64749">
        <ele>1544.3</ele>
        <time>2023-08-19T08:10:10Z</time>
      </trkpt>
      <trkpt lat="40.33629" lon="-1.6478">
        <ele>1547</ele>
        <time>2023-08-19T08:10:14Z</time>
      </trkpt>
      <trkpt lat="40.33645" lon="-1.64811">
        <ele>1549.1</ele>
        <time>2023-08-19T08:10:18Z</time>
      </trkpt>
      <trkpt lat="40.33659" lon="-1.64841">
        <ele>1551.5</ele>
        <time>2023-08-19T08:10:22Z</time>
      </trkpt>
      <trkpt lat="40.33671" lon="-1.64873">
        <ele>1553.3</ele>
        <time>2023-08-19T08:10:26Z</time>
      </trkpt>
      <trkpt lat="40.33678" lon="-1.64907">
        <ele>1555.7</ele>
        <time>2023-08-19T08:10:30Z</time>
      </trkpt>
      <trkpt lat="40.33682" lon="-1.64942">
        <ele>1557.5</ele>
        <time>2023-08-19T08:10:34Z</time>
      </trkpt>
      <trkpt lat="40.33682" lon="-1.64977">
        <ele>1560.1</ele>
        <time>2023-08-19T08:10:38Z</time>
      </trkpt>
      <trkpt lat="40.33679" lon="-1.65003">
        <ele>1562.7</ele>
        <time>2023-08-19T08:10:41Z</time>
      </trkpt>
      <trkpt lat="40.33672" lon="-1.65038">
        <ele>1564.8</ele>
        <time>2023-08-19T08:10:45Z</time>
      </trkpt>
      <trkpt lat="40.33664" lon="-1.65062">
        <ele>1566.3</ele>
        <time>2023-08-19T08:10:48Z</time>
      </trkpt>
      <trkpt lat="40.33657" lon="-1.65086">
        <ele>1568.2</ele>
        <time>2023-08-19T08:10:51Z</time>
      </trkpt>
      <trkpt lat="40.3365" lon="-1.65111">
        <ele>1569.9</ele>
        <time>2023-08-19T08:10:54Z</time>
      </trkpt>
      <trkpt lat="40.33641" lon="-1.65144">
        <ele>1572.3</ele>
        <time>2023-08-19T08:10:58Z</time>
      </trkpt>
      <trkpt lat="40.33636" lon="-1.65169">
        <ele>1574.3</ele>
        <time>2023-08-19T08:11:01Z</time>
      </trkpt>
      <trkpt lat="40.33632" lon="-1.65195">
        <ele>1576.2</ele>
        <time>2023-08-19T08:11:04Z</time>
      </trkpt>
      <trkpt lat="40.3363" lon="-1.6523">
        <ele>1579.3</ele>
        <time>2023-08-19T08:11:08Z</time>
      </trkpt>
      <trkpt lat="40.33631" lon="-1.65267">
        <ele>1581</ele>
        <time>2023-08-19T08:11:12Z</time>
      </trkpt>
      <trkpt lat="40.33637" lon="-1.65303">
        <ele>1582.2</ele>
        <time>2023-08-19T08:11:16Z</time>
      </trkpt>
      <trkpt lat="40.33645" lon="-1.65332">
        <ele>1583.3</ele>
        <time>2023-08-19T08:11:19Z</time>
      </trkpt>
      <trkpt lat="40.33659" lon="-1.6537">
        <ele>1583.6</ele>
        <time>2023-08-19T08:11:23Z</time>
      </trkpt>
      <trkpt lat="40.33676" lon="-1.65401">
        <ele>1584.6</ele>
        <time>2023-08-19T08:11:27Z</time>
      </trkpt>
      <trkpt lat="40.33695" lon="-1.65427">
        <ele>1586.8</ele>
        <time>2023-08-19T08:11:31Z</time>
      </trkpt>
      <trkpt lat="40.33712" lon="-1.65444">
        <ele>1588.2</ele>
        <time>2023-08-19T08:11:34Z</time>
      </trkpt>
      <trkpt lat="40.33734" lon="-1.65464">
        <ele>1589.7</ele>
        <time>2023-08-19T08:11:38Z</time>
      </trkpt>
      <trkpt lat="40.33755" lon="-1.65485">
        <ele>1592.1</ele>
        <time>2023-08-19T08:11:42Z</time>
      </trkpt>
      <trkpt lat="40.33777" lon="-1.65506">
        <ele>1593.9</ele>
        <time>2023-08-19T08:11:46Z</time>
      </trkpt>
      <trkpt lat="40.338" lon="-1.65527">
        <ele>1595.9</ele>
        <time>2023-08-19T08:11:50Z</time>
      </trkpt>
      <trkpt lat="40.33823" lon="-1.65549">
        <ele>1598.1</ele>
        <time>2023-08-19T08:11:54Z</time>
      </trkpt>
      <trkpt lat="40.3384" lon="-1.65565">
        <ele>1599.1</ele>
        <time>2023-08-19T08:11:57Z</time>
      </trkpt>
      <trkpt lat="40.33858" lon="-1.65582">
        <ele>1599.4</ele>
        <time>2023-08-19T08:12:00Z</time>
      </trkpt>
      <trkpt lat="40.33881" lon="-1.65605">
        <ele>1601.2</ele>
        <time>2023-08-19T08:12:04Z</time>
      </trkpt>
      <trkpt lat="40.33899" lon="-1.65623">
        <ele>1601.4</ele>
        <time>2023-08-19T08:12:07Z</time>
      </trkpt>
      <trkpt lat="40.33924" lon="-1.65647">
        <ele>1602</ele>
        <time>2023-08-19T08:12:11Z</time>
      </trkpt>
      <trkpt lat="40.33942" lon="-1.65665">
        <ele>1603</ele>
        <time>2023-08-19T08:12:14Z</time>
      </trkpt>
      <trkpt lat="40.33967" lon="-1.65687">
        <ele>1604</ele>
        <time>2023-08-19T08:12:18Z</time>
      </trkpt>
      <trkpt lat="40.3399" lon="-1.6571">
        <ele>1604</ele>
        <time>2023-08-19T08:12:22Z</time>
      </trkpt>
      <trkpt lat="40.34007" lon="-1.65727">
        <ele>1602.8</ele>
        <time>2023-08-19T08:12:25Z</time>
      </trkpt>
      <trkpt lat="40.34025" lon="-1.65744">
        <ele>1602.8</ele>
        <time>2023-08-19T08:12:28Z</time>
      </trkpt>
      <trkpt lat="40.34049" lon="-1.65766">
        <ele>1602.6</ele>
        <time>2023-08-19T08:12:32Z</time>
      </trkpt>
      <trkpt lat="40.34073" lon="-1.6579">
        <ele>1602.5</ele>
        <time>2023-08-19T08:12:36Z</time>
      </trkpt>
      <trkpt lat="40.3409" lon="-1.65808">
        <ele>1601.6</ele>
        <time>2023-08-19T08:12:39Z</time>
      </trkpt>
      <trkpt lat="40.34114" lon="-1.65829">
        <ele>1600.7</ele>
        <time>2023-08-19T08:12:43Z</time>
      </trkpt>
      <trkpt lat="40.34132" lon="-1.65845">
        <ele>1599.7</ele>
        <time>2023-08-19T08:12:46Z</time>
      </trkpt>
      <trkpt lat="40.3415" lon="-1.6586">
        <ele>1599.1</ele>
        <time>2023-08-19T08:12:49Z</time>
      </trkpt>
      <trkpt lat="40.34172" lon="-1.65881">
        <ele>1599.9</ele>
        <time>2023-08-19T08:12:53Z</time>
      </trkpt>
      <trkpt lat="40.34195" lon="-1.65904">
        <ele>1600</ele>
        <time>2023-08-19T08:12:57Z</time>
      </trkpt>
      <trkpt lat="40.3422" lon="-1.65927">
        <ele>1600.2</ele>
        <time>2023-08-19T08:13:01Z</time>
      </trkpt>
      <trkpt lat="40.34243" lon="-1.6595">
        <ele>1599.8</ele>
        <time>2023-08-19T08:13:05Z</time>
      </trkpt>
      <trkpt lat="40.3426" lon="-1.65967">
        <ele>1600.4</ele>
        <time>2023-08-19T08:13:08Z</time>
      </trkpt>
      <trkpt lat="40.34281" lon="-1.65992">
        <ele>1600.3</ele>
        <time>2023-08-19T08:13:12Z</time>
      </trkpt>
      <trkpt lat="40.34295" lon="-1.66026">
        <ele>1600.4</ele>
        <time>2023-08-19T08:13:16Z</time>
      </trkpt>
      <trkpt lat="40.34302" lon="-1.66053">
        <ele>1601.2</ele>
        <time>2023-08-19T08:13:19Z</time>
      </trkpt>
      <trkpt lat="40.34305" lon="-1.66081">
        <ele>1601.8</ele>
        <time>2023-08-19T08:13:22Z</time>
      </trkpt>
      <trkpt lat="40.34309" lon="-1.66119">
        <ele>1602.5</ele>
        <time>2023-08-19T08:13:26Z</time>
      </trkpt>
      <trkpt lat="40.34317" lon="-1.66155">
        <ele>1602.7</ele>
        <time>2023-08-19T08:13:30Z</time>
      </trkpt>
      <trkpt lat="40.34328" lon="-1.66181">
        <ele>1602.9</ele>
        <time>2023-08-19T08:13:33Z</time>
      </trkpt>
      <trkpt lat="40.34345" lon="-1.66211">
        <ele>1604.6</ele>
        <time>2023-08-19T08:13:37Z</time>
      </trkpt>
      <trkpt lat="40.34359" lon="-1.66232">
        <ele>1606.3</ele>
        <time>2023-08-19T08:13:40Z</time>
      </trkpt>
      <trkpt lat="40.34374" lon="-1.66256">
        <ele>1608</ele>
        <time>2023-08-19T08:13:44Z</time>
      </trkpt>
      <trkpt lat="40.34386" lon="-1.66275">
        <ele>1609.3</ele>
        <time>2023-08-19T08:13:47Z</time>
      </trkpt>
      <trkpt lat="40.34401" lon="-1.663">
        <ele>1611.6</ele>
        <time>2023-08-19T08:13:51Z</time>
      </trkpt>
      <trkpt lat="40.34412" lon="-1.66321">
        <ele>1613.3</ele>
        <time>2023-08-19T08:13:54Z</time>
      </trkpt>
      <trkpt lat="40.34425" lon="-1.6635">
        <ele>1615.1</ele>
        <time>2023-08-19T08:13:58Z</time>
      </trkpt>
      <trkpt lat="40.34434" lon="-1.66373">
        <ele>1617.7</ele>
        <time>2023-08-19T08:14:01Z</time>
      </trkpt>
      <trkpt lat="40.34445" lon="-1.66403">
        <ele>1620.1</ele>
        <time>2023-08-19T08:14:05Z</time>
      </trkpt>
      <trkpt lat="40.34451" lon="-1.66425">
        <ele>1621.8</ele>
        <time>2023-08-19T08:14:08Z</time>
      </trkpt>
      <trkpt lat="40.34458" lon="-1.66458">
        <ele>1624.7</ele>
        <time>2023-08-19T08:14:12Z</time>
      </trkpt>
      <trkpt lat="40.34462" lon="-1.66491">
        <ele>1627</ele>
        <time>2023-08-19T08:14:16Z</time>
      </trkpt>
      <trkpt lat="40.34465" lon="-1.66515">
        <ele>1628.1</ele>
        <time>2023-08-19T08:14:19Z</time>
      </trkpt>
      <trkpt lat="40.34467" lon="-1.66547">
        <ele>1630.9</ele>
        <time>2023-08-19T08:14:23Z</time>
      </trkpt>
      <trkpt lat="40.34467" lon="-1.6658">
        <ele>1633.1</ele>
        <time>2023-08-19T08:14:27Z</time>
      </trkpt>
      <trkpt lat="40.34467" lon="-1.66613">
        <ele>1635.7</ele>
        <time>2023-08-19T08:14:31Z</time>
      </trkpt>
      <trkpt lat="40.34466" lon="-1.66647">
        <ele>1637.9</ele>
        <time>2023-08-19T08:14:35Z</time>
      </trkpt>
      <trkpt lat="40.34466" lon="-1.6668">
        <ele>1640.3</ele>
        <time>2023-08-19T08:14:39Z</time>
      </trkpt>
      <trkpt lat="40.34467" lon="-1.66713">
        <ele>1643.1</ele>
        <time>2023-08-19T08:14:43Z</time>
      </trkpt>
      <trkpt lat="40.34471" lon="-1.66745">
        <ele>1645.5</ele>
        <time>2023-08-19T08:14:47Z</time>
      </trkpt>
      <trkpt lat="40.34476" lon="-1.66769">
        <ele>1647.3</ele>
        <time>2023-08-19T08:14:50Z</time>
      </trkpt>
      <trkpt lat="40.34484" lon="-1.66801">
        <ele>1649.3</ele>
        <time>2023-08-19T08:14:54Z</time>
      </trkpt>
      <trkpt lat="40.34491" lon="-1.66824">
        <ele>1651.2</ele>
        <time>2023-08-19T08:14:57Z</time>
      </trkpt>
      <trkpt lat="40.34501" lon="-1.66855">
        <ele>1653.7</ele>
        <time>2023-08-19T08:15:01Z</time>
      </trkpt>
      <trkpt lat="40.34509" lon="-1.66887">
        <ele>1655.6</ele>
        <time>2023-08-19T08:15:05Z</time>
      </trkpt>
      <trkpt lat="40.34516" lon="-1.6691">
        <ele>1656.4</ele>
        <time>2023-08-19T08:15:08Z</time>
      </trkpt>
      <trkpt lat="40.34524" lon="-1.66942">
        <ele>1658.8</ele>
        <time>2023-08-19T08:15:12Z</time>
      </trkpt>
      <trkpt lat="40.3453" lon="-1.66966">
        <ele>1659.9</ele>
        <time>2023-08-19T08:15:15Z</time>
      </trkpt>
      <trkpt lat="40.34538" lon="-1.66998">
        <ele>1661.3</ele>
        <time>2023-08-19T08:15:19Z</time>
      </trkpt>
      <trkpt lat="40.34547" lon="-1.6703">
        <ele>1663</ele>
        <time>2023-08-19T08:15:23Z</time>
      </trkpt>
      <trkpt lat="40.34553" lon="-1.67055">
        <ele>1664.1</ele>
        <time>2023-08-19T08:15:26Z</time>
      </trkpt>
      <trkpt lat="40.3456" lon="-1.6708">
        <ele>1664.6</ele>
        <time>2023-08-19T08:15:29Z</time>
      </trkpt>
      <trkpt lat="40.34567" lon="-1.67104">
        <ele>1665.2</ele>
        <time>2023-08-19T08:15:32Z</time>
      </trkpt>
      <trkpt lat="40.34577" lon="-1.67138">
        <ele>1665.9</ele>
        <time>2023-08-19T08:15:36Z</time>
      </trkpt>
      <trkpt lat="40.34587" lon="-1.67172">
        <ele>1667</ele>
        <time>2023-08-19T08:15:40Z</time>
      </trkpt>
      <trkpt lat="40.34597" lon="-1.67207">
        <ele>1667.3</ele>
        <time>2023-08-19T08:15:44Z</time>
      </trkpt>
      <trkpt lat="40.34609" lon="-1.67244">
        <ele>1667.9</ele>
        <time>2023-08-19T08:15:48Z</time>
      </trkpt>
      <trkpt lat="40.34619" lon="-1.67279">
        <ele>1668.7</ele>
        <time>2023-08-19T08:15:52Z</time>
      </trkpt>
      <trkpt lat="40.34628" lon="-1.67305">
        <ele>1668.6</ele>
        <time>2023-08-19T08:15:55Z</time>
      </trkpt>
      <trkpt lat="40.3464" lon="-1.67339">
        <ele>1668.6</ele>
        <time>2023-08-19T08:15:59Z</time>
      </trkpt>
      <trkpt lat="40.34652" lon="-1.67373">
        <ele>1669.1</ele>
        <time>2023-08-19T08:16:03Z</time>
      </trkpt>
      <trkpt lat="40.34665" lon="-1.67407">
        <ele>1669.2</ele>
        <time>2023-08-19T08:16:07Z</time>
      </trkpt>
      <trkpt lat="40.34675" lon="-1.67433">
        <ele>1669.6</ele>
        <time>2023-08-19T08:16:10Z</time>
      </trkpt>
      <trkpt lat="40.34688" lon="-1.67466">
        <ele>1670.3</ele>
        <time>2023-08-19T08:16:14Z</time>
      </trkpt>
      <trkpt lat="40.347" lon="-1.67501">
        <ele>1670.6</ele>
        <time>2023-08-19T08:16:18Z</time>
      </trkpt>
      <trkpt lat="40.34708" lon="-1.67527">
        <ele>1670.8</ele>
        <time>2023-08-19T08:16:21Z</time>
      </trkpt>
      <trkpt lat="40.34711" lon="-1.67556">
        <ele>1671.2</ele>
        <time>2023-08-19T08:16:24Z</time>
      </trkpt>
      <trkpt lat="40.34708" lon="-1.67595">
        <ele>1671.2</ele>
        <time>2023-08-19T08:16:28Z</time>
      </trkpt>
      <trkpt lat="40.34697" lon="-1.6763">
        <ele>1671.2</ele>
        <time>2023-08-19T08:16:32Z</time>
      </trkpt>
      <trkpt lat="40.3468" lon="-1.67661">
        <ele>1670.7</ele>
        <time>2023-08-19T08:16:36Z</time>
      </trkpt>
      <trkpt lat="40.34657" lon="-1.67685">
        <ele>1669.8</ele>
        <time>2023-08-19T08:16:40Z</time>
      </trkpt>
      <trkpt lat="40.34628" lon="-1.67701">
        <ele>1668.6</ele>
        <time>2023-08-19T08:16:44Z</time>
      </trkpt>
      <trkpt lat="40.34606" lon="-1.67706">
        <ele>1668</ele>
        <time>2023-08-19T08:16:47Z</time>
      </trkpt>
      <trkpt lat="40.34577" lon="-1.67709">
        <ele>1666.5</ele>
        <time>2023-08-19T08:16:51Z</time>
      </trkpt>
      <trkpt lat="40.34555" lon="-1.6771">
        <ele>1665.9</ele>
        <time>2023-08-19T08:16:54Z</time>
      </trkpt>
      <trkpt lat="40.34527" lon="-1.67713">
        <ele>1664.5</ele>
        <time>2023-08-19T08:16:58Z</time>
      </trkpt>
      <trkpt lat="40.34505" lon="-1.67715">
        <ele>1663.6</ele>
        <time>2023-08-19T08:17:01Z</time>
      </trkpt>
      <trkpt lat="40.34483" lon="-1.67716">
        <ele>1662.6</ele>
        <time>2023-08-19T08:17:04Z</time>
      </trkpt>
      <trkpt lat="40.34454" lon="-1.67718">
        <ele>1662</ele>
        <time>2023-08-19T08:17:08Z</time>
      </trkpt>
      <trkpt lat="40.34424" lon="-1.6772">
        <ele>1660.2</ele>
        <time>2023-08-19T08:17:12Z</time>
      </trkpt>
      <trkpt lat="40.34402" lon="-1.67722">
        <ele>1659.5</ele>
        <time>2023-08-19T08:17:15Z</time>
      </trkpt>
      <trkpt lat="40.34373" lon="-1.67724">
        <ele>1658</ele>
        <time>2023-08-19T08:17:19Z</time>
      </trkpt>
      <trkpt lat="40.34351" lon="-1.67726">
        <ele>1657.1</ele>
        <time>2023-08-19T08:17:22Z</time>
      </trkpt>
      <trkpt lat="40.34322" lon="-1.67728">
        <ele>1656</ele>
        <time>2023-08-19T08:17:26Z</time>
      </trkpt>
      <trkpt lat="40.343" lon="-1.6773">
        <ele>1654.6</ele>
        <time>2023-08-19T08:17:29Z</time>
      </trkpt>
      <trkpt lat="40.34271" lon="-1.67732">
        <ele>1653.7</ele>
        <time>2023-08-19T08:17:33Z</time>
      </trkpt>
      <trkpt lat="40.34242" lon="-1.67731">
        <ele>1652.8</ele>
        <time>2023-08-19T08:17:37Z</time>
      </trkpt>
      <trkpt lat="40.34214" lon="-1.67731">
        <ele>1653</ele>
        <time>2023-08-19T08:17:41Z</time>
      </trkpt>
      <trkpt lat="40.34192" lon="-1.67729">
        <ele>1652.5</ele>
        <time>2023-08-19T08:17:44Z</time>
      </trkpt>
      <trkpt lat="40.34164" lon="-1.67725">
        <ele>1651.7</ele>
        <time>2023-08-19T08:17:48Z</time>
      </trkpt>
      <trkpt lat="40.34142" lon="-1.67723">
        <ele>1651.8</ele>
        <time>2023-08-19T08:17:51Z</time>
      </trkpt>
      <trkpt lat="40.34113" lon="-1.67719">
        <ele>1651.5</ele>
        <time>2023-08-19T08:17:55Z</time>
      </trkpt>
      <trkpt lat="40.34084" lon="-1.67714">
        <ele>1651.5</ele>
        <time>2023-08-19T08:17:59Z</time>
      </trkpt>
      <trkpt lat="40.34063" lon="-1.67712">
        <ele>1651.7</ele>
        <time>2023-08-19T08:18:02Z</time>
      </trkpt>
      <trkpt lat="40.34041" lon="-1.67711">
        <ele>1651.3</ele>
        <time>2023-08-19T08:18:05Z</time>
      </trkpt>
      <trkpt lat="40.34012" lon="-1.67709">
        <ele>1650.7</ele>
        <time>2023-08-19T08:18:09Z</time>
      </trkpt>
      <trkpt lat="40.3399" lon="-1.67709">
        <ele>1650.6</ele>
        <time>2023-08-19T08:18:12Z</time>
      </trkpt>
      <trkpt lat="40.33961" lon="-1.67709">
        <ele>1650.9</ele>
        <time>2023-08-19T08:18:16Z</time>
      </trkpt>
      <trkpt lat="40.33939" lon="-1.67711">
        <ele>1651.3</ele>
        <time>2023-08-19T08:18:19Z</time>
      </trkpt>
      <trkpt lat="40.3391" lon="-1.67714">
        <ele>1651.1</ele>
        <time>2023-08-19T08:18:23Z</time>
      </trkpt>
      <trkpt lat="40.33888" lon="-1.67717">
        <ele>1651.2</ele>
        <time>2023-08-19T08:18:26Z</time>
      </trkpt>
      <trkpt lat="40.3386" lon="-1.67721">
        <ele>1651.2</ele>
        <time>2023-08-19T08:18:30Z</time>
      </trkpt>
      <trkpt lat="40.33831" lon="-1.67726">
        <ele>1651.1</ele>
        <time>2023-08-19T08:18:34Z</time>
      </trkpt>
      <trkpt lat="40.33802" lon="-1.6773">
        <ele>1651.2</ele>
        <time>2023-08-19T08:18:38Z</time>
      </trkpt>
      <trkpt lat="40.33772" lon="-1.67734">
        <ele>1650.5</ele>
        <time>2023-08-19T08:18:42Z</time>
      </trkpt>
      <trkpt lat="40.33744" lon="-1.67736">
        <ele>1650.8</ele>
        <time>2023-08-19T08:18:46Z</time>
      </trkpt>
      <trkpt lat="40.33723" lon="-1.67738">
        <ele>1650.1</ele>
        <time>2023-08-19T08:18:49Z</time>
      </trkpt>
      <trkpt lat="40.33694" lon="-1.67739">
        <ele>1650.1</ele>
        <time>2023-08-19T08:18:53Z</time>
      </trkpt>
      <trkpt lat="40.33672" lon="-1.67739">
        <ele>1649.9</ele>
        <time>2023-08-19T08:18:56Z</time>
      </trkpt>
      <trkpt lat="40.33643" lon="-1.67739">
        <ele>1649.9</ele>
        <time>2023-08-19T08:19:00Z</time>
      </trkpt>
      <trkpt lat="40.33621" lon="-1.67739">
        <ele>1650.1</ele>
        <time>2023-08-19T08:19:03Z</time>
      </trkpt>
      <trkpt lat="40.33592" lon="-1.67738">
        <ele>1651.6</ele>
        <time>2023-08-19T08:19:07Z</time>
      </trkpt>
      <trkpt lat="40.33563" lon="-1.67737">
        <ele>1651.9</ele>
        <time>2023-08-19T08:19:11Z</time>
      </trkpt>
      <trkpt lat="40.33534" lon="-1.67734">
        <ele>1651.7</ele>
        <time>2023-08-19T08:19:15Z</time>
      </trkpt>
      <trkpt lat="40.33505" lon="-1.67732">
        <ele>1652.3</ele>
        <time>2023-08-19T08:19:19Z</time>
      </trkpt>
      <trkpt lat="40.33476" lon="-1.67729">
        <ele>1653</ele>
        <time>2023-08-19T08:19:23Z</time>
      </trkpt>
      <trkpt lat="40.33454" lon="-1.67725">
        <ele>1653.3</ele>
        <time>2023-08-19T08:19:26Z</time>
      </trkpt>
      <trkpt lat="40.33426" lon="-1.6772">
        <ele>1653.4</ele>
        <time>2023-08-19T08:19:30Z</time>
      </trkpt>
      <trkpt lat="40.33405" lon="-1.67715">
        <ele>1654.1</ele>
        <time>2023-08-19T08:19:33Z</time>
      </trkpt>
      <trkpt lat="40.33383" lon="-1.6771">
        <ele>1654.3</ele>
        <time>2023-08-19T08:19:36Z</time>
      </trkpt>
      <trkpt lat="40.33355" lon="-1.67703">
        <ele>1654.4</ele>
        <time>2023-08-19T08:19:40Z</time>
      </trkpt>
      <trkpt lat="40.33327" lon="-1.67696">
        <ele>1654.6</ele>
        <time>2023-08-19T08:19:44Z</time>
      </trkpt>
      <trkpt lat="40.33305" lon="-1.67692">
        <ele>1655</ele>
        <time>2023-08-19T08:19:47Z</time>
      </trkpt>
      <trkpt lat="40.33276" lon="-1.67687">
        <ele>1656.1</ele>
        <time>2023-08-19T08:19:51Z</time>
      </trkpt>
      <trkpt lat="40.33247" lon="-1.67682">
        <ele>1656.8</ele>
        <time>2023-08-19T08:19:55Z</time>
      </trkpt>
      <trkpt lat="40.33226" lon="-1.67681">
        <ele>1656.7</ele>
        <time>2023-08-19T08:19:58Z</time>
      </trkpt>
      <trkpt lat="40.33197" lon="-1.67681">
        <ele>1658.2</ele>
        <time>2023-08-19T08:20:02Z</time>
      </trkpt>
      <trkpt lat="40.33174" lon="-1.67682">
        <ele>1657.6</ele>
        <time>2023-08-19T08:20:05Z</time>
      </trkpt>
      <trkpt lat="40.33145" lon="-1.67684">
        <ele>1656.7</ele>
        <time>2023-08-19T08:20:09Z</time>
      </trkpt>
      <trkpt lat="40.33122" lon="-1.67687">
        <ele>1656.9</ele>
        <time>2023-08-19T08:20:12Z</time>
      </trkpt>
      <trkpt lat="40.33093" lon="-1.67692">
        <ele>1655.5</ele>
        <time>2023-08-19T08:20:16Z</time>
      </trkpt>
      <trkpt lat="40.33073" lon="-1.67696">
        <ele>1655.3</ele>
        <time>2023-08-19T08:20:19Z</time>
      </trkpt>
      <trkpt lat="40.33045" lon="-1.67701">
        <ele>1656.6</ele>
        <time>2023-08-19T08:20:23Z</time>
      </trkpt>
      <trkpt lat="40.33015" lon="-1.67708">
        <ele>1657.4</ele>
        <time>2023-08-19T08:20:27Z</time>
      </trkpt>
      <trkpt lat="40.32987" lon="-1.67715">
        <ele>1658.5</ele>
        <time>2023-08-19T08:20:31Z</time>
      </trkpt>
      <trkpt lat="40.32967" lon="-1.6772">
        <ele>1658.9</ele>
        <time>2023-08-19T08:20:34Z</time>
      </trkpt>
      <trkpt lat="40.32938" lon="-1.67728">
        <ele>1660.8</ele>
        <time>2023-08-19T08:20:38Z</time>
      </trkpt>
      <trkpt lat="40.3291" lon="-1.67734">
        <ele>1661.8</ele>
        <time>2023-08-19T08:20:42Z</time>
      </trkpt>
      <trkpt lat="40.32888" lon="-1.67739">
        <ele>1662.3</ele>
        <time>2023-08-19T08:20:45Z</time>
      </trkpt>
      <trkpt lat="40.32867" lon="-1.67744">
        <ele>1662.2</ele>
        <time>2023-08-19T08:20:48Z</time>
      </trkpt>
      <trkpt lat="40.32839" lon="-1.67751">
        <ele>1663.2</ele>
        <time>2023-08-19T08:20:52Z</time>
      </trkpt>
      <trkpt lat="40.32811" lon="-1.67758">
        <ele>1663.3</ele>
        <time>2023-08-19T08:20:56Z</time>
      </trkpt>
      <trkpt lat="40.32789" lon="-1.67764">
        <ele>1663.3</ele>
        <time>2023-08-19T08:20:59Z</time>
      </trkpt>
      <trkpt lat="40.32761" lon="-1.67773">
        <ele>1663.8</ele>
        <time>2023-08-19T08:21:03Z</time>
      </trkpt>
      <trkpt lat="40.32733" lon="-1.67786">
        <ele>1662.6</ele>
        <time>2023-08-19T08:21:07Z</time>
      </trkpt>
      <trkpt lat="40.32706" lon="-1.67803">
        <ele>1662</ele>
        <time>2023-08-19T08:21:11Z</time>
      </trkpt>
      <trkpt lat="40.32686" lon="-1.67817">
        <ele>1662.2</ele>
        <time>2023-08-19T08:21:14Z</time>
      </trkpt>
      <trkpt lat="40.32668" lon="-1.67832">
        <ele>1661.5</ele>
        <time>2023-08-19T08:21:17Z</time>
      </trkpt>
      <trkpt lat="40.32647" lon="-1.67855">
        <ele>1661.2</ele>
        <time>2023-08-19T08:21:21Z</time>
      </trkpt>
      <trkpt lat="40.32626" lon="-1.67883">
        <ele>1661.9</ele>
        <time>2023-08-19T08:21:25Z</time>
      </trkpt>
      <trkpt lat="40.32611" lon="-1.67903">
        <ele>1662.6</ele>
        <time>2023-08-19T08:21:28Z</time>
      </trkpt>
      <trkpt lat="40.32595" lon="-1.67923">
        <ele>1662.6</ele>
        <time>2023-08-19T08:21:31Z</time>
      </trkpt>
      <trkpt lat="40.3258" lon="-1.67943">
        <ele>1662.7</ele>
        <time>2023-08-19T08:21:34Z</time>
      </trkpt>
      <trkpt lat="40.3256" lon="-1.6797">
        <ele>1663.4</ele>
        <time>2023-08-19T08:21:38Z</time>
      </trkpt>
      <trkpt lat="40.32541" lon="-1.68">
        <ele>1663.4</ele>
        <time>2023-08-19T08:21:42Z</time>
      </trkpt>
      <trkpt lat="40.32529" lon="-1.68024">
        <ele>1663</ele>
        <time>2023-08-19T08:21:45Z</time>
      </trkpt>
      <trkpt lat="40.32517" lon="-1.68059">
        <ele>1662.3</ele>
        <time>2023-08-19T08:21:49Z</time>
      </trkpt>
      <trkpt lat="40.32508" lon="-1.68098">
        <ele>1661.8</ele>
        <time>2023-08-19T08:21:53Z</time>
      </trkpt>
      <trkpt lat="40.32504" lon="-1.68135">
        <ele>1660.7</ele>
        <time>2023-08-19T08:21:57Z</time>
      </trkpt>
      <trkpt lat="40.32505" lon="-1.68174">
        <ele>1659.1</ele>
        <time>2023-08-19T08:22:01Z</time>
      </trkpt>
      <trkpt lat="40.32512" lon="-1.6821">
        <ele>1659.3</ele>
        <time>2023-08-19T08:22:05Z</time>
      </trkpt>
      <trkpt lat="40.32519" lon="-1.68238">
        <ele>1659.2</ele>
        <time>2023-08-19T08:22:08Z</time>
      </trkpt>
      <trkpt lat="40.3253" lon="-1.68273">
        <ele>1658.8</ele>
        <time>2023-08-19T08:22:12Z</time>
      </trkpt>
      <trkpt lat="40.32541" lon="-1.68309">
        <ele>1659.2</ele>
        <time>2023-08-19T08:22:16Z</time>
      </trkpt>
      <trkpt lat="40.32552" lon="-1.68344">
        <ele>1659.5</ele>
        <time>2023-08-19T08:22:20Z</time>
      </trkpt>
      <trkpt lat="40.32562" lon="-1.6838">
        <ele>1659.9</ele>
        <time>2023-08-19T08:22:24Z</time>
      </trkpt>
      <trkpt lat="40.32568" lon="-1.68407">
        <ele>1660.4</ele>
        <time>2023-08-19T08:22:27Z</time>
      </trkpt>
      <trkpt lat="40.32577" lon="-1.68442">
        <ele>1661</ele>
        <time>2023-08-19T08:22:31Z</time>
      </trkpt>
      <trkpt lat="40.32587" lon="-1.68479">
        <ele>1659.8</ele>
        <time>2023-08-19T08:22:35Z</time>
      </trkpt>
      <trkpt lat="40.32594" lon="-1.68506">
        <ele>1660</ele>
        <time>2023-08-19T08:22:38Z</time>
      </trkpt>
      <trkpt lat="40.32602" lon="-1.68542">
        <ele>1660.9</ele>
        <time>2023-08-19T08:22:42Z</time>
      </trkpt>
      <trkpt lat="40.32606" lon="-1.68569">
        <ele>1661.6</ele>
        <time>2023-08-19T08:22:45Z</time>
      </trkpt>
      <trkpt lat="40.32606" lon="-1.68607">
        <ele>1661.6</ele>
        <time>2023-08-19T08:22:49Z</time>
      </trkpt>
      <trkpt lat="40.32598" lon="-1.68645">
        <ele>1661</ele>
        <time>2023-08-19T08:22:53Z</time>
      </trkpt>
      <trkpt lat="40.32589" lon="-1.68683">
        <ele>1660.2</ele>
        <time>2023-08-19T08:22:57Z</time>
      </trkpt>
      <trkpt lat="40.32583" lon="-1.6871">
        <ele>1659.6</ele>
        <time>2023-08-19T08:23:00Z</time>
      </trkpt>
      <trkpt lat="40.32576" lon="-1.68736">
        <ele>1658.7</ele>
        <time>2023-08-19T08:23:03Z</time>
      </trkpt>
      <trkpt lat="40.32567" lon="-1.68773">
        <ele>1657.8</ele>
        <time>2023-08-19T08:23:07Z</time>
      </trkpt>
      <trkpt lat="40.32561" lon="-1.688">
        <ele>1656.6</ele>
        <time>2023-08-19T08:23:10Z</time>
      </trkpt>
      <trkpt lat="40.32553" lon="-1.68837">
        <ele>1655.4</ele>
        <time>2023-08-19T08:23:14Z</time>
      </trkpt>
      <trkpt lat="40.32544" lon="-1.68873">
        <ele>1654.1</ele>
        <time>2023-08-19T08:23:18Z</time>
      </trkpt>
      <trkpt lat="40.32535" lon="-1.689">
        <ele>1653.3</ele>
        <time>2023-08-19T08:23:21Z</time>
      </trkpt>
      <trkpt lat="40.32517" lon="-1.68931">
        <ele>1652.8</ele>
        <time>2023-08-19T08:23:25Z</time>
      </trkpt>
      <trkpt lat="40.32495" lon="-1.68954">
        <ele>1652.7</ele>
        <time>2023-08-19T08:23:29Z</time>
      </trkpt>
      <trkpt lat="40.32469" lon="-1.68971">
        <ele>1651.8</ele>
        <time>2023-08-19T08:23:33Z</time>
      </trkpt>
      <trkpt lat="40.32448" lon="-1.68978">
        <ele>1652.2</ele>
        <time>2023-08-19T08:23:36Z</time>
      </trkpt>
      <trkpt lat="40.3242" lon="-1.68988">
        <ele>1651.6</ele>
        <time>2023-08-19T08:23:40Z</time>
      </trkpt>
      <trkpt lat="40.32392" lon="-1.69">
        <ele>1651.1</ele>
        <time>2023-08-19T08:23:44Z</time>
      </trkpt>
      <trkpt lat="40.32366" lon="-1.69018">
        <ele>1650.9</ele>
        <time>2023-08-19T08:23:48Z</time>
      </trkpt>
      <trkpt lat="40.32349" lon="-1.69036">
        <ele>1651</ele>
        <time>2023-08-19T08:23:51Z</time>
      </trkpt>
      <trkpt lat="40.32332" lon="-1.69067">
        <ele>1650.6</ele>
        <time>2023-08-19T08:23:55Z</time>
      </trkpt>
      <trkpt lat="40.32317" lon="-1.69101">
        <ele>1651</ele>
        <time>2023-08-19T08:23:59Z</time>
      </trkpt>
      <trkpt lat="40.32302" lon="-1.69133">
        <ele>1650.2</ele>
        <time>2023-08-19T08:24:03Z</time>
      </trkpt>
      <trkpt lat="40.32283" lon="-1.69163">
        <ele>1650.3</ele>
        <time>2023-08-19T08:24:07Z</time>
      </trkpt>
      <trkpt lat="40.32265" lon="-1.69181">
        <ele>1650.6</ele>
        <time>2023-08-19T08:24:10Z</time>
      </trkpt>
      <trkpt lat="40.32237" lon="-1.69198">
        <ele>1650.3</ele>
        <time>2023-08-19T08:24:14Z</time>
      </trkpt>
      <trkpt lat="40.32215" lon="-1.69204">
        <ele>1649.9</ele>
        <time>2023-08-19T08:24:17Z</time>
      </trkpt>
      <trkpt lat="40.32184" lon="-1.69202">
        <ele>1649.9</ele>
        <time>2023-08-19T08:24:21Z</time>
      </trkpt>
      <trkpt lat="40.32155" lon="-1.692">
        <ele>1647.8</ele>
        <time>2023-08-19T08:24:25Z</time>
      </trkpt>
      <trkpt lat="40.32126" lon="-1.69205">
        <ele>1645.9</ele>
        <time>2023-08-19T08:24:29Z</time>
      </trkpt>
      <trkpt lat="40.32099" lon="-1.69218">
        <ele>1643.9</ele>
        <time>2023-08-19T08:24:33Z</time>
      </trkpt>
      <trkpt lat="40.32076" lon="-1.69242">
        <ele>1642.1</ele>
        <time>2023-08-19T08:24:37Z</time>
      </trkpt>
      <trkpt lat="40.32058" lon="-1.69273">
        <ele>1640.8</ele>
        <time>2023-08-19T08:24:41Z</time>
      </trkpt>
      <trkpt lat="40.32045" lon="-1.69307">
        <ele>1639.8</ele>
        <time>2023-08-19T08:24:45Z</time>
      </trkpt>
      <trkpt lat="40.32036" lon="-1.69333">
        <ele>1639.3</ele>
        <time>2023-08-19T08:24:48Z</time>
      </trkpt>
      <trkpt lat="40.32025" lon="-1.69368">
        <ele>1638.4</ele>
        <time>2023-08-19T08:24:52Z</time>
      </trkpt>
      <trkpt lat="40.32016" lon="-1.69393">
        <ele>1637.6</ele>
        <time>2023-08-19T08:24:55Z</time>
      </trkpt>
      <trkpt lat="40.32004" lon="-1.69428">
        <ele>1636</ele>
        <time>2023-08-19T08:24:59Z</time>
      </trkpt>
      <trkpt lat="40.31992" lon="-1.69462">
        <ele>1634.2</ele>
        <time>2023-08-19T08:25:03Z</time>
      </trkpt>
      <trkpt lat="40.3198" lon="-1.69498">
        <ele>1633.5</ele>
        <time>2023-08-19T08:25:07Z</time>
      </trkpt>
      <trkpt lat="40.31971" lon="-1.69524">
        <ele>1632.8</ele>
        <time>2023-08-19T08:25:10Z</time>
      </trkpt>
      <trkpt lat="40.31959" lon="-1.69559">
        <ele>1631.5</ele>
        <time>2023-08-19T08:25:14Z</time>
      </trkpt>
      <trkpt lat="40.31947" lon="-1.69594">
        <ele>1629.4</ele>
        <time>2023-08-19T08:25:18Z</time>
      </trkpt>
      <trkpt lat="40.31937" lon="-1.69629">
        <ele>1627.3</ele>
        <time>2023-08-19T08:25:22Z</time>
      </trkpt>
      <trkpt lat="40.31933" lon="-1.69657">
        <ele>1627.1</ele>
        <time>2023-08-19T08:25:25Z</time>
      </trkpt>
      <trkpt lat="40.31932" lon="-1.69694">
        <ele>1626</ele>
        <time>2023-08-19T08:25:29Z</time>
      </trkpt>
      <trkpt lat="40.31935" lon="-1.69721">
        <ele>1625.8</ele>
        <time>2023-08-19T08:25:32Z</time>
      </trkpt>
      <trkpt lat="40.31941" lon="-1.69749">
        <ele>1626.1</ele>
        <time>2023-08-19T08:25:35Z</time>
      </trkpt>
      <trkpt lat="40.31954" lon="-1.69783">
        <ele>1627.1</ele>
        <time>2023-08-19T08:25:39Z</time>
      </trkpt>
      <trkpt lat="40.31964" lon="-1.69808">
        <ele>1627.7</ele>
        <time>2023-08-19T08:25:42Z</time>
      </trkpt>
      <trkpt lat="40.31977" lon="-1.69841">
        <ele>1628.5</ele>
        <time>2023-08-19T08:25:46Z</time>
      </trkpt>
      <trkpt lat="40.31988" lon="-1.69866">
        <ele>1629.3</ele>
        <time>2023-08-19T08:25:49Z</time>
      </trkpt>
      <trkpt lat="40.32" lon="-1.69891">
        <ele>1628.8</ele>
        <time>2023-08-19T08:25:52Z</time>
      </trkpt>
      <trkpt lat="40.32017" lon="-1.69923">
        <ele>1628.5</ele>
        <time>2023-08-19T08:25:56Z</time>
      </trkpt>
      <trkpt lat="40.32037" lon="-1.69953">
        <ele>1627.9</ele>
        <time>2023-08-19T08:26:00Z</time>
      </trkpt>
      <trkpt lat="40.32052" lon="-1.69974">
        <ele>1626.6</ele>
        <time>2023-08-19T08:26:03Z</time>
      </trkpt>
      <trkpt lat="40.32066" lon="-1.69995">
        <ele>1625.8</ele>
        <time>2023-08-19T08:26:06Z</time>
      </trkpt>
      <trkpt lat="40.32082" lon="-1.70027">
        <ele>1624</ele>
        <time>2023-08-19T08:26:10Z</time>
      </trkpt>
      <trkpt lat="40.32097" lon="-1.70059">
        <ele>1623.6</ele>
        <time>2023-08-19T08:26:14Z</time>
      </trkpt>
      <trkpt lat="40.32107" lon="-1.70083">
        <ele>1623.5</ele>
        <time>2023-08-19T08:26:17Z</time>
      </trkpt>
      <trkpt lat="40.3212" lon="-1.70116">
        <ele>1623.7</ele>
        <time>2023-08-19T08:26:21Z</time>
      </trkpt>
      <trkpt lat="40.32129" lon="-1.70143">
        <ele>1623.9</ele>
        <time>2023-08-19T08:26:24Z</time>
      </trkpt>
      <trkpt lat="40.32139" lon="-1.70178">
        <ele>1622.8</ele>
        <time>2023-08-19T08:26:28Z</time>
      </trkpt>
      <trkpt lat="40.3215" lon="-1.70212">
        <ele>1622.8</ele>
        <time>2023-08-19T08:26:32Z</time>
      </trkpt>
      <trkpt lat="40.3216" lon="-1.70248">
        <ele>1622.8</ele>
        <time>2023-08-19T08:26:36Z</time>
      </trkpt>
      <trkpt lat="40.32171" lon="-1.70283">
        <ele>1623.1</ele>
        <time>2023-08-19T08:26:40Z</time>
      </trkpt>
      <trkpt lat="40.32179" lon="-1.70309">
        <ele>1624</ele>
        <time>2023-08-19T08:26:43Z</time>
      </trkpt>
      <trkpt lat="40.32191" lon="-1.70344">
        <ele>1624.6</ele>
        <time>2023-08-19T08:26:47Z</time>
      </trkpt>
      <trkpt lat="40.322" lon="-1.70371">
        <ele>1624</ele>
        <time>2023-08-19T08:26:50Z</time>
      </trkpt>
      <trkpt lat="40.32209" lon="-1.70398">
        <ele>1624.4</ele>
        <time>2023-08-19T08:26:53Z</time>
      </trkpt>
      <trkpt lat="40.32223" lon="-1.70431">
        <ele>1623.3</ele>
        <time>2023-08-19T08:26:57Z</time>
      </trkpt>
      <trkpt lat="40.32238" lon="-1.70463">
        <ele>1623.8</ele>
        <time>2023-08-19T08:27:01Z</time>
      </trkpt>
      <trkpt lat="40.32253" lon="-1.70495">
        <ele>1624.5</ele>
        <time>2023-08-19T08:27:05Z</time>
      </trkpt>
      <trkpt lat="40.32267" lon="-1.70527">
        <ele>1625.7</ele>
        <time>2023-08-19T08:27:09Z</time>
      </trkpt>
      <trkpt lat="40.32279" lon="-1.70549">
        <ele>1626.3</ele>
        <time>2023-08-19T08:27:12Z</time>
      </trkpt>
      <trkpt lat="40.32292" lon="-1.70572">
        <ele>1626.9</ele>
        <time>2023-08-19T08:27:15Z</time>
      </trkpt>
      <trkpt lat="40.32306" lon="-1.70595">
        <ele>1628.1</ele>
        <time>2023-08-19T08:27:18Z</time>
      </trkpt>
      <trkpt lat="40.32325" lon="-1.70624">
        <ele>1627.8</ele>
        <time>2023-08-19T08:27:22Z</time>
      </trkpt>
      <trkpt lat="40.32339" lon="-1.70645">
        <ele>1627.4</ele>
        <time>2023-08-19T08:27:25Z</time>
      </trkpt>
      <trkpt lat="40.32354" lon="-1.70667">
        <ele>1628.1</ele>
        <time>2023-08-19T08:27:28Z</time>
      </trkpt>
      <trkpt lat="40.32374" lon="-1.70694">
        <ele>1629.7</ele>
        <time>2023-08-19T08:27:32Z</time>
      </trkpt>
      <trkpt lat="40.32395" lon="-1.70721">
        <ele>1630</ele>
        <time>2023-08-19T08:27:36Z</time>
      </trkpt>
      <trkpt lat="40.32411" lon="-1.7074">
        <ele>1629.4</ele>
        <time>2023-08-19T08:27:39Z</time>
      </trkpt>
      <trkpt lat="40.32427" lon="-1.70759">
        <ele>1629.1</ele>
        <time>2023-08-19T08:27:42Z</time>
      </trkpt>
      <trkpt lat="40.3245" lon="-1.70785">
        <ele>1628.8</ele>
        <time>2023-08-19T08:27:46Z</time>
      </trkpt>
      <trkpt lat="40.32467" lon="-1.70804">
        <ele>1627.6</ele>
        <time>2023-08-19T08:27:49Z</time>
      </trkpt>
      <trkpt lat="40.3249" lon="-1.70829">
        <ele>1626.8</ele>
        <time>2023-08-19T08:27:53Z</time>
      </trkpt>
      <trkpt lat="40.32507" lon="-1.70846">
        <ele>1626.2</ele>
        <time>2023-08-19T08:27:56Z</time>
      </trkpt>
      <trkpt lat="40.32525" lon="-1.70863">
        <ele>1626.4</ele>
        <time>2023-08-19T08:27:59Z</time>
      </trkpt>
      <trkpt lat="40.32549" lon="-1.70883">
        <ele>1626.1</ele>
        <time>2023-08-19T08:28:03Z</time>
      </trkpt>
      <trkpt lat="40.32567" lon="-1.70899">
        <ele>1625.5</ele>
        <time>2023-08-19T08:28:06Z</time>
      </trkpt>
      <trkpt lat="40.32593" lon="-1.70918">
        <ele>1625.2</ele>
        <time>2023-08-19T08:28:10Z</time>
      </trkpt>
      <trkpt lat="40.32618" lon="-1.70936">
        <ele>1624.5</ele>
        <time>2023-08-19T08:28:14Z</time>
      </trkpt>
      <trkpt lat="40.32638" lon="-1.70948">
        <ele>1624</ele>
        <time>2023-08-19T08:28:17Z</time>
      </trkpt>
      <trkpt lat="40.32658" lon="-1.7096">
        <ele>1623.4</ele>
        <time>2023-08-19T08:28:20Z</time>
      </trkpt>
      <trkpt lat="40.32683" lon="-1.70977">
        <ele>1622.8</ele>
        <time>2023-08-19T08:28:24Z</time>
      </trkpt>
      <trkpt lat="40.32702" lon="-1.70991">
        <ele>1623.3</ele>
        <time>2023-08-19T08:28:27Z</time>
      </trkpt>
      <trkpt lat="40.32719" lon="-1.71006">
        <ele>1624.1</ele>
        <time>2023-08-19T08:28:30Z</time>
      </trkpt>
      <trkpt lat="40.32744" lon="-1.71025">
        <ele>1624.1</ele>
        <time>2023-08-19T08:28:34Z</time>
      </trkpt>
      <trkpt lat="40.32763" lon="-1.71041">
        <ele>1624.5</ele>
        <time>2023-08-19T08:28:37Z</time>
      </trkpt>
      <trkpt lat="40.32788" lon="-1.71062">
        <ele>1623.4</ele>
        <time>2023-08-19T08:28:41Z</time>
      </trkpt>
      <trkpt lat="40.32807" lon="-1.71079">
        <ele>1623.1</ele>
        <time>2023-08-19T08:28:44Z</time>
      </trkpt>
      <trkpt lat="40.32832" lon="-1.71101">
        <ele>1621.7</ele>
        <time>2023-08-19T08:28:48Z</time>
      </trkpt>
      <trkpt lat="40.32849" lon="-1.71118">
        <ele>1620.8</ele>
        <time>2023-08-19T08:28:51Z</time>
      </trkpt>
      <trkpt lat="40.32872" lon="-1.7114">
        <ele>1620.5</ele>
        <time>2023-08-19T08:28:55Z</time>
      </trkpt>
      <trkpt lat="40.32896" lon="-1.71161">
        <ele>1619.2</ele>
        <time>2023-08-19T08:28:59Z</time>
      </trkpt>
      <trkpt lat="40.32921" lon="-1.71183">
        <ele>1618.8</ele>
        <time>2023-08-19T08:29:03Z</time>
      </trkpt>
      <trkpt lat="40.32946" lon="-1.71204">
        <ele>1618.4</ele>
        <time>2023-08-19T08:29:07Z</time>
      </trkpt>
      <trkpt lat="40.32964" lon="-1.71221">
        <ele>1617.5</ele>
        <time>2023-08-19T08:29:10Z</time>
      </trkpt>
      <trkpt lat="40.32989" lon="-1.71242">
        <ele>1616.8</ele>
        <time>2023-08-19T08:29:14Z</time>
      </trkpt>
      <trkpt lat="40.33007" lon="-1.71258">
        <ele>1616.2</ele>
        <time>2023-08-19T08:29:17Z</time>
      </trkpt>
      <trkpt lat="40.3303" lon="-1.71278">
        <ele>1615.1</ele>
        <time>2023-08-19T08:29:21Z</time>
      </trkpt>
      <trkpt lat="40.33048" lon="-1.71293">
        <ele>1616</ele>
        <time>2023-08-19T08:29:24Z</time>
      </trkpt>
      <trkpt lat="40.33072" lon="-1.71313">
        <ele>1616</ele>
        <time>2023-08-19T08:29:28Z</time>
      </trkpt>
      <trkpt lat="40.33095" lon="-1.71335">
        <ele>1616.4</ele>
        <time>2023-08-19T08:29:32Z</time>
      </trkpt>
      <trkpt lat="40.33112" lon="-1.71352">
        <ele>1617.4</ele>
        <time>2023-08-19T08:29:35Z</time>
      </trkpt>
      <trkpt lat="40.33135" lon="-1.71376">
        <ele>1617.3</ele>
        <time>2023-08-19T08:29:39Z</time>
      </trkpt>
      <trkpt lat="40.33152" lon="-1.71395">
        <ele>1617.1</ele>
        <time>2023-08-19T08:29:42Z</time>
      </trkpt>
      <trkpt lat="40.33173" lon="-1.7142">
        <ele>1617.1</ele>
        <time>2023-08-19T08:29:46Z</time>
      </trkpt>
      <trkpt lat="40.33189" lon="-1.71441">
        <ele>1616.7</ele>
        <time>2023-08-19T08:29:49Z</time>
      </trkpt>
      <trkpt lat="40.33208" lon="-1.7147">
        <ele>1618.1</ele>
        <time>2023-08-19T08:29:53Z</time>
      </trkpt>
      <trkpt lat="40.33222" lon="-1.71491">
        <ele>1618.7</ele>
        <time>2023-08-19T08:29:56Z</time>
      </trkpt>
      <trkpt lat="40.33242" lon="-1.71517">
        <ele>1619.4</ele>
        <time>2023-08-19T08:30:00Z</time>
      </trkpt>
      <trkpt lat="40.33258" lon="-1.71537">
        <ele>1619.3</ele>
        <time>2023-08-19T08:30:03Z</time>
      </trkpt>
      <trkpt lat="40.33278" lon="-1.71564">
        <ele>1620.2</ele>
        <time>2023-08-19T08:30:07Z</time>
      </trkpt>
      <trkpt lat="40.33293" lon="-1.71585">
        <ele>1620.5</ele>
        <time>2023-08-19T08:30:10Z</time>
      </trkpt>
      <trkpt lat="40.33312" lon="-1.71613">
        <ele>1620.5</ele>
        <time>2023-08-19T08:30:14Z</time>
      </trkpt>
      <trkpt lat="40.33328" lon="-1.71633">
        <ele>1621.2</ele>
        <time>2023-08-19T08:30:17Z</time>
      </trkpt>
      <trkpt lat="40.3335" lon="-1.71657">
        <ele>1621.3</ele>
        <time>2023-08-19T08:30:21Z</time>
      </trkpt>
      <trkpt lat="40.33367" lon="-1.71674">
        <ele>1621.4</ele>
        <time>2023-08-19T08:30:24Z</time>
      </trkpt>
      <trkpt lat="40.33386" lon="-1.7169">
        <ele>1621.5</ele>
        <time>2023-08-19T08:30:27Z</time>
      </trkpt>
      <trkpt lat="40.33412" lon="-1.71708">
        <ele>1620.4</ele>
        <time>2023-08-19T08:30:31Z</time>
      </trkpt>
      <trkpt lat="40.33432" lon="-1.71721">
        <ele>1619.8</ele>
        <time>2023-08-19T08:30:34Z</time>
      </trkpt>
      <trkpt lat="40.33452" lon="-1.71735">
        <ele>1619.8</ele>
        <time>2023-08-19T08:30:37Z</time>
      </trkpt>
      <trkpt lat="40.33477" lon="-1.71754">
        <ele>1618.3</ele>
        <time>2023-08-19T08:30:41Z</time>
      </trkpt>
      <trkpt lat="40.33503" lon="-1.71772">
        <ele>1617.6</ele>
        <time>2023-08-19T08:30:45Z</time>
      </trkpt>
      <trkpt lat="40.33527" lon="-1.71794">
        <ele>1616.5</ele>
        <time>2023-08-19T08:30:49Z</time>
      </trkpt>
      <trkpt lat="40.33544" lon="-1.71812">
        <ele>1616.7</ele>
        <time>2023-08-19T08:30:52Z</time>
      </trkpt>
      <trkpt lat="40.33566" lon="-1.71838">
        <ele>1616.9</ele>
        <time>2023-08-19T08:30:56Z</time>
      </trkpt>
      <trkpt lat="40.33582" lon="-1.71857">
        <ele>1616</ele>
        <time>2023-08-19T08:30:59Z</time>
      </trkpt>
      <trkpt lat="40.33597" lon="-1.71877">
        <ele>1616.1</ele>
        <time>2023-08-19T08:31:02Z</time>
      </trkpt>
      <trkpt lat="40.33617" lon="-1.71902">
        <ele>1616.5</ele>
        <time>2023-08-19T08:31:06Z</time>
      </trkpt>
      <trkpt lat="40.33632" lon="-1.71921">
        <ele>1615.5</ele>
        <time>2023-08-19T08:31:09Z</time>
      </trkpt>
      <trkpt lat="40.33653" lon="-1.71948">
        <ele>1615</ele>
        <time>2023-08-19T08:31:13Z</time>
      </trkpt>
      <trkpt lat="40.33674" lon="-1.71974">
        <ele>1615.6</ele>
        <time>2023-08-19T08:31:17Z</time>
      </trkpt>
      <trkpt lat="40.33693" lon="-1.72">
        <ele>1615.6</ele>
        <time>2023-08-19T08:31:21Z</time>
      </trkpt>
      <trkpt lat="40.33708" lon="-1.7202">
        <ele>1616.5</ele>
        <time>2023-08-19T08:31:24Z</time>
      </trkpt>
      <trkpt lat="40.33724" lon="-1.7204">
        <ele>1616.4</ele>
        <time>2023-08-19T08:31:27Z</time>
      </trkpt>
      <trkpt lat="40.33745" lon="-1.72067">
        <ele>1617</ele>
        <time>2023-08-19T08:31:31Z</time>
      </trkpt>
      <trkpt lat="40.3376" lon="-1.72087">
        <ele>1616.9</ele>
        <time>2023-08-19T08:31:34Z</time>
      </trkpt>
      <trkpt lat="40.3378" lon="-1.72116">
        <ele>1616.9</ele>
        <time>2023-08-19T08:31:38Z</time>
      </trkpt>
      <trkpt lat="40.33793" lon="-1.72139">
        <ele>1616</ele>
        <time>2023-08-19T08:31:41Z</time>
      </trkpt>
      <trkpt lat="40.33807" lon="-1.72173">
        <ele>1616.2</ele>
        <time>2023-08-19T08:31:45Z</time>
      </trkpt>
      <trkpt lat="40.3382" lon="-1.72207">
        <ele>1616.4</ele>
        <time>2023-08-19T08:31:49Z</time>
      </trkpt>
      <trkpt lat="40.33832" lon="-1.72241">
        <ele>1616</ele>
        <time>2023-08-19T08:31:53Z</time>
      </trkpt>
      <trkpt lat="40.3384" lon="-1.72267">
        <ele>1616</ele>
        <time>2023-08-19T08:31:56Z</time>
      </trkpt>
      <trkpt lat="40.33848" lon="-1.72292">
        <ele>1616.5</ele>
        <time>2023-08-19T08:31:59Z</time>
      </trkpt>
      <trkpt lat="40.33859" lon="-1.72327">
        <ele>1616</ele>
        <time>2023-08-19T08:32:03Z</time>
      </trkpt>
      <trkpt lat="40.33867" lon="-1.72354">
        <ele>1615.4</ele>
        <time>2023-08-19T08:32:06Z</time>
      </trkpt>
      <trkpt lat="40.3388" lon="-1.72389">
        <ele>1614.9</ele>
        <time>2023-08-19T08:32:10Z</time>
      </trkpt>
      <trkpt lat="40.33893" lon="-1.72424">
        <ele>1614.8</ele>
        <time>2023-08-19T08:32:14Z</time>
      </trkpt>
      <trkpt lat="40.33904" lon="-1.72458">
        <ele>1613.5</ele>
        <time>2023-08-19T08:32:18Z</time>
      </trkpt>
      <trkpt lat="40.33914" lon="-1.72493">
        <ele>1613.7</ele>
        <time>2023-08-19T08:32:22Z</time>
      </trkpt>
      <trkpt lat="40.33922" lon="-1.72519">
        <ele>1614.6</ele>
        <time>2023-08-19T08:32:25Z</time>
      </trkpt>
      <trkpt lat="40.33932" lon="-1.72555">
        <ele>1614.4</ele>
        <time>2023-08-19T08:32:29Z</time>
      </trkpt>
      <trkpt lat="40.33942" lon="-1.72591">
        <ele>1615.3</ele>
        <time>2023-08-19T08:32:33Z</time>
      </trkpt>
      <trkpt lat="40.33949" lon="-1.72628">
        <ele>1614.4</ele>
        <time>2023-08-19T08:32:37Z</time>
      </trkpt>
      <trkpt lat="40.33955" lon="-1.72664">
        <ele>1614.9</ele>
        <time>2023-08-19T08:32:41Z</time>
      </trkpt>
      <trkpt lat="40.33959" lon="-1.72692">
        <ele>1614.6</ele>
        <time>2023-08-19T08:32:44Z</time>
      </trkpt>
      <trkpt lat="40.33963" lon="-1.72729">
        <ele>1614.4</ele>
        <time>2023-08-19T08:32:48Z</time>
      </trkpt>
      <trkpt lat="40.33967" lon="-1.72758">
        <ele>1614.7</ele>
        <time>2023-08-19T08:32:51Z</time>
      </trkpt>
      <trkpt lat="40.33971" lon="-1.72788">
        <ele>1614.9</ele>
        <time>2023-08-19T08:32:54Z</time>
      </trkpt>
      <trkpt lat="40.33976" lon="-1.72825">
        <ele>1614.5</ele>
        <time>2023-08-19T08:32:58Z</time>
      </trkpt>
      <trkpt lat="40.33983" lon="-1.7286">
        <ele>1615.1</ele>
        <time>2023-08-19T08:33:02Z</time>
      </trkpt>
      <trkpt lat="40.33994" lon="-1.72895">
        <ele>1615</ele>
        <time>2023-08-19T08:33:06Z</time>
      </trkpt>
      <trkpt lat="40.3401" lon="-1.72928">
        <ele>1615.4</ele>
        <time>2023-08-19T08:33:10Z</time>
      </trkpt>
      <trkpt lat="40.34029" lon="-1.72959">
        <ele>1614.8</ele>
        <time>2023-08-19T08:33:14Z</time>
      </trkpt>
      <trkpt lat="40.34047" lon="-1.72987">
        <ele>1614.9</ele>
        <time>2023-08-19T08:33:18Z</time>
      </trkpt>
      <trkpt lat="40.34067" lon="-1.73015">
        <ele>1614.4</ele>
        <time>2023-08-19T08:33:22Z</time>
      </trkpt>
      <trkpt lat="40.34083" lon="-1.73036">
        <ele>1614.5</ele>
        <time>2023-08-19T08:33:25Z</time>
      </trkpt>
      <trkpt lat="40.34103" lon="-1.73066">
        <ele>1613.8</ele>
        <time>2023-08-19T08:33:29Z</time>
      </trkpt>
      <trkpt lat="40.34123" lon="-1.73094">
        <ele>1612.7</ele>
        <time>2023-08-19T08:33:33Z</time>
      </trkpt>
      <trkpt lat="40.34142" lon="-1.73123">
        <ele>1611</ele>
        <time>2023-08-19T08:33:37Z</time>
      </trkpt>
      <trkpt lat="40.34156" lon="-1.73145">
        <ele>1610.8</ele>
        <time>2023-08-19T08:33:40Z</time>
      </trkpt>
      <trkpt lat="40.34176" lon="-1.73171">
        <ele>1610.2</ele>
        <time>2023-08-19T08:33:44Z</time>
      </trkpt>
      <trkpt lat="40.34195" lon="-1.73194">
        <ele>1609.9</ele>
        <time>2023-08-19T08:33:48Z</time>
      </trkpt>
      <trkpt lat="40.34217" lon="-1.73219">
        <ele>1609</ele>
        <time>2023-08-19T08:33:52Z</time>
      </trkpt>
      <trkpt lat="40.34235" lon="-1.73239">
        <ele>1608.2</ele>
        <time>2023-08-19T08:33:55Z</time>
      </trkpt>
      <trkpt lat="40.3426" lon="-1.73262">
        <ele>1607.7</ele>
        <time>2023-08-19T08:33:59Z</time>
      </trkpt>
      <trkpt lat="40.34278" lon="-1.73279">
        <ele>1606.6</ele>
        <time>2023-08-19T08:34:02Z</time>
      </trkpt>
      <trkpt lat="40.34301" lon="-1.73303">
        <ele>1605.7</ele>
        <time>2023-08-19T08:34:06Z</time>
      </trkpt>
      <trkpt lat="40.34325" lon="-1.73325">
        <ele>1605</ele>
        <time>2023-08-19T08:34:10Z</time>
      </trkpt>
      <trkpt lat="40.34349" lon="-1.73346">
        <ele>1604.5</ele>
        <time>2023-08-19T08:34:14Z</time>
      </trkpt>
      <trkpt lat="40.34373" lon="-1.73368">
        <ele>1604.9</ele>
        <time>2023-08-19T08:34:18Z</time>
      </trkpt>
      <trkpt lat="40.3439" lon="-1.73385">
        <ele>1604.2</ele>
        <time>2023-08-19T08:34:21Z</time>
      </trkpt>
      <trkpt lat="40.34406" lon="-1.73401">
        <ele>1603.2</ele>
        <time>2023-08-19T08:34:24Z</time>
      </trkpt>
      <trkpt lat="40.3443" lon="-1.73424">
        <ele>1602.6</ele>
        <time>2023-08-19T08:34:28Z</time>
      </trkpt>
      <trkpt lat="40.34452" lon="-1.73448">
        <ele>1601.9</ele>
        <time>2023-08-19T08:34:32Z</time>
      </trkpt>
      <trkpt lat="40.34465" lon="-1.7347">
        <ele>1601.3</ele>
        <time>2023-08-19T08:34:35Z</time>
      </trkpt>
      <trkpt lat="40.34477" lon="-1.73503">
        <ele>1601.5</ele>
        <time>2023-08-19T08:34:39Z</time>
      </trkpt>
      <trkpt lat="40.34483" lon="-1.73529">
        <ele>1601.4</ele>
        <time>2023-08-19T08:34:42Z</time>
      </trkpt>
      <trkpt lat="40.34485" lon="-1.73556">
        <ele>1601.3</ele>
        <time>2023-08-19T08:34:45Z</time>
      </trkpt>
      <trkpt lat="40.34485" lon="-1.73586">
        <ele>1600.6</ele>
        <time>2023-08-19T08:34:48Z</time>
      </trkpt>
      <trkpt lat="40.34483" lon="-1.73626">
        <ele>1599.6</ele>
        <time>2023-08-19T08:34:52Z</time>
      </trkpt>
      <trkpt lat="40.34481" lon="-1.73654">
        <ele>1598.9</ele>
        <time>2023-08-19T08:34:55Z</time>
      </trkpt>
      <trkpt lat="40.3448" lon="-1.7369">
        <ele>1599</ele>
        <time>2023-08-19T08:34:59Z</time>
      </trkpt>
      <trkpt lat="40.34479" lon="-1.73726">
        <ele>1598.9</ele>
        <time>2023-08-19T08:35:03Z</time>
      </trkpt>
      <trkpt lat="40.34479" lon="-1.73764">
        <ele>1599.4</ele>
        <time>2023-08-19T08:35:07Z</time>
      </trkpt>
      <trkpt lat="40.34478" lon="-1.73802">
        <ele>1600.2</ele>
        <time>2023-08-19T08:35:11Z</time>
      </trkpt>
      <trkpt lat="40.34477" lon="-1.7383">
        <ele>1601.3</ele>
        <time>2023-08-19T08:35:14Z</time>
      </trkpt>
      <trkpt lat="40.34475" lon="-1.73857">
        <ele>1603</ele>
        <time>2023-08-19T08:35:17Z</time>
      </trkpt>
      <trkpt lat="40.34474" lon="-1.73895">
        <ele>1603.8</ele>
        <time>2023-08-19T08:35:21Z</time>
      </trkpt>
      <trkpt lat="40.34473" lon="-1.73934">
        <ele>1604.2</ele>
        <time>2023-08-19T08:35:25Z</time>
      </trkpt>
      <trkpt lat="40.34472" lon="-1.73974">
        <ele>1604.8</ele>
        <time>2023-08-19T08:35:29Z</time>
      </trkpt>
      <trkpt lat="40.34472" lon="-1.74002">
        <ele>1604.7</ele>
        <time>2023-08-19T08:35:32Z</time>
      </trkpt>
      <trkpt lat="40.34471" lon="-1.74039">
        <ele>1605.4</ele>
        <time>2023-08-19T08:35:36Z</time>
      </trkpt>
      <trkpt lat="40.34471" lon="-1.74068">
        <ele>1605.2</ele>
        <time>2023-08-19T08:35:39Z</time>
      </trkpt>
      <trkpt lat="40.3447" lon="-1.74106">
        <ele>1606.3</ele>
        <time>2023-08-19T08:35:43Z</time>
      </trkpt>
      <trkpt lat="40.34469" lon="-1.74144">
        <ele>1607.7</ele>
        <time>2023-08-19T08:35:47Z</time>
      </trkpt>
      <trkpt lat="40.34469" lon="-1.74172">
        <ele>1608.1</ele>
        <time>2023-08-19T08:35:50Z</time>
      </trkpt>
      <trkpt lat="40.34471" lon="-1.7421">
        <ele>1608.1</ele>
        <time>2023-08-19T08:35:54Z</time>
      </trkpt>
      <trkpt lat="40.34478" lon="-1.74237">
        <ele>1608.5</ele>
        <time>2023-08-19T08:35:57Z</time>
      </trkpt>
      <trkpt lat="40.34491" lon="-1.74272">
        <ele>1607.3</ele>
        <time>2023-08-19T08:36:01Z</time>
      </trkpt>
      <trkpt lat="40.3451" lon="-1.74304">
        <ele>1606.7</ele>
        <time>2023-08-19T08:36:05Z</time>
      </trkpt>
      <trkpt lat="40.34526" lon="-1.74322">
        <ele>1606</ele>
        <time>2023-08-19T08:36:08Z</time>
      </trkpt>
      <trkpt lat="40.3455" lon="-1.74341">
        <ele>1605.5</ele>
        <time>2023-08-19T08:36:12Z</time>
      </trkpt>
      <trkpt lat="40.34567" lon="-1.74355">
        <ele>1606.4</ele>
        <time>2023-08-19T08:36:15Z</time>
      </trkpt>
      <trkpt lat="40.34591" lon="-1.74375">
        <ele>1606.2</ele>
        <time>2023-08-19T08:36:19Z</time>
      </trkpt>
      <trkpt lat="40.34617" lon="-1.74396">
        <ele>1605.5</ele>
        <time>2023-08-19T08:36:23Z</time>
      </trkpt>
      <trkpt lat="40.34637" lon="-1.74411">
        <ele>1604.8</ele>
        <time>2023-08-19T08:36:26Z</time>
      </trkpt>
      <trkpt lat="40.34663" lon="-1.74431">
        <ele>1604.2</ele>
        <time>2023-08-19T08:36:30Z</time>
      </trkpt>
      <trkpt lat="40.34681" lon="-1.74446">
        <ele>1603.4</ele>
        <time>2023-08-19T08:36:33Z</time>
      </trkpt>
      <trkpt lat="40.34705" lon="-1.74465">
        <ele>1602.7</ele>
        <time>2023-08-19T08:36:37Z</time>
      </trkpt>
      <trkpt lat="40.34728" lon="-1.74485">
        <ele>1603.3</ele>
        <time>2023-08-19T08:36:41Z</time>
      </trkpt>
      <trkpt lat="40.34753" lon="-1.74504">
        <ele>1604.1</ele>
        <time>2023-08-19T08:36:45Z</time>
      </trkpt>
      <trkpt lat="40.3478" lon="-1.74524">
        <ele>1603</ele>
        <time>2023-08-19T08:36:49Z</time>
      </trkpt>
      <trkpt lat="40.348" lon="-1.74539">
        <ele>1602.5</ele>
        <time>2023-08-19T08:36:52Z</time>
      </trkpt>
      <trkpt lat="40.34825" lon="-1.74558">
        <ele>1601.1</ele>
        <time>2023-08-19T08:36:56Z</time>
      </trkpt>
      <trkpt lat="40.3485" lon="-1.74578">
        <ele>1600.1</ele>
        <time>2023-08-19T08:37:00Z</time>
      </trkpt>
      <trkpt lat="40.34864" lon="-1.74599">
        <ele>1598.9</ele>
        <time>2023-08-19T08:37:03Z</time>
      </trkpt>
      <trkpt lat="40.34875" lon="-1.74633">
        <ele>1598.9</ele>
        <time>2023-08-19T08:37:07Z</time>
      </trkpt>
      <trkpt lat="40.34877" lon="-1.7467">
        <ele>1601.3</ele>
        <time>2023-08-19T08:37:11Z</time>
      </trkpt>
      <trkpt lat="40.34872" lon="-1.74698">
        <ele>1601.8</ele>
        <time>2023-08-19T08:37:14Z</time>
      </trkpt>
      <trkpt lat="40.34858" lon="-1.74732">
        <ele>1602.3</ele>
        <time>2023-08-19T08:37:18Z</time>
      </trkpt>
      <trkpt lat="40.34836" lon="-1.74758">
        <ele>1603.2</ele>
        <time>2023-08-19T08:37:22Z</time>
      </trkpt>
      <trkpt lat="40.34809" lon="-1.74773">
        <ele>1603.6</ele>
        <time>2023-08-19T08:37:26Z</time>
      </trkpt>
      <trkpt lat="40.34781" lon="-1.74775">
        <ele>1605.9</ele>
        <time>2023-08-19T08:37:30Z</time>
      </trkpt>
      <trkpt lat="40.34753" lon="-1.7477">
        <ele>1606.6</ele>
        <time>2023-08-19T08:37:34Z</time>
      </trkpt>
      <trkpt lat="40.34725" lon="-1.74768">
        <ele>1608.2</ele>
        <time>2023-08-19T08:37:38Z</time>
      </trkpt>
      <trkpt lat="40.34698" lon="-1.74771">
        <ele>1610.8</ele>
        <time>2023-08-19T08:37:42Z</time>
      </trkpt>
      <trkpt lat="40.34672" lon="-1.7478">
        <ele>1613</ele>
        <time>2023-08-19T08:37:46Z</time>
      </trkpt>
      <trkpt lat="40.34645" lon="-1.74792">
        <ele>1614.6</ele>
        <time>2023-08-19T08:37:50Z</time>
      </trkpt>
      <trkpt lat="40.34622" lon="-1.74808">
        <ele>1616.6</ele>
        <time>2023-08-19T08:37:54Z</time>
      </trkpt>
      <trkpt lat="40.346" lon="-1.74828">
        <ele>1618.7</ele>
        <time>2023-08-19T08:37:58Z</time>
      </trkpt>
      <trkpt lat="40.34579" lon="-1.74851">
        <ele>1620.4</ele>
        <time>2023-08-19T08:38:02Z</time>
      </trkpt>
      <trkpt lat="40.34564" lon="-1.74869">
        <ele>1620.8</ele>
        <time>2023-08-19T08:38:05Z</time>
      </trkpt>
      <trkpt lat="40.34545" lon="-1.74894">
        <ele>1622.9</ele>
        <time>2023-08-19T08:38:09Z</time>
      </trkpt>
      <trkpt lat="40.34526" lon="-1.74921">
        <ele>1624.9</ele>
        <time>2023-08-19T08:38:13Z</time>
      </trkpt>
      <trkpt lat="40.34509" lon="-1.74947">
        <ele>1625.8</ele>
        <time>2023-08-19T08:38:17Z</time>
      </trkpt>
      <trkpt lat="40.34496" lon="-1.74968">
        <ele>1627.1</ele>
        <time>2023-08-19T08:38:20Z</time>
      </trkpt>
      <trkpt lat="40.34481" lon="-1.74998">
        <ele>1628.6</ele>
        <time>2023-08-19T08:38:24Z</time>
      </trkpt>
      <trkpt lat="40.34472" lon="-1.75021">
        <ele>1630</ele>
        <time>2023-08-19T08:38:27Z</time>
      </trkpt>
      <trkpt lat="40.34461" lon="-1.75054">
        <ele>1631.4</ele>
        <time>2023-08-19T08:38:31Z</time>
      </trkpt>
      <trkpt lat="40.34455" lon="-1.7508">
        <ele>1632.2</ele>
        <time>2023-08-19T08:38:34Z</time>
      </trkpt>
      <trkpt lat="40.34448" lon="-1.75114">
        <ele>1634.5</ele>
        <time>2023-08-19T08:38:38Z</time>
      </trkpt>
      <trkpt lat="40.34441" lon="-1.7514">
        <ele>1635.7</ele>
        <time>2023-08-19T08:38:41Z</time>
      </trkpt>
      <trkpt lat="40.3443" lon="-1.75173">
        <ele>1637.9</ele>
        <time>2023-08-19T08:38:45Z</time>
      </trkpt>
      <trkpt lat="40.34413" lon="-1.75203">
        <ele>1639.4</ele>
        <time>2023-08-19T08:38:49Z</time>
      </trkpt>
      <trkpt lat="40.34396" lon="-1.75223">
        <ele>1639.8</ele>
        <time>2023-08-19T08:38:52Z</time>
      </trkpt>
      <trkpt lat="40.34371" lon="-1.75245">
        <ele>1641.5</ele>
        <time>2023-08-19T08:38:56Z</time>
      </trkpt>
      <trkpt lat="40.34347" lon="-1.75265">
        <ele>1642.6</ele>
        <time>2023-08-19T08:39:00Z</time>
      </trkpt>
      <trkpt lat="40.34329" lon="-1.75279">
        <ele>1643.8</ele>
        <time>2023-08-19T08:39:03Z</time>
      </trkpt>
      <trkpt lat="40.34307" lon="-1.75299">
        <ele>1646.2</ele>
        <time>2023-08-19T08:39:07Z</time>
      </trkpt>
      <trkpt lat="40.34289" lon="-1.75314">
        <ele>1647.7</ele>
        <time>2023-08-19T08:39:10Z</time>
      </trkpt>
      <trkpt lat="40.34264" lon="-1.75332">
        <ele>1649.3</ele>
        <time>2023-08-19T08:39:14Z</time>
      </trkpt>
      <trkpt lat="40.34237" lon="-1.75347">
        <ele>1649.3</ele>
        <time>2023-08-19T08:39:18Z</time>
      </trkpt>
      <trkpt lat="40.34209" lon="-1.75361">
        <ele>1650.3</ele>
        <time>2023-08-19T08:39:22Z</time>
      </trkpt>
      <trkpt lat="40.34182" lon="-1.75372">
        <ele>1651.6</ele>
        <time>2023-08-19T08:39:26Z</time>
      </trkpt>
      <trkpt lat="40.34161" lon="-1.75375">
        <ele>1653</ele>
        <time>2023-08-19T08:39:29Z</time>
      </trkpt>
      <trkpt lat="40.34132" lon="-1.75372">
        <ele>1655</ele>
        <time>2023-08-19T08:39:33Z</time>
      </trkpt>
      <trkpt lat="40.34112" lon="-1.75366">
        <ele>1656.5</ele>
        <time>2023-08-19T08:39:36Z</time>
      </trkpt>
      <trkpt lat="40.34085" lon="-1.75351">
        <ele>1658.1</ele>
        <time>2023-08-19T08:39:40Z</time>
      </trkpt>
      <trkpt lat="40.34059" lon="-1.75338">
        <ele>1659.6</ele>
        <time>2023-08-19T08:39:44Z</time>
      </trkpt>
      <trkpt lat="40.3404" lon="-1.75332">
        <ele>1660.9</ele>
        <time>2023-08-19T08:39:47Z</time>
      </trkpt>
      <trkpt lat="40.3402" lon="-1.75327">
        <ele>1662</ele>
        <time>2023-08-19T08:39:50Z</time>
      </trkpt>
      <trkpt lat="40.33993" lon="-1.75326">
        <ele>1663.1</ele>
        <time>2023-08-19T08:39:54Z</time>
      </trkpt>
      <trkpt lat="40.33967" lon="-1.75325">
        <ele>1665.2</ele>
        <time>2023-08-19T08:39:58Z</time>
      </trkpt>
      <trkpt lat="40.33946" lon="-1.75325">
        <ele>1666</ele>
        <time>2023-08-19T08:40:01Z</time>
      </trkpt>
      <trkpt lat="40.33917" lon="-1.75325">
        <ele>1667.6</ele>
        <time>2023-08-19T08:40:05Z</time>
      </trkpt>
      <trkpt lat="40.33894" lon="-1.75326">
        <ele>1668.4</ele>
        <time>2023-08-19T08:40:08Z</time>
      </trkpt>
      <trkpt lat="40.33867" lon="-1.75331">
        <ele>1668.2</ele>
        <time>2023-08-19T08:40:12Z</time>
      </trkpt>
      <trkpt lat="40.33848" lon="-1.75355">
        <ele>1666.8</ele>
        <time>2023-08-19T08:40:16Z</time>
      </trkpt>
      <trkpt lat="40.33841" lon="-1.75383">
        <ele>1665.7</ele>
        <time>2023-08-19T08:40:19Z</time>
      </trkpt>
      <trkpt lat="40.33843" lon="-1.75423">
        <ele>1663.4</ele>
        <time>2023-08-19T08:40:23Z</time>
      </trkpt>
      <trkpt lat="40.33851" lon="-1.75459">
        <ele>1662.4</ele>
        <time>2023-08-19T08:40:27Z</time>
      </trkpt>
      <trkpt lat="40.33859" lon="-1.75494">
        <ele>1661.5</ele>
        <time>2023-08-19T08:40:31Z</time>
      </trkpt>
      <trkpt lat="40.3387" lon="-1.75532">
        <ele>1660.9</ele>
        <time>2023-08-19T08:40:35Z</time>
      </trkpt>
      <trkpt lat="40.33878" lon="-1.75559">
        <ele>1659.8</ele>
        <time>2023-08-19T08:40:38Z</time>
      </trkpt>
      <trkpt lat="40.33889" lon="-1.75589">
        <ele>1659.4</ele>
        <time>2023-08-19T08:40:42Z</time>
      </trkpt>
      <trkpt lat="40.33909" lon="-1.75613">
        <ele>1658.9</ele>
        <time>2023-08-19T08:40:46Z</time>
      </trkpt>
      <trkpt lat="40.33928" lon="-1.75629">
        <ele>1658.3</ele>
        <time>2023-08-19T08:40:49Z</time>
      </trkpt>
      <trkpt lat="40.33952" lon="-1.75651">
        <ele>1657.5</ele>
        <time>2023-08-19T08:40:53Z</time>
      </trkpt>
      <trkpt lat="40.33967" lon="-1.75672">
        <ele>1656</ele>
        <time>2023-08-19T08:40:56Z</time>
      </trkpt>
      <trkpt lat="40.33981" lon="-1.75697">
        <ele>1654.9</ele>
        <time>2023-08-19T08:40:59Z</time>
      </trkpt>
      <trkpt lat="40.33998" lon="-1.75729">
        <ele>1655.2</ele>
        <time>2023-08-19T08:41:03Z</time>
      </trkpt>
      <trkpt lat="40.3401" lon="-1.75751">
        <ele>1654.8</ele>
        <time>2023-08-19T08:41:06Z</time>
      </trkpt>
      <trkpt lat="40.34023" lon="-1.75775">
        <ele>1654.6</ele>
        <time>2023-08-19T08:41:09Z</time>
      </trkpt>
      <trkpt lat="40.3404" lon="-1.75806">
        <ele>1653.6</ele>
        <time>2023-08-19T08:41:13Z</time>
      </trkpt>
      <trkpt lat="40.34053" lon="-1.75828">
        <ele>1652.7</ele>
        <time>2023-08-19T08:41:16Z</time>
      </trkpt>
      <trkpt lat="40.34071" lon="-1.75856">
        <ele>1652.3</ele>
        <time>2023-08-19T08:41:20Z</time>
      </trkpt>
      <trkpt lat="40.34085" lon="-1.75877">
        <ele>1652.2</ele>
        <time>2023-08-19T08:41:23Z</time>
      </trkpt>
      <trkpt lat="40.34094" lon="-1.7591">
        <ele>1651.9</ele>
        <time>2023-08-19T08:41:27Z</time>
      </trkpt>
      <trkpt lat="40.34076" lon="-1.75936">
        <ele>1652.2</ele>
        <time>2023-08-19T08:41:31Z</time>
      </trkpt>
      <trkpt lat="40.34054" lon="-1.75929">
        <ele>1651.7</ele>
        <time>2023-08-19T08:41:34Z</time>
      </trkpt>
      <trkpt lat="40.34027" lon="-1.75907">
        <ele>1652</ele>
        <time>2023-08-19T08:41:38Z</time>
      </trkpt>
      <trkpt lat="40.34001" lon="-1.75887">
        <ele>1650.8</ele>
        <time>2023-08-19T08:41:42Z</time>
      </trkpt>
      <trkpt lat="40.33977" lon="-1.75869">
        <ele>1650.1</ele>
        <time>2023-08-19T08:41:46Z</time>
      </trkpt>
      <trkpt lat="40.33952" lon="-1.75851">
        <ele>1649.9</ele>
        <time>2023-08-19T08:41:50Z</time>
      </trkpt>
      <trkpt lat="40.33926" lon="-1.75832">
        <ele>1649.6</ele>
        <time>2023-08-19T08:41:54Z</time>
      </trkpt>
      <trkpt lat="40.33907" lon="-1.75817">
        <ele>1649.3</ele>
        <time>2023-08-19T08:41:57Z</time>
      </trkpt>
      <trkpt lat="40.33883" lon="-1.75798">
        <ele>1649.7</ele>
        <time>2023-08-19T08:42:01Z</time>
      </trkpt>
      <trkpt lat="40.33866" lon="-1.7578">
        <ele>1649.5</ele>
        <time>2023-08-19T08:42:04Z</time>
      </trkpt>
      <trkpt lat="40.33843" lon="-1.75756">
        <ele>1649.8</ele>
        <time>2023-08-19T08:42:08Z</time>
      </trkpt>
      <trkpt lat="40.33824" lon="-1.75742">
        <ele>1649.7</ele>
        <time>2023-08-19T08:42:11Z</time>
      </trkpt>
      <trkpt lat="40.33797" lon="-1.75726">
        <ele>1649.2</ele>
        <time>2023-08-19T08:42:15Z</time>
      </trkpt>
      <trkpt lat="40.33771" lon="-1.7571">
        <ele>1648.5</ele>
        <time>2023-08-19T08:42:19Z</time>
      </trkpt>
      <trkpt lat="40.33752" lon="-1.75698">
        <ele>1649.5</ele>
        <time>2023-08-19T08:42:22Z</time>
      </trkpt>
      <trkpt lat="40.33726" lon="-1.75682">
        <ele>1649.2</ele>
        <time>2023-08-19T08:42:26Z</time>
      </trkpt>
      <trkpt lat="40.33704" lon="-1.75658">
        <ele>1649.1</ele>
        <time>2023-08-19T08:42:30Z</time>
      </trkpt>
      <trkpt lat="40.33682" lon="-1.7563">
        <ele>1648.9</ele>
        <time>2023-08-19T08:42:34Z</time>
      </trkpt>
      <trkpt lat="40.33663" lon="-1.75618">
        <ele>1649.6</ele>
        <time>2023-08-19T08:42:37Z</time>
      </trkpt>
      <trkpt lat="40.33643" lon="-1.75606">
        <ele>1649.5</ele>
        <time>2023-08-19T08:42:40Z</time>
      </trkpt>
      <trkpt lat="40.33624" lon="-1.75592">
        <ele>1649.4</ele>
        <time>2023-08-19T08:42:43Z</time>
      </trkpt>
      <trkpt lat="40.33598" lon="-1.75576">
        <ele>1648.8</ele>
        <time>2023-08-19T08:42:47Z</time>
      </trkpt>
      <trkpt lat="40.33574" lon="-1.75565">
        <ele>1650.7</ele>
        <time>2023-08-19T08:42:51Z</time>
      </trkpt>
      <trkpt lat="40.33549" lon="-1.75553">
        <ele>1653</ele>
        <time>2023-08-19T08:42:55Z</time>
      </trkpt>
      <trkpt lat="40.3353" lon="-1.75547">
        <ele>1654</ele>
        <time>2023-08-19T08:42:58Z</time>
      </trkpt>
      <trkpt lat="40.33504" lon="-1.7554">
        <ele>1655.4</ele>
        <time>2023-08-19T08:43:02Z</time>
      </trkpt>
      <trkpt lat="40.33482" lon="-1.75527">
        <ele>1657.8</ele>
        <time>2023-08-19T08:43:06Z</time>
      </trkpt>
      <trkpt lat="40.33463" lon="-1.75516">
        <ele>1659.3</ele>
        <time>2023-08-19T08:43:10Z</time>
      </trkpt>
      <trkpt lat="40.33449" lon="-1.75518">
        <ele>1660.6</ele>
        <time>2023-08-19T08:43:13Z</time>
      </trkpt>
      <trkpt lat="40.3344" lon="-1.75535">
        <ele>1661.4</ele>
        <time>2023-08-19T08:43:16Z</time>
      </trkpt>
      <trkpt lat="40.33445" lon="-1.75567">
        <ele>1661.7</ele>
        <time>2023-08-19T08:43:20Z</time>
      </trkpt>
      <trkpt lat="40.33454" lon="-1.75587">
        <ele>1661.3</ele>
        <time>2023-08-19T08:43:23Z</time>
      </trkpt>
      <trkpt lat="40.33464" lon="-1.75613">
        <ele>1661.3</ele>
        <time>2023-08-19T08:43:27Z</time>
      </trkpt>
      <trkpt lat="40.33472" lon="-1.75635">
        <ele>1660.6</ele>
        <time>2023-08-19T08:43:30Z</time>
      </trkpt>
      <trkpt lat="40.33481" lon="-1.75664">
        <ele>1660.6</ele>
        <time>2023-08-19T08:43:34Z</time>
      </trkpt>
      <trkpt lat="40.33484" lon="-1.75695">
        <ele>1661.1</ele>
        <time>2023-08-19T08:43:38Z</time>
      </trkpt>
      <trkpt lat="40.33483" lon="-1.75726">
        <ele>1661.7</ele>
        <time>2023-08-19T08:43:42Z</time>
      </trkpt>
      <trkpt lat="40.33481" lon="-1.75751">
        <ele>1661.3</ele>
        <time>2023-08-19T08:43:45Z</time>
      </trkpt>
      <trkpt lat="40.33481" lon="-1.75788">
        <ele>1663</ele>
        <time>2023-08-19T08:43:49Z</time>
      </trkpt>
      <trkpt lat="40.33488" lon="-1.75823">
        <ele>1663.3</ele>
        <time>2023-08-19T08:43:53Z</time>
      </trkpt>
      <trkpt lat="40.335" lon="-1.7586">
        <ele>1663.8</ele>
        <time>2023-08-19T08:43:57Z</time>
      </trkpt>
      <trkpt lat="40.33514" lon="-1.75893">
        <ele>1663.1</ele>
        <time>2023-08-19T08:44:01Z</time>
      </trkpt>
      <trkpt lat="40.33527" lon="-1.75915">
        <ele>1663.4</ele>
        <time>2023-08-19T08:44:04Z</time>
      </trkpt>
      <trkpt lat="40.33545" lon="-1.75944">
        <ele>1664.2</ele>
        <time>2023-08-19T08:44:08Z</time>
      </trkpt>
      <trkpt lat="40.33563" lon="-1.75974">
        <ele>1663.5</ele>
        <time>2023-08-19T08:44:12Z</time>
      </trkpt>
      <trkpt lat="40.33577" lon="-1.76008">
        <ele>1664.1</ele>
        <time>2023-08-19T08:44:16Z</time>
      </trkpt>
      <trkpt lat="40.3359" lon="-1.76041">
        <ele>1664.6</ele>
        <time>2023-08-19T08:44:20Z</time>
      </trkpt>
      <trkpt lat="40.33605" lon="-1.76073">
        <ele>1665.4</ele>
        <time>2023-08-19T08:44:24Z</time>
      </trkpt>
      <trkpt lat="40.33619" lon="-1.76105">
        <ele>1666.4</ele>
        <time>2023-08-19T08:44:28Z</time>
      </trkpt>
      <trkpt lat="40.33634" lon="-1.76138">
        <ele>1666.8</ele>
        <time>2023-08-19T08:44:32Z</time>
      </trkpt>
      <trkpt lat="40.33648" lon="-1.76172">
        <ele>1667.2</ele>
        <time>2023-08-19T08:44:36Z</time>
      </trkpt>
      <trkpt lat="40.33659" lon="-1.76206">
        <ele>1667.7</ele>
        <time>2023-08-19T08:44:40Z</time>
      </trkpt>
      <trkpt lat="40.33666" lon="-1.76239">
        <ele>1668.7</ele>
        <time>2023-08-19T08:44:44Z</time>
      </trkpt>
      <trkpt lat="40.33666" lon="-1.76274">
        <ele>1670.5</ele>
        <time>2023-08-19T08:44:48Z</time>
      </trkpt>
      <trkpt lat="40.33663" lon="-1.7631">
        <ele>1672.3</ele>
        <time>2023-08-19T08:44:52Z</time>
      </trkpt>
      <trkpt lat="40.33661" lon="-1.76342">
        <ele>1673.4</ele>
        <time>2023-08-19T08:44:56Z</time>
      </trkpt>
      <trkpt lat="40.33674" lon="-1.76371">
        <ele>1673.3</ele>
        <time>2023-08-19T08:45:00Z</time>
      </trkpt>
      <trkpt lat="40.33695" lon="-1.76383">
        <ele>1672.3</ele>
        <time>2023-08-19T08:45:03Z</time>
      </trkpt>
      <trkpt lat="40.33717" lon="-1.76393">
        <ele>1670.5</ele>
        <time>2023-08-19T08:45:06Z</time>
      </trkpt>
      <trkpt lat="40.33743" lon="-1.76406">
        <ele>1669.8</ele>
        <time>2023-08-19T08:45:10Z</time>
      </trkpt>
      <trkpt lat="40.33764" lon="-1.76419">
        <ele>1670.4</ele>
        <time>2023-08-19T08:45:14Z</time>
      </trkpt>
      <trkpt lat="40.33771" lon="-1.76439">
        <ele>1669.9</ele>
        <time>2023-08-19T08:45:17Z</time>
      </trkpt>
      <trkpt lat="40.33751" lon="-1.76459">
        <ele>1670</ele>
        <time>2023-08-19T08:45:21Z</time>
      </trkpt>
      <trkpt lat="40.3373" lon="-1.76466">
        <ele>1671.4</ele>
        <time>2023-08-19T08:45:24Z</time>
      </trkpt>
      <trkpt lat="40.33702" lon="-1.76478">
        <ele>1671.5</ele>
        <time>2023-08-19T08:45:28Z</time>
      </trkpt>
      <trkpt lat="40.33681" lon="-1.76485">
        <ele>1671.9</ele>
        <time>2023-08-19T08:45:31Z</time>
      </trkpt>
      <trkpt lat="40.33656" lon="-1.76499">
        <ele>1672.8</ele>
        <time>2023-08-19T08:45:35Z</time>
      </trkpt>
      <trkpt lat="40.3364" lon="-1.76516">
        <ele>1672.7</ele>
        <time>2023-08-19T08:45:38Z</time>
      </trkpt>
      <trkpt lat="40.33622" lon="-1.76544">
        <ele>1673.2</ele>
        <time>2023-08-19T08:45:42Z</time>
      </trkpt>
      <trkpt lat="40.33609" lon="-1.76563">
        <ele>1674.1</ele>
        <time>2023-08-19T08:45:45Z</time>
      </trkpt>
      <trkpt lat="40.33592" lon="-1.76592">
        <ele>1675.1</ele>
        <time>2023-08-19T08:45:49Z</time>
      </trkpt>
      <trkpt lat="40.33578" lon="-1.76611">
        <ele>1675.7</ele>
        <time>2023-08-19T08:45:52Z</time>
      </trkpt>
      <trkpt lat="40.33556" lon="-1.76635">
        <ele>1676.1</ele>
        <time>2023-08-19T08:45:56Z</time>
      </trkpt>
      <trkpt lat="40.33538" lon="-1.76652">
        <ele>1676.9</ele>
        <time>2023-08-19T08:45:59Z</time>
      </trkpt>
      <trkpt lat="40.33512" lon="-1.76671">
        <ele>1677.2</ele>
        <time>2023-08-19T08:46:03Z</time>
      </trkpt>
      <trkpt lat="40.33491" lon="-1.76681">
        <ele>1677</ele>
        <time>2023-08-19T08:46:06Z</time>
      </trkpt>
      <trkpt lat="40.3347" lon="-1.76686">
        <ele>1677.4</ele>
        <time>2023-08-19T08:46:09Z</time>
      </trkpt>
      <trkpt lat="40.33448" lon="-1.76686">
        <ele>1677.4</ele>
        <time>2023-08-19T08:46:12Z</time>
      </trkpt>
      <trkpt lat="40.3342" lon="-1.7668">
        <ele>1678.4</ele>
        <time>2023-08-19T08:46:16Z</time>
      </trkpt>
      <trkpt lat="40.33398" lon="-1.76674">
        <ele>1679.1</ele>
        <time>2023-08-19T08:46:19Z</time>
      </trkpt>
      <trkpt lat="40.33372" lon="-1.76668">
        <ele>1680.3</ele>
        <time>2023-08-19T08:46:23Z</time>
      </trkpt>
      <trkpt lat="40.3335" lon="-1.76676">
        <ele>1681.2</ele>
        <time>2023-08-19T08:46:27Z</time>
      </trkpt>
      <trkpt lat="40.33339" lon="-1.76695">
        <ele>1681.8</ele>
        <time>2023-08-19T08:46:30Z</time>
      </trkpt>
      <trkpt lat="40.33338" lon="-1.7672">
        <ele>1683</ele>
        <time>2023-08-19T08:46:33Z</time>
      </trkpt>
      <trkpt lat="40.33347" lon="-1.76753">
        <ele>1681.9</ele>
        <time>2023-08-19T08:46:37Z</time>
      </trkpt>
      <trkpt lat="40.33355" lon="-1.76786">
        <ele>1681.1</ele>
        <time>2023-08-19T08:46:41Z</time>
      </trkpt>
      <trkpt lat="40.33361" lon="-1.76812">
        <ele>1680.7</ele>
        <time>2023-08-19T08:46:44Z</time>
      </trkpt>
      <trkpt lat="40.33362" lon="-1.76851">
        <ele>1679.3</ele>
        <time>2023-08-19T08:46:48Z</time>
      </trkpt>
      <trkpt lat="40.33361" lon="-1.7689">
        <ele>1678.9</ele>
        <time>2023-08-19T08:46:52Z</time>
      </trkpt>
      <trkpt lat="40.33361" lon="-1.76928">
        <ele>1677.8</ele>
        <time>2023-08-19T08:46:56Z</time>
      </trkpt>
      <trkpt lat="40.33366" lon="-1.76956">
        <ele>1677.3</ele>
        <time>2023-08-19T08:46:59Z</time>
      </trkpt>
      <trkpt lat="40.33371" lon="-1.76983">
        <ele>1676.3</ele>
        <time>2023-08-19T08:47:02Z</time>
      </trkpt>
      <trkpt lat="40.33376" lon="-1.77008">
        <ele>1675.2</ele>
        <time>2023-08-19T08:47:05Z</time>
      </trkpt>
      <trkpt lat="40.33375" lon="-1.77043">
        <ele>1674.6</ele>
        <time>2023-08-19T08:47:09Z</time>
      </trkpt>
      <trkpt lat="40.3336" lon="-1.77064">
        <ele>1674.5</ele>
        <time>2023-08-19T08:47:12Z</time>
      </trkpt>
      <trkpt lat="40.33338" lon="-1.77075">
        <ele>1674.4</ele>
        <time>2023-08-19T08:47:15Z</time>
      </trkpt>
      <trkpt lat="40.33309" lon="-1.77078">
        <ele>1673.8</ele>
        <time>2023-08-19T08:47:19Z</time>
      </trkpt>
      <trkpt lat="40.33283" lon="-1.77083">
        <ele>1674.4</ele>
        <time>2023-08-19T08:47:23Z</time>
      </trkpt>
      <trkpt lat="40.33267" lon="-1.77101">
        <ele>1673.9</ele>
        <time>2023-08-19T08:47:26Z</time>
      </trkpt>
      <trkpt lat="40.33257" lon="-1.77125">
        <ele>1674.2</ele>
        <time>2023-08-19T08:47:29Z</time>
      </trkpt>
      <trkpt lat="40.33248" lon="-1.7715">
        <ele>1674.2</ele>
        <time>2023-08-19T08:47:32Z</time>
      </trkpt>
      <trkpt lat="40.33238" lon="-1.77173">
        <ele>1673.5</ele>
        <time>2023-08-19T08:47:35Z</time>
      </trkpt>
      <trkpt lat="40.33224" lon="-1.77193">
        <ele>1674.2</ele>
        <time>2023-08-19T08:47:38Z</time>
      </trkpt>
      <trkpt lat="40.33208" lon="-1.77217">
        <ele>1674.9</ele>
        <time>2023-08-19T08:47:42Z</time>
      </trkpt>
      <trkpt lat="40.33204" lon="-1.7724">
        <ele>1675.2</ele>
        <time>2023-08-19T08:47:45Z</time>
      </trkpt>
      <trkpt lat="40.33213" lon="-1.7727">
        <ele>1674.2</ele>
        <time>2023-08-19T08:47:49Z</time>
      </trkpt>
      <trkpt lat="40.33217" lon="-1.77299">
        <ele>1671.4</ele>
        <time>2023-08-19T08:47:53Z</time>
      </trkpt>
      <trkpt lat="40.33202" lon="-1.77325">
        <ele>1669.6</ele>
        <time>2023-08-19T08:47:57Z</time>
      </trkpt>
      <trkpt lat="40.33188" lon="-1.77339">
        <ele>1668.9</ele>
        <time>2023-08-19T08:48:00Z</time>
      </trkpt>
      <trkpt lat="40.33168" lon="-1.77354">
        <ele>1667.1</ele>
        <time>2023-08-19T08:48:04Z</time>
      </trkpt>
      <trkpt lat="40.3315" lon="-1.77359">
        <ele>1666.1</ele>
        <time>2023-08-19T08:48:07Z</time>
      </trkpt>
      <trkpt lat="40.33132" lon="-1.77363">
        <ele>1663.8</ele>
        <time>2023-08-19T08:48:10Z</time>
      </trkpt>
      <trkpt lat="40.33108" lon="-1.77373">
        <ele>1662.1</ele>
        <time>2023-08-19T08:48:14Z</time>
      </trkpt>
      <trkpt lat="40.33086" lon="-1.77378">
        <ele>1660.9</ele>
        <time>2023-08-19T08:48:18Z</time>
      </trkpt>
      <trkpt lat="40.33072" lon="-1.77375">
        <ele>1660.1</ele>
        <time>2023-08-19T08:48:21Z</time>
      </trkpt>
      <trkpt lat="40.33058" lon="-1.77384">
        <ele>1659.6</ele>
        <time>2023-08-19T08:48:25Z</time>
      </trkpt>
      <trkpt lat="40.33053" lon="-1.774">
        <ele>1658.8</ele>
        <time>2023-08-19T08:48:29Z</time>
      </trkpt>
      <trkpt lat="40.33053" lon="-1.77406">
        <ele>1657.8</ele>
        <time>2023-08-19T08:48:33Z</time>
      </trkpt>
      <trkpt lat="40.33054" lon="-1.77405">
        <ele>1657.6</ele>
        <time>2023-08-19T08:48:54Z</time>
      </trkpt>
      <trkpt lat="40.33057" lon="-1.77412">
        <ele>1657.9</ele>
        <time>2023-08-19T08:48:58Z</time>
      </trkpt>
      <trkpt lat="40.33072" lon="-1.77426">
        <ele>1655.6</ele>
        <time>2023-08-19T08:49:02Z</time>
      </trkpt>
      <trkpt lat="40.33086" lon="-1.77437">
        <ele>1654.6</ele>
        <time>2023-08-19T08:49:05Z</time>
      </trkpt>
      <trkpt lat="40.33103" lon="-1.7745">
        <ele>1652.6</ele>
        <time>2023-08-19T08:49:09Z</time>
      </trkpt>
      <trkpt lat="40.33117" lon="-1.77458">
        <ele>1651.6</ele>
        <time>2023-08-19T08:49:12Z</time>
      </trkpt>
      <trkpt lat="40.33131" lon="-1.77461">
        <ele>1652.6</ele>
        <time>2023-08-19T08:49:15Z</time>
      </trkpt>
      <trkpt lat="40.33151" lon="-1.77462">
        <ele>1649.7</ele>
        <time>2023-08-19T08:49:19Z</time>
      </trkpt>
      <trkpt lat="40.33174" lon="-1.77462">
        <ele>1647.1</ele>
        <time>2023-08-19T08:49:23Z</time>
      </trkpt>
      <trkpt lat="40.33196" lon="-1.77459">
        <ele>1646.3</ele>
        <time>2023-08-19T08:49:27Z</time>
      </trkpt>
      <trkpt lat="40.33213" lon="-1.77453">
        <ele>1644.4</ele>
        <time>2023-08-19T08:49:30Z</time>
      </trkpt>
      <trkpt lat="40.33235" lon="-1.77449">
        <ele>1643.3</ele>
        <time>2023-08-19T08:49:34Z</time>
      </trkpt>
      <trkpt lat="40.33257" lon="-1.77454">
        <ele>1641.5</ele>
        <time>2023-08-19T08:49:38Z</time>
      </trkpt>
      <trkpt lat="40.33278" lon="-1.77463">
        <ele>1639.5</ele>
        <time>2023-08-19T08:49:42Z</time>
      </trkpt>
      <trkpt lat="40.33294" lon="-1.77471">
        <ele>1638.7</ele>
        <time>2023-08-19T08:49:45Z</time>
      </trkpt>
      <trkpt lat="40.33315" lon="-1.77481">
        <ele>1637.1</ele>
        <time>2023-08-19T08:49:49Z</time>
      </trkpt>
      <trkpt lat="40.33331" lon="-1.77488">
        <ele>1635.5</ele>
        <time>2023-08-19T08:49:52Z</time>
      </trkpt>
      <trkpt lat="40.3335" lon="-1.77497">
        <ele>1633.9</ele>
        <time>2023-08-19T08:49:56Z</time>
      </trkpt>
      <trkpt lat="40.33366" lon="-1.77513">
        <ele>1632.3</ele>
        <time>2023-08-19T08:50:00Z</time>
      </trkpt>
      <trkpt lat="40.33366" lon="-1.77532">
        <ele>1630.4</ele>
        <time>2023-08-19T08:50:03Z</time>
      </trkpt>
      <trkpt lat="40.33351" lon="-1.77542">
        <ele>1629.7</ele>
        <time>2023-08-19T08:50:06Z</time>
      </trkpt>
      <trkpt lat="40.33328" lon="-1.77542">
        <ele>1627.1</ele>
        <time>2023-08-19T08:50:10Z</time>
      </trkpt>
      <trkpt lat="40.33312" lon="-1.77545">
        <ele>1626.8</ele>
        <time>2023-08-19T08:50:13Z</time>
      </trkpt>
      <trkpt lat="40.33291" lon="-1.77558">
        <ele>1624.1</ele>
        <time>2023-08-19T08:50:17Z</time>
      </trkpt>
      <trkpt lat="40.33275" lon="-1.7757">
        <ele>1621.3</ele>
        <time>2023-08-19T08:50:20Z</time>
      </trkpt>
      <trkpt lat="40.33254" lon="-1.77586">
        <ele>1620.1</ele>
        <time>2023-08-19T08:50:24Z</time>
      </trkpt>
      <trkpt lat="40.33235" lon="-1.77604">
        <ele>1617.2</ele>
        <time>2023-08-19T08:50:28Z</time>
      </trkpt>
      <trkpt lat="40.3322" lon="-1.77627">
        <ele>1615.3</ele>
        <time>2023-08-19T08:50:32Z</time>
      </trkpt>
      <trkpt lat="40.33208" lon="-1.77654">
        <ele>1613.1</ele>
        <time>2023-08-19T08:50:36Z</time>
      </trkpt>
      <trkpt lat="40.33196" lon="-1.7768">
        <ele>1609.5</ele>
        <time>2023-08-19T08:50:40Z</time>
      </trkpt>
      <trkpt lat="40.3318" lon="-1.77703">
        <ele>1607.7</ele>
        <time>2023-08-19T08:50:44Z</time>
      </trkpt>
      <trkpt lat="40.33167" lon="-1.7772">
        <ele>1607.1</ele>
        <time>2023-08-19T08:50:47Z</time>
      </trkpt>
      <trkpt lat="40.33158" lon="-1.77741">
        <ele>1605.1</ele>
        <time>2023-08-19T08:50:50Z</time>
      </trkpt>
      <trkpt lat="40.33155" lon="-1.77772">
        <ele>1603.1</ele>
        <time>2023-08-19T08:50:54Z</time>
      </trkpt>
      <trkpt lat="40.33155" lon="-1.77796">
        <ele>1601.5</ele>
        <time>2023-08-19T08:50:57Z</time>
      </trkpt>
      <trkpt lat="40.33153" lon="-1.77826">
        <ele>1599.4</ele>
        <time>2023-08-19T08:51:01Z</time>
      </trkpt>
      <trkpt lat="40.33151" lon="-1.77847">
        <ele>1598.6</ele>
        <time>2023-08-19T08:51:04Z</time>
      </trkpt>
      <trkpt lat="40.33149" lon="-1.77875">
        <ele>1596.2</ele>
        <time>2023-08-19T08:51:08Z</time>
      </trkpt>
      <trkpt lat="40.33149" lon="-1.77904">
        <ele>1594.4</ele>
        <time>2023-08-19T08:51:12Z</time>
      </trkpt>
      <trkpt lat="40.33149" lon="-1.77926">
        <ele>1593.3</ele>
        <time>2023-08-19T08:51:15Z</time>
      </trkpt>
      <trkpt lat="40.33146" lon="-1.77955">
        <ele>1590.9</ele>
        <time>2023-08-19T08:51:19Z</time>
      </trkpt>
      <trkpt lat="40.33134" lon="-1.7798">
        <ele>1589.3</ele>
        <time>2023-08-19T08:51:23Z</time>
      </trkpt>
      <trkpt lat="40.33122" lon="-1.77994">
        <ele>1588.7</ele>
        <time>2023-08-19T08:51:26Z</time>
      </trkpt>
      <trkpt lat="40.33109" lon="-1.78003">
        <ele>1587.5</ele>
        <time>2023-08-19T08:51:29Z</time>
      </trkpt>
      <trkpt lat="40.33095" lon="-1.78013">
        <ele>1586.6</ele>
        <time>2023-08-19T08:51:33Z</time>
      </trkpt>
      <trkpt lat="40.33101" lon="-1.78035">
        <ele>1583.1</ele>
        <time>2023-08-19T08:51:37Z</time>
      </trkpt>
      <trkpt lat="40.33121" lon="-1.78046">
        <ele>1581.3</ele>
        <time>2023-08-19T08:51:41Z</time>
      </trkpt>
      <trkpt lat="40.33135" lon="-1.78053">
        <ele>1580.5</ele>
        <time>2023-08-19T08:51:44Z</time>
      </trkpt>
      <trkpt lat="40.33155" lon="-1.78062">
        <ele>1579.1</ele>
        <time>2023-08-19T08:51:48Z</time>
      </trkpt>
      <trkpt lat="40.33171" lon="-1.7807">
        <ele>1577.3</ele>
        <time>2023-08-19T08:51:51Z</time>
      </trkpt>
      <trkpt lat="40.33193" lon="-1.78077">
        <ele>1575.3</ele>
        <time>2023-08-19T08:51:55Z</time>
      </trkpt>
      <trkpt lat="40.3321" lon="-1.78073">
        <ele>1575.2</ele>
        <time>2023-08-19T08:51:58Z</time>
      </trkpt>
      <trkpt lat="40.33223" lon="-1.78058">
        <ele>1573.5</ele>
        <time>2023-08-19T08:52:01Z</time>
      </trkpt>
      <trkpt lat="40.33226" lon="-1.78034">
        <ele>1571.9</ele>
        <time>2023-08-19T08:52:04Z</time>
      </trkpt>
      <trkpt lat="40.33226" lon="-1.78009">
        <ele>1570</ele>
        <time>2023-08-19T08:52:07Z</time>
      </trkpt>
      <trkpt lat="40.33236" lon="-1.7798">
        <ele>1567.4</ele>
        <time>2023-08-19T08:52:11Z</time>
      </trkpt>
      <trkpt lat="40.33253" lon="-1.77971">
        <ele>1565.5</ele>
        <time>2023-08-19T08:52:14Z</time>
      </trkpt>
      <trkpt lat="40.33275" lon="-1.77975">
        <ele>1563.6</ele>
        <time>2023-08-19T08:52:18Z</time>
      </trkpt>
      <trkpt lat="40.33298" lon="-1.7798">
        <ele>1562.1</ele>
        <time>2023-08-19T08:52:22Z</time>
      </trkpt>
      <trkpt lat="40.33321" lon="-1.77978">
        <ele>1560.7</ele>
        <time>2023-08-19T08:52:26Z</time>
      </trkpt>
      <trkpt lat="40.3334" lon="-1.77971">
        <ele>1559.1</ele>
        <time>2023-08-19T08:52:29Z</time>
      </trkpt>
      <trkpt lat="40.33356" lon="-1.77962">
        <ele>1556.9</ele>
        <time>2023-08-19T08:52:32Z</time>
      </trkpt>
      <trkpt lat="40.33377" lon="-1.77953">
        <ele>1554.6</ele>
        <time>2023-08-19T08:52:36Z</time>
      </trkpt>
      <trkpt lat="40.33398" lon="-1.7794">
        <ele>1552.3</ele>
        <time>2023-08-19T08:52:40Z</time>
      </trkpt>
      <trkpt lat="40.33411" lon="-1.77927">
        <ele>1550.4</ele>
        <time>2023-08-19T08:52:43Z</time>
      </trkpt>
      <trkpt lat="40.3343" lon="-1.77914">
        <ele>1548.5</ele>
        <time>2023-08-19T08:52:47Z</time>
      </trkpt>
      <trkpt lat="40.33452" lon="-1.77906">
        <ele>1546.8</ele>
        <time>2023-08-19T08:52:51Z</time>
      </trkpt>
      <trkpt lat="40.33469" lon="-1.77918">
        <ele>1545</ele>
        <time>2023-08-19T08:52:55Z</time>
      </trkpt>
      <trkpt lat="40.33483" lon="-1.77935">
        <ele>1544.9</ele>
        <time>2023-08-19T08:52:59Z</time>
      </trkpt>
      <trkpt lat="40.33496" lon="-1.77947">
        <ele>1542.9</ele>
        <time>2023-08-19T08:53:03Z</time>
      </trkpt>
      <trkpt lat="40.33502" lon="-1.77963">
        <ele>1541.7</ele>
        <time>2023-08-19T08:53:06Z</time>
      </trkpt>
      <trkpt lat="40.33494" lon="-1.77984">
        <ele>1539.4</ele>
        <time>2023-08-19T08:53:10Z</time>
      </trkpt>
      <trkpt lat="40.33479" lon="-1.77988">
        <ele>1538.2</ele>
        <time>2023-08-19T08:53:13Z</time>
      </trkpt>
      <trkpt lat="40.33461" lon="-1.77999">
        <ele>1537.3</ele>
        <time>2023-08-19T08:53:17Z</time>
      </trkpt>
      <trkpt lat="40.33455" lon="-1.78027">
        <ele>1536</ele>
        <time>2023-08-19T08:53:21Z</time>
      </trkpt>
      <trkpt lat="40.33453" lon="-1.78051">
        <ele>1534.2</ele>
        <time>2023-08-19T08:53:24Z</time>
      </trkpt>
      <trkpt lat="40.33441" lon="-1.78079">
        <ele>1532.1</ele>
        <time>2023-08-19T08:53:28Z</time>
      </trkpt>
      <trkpt lat="40.33426" lon="-1.78093">
        <ele>1530.6</ele>
        <time>2023-08-19T08:53:31Z</time>
      </trkpt>
      <trkpt lat="40.33409" lon="-1.78116">
        <ele>1529.1</ele>
        <time>2023-08-19T08:53:35Z</time>
      </trkpt>
      <trkpt lat="40.33403" lon="-1.78145">
        <ele>1525.7</ele>
        <time>2023-08-19T08:53:39Z</time>
      </trkpt>
      <trkpt lat="40.33392" lon="-1.78171">
        <ele>1523.2</ele>
        <time>2023-08-19T08:53:43Z</time>
      </trkpt>
      <trkpt lat="40.33375" lon="-1.78194">
        <ele>1521</ele>
        <time>2023-08-19T08:53:47Z</time>
      </trkpt>
      <trkpt lat="40.33354" lon="-1.78211">
        <ele>1519.2</ele>
        <time>2023-08-19T08:53:51Z</time>
      </trkpt>
      <trkpt lat="40.33341" lon="-1.78238">
        <ele>1518</ele>
        <time>2023-08-19T08:53:55Z</time>
      </trkpt>
      <trkpt lat="40.33337" lon="-1.78262">
        <ele>1515.5</ele>
        <time>2023-08-19T08:53:58Z</time>
      </trkpt>
      <trkpt lat="40.33325" lon="-1.78292">
        <ele>1513.2</ele>
        <time>2023-08-19T08:54:02Z</time>
      </trkpt>
      <trkpt lat="40.33304" lon="-1.78314">
        <ele>1510.8</ele>
        <time>2023-08-19T08:54:06Z</time>
      </trkpt>
      <trkpt lat="40.33287" lon="-1.78326">
        <ele>1509.3</ele>
        <time>2023-08-19T08:54:09Z</time>
      </trkpt>
      <trkpt lat="40.3327" lon="-1.7834">
        <ele>1507.1</ele>
        <time>2023-08-19T08:54:12Z</time>
      </trkpt>
      <trkpt lat="40.33249" lon="-1.78359">
        <ele>1504.5</ele>
        <time>2023-08-19T08:54:16Z</time>
      </trkpt>
      <trkpt lat="40.33227" lon="-1.78377">
        <ele>1502.4</ele>
        <time>2023-08-19T08:54:20Z</time>
      </trkpt>
      <trkpt lat="40.33209" lon="-1.78384">
        <ele>1501.5</ele>
        <time>2023-08-19T08:54:23Z</time>
      </trkpt>
      <trkpt lat="40.33183" lon="-1.78376">
        <ele>1498.7</ele>
        <time>2023-08-19T08:54:27Z</time>
      </trkpt>
      <trkpt lat="40.33159" lon="-1.78374">
        <ele>1497</ele>
        <time>2023-08-19T08:54:31Z</time>
      </trkpt>
      <trkpt lat="40.3314" lon="-1.78381">
        <ele>1495.8</ele>
        <time>2023-08-19T08:54:34Z</time>
      </trkpt>
      <trkpt lat="40.33115" lon="-1.78392">
        <ele>1492.6</ele>
        <time>2023-08-19T08:54:38Z</time>
      </trkpt>
      <trkpt lat="40.33094" lon="-1.78411">
        <ele>1490.7</ele>
        <time>2023-08-19T08:54:42Z</time>
      </trkpt>
      <trkpt lat="40.33079" lon="-1.78436">
        <ele>1488.4</ele>
        <time>2023-08-19T08:54:46Z</time>
      </trkpt>
      <trkpt lat="40.33058" lon="-1.78454">
        <ele>1485.1</ele>
        <time>2023-08-19T08:54:50Z</time>
      </trkpt>
      <trkpt lat="40.33036" lon="-1.78475">
        <ele>1482.2</ele>
        <time>2023-08-19T08:54:54Z</time>
      </trkpt>
      <trkpt lat="40.33019" lon="-1.78501">
        <ele>1479.8</ele>
        <time>2023-08-19T08:54:58Z</time>
      </trkpt>
      <trkpt lat="40.33004" lon="-1.78516">
        <ele>1478.2</ele>
        <time>2023-08-19T08:55:01Z</time>
      </trkpt>
      <trkpt lat="40.32988" lon="-1.78529">
        <ele>1476.8</ele>
        <time>2023-08-19T08:55:04Z</time>
      </trkpt>
      <trkpt lat="40.32972" lon="-1.78547">
        <ele>1474.4</ele>
        <time>2023-08-19T08:55:08Z</time>
      </trkpt>
      <trkpt lat="40.32968" lon="-1.78572">
        <ele>1472.4</ele>
        <time>2023-08-19T08:55:11Z</time>
      </trkpt>
      <trkpt lat="40.32971" lon="-1.78598">
        <ele>1469.2</ele>
        <time>2023-08-19T08:55:14Z</time>
      </trkpt>
      <trkpt lat="40.32974" lon="-1.78632">
        <ele>1466.9</ele>
        <time>2023-08-19T08:55:18Z</time>
      </trkpt>
      <trkpt lat="40.3298" lon="-1.78665">
        <ele>1463.6</ele>
        <time>2023-08-19T08:55:22Z</time>
      </trkpt>
      <trkpt lat="40.32988" lon="-1.78688">
        <ele>1462.5</ele>
        <time>2023-08-19T08:55:25Z</time>
      </trkpt>
      <trkpt lat="40.33003" lon="-1.78714">
        <ele>1459.7</ele>
        <time>2023-08-19T08:55:29Z</time>
      </trkpt>
      <trkpt lat="40.33021" lon="-1.78739">
        <ele>1458</ele>
        <time>2023-08-19T08:55:33Z</time>
      </trkpt>
      <trkpt lat="40.33035" lon="-1.78766">
        <ele>1455.8</ele>
        <time>2023-08-19T08:55:37Z</time>
      </trkpt>
      <trkpt lat="40.3304" lon="-1.7879">
        <ele>1454.6</ele>
        <time>2023-08-19T08:55:40Z</time>
      </trkpt>
      <trkpt lat="40.33043" lon="-1.78823">
        <ele>1452.3</ele>
        <time>2023-08-19T08:55:44Z</time>
      </trkpt>
      <trkpt lat="40.33045" lon="-1.78857">
        <ele>1450.8</ele>
        <time>2023-08-19T08:55:48Z</time>
      </trkpt>
      <trkpt lat="40.3304" lon="-1.78894">
        <ele>1449.1</ele>
        <time>2023-08-19T08:55:52Z</time>
      </trkpt>
      <trkpt lat="40.33033" lon="-1.78929">
        <ele>1448</ele>
        <time>2023-08-19T08:55:56Z</time>
      </trkpt>
      <trkpt lat="40.33027" lon="-1.78956">
        <ele>1446.3</ele>
        <time>2023-08-19T08:55:59Z</time>
      </trkpt>
      <trkpt lat="40.33022" lon="-1.78983">
        <ele>1444.7</ele>
        <time>2023-08-19T08:56:02Z</time>
      </trkpt>
      <trkpt lat="40.33011" lon="-1.79013">
        <ele>1441.8</ele>
        <time>2023-08-19T08:56:06Z</time>
      </trkpt>
      <trkpt lat="40.32992" lon="-1.79027">
        <ele>1440.6</ele>
        <time>2023-08-19T08:56:09Z</time>
      </trkpt>
      <trkpt lat="40.3297" lon="-1.79044">
        <ele>1438.6</ele>
        <time>2023-08-19T08:56:13Z</time>
      </trkpt>
      <trkpt lat="40.32955" lon="-1.7906">
        <ele>1437.2</ele>
        <time>2023-08-19T08:56:16Z</time>
      </trkpt>
      <trkpt lat="40.32936" lon="-1.79083">
        <ele>1435.6</ele>
        <time>2023-08-19T08:56:20Z</time>
      </trkpt>
      <trkpt lat="40.32918" lon="-1.79106">
        <ele>1433.8</ele>
        <time>2023-08-19T08:56:24Z</time>
      </trkpt>
      <trkpt lat="40.32903" lon="-1.79123">
        <ele>1431.6</ele>
        <time>2023-08-19T08:56:27Z</time>
      </trkpt>
      <trkpt lat="40.32889" lon="-1.79149">
        <ele>1429.1</ele>
        <time>2023-08-19T08:56:31Z</time>
      </trkpt>
      <trkpt lat="40.32883" lon="-1.79171">
        <ele>1427.4</ele>
        <time>2023-08-19T08:56:34Z</time>
      </trkpt>
      <trkpt lat="40.3289" lon="-1.79201">
        <ele>1426</ele>
        <time>2023-08-19T08:56:38Z</time>
      </trkpt>
      <trkpt lat="40.32909" lon="-1.79218">
        <ele>1423.8</ele>
        <time>2023-08-19T08:56:42Z</time>
      </trkpt>
      <trkpt lat="40.32931" lon="-1.79228">
        <ele>1423</ele>
        <time>2023-08-19T08:56:46Z</time>
      </trkpt>
      <trkpt lat="40.32945" lon="-1.7925">
        <ele>1422.7</ele>
        <time>2023-08-19T08:56:50Z</time>
      </trkpt>
      <trkpt lat="40.32942" lon="-1.79274">
        <ele>1422.6</ele>
        <time>2023-08-19T08:56:53Z</time>
      </trkpt>
      <trkpt lat="40.32923" lon="-1.793">
        <ele>1419.9</ele>
        <time>2023-08-19T08:56:57Z</time>
      </trkpt>
      <trkpt lat="40.32901" lon="-1.79322">
        <ele>1418</ele>
        <time>2023-08-19T08:57:01Z</time>
      </trkpt>
      <trkpt lat="40.32883" lon="-1.79337">
        <ele>1415.7</ele>
        <time>2023-08-19T08:57:04Z</time>
      </trkpt>
      <trkpt lat="40.32863" lon="-1.79358">
        <ele>1414.1</ele>
        <time>2023-08-19T08:57:08Z</time>
      </trkpt>
      <trkpt lat="40.32849" lon="-1.79388">
        <ele>1412.1</ele>
        <time>2023-08-19T08:57:12Z</time>
      </trkpt>
      <trkpt lat="40.32838" lon="-1.79421">
        <ele>1410.3</ele>
        <time>2023-08-19T08:57:16Z</time>
      </trkpt>
      <trkpt lat="40.32833" lon="-1.79455">
        <ele>1409.6</ele>
        <time>2023-08-19T08:57:20Z</time>
      </trkpt>
      <trkpt lat="40.32825" lon="-1.79489">
        <ele>1407</ele>
        <time>2023-08-19T08:57:24Z</time>
      </trkpt>
      <trkpt lat="40.32818" lon="-1.79523">
        <ele>1405.2</ele>
        <time>2023-08-19T08:57:28Z</time>
      </trkpt>
      <trkpt lat="40.32814" lon="-1.79558">
        <ele>1402.5</ele>
        <time>2023-08-19T08:57:32Z</time>
      </trkpt>
      <trkpt lat="40.3281" lon="-1.79584">
        <ele>1401.2</ele>
        <time>2023-08-19T08:57:35Z</time>
      </trkpt>
      <trkpt lat="40.32807" lon="-1.79621">
        <ele>1398.9</ele>
        <time>2023-08-19T08:57:39Z</time>
      </trkpt>
      <trkpt lat="40.32807" lon="-1.7965">
        <ele>1396.6</ele>
        <time>2023-08-19T08:57:42Z</time>
      </trkpt>
      <trkpt lat="40.3281" lon="-1.79688">
        <ele>1395.4</ele>
        <time>2023-08-19T08:57:46Z</time>
      </trkpt>
      <trkpt lat="40.32812" lon="-1.79716">
        <ele>1394.4</ele>
        <time>2023-08-19T08:57:49Z</time>
      </trkpt>
      <trkpt lat="40.32805" lon="-1.79743">
        <ele>1392.4</ele>
        <time>2023-08-19T08:57:52Z</time>
      </trkpt>
      <trkpt lat="40.32785" lon="-1.79774">
        <ele>1390.2</ele>
        <time>2023-08-19T08:57:56Z</time>
      </trkpt>
      <trkpt lat="40.32763" lon="-1.79802">
        <ele>1388.2</ele>
        <time>2023-08-19T08:58:00Z</time>
      </trkpt>
      <trkpt lat="40.32745" lon="-1.79831">
        <ele>1386.2</ele>
        <time>2023-08-19T08:58:04Z</time>
      </trkpt>
      <trkpt lat="40.32741" lon="-1.79869">
        <ele>1383.5</ele>
        <time>2023-08-19T08:58:08Z</time>
      </trkpt>
      <trkpt lat="40.32739" lon="-1.7991">
        <ele>1381.2</ele>
        <time>2023-08-19T08:58:12Z</time>
      </trkpt>
      <trkpt lat="40.32735" lon="-1.7994">
        <ele>1379.9</ele>
        <time>2023-08-19T08:58:15Z</time>
      </trkpt>
      <trkpt lat="40.32724" lon="-1.79978">
        <ele>1378.5</ele>
        <time>2023-08-19T08:58:19Z</time>
      </trkpt>
      <trkpt lat="40.32711" lon="-1.80005">
        <ele>1376.7</ele>
        <time>2023-08-19T08:58:22Z</time>
      </trkpt>
      <trkpt lat="40.32701" lon="-1.8003">
        <ele>1375</ele>
        <time>2023-08-19T08:58:25Z</time>
      </trkpt>
      <trkpt lat="40.32687" lon="-1.80066">
        <ele>1372</ele>
        <time>2023-08-19T08:58:29Z</time>
      </trkpt>
      <trkpt lat="40.32675" lon="-1.80094">
        <ele>1370.3</ele>
        <time>2023-08-19T08:58:32Z</time>
      </trkpt>
      <trkpt lat="40.32658" lon="-1.80128">
        <ele>1367.5</ele>
        <time>2023-08-19T08:58:36Z</time>
      </trkpt>
      <trkpt lat="40.32635" lon="-1.80157">
        <ele>1366</ele>
        <time>2023-08-19T08:58:40Z</time>
      </trkpt>
      <trkpt lat="40.32616" lon="-1.80176">
        <ele>1364.2</ele>
        <time>2023-08-19T08:58:43Z</time>
      </trkpt>
      <trkpt lat="40.32599" lon="-1.80195">
        <ele>1364.5</ele>
        <time>2023-08-19T08:58:46Z</time>
      </trkpt>
      <trkpt lat="40.32583" lon="-1.80216">
        <ele>1363.8</ele>
        <time>2023-08-19T08:58:49Z</time>
      </trkpt>
      <trkpt lat="40.32563" lon="-1.80247">
        <ele>1362.9</ele>
        <time>2023-08-19T08:58:53Z</time>
      </trkpt>
      <trkpt lat="40.32543" lon="-1.80278">
        <ele>1359.7</ele>
        <time>2023-08-19T08:58:57Z</time>
      </trkpt>
      <trkpt lat="40.32529" lon="-1.80302">
        <ele>1357</ele>
        <time>2023-08-19T08:59:00Z</time>
      </trkpt>
      <trkpt lat="40.32514" lon="-1.80325">
        <ele>1355.5</ele>
        <time>2023-08-19T08:59:03Z</time>
      </trkpt>
      <trkpt lat="40.325" lon="-1.80348">
        <ele>1353.9</ele>
        <time>2023-08-19T08:59:06Z</time>
      </trkpt>
      <trkpt lat="40.32479" lon="-1.80379">
        <ele>1352.7</ele>
        <time>2023-08-19T08:59:10Z</time>
      </trkpt>
      <trkpt lat="40.32464" lon="-1.80401">
        <ele>1351.6</ele>
        <time>2023-08-19T08:59:13Z</time>
      </trkpt>
      <trkpt lat="40.32449" lon="-1.80425">
        <ele>1350.6</ele>
        <time>2023-08-19T08:59:16Z</time>
      </trkpt>
      <trkpt lat="40.32434" lon="-1.80449">
        <ele>1349.3</ele>
        <time>2023-08-19T08:59:19Z</time>
      </trkpt>
      <trkpt lat="40.32414" lon="-1.8048">
        <ele>1347.9</ele>
        <time>2023-08-19T08:59:23Z</time>
      </trkpt>
      <trkpt lat="40.32398" lon="-1.80501">
        <ele>1346</ele>
        <time>2023-08-19T08:59:26Z</time>
      </trkpt>
      <trkpt lat="40.32373" lon="-1.80526">
        <ele>1344.1</ele>
        <time>2023-08-19T08:59:30Z</time>
      </trkpt>
      <trkpt lat="40.32352" lon="-1.80555">
        <ele>1341.3</ele>
        <time>2023-08-19T08:59:34Z</time>
      </trkpt>
      <trkpt lat="40.32338" lon="-1.80592">
        <ele>1339.7</ele>
        <time>2023-08-19T08:59:38Z</time>
      </trkpt>
      <trkpt lat="40.32328" lon="-1.80619">
        <ele>1338.1</ele>
        <time>2023-08-19T08:59:41Z</time>
      </trkpt>
      <trkpt lat="40.32315" lon="-1.80655">
        <ele>1336.3</ele>
        <time>2023-08-19T08:59:45Z</time>
      </trkpt>
      <trkpt lat="40.32301" lon="-1.80691">
        <ele>1334.8</ele>
        <time>2023-08-19T08:59:49Z</time>
      </trkpt>
      <trkpt lat="40.32289" lon="-1.80717">
        <ele>1333</ele>
        <time>2023-08-19T08:59:52Z</time>
      </trkpt>
      <trkpt lat="40.32274" lon="-1.80752">
        <ele>1330.8</ele>
        <time>2023-08-19T08:59:56Z</time>
      </trkpt>
      <trkpt lat="40.32258" lon="-1.80786">
        <ele>1329.5</ele>
        <time>2023-08-19T09:00:00Z</time>
      </trkpt>
      <trkpt lat="40.3224" lon="-1.80806">
        <ele>1327.7</ele>
        <time>2023-08-19T09:00:03Z</time>
      </trkpt>
      <trkpt lat="40.32219" lon="-1.80821">
        <ele>1326.4</ele>
        <time>2023-08-19T09:00:06Z</time>
      </trkpt>
      <trkpt lat="40.322" lon="-1.80837">
        <ele>1325.5</ele>
        <time>2023-08-19T09:00:09Z</time>
      </trkpt>
      <trkpt lat="40.32181" lon="-1.8087">
        <ele>1324.2</ele>
        <time>2023-08-19T09:00:13Z</time>
      </trkpt>
      <trkpt lat="40.32172" lon="-1.80908">
        <ele>1323.3</ele>
        <time>2023-08-19T09:00:17Z</time>
      </trkpt>
      <trkpt lat="40.3217" lon="-1.80949">
        <ele>1320.9</ele>
        <time>2023-08-19T09:00:21Z</time>
      </trkpt>
      <trkpt lat="40.32167" lon="-1.8098">
        <ele>1319.5</ele>
        <time>2023-08-19T09:00:24Z</time>
      </trkpt>
      <trkpt lat="40.3216" lon="-1.81019">
        <ele>1317.2</ele>
        <time>2023-08-19T09:00:28Z</time>
      </trkpt>
      <trkpt lat="40.32147" lon="-1.81043">
        <ele>1315.9</ele>
        <time>2023-08-19T09:00:31Z</time>
      </trkpt>
      <trkpt lat="40.32128" lon="-1.81059">
        <ele>1315.3</ele>
        <time>2023-08-19T09:00:34Z</time>
      </trkpt>
      <trkpt lat="40.321" lon="-1.81073">
        <ele>1314.6</ele>
        <time>2023-08-19T09:00:38Z</time>
      </trkpt>
      <trkpt lat="40.32076" lon="-1.81091">
        <ele>1313.4</ele>
        <time>2023-08-19T09:00:42Z</time>
      </trkpt>
      <trkpt lat="40.32063" lon="-1.8111">
        <ele>1312.8</ele>
        <time>2023-08-19T09:00:45Z</time>
      </trkpt>
      <trkpt lat="40.3205" lon="-1.81138">
        <ele>1311.7</ele>
        <time>2023-08-19T09:00:49Z</time>
      </trkpt>
      <trkpt lat="40.32039" lon="-1.81168">
        <ele>1309.9</ele>
        <time>2023-08-19T09:00:53Z</time>
      </trkpt>
      <trkpt lat="40.32029" lon="-1.81195">
        <ele>1308.9</ele>
        <time>2023-08-19T09:00:57Z</time>
      </trkpt>
      <trkpt lat="40.32023" lon="-1.81216">
        <ele>1308.1</ele>
        <time>2023-08-19T09:01:01Z</time>
      </trkpt>
      <trkpt lat="40.3202" lon="-1.81224">
        <ele>1308</ele>
        <time>2023-08-19T09:01:04Z</time>
      </trkpt>
      <trkpt lat="40.32019" lon="-1.81223">
        <ele>1309.1</ele>
        <time>2023-08-19T09:01:18Z</time>
      </trkpt>
      <trkpt lat="40.3201" lon="-1.81227">
        <ele>1308.1</ele>
        <time>2023-08-19T09:01:22Z</time>
      </trkpt>
      <trkpt lat="40.31988" lon="-1.8122">
        <ele>1308.6</ele>
        <time>2023-08-19T09:01:26Z</time>
      </trkpt>
      <trkpt lat="40.3196" lon="-1.81208">
        <ele>1308.3</ele>
        <time>2023-08-19T09:01:30Z</time>
      </trkpt>
      <trkpt lat="40.31939" lon="-1.81195">
        <ele>1308.5</ele>
        <time>2023-08-19T09:01:33Z</time>
      </trkpt>
      <trkpt lat="40.31912" lon="-1.81178">
        <ele>1307.8</ele>
        <time>2023-08-19T09:01:37Z</time>
      </trkpt>
      <trkpt lat="40.31885" lon="-1.81159">
        <ele>1307</ele>
        <time>2023-08-19T09:01:41Z</time>
      </trkpt>
      <trkpt lat="40.3186" lon="-1.8114">
        <ele>1307</ele>
        <time>2023-08-19T09:01:45Z</time>
      </trkpt>
      <trkpt lat="40.31833" lon="-1.81122">
        <ele>1306.1</ele>
        <time>2023-08-19T09:01:49Z</time>
      </trkpt>
      <trkpt lat="40.31805" lon="-1.81104">
        <ele>1305.9</ele>
        <time>2023-08-19T09:01:53Z</time>
      </trkpt>
      <trkpt lat="40.31784" lon="-1.81092">
        <ele>1305.5</ele>
        <time>2023-08-19T09:01:56Z</time>
      </trkpt>
      <trkpt lat="40.31753" lon="-1.81081">
        <ele>1305.2</ele>
        <time>2023-08-19T09:02:00Z</time>
      </trkpt>
      <trkpt lat="40.3173" lon="-1.81073">
        <ele>1304.3</ele>
        <time>2023-08-19T09:02:03Z</time>
      </trkpt>
      <trkpt lat="40.31707" lon="-1.81064">
        <ele>1303.3</ele>
        <time>2023-08-19T09:02:06Z</time>
      </trkpt>
      <trkpt lat="40.31677" lon="-1.81053">
        <ele>1302.8</ele>
        <time>2023-08-19T09:02:10Z</time>
      </trkpt>
      <trkpt lat="40.31648" lon="-1.81042">
        <ele>1302.7</ele>
        <time>2023-08-19T09:02:14Z</time>
      </trkpt>
      <trkpt lat="40.31619" lon="-1.81031">
        <ele>1301.6</ele>
        <time>2023-08-19T09:02:18Z</time>
      </trkpt>
      <trkpt lat="40.31596" lon="-1.81022">
        <ele>1299.6</ele>
        <time>2023-08-19T09:02:21Z</time>
      </trkpt>
      <trkpt lat="40.31575" lon="-1.81013">
        <ele>1299.2</ele>
        <time>2023-08-19T09:02:24Z</time>
      </trkpt>
      <trkpt lat="40.31545" lon="-1.81001">
        <ele>1297.9</ele>
        <time>2023-08-19T09:02:28Z</time>
      </trkpt>
      <trkpt lat="40.31517" lon="-1.8099">
        <ele>1297.9</ele>
        <time>2023-08-19T09:02:32Z</time>
      </trkpt>
      <trkpt lat="40.31495" lon="-1.80981">
        <ele>1297.7</ele>
        <time>2023-08-19T09:02:35Z</time>
      </trkpt>
      <trkpt lat="40.31473" lon="-1.80973">
        <ele>1297.7</ele>
        <time>2023-08-19T09:02:38Z</time>
      </trkpt>
      <trkpt lat="40.31444" lon="-1.80962">
        <ele>1298.5</ele>
        <time>2023-08-19T09:02:42Z</time>
      </trkpt>
      <trkpt lat="40.31422" lon="-1.80954">
        <ele>1298.1</ele>
        <time>2023-08-19T09:02:45Z</time>
      </trkpt>
      <trkpt lat="40.31392" lon="-1.80943">
        <ele>1297.8</ele>
        <time>2023-08-19T09:02:49Z</time>
      </trkpt>
      <trkpt lat="40.3137" lon="-1.80934">
        <ele>1297.5</ele>
        <time>2023-08-19T09:02:52Z</time>
      </trkpt>
      <trkpt lat="40.31341" lon="-1.80921">
        <ele>1297.3</ele>
        <time>2023-08-19T09:02:56Z</time>
      </trkpt>
      <trkpt lat="40.31318" lon="-1.80912">
        <ele>1297.6</ele>
        <time>2023-08-19T09:02:59Z</time>
      </trkpt>
      <trkpt lat="40.31288" lon="-1.809">
        <ele>1297.6</ele>
        <time>2023-08-19T09:03:03Z</time>
      </trkpt>
      <trkpt lat="40.31266" lon="-1.8089">
        <ele>1297.5</ele>
        <time>2023-08-19T09:03:06Z</time>
      </trkpt>
      <trkpt lat="40.31236" lon="-1.80876">
        <ele>1295.9</ele>
        <time>2023-08-19T09:03:10Z</time>
      </trkpt>
      <trkpt lat="40.31207" lon="-1.80863">
        <ele>1296.2</ele>
        <time>2023-08-19T09:03:14Z</time>
      </trkpt>
      <trkpt lat="40.3118" lon="-1.80851">
        <ele>1294.9</ele>
        <time>2023-08-19T09:03:18Z</time>
      </trkpt>
      <trkpt lat="40.31151" lon="-1.80838">
        <ele>1294.3</ele>
        <time>2023-08-19T09:03:22Z</time>
      </trkpt>
      <trkpt lat="40.3113" lon="-1.80826">
        <ele>1294</ele>
        <time>2023-08-19T09:03:25Z</time>
      </trkpt>
      <trkpt lat="40.31109" lon="-1.80812">
        <ele>1294.4</ele>
        <time>2023-08-19T09:03:28Z</time>
      </trkpt>
      <trkpt lat="40.31083" lon="-1.80791">
        <ele>1294.8</ele>
        <time>2023-08-19T09:03:32Z</time>
      </trkpt>
      <trkpt lat="40.31061" lon="-1.80764">
        <ele>1294.2</ele>
        <time>2023-08-19T09:03:36Z</time>
      </trkpt>
      <trkpt lat="40.31045" lon="-1.80742">
        <ele>1295.2</ele>
        <time>2023-08-19T09:03:39Z</time>
      </trkpt>
      <trkpt lat="40.31028" lon="-1.80721">
        <ele>1296.5</ele>
        <time>2023-08-19T09:03:42Z</time>
      </trkpt>
      <trkpt lat="40.31006" lon="-1.80694">
        <ele>1295.4</ele>
        <time>2023-08-19T09:03:46Z</time>
      </trkpt>
      <trkpt lat="40.30981" lon="-1.8067">
        <ele>1294.8</ele>
        <time>2023-08-19T09:03:50Z</time>
      </trkpt>
      <trkpt lat="40.30961" lon="-1.80656">
        <ele>1294.6</ele>
        <time>2023-08-19T09:03:53Z</time>
      </trkpt>
      <trkpt lat="40.30933" lon="-1.80636">
        <ele>1296</ele>
        <time>2023-08-19T09:03:57Z</time>
      </trkpt>
      <trkpt lat="40.30905" lon="-1.80618">
        <ele>1295.2</ele>
        <time>2023-08-19T09:04:01Z</time>
      </trkpt>
      <trkpt lat="40.30878" lon="-1.80599">
        <ele>1294.6</ele>
        <time>2023-08-19T09:04:05Z</time>
      </trkpt>
      <trkpt lat="40.30858" lon="-1.80584">
        <ele>1295</ele>
        <time>2023-08-19T09:04:08Z</time>
      </trkpt>
      <trkpt lat="40.30832" lon="-1.80566">
        <ele>1295.5</ele>
        <time>2023-08-19T09:04:12Z</time>
      </trkpt>
      <trkpt lat="40.30807" lon="-1.80548">
        <ele>1295.6</ele>
        <time>2023-08-19T09:04:16Z</time>
      </trkpt>
      <trkpt lat="40.30783" lon="-1.80527">
        <ele>1295.3</ele>
        <time>2023-08-19T09:04:20Z</time>
      </trkpt>
      <trkpt lat="40.30761" lon="-1.80502">
        <ele>1294.7</ele>
        <time>2023-08-19T09:04:24Z</time>
      </trkpt>
      <trkpt lat="40.3074" lon="-1.80475">
        <ele>1295</ele>
        <time>2023-08-19T09:04:28Z</time>
      </trkpt>
      <trkpt lat="40.30725" lon="-1.80455">
        <ele>1294.3</ele>
        <time>2023-08-19T09:04:31Z</time>
      </trkpt>
      <trkpt lat="40.3071" lon="-1.80436">
        <ele>1294.3</ele>
        <time>2023-08-19T09:04:34Z</time>
      </trkpt>
      <trkpt lat="40.30688" lon="-1.80409">
        <ele>1295.4</ele>
        <time>2023-08-19T09:04:38Z</time>
      </trkpt>
      <trkpt lat="40.30671" lon="-1.80391">
        <ele>1295.2</ele>
        <time>2023-08-19T09:04:41Z</time>
      </trkpt>
      <trkpt lat="40.30653" lon="-1.80374">
        <ele>1294.1</ele>
        <time>2023-08-19T09:04:44Z</time>
      </trkpt>
      <trkpt lat="40.30634" lon="-1.80358">
        <ele>1293.8</ele>
        <time>2023-08-19T09:04:47Z</time>
      </trkpt>
      <trkpt lat="40.30608" lon="-1.80339">
        <ele>1292</ele>
        <time>2023-08-19T09:04:51Z</time>
      </trkpt>
      <trkpt lat="40.30583" lon="-1.8032">
        <ele>1290.4</ele>
        <time>2023-08-19T09:04:55Z</time>
      </trkpt>
      <trkpt lat="40.30558" lon="-1.803">
        <ele>1288.9</ele>
        <time>2023-08-19T09:04:59Z</time>
      </trkpt>
      <trkpt lat="40.3054" lon="-1.80285">
        <ele>1288.1</ele>
        <time>2023-08-19T09:05:02Z</time>
      </trkpt>
      <trkpt lat="40.30515" lon="-1.80267">
        <ele>1289.1</ele>
        <time>2023-08-19T09:05:06Z</time>
      </trkpt>
      <trkpt lat="40.30491" lon="-1.80248">
        <ele>1289.3</ele>
        <time>2023-08-19T09:05:10Z</time>
      </trkpt>
      <trkpt lat="40.30466" lon="-1.80229">
        <ele>1287.9</ele>
        <time>2023-08-19T09:05:14Z</time>
      </trkpt>
      <trkpt lat="40.30441" lon="-1.80209">
        <ele>1286.9</ele>
        <time>2023-08-19T09:05:18Z</time>
      </trkpt>
      <trkpt lat="40.30422" lon="-1.80195">
        <ele>1287.5</ele>
        <time>2023-08-19T09:05:21Z</time>
      </trkpt>
      <trkpt lat="40.30403" lon="-1.80182">
        <ele>1287.4</ele>
        <time>2023-08-19T09:05:24Z</time>
      </trkpt>
      <trkpt lat="40.30384" lon="-1.80169">
        <ele>1286</ele>
        <time>2023-08-19T09:05:27Z</time>
      </trkpt>
      <trkpt lat="40.30356" lon="-1.80156">
        <ele>1286.6</ele>
        <time>2023-08-19T09:05:31Z</time>
      </trkpt>
      <trkpt lat="40.30327" lon="-1.80144">
        <ele>1287</ele>
        <time>2023-08-19T09:05:35Z</time>
      </trkpt>
      <trkpt lat="40.30299" lon="-1.80134">
        <ele>1285</ele>
        <time>2023-08-19T09:05:39Z</time>
      </trkpt>
      <trkpt lat="40.30272" lon="-1.80126">
        <ele>1284.1</ele>
        <time>2023-08-19T09:05:43Z</time>
      </trkpt>
      <trkpt lat="40.30243" lon="-1.8012">
        <ele>1284.4</ele>
        <time>2023-08-19T09:05:47Z</time>
      </trkpt>
      <trkpt lat="40.30214" lon="-1.80115">
        <ele>1283.8</ele>
        <time>2023-08-19T09:05:51Z</time>
      </trkpt>
      <trkpt lat="40.30185" lon="-1.8011">
        <ele>1283.2</ele>
        <time>2023-08-19T09:05:55Z</time>
      </trkpt>
      <trkpt lat="40.30156" lon="-1.80106">
        <ele>1283.4</ele>
        <time>2023-08-19T09:05:59Z</time>
      </trkpt>
      <trkpt lat="40.30134" lon="-1.80102">
        <ele>1283.6</ele>
        <time>2023-08-19T09:06:02Z</time>
      </trkpt>
      <trkpt lat="40.30113" lon="-1.80099">
        <ele>1282.7</ele>
        <time>2023-08-19T09:06:05Z</time>
      </trkpt>
      <trkpt lat="40.30083" lon="-1.80094">
        <ele>1281.7</ele>
        <time>2023-08-19T09:06:09Z</time>
      </trkpt>
      <trkpt lat="40.30061" lon="-1.80091">
        <ele>1281.4</ele>
        <time>2023-08-19T09:06:12Z</time>
      </trkpt>
      <trkpt lat="40.30033" lon="-1.80086">
        <ele>1282</ele>
        <time>2023-08-19T09:06:16Z</time>
      </trkpt>
      <trkpt lat="40.30004" lon="-1.80081">
        <ele>1282</ele>
        <time>2023-08-19T09:06:20Z</time>
      </trkpt>
      <trkpt lat="40.29982" lon="-1.80079">
        <ele>1281.1</ele>
        <time>2023-08-19T09:06:23Z</time>
      </trkpt>
      <trkpt lat="40.29961" lon="-1.80084">
        <ele>1280.5</ele>
        <time>2023-08-19T09:06:26Z</time>
      </trkpt>
      <trkpt lat="40.29942" lon="-1.80099">
        <ele>1280.5</ele>
        <time>2023-08-19T09:06:29Z</time>
      </trkpt>
      <trkpt lat="40.29924" lon="-1.80129">
        <ele>1281.1</ele>
        <time>2023-08-19T09:06:33Z</time>
      </trkpt>
      <trkpt lat="40.2991" lon="-1.80163">
        <ele>1279.6</ele>
        <time>2023-08-19T09:06:37Z</time>
      </trkpt>
      <trkpt lat="40.29896" lon="-1.80196">
        <ele>1279.9</ele>
        <time>2023-08-19T09:06:41Z</time>
      </trkpt>
      <trkpt lat="40.29882" lon="-1.80229">
        <ele>1281.2</ele>
        <time>2023-08-19T09:06:45Z</time>
      </trkpt>
      <trkpt lat="40.29865" lon="-1.8026">
        <ele>1279.7</ele>
        <time>2023-08-19T09:06:49Z</time>
      </trkpt>
      <trkpt lat="40.29839" lon="-1.8028">
        <ele>1279.6</ele>
        <time>2023-08-19T09:06:53Z</time>
      </trkpt>
      <trkpt lat="40.29816" lon="-1.80284">
        <ele>1278.6</ele>
        <time>2023-08-19T09:06:56Z</time>
      </trkpt>
      <trkpt lat="40.29785" lon="-1.80275">
        <ele>1280.7</ele>
        <time>2023-08-19T09:07:00Z</time>
      </trkpt>
      <trkpt lat="40.29758" lon="-1.80257">
        <ele>1280.3</ele>
        <time>2023-08-19T09:07:04Z</time>
      </trkpt>
      <trkpt lat="40.29738" lon="-1.80244">
        <ele>1278.3</ele>
        <time>2023-08-19T09:07:07Z</time>
      </trkpt>
      <trkpt lat="40.29711" lon="-1.8023">
        <ele>1279.2</ele>
        <time>2023-08-19T09:07:11Z</time>
      </trkpt>
      <trkpt lat="40.29683" lon="-1.80222">
        <ele>1278.3</ele>
        <time>2023-08-19T09:07:15Z</time>
      </trkpt>
      <trkpt lat="40.29661" lon="-1.80221">
        <ele>1277.8</ele>
        <time>2023-08-19T09:07:18Z</time>
      </trkpt>
      <trkpt lat="40.2964" lon="-1.80222">
        <ele>1277.1</ele>
        <time>2023-08-19T09:07:21Z</time>
      </trkpt>
      <trkpt lat="40.29617" lon="-1.80226">
        <ele>1276.2</ele>
        <time>2023-08-19T09:07:24Z</time>
      </trkpt>
      <trkpt lat="40.29588" lon="-1.80229">
        <ele>1275.9</ele>
        <time>2023-08-19T09:07:28Z</time>
      </trkpt>
      <trkpt lat="40.29566" lon="-1.80232">
        <ele>1276.6</ele>
        <time>2023-08-19T09:07:31Z</time>
      </trkpt>
      <trkpt lat="40.29545" lon="-1.80235">
        <ele>1276.2</ele>
        <time>2023-08-19T09:07:34Z</time>
      </trkpt>
      <trkpt lat="40.29524" lon="-1.80238">
        <ele>1274.9</ele>
        <time>2023-08-19T09:07:37Z</time>
      </trkpt>
      <trkpt lat="40.29495" lon="-1.80242">
        <ele>1274.1</ele>
        <time>2023-08-19T09:07:41Z</time>
      </trkpt>
      <trkpt lat="40.29474" lon="-1.80245">
        <ele>1275.3</ele>
        <time>2023-08-19T09:07:44Z</time>
      </trkpt>
      <trkpt lat="40.29444" lon="-1.80249">
        <ele>1274.3</ele>
        <time>2023-08-19T09:07:48Z</time>
      </trkpt>
      <trkpt lat="40.29416" lon="-1.80254">
        <ele>1273.1</ele>
        <time>2023-08-19T09:07:52Z</time>
      </trkpt>
      <trkpt lat="40.29388" lon="-1.80259">
        <ele>1272.9</ele>
        <time>2023-08-19T09:07:56Z</time>
      </trkpt>
      <trkpt lat="40.2936" lon="-1.80263">
        <ele>1273.8</ele>
        <time>2023-08-19T09:08:00Z</time>
      </trkpt>
      <trkpt lat="40.29331" lon="-1.80269">
        <ele>1273.1</ele>
        <time>2023-08-19T09:08:04Z</time>
      </trkpt>
      <trkpt lat="40.29302" lon="-1.80273">
        <ele>1272.3</ele>
        <time>2023-08-19T09:08:08Z</time>
      </trkpt>
      <trkpt lat="40.29281" lon="-1.80275">
        <ele>1271.4</ele>
        <time>2023-08-19T09:08:11Z</time>
      </trkpt>
      <trkpt lat="40.29251" lon="-1.80279">
        <ele>1271.2</ele>
        <time>2023-08-19T09:08:15Z</time>
      </trkpt>
      <trkpt lat="40.29222" lon="-1.80284">
        <ele>1271.7</ele>
        <time>2023-08-19T09:08:19Z</time>
      </trkpt>
      <trkpt lat="40.292" lon="-1.80287">
        <ele>1272.2</ele>
        <time>2023-08-19T09:08:22Z</time>
      </trkpt>
      <trkpt lat="40.29172" lon="-1.80291">
        <ele>1270.8</ele>
        <time>2023-08-19T09:08:26Z</time>
      </trkpt>
      <trkpt lat="40.29143" lon="-1.80295">
        <ele>1271.8</ele>
        <time>2023-08-19T09:08:30Z</time>
      </trkpt>
      <trkpt lat="40.29122" lon="-1.80298">
        <ele>1272.4</ele>
        <time>2023-08-19T09:08:33Z</time>
      </trkpt>
      <trkpt lat="40.29101" lon="-1.80301">
        <ele>1272.5</ele>
        <time>2023-08-19T09:08:36Z</time>
      </trkpt>
      <trkpt lat="40.29078" lon="-1.80305">
        <ele>1272.7</ele>
        <time>2023-08-19T09:08:39Z</time>
      </trkpt>
      <trkpt lat="40.29048" lon="-1.8031">
        <ele>1272.1</ele>
        <time>2023-08-19T09:08:43Z</time>
      </trkpt>
      <trkpt lat="40.29017" lon="-1.80315">
        <ele>1271.8</ele>
        <time>2023-08-19T09:08:47Z</time>
      </trkpt>
      <trkpt lat="40.28989" lon="-1.8032">
        <ele>1270.9</ele>
        <time>2023-08-19T09:08:51Z</time>
      </trkpt>
      <trkpt lat="40.28969" lon="-1.80323">
        <ele>1270.8</ele>
        <time>2023-08-19T09:08:54Z</time>
      </trkpt>
      <trkpt lat="40.28949" lon="-1.80324">
        <ele>1270.8</ele>
        <time>2023-08-19T09:08:57Z</time>
      </trkpt>
      <trkpt lat="40.28919" lon="-1.80322">
        <ele>1270.4</ele>
        <time>2023-08-19T09:09:01Z</time>
      </trkpt>
      <trkpt lat="40.2889" lon="-1.80316">
        <ele>1270.7</ele>
        <time>2023-08-19T09:09:05Z</time>
      </trkpt>
      <trkpt lat="40.28868" lon="-1.80312">
        <ele>1271.5</ele>
        <time>2023-08-19T09:09:08Z</time>
      </trkpt>
      <trkpt lat="40.28846" lon="-1.80308">
        <ele>1271.3</ele>
        <time>2023-08-19T09:09:11Z</time>
      </trkpt>
      <trkpt lat="40.28817" lon="-1.80303">
        <ele>1272.6</ele>
        <time>2023-08-19T09:09:15Z</time>
      </trkpt>
      <trkpt lat="40.28788" lon="-1.80296">
        <ele>1272.1</ele>
        <time>2023-08-19T09:09:19Z</time>
      </trkpt>
      <trkpt lat="40.2876" lon="-1.8029">
        <ele>1272.9</ele>
        <time>2023-08-19T09:09:23Z</time>
      </trkpt>
      <trkpt lat="40.28738" lon="-1.80286">
        <ele>1272.4</ele>
        <time>2023-08-19T09:09:26Z</time>
      </trkpt>
      <trkpt lat="40.28708" lon="-1.80281">
        <ele>1271.8</ele>
        <time>2023-08-19T09:09:30Z</time>
      </trkpt>
      <trkpt lat="40.28687" lon="-1.80276">
        <ele>1272.1</ele>
        <time>2023-08-19T09:09:33Z</time>
      </trkpt>
      <trkpt lat="40.2866" lon="-1.80274">
        <ele>1271.7</ele>
        <time>2023-08-19T09:09:37Z</time>
      </trkpt>
      <trkpt lat="40.28635" lon="-1.80278">
        <ele>1270.5</ele>
        <time>2023-08-19T09:09:41Z</time>
      </trkpt>
      <trkpt lat="40.28611" lon="-1.8029">
        <ele>1271.1</ele>
        <time>2023-08-19T09:09:45Z</time>
      </trkpt>
      <trkpt lat="40.28593" lon="-1.80306">
        <ele>1270.9</ele>
        <time>2023-08-19T09:09:48Z</time>
      </trkpt>
      <trkpt lat="40.28572" lon="-1.80334">
        <ele>1270.7</ele>
        <time>2023-08-19T09:09:52Z</time>
      </trkpt>
      <trkpt lat="40.28558" lon="-1.80369">
        <ele>1270.8</ele>
        <time>2023-08-19T09:09:56Z</time>
      </trkpt>
      <trkpt lat="40.28552" lon="-1.80406">
        <ele>1270.7</ele>
        <time>2023-08-19T09:10:00Z</time>
      </trkpt>
      <trkpt lat="40.28551" lon="-1.80444">
        <ele>1270.6</ele>
        <time>2023-08-19T09:10:04Z</time>
      </trkpt>
      <trkpt lat="40.28554" lon="-1.80471">
        <ele>1270</ele>
        <time>2023-08-19T09:10:07Z</time>
      </trkpt>
      <trkpt lat="40.28556" lon="-1.80508">
        <ele>1269.1</ele>
        <time>2023-08-19T09:10:11Z</time>
      </trkpt>
      <trkpt lat="40.28559" lon="-1.80545">
        <ele>1270</ele>
        <time>2023-08-19T09:10:15Z</time>
      </trkpt>
      <trkpt lat="40.28558" lon="-1.80581">
        <ele>1270.1</ele>
        <time>2023-08-19T09:10:19Z</time>
      </trkpt>
      <trkpt lat="40.28555" lon="-1.8061">
        <ele>1270.4</ele>
        <time>2023-08-19T09:10:22Z</time>
      </trkpt>
      <trkpt lat="40.28548" lon="-1.80648">
        <ele>1269.2</ele>
        <time>2023-08-19T09:10:26Z</time>
      </trkpt>
      <trkpt lat="40.2854" lon="-1.80676">
        <ele>1269.6</ele>
        <time>2023-08-19T09:10:29Z</time>
      </trkpt>
      <trkpt lat="40.28527" lon="-1.80711">
        <ele>1268.7</ele>
        <time>2023-08-19T09:10:33Z</time>
      </trkpt>
      <trkpt lat="40.28515" lon="-1.80736">
        <ele>1268.3</ele>
        <time>2023-08-19T09:10:36Z</time>
      </trkpt>
      <trkpt lat="40.28497" lon="-1.80766">
        <ele>1267.9</ele>
        <time>2023-08-19T09:10:40Z</time>
      </trkpt>
      <trkpt lat="40.28477" lon="-1.80794">
        <ele>1268.2</ele>
        <time>2023-08-19T09:10:44Z</time>
      </trkpt>
      <trkpt lat="40.28462" lon="-1.80814">
        <ele>1267.9</ele>
        <time>2023-08-19T09:10:47Z</time>
      </trkpt>
      <trkpt lat="40.28441" lon="-1.80843">
        <ele>1267.9</ele>
        <time>2023-08-19T09:10:51Z</time>
      </trkpt>
      <trkpt lat="40.28421" lon="-1.80871">
        <ele>1267.3</ele>
        <time>2023-08-19T09:10:55Z</time>
      </trkpt>
      <trkpt lat="40.28405" lon="-1.80892">
        <ele>1267.4</ele>
        <time>2023-08-19T09:10:58Z</time>
      </trkpt>
      <trkpt lat="40.28385" lon="-1.80919">
        <ele>1267.9</ele>
        <time>2023-08-19T09:11:02Z</time>
      </trkpt>
      <trkpt lat="40.28371" lon="-1.80939">
        <ele>1267.3</ele>
        <time>2023-08-19T09:11:05Z</time>
      </trkpt>
      <trkpt lat="40.28352" lon="-1.80968">
        <ele>1267.2</ele>
        <time>2023-08-19T09:11:09Z</time>
      </trkpt>
      <trkpt lat="40.28333" lon="-1.80996">
        <ele>1267.9</ele>
        <time>2023-08-19T09:11:13Z</time>
      </trkpt>
      <trkpt lat="40.28313" lon="-1.81024">
        <ele>1267.4</ele>
        <time>2023-08-19T09:11:17Z</time>
      </trkpt>
      <trkpt lat="40.28298" lon="-1.81045">
        <ele>1268.1</ele>
        <time>2023-08-19T09:11:20Z</time>
      </trkpt>
      <trkpt lat="40.2828" lon="-1.81075">
        <ele>1267.6</ele>
        <time>2023-08-19T09:11:24Z</time>
      </trkpt>
      <trkpt lat="40.28266" lon="-1.81107">
        <ele>1268.7</ele>
        <time>2023-08-19T09:11:28Z</time>
      </trkpt>
      <trkpt lat="40.28256" lon="-1.81131">
        <ele>1268.1</ele>
        <time>2023-08-19T09:11:31Z</time>
      </trkpt>
      <trkpt lat="40.28242" lon="-1.81164">
        <ele>1267.7</ele>
        <time>2023-08-19T09:11:35Z</time>
      </trkpt>
      <trkpt lat="40.2823" lon="-1.81199">
        <ele>1266.6</ele>
        <time>2023-08-19T09:11:39Z</time>
      </trkpt>
      <trkpt lat="40.28217" lon="-1.81233">
        <ele>1266.9</ele>
        <time>2023-08-19T09:11:43Z</time>
      </trkpt>
      <trkpt lat="40.28204" lon="-1.81267">
        <ele>1267.1</ele>
        <time>2023-08-19T09:11:47Z</time>
      </trkpt>
      <trkpt lat="40.28194" lon="-1.81293">
        <ele>1266.3</ele>
        <time>2023-08-19T09:11:50Z</time>
      </trkpt>
      <trkpt lat="40.28181" lon="-1.81328">
        <ele>1264.9</ele>
        <time>2023-08-19T09:11:54Z</time>
      </trkpt>
      <trkpt lat="40.28163" lon="-1.81358">
        <ele>1265.1</ele>
        <time>2023-08-19T09:11:58Z</time>
      </trkpt>
      <trkpt lat="40.28145" lon="-1.81374">
        <ele>1263.9</ele>
        <time>2023-08-19T09:12:01Z</time>
      </trkpt>
      <trkpt lat="40.28124" lon="-1.81381">
        <ele>1264</ele>
        <time>2023-08-19T09:12:04Z</time>
      </trkpt>
      <trkpt lat="40.28095" lon="-1.81379">
        <ele>1264.3</ele>
        <time>2023-08-19T09:12:08Z</time>
      </trkpt>
      <trkpt lat="40.28073" lon="-1.81372">
        <ele>1264.4</ele>
        <time>2023-08-19T09:12:11Z</time>
      </trkpt>
      <trkpt lat="40.28045" lon="-1.81367">
        <ele>1263.7</ele>
        <time>2023-08-19T09:12:15Z</time>
      </trkpt>
      <trkpt lat="40.28017" lon="-1.81369">
        <ele>1263.5</ele>
        <time>2023-08-19T09:12:19Z</time>
      </trkpt>
      <trkpt lat="40.27996" lon="-1.81375">
        <ele>1262.8</ele>
        <time>2023-08-19T09:12:22Z</time>
      </trkpt>
      <trkpt lat="40.27976" lon="-1.81387">
        <ele>1262.9</ele>
        <time>2023-08-19T09:12:25Z</time>
      </trkpt>
      <trkpt lat="40.27951" lon="-1.81407">
        <ele>1262</ele>
        <time>2023-08-19T09:12:29Z</time>
      </trkpt>
      <trkpt lat="40.27935" lon="-1.81426">
        <ele>1261</ele>
        <time>2023-08-19T09:12:32Z</time>
      </trkpt>
      <trkpt lat="40.27917" lon="-1.81456">
        <ele>1261.5</ele>
        <time>2023-08-19T09:12:36Z</time>
      </trkpt>
      <trkpt lat="40.27907" lon="-1.81482">
        <ele>1261.2</ele>
        <time>2023-08-19T09:12:39Z</time>
      </trkpt>
      <trkpt lat="40.27894" lon="-1.81517">
        <ele>1260.9</ele>
        <time>2023-08-19T09:12:43Z</time>
      </trkpt>
      <trkpt lat="40.27883" lon="-1.81543">
        <ele>1260.9</ele>
        <time>2023-08-19T09:12:46Z</time>
      </trkpt>
      <trkpt lat="40.27869" lon="-1.81577">
        <ele>1260.6</ele>
        <time>2023-08-19T09:12:50Z</time>
      </trkpt>
      <trkpt lat="40.27855" lon="-1.81609">
        <ele>1260.4</ele>
        <time>2023-08-19T09:12:54Z</time>
      </trkpt>
      <trkpt lat="40.27845" lon="-1.81633">
        <ele>1260.1</ele>
        <time>2023-08-19T09:12:57Z</time>
      </trkpt>
      <trkpt lat="40.27831" lon="-1.81665">
        <ele>1259.5</ele>
        <time>2023-08-19T09:13:01Z</time>
      </trkpt>
      <trkpt lat="40.27821" lon="-1.8169">
        <ele>1259.8</ele>
        <time>2023-08-19T09:13:04Z</time>
      </trkpt>
      <trkpt lat="40.27807" lon="-1.81723">
        <ele>1260.1</ele>
        <time>2023-08-19T09:13:08Z</time>
      </trkpt>
      <trkpt lat="40.27793" lon="-1.81756">
        <ele>1259.7</ele>
        <time>2023-08-19T09:13:12Z</time>
      </trkpt>
      <trkpt lat="40.2778" lon="-1.81789">
        <ele>1259.4</ele>
        <time>2023-08-19T09:13:16Z</time>
      </trkpt>
      <trkpt lat="40.27767" lon="-1.81822">
        <ele>1259.2</ele>
        <time>2023-08-19T09:13:20Z</time>
      </trkpt>
      <trkpt lat="40.27758" lon="-1.81847">
        <ele>1259.6</ele>
        <time>2023-08-19T09:13:23Z</time>
      </trkpt>
      <trkpt lat="40.27743" lon="-1.81881">
        <ele>1259.8</ele>
        <time>2023-08-19T09:13:27Z</time>
      </trkpt>
      <trkpt lat="40.27729" lon="-1.81914">
        <ele>1259.3</ele>
        <time>2023-08-19T09:13:31Z</time>
      </trkpt>
      <trkpt lat="40.2772" lon="-1.8194">
        <ele>1259.8</ele>
        <time>2023-08-19T09:13:34Z</time>
      </trkpt>
      <trkpt lat="40.27706" lon="-1.81974">
        <ele>1259.9</ele>
        <time>2023-08-19T09:13:38Z</time>
      </trkpt>
      <trkpt lat="40.27692" lon="-1.82007">
        <ele>1259.9</ele>
        <time>2023-08-19T09:13:42Z</time>
      </trkpt>
      <trkpt lat="40.27682" lon="-1.82031">
        <ele>1260</ele>
        <time>2023-08-19T09:13:45Z</time>
      </trkpt>
      <trkpt lat="40.27672" lon="-1.82057">
        <ele>1259.9</ele>
        <time>2023-08-19T09:13:48Z</time>
      </trkpt>
      <trkpt lat="40.27658" lon="-1.82091">
        <ele>1260.1</ele>
        <time>2023-08-19T09:13:52Z</time>
      </trkpt>
      <trkpt lat="40.27645" lon="-1.82124">
        <ele>1260.1</ele>
        <time>2023-08-19T09:13:56Z</time>
      </trkpt>
      <trkpt lat="40.2763" lon="-1.82155">
        <ele>1260.2</ele>
        <time>2023-08-19T09:14:00Z</time>
      </trkpt>
      <trkpt lat="40.27614" lon="-1.82175">
        <ele>1260.2</ele>
        <time>2023-08-19T09:14:03Z</time>
      </trkpt>
      <trkpt lat="40.27597" lon="-1.82195">
        <ele>1261.8</ele>
        <time>2023-08-19T09:14:06Z</time>
      </trkpt>
      <trkpt lat="40.27575" lon="-1.82222">
        <ele>1261.2</ele>
        <time>2023-08-19T09:14:10Z</time>
      </trkpt>
      <trkpt lat="40.27554" lon="-1.8225">
        <ele>1261.4</ele>
        <time>2023-08-19T09:14:14Z</time>
      </trkpt>
      <trkpt lat="40.27533" lon="-1.82276">
        <ele>1260.7</ele>
        <time>2023-08-19T09:14:18Z</time>
      </trkpt>
      <trkpt lat="40.27511" lon="-1.82303">
        <ele>1260</ele>
        <time>2023-08-19T09:14:22Z</time>
      </trkpt>
      <trkpt lat="40.27489" lon="-1.8233">
        <ele>1258.8</ele>
        <time>2023-08-19T09:14:26Z</time>
      </trkpt>
      <trkpt lat="40.27474" lon="-1.8235">
        <ele>1258.1</ele>
        <time>2023-08-19T09:14:29Z</time>
      </trkpt>
      <trkpt lat="40.27458" lon="-1.8237">
        <ele>1257.5</ele>
        <time>2023-08-19T09:14:32Z</time>
      </trkpt>
      <trkpt lat="40.27439" lon="-1.82394">
        <ele>1258</ele>
        <time>2023-08-19T09:14:36Z</time>
      </trkpt>
      <trkpt lat="40.27418" lon="-1.82419">
        <ele>1257.4</ele>
        <time>2023-08-19T09:14:40Z</time>
      </trkpt>
      <trkpt lat="40.27402" lon="-1.82438">
        <ele>1257.4</ele>
        <time>2023-08-19T09:14:43Z</time>
      </trkpt>
      <trkpt lat="40.27381" lon="-1.82465">
        <ele>1257.8</ele>
        <time>2023-08-19T09:14:47Z</time>
      </trkpt>
      <trkpt lat="40.2736" lon="-1.82491">
        <ele>1257.9</ele>
        <time>2023-08-19T09:14:51Z</time>
      </trkpt>
      <trkpt lat="40.27339" lon="-1.82517">
        <ele>1257.3</ele>
        <time>2023-08-19T09:14:55Z</time>
      </trkpt>
      <trkpt lat="40.27323" lon="-1.82536">
        <ele>1257</ele>
        <time>2023-08-19T09:14:58Z</time>
      </trkpt>
      <trkpt lat="40.27303" lon="-1.82561">
        <ele>1257.2</ele>
        <time>2023-08-19T09:15:02Z</time>
      </trkpt>
      <trkpt lat="40.27282" lon="-1.82588">
        <ele>1257.4</ele>
        <time>2023-08-19T09:15:06Z</time>
      </trkpt>
      <trkpt lat="40.27265" lon="-1.82607">
        <ele>1257.6</ele>
        <time>2023-08-19T09:15:09Z</time>
      </trkpt>
      <trkpt lat="40.2725" lon="-1.82627">
        <ele>1257.4</ele>
        <time>2023-08-19T09:15:12Z</time>
      </trkpt>
      <trkpt lat="40.27228" lon="-1.82654">
        <ele>1257.3</ele>
        <time>2023-08-19T09:15:16Z</time>
      </trkpt>
      <trkpt lat="40.27207" lon="-1.82681">
        <ele>1257.5</ele>
        <time>2023-08-19T09:15:20Z</time>
      </trkpt>
      <trkpt lat="40.27184" lon="-1.82703">
        <ele>1258</ele>
        <time>2023-08-19T09:15:24Z</time>
      </trkpt>
      <trkpt lat="40.2716" lon="-1.82722">
        <ele>1258.9</ele>
        <time>2023-08-19T09:15:28Z</time>
      </trkpt>
      <trkpt lat="40.27133" lon="-1.82736">
        <ele>1259.1</ele>
        <time>2023-08-19T09:15:32Z</time>
      </trkpt>
      <trkpt lat="40.27111" lon="-1.82745">
        <ele>1260.3</ele>
        <time>2023-08-19T09:15:35Z</time>
      </trkpt>
      <trkpt lat="40.27089" lon="-1.82755">
        <ele>1260.5</ele>
        <time>2023-08-19T09:15:38Z</time>
      </trkpt>
      <trkpt lat="40.27063" lon="-1.82769">
        <ele>1260.7</ele>
        <time>2023-08-19T09:15:42Z</time>
      </trkpt>
      <trkpt lat="40.27043" lon="-1.8278">
        <ele>1260.7</ele>
        <time>2023-08-19T09:15:45Z</time>
      </trkpt>
      <trkpt lat="40.27024" lon="-1.82793">
        <ele>1261.2</ele>
        <time>2023-08-19T09:15:48Z</time>
      </trkpt>
      <trkpt lat="40.26998" lon="-1.82811">
        <ele>1262</ele>
        <time>2023-08-19T09:15:52Z</time>
      </trkpt>
      <trkpt lat="40.26973" lon="-1.8283">
        <ele>1261.7</ele>
        <time>2023-08-19T09:15:56Z</time>
      </trkpt>
      <trkpt lat="40.26948" lon="-1.82849">
        <ele>1261.4</ele>
        <time>2023-08-19T09:16:00Z</time>
      </trkpt>
      <trkpt lat="40.2693" lon="-1.82863">
        <ele>1261.6</ele>
        <time>2023-08-19T09:16:03Z</time>
      </trkpt>
      <trkpt lat="40.26904" lon="-1.82883">
        <ele>1262.1</ele>
        <time>2023-08-19T09:16:07Z</time>
      </trkpt>
      <trkpt lat="40.26885" lon="-1.82897">
        <ele>1261.7</ele>
        <time>2023-08-19T09:16:10Z</time>
      </trkpt>
      <trkpt lat="40.26861" lon="-1.82917">
        <ele>1261.4</ele>
        <time>2023-08-19T09:16:14Z</time>
      </trkpt>
      <trkpt lat="40.26843" lon="-1.82933">
        <ele>1261.4</ele>
        <time>2023-08-19T09:16:17Z</time>
      </trkpt>
      <trkpt lat="40.2682" lon="-1.82955">
        <ele>1262</ele>
        <time>2023-08-19T09:16:21Z</time>
      </trkpt>
      <trkpt lat="40.26803" lon="-1.82972">
        <ele>1261.9</ele>
        <time>2023-08-19T09:16:24Z</time>
      </trkpt>
      <trkpt lat="40.2678" lon="-1.82993">
        <ele>1262.3</ele>
        <time>2023-08-19T09:16:28Z</time>
      </trkpt>
      <trkpt lat="40.26753" lon="-1.83012">
        <ele>1261.8</ele>
        <time>2023-08-19T09:16:32Z</time>
      </trkpt>
      <trkpt lat="40.26726" lon="-1.83025">
        <ele>1263.4</ele>
        <time>2023-08-19T09:16:36Z</time>
      </trkpt>
      <trkpt lat="40.26695" lon="-1.83029">
        <ele>1263.2</ele>
        <time>2023-08-19T09:16:40Z</time>
      </trkpt>
      <trkpt lat="40.26673" lon="-1.83032">
        <ele>1263.5</ele>
        <time>2023-08-19T09:16:43Z</time>
      </trkpt>
      <trkpt lat="40.26644" lon="-1.83036">
        <ele>1263.5</ele>
        <time>2023-08-19T09:16:47Z</time>
      </trkpt>
      <trkpt lat="40.26615" lon="-1.83045">
        <ele>1264.2</ele>
        <time>2023-08-19T09:16:51Z</time>
      </trkpt>
      <trkpt lat="40.26594" lon="-1.83068">
        <ele>1264.9</ele>
        <time>2023-08-19T09:16:55Z</time>
      </trkpt>
      <trkpt lat="40.26582" lon="-1.83103">
        <ele>1264.6</ele>
        <time>2023-08-19T09:16:59Z</time>
      </trkpt>
      <trkpt lat="40.2657" lon="-1.8314">
        <ele>1263.6</ele>
        <time>2023-08-19T09:17:03Z</time>
      </trkpt>
      <trkpt lat="40.26558" lon="-1.83178">
        <ele>1263.4</ele>
        <time>2023-08-19T09:17:07Z</time>
      </trkpt>
      <trkpt lat="40.26546" lon="-1.83213">
        <ele>1262.4</ele>
        <time>2023-08-19T09:17:11Z</time>
      </trkpt>
      <trkpt lat="40.26533" lon="-1.83243">
        <ele>1262.5</ele>
        <time>2023-08-19T09:17:15Z</time>
      </trkpt>
      <trkpt lat="40.2651" lon="-1.83265">
        <ele>1262.6</ele>
        <time>2023-08-19T09:17:19Z</time>
      </trkpt>
      <trkpt lat="40.26478" lon="-1.83276">
        <ele>1261.7</ele>
        <time>2023-08-19T09:17:23Z</time>
      </trkpt>
      <trkpt lat="40.26446" lon="-1.83277">
        <ele>1260.8</ele>
        <time>2023-08-19T09:17:27Z</time>
      </trkpt>
      <trkpt lat="40.26423" lon="-1.83276">
        <ele>1259.6</ele>
        <time>2023-08-19T09:17:30Z</time>
      </trkpt>
      <trkpt lat="40.264" lon="-1.83275">
        <ele>1258.7</ele>
        <time>2023-08-19T09:17:33Z</time>
      </trkpt>
      <trkpt lat="40.26372" lon="-1.8328">
        <ele>1257.7</ele>
        <time>2023-08-19T09:17:37Z</time>
      </trkpt>
      <trkpt lat="40.26344" lon="-1.83284">
        <ele>1257.3</ele>
        <time>2023-08-19T09:17:41Z</time>
      </trkpt>
      <trkpt lat="40.26323" lon="-1.83287">
        <ele>1257.3</ele>
        <time>2023-08-19T09:17:44Z</time>
      </trkpt>
      <trkpt lat="40.26296" lon="-1.83302">
        <ele>1257.7</ele>
        <time>2023-08-19T09:17:48Z</time>
      </trkpt>
      <trkpt lat="40.2628" lon="-1.83321">
        <ele>1257.1</ele>
        <time>2023-08-19T09:17:51Z</time>
      </trkpt>
      <trkpt lat="40.26267" lon="-1.83345">
        <ele>1256.5</ele>
        <time>2023-08-19T09:17:54Z</time>
      </trkpt>
      <trkpt lat="40.26256" lon="-1.8337">
        <ele>1255.8</ele>
        <time>2023-08-19T09:17:57Z</time>
      </trkpt>
      <trkpt lat="40.26241" lon="-1.83403">
        <ele>1254.4</ele>
        <time>2023-08-19T09:18:01Z</time>
      </trkpt>
      <trkpt lat="40.26229" lon="-1.83426">
        <ele>1254.2</ele>
        <time>2023-08-19T09:18:04Z</time>
      </trkpt>
      <trkpt lat="40.26218" lon="-1.8345">
        <ele>1253.4</ele>
        <time>2023-08-19T09:18:07Z</time>
      </trkpt>
      <trkpt lat="40.262" lon="-1.8348">
        <ele>1253.3</ele>
        <time>2023-08-19T09:18:11Z</time>
      </trkpt>
      <trkpt lat="40.2618" lon="-1.83506">
        <ele>1253</ele>
        <time>2023-08-19T09:18:15Z</time>
      </trkpt>
      <trkpt lat="40.26161" lon="-1.83522">
        <ele>1252.7</ele>
        <time>2023-08-19T09:18:18Z</time>
      </trkpt>
      <trkpt lat="40.26133" lon="-1.83537">
        <ele>1252.5</ele>
        <time>2023-08-19T09:18:22Z</time>
      </trkpt>
      <trkpt lat="40.2611" lon="-1.83541">
        <ele>1251.7</ele>
        <time>2023-08-19T09:18:25Z</time>
      </trkpt>
      <trkpt lat="40.26081" lon="-1.83541">
        <ele>1251.2</ele>
        <time>2023-08-19T09:18:29Z</time>
      </trkpt>
      <trkpt lat="40.26052" lon="-1.83541">
        <ele>1250.5</ele>
        <time>2023-08-19T09:18:33Z</time>
      </trkpt>
      <trkpt lat="40.26029" lon="-1.83538">
        <ele>1249.7</ele>
        <time>2023-08-19T09:18:36Z</time>
      </trkpt>
      <trkpt lat="40.25999" lon="-1.83537">
        <ele>1249.4</ele>
        <time>2023-08-19T09:18:40Z</time>
      </trkpt>
      <trkpt lat="40.25978" lon="-1.83539">
        <ele>1248.5</ele>
        <time>2023-08-19T09:18:43Z</time>
      </trkpt>
      <trkpt lat="40.25957" lon="-1.83542">
        <ele>1247.7</ele>
        <time>2023-08-19T09:18:46Z</time>
      </trkpt>
      <trkpt lat="40.25936" lon="-1.83545">
        <ele>1247.8</ele>
        <time>2023-08-19T09:18:49Z</time>
      </trkpt>
      <trkpt lat="40.25907" lon="-1.83547">
        <ele>1247.2</ele>
        <time>2023-08-19T09:18:53Z</time>
      </trkpt>
      <trkpt lat="40.25885" lon="-1.83548">
        <ele>1246.3</ele>
        <time>2023-08-19T09:18:56Z</time>
      </trkpt>
      <trkpt lat="40.25856" lon="-1.83549">
        <ele>1245.8</ele>
        <time>2023-08-19T09:19:00Z</time>
      </trkpt>
      <trkpt lat="40.25834" lon="-1.83551">
        <ele>1246.1</ele>
        <time>2023-08-19T09:19:03Z</time>
      </trkpt>
      <trkpt lat="40.25812" lon="-1.83553">
        <ele>1246.4</ele>
        <time>2023-08-19T09:19:06Z</time>
      </trkpt>
      <trkpt lat="40.25784" lon="-1.83559">
        <ele>1246.9</ele>
        <time>2023-08-19T09:19:10Z</time>
      </trkpt>
      <trkpt lat="40.25755" lon="-1.83565">
        <ele>1246.4</ele>
        <time>2023-08-19T09:19:14Z</time>
      </trkpt>
      <trkpt lat="40.25726" lon="-1.83571">
        <ele>1246.8</ele>
        <time>2023-08-19T09:19:18Z</time>
      </trkpt>
      <trkpt lat="40.25706" lon="-1.83576">
        <ele>1246.3</ele>
        <time>2023-08-19T09:19:21Z</time>
      </trkpt>
      <trkpt lat="40.25685" lon="-1.83581">
        <ele>1245.9</ele>
        <time>2023-08-19T09:19:24Z</time>
      </trkpt>
      <trkpt lat="40.25657" lon="-1.83588">
        <ele>1245.3</ele>
        <time>2023-08-19T09:19:28Z</time>
      </trkpt>
      <trkpt lat="40.25637" lon="-1.83593">
        <ele>1245.5</ele>
        <time>2023-08-19T09:19:31Z</time>
      </trkpt>
      <trkpt lat="40.25609" lon="-1.83603">
        <ele>1245.8</ele>
        <time>2023-08-19T09:19:35Z</time>
      </trkpt>
      <trkpt lat="40.2558" lon="-1.83615">
        <ele>1246.5</ele>
        <time>2023-08-19T09:19:39Z</time>
      </trkpt>
      <trkpt lat="40.2556" lon="-1.83627">
        <ele>1245.8</ele>
        <time>2023-08-19T09:19:42Z</time>
      </trkpt>
      <trkpt lat="40.25535" lon="-1.83645">
        <ele>1246</ele>
        <time>2023-08-19T09:19:46Z</time>
      </trkpt>
      <trkpt lat="40.2551" lon="-1.83663">
        <ele>1246.1</ele>
        <time>2023-08-19T09:19:50Z</time>
      </trkpt>
      <trkpt lat="40.25486" lon="-1.83686">
        <ele>1246.5</ele>
        <time>2023-08-19T09:19:54Z</time>
      </trkpt>
      <trkpt lat="40.25466" lon="-1.83704">
        <ele>1246.2</ele>
        <time>2023-08-19T09:19:57Z</time>
      </trkpt>
      <trkpt lat="40.25442" lon="-1.83726">
        <ele>1246.4</ele>
        <time>2023-08-19T09:20:01Z</time>
      </trkpt>
      <trkpt lat="40.25417" lon="-1.83743">
        <ele>1247.3</ele>
        <time>2023-08-19T09:20:05Z</time>
      </trkpt>
      <trkpt lat="40.25392" lon="-1.83756">
        <ele>1247.1</ele>
        <time>2023-08-19T09:20:09Z</time>
      </trkpt>
      <trkpt lat="40.25364" lon="-1.83763">
        <ele>1247.5</ele>
        <time>2023-08-19T09:20:13Z</time>
      </trkpt>
      <trkpt lat="40.25335" lon="-1.83768">
        <ele>1248</ele>
        <time>2023-08-19T09:20:17Z</time>
      </trkpt>
      <trkpt lat="40.25304" lon="-1.83772">
        <ele>1247</ele>
        <time>2023-08-19T09:20:21Z</time>
      </trkpt>
      <trkpt lat="40.25283" lon="-1.83774">
        <ele>1247.1</ele>
        <time>2023-08-19T09:20:24Z</time>
      </trkpt>
      <trkpt lat="40.25261" lon="-1.83775">
        <ele>1246.7</ele>
        <time>2023-08-19T09:20:27Z</time>
      </trkpt>
      <trkpt lat="40.25231" lon="-1.83775">
        <ele>1246.3</ele>
        <time>2023-08-19T09:20:31Z</time>
      </trkpt>
      <trkpt lat="40.25209" lon="-1.83776">
        <ele>1246.9</ele>
        <time>2023-08-19T09:20:34Z</time>
      </trkpt>
      <trkpt lat="40.25181" lon="-1.83776">
        <ele>1246.7</ele>
        <time>2023-08-19T09:20:38Z</time>
      </trkpt>
      <trkpt lat="40.25151" lon="-1.83776">
        <ele>1246.5</ele>
        <time>2023-08-19T09:20:42Z</time>
      </trkpt>
      <trkpt lat="40.25129" lon="-1.83776">
        <ele>1246.7</ele>
        <time>2023-08-19T09:20:45Z</time>
      </trkpt>
      <trkpt lat="40.25101" lon="-1.83777">
        <ele>1245.7</ele>
        <time>2023-08-19T09:20:49Z</time>
      </trkpt>
      <trkpt lat="40.25072" lon="-1.83779">
        <ele>1245.6</ele>
        <time>2023-08-19T09:20:53Z</time>
      </trkpt>
      <trkpt lat="40.25043" lon="-1.83783">
        <ele>1245.2</ele>
        <time>2023-08-19T09:20:57Z</time>
      </trkpt>
      <trkpt lat="40.25014" lon="-1.83789">
        <ele>1245.2</ele>
        <time>2023-08-19T09:21:01Z</time>
      </trkpt>
      <trkpt lat="40.24986" lon="-1.83798">
        <ele>1246</ele>
        <time>2023-08-19T09:21:05Z</time>
      </trkpt>
      <trkpt lat="40.24967" lon="-1.83806">
        <ele>1245.8</ele>
        <time>2023-08-19T09:21:08Z</time>
      </trkpt>
      <trkpt lat="40.24945" lon="-1.83817">
        <ele>1245.4</ele>
        <time>2023-08-19T09:21:11Z</time>
      </trkpt>
      <trkpt lat="40.2492" lon="-1.83834">
        <ele>1245.9</ele>
        <time>2023-08-19T09:21:15Z</time>
      </trkpt>
      <trkpt lat="40.24902" lon="-1.83849">
        <ele>1245.4</ele>
        <time>2023-08-19T09:21:18Z</time>
      </trkpt>
      <trkpt lat="40.24882" lon="-1.83862">
        <ele>1245.4</ele>
        <time>2023-08-19T09:21:21Z</time>
      </trkpt>
      <trkpt lat="40.24858" lon="-1.83879">
        <ele>1245</ele>
        <time>2023-08-19T09:21:25Z</time>
      </trkpt>
      <trkpt lat="40.24839" lon="-1.83892">
        <ele>1245.3</ele>
        <time>2023-08-19T09:21:28Z</time>
      </trkpt>
      <trkpt lat="40.24819" lon="-1.83904">
        <ele>1245.3</ele>
        <time>2023-08-19T09:21:31Z</time>
      </trkpt>
      <trkpt lat="40.24792" lon="-1.83919">
        <ele>1245.6</ele>
        <time>2023-08-19T09:21:35Z</time>
      </trkpt>
      <trkpt lat="40.24763" lon="-1.83931">
        <ele>1245.5</ele>
        <time>2023-08-19T09:21:39Z</time>
      </trkpt>
      <trkpt lat="40.24742" lon="-1.83937">
        <ele>1246.1</ele>
        <time>2023-08-19T09:21:42Z</time>
      </trkpt>
      <trkpt lat="40.24723" lon="-1.83945">
        <ele>1246.5</ele>
        <time>2023-08-19T09:21:45Z</time>
      </trkpt>
      <trkpt lat="40.24694" lon="-1.83956">
        <ele>1247.2</ele>
        <time>2023-08-19T09:21:49Z</time>
      </trkpt>
      <trkpt lat="40.24666" lon="-1.83967">
        <ele>1247.5</ele>
        <time>2023-08-19T09:21:53Z</time>
      </trkpt>
      <trkpt lat="40.24637" lon="-1.83979">
        <ele>1248.1</ele>
        <time>2023-08-19T09:21:57Z</time>
      </trkpt>
      <trkpt lat="40.24616" lon="-1.83987">
        <ele>1248.5</ele>
        <time>2023-08-19T09:22:00Z</time>
      </trkpt>
      <trkpt lat="40.24588" lon="-1.83997">
        <ele>1248.3</ele>
        <time>2023-08-19T09:22:04Z</time>
      </trkpt>
      <trkpt lat="40.24562" lon="-1.84009">
        <ele>1248</ele>
        <time>2023-08-19T09:22:08Z</time>
      </trkpt>
      <trkpt lat="40.24536" lon="-1.84025">
        <ele>1247.3</ele>
        <time>2023-08-19T09:22:12Z</time>
      </trkpt>
      <trkpt lat="40.24509" lon="-1.8404">
        <ele>1246.1</ele>
        <time>2023-08-19T09:22:16Z</time>
      </trkpt>
      <trkpt lat="40.24481" lon="-1.84048">
        <ele>1246.4</ele>
        <time>2023-08-19T09:22:20Z</time>
      </trkpt>
      <trkpt lat="40.2445" lon="-1.84047">
        <ele>1246</ele>
        <time>2023-08-19T09:22:24Z</time>
      </trkpt>
      <trkpt lat="40.24418" lon="-1.84041">
        <ele>1245.5</ele>
        <time>2023-08-19T09:22:28Z</time>
      </trkpt>
      <trkpt lat="40.24397" lon="-1.84034">
        <ele>1245.9</ele>
        <time>2023-08-19T09:22:31Z</time>
      </trkpt>
      <trkpt lat="40.24376" lon="-1.84027">
        <ele>1246.9</ele>
        <time>2023-08-19T09:22:34Z</time>
      </trkpt>
      <trkpt lat="40.24348" lon="-1.84018">
        <ele>1246.9</ele>
        <time>2023-08-19T09:22:38Z</time>
      </trkpt>
      <trkpt lat="40.2432" lon="-1.84012">
        <ele>1245.4</ele>
        <time>2023-08-19T09:22:42Z</time>
      </trkpt>
      <trkpt lat="40.24292" lon="-1.8401">
        <ele>1245.3</ele>
        <time>2023-08-19T09:22:46Z</time>
      </trkpt>
      <trkpt lat="40.24271" lon="-1.84013">
        <ele>1244.9</ele>
        <time>2023-08-19T09:22:49Z</time>
      </trkpt>
      <trkpt lat="40.24243" lon="-1.8402">
        <ele>1244.4</ele>
        <time>2023-08-19T09:22:53Z</time>
      </trkpt>
      <trkpt lat="40.24216" lon="-1.84029">
        <ele>1244.4</ele>
        <time>2023-08-19T09:22:57Z</time>
      </trkpt>
      <trkpt lat="40.24187" lon="-1.84038">
        <ele>1243.4</ele>
        <time>2023-08-19T09:23:01Z</time>
      </trkpt>
      <trkpt lat="40.24156" lon="-1.84047">
        <ele>1243.5</ele>
        <time>2023-08-19T09:23:05Z</time>
      </trkpt>
      <trkpt lat="40.24135" lon="-1.84055">
        <ele>1244.1</ele>
        <time>2023-08-19T09:23:08Z</time>
      </trkpt>
      <trkpt lat="40.24107" lon="-1.84064">
        <ele>1243.8</ele>
        <time>2023-08-19T09:23:12Z</time>
      </trkpt>
      <trkpt lat="40.2408" lon="-1.84075">
        <ele>1242.7</ele>
        <time>2023-08-19T09:23:16Z</time>
      </trkpt>
      <trkpt lat="40.2406" lon="-1.84082">
        <ele>1243.8</ele>
        <time>2023-08-19T09:23:19Z</time>
      </trkpt>
      <trkpt lat="40.24036" lon="-1.84091">
        <ele>1244.1</ele>
        <time>2023-08-19T09:23:23Z</time>
      </trkpt>
      <trkpt lat="40.24015" lon="-1.84097">
        <ele>1244.6</ele>
        <time>2023-08-19T09:23:26Z</time>
      </trkpt>
      <trkpt lat="40.23992" lon="-1.84103">
        <ele>1244.5</ele>
        <time>2023-08-19T09:23:29Z</time>
      </trkpt>
      <trkpt lat="40.2396" lon="-1.84102">
        <ele>1245</ele>
        <time>2023-08-19T09:23:33Z</time>
      </trkpt>
      <trkpt lat="40.23929" lon="-1.84081">
        <ele>1245.4</ele>
        <time>2023-08-19T09:23:37Z</time>
      </trkpt>
      <trkpt lat="40.23907" lon="-1.8405">
        <ele>1244.9</ele>
        <time>2023-08-19T09:23:41Z</time>
      </trkpt>
      <trkpt lat="40.2389" lon="-1.84021">
        <ele>1244.7</ele>
        <time>2023-08-19T09:23:45Z</time>
      </trkpt>
      <trkpt lat="40.2387" lon="-1.83998">
        <ele>1245.1</ele>
        <time>2023-08-19T09:23:49Z</time>
      </trkpt>
      <trkpt lat="40.23852" lon="-1.83986">
        <ele>1245</ele>
        <time>2023-08-19T09:23:52Z</time>
      </trkpt>
      <trkpt lat="40.23824" lon="-1.83979">
        <ele>1245.3</ele>
        <time>2023-08-19T09:23:56Z</time>
      </trkpt>
      <trkpt lat="40.23795" lon="-1.83981">
        <ele>1244.7</ele>
        <time>2023-08-19T09:24:00Z</time>
      </trkpt>
      <trkpt lat="40.23774" lon="-1.83988">
        <ele>1244.7</ele>
        <time>2023-08-19T09:24:03Z</time>
      </trkpt>
      <trkpt lat="40.23742" lon="-1.83999">
        <ele>1244.7</ele>
        <time>2023-08-19T09:24:07Z</time>
      </trkpt>
      <trkpt lat="40.23714" lon="-1.84009">
        <ele>1244.2</ele>
        <time>2023-08-19T09:24:11Z</time>
      </trkpt>
      <trkpt lat="40.23686" lon="-1.84018">
        <ele>1244.1</ele>
        <time>2023-08-19T09:24:15Z</time>
      </trkpt>
      <trkpt lat="40.23658" lon="-1.84022">
        <ele>1244.7</ele>
        <time>2023-08-19T09:24:19Z</time>
      </trkpt>
      <trkpt lat="40.23636" lon="-1.84023">
        <ele>1245.9</ele>
        <time>2023-08-19T09:24:22Z</time>
      </trkpt>
      <trkpt lat="40.2361" lon="-1.84022">
        <ele>1247</ele>
        <time>2023-08-19T09:24:26Z</time>
      </trkpt>
      <trkpt lat="40.23582" lon="-1.84018">
        <ele>1248</ele>
        <time>2023-08-19T09:24:30Z</time>
      </trkpt>
      <trkpt lat="40.23555" lon="-1.84021">
        <ele>1248</ele>
        <time>2023-08-19T09:24:34Z</time>
      </trkpt>
      <trkpt lat="40.23533" lon="-1.84028">
        <ele>1247.6</ele>
        <time>2023-08-19T09:24:37Z</time>
      </trkpt>
      <trkpt lat="40.23507" lon="-1.84044">
        <ele>1247.4</ele>
        <time>2023-08-19T09:24:41Z</time>
      </trkpt>
      <trkpt lat="40.23483" lon="-1.84068">
        <ele>1246.9</ele>
        <time>2023-08-19T09:24:45Z</time>
      </trkpt>
      <trkpt lat="40.23466" lon="-1.84086">
        <ele>1247.3</ele>
        <time>2023-08-19T09:24:48Z</time>
      </trkpt>
      <trkpt lat="40.23443" lon="-1.84111">
        <ele>1247.3</ele>
        <time>2023-08-19T09:24:52Z</time>
      </trkpt>
      <trkpt lat="40.23418" lon="-1.84134">
        <ele>1246.4</ele>
        <time>2023-08-19T09:24:56Z</time>
      </trkpt>
      <trkpt lat="40.23393" lon="-1.8415">
        <ele>1245.5</ele>
        <time>2023-08-19T09:25:00Z</time>
      </trkpt>
      <trkpt lat="40.23372" lon="-1.84162">
        <ele>1246.2</ele>
        <time>2023-08-19T09:25:03Z</time>
      </trkpt>
      <trkpt lat="40.23346" lon="-1.84174">
        <ele>1245.5</ele>
        <time>2023-08-19T09:25:07Z</time>
      </trkpt>
      <trkpt lat="40.23327" lon="-1.84184">
        <ele>1245.1</ele>
        <time>2023-08-19T09:25:10Z</time>
      </trkpt>
      <trkpt lat="40.23307" lon="-1.84194">
        <ele>1245.2</ele>
        <time>2023-08-19T09:25:13Z</time>
      </trkpt>
      <trkpt lat="40.23279" lon="-1.84207">
        <ele>1244.8</ele>
        <time>2023-08-19T09:25:17Z</time>
      </trkpt>
      <trkpt lat="40.23258" lon="-1.84217">
        <ele>1244.8</ele>
        <time>2023-08-19T09:25:20Z</time>
      </trkpt>
      <trkpt lat="40.23237" lon="-1.84226">
        <ele>1244.5</ele>
        <time>2023-08-19T09:25:23Z</time>
      </trkpt>
      <trkpt lat="40.2321" lon="-1.84239">
        <ele>1244.4</ele>
        <time>2023-08-19T09:25:27Z</time>
      </trkpt>
      <trkpt lat="40.23183" lon="-1.84251">
        <ele>1244.6</ele>
        <time>2023-08-19T09:25:31Z</time>
      </trkpt>
      <trkpt lat="40.23154" lon="-1.84266">
        <ele>1243.9</ele>
        <time>2023-08-19T09:25:35Z</time>
      </trkpt>
      <trkpt lat="40.23122" lon="-1.84282">
        <ele>1244</ele>
        <time>2023-08-19T09:25:39Z</time>
      </trkpt>
      <trkpt lat="40.23094" lon="-1.84298">
        <ele>1243.9</ele>
        <time>2023-08-19T09:25:43Z</time>
      </trkpt>
      <trkpt lat="40.23069" lon="-1.84315">
        <ele>1244.4</ele>
        <time>2023-08-19T09:25:47Z</time>
      </trkpt>
      <trkpt lat="40.23051" lon="-1.8434">
        <ele>1244.8</ele>
        <time>2023-08-19T09:25:51Z</time>
      </trkpt>
      <trkpt lat="40.23032" lon="-1.8437">
        <ele>1244.7</ele>
        <time>2023-08-19T09:25:55Z</time>
      </trkpt>
      <trkpt lat="40.23015" lon="-1.84399">
        <ele>1243.7</ele>
        <time>2023-08-19T09:25:59Z</time>
      </trkpt>
      <trkpt lat="40.23002" lon="-1.84421">
        <ele>1243.2</ele>
        <time>2023-08-19T09:26:02Z</time>
      </trkpt>
      <trkpt lat="40.22983" lon="-1.84443">
        <ele>1241.2</ele>
        <time>2023-08-19T09:26:06Z</time>
      </trkpt>
      <trkpt lat="40.22961" lon="-1.84454">
        <ele>1241.1</ele>
        <time>2023-08-19T09:26:09Z</time>
      </trkpt>
      <trkpt lat="40.22929" lon="-1.84457">
        <ele>1240.3</ele>
        <time>2023-08-19T09:26:13Z</time>
      </trkpt>
      <trkpt lat="40.22907" lon="-1.84447">
        <ele>1240.5</ele>
        <time>2023-08-19T09:26:16Z</time>
      </trkpt>
      <trkpt lat="40.2288" lon="-1.84422">
        <ele>1240.5</ele>
        <time>2023-08-19T09:26:20Z</time>
      </trkpt>
      <trkpt lat="40.22854" lon="-1.84396">
        <ele>1241.3</ele>
        <time>2023-08-19T09:26:24Z</time>
      </trkpt>
      <trkpt lat="40.22837" lon="-1.84382">
        <ele>1240.4</ele>
        <time>2023-08-19T09:26:27Z</time>
      </trkpt>
      <trkpt lat="40.22817" lon="-1.84376">
        <ele>1241</ele>
        <time>2023-08-19T09:26:30Z</time>
      </trkpt>
      <trkpt lat="40.22792" lon="-1.84383">
        <ele>1241.2</ele>
        <time>2023-08-19T09:26:34Z</time>
      </trkpt>
      <trkpt lat="40.22772" lon="-1.84398">
        <ele>1241.5</ele>
        <time>2023-08-19T09:26:37Z</time>
      </trkpt>
      <trkpt lat="40.22747" lon="-1.84421">
        <ele>1241.1</ele>
        <time>2023-08-19T09:26:41Z</time>
      </trkpt>
      <trkpt lat="40.22728" lon="-1.84437">
        <ele>1241.6</ele>
        <time>2023-08-19T09:26:44Z</time>
      </trkpt>
      <trkpt lat="40.22702" lon="-1.84452">
        <ele>1242.5</ele>
        <time>2023-08-19T09:26:48Z</time>
      </trkpt>
      <trkpt lat="40.22673" lon="-1.8446">
        <ele>1242</ele>
        <time>2023-08-19T09:26:52Z</time>
      </trkpt>
      <trkpt lat="40.22651" lon="-1.84464">
        <ele>1242</ele>
        <time>2023-08-19T09:26:55Z</time>
      </trkpt>
      <trkpt lat="40.22622" lon="-1.84469">
        <ele>1242</ele>
        <time>2023-08-19T09:26:59Z</time>
      </trkpt>
      <trkpt lat="40.22592" lon="-1.84475">
        <ele>1241.6</ele>
        <time>2023-08-19T09:27:03Z</time>
      </trkpt>
      <trkpt lat="40.22565" lon="-1.8448">
        <ele>1241.7</ele>
        <time>2023-08-19T09:27:07Z</time>
      </trkpt>
      <trkpt lat="40.22544" lon="-1.84485">
        <ele>1241.2</ele>
        <time>2023-08-19T09:27:10Z</time>
      </trkpt>
      <trkpt lat="40.22515" lon="-1.8449">
        <ele>1240.8</ele>
        <time>2023-08-19T09:27:14Z</time>
      </trkpt>
      <trkpt lat="40.22493" lon="-1.84493">
        <ele>1241.8</ele>
        <time>2023-08-19T09:27:17Z</time>
      </trkpt>
      <trkpt lat="40.22465" lon="-1.845">
        <ele>1241.4</ele>
        <time>2023-08-19T09:27:21Z</time>
      </trkpt>
      <trkpt lat="40.22444" lon="-1.8451">
        <ele>1240.8</ele>
        <time>2023-08-19T09:27:24Z</time>
      </trkpt>
      <trkpt lat="40.2242" lon="-1.84532">
        <ele>1240</ele>
        <time>2023-08-19T09:27:28Z</time>
      </trkpt>
      <trkpt lat="40.22403" lon="-1.84561">
        <ele>1239</ele>
        <time>2023-08-19T09:27:32Z</time>
      </trkpt>
      <trkpt lat="40.22383" lon="-1.8459">
        <ele>1239.6</ele>
        <time>2023-08-19T09:27:36Z</time>
      </trkpt>
      <trkpt lat="40.22363" lon="-1.84617">
        <ele>1239.1</ele>
        <time>2023-08-19T09:27:40Z</time>
      </trkpt>
      <trkpt lat="40.22348" lon="-1.84638">
        <ele>1238.9</ele>
        <time>2023-08-19T09:27:43Z</time>
      </trkpt>
      <trkpt lat="40.22335" lon="-1.84663">
        <ele>1238.5</ele>
        <time>2023-08-19T09:27:46Z</time>
      </trkpt>
      <trkpt lat="40.22323" lon="-1.84699">
        <ele>1237.6</ele>
        <time>2023-08-19T09:27:50Z</time>
      </trkpt>
      <trkpt lat="40.22313" lon="-1.84738">
        <ele>1236.5</ele>
        <time>2023-08-19T09:27:54Z</time>
      </trkpt>
      <trkpt lat="40.22301" lon="-1.84774">
        <ele>1235.4</ele>
        <time>2023-08-19T09:27:58Z</time>
      </trkpt>
      <trkpt lat="40.22287" lon="-1.84806">
        <ele>1234.6</ele>
        <time>2023-08-19T09:28:02Z</time>
      </trkpt>
      <trkpt lat="40.22274" lon="-1.84827">
        <ele>1234.6</ele>
        <time>2023-08-19T09:28:05Z</time>
      </trkpt>
      <trkpt lat="40.22253" lon="-1.84851">
        <ele>1233.3</ele>
        <time>2023-08-19T09:28:09Z</time>
      </trkpt>
      <trkpt lat="40.2223" lon="-1.84873">
        <ele>1233.1</ele>
        <time>2023-08-19T09:28:13Z</time>
      </trkpt>
      <trkpt lat="40.22204" lon="-1.84892">
        <ele>1232.6</ele>
        <time>2023-08-19T09:28:17Z</time>
      </trkpt>
      <trkpt lat="40.22186" lon="-1.84907">
        <ele>1232.5</ele>
        <time>2023-08-19T09:28:20Z</time>
      </trkpt>
      <trkpt lat="40.22167" lon="-1.8492">
        <ele>1231.3</ele>
        <time>2023-08-19T09:28:23Z</time>
      </trkpt>
      <trkpt lat="40.22141" lon="-1.84936">
        <ele>1230.6</ele>
        <time>2023-08-19T09:28:27Z</time>
      </trkpt>
      <trkpt lat="40.22122" lon="-1.84947">
        <ele>1230.6</ele>
        <time>2023-08-19T09:28:30Z</time>
      </trkpt>
      <trkpt lat="40.22102" lon="-1.84958">
        <ele>1231.7</ele>
        <time>2023-08-19T09:28:33Z</time>
      </trkpt>
      <trkpt lat="40.22075" lon="-1.84973">
        <ele>1231.6</ele>
        <time>2023-08-19T09:28:37Z</time>
      </trkpt>
      <trkpt lat="40.22048" lon="-1.8499">
        <ele>1231.9</ele>
        <time>2023-08-19T09:28:41Z</time>
      </trkpt>
      <trkpt lat="40.22021" lon="-1.85007">
        <ele>1231.7</ele>
        <time>2023-08-19T09:28:45Z</time>
      </trkpt>
      <trkpt lat="40.21994" lon="-1.85022">
        <ele>1231.8</ele>
        <time>2023-08-19T09:28:49Z</time>
      </trkpt>
      <trkpt lat="40.21974" lon="-1.85034">
        <ele>1231</ele>
        <time>2023-08-19T09:28:52Z</time>
      </trkpt>
      <trkpt lat="40.21947" lon="-1.85049">
        <ele>1230.5</ele>
        <time>2023-08-19T09:28:56Z</time>
      </trkpt>
      <trkpt lat="40.21926" lon="-1.8506">
        <ele>1230.6</ele>
        <time>2023-08-19T09:28:59Z</time>
      </trkpt>
      <trkpt lat="40.21906" lon="-1.8507">
        <ele>1230.9</ele>
        <time>2023-08-19T09:29:02Z</time>
      </trkpt>
      <trkpt lat="40.2188" lon="-1.85084">
        <ele>1231.1</ele>
        <time>2023-08-19T09:29:06Z</time>
      </trkpt>
      <trkpt lat="40.21859" lon="-1.85092">
        <ele>1231.3</ele>
        <time>2023-08-19T09:29:09Z</time>
      </trkpt>
      <trkpt lat="40.21834" lon="-1.85096">
        <ele>1231</ele>
        <time>2023-08-19T09:29:13Z</time>
      </trkpt>
      <trkpt lat="40.21806" lon="-1.85087">
        <ele>1231.3</ele>
        <time>2023-08-19T09:29:17Z</time>
      </trkpt>
      <trkpt lat="40.21784" lon="-1.85077">
        <ele>1231</ele>
        <time>2023-08-19T09:29:20Z</time>
      </trkpt>
      <trkpt lat="40.21755" lon="-1.8507">
        <ele>1229.9</ele>
        <time>2023-08-19T09:29:24Z</time>
      </trkpt>
      <trkpt lat="40.21727" lon="-1.85064">
        <ele>1232.1</ele>
        <time>2023-08-19T09:29:28Z</time>
      </trkpt>
      <trkpt lat="40.21704" lon="-1.85068">
        <ele>1232.9</ele>
        <time>2023-08-19T09:29:31Z</time>
      </trkpt>
      <trkpt lat="40.21679" lon="-1.8509">
        <ele>1233.8</ele>
        <time>2023-08-19T09:29:35Z</time>
      </trkpt>
      <trkpt lat="40.21663" lon="-1.85125">
        <ele>1234</ele>
        <time>2023-08-19T09:29:39Z</time>
      </trkpt>
      <trkpt lat="40.21659" lon="-1.85164">
        <ele>1234</ele>
        <time>2023-08-19T09:29:43Z</time>
      </trkpt>
      <trkpt lat="40.21662" lon="-1.852">
        <ele>1233.7</ele>
        <time>2023-08-19T09:29:47Z</time>
      </trkpt>
      <trkpt lat="40.21663" lon="-1.85236">
        <ele>1232.4</ele>
        <time>2023-08-19T09:29:51Z</time>
      </trkpt>
      <trkpt lat="40.2166" lon="-1.85264">
        <ele>1231.9</ele>
        <time>2023-08-19T09:29:54Z</time>
      </trkpt>
      <trkpt lat="40.21656" lon="-1.85293">
        <ele>1232.7</ele>
        <time>2023-08-19T09:29:57Z</time>
      </trkpt>
      <trkpt lat="40.21662" lon="-1.85331">
        <ele>1231.9</ele>
        <time>2023-08-19T09:30:01Z</time>
      </trkpt>
      <trkpt lat="40.21668" lon="-1.85365">
        <ele>1231.4</ele>
        <time>2023-08-19T09:30:05Z</time>
      </trkpt>
      <trkpt lat="40.2167" lon="-1.85402">
        <ele>1230.8</ele>
        <time>2023-08-19T09:30:09Z</time>
      </trkpt>
      <trkpt lat="40.2167" lon="-1.85443">
        <ele>1231.4</ele>
        <time>2023-08-19T09:30:13Z</time>
      </trkpt>
      <trkpt lat="40.21665" lon="-1.85474">
        <ele>1232</ele>
        <time>2023-08-19T09:30:16Z</time>
      </trkpt>
      <trkpt lat="40.21659" lon="-1.85502">
        <ele>1231.5</ele>
        <time>2023-08-19T09:30:19Z</time>
      </trkpt>
      <trkpt lat="40.21647" lon="-1.85533">
        <ele>1230.8</ele>
        <time>2023-08-19T09:30:23Z</time>
      </trkpt>
      <trkpt lat="40.21631" lon="-1.85562">
        <ele>1231.6</ele>
        <time>2023-08-19T09:30:27Z</time>
      </trkpt>
      <trkpt lat="40.21613" lon="-1.85579">
        <ele>1231.6</ele>
        <time>2023-08-19T09:30:30Z</time>
      </trkpt>
      <trkpt lat="40.21586" lon="-1.856">
        <ele>1231.9</ele>
        <time>2023-08-19T09:30:34Z</time>
      </trkpt>
      <trkpt lat="40.21566" lon="-1.85615">
        <ele>1232.2</ele>
        <time>2023-08-19T09:30:37Z</time>
      </trkpt>
      <trkpt lat="40.21546" lon="-1.85629">
        <ele>1232.1</ele>
        <time>2023-08-19T09:30:40Z</time>
      </trkpt>
      <trkpt lat="40.21521" lon="-1.85651">
        <ele>1232.8</ele>
        <time>2023-08-19T09:30:44Z</time>
      </trkpt>
      <trkpt lat="40.21501" lon="-1.85666">
        <ele>1233.1</ele>
        <time>2023-08-19T09:30:47Z</time>
      </trkpt>
      <trkpt lat="40.21476" lon="-1.85686">
        <ele>1232</ele>
        <time>2023-08-19T09:30:51Z</time>
      </trkpt>
      <trkpt lat="40.21453" lon="-1.85707">
        <ele>1232.5</ele>
        <time>2023-08-19T09:30:55Z</time>
      </trkpt>
      <trkpt lat="40.21429" lon="-1.85726">
        <ele>1232.7</ele>
        <time>2023-08-19T09:30:59Z</time>
      </trkpt>
      <trkpt lat="40.21404" lon="-1.85746">
        <ele>1233</ele>
        <time>2023-08-19T09:31:03Z</time>
      </trkpt>
      <trkpt lat="40.2138" lon="-1.85768">
        <ele>1233.1</ele>
        <time>2023-08-19T09:31:07Z</time>
      </trkpt>
      <trkpt lat="40.21363" lon="-1.85785">
        <ele>1233.8</ele>
        <time>2023-08-19T09:31:10Z</time>
      </trkpt>
      <trkpt lat="40.21348" lon="-1.85804">
        <ele>1234.9</ele>
        <time>2023-08-19T09:31:13Z</time>
      </trkpt>
      <trkpt lat="40.21329" lon="-1.8583">
        <ele>1235.5</ele>
        <time>2023-08-19T09:31:17Z</time>
      </trkpt>
      <trkpt lat="40.21317" lon="-1.85861">
        <ele>1236.2</ele>
        <time>2023-08-19T09:31:21Z</time>
      </trkpt>
      <trkpt lat="40.21315" lon="-1.8589">
        <ele>1237.8</ele>
        <time>2023-08-19T09:31:24Z</time>
      </trkpt>
      <trkpt lat="40.21316" lon="-1.85927">
        <ele>1239.3</ele>
        <time>2023-08-19T09:31:28Z</time>
      </trkpt>
      <trkpt lat="40.21318" lon="-1.85958">
        <ele>1238.9</ele>
        <time>2023-08-19T09:31:31Z</time>
      </trkpt>
      <trkpt lat="40.21322" lon="-1.85998">
        <ele>1238.8</ele>
        <time>2023-08-19T09:31:35Z</time>
      </trkpt>
      <trkpt lat="40.21325" lon="-1.86035">
        <ele>1239</ele>
        <time>2023-08-19T09:31:39Z</time>
      </trkpt>
      <trkpt lat="40.21325" lon="-1.8607">
        <ele>1238.8</ele>
        <time>2023-08-19T09:31:43Z</time>
      </trkpt>
      <trkpt lat="40.21323" lon="-1.86097">
        <ele>1239.4</ele>
        <time>2023-08-19T09:31:46Z</time>
      </trkpt>
      <trkpt lat="40.21317" lon="-1.86133">
        <ele>1238.5</ele>
        <time>2023-08-19T09:31:50Z</time>
      </trkpt>
      <trkpt lat="40.21306" lon="-1.86158">
        <ele>1238.9</ele>
        <time>2023-08-19T09:31:53Z</time>
      </trkpt>
      <trkpt lat="40.21284" lon="-1.86187">
        <ele>1239.3</ele>
        <time>2023-08-19T09:31:57Z</time>
      </trkpt>
      <trkpt lat="40.21264" lon="-1.86215">
        <ele>1239.7</ele>
        <time>2023-08-19T09:32:01Z</time>
      </trkpt>
      <trkpt lat="40.21247" lon="-1.86248">
        <ele>1239.3</ele>
        <time>2023-08-19T09:32:05Z</time>
      </trkpt>
      <trkpt lat="40.21237" lon="-1.86274">
        <ele>1239.2</ele>
        <time>2023-08-19T09:32:08Z</time>
      </trkpt>
      <trkpt lat="40.21226" lon="-1.86311">
        <ele>1239.6</ele>
        <time>2023-08-19T09:32:12Z</time>
      </trkpt>
      <trkpt lat="40.21219" lon="-1.86351">
        <ele>1238.8</ele>
        <time>2023-08-19T09:32:16Z</time>
      </trkpt>
      <trkpt lat="40.21215" lon="-1.86379">
        <ele>1237.9</ele>
        <time>2023-08-19T09:32:19Z</time>
      </trkpt>
      <trkpt lat="40.21211" lon="-1.86414">
        <ele>1238.7</ele>
        <time>2023-08-19T09:32:23Z</time>
      </trkpt>
      <trkpt lat="40.21214" lon="-1.8645">
        <ele>1238.6</ele>
        <time>2023-08-19T09:32:27Z</time>
      </trkpt>
      <trkpt lat="40.21221" lon="-1.86486">
        <ele>1238.8</ele>
        <time>2023-08-19T09:32:31Z</time>
      </trkpt>
      <trkpt lat="40.21227" lon="-1.86513">
        <ele>1238.6</ele>
        <time>2023-08-19T09:32:34Z</time>
      </trkpt>
      <trkpt lat="40.21235" lon="-1.86546">
        <ele>1238.4</ele>
        <time>2023-08-19T09:32:38Z</time>
      </trkpt>
      <trkpt lat="40.21243" lon="-1.86581">
        <ele>1239.3</ele>
        <time>2023-08-19T09:32:42Z</time>
      </trkpt>
      <trkpt lat="40.21249" lon="-1.86611">
        <ele>1239.2</ele>
        <time>2023-08-19T09:32:45Z</time>
      </trkpt>
      <trkpt lat="40.21255" lon="-1.8664">
        <ele>1238.2</ele>
        <time>2023-08-19T09:32:48Z</time>
      </trkpt>
      <trkpt lat="40.21263" lon="-1.86678">
        <ele>1238.6</ele>
        <time>2023-08-19T09:32:52Z</time>
      </trkpt>
      <trkpt lat="40.21266" lon="-1.86706">
        <ele>1239.2</ele>
        <time>2023-08-19T09:32:55Z</time>
      </trkpt>
      <trkpt lat="40.21272" lon="-1.86749">
        <ele>1239.2</ele>
        <time>2023-08-19T09:32:59Z</time>
      </trkpt>
      <trkpt lat="40.21277" lon="-1.86791">
        <ele>1240</ele>
        <time>2023-08-19T09:33:03Z</time>
      </trkpt>
      <trkpt lat="40.2128" lon="-1.86817">
        <ele>1239.9</ele>
        <time>2023-08-19T09:33:06Z</time>
      </trkpt>
      <trkpt lat="40.21282" lon="-1.86852">
        <ele>1239.9</ele>
        <time>2023-08-19T09:33:10Z</time>
      </trkpt>
      <trkpt lat="40.21281" lon="-1.86889">
        <ele>1238.7</ele>
        <time>2023-08-19T09:33:14Z</time>
      </trkpt>
      <trkpt lat="40.21277" lon="-1.86924">
        <ele>1239.3</ele>
        <time>2023-08-19T09:33:18Z</time>
      </trkpt>
      <trkpt lat="40.21273" lon="-1.8696">
        <ele>1240.5</ele>
        <time>2023-08-19T09:33:22Z</time>
      </trkpt>
      <trkpt lat="40.21266" lon="-1.86995">
        <ele>1239.8</ele>
        <time>2023-08-19T09:33:26Z</time>
      </trkpt>
      <trkpt lat="40.21258" lon="-1.87029">
        <ele>1239.6</ele>
        <time>2023-08-19T09:33:30Z</time>
      </trkpt>
      <trkpt lat="40.21248" lon="-1.87064">
        <ele>1240.2</ele>
        <time>2023-08-19T09:33:34Z</time>
      </trkpt>
      <trkpt lat="40.2124" lon="-1.87091">
        <ele>1241.1</ele>
        <time>2023-08-19T09:33:37Z</time>
      </trkpt>
      <trkpt lat="40.2123" lon="-1.87124">
        <ele>1241.2</ele>
        <time>2023-08-19T09:33:41Z</time>
      </trkpt>
      <trkpt lat="40.21224" lon="-1.87146">
        <ele>1241.8</ele>
        <time>2023-08-19T09:33:44Z</time>
      </trkpt>
      <trkpt lat="40.21215" lon="-1.8717">
        <ele>1243</ele>
        <time>2023-08-19T09:33:47Z</time>
      </trkpt>
      <trkpt lat="40.21202" lon="-1.87201">
        <ele>1244.7</ele>
        <time>2023-08-19T09:33:51Z</time>
      </trkpt>
      <trkpt lat="40.2119" lon="-1.87238">
        <ele>1246.4</ele>
        <time>2023-08-19T09:33:55Z</time>
      </trkpt>
      <trkpt lat="40.2118" lon="-1.87276">
        <ele>1248</ele>
        <time>2023-08-19T09:33:59Z</time>
      </trkpt>
      <trkpt lat="40.21173" lon="-1.87304">
        <ele>1247.6</ele>
        <time>2023-08-19T09:34:02Z</time>
      </trkpt>
      <trkpt lat="40.21169" lon="-1.87346">
        <ele>1248.8</ele>
        <time>2023-08-19T09:34:06Z</time>
      </trkpt>
      <trkpt lat="40.21173" lon="-1.87373">
        <ele>1248.5</ele>
        <time>2023-08-19T09:34:09Z</time>
      </trkpt>
      <trkpt lat="40.21185" lon="-1.87411">
        <ele>1244.2</ele>
        <time>2023-08-19T09:34:13Z</time>
      </trkpt>
      <trkpt lat="40.21199" lon="-1.87443">
        <ele>1243.6</ele>
        <time>2023-08-19T09:34:17Z</time>
      </trkpt>
      <trkpt lat="40.21213" lon="-1.87462">
        <ele>1241.9</ele>
        <time>2023-08-19T09:34:20Z</time>
      </trkpt>
      <trkpt lat="40.21233" lon="-1.87491">
        <ele>1240.3</ele>
        <time>2023-08-19T09:34:24Z</time>
      </trkpt>
      <trkpt lat="40.21244" lon="-1.87517">
        <ele>1238.8</ele>
        <time>2023-08-19T09:34:27Z</time>
      </trkpt>
      <trkpt lat="40.21255" lon="-1.87551">
        <ele>1236.6</ele>
        <time>2023-08-19T09:34:31Z</time>
      </trkpt>
      <trkpt lat="40.21267" lon="-1.87586">
        <ele>1234.7</ele>
        <time>2023-08-19T09:34:35Z</time>
      </trkpt>
      <trkpt lat="40.21276" lon="-1.87611">
        <ele>1233.9</ele>
        <time>2023-08-19T09:34:38Z</time>
      </trkpt>
      <trkpt lat="40.21287" lon="-1.87645">
        <ele>1231.7</ele>
        <time>2023-08-19T09:34:42Z</time>
      </trkpt>
      <trkpt lat="40.21295" lon="-1.87668">
        <ele>1231.8</ele>
        <time>2023-08-19T09:34:45Z</time>
      </trkpt>
      <trkpt lat="40.2131" lon="-1.87699">
        <ele>1232.6</ele>
        <time>2023-08-19T09:34:49Z</time>
      </trkpt>
      <trkpt lat="40.21322" lon="-1.87725">
        <ele>1232.4</ele>
        <time>2023-08-19T09:34:52Z</time>
      </trkpt>
      <trkpt lat="40.21339" lon="-1.87758">
        <ele>1231.8</ele>
        <time>2023-08-19T09:34:56Z</time>
      </trkpt>
      <trkpt lat="40.21357" lon="-1.87788">
        <ele>1231.9</ele>
        <time>2023-08-19T09:35:00Z</time>
      </trkpt>
      <trkpt lat="40.21375" lon="-1.87817">
        <ele>1231.7</ele>
        <time>2023-08-19T09:35:04Z</time>
      </trkpt>
      <trkpt lat="40.21397" lon="-1.87847">
        <ele>1232</ele>
        <time>2023-08-19T09:35:08Z</time>
      </trkpt>
      <trkpt lat="40.21417" lon="-1.87874">
        <ele>1230.9</ele>
        <time>2023-08-19T09:35:12Z</time>
      </trkpt>
      <trkpt lat="40.21434" lon="-1.87894">
        <ele>1231.4</ele>
        <time>2023-08-19T09:35:15Z</time>
      </trkpt>
      <trkpt lat="40.21455" lon="-1.8792">
        <ele>1231.6</ele>
        <time>2023-08-19T09:35:19Z</time>
      </trkpt>
      <trkpt lat="40.21478" lon="-1.87943">
        <ele>1231.3</ele>
        <time>2023-08-19T09:35:23Z</time>
      </trkpt>
      <trkpt lat="40.21501" lon="-1.87963">
        <ele>1231.3</ele>
        <time>2023-08-19T09:35:27Z</time>
      </trkpt>
      <trkpt lat="40.21518" lon="-1.87976">
        <ele>1231.2</ele>
        <time>2023-08-19T09:35:30Z</time>
      </trkpt>
      <trkpt lat="40.21534" lon="-1.87991">
        <ele>1231</ele>
        <time>2023-08-19T09:35:33Z</time>
      </trkpt>
      <trkpt lat="40.21555" lon="-1.88021">
        <ele>1232.1</ele>
        <time>2023-08-19T09:35:37Z</time>
      </trkpt>
      <trkpt lat="40.21571" lon="-1.88055">
        <ele>1230.4</ele>
        <time>2023-08-19T09:35:41Z</time>
      </trkpt>
      <trkpt lat="40.21585" lon="-1.88088">
        <ele>1231.3</ele>
        <time>2023-08-19T09:35:45Z</time>
      </trkpt>
      <trkpt lat="40.21595" lon="-1.88113">
        <ele>1231.9</ele>
        <time>2023-08-19T09:35:48Z</time>
      </trkpt>
      <trkpt lat="40.21607" lon="-1.88146">
        <ele>1232.6</ele>
        <time>2023-08-19T09:35:52Z</time>
      </trkpt>
      <trkpt lat="40.2162" lon="-1.8818">
        <ele>1232.3</ele>
        <time>2023-08-19T09:35:56Z</time>
      </trkpt>
      <trkpt lat="40.21631" lon="-1.88214">
        <ele>1232.8</ele>
        <time>2023-08-19T09:36:00Z</time>
      </trkpt>
      <trkpt lat="40.21647" lon="-1.88247">
        <ele>1233.7</ele>
        <time>2023-08-19T09:36:04Z</time>
      </trkpt>
      <trkpt lat="40.21663" lon="-1.88266">
        <ele>1234</ele>
        <time>2023-08-19T09:36:07Z</time>
      </trkpt>
      <trkpt lat="40.21692" lon="-1.88271">
        <ele>1233.6</ele>
        <time>2023-08-19T09:36:11Z</time>
      </trkpt>
      <trkpt lat="40.21715" lon="-1.88259">
        <ele>1234</ele>
        <time>2023-08-19T09:36:14Z</time>
      </trkpt>
      <trkpt lat="40.21743" lon="-1.88241">
        <ele>1233.6</ele>
        <time>2023-08-19T09:36:18Z</time>
      </trkpt>
      <trkpt lat="40.21772" lon="-1.88226">
        <ele>1233.1</ele>
        <time>2023-08-19T09:36:22Z</time>
      </trkpt>
      <trkpt lat="40.21791" lon="-1.88221">
        <ele>1232.3</ele>
        <time>2023-08-19T09:36:25Z</time>
      </trkpt>
      <trkpt lat="40.21819" lon="-1.88224">
        <ele>1232.3</ele>
        <time>2023-08-19T09:36:29Z</time>
      </trkpt>
      <trkpt lat="40.21847" lon="-1.88236">
        <ele>1232</ele>
        <time>2023-08-19T09:36:33Z</time>
      </trkpt>
      <trkpt lat="40.21865" lon="-1.88251">
        <ele>1230.6</ele>
        <time>2023-08-19T09:36:36Z</time>
      </trkpt>
      <trkpt lat="40.21883" lon="-1.88272">
        <ele>1229.9</ele>
        <time>2023-08-19T09:36:39Z</time>
      </trkpt>
      <trkpt lat="40.21901" lon="-1.88303">
        <ele>1229.2</ele>
        <time>2023-08-19T09:36:43Z</time>
      </trkpt>
      <trkpt lat="40.21909" lon="-1.88328">
        <ele>1228.9</ele>
        <time>2023-08-19T09:36:46Z</time>
      </trkpt>
      <trkpt lat="40.21914" lon="-1.88353">
        <ele>1228.9</ele>
        <time>2023-08-19T09:36:49Z</time>
      </trkpt>
      <trkpt lat="40.21915" lon="-1.88388">
        <ele>1230.3</ele>
        <time>2023-08-19T09:36:53Z</time>
      </trkpt>
      <trkpt lat="40.21911" lon="-1.88426">
        <ele>1232.2</ele>
        <time>2023-08-19T09:36:57Z</time>
      </trkpt>
      <trkpt lat="40.21904" lon="-1.88452">
        <ele>1232.9</ele>
        <time>2023-08-19T09:37:00Z</time>
      </trkpt>
      <trkpt lat="40.21892" lon="-1.88477">
        <ele>1234.5</ele>
        <time>2023-08-19T09:37:03Z</time>
      </trkpt>
      <trkpt lat="40.21879" lon="-1.88497">
        <ele>1235.7</ele>
        <time>2023-08-19T09:37:06Z</time>
      </trkpt>
      <trkpt lat="40.21859" lon="-1.88523">
        <ele>1237.5</ele>
        <time>2023-08-19T09:37:10Z</time>
      </trkpt>
      <trkpt lat="40.21838" lon="-1.88551">
        <ele>1241</ele>
        <time>2023-08-19T09:37:14Z</time>
      </trkpt>
      <trkpt lat="40.21817" lon="-1.88576">
        <ele>1243.1</ele>
        <time>2023-08-19T09:37:18Z</time>
      </trkpt>
      <trkpt lat="40.21804" lon="-1.88597">
        <ele>1245.3</ele>
        <time>2023-08-19T09:37:21Z</time>
      </trkpt>
      <trkpt lat="40.21789" lon="-1.88627">
        <ele>1247.6</ele>
        <time>2023-08-19T09:37:25Z</time>
      </trkpt>
      <trkpt lat="40.21781" lon="-1.88655">
        <ele>1249.3</ele>
        <time>2023-08-19T09:37:28Z</time>
      </trkpt>
      <trkpt lat="40.2178" lon="-1.88693">
        <ele>1249.9</ele>
        <time>2023-08-19T09:37:32Z</time>
      </trkpt>
      <trkpt lat="40.21782" lon="-1.88721">
        <ele>1250.7</ele>
        <time>2023-08-19T09:37:35Z</time>
      </trkpt>
      <trkpt lat="40.21783" lon="-1.88748">
        <ele>1251.9</ele>
        <time>2023-08-19T09:37:38Z</time>
      </trkpt>
      <trkpt lat="40.21785" lon="-1.88785">
        <ele>1253.9</ele>
        <time>2023-08-19T09:37:42Z</time>
      </trkpt>
      <trkpt lat="40.21785" lon="-1.88826">
        <ele>1253.8</ele>
        <time>2023-08-19T09:37:46Z</time>
      </trkpt>
      <trkpt lat="40.2178" lon="-1.88858">
        <ele>1254.5</ele>
        <time>2023-08-19T09:37:49Z</time>
      </trkpt>
      <trkpt lat="40.21769" lon="-1.88888">
        <ele>1254.9</ele>
        <time>2023-08-19T09:37:52Z</time>
      </trkpt>
      <trkpt lat="40.21754" lon="-1.88914">
        <ele>1255.6</ele>
        <time>2023-08-19T09:37:55Z</time>
      </trkpt>
      <trkpt lat="40.21734" lon="-1.88938">
        <ele>1255</ele>
        <time>2023-08-19T09:37:59Z</time>
      </trkpt>
      <trkpt lat="40.21719" lon="-1.88959">
        <ele>1253.3</ele>
        <time>2023-08-19T09:38:02Z</time>
      </trkpt>
      <trkpt lat="40.21702" lon="-1.8899">
        <ele>1251.5</ele>
        <time>2023-08-19T09:38:06Z</time>
      </trkpt>
      <trkpt lat="40.2169" lon="-1.89023">
        <ele>1249.4</ele>
        <time>2023-08-19T09:38:10Z</time>
      </trkpt>
      <trkpt lat="40.21682" lon="-1.89048">
        <ele>1249.5</ele>
        <time>2023-08-19T09:38:13Z</time>
      </trkpt>
      <trkpt lat="40.21672" lon="-1.89082">
        <ele>1248.4</ele>
        <time>2023-08-19T09:38:17Z</time>
      </trkpt>
      <trkpt lat="40.21663" lon="-1.89108">
        <ele>1248.8</ele>
        <time>2023-08-19T09:38:20Z</time>
      </trkpt>
      <trkpt lat="40.21653" lon="-1.89143">
        <ele>1249.2</ele>
        <time>2023-08-19T09:38:24Z</time>
      </trkpt>
      <trkpt lat="40.21645" lon="-1.8917">
        <ele>1248.6</ele>
        <time>2023-08-19T09:38:27Z</time>
      </trkpt>
      <trkpt lat="40.21634" lon="-1.89209">
        <ele>1246.8</ele>
        <time>2023-08-19T09:38:31Z</time>
      </trkpt>
      <trkpt lat="40.21628" lon="-1.89247">
        <ele>1244.6</ele>
        <time>2023-08-19T09:38:35Z</time>
      </trkpt>
      <trkpt lat="40.21623" lon="-1.89284">
        <ele>1242.5</ele>
        <time>2023-08-19T09:38:39Z</time>
      </trkpt>
      <trkpt lat="40.21621" lon="-1.89312">
        <ele>1242</ele>
        <time>2023-08-19T09:38:42Z</time>
      </trkpt>
      <trkpt lat="40.21619" lon="-1.8935">
        <ele>1240.6</ele>
        <time>2023-08-19T09:38:46Z</time>
      </trkpt>
      <trkpt lat="40.21618" lon="-1.89377">
        <ele>1240</ele>
        <time>2023-08-19T09:38:49Z</time>
      </trkpt>
      <trkpt lat="40.21618" lon="-1.89405">
        <ele>1239.4</ele>
        <time>2023-08-19T09:38:52Z</time>
      </trkpt>
      <trkpt lat="40.21618" lon="-1.89434">
        <ele>1238.4</ele>
        <time>2023-08-19T09:38:55Z</time>
      </trkpt>
      <trkpt lat="40.21618" lon="-1.89473">
        <ele>1236.8</ele>
        <time>2023-08-19T09:38:59Z</time>
      </trkpt>
      <trkpt lat="40.21617" lon="-1.89514">
        <ele>1234.2</ele>
        <time>2023-08-19T09:39:03Z</time>
      </trkpt>
      <trkpt lat="40.21613" lon="-1.89552">
        <ele>1233.1</ele>
        <time>2023-08-19T09:39:07Z</time>
      </trkpt>
      <trkpt lat="40.21602" lon="-1.89586">
        <ele>1232.9</ele>
        <time>2023-08-19T09:39:11Z</time>
      </trkpt>
      <trkpt lat="40.21586" lon="-1.89614">
        <ele>1232.9</ele>
        <time>2023-08-19T09:39:15Z</time>
      </trkpt>
      <trkpt lat="40.21567" lon="-1.8964">
        <ele>1233.4</ele>
        <time>2023-08-19T09:39:19Z</time>
      </trkpt>
      <trkpt lat="40.21555" lon="-1.89663">
        <ele>1234.3</ele>
        <time>2023-08-19T09:39:22Z</time>
      </trkpt>
      <trkpt lat="40.21544" lon="-1.89698">
        <ele>1232.8</ele>
        <time>2023-08-19T09:39:26Z</time>
      </trkpt>
      <trkpt lat="40.21537" lon="-1.89726">
        <ele>1233.1</ele>
        <time>2023-08-19T09:39:29Z</time>
      </trkpt>
      <trkpt lat="40.2153" lon="-1.89763">
        <ele>1232.7</ele>
        <time>2023-08-19T09:39:33Z</time>
      </trkpt>
      <trkpt lat="40.21525" lon="-1.89801">
        <ele>1232.1</ele>
        <time>2023-08-19T09:39:37Z</time>
      </trkpt>
      <trkpt lat="40.21517" lon="-1.89839">
        <ele>1232.1</ele>
        <time>2023-08-19T09:39:41Z</time>
      </trkpt>
      <trkpt lat="40.215" lon="-1.89873">
        <ele>1231.1</ele>
        <time>2023-08-19T09:39:45Z</time>
      </trkpt>
      <trkpt lat="40.21474" lon="-1.89895">
        <ele>1231.3</ele>
        <time>2023-08-19T09:39:49Z</time>
      </trkpt>
      <trkpt lat="40.21443" lon="-1.89902">
        <ele>1230.1</ele>
        <time>2023-08-19T09:39:53Z</time>
      </trkpt>
      <trkpt lat="40.21413" lon="-1.89905">
        <ele>1229.3</ele>
        <time>2023-08-19T09:39:57Z</time>
      </trkpt>
      <trkpt lat="40.21391" lon="-1.89909">
        <ele>1229</ele>
        <time>2023-08-19T09:40:00Z</time>
      </trkpt>
      <trkpt lat="40.21369" lon="-1.89911">
        <ele>1228.5</ele>
        <time>2023-08-19T09:40:03Z</time>
      </trkpt>
      <trkpt lat="40.21341" lon="-1.89913">
        <ele>1228.3</ele>
        <time>2023-08-19T09:40:07Z</time>
      </trkpt>
      <trkpt lat="40.21314" lon="-1.89919">
        <ele>1228.3</ele>
        <time>2023-08-19T09:40:11Z</time>
      </trkpt>
      <trkpt lat="40.21289" lon="-1.89933">
        <ele>1229.2</ele>
        <time>2023-08-19T09:40:15Z</time>
      </trkpt>
      <trkpt lat="40.21264" lon="-1.89954">
        <ele>1230.8</ele>
        <time>2023-08-19T09:40:19Z</time>
      </trkpt>
      <trkpt lat="40.21242" lon="-1.89982">
        <ele>1229.4</ele>
        <time>2023-08-19T09:40:23Z</time>
      </trkpt>
      <trkpt lat="40.2123" lon="-1.90007">
        <ele>1229.9</ele>
        <time>2023-08-19T09:40:26Z</time>
      </trkpt>
      <trkpt lat="40.21214" lon="-1.90039">
        <ele>1228.2</ele>
        <time>2023-08-19T09:40:30Z</time>
      </trkpt>
      <trkpt lat="40.21197" lon="-1.90069">
        <ele>1227.7</ele>
        <time>2023-08-19T09:40:34Z</time>
      </trkpt>
      <trkpt lat="40.21181" lon="-1.90098">
        <ele>1229.5</ele>
        <time>2023-08-19T09:40:38Z</time>
      </trkpt>
      <trkpt lat="40.21161" lon="-1.90127">
        <ele>1229.8</ele>
        <time>2023-08-19T09:40:42Z</time>
      </trkpt>
      <trkpt lat="40.21142" lon="-1.90158">
        <ele>1229.6</ele>
        <time>2023-08-19T09:40:46Z</time>
      </trkpt>
      <trkpt lat="40.21124" lon="-1.90188">
        <ele>1230.1</ele>
        <time>2023-08-19T09:40:50Z</time>
      </trkpt>
      <trkpt lat="40.21106" lon="-1.90217">
        <ele>1229.6</ele>
        <time>2023-08-19T09:40:54Z</time>
      </trkpt>
      <trkpt lat="40.21088" lon="-1.90246">
        <ele>1229.4</ele>
        <time>2023-08-19T09:40:58Z</time>
      </trkpt>
      <trkpt lat="40.21071" lon="-1.90276">
        <ele>1230.7</ele>
        <time>2023-08-19T09:41:02Z</time>
      </trkpt>
      <trkpt lat="40.21059" lon="-1.90298">
        <ele>1231.1</ele>
        <time>2023-08-19T09:41:05Z</time>
      </trkpt>
      <trkpt lat="40.21042" lon="-1.90326">
        <ele>1230.5</ele>
        <time>2023-08-19T09:41:09Z</time>
      </trkpt>
      <trkpt lat="40.21026" lon="-1.90358">
        <ele>1230.2</ele>
        <time>2023-08-19T09:41:13Z</time>
      </trkpt>
      <trkpt lat="40.21016" lon="-1.90394">
        <ele>1231.1</ele>
        <time>2023-08-19T09:41:17Z</time>
      </trkpt>
      <trkpt lat="40.21017" lon="-1.90432">
        <ele>1231.3</ele>
        <time>2023-08-19T09:41:21Z</time>
      </trkpt>
      <trkpt lat="40.21023" lon="-1.9046">
        <ele>1231.6</ele>
        <time>2023-08-19T09:41:24Z</time>
      </trkpt>
      <trkpt lat="40.21033" lon="-1.90486">
        <ele>1231.3</ele>
        <time>2023-08-19T09:41:27Z</time>
      </trkpt>
      <trkpt lat="40.21045" lon="-1.90508">
        <ele>1231.7</ele>
        <time>2023-08-19T09:41:30Z</time>
      </trkpt>
      <trkpt lat="40.21062" lon="-1.90538">
        <ele>1232.8</ele>
        <time>2023-08-19T09:41:34Z</time>
      </trkpt>
      <trkpt lat="40.21075" lon="-1.90561">
        <ele>1233.3</ele>
        <time>2023-08-19T09:41:37Z</time>
      </trkpt>
      <trkpt lat="40.21089" lon="-1.90594">
        <ele>1233.3</ele>
        <time>2023-08-19T09:41:41Z</time>
      </trkpt>
      <trkpt lat="40.21099" lon="-1.90619">
        <ele>1234.3</ele>
        <time>2023-08-19T09:41:44Z</time>
      </trkpt>
      <trkpt lat="40.21107" lon="-1.90645">
        <ele>1234.9</ele>
        <time>2023-08-19T09:41:47Z</time>
      </trkpt>
      <trkpt lat="40.21113" lon="-1.90671">
        <ele>1234.7</ele>
        <time>2023-08-19T09:41:50Z</time>
      </trkpt>
      <trkpt lat="40.21115" lon="-1.90701">
        <ele>1233.8</ele>
        <time>2023-08-19T09:41:53Z</time>
      </trkpt>
      <trkpt lat="40.21118" lon="-1.90741">
        <ele>1234.1</ele>
        <time>2023-08-19T09:41:57Z</time>
      </trkpt>
      <trkpt lat="40.2112" lon="-1.90771">
        <ele>1234</ele>
        <time>2023-08-19T09:42:00Z</time>
      </trkpt>
      <trkpt lat="40.21124" lon="-1.90798">
        <ele>1234.8</ele>
        <time>2023-08-19T09:42:03Z</time>
      </trkpt>
      <trkpt lat="40.21129" lon="-1.90821">
        <ele>1235</ele>
        <time>2023-08-19T09:42:06Z</time>
      </trkpt>
      <trkpt lat="40.21135" lon="-1.90848">
        <ele>1235</ele>
        <time>2023-08-19T09:42:09Z</time>
      </trkpt>
      <trkpt lat="40.21143" lon="-1.90884">
        <ele>1235.5</ele>
        <time>2023-08-19T09:42:13Z</time>
      </trkpt>
      <trkpt lat="40.21152" lon="-1.90909">
        <ele>1235.4</ele>
        <time>2023-08-19T09:42:16Z</time>
      </trkpt>
      <trkpt lat="40.2116" lon="-1.90932">
        <ele>1234.8</ele>
        <time>2023-08-19T09:42:19Z</time>
      </trkpt>
      <trkpt lat="40.21171" lon="-1.90967">
        <ele>1236</ele>
        <time>2023-08-19T09:42:23Z</time>
      </trkpt>
      <trkpt lat="40.21183" lon="-1.91003">
        <ele>1235.6</ele>
        <time>2023-08-19T09:42:27Z</time>
      </trkpt>
      <trkpt lat="40.21194" lon="-1.91029">
        <ele>1235.7</ele>
        <time>2023-08-19T09:42:30Z</time>
      </trkpt>
      <trkpt lat="40.21208" lon="-1.91064">
        <ele>1235.9</ele>
        <time>2023-08-19T09:42:34Z</time>
      </trkpt>
      <trkpt lat="40.21215" lon="-1.91106">
        <ele>1235.6</ele>
        <time>2023-08-19T09:42:38Z</time>
      </trkpt>
      <trkpt lat="40.21212" lon="-1.91137">
        <ele>1234.1</ele>
        <time>2023-08-19T09:42:41Z</time>
      </trkpt>
      <trkpt lat="40.212" lon="-1.91163">
        <ele>1235</ele>
        <time>2023-08-19T09:42:44Z</time>
      </trkpt>
      <trkpt lat="40.21183" lon="-1.91183">
        <ele>1234.4</ele>
        <time>2023-08-19T09:42:47Z</time>
      </trkpt>
      <trkpt lat="40.21162" lon="-1.91196">
        <ele>1233.5</ele>
        <time>2023-08-19T09:42:50Z</time>
      </trkpt>
      <trkpt lat="40.21137" lon="-1.91215">
        <ele>1233.6</ele>
        <time>2023-08-19T09:42:54Z</time>
      </trkpt>
      <trkpt lat="40.21123" lon="-1.91241">
        <ele>1232.5</ele>
        <time>2023-08-19T09:42:58Z</time>
      </trkpt>
      <trkpt lat="40.21116" lon="-1.91265">
        <ele>1233.3</ele>
        <time>2023-08-19T09:43:01Z</time>
      </trkpt>
      <trkpt lat="40.21107" lon="-1.91302">
        <ele>1232.6</ele>
        <time>2023-08-19T09:43:05Z</time>
      </trkpt>
      <trkpt lat="40.21097" lon="-1.9134">
        <ele>1232.1</ele>
        <time>2023-08-19T09:43:09Z</time>
      </trkpt>
      <trkpt lat="40.21086" lon="-1.91376">
        <ele>1232.4</ele>
        <time>2023-08-19T09:43:13Z</time>
      </trkpt>
      <trkpt lat="40.21075" lon="-1.91399">
        <ele>1231.9</ele>
        <time>2023-08-19T09:43:16Z</time>
      </trkpt>
      <trkpt lat="40.21052" lon="-1.91425">
        <ele>1230.6</ele>
        <time>2023-08-19T09:43:20Z</time>
      </trkpt>
      <trkpt lat="40.21032" lon="-1.91443">
        <ele>1231.3</ele>
        <time>2023-08-19T09:43:23Z</time>
      </trkpt>
      <trkpt lat="40.21014" lon="-1.91459">
        <ele>1230</ele>
        <time>2023-08-19T09:43:26Z</time>
      </trkpt>
      <trkpt lat="40.2099" lon="-1.91482">
        <ele>1230.3</ele>
        <time>2023-08-19T09:43:30Z</time>
      </trkpt>
      <trkpt lat="40.20961" lon="-1.91505">
        <ele>1230.8</ele>
        <time>2023-08-19T09:43:34Z</time>
      </trkpt>
      <trkpt lat="40.20939" lon="-1.91528">
        <ele>1229.6</ele>
        <time>2023-08-19T09:43:38Z</time>
      </trkpt>
      <trkpt lat="40.2092" lon="-1.9155">
        <ele>1228.5</ele>
        <time>2023-08-19T09:43:42Z</time>
      </trkpt>
      <trkpt lat="40.20904" lon="-1.91576">
        <ele>1228.4</ele>
        <time>2023-08-19T09:43:46Z</time>
      </trkpt>
      <trkpt lat="40.20896" lon="-1.91599">
        <ele>1229.2</ele>
        <time>2023-08-19T09:43:49Z</time>
      </trkpt>
      <trkpt lat="40.20899" lon="-1.91623">
        <ele>1230.4</ele>
        <time>2023-08-19T09:43:52Z</time>
      </trkpt>
      <trkpt lat="40.20922" lon="-1.91636">
        <ele>1229.9</ele>
        <time>2023-08-19T09:43:56Z</time>
      </trkpt>
      <trkpt lat="40.20951" lon="-1.91639">
        <ele>1230.7</ele>
        <time>2023-08-19T09:44:00Z</time>
      </trkpt>
      <trkpt lat="40.20975" lon="-1.9164">
        <ele>1229.4</ele>
        <time>2023-08-19T09:44:03Z</time>
      </trkpt>
      <trkpt lat="40.21006" lon="-1.91643">
        <ele>1228.6</ele>
        <time>2023-08-19T09:44:07Z</time>
      </trkpt>
      <trkpt lat="40.21027" lon="-1.91646">
        <ele>1227.8</ele>
        <time>2023-08-19T09:44:10Z</time>
      </trkpt>
      <trkpt lat="40.21052" lon="-1.91651">
        <ele>1227.7</ele>
        <time>2023-08-19T09:44:14Z</time>
      </trkpt>
      <trkpt lat="40.21074" lon="-1.9166">
        <ele>1227.6</ele>
        <time>2023-08-19T09:44:17Z</time>
      </trkpt>
      <trkpt lat="40.21101" lon="-1.91672">
        <ele>1228.1</ele>
        <time>2023-08-19T09:44:21Z</time>
      </trkpt>
      <trkpt lat="40.2113" lon="-1.91676">
        <ele>1227.1</ele>
        <time>2023-08-19T09:44:25Z</time>
      </trkpt>
      <trkpt lat="40.21152" lon="-1.91674">
        <ele>1227.3</ele>
        <time>2023-08-19T09:44:28Z</time>
      </trkpt>
      <trkpt lat="40.2118" lon="-1.91664">
        <ele>1227.5</ele>
        <time>2023-08-19T09:44:32Z</time>
      </trkpt>
      <trkpt lat="40.21208" lon="-1.91647">
        <ele>1226.6</ele>
        <time>2023-08-19T09:44:36Z</time>
      </trkpt>
      <trkpt lat="40.21235" lon="-1.91623">
        <ele>1224.9</ele>
        <time>2023-08-19T09:44:40Z</time>
      </trkpt>
      <trkpt lat="40.21255" lon="-1.91607">
        <ele>1223.9</ele>
        <time>2023-08-19T09:44:43Z</time>
      </trkpt>
      <trkpt lat="40.21284" lon="-1.91588">
        <ele>1223.2</ele>
        <time>2023-08-19T09:44:47Z</time>
      </trkpt>
      <trkpt lat="40.21313" lon="-1.91581">
        <ele>1222.4</ele>
        <time>2023-08-19T09:44:51Z</time>
      </trkpt>
      <trkpt lat="40.21339" lon="-1.91588">
        <ele>1222</ele>
        <time>2023-08-19T09:44:55Z</time>
      </trkpt>
      <trkpt lat="40.21364" lon="-1.91605">
        <ele>1221.5</ele>
        <time>2023-08-19T09:44:59Z</time>
      </trkpt>
      <trkpt lat="40.21386" lon="-1.91632">
        <ele>1220.2</ele>
        <time>2023-08-19T09:45:03Z</time>
      </trkpt>
      <trkpt lat="40.21399" lon="-1.91655">
        <ele>1220.2</ele>
        <time>2023-08-19T09:45:06Z</time>
      </trkpt>
      <trkpt lat="40.21412" lon="-1.9169">
        <ele>1220.3</ele>
        <time>2023-08-19T09:45:10Z</time>
      </trkpt>
      <trkpt lat="40.21417" lon="-1.91726">
        <ele>1220.5</ele>
        <time>2023-08-19T09:45:14Z</time>
      </trkpt>
      <trkpt lat="40.21413" lon="-1.91765">
        <ele>1221.7</ele>
        <time>2023-08-19T09:45:18Z</time>
      </trkpt>
      <trkpt lat="40.21404" lon="-1.91798">
        <ele>1221.3</ele>
        <time>2023-08-19T09:45:22Z</time>
      </trkpt>
      <trkpt lat="40.21388" lon="-1.91829">
        <ele>1223.2</ele>
        <time>2023-08-19T09:45:26Z</time>
      </trkpt>
      <trkpt lat="40.21369" lon="-1.91858">
        <ele>1224.2</ele>
        <time>2023-08-19T09:45:30Z</time>
      </trkpt>
      <trkpt lat="40.21354" lon="-1.91881">
        <ele>1223.9</ele>
        <time>2023-08-19T09:45:33Z</time>
      </trkpt>
      <trkpt lat="40.21335" lon="-1.91911">
        <ele>1224.4</ele>
        <time>2023-08-19T09:45:37Z</time>
      </trkpt>
      <trkpt lat="40.21322" lon="-1.91943">
        <ele>1224.6</ele>
        <time>2023-08-19T09:45:41Z</time>
      </trkpt>
      <trkpt lat="40.21315" lon="-1.91982">
        <ele>1225.7</ele>
        <time>2023-08-19T09:45:45Z</time>
      </trkpt>
      <trkpt lat="40.21316" lon="-1.92013">
        <ele>1226.1</ele>
        <time>2023-08-19T09:45:48Z</time>
      </trkpt>
      <trkpt lat="40.21323" lon="-1.92053">
        <ele>1225.2</ele>
        <time>2023-08-19T09:45:52Z</time>
      </trkpt>
      <trkpt lat="40.21329" lon="-1.92087">
        <ele>1225.6</ele>
        <time>2023-08-19T09:45:56Z</time>
      </trkpt>
      <trkpt lat="40.21332" lon="-1.92113">
        <ele>1226.2</ele>
        <time>2023-08-19T09:45:59Z</time>
      </trkpt>
      <trkpt lat="40.21331" lon="-1.9215">
        <ele>1226.5</ele>
        <time>2023-08-19T09:46:03Z</time>
      </trkpt>
      <trkpt lat="40.21328" lon="-1.92186">
        <ele>1226.3</ele>
        <time>2023-08-19T09:46:07Z</time>
      </trkpt>
      <trkpt lat="40.21321" lon="-1.92224">
        <ele>1225.7</ele>
        <time>2023-08-19T09:46:11Z</time>
      </trkpt>
      <trkpt lat="40.21313" lon="-1.92262">
        <ele>1226.2</ele>
        <time>2023-08-19T09:46:15Z</time>
      </trkpt>
      <trkpt lat="40.21303" lon="-1.92299">
        <ele>1226.5</ele>
        <time>2023-08-19T09:46:19Z</time>
      </trkpt>
      <trkpt lat="40.21296" lon="-1.92326">
        <ele>1227.1</ele>
        <time>2023-08-19T09:46:22Z</time>
      </trkpt>
      <trkpt lat="40.21289" lon="-1.92353">
        <ele>1227.3</ele>
        <time>2023-08-19T09:46:25Z</time>
      </trkpt>
      <trkpt lat="40.21284" lon="-1.9239">
        <ele>1227</ele>
        <time>2023-08-19T09:46:29Z</time>
      </trkpt>
      <trkpt lat="40.21279" lon="-1.92419">
        <ele>1225.7</ele>
        <time>2023-08-19T09:46:32Z</time>
      </trkpt>
      <trkpt lat="40.21275" lon="-1.92447">
        <ele>1225</ele>
        <time>2023-08-19T09:46:35Z</time>
      </trkpt>
      <trkpt lat="40.21269" lon="-1.92486">
        <ele>1223.4</ele>
        <time>2023-08-19T09:46:39Z</time>
      </trkpt>
      <trkpt lat="40.21264" lon="-1.92516">
        <ele>1223.8</ele>
        <time>2023-08-19T09:46:42Z</time>
      </trkpt>
      <trkpt lat="40.21262" lon="-1.92552">
        <ele>1223.7</ele>
        <time>2023-08-19T09:46:46Z</time>
      </trkpt>
      <trkpt lat="40.2126" lon="-1.92579">
        <ele>1222.7</ele>
        <time>2023-08-19T09:46:49Z</time>
      </trkpt>
      <trkpt lat="40.2126" lon="-1.92615">
        <ele>1222.3</ele>
        <time>2023-08-19T09:46:53Z</time>
      </trkpt>
      <trkpt lat="40.2126" lon="-1.92643">
        <ele>1221.7</ele>
        <time>2023-08-19T09:46:56Z</time>
      </trkpt>
      <trkpt lat="40.21259" lon="-1.92679">
        <ele>1221.3</ele>
        <time>2023-08-19T09:47:00Z</time>
      </trkpt>
      <trkpt lat="40.2126" lon="-1.92708">
        <ele>1220.9</ele>
        <time>2023-08-19T09:47:03Z</time>
      </trkpt>
      <trkpt lat="40.21262" lon="-1.92747">
        <ele>1220.4</ele>
        <time>2023-08-19T09:47:07Z</time>
      </trkpt>
      <trkpt lat="40.21263" lon="-1.92785">
        <ele>1220.8</ele>
        <time>2023-08-19T09:47:11Z</time>
      </trkpt>
      <trkpt lat="40.21261" lon="-1.92823">
        <ele>1220.4</ele>
        <time>2023-08-19T09:47:15Z</time>
      </trkpt>
      <trkpt lat="40.21257" lon="-1.92861">
        <ele>1219.8</ele>
        <time>2023-08-19T09:47:19Z</time>
      </trkpt>
      <trkpt lat="40.21255" lon="-1.9289">
        <ele>1219.1</ele>
        <time>2023-08-19T09:47:22Z</time>
      </trkpt>
      <trkpt lat="40.21252" lon="-1.92918">
        <ele>1218.8</ele>
        <time>2023-08-19T09:47:25Z</time>
      </trkpt>
      <trkpt lat="40.2125" lon="-1.92956">
        <ele>1218.5</ele>
        <time>2023-08-19T09:47:29Z</time>
      </trkpt>
      <trkpt lat="40.21255" lon="-1.92984">
        <ele>1218.4</ele>
        <time>2023-08-19T09:47:32Z</time>
      </trkpt>
      <trkpt lat="40.21268" lon="-1.93017">
        <ele>1217</ele>
        <time>2023-08-19T09:47:36Z</time>
      </trkpt>
      <trkpt lat="40.21279" lon="-1.93041">
        <ele>1214.7</ele>
        <time>2023-08-19T09:47:39Z</time>
      </trkpt>
      <trkpt lat="40.21287" lon="-1.93067">
        <ele>1214.5</ele>
        <time>2023-08-19T09:47:42Z</time>
      </trkpt>
      <trkpt lat="40.21293" lon="-1.93106">
        <ele>1213.5</ele>
        <time>2023-08-19T09:47:46Z</time>
      </trkpt>
      <trkpt lat="40.21299" lon="-1.93136">
        <ele>1213.2</ele>
        <time>2023-08-19T09:47:49Z</time>
      </trkpt>
      <trkpt lat="40.21305" lon="-1.93164">
        <ele>1212.8</ele>
        <time>2023-08-19T09:47:52Z</time>
      </trkpt>
      <trkpt lat="40.21316" lon="-1.932">
        <ele>1211.5</ele>
        <time>2023-08-19T09:47:56Z</time>
      </trkpt>
      <trkpt lat="40.21327" lon="-1.93236">
        <ele>1210.1</ele>
        <time>2023-08-19T09:48:00Z</time>
      </trkpt>
      <trkpt lat="40.21336" lon="-1.93264">
        <ele>1208.2</ele>
        <time>2023-08-19T09:48:03Z</time>
      </trkpt>
      <trkpt lat="40.21349" lon="-1.93295">
        <ele>1207.7</ele>
        <time>2023-08-19T09:48:07Z</time>
      </trkpt>
      <trkpt lat="40.21363" lon="-1.93328">
        <ele>1207.9</ele>
        <time>2023-08-19T09:48:11Z</time>
      </trkpt>
      <trkpt lat="40.21377" lon="-1.93361">
        <ele>1205.5</ele>
        <time>2023-08-19T09:48:15Z</time>
      </trkpt>
      <trkpt lat="40.21387" lon="-1.93385">
        <ele>1204.8</ele>
        <time>2023-08-19T09:48:18Z</time>
      </trkpt>
      <trkpt lat="40.21398" lon="-1.9341">
        <ele>1205</ele>
        <time>2023-08-19T09:48:21Z</time>
      </trkpt>
      <trkpt lat="40.21412" lon="-1.93442">
        <ele>1203.7</ele>
        <time>2023-08-19T09:48:25Z</time>
      </trkpt>
      <trkpt lat="40.2142" lon="-1.93467">
        <ele>1203.2</ele>
        <time>2023-08-19T09:48:28Z</time>
      </trkpt>
      <trkpt lat="40.21427" lon="-1.93495">
        <ele>1201.4</ele>
        <time>2023-08-19T09:48:31Z</time>
      </trkpt>
      <trkpt lat="40.21436" lon="-1.93529">
        <ele>1201.6</ele>
        <time>2023-08-19T09:48:35Z</time>
      </trkpt>
      <trkpt lat="40.21444" lon="-1.93554">
        <ele>1201.8</ele>
        <time>2023-08-19T09:48:38Z</time>
      </trkpt>
      <trkpt lat="40.21455" lon="-1.9359">
        <ele>1200.8</ele>
        <time>2023-08-19T09:48:42Z</time>
      </trkpt>
      <trkpt lat="40.21463" lon="-1.93617">
        <ele>1199.7</ele>
        <time>2023-08-19T09:48:45Z</time>
      </trkpt>
      <trkpt lat="40.21471" lon="-1.93658">
        <ele>1200.3</ele>
        <time>2023-08-19T09:48:49Z</time>
      </trkpt>
      <trkpt lat="40.2147" lon="-1.9369">
        <ele>1199.8</ele>
        <time>2023-08-19T09:48:52Z</time>
      </trkpt>
      <trkpt lat="40.21463" lon="-1.93733">
        <ele>1198.9</ele>
        <time>2023-08-19T09:48:56Z</time>
      </trkpt>
      <trkpt lat="40.21457" lon="-1.93759">
        <ele>1198</ele>
        <time>2023-08-19T09:48:59Z</time>
      </trkpt>
      <trkpt lat="40.21448" lon="-1.93783">
        <ele>1198</ele>
        <time>2023-08-19T09:49:02Z</time>
      </trkpt>
      <trkpt lat="40.2143" lon="-1.93814">
        <ele>1198.2</ele>
        <time>2023-08-19T09:49:06Z</time>
      </trkpt>
      <trkpt lat="40.21412" lon="-1.93843">
        <ele>1197.6</ele>
        <time>2023-08-19T09:49:10Z</time>
      </trkpt>
      <trkpt lat="40.21397" lon="-1.93873">
        <ele>1196.4</ele>
        <time>2023-08-19T09:49:14Z</time>
      </trkpt>
      <trkpt lat="40.21389" lon="-1.93896">
        <ele>1196.3</ele>
        <time>2023-08-19T09:49:17Z</time>
      </trkpt>
      <trkpt lat="40.21381" lon="-1.93932">
        <ele>1195</ele>
        <time>2023-08-19T09:49:21Z</time>
      </trkpt>
      <trkpt lat="40.2138" lon="-1.93961">
        <ele>1193.4</ele>
        <time>2023-08-19T09:49:24Z</time>
      </trkpt>
      <trkpt lat="40.2138" lon="-1.94">
        <ele>1192.3</ele>
        <time>2023-08-19T09:49:28Z</time>
      </trkpt>
      <trkpt lat="40.21379" lon="-1.94039">
        <ele>1190.9</ele>
        <time>2023-08-19T09:49:32Z</time>
      </trkpt>
      <trkpt lat="40.2138" lon="-1.94068">
        <ele>1190.4</ele>
        <time>2023-08-19T09:49:35Z</time>
      </trkpt>
      <trkpt lat="40.21379" lon="-1.94107">
        <ele>1190.1</ele>
        <time>2023-08-19T09:49:39Z</time>
      </trkpt>
      <trkpt lat="40.2138" lon="-1.94145">
        <ele>1187.9</ele>
        <time>2023-08-19T09:49:43Z</time>
      </trkpt>
      <trkpt lat="40.2138" lon="-1.94174">
        <ele>1187.9</ele>
        <time>2023-08-19T09:49:46Z</time>
      </trkpt>
      <trkpt lat="40.2138" lon="-1.94212">
        <ele>1186.8</ele>
        <time>2023-08-19T09:49:50Z</time>
      </trkpt>
      <trkpt lat="40.2138" lon="-1.94239">
        <ele>1186.2</ele>
        <time>2023-08-19T09:49:53Z</time>
      </trkpt>
      <trkpt lat="40.2138" lon="-1.94266">
        <ele>1185.2</ele>
        <time>2023-08-19T09:49:56Z</time>
      </trkpt>
      <trkpt lat="40.21379" lon="-1.94306">
        <ele>1185.6</ele>
        <time>2023-08-19T09:50:00Z</time>
      </trkpt>
      <trkpt lat="40.21377" lon="-1.94346">
        <ele>1185</ele>
        <time>2023-08-19T09:50:04Z</time>
      </trkpt>
      <trkpt lat="40.21376" lon="-1.94376">
        <ele>1185.4</ele>
        <time>2023-08-19T09:50:07Z</time>
      </trkpt>
      <trkpt lat="40.21377" lon="-1.94414">
        <ele>1184.5</ele>
        <time>2023-08-19T09:50:11Z</time>
      </trkpt>
      <trkpt lat="40.21377" lon="-1.9445">
        <ele>1185.1</ele>
        <time>2023-08-19T09:50:15Z</time>
      </trkpt>
      <trkpt lat="40.21377" lon="-1.94478">
        <ele>1185.1</ele>
        <time>2023-08-19T09:50:18Z</time>
      </trkpt>
      <trkpt lat="40.21379" lon="-1.94516">
        <ele>1183.9</ele>
        <time>2023-08-19T09:50:22Z</time>
      </trkpt>
      <trkpt lat="40.21382" lon="-1.94552">
        <ele>1183.5</ele>
        <time>2023-08-19T09:50:26Z</time>
      </trkpt>
      <trkpt lat="40.21385" lon="-1.94589">
        <ele>1184.2</ele>
        <time>2023-08-19T09:50:30Z</time>
      </trkpt>
      <trkpt lat="40.21388" lon="-1.94617">
        <ele>1184.5</ele>
        <time>2023-08-19T09:50:33Z</time>
      </trkpt>
      <trkpt lat="40.21393" lon="-1.94644">
        <ele>1185</ele>
        <time>2023-08-19T09:50:36Z</time>
      </trkpt>
      <trkpt lat="40.21398" lon="-1.94681">
        <ele>1185</ele>
        <time>2023-08-19T09:50:40Z</time>
      </trkpt>
      <trkpt lat="40.21403" lon="-1.94708">
        <ele>1184.9</ele>
        <time>2023-08-19T09:50:43Z</time>
      </trkpt>
      <trkpt lat="40.21407" lon="-1.94734">
        <ele>1185.3</ele>
        <time>2023-08-19T09:50:46Z</time>
      </trkpt>
      <trkpt lat="40.2141" lon="-1.94763">
        <ele>1185.2</ele>
        <time>2023-08-19T09:50:49Z</time>
      </trkpt>
      <trkpt lat="40.21416" lon="-1.94802">
        <ele>1185</ele>
        <time>2023-08-19T09:50:53Z</time>
      </trkpt>
      <trkpt lat="40.21423" lon="-1.94832">
        <ele>1184.5</ele>
        <time>2023-08-19T09:50:56Z</time>
      </trkpt>
      <trkpt lat="40.2143" lon="-1.94863">
        <ele>1183.8</ele>
        <time>2023-08-19T09:50:59Z</time>
      </trkpt>
      <trkpt lat="40.21434" lon="-1.94889">
        <ele>1183.6</ele>
        <time>2023-08-19T09:51:02Z</time>
      </trkpt>
      <trkpt lat="40.21438" lon="-1.94922">
        <ele>1184.3</ele>
        <time>2023-08-19T09:51:06Z</time>
      </trkpt>
      <trkpt lat="40.21443" lon="-1.94957">
        <ele>1183.5</ele>
        <time>2023-08-19T09:51:10Z</time>
      </trkpt>
      <trkpt lat="40.21449" lon="-1.94993">
        <ele>1184.8</ele>
        <time>2023-08-19T09:51:14Z</time>
      </trkpt>
      <trkpt lat="40.21454" lon="-1.95031">
        <ele>1184.7</ele>
        <time>2023-08-19T09:51:18Z</time>
      </trkpt>
      <trkpt lat="40.21458" lon="-1.9506">
        <ele>1182.9</ele>
        <time>2023-08-19T09:51:21Z</time>
      </trkpt>
      <trkpt lat="40.21462" lon="-1.95096">
        <ele>1182.5</ele>
        <time>2023-08-19T09:51:25Z</time>
      </trkpt>
      <trkpt lat="40.21465" lon="-1.95134">
        <ele>1183.3</ele>
        <time>2023-08-19T09:51:29Z</time>
      </trkpt>
      <trkpt lat="40.21468" lon="-1.95173">
        <ele>1184.8</ele>
        <time>2023-08-19T09:51:33Z</time>
      </trkpt>
      <trkpt lat="40.21472" lon="-1.95211">
        <ele>1183.1</ele>
        <time>2023-08-19T09:51:37Z</time>
      </trkpt>
      <trkpt lat="40.21475" lon="-1.95239">
        <ele>1183.3</ele>
        <time>2023-08-19T09:51:40Z</time>
      </trkpt>
      <trkpt lat="40.21478" lon="-1.95277">
        <ele>1184.8</ele>
        <time>2023-08-19T09:51:44Z</time>
      </trkpt>
      <trkpt lat="40.21479" lon="-1.95306">
        <ele>1185.1</ele>
        <time>2023-08-19T09:51:47Z</time>
      </trkpt>
      <trkpt lat="40.21482" lon="-1.95345">
        <ele>1184.3</ele>
        <time>2023-08-19T09:51:51Z</time>
      </trkpt>
      <trkpt lat="40.21483" lon="-1.95373">
        <ele>1183.4</ele>
        <time>2023-08-19T09:51:54Z</time>
      </trkpt>
      <trkpt lat="40.21486" lon="-1.95411">
        <ele>1182.7</ele>
        <time>2023-08-19T09:51:58Z</time>
      </trkpt>
      <trkpt lat="40.21488" lon="-1.95452">
        <ele>1182.9</ele>
        <time>2023-08-19T09:52:02Z</time>
      </trkpt>
      <trkpt lat="40.21491" lon="-1.9549">
        <ele>1182</ele>
        <time>2023-08-19T09:52:06Z</time>
      </trkpt>
      <trkpt lat="40.21493" lon="-1.95517">
        <ele>1183.2</ele>
        <time>2023-08-19T09:52:09Z</time>
      </trkpt>
      <trkpt lat="40.21498" lon="-1.95554">
        <ele>1183.2</ele>
        <time>2023-08-19T09:52:13Z</time>
      </trkpt>
      <trkpt lat="40.215" lon="-1.95581">
        <ele>1182.8</ele>
        <time>2023-08-19T09:52:16Z</time>
      </trkpt>
      <trkpt lat="40.21503" lon="-1.95619">
        <ele>1182.4</ele>
        <time>2023-08-19T09:52:20Z</time>
      </trkpt>
      <trkpt lat="40.21504" lon="-1.95647">
        <ele>1182.1</ele>
        <time>2023-08-19T09:52:23Z</time>
      </trkpt>
      <trkpt lat="40.21504" lon="-1.95677">
        <ele>1182.5</ele>
        <time>2023-08-19T09:52:26Z</time>
      </trkpt>
      <trkpt lat="40.21503" lon="-1.95707">
        <ele>1183.7</ele>
        <time>2023-08-19T09:52:29Z</time>
      </trkpt>
      <trkpt lat="40.21502" lon="-1.95743">
        <ele>1183.9</ele>
        <time>2023-08-19T09:52:33Z</time>
      </trkpt>
      <trkpt lat="40.21499" lon="-1.9578">
        <ele>1183.4</ele>
        <time>2023-08-19T09:52:37Z</time>
      </trkpt>
      <trkpt lat="40.21501" lon="-1.9581">
        <ele>1183.9</ele>
        <time>2023-08-19T09:52:40Z</time>
      </trkpt>
      <trkpt lat="40.21507" lon="-1.95848">
        <ele>1183.4</ele>
        <time>2023-08-19T09:52:44Z</time>
      </trkpt>
      <trkpt lat="40.21513" lon="-1.95873">
        <ele>1183.6</ele>
        <time>2023-08-19T09:52:47Z</time>
      </trkpt>
      <trkpt lat="40.21515" lon="-1.95899">
        <ele>1183.2</ele>
        <time>2023-08-19T09:52:50Z</time>
      </trkpt>
      <trkpt lat="40.21518" lon="-1.95934">
        <ele>1182.8</ele>
        <time>2023-08-19T09:52:54Z</time>
      </trkpt>
      <trkpt lat="40.21521" lon="-1.95959">
        <ele>1182.5</ele>
        <time>2023-08-19T09:52:57Z</time>
      </trkpt>
      <trkpt lat="40.21524" lon="-1.95998">
        <ele>1183.8</ele>
        <time>2023-08-19T09:53:01Z</time>
      </trkpt>
      <trkpt lat="40.21528" lon="-1.9604">
        <ele>1182.8</ele>
        <time>2023-08-19T09:53:05Z</time>
      </trkpt>
      <trkpt lat="40.21534" lon="-1.96078">
        <ele>1183.2</ele>
        <time>2023-08-19T09:53:09Z</time>
      </trkpt>
      <trkpt lat="40.21539" lon="-1.96117">
        <ele>1183.6</ele>
        <time>2023-08-19T09:53:13Z</time>
      </trkpt>
      <trkpt lat="40.21545" lon="-1.96146">
        <ele>1182.4</ele>
        <time>2023-08-19T09:53:16Z</time>
      </trkpt>
      <trkpt lat="40.21553" lon="-1.96175">
        <ele>1182.7</ele>
        <time>2023-08-19T09:53:19Z</time>
      </trkpt>
      <trkpt lat="40.21561" lon="-1.96202">
        <ele>1182.1</ele>
        <time>2023-08-19T09:53:22Z</time>
      </trkpt>
      <trkpt lat="40.21572" lon="-1.96235">
        <ele>1182.6</ele>
        <time>2023-08-19T09:53:26Z</time>
      </trkpt>
      <trkpt lat="40.21583" lon="-1.96268">
        <ele>1182.9</ele>
        <time>2023-08-19T09:53:30Z</time>
      </trkpt>
      <trkpt lat="40.21596" lon="-1.96303">
        <ele>1182</ele>
        <time>2023-08-19T09:53:34Z</time>
      </trkpt>
      <trkpt lat="40.21607" lon="-1.96336">
        <ele>1183.1</ele>
        <time>2023-08-19T09:53:38Z</time>
      </trkpt>
      <trkpt lat="40.2162" lon="-1.96368">
        <ele>1183.8</ele>
        <time>2023-08-19T09:53:42Z</time>
      </trkpt>
      <trkpt lat="40.21634" lon="-1.96398">
        <ele>1183</ele>
        <time>2023-08-19T09:53:46Z</time>
      </trkpt>
      <trkpt lat="40.21646" lon="-1.9642">
        <ele>1182.8</ele>
        <time>2023-08-19T09:53:49Z</time>
      </trkpt>
      <trkpt lat="40.21661" lon="-1.96442">
        <ele>1182.5</ele>
        <time>2023-08-19T09:53:52Z</time>
      </trkpt>
      <trkpt lat="40.21685" lon="-1.96466">
        <ele>1181.9</ele>
        <time>2023-08-19T09:53:56Z</time>
      </trkpt>
      <trkpt lat="40.21702" lon="-1.96484">
        <ele>1183.3</ele>
        <time>2023-08-19T09:53:59Z</time>
      </trkpt>
      <trkpt lat="40.2172" lon="-1.96501">
        <ele>1183</ele>
        <time>2023-08-19T09:54:02Z</time>
      </trkpt>
      <trkpt lat="40.21744" lon="-1.96522">
        <ele>1182.7</ele>
        <time>2023-08-19T09:54:06Z</time>
      </trkpt>
      <trkpt lat="40.21761" lon="-1.96539">
        <ele>1183.3</ele>
        <time>2023-08-19T09:54:09Z</time>
      </trkpt>
      <trkpt lat="40.21783" lon="-1.96564">
        <ele>1182.2</ele>
        <time>2023-08-19T09:54:13Z</time>
      </trkpt>
      <trkpt lat="40.21807" lon="-1.96588">
        <ele>1181.8</ele>
        <time>2023-08-19T09:54:17Z</time>
      </trkpt>
      <trkpt lat="40.21832" lon="-1.9661">
        <ele>1181.9</ele>
        <time>2023-08-19T09:54:21Z</time>
      </trkpt>
      <trkpt lat="40.21849" lon="-1.96628">
        <ele>1181.6</ele>
        <time>2023-08-19T09:54:24Z</time>
      </trkpt>
      <trkpt lat="40.21872" lon="-1.96648">
        <ele>1182.1</ele>
        <time>2023-08-19T09:54:28Z</time>
      </trkpt>
      <trkpt lat="40.21895" lon="-1.96671">
        <ele>1181.2</ele>
        <time>2023-08-19T09:54:32Z</time>
      </trkpt>
      <trkpt lat="40.21919" lon="-1.96694">
        <ele>1182.1</ele>
        <time>2023-08-19T09:54:36Z</time>
      </trkpt>
      <trkpt lat="40.21936" lon="-1.9671">
        <ele>1181.7</ele>
        <time>2023-08-19T09:54:39Z</time>
      </trkpt>
      <trkpt lat="40.21961" lon="-1.96734">
        <ele>1181.6</ele>
        <time>2023-08-19T09:54:43Z</time>
      </trkpt>
      <trkpt lat="40.21979" lon="-1.96751">
        <ele>1181.5</ele>
        <time>2023-08-19T09:54:46Z</time>
      </trkpt>
      <trkpt lat="40.21997" lon="-1.96767">
        <ele>1181.1</ele>
        <time>2023-08-19T09:54:49Z</time>
      </trkpt>
      <trkpt lat="40.22019" lon="-1.96789">
        <ele>1181.8</ele>
        <time>2023-08-19T09:54:53Z</time>
      </trkpt>
      <trkpt lat="40.22032" lon="-1.96808">
        <ele>1182.7</ele>
        <time>2023-08-19T09:54:56Z</time>
      </trkpt>
      <trkpt lat="40.22044" lon="-1.96839">
        <ele>1182.4</ele>
        <time>2023-08-19T09:55:00Z</time>
      </trkpt>
      <trkpt lat="40.22051" lon="-1.96868">
        <ele>1181.9</ele>
        <time>2023-08-19T09:55:03Z</time>
      </trkpt>
      <trkpt lat="40.22058" lon="-1.96897">
        <ele>1182.7</ele>
        <time>2023-08-19T09:55:06Z</time>
      </trkpt>
      <trkpt lat="40.22066" lon="-1.96934">
        <ele>1183</ele>
        <time>2023-08-19T09:55:10Z</time>
      </trkpt>
      <trkpt lat="40.22074" lon="-1.9697">
        <ele>1183.4</ele>
        <time>2023-08-19T09:55:14Z</time>
      </trkpt>
      <trkpt lat="40.22084" lon="-1.96996">
        <ele>1183.2</ele>
        <time>2023-08-19T09:55:17Z</time>
      </trkpt>
      <trkpt lat="40.22099" lon="-1.97018">
        <ele>1184.2</ele>
        <time>2023-08-19T09:55:20Z</time>
      </trkpt>
      <trkpt lat="40.22118" lon="-1.97034">
        <ele>1184</ele>
        <time>2023-08-19T09:55:23Z</time>
      </trkpt>
      <trkpt lat="40.22138" lon="-1.97048">
        <ele>1184.2</ele>
        <time>2023-08-19T09:55:26Z</time>
      </trkpt>
      <trkpt lat="40.22164" lon="-1.97064">
        <ele>1183.7</ele>
        <time>2023-08-19T09:55:30Z</time>
      </trkpt>
      <trkpt lat="40.2219" lon="-1.97083">
        <ele>1183.1</ele>
        <time>2023-08-19T09:55:34Z</time>
      </trkpt>
      <trkpt lat="40.2221" lon="-1.97109">
        <ele>1182.4</ele>
        <time>2023-08-19T09:55:38Z</time>
      </trkpt>
      <trkpt lat="40.22222" lon="-1.97135">
        <ele>1181.8</ele>
        <time>2023-08-19T09:55:41Z</time>
      </trkpt>
      <trkpt lat="40.22232" lon="-1.97162">
        <ele>1182.3</ele>
        <time>2023-08-19T09:55:44Z</time>
      </trkpt>
      <trkpt lat="40.22245" lon="-1.97194">
        <ele>1181.8</ele>
        <time>2023-08-19T09:55:48Z</time>
      </trkpt>
      <trkpt lat="40.22258" lon="-1.97224">
        <ele>1181.9</ele>
        <time>2023-08-19T09:55:52Z</time>
      </trkpt>
      <trkpt lat="40.22269" lon="-1.97257">
        <ele>1182.1</ele>
        <time>2023-08-19T09:55:56Z</time>
      </trkpt>
      <trkpt lat="40.22281" lon="-1.97293">
        <ele>1181.2</ele>
        <time>2023-08-19T09:56:00Z</time>
      </trkpt>
      <trkpt lat="40.2229" lon="-1.97332">
        <ele>1181.6</ele>
        <time>2023-08-19T09:56:04Z</time>
      </trkpt>
      <trkpt lat="40.22292" lon="-1.97374">
        <ele>1181.5</ele>
        <time>2023-08-19T09:56:08Z</time>
      </trkpt>
      <trkpt lat="40.22287" lon="-1.97414">
        <ele>1181.7</ele>
        <time>2023-08-19T09:56:12Z</time>
      </trkpt>
      <trkpt lat="40.22283" lon="-1.97441">
        <ele>1181.3</ele>
        <time>2023-08-19T09:56:15Z</time>
      </trkpt>
      <trkpt lat="40.22277" lon="-1.97479">
        <ele>1181</ele>
        <time>2023-08-19T09:56:19Z</time>
      </trkpt>
      <trkpt lat="40.22274" lon="-1.97508">
        <ele>1182.5</ele>
        <time>2023-08-19T09:56:22Z</time>
      </trkpt>
      <trkpt lat="40.22272" lon="-1.97534">
        <ele>1181.4</ele>
        <time>2023-08-19T09:56:25Z</time>
      </trkpt>
      <trkpt lat="40.22269" lon="-1.97569">
        <ele>1180.8</ele>
        <time>2023-08-19T09:56:29Z</time>
      </trkpt>
      <trkpt lat="40.22265" lon="-1.97597">
        <ele>1181.7</ele>
        <time>2023-08-19T09:56:32Z</time>
      </trkpt>
      <trkpt lat="40.22257" lon="-1.97635">
        <ele>1181.4</ele>
        <time>2023-08-19T09:56:36Z</time>
      </trkpt>
      <trkpt lat="40.22244" lon="-1.97669">
        <ele>1181.3</ele>
        <time>2023-08-19T09:56:40Z</time>
      </trkpt>
      <trkpt lat="40.22233" lon="-1.97694">
        <ele>1181.4</ele>
        <time>2023-08-19T09:56:43Z</time>
      </trkpt>
      <trkpt lat="40.22222" lon="-1.97717">
        <ele>1181</ele>
        <time>2023-08-19T09:56:46Z</time>
      </trkpt>
      <trkpt lat="40.22206" lon="-1.97749">
        <ele>1182.6</ele>
        <time>2023-08-19T09:56:50Z</time>
      </trkpt>
      <trkpt lat="40.22196" lon="-1.97772">
        <ele>1183.8</ele>
        <time>2023-08-19T09:56:53Z</time>
      </trkpt>
      <trkpt lat="40.22189" lon="-1.97798">
        <ele>1183.8</ele>
        <time>2023-08-19T09:56:56Z</time>
      </trkpt>
      <trkpt lat="40.22186" lon="-1.97836">
        <ele>1185.2</ele>
        <time>2023-08-19T09:57:00Z</time>
      </trkpt>
      <trkpt lat="40.22196" lon="-1.97864">
        <ele>1185.6</ele>
        <time>2023-08-19T09:57:03Z</time>
      </trkpt>
      <trkpt lat="40.22212" lon="-1.97884">
        <ele>1185.3</ele>
        <time>2023-08-19T09:57:06Z</time>
      </trkpt>
      <trkpt lat="40.22237" lon="-1.979">
        <ele>1184.4</ele>
        <time>2023-08-19T09:57:10Z</time>
      </trkpt>
      <trkpt lat="40.22256" lon="-1.97909">
        <ele>1183.7</ele>
        <time>2023-08-19T09:57:13Z</time>
      </trkpt>
      <trkpt lat="40.22278" lon="-1.97918">
        <ele>1182.6</ele>
        <time>2023-08-19T09:57:17Z</time>
      </trkpt>
      <trkpt lat="40.22297" lon="-1.97918">
        <ele>1183.8</ele>
        <time>2023-08-19T09:57:21Z</time>
      </trkpt>
      <trkpt lat="40.22309" lon="-1.97915">
        <ele>1183.7</ele>
        <time>2023-08-19T09:57:24Z</time>
      </trkpt>
      <trkpt lat="40.22318" lon="-1.97909">
        <ele>1182.8</ele>
        <time>2023-08-19T09:57:27Z</time>
      </trkpt>
      <trkpt lat="40.22326" lon="-1.97904">
        <ele>1183.3</ele>
        <time>2023-08-19T09:57:31Z</time>
      </trkpt>
      <trkpt lat="40.22329" lon="-1.979">
        <ele>1182.9</ele>
        <time>2023-08-19T09:57:35Z</time>
      </trkpt>
      <trkpt lat="40.22327" lon="-1.97903">
        <ele>1182</ele>
        <time>2023-08-19T09:58:13Z</time>
      </trkpt>
      <trkpt lat="40.2233" lon="-1.97902">
        <ele>1183</ele>
        <time>2023-08-19T09:58:16Z</time>
      </trkpt>
      <trkpt lat="40.22334" lon="-1.97899">
        <ele>1183.3</ele>
        <time>2023-08-19T09:58:20Z</time>
      </trkpt>
      <trkpt lat="40.22338" lon="-1.97894">
        <ele>1182.5</ele>
        <time>2023-08-19T09:58:24Z</time>
      </trkpt>
      <trkpt lat="40.2234" lon="-1.9789">
        <ele>1182.9</ele>
        <time>2023-08-19T09:58:27Z</time>
      </trkpt>
      <trkpt lat="40.22342" lon="-1.97885">
        <ele>1182.7</ele>
        <time>2023-08-19T09:58:31Z</time>
      </trkpt>
      <trkpt lat="40.22343" lon="-1.97882">
        <ele>1183.6</ele>
        <time>2023-08-19T09:58:45Z</time>
      </trkpt>
      <trkpt lat="40.2235" lon="-1.97883">
        <ele>1183.6</ele>
        <time>2023-08-19T09:58:49Z</time>
      </trkpt>
      <trkpt lat="40.22356" lon="-1.97897">
        <ele>1182.5</ele>
        <time>2023-08-19T09:58:53Z</time>
      </trkpt>
      <trkpt lat="40.22354" lon="-1.97908">
        <ele>1182.8</ele>
        <time>2023-08-19T09:58:57Z</time>
      </trkpt>
      <trkpt lat="40.22351" lon="-1.9791">
        <ele>1182.1</ele>
        <time>2023-08-19T09:59:12Z</time>
      </trkpt>
      <trkpt lat="40.22349" lon="-1.97913">
        <ele>1182.9</ele>
        <time>2023-08-19T09:59:15Z</time>
      </trkpt>
      <trkpt lat="40.22349" lon="-1.97914">
        <ele>1182.2</ele>
        <time>2023-08-19T09:59:21Z</time>
      </trkpt>
      <trkpt lat="40.22352" lon="-1.9791">
        <ele>1182.3</ele>
        <time>2023-08-19T10:01:31Z</time>
      </trkpt>
      <trkpt lat="40.22354" lon="-1.97905">
        <ele>1181.7</ele>
        <time>2023-08-19T10:01:34Z</time>
      </trkpt>
      <trkpt lat="40.22356" lon="-1.979">
        <ele>1182.6</ele>
        <time>2023-08-19T10:01:38Z</time>
      </trkpt>
      <trkpt lat="40.22355" lon="-1.97897">
        <ele>1183.4</ele>
        <time>2023-08-19T10:01:42Z</time>
      </trkpt>
      <trkpt lat="40.2236" lon="-1.97884">
        <ele>1183.2</ele>
        <time>2023-08-19T10:02:58Z</time>
      </trkpt>
      <trkpt lat="40.22362" lon="-1.97875">
        <ele>1183.6</ele>
        <time>2023-08-19T10:03:01Z</time>
      </trkpt>
      <trkpt lat="40.22363" lon="-1.97864">
        <ele>1183.3</ele>
        <time>2023-08-19T10:03:04Z</time>
      </trkpt>
      <trkpt lat="40.22363" lon="-1.97857">
        <ele>1184.9</ele>
        <time>2023-08-19T10:03:08Z</time>
      </trkpt>
      <trkpt lat="40.22362" lon="-1.97847">
        <ele>1186.2</ele>
        <time>2023-08-19T10:03:11Z</time>
      </trkpt>
      <trkpt lat="40.22361" lon="-1.97842">
        <ele>1184.2</ele>
        <time>2023-08-19T10:03:15Z</time>
      </trkpt>
      <trkpt lat="40.22361" lon="-1.97838">
        <ele>1184.7</ele>
        <time>2023-08-19T10:03:18Z</time>
      </trkpt>
      <trkpt lat="40.22361" lon="-1.97834">
        <ele>1184.7</ele>
        <time>2023-08-19T10:03:22Z</time>
      </trkpt>
      <trkpt lat="40.22361" lon="-1.9783">
        <ele>1185</ele>
        <time>2023-08-19T10:03:25Z</time>
      </trkpt>
      <trkpt lat="40.22363" lon="-1.97827">
        <ele>1183.8</ele>
        <time>2023-08-19T10:03:28Z</time>
      </trkpt>
      <trkpt lat="40.22364" lon="-1.97823">
        <ele>1185.9</ele>
        <time>2023-08-19T10:03:32Z</time>
      </trkpt>
      <trkpt lat="40.22366" lon="-1.97819">
        <ele>1186.5</ele>
        <time>2023-08-19T10:03:35Z</time>
      </trkpt>
      <trkpt lat="40.22369" lon="-1.97812">
        <ele>1188.4</ele>
        <time>2023-08-19T10:03:38Z</time>
      </trkpt>
      <trkpt lat="40.22371" lon="-1.97806">
        <ele>1186.3</ele>
        <time>2023-08-19T10:03:43Z</time>
      </trkpt>
      <trkpt lat="40.22373" lon="-1.97802">
        <ele>1187.1</ele>
        <time>2023-08-19T10:03:46Z</time>
      </trkpt>
      <trkpt lat="40.22376" lon="-1.97796">
        <ele>1187.5</ele>
        <time>2023-08-19T10:03:50Z</time>
      </trkpt>
      <trkpt lat="40.2238" lon="-1.9779">
        <ele>1186.8</ele>
        <time>2023-08-19T10:03:53Z</time>
      </trkpt>
      <trkpt lat="40.22383" lon="-1.97786">
        <ele>1187.6</ele>
        <time>2023-08-19T10:03:57Z</time>
      </trkpt>
      <trkpt lat="40.22386" lon="-1.97782">
        <ele>1186.6</ele>
        <time>2023-08-19T10:04:00Z</time>
      </trkpt>
      <trkpt lat="40.22389" lon="-1.97777">
        <ele>1188.7</ele>
        <time>2023-08-19T10:04:03Z</time>
      </trkpt>
      <trkpt lat="40.22391" lon="-1.97773">
        <ele>1189</ele>
        <time>2023-08-19T10:04:07Z</time>
      </trkpt>
      <trkpt lat="40.22394" lon="-1.97769">
        <ele>1188.4</ele>
        <time>2023-08-19T10:04:10Z</time>
      </trkpt>
      <trkpt lat="40.22397" lon="-1.97768">
        <ele>1186.2</ele>
        <time>2023-08-19T10:04:13Z</time>
      </trkpt>
      <trkpt lat="40.224" lon="-1.97765">
        <ele>1188.9</ele>
        <time>2023-08-19T10:04:17Z</time>
      </trkpt>
      <trkpt lat="40.22401" lon="-1.97761">
        <ele>1187.6</ele>
        <time>2023-08-19T10:04:21Z</time>
      </trkpt>
      <trkpt lat="40.22403" lon="-1.97758">
        <ele>1188.2</ele>
        <time>2023-08-19T10:04:24Z</time>
      </trkpt>
      <trkpt lat="40.22404" lon="-1.97755">
        <ele>1188.4</ele>
        <time>2023-08-19T10:04:27Z</time>
      </trkpt>
      <trkpt lat="40.22407" lon="-1.97752">
        <ele>1188.3</ele>
        <time>2023-08-19T10:04:31Z</time>
      </trkpt>
      <trkpt lat="40.22409" lon="-1.97752">
        <ele>1189.8</ele>
        <time>2023-08-19T10:04:34Z</time>
      </trkpt>
      <trkpt lat="40.22412" lon="-1.97751">
        <ele>1190.1</ele>
        <time>2023-08-19T10:04:38Z</time>
      </trkpt>
      <trkpt lat="40.22415" lon="-1.9775">
        <ele>1186.6</ele>
        <time>2023-08-19T10:04:42Z</time>
      </trkpt>
      <trkpt lat="40.22419" lon="-1.9775">
        <ele>1188.1</ele>
        <time>2023-08-19T10:04:45Z</time>
      </trkpt>
      <trkpt lat="40.22427" lon="-1.97747">
        <ele>1187.5</ele>
        <time>2023-08-19T10:05:07Z</time>
      </trkpt>
      <trkpt lat="40.22432" lon="-1.97745">
        <ele>1186.4</ele>
        <time>2023-08-19T10:05:10Z</time>
      </trkpt>
      <trkpt lat="40.22437" lon="-1.97742">
        <ele>1186.1</ele>
        <time>2023-08-19T10:05:14Z</time>
      </trkpt>
      <trkpt lat="40.22439" lon="-1.97738">
        <ele>1185.5</ele>
        <time>2023-08-19T10:05:17Z</time>
      </trkpt>
      <trkpt lat="40.22439" lon="-1.97733">
        <ele>1183.8</ele>
        <time>2023-08-19T10:05:20Z</time>
      </trkpt>
      <trkpt lat="40.22438" lon="-1.97729">
        <ele>1186.6</ele>
        <time>2023-08-19T10:05:24Z</time>
      </trkpt>
      <trkpt lat="40.2244" lon="-1.97727">
        <ele>1186</ele>
        <time>2023-08-19T10:05:27Z</time>
      </trkpt>
      <trkpt lat="40.22433" lon="-1.97719">
        <ele>1191.4</ele>
        <time>2023-08-19T10:05:41Z</time>
      </trkpt>
      <trkpt lat="40.2243" lon="-1.97717">
        <ele>1189.6</ele>
        <time>2023-08-19T10:05:44Z</time>
      </trkpt>
      <trkpt lat="40.22427" lon="-1.97717">
        <ele>1188.5</ele>
        <time>2023-08-19T10:05:48Z</time>
      </trkpt>
      <trkpt lat="40.22423" lon="-1.97721">
        <ele>1187.7</ele>
        <time>2023-08-19T10:05:52Z</time>
      </trkpt>
      <trkpt lat="40.2242" lon="-1.97725">
        <ele>1187.5</ele>
        <time>2023-08-19T10:05:55Z</time>
      </trkpt>
      <trkpt lat="40.22417" lon="-1.9773">
        <ele>1188.1</ele>
        <time>2023-08-19T10:05:58Z</time>
      </trkpt>
      <trkpt lat="40.22415" lon="-1.97734">
        <ele>1189.8</ele>
        <time>2023-08-19T10:06:02Z</time>
      </trkpt>
      <trkpt lat="40.22413" lon="-1.97737">
        <ele>1190.6</ele>
        <time>2023-08-19T10:06:05Z</time>
      </trkpt>
      <trkpt lat="40.22412" lon="-1.97741">
        <ele>1189.6</ele>
        <time>2023-08-19T10:06:09Z</time>
      </trkpt>
      <trkpt lat="40.2241" lon="-1.97743">
        <ele>1189.2</ele>
        <time>2023-08-19T10:06:12Z</time>
      </trkpt>
      <trkpt lat="40.22407" lon="-1.97746">
        <ele>1188.8</ele>
        <time>2023-08-19T10:06:16Z</time>
      </trkpt>
      <trkpt lat="40.22403" lon="-1.97748">
        <ele>1187.6</ele>
        <time>2023-08-19T10:06:19Z</time>
      </trkpt>
      <trkpt lat="40.224" lon="-1.97751">
        <ele>1188</ele>
        <time>2023-08-19T10:06:22Z</time>
      </trkpt>
      <trkpt lat="40.22397" lon="-1.97754">
        <ele>1189.2</ele>
        <time>2023-08-19T10:06:25Z</time>
      </trkpt>
      <trkpt lat="40.22396" lon="-1.97758">
        <ele>1188.9</ele>
        <time>2023-08-19T10:06:28Z</time>
      </trkpt>
      <trkpt lat="40.22397" lon="-1.97761">
        <ele>1189.2</ele>
        <time>2023-08-19T10:06:32Z</time>
      </trkpt>
      <trkpt lat="40.22397" lon="-1.97762">
        <ele>1190.2</ele>
        <time>2023-08-19T10:06:35Z</time>
      </trkpt>
      <trkpt lat="40.22398" lon="-1.97764">
        <ele>1186.6</ele>
        <time>2023-08-19T10:06:39Z</time>
      </trkpt>
      <trkpt lat="40.224" lon="-1.97767">
        <ele>1185.8</ele>
        <time>2023-08-19T10:06:42Z</time>
      </trkpt>
      <trkpt lat="40.22404" lon="-1.97772">
        <ele>1184.7</ele>
        <time>2023-08-19T10:06:46Z</time>
      </trkpt>
      <trkpt lat="40.22407" lon="-1.97775">
        <ele>1185.7</ele>
        <time>2023-08-19T10:06:49Z</time>
      </trkpt>
      <trkpt lat="40.22411" lon="-1.97777">
        <ele>1183.1</ele>
        <time>2023-08-19T10:06:52Z</time>
      </trkpt>
      <trkpt lat="40.22413" lon="-1.97779">
        <ele>1184.5</ele>
        <time>2023-08-19T10:06:56Z</time>
      </trkpt>
      <trkpt lat="40.22415" lon="-1.97782">
        <ele>1184.2</ele>
        <time>2023-08-19T10:06:59Z</time>
      </trkpt>
      <trkpt lat="40.22416" lon="-1.97786">
        <ele>1184.4</ele>
        <time>2023-08-19T10:07:02Z</time>
      </trkpt>
      <trkpt lat="40.22418" lon="-1.97789">
        <ele>1184.2</ele>
        <time>2023-08-19T10:07:05Z</time>
      </trkpt>
      <trkpt lat="40.22419" lon="-1.97792">
        <ele>1184.3</ele>
        <time>2023-08-19T10:07:09Z</time>
      </trkpt>
      <trkpt lat="40.22421" lon="-1.97795">
        <ele>1183.2</ele>
        <time>2023-08-19T10:07:13Z</time>
      </trkpt>
      <trkpt lat="40.22421" lon="-1.97796">
        <ele>1183.5</ele>
        <time>2023-08-19T10:07:16Z</time>
      </trkpt>
      <trkpt lat="40.22421" lon="-1.97793">
        <ele>1185.1</ele>
        <time>2023-08-19T10:16:13Z</time>
      </trkpt>
      <trkpt lat="40.22419" lon="-1.9779">
        <ele>1184.6</ele>
        <time>2023-08-19T10:16:16Z</time>
      </trkpt>
      <trkpt lat="40.22416" lon="-1.97785">
        <ele>1186.3</ele>
        <time>2023-08-19T10:16:19Z</time>
      </trkpt>
      <trkpt lat="40.22414" lon="-1.97781">
        <ele>1185.2</ele>
        <time>2023-08-19T10:16:23Z</time>
      </trkpt>
      <trkpt lat="40.22411" lon="-1.97777">
        <ele>1185.7</ele>
        <time>2023-08-19T10:16:26Z</time>
      </trkpt>
      <trkpt lat="40.22409" lon="-1.97775">
        <ele>1186.3</ele>
        <time>2023-08-19T10:16:29Z</time>
      </trkpt>
      <trkpt lat="40.22408" lon="-1.97774">
        <ele>1187.4</ele>
        <time>2023-08-19T10:16:32Z</time>
      </trkpt>
      <trkpt lat="40.22407" lon="-1.97773">
        <ele>1188.2</ele>
        <time>2023-08-19T10:16:36Z</time>
      </trkpt>
      <trkpt lat="40.22404" lon="-1.97771">
        <ele>1188.6</ele>
        <time>2023-08-19T10:16:40Z</time>
      </trkpt>
      <trkpt lat="40.22403" lon="-1.97769">
        <ele>1188.4</ele>
        <time>2023-08-19T10:16:43Z</time>
      </trkpt>
      <trkpt lat="40.22402" lon="-1.97767">
        <ele>1189.5</ele>
        <time>2023-08-19T10:16:46Z</time>
      </trkpt>
      <trkpt lat="40.22401" lon="-1.97765">
        <ele>1190.1</ele>
        <time>2023-08-19T10:16:49Z</time>
      </trkpt>
      <trkpt lat="40.22399" lon="-1.97766">
        <ele>1190</ele>
        <time>2023-08-19T10:16:53Z</time>
      </trkpt>
      <trkpt lat="40.22395" lon="-1.97768">
        <ele>1190.1</ele>
        <time>2023-08-19T10:16:56Z</time>
      </trkpt>
      <trkpt lat="40.22392" lon="-1.9777">
        <ele>1189.9</ele>
        <time>2023-08-19T10:16:59Z</time>
      </trkpt>
      <trkpt lat="40.2239" lon="-1.97775">
        <ele>1189.2</ele>
        <time>2023-08-19T10:17:03Z</time>
      </trkpt>
      <trkpt lat="40.22387" lon="-1.97779">
        <ele>1190.4</ele>
        <time>2023-08-19T10:17:06Z</time>
      </trkpt>
      <trkpt lat="40.22384" lon="-1.97781">
        <ele>1190</ele>
        <time>2023-08-19T10:17:09Z</time>
      </trkpt>
      <trkpt lat="40.2238" lon="-1.97785">
        <ele>1189.5</ele>
        <time>2023-08-19T10:17:13Z</time>
      </trkpt>
      <trkpt lat="40.22377" lon="-1.97789">
        <ele>1188.7</ele>
        <time>2023-08-19T10:17:16Z</time>
      </trkpt>
      <trkpt lat="40.22375" lon="-1.97794">
        <ele>1189.6</ele>
        <time>2023-08-19T10:17:20Z</time>
      </trkpt>
      <trkpt lat="40.22373" lon="-1.978">
        <ele>1188.8</ele>
        <time>2023-08-19T10:17:23Z</time>
      </trkpt>
      <trkpt lat="40.2237" lon="-1.97804">
        <ele>1188.9</ele>
        <time>2023-08-19T10:17:27Z</time>
      </trkpt>
      <trkpt lat="40.22368" lon="-1.97808">
        <ele>1187.2</ele>
        <time>2023-08-19T10:17:30Z</time>
      </trkpt>
      <trkpt lat="40.22366" lon="-1.97813">
        <ele>1188.2</ele>
        <time>2023-08-19T10:17:33Z</time>
      </trkpt>
      <trkpt lat="40.22365" lon="-1.97817">
        <ele>1186.9</ele>
        <time>2023-08-19T10:17:37Z</time>
      </trkpt>
      <trkpt lat="40.22364" lon="-1.97821">
        <ele>1186.8</ele>
        <time>2023-08-19T10:17:40Z</time>
      </trkpt>
      <trkpt lat="40.22364" lon="-1.97826">
        <ele>1187.4</ele>
        <time>2023-08-19T10:17:44Z</time>
      </trkpt>
      <trkpt lat="40.22363" lon="-1.9783">
        <ele>1187.2</ele>
        <time>2023-08-19T10:17:47Z</time>
      </trkpt>
      <trkpt lat="40.22362" lon="-1.97836">
        <ele>1186.4</ele>
        <time>2023-08-19T10:17:50Z</time>
      </trkpt>
      <trkpt lat="40.22361" lon="-1.9784">
        <ele>1186.8</ele>
        <time>2023-08-19T10:17:54Z</time>
      </trkpt>
      <trkpt lat="40.2236" lon="-1.97844">
        <ele>1186.5</ele>
        <time>2023-08-19T10:17:57Z</time>
      </trkpt>
      <trkpt lat="40.22358" lon="-1.97849">
        <ele>1187.2</ele>
        <time>2023-08-19T10:18:00Z</time>
      </trkpt>
      <trkpt lat="40.22356" lon="-1.97854">
        <ele>1183.9</ele>
        <time>2023-08-19T10:18:04Z</time>
      </trkpt>
      <trkpt lat="40.22354" lon="-1.97859">
        <ele>1186.2</ele>
        <time>2023-08-19T10:18:07Z</time>
      </trkpt>
      <trkpt lat="40.22351" lon="-1.97864">
        <ele>1186.2</ele>
        <time>2023-08-19T10:18:11Z</time>
      </trkpt>
      <trkpt lat="40.2235" lon="-1.97869">
        <ele>1185.4</ele>
        <time>2023-08-19T10:18:14Z</time>
      </trkpt>
      <trkpt lat="40.22352" lon="-1.97874">
        <ele>1185.6</ele>
        <time>2023-08-19T10:18:17Z</time>
      </trkpt>
      <trkpt lat="40.22353" lon="-1.97879">
        <ele>1184.8</ele>
        <time>2023-08-19T10:18:21Z</time>
      </trkpt>
      <trkpt lat="40.22355" lon="-1.97883">
        <ele>1185.5</ele>
        <time>2023-08-19T10:18:24Z</time>
      </trkpt>
      <trkpt lat="40.22359" lon="-1.97886">
        <ele>1184.4</ele>
        <time>2023-08-19T10:18:28Z</time>
      </trkpt>
      <trkpt lat="40.2236" lon="-1.97888">
        <ele>1185.2</ele>
        <time>2023-08-19T10:18:31Z</time>
      </trkpt>
      <trkpt lat="40.22356" lon="-1.97893">
        <ele>1185.7</ele>
        <time>2023-08-19T10:18:39Z</time>
      </trkpt>
      <trkpt lat="40.22354" lon="-1.97897">
        <ele>1185.1</ele>
        <time>2023-08-19T10:18:43Z</time>
      </trkpt>
      <trkpt lat="40.22353" lon="-1.97903">
        <ele>1185.4</ele>
        <time>2023-08-19T10:18:46Z</time>
      </trkpt>
      <trkpt lat="40.22351" lon="-1.97906">
        <ele>1185.5</ele>
        <time>2023-08-19T10:18:49Z</time>
      </trkpt>
      <trkpt lat="40.22351" lon="-1.97905">
        <ele>1184.3</ele>
        <time>2023-08-19T10:18:52Z</time>
      </trkpt>
      <trkpt lat="40.22356" lon="-1.97905">
        <ele>1185.8</ele>
        <time>2023-08-19T10:19:43Z</time>
      </trkpt>
      <trkpt lat="40.22356" lon="-1.97901">
        <ele>1187</ele>
        <time>2023-08-19T10:19:47Z</time>
      </trkpt>
      <trkpt lat="40.22358" lon="-1.97896">
        <ele>1186.9</ele>
        <time>2023-08-19T10:19:51Z</time>
      </trkpt>
      <trkpt lat="40.22361" lon="-1.97892">
        <ele>1185.7</ele>
        <time>2023-08-19T10:19:54Z</time>
      </trkpt>
      <trkpt lat="40.22365" lon="-1.97888">
        <ele>1185.4</ele>
        <time>2023-08-19T10:19:58Z</time>
      </trkpt>
      <trkpt lat="40.22367" lon="-1.97888">
        <ele>1185.1</ele>
        <time>2023-08-19T10:20:02Z</time>
      </trkpt>
      <trkpt lat="40.22365" lon="-1.97891">
        <ele>1186.1</ele>
        <time>2023-08-19T10:21:53Z</time>
      </trkpt>
      <trkpt lat="40.2236" lon="-1.97895">
        <ele>1186</ele>
        <time>2023-08-19T10:21:56Z</time>
      </trkpt>
      <trkpt lat="40.22357" lon="-1.97899">
        <ele>1187.1</ele>
        <time>2023-08-19T10:21:59Z</time>
      </trkpt>
      <trkpt lat="40.22357" lon="-1.97903">
        <ele>1186.6</ele>
        <time>2023-08-19T10:22:03Z</time>
      </trkpt>
      <trkpt lat="40.22355" lon="-1.97907">
        <ele>1185.8</ele>
        <time>2023-08-19T10:22:06Z</time>
      </trkpt>
      <trkpt lat="40.22353" lon="-1.97908">
        <ele>1186.8</ele>
        <time>2023-08-19T10:22:09Z</time>
      </trkpt>
      <trkpt lat="40.22355" lon="-1.97911">
        <ele>1186.7</ele>
        <time>2023-08-19T10:24:19Z</time>
      </trkpt>
      <trkpt lat="40.2236" lon="-1.97917">
        <ele>1186.9</ele>
        <time>2023-08-19T10:24:22Z</time>
      </trkpt>
      <trkpt lat="40.22372" lon="-1.97927">
        <ele>1186.3</ele>
        <time>2023-08-19T10:24:25Z</time>
      </trkpt>
      <trkpt lat="40.22381" lon="-1.97939">
        <ele>1186.4</ele>
        <time>2023-08-19T10:24:29Z</time>
      </trkpt>
      <trkpt lat="40.22389" lon="-1.97951">
        <ele>1185.8</ele>
        <time>2023-08-19T10:24:32Z</time>
      </trkpt>
      <trkpt lat="40.22398" lon="-1.97964">
        <ele>1186.2</ele>
        <time>2023-08-19T10:24:35Z</time>
      </trkpt>
      <trkpt lat="40.22409" lon="-1.97982">
        <ele>1187.9</ele>
        <time>2023-08-19T10:24:38Z</time>
      </trkpt>
      <trkpt lat="40.22416" lon="-1.98012">
        <ele>1186.6</ele>
        <time>2023-08-19T10:24:42Z</time>
      </trkpt>
      <trkpt lat="40.22415" lon="-1.98037">
        <ele>1186.5</ele>
        <time>2023-08-19T10:24:45Z</time>
      </trkpt>
      <trkpt lat="40.22413" lon="-1.98078">
        <ele>1186.2</ele>
        <time>2023-08-19T10:24:49Z</time>
      </trkpt>
      <trkpt lat="40.22412" lon="-1.98108">
        <ele>1185.7</ele>
        <time>2023-08-19T10:24:52Z</time>
      </trkpt>
      <trkpt lat="40.22413" lon="-1.98136">
        <ele>1185.5</ele>
        <time>2023-08-19T10:24:55Z</time>
      </trkpt>
      <trkpt lat="40.2242" lon="-1.98171">
        <ele>1184.9</ele>
        <time>2023-08-19T10:24:59Z</time>
      </trkpt>
      <trkpt lat="40.22426" lon="-1.98197">
        <ele>1187</ele>
        <time>2023-08-19T10:25:02Z</time>
      </trkpt>
      <trkpt lat="40.22432" lon="-1.98233">
        <ele>1190</ele>
        <time>2023-08-19T10:25:06Z</time>
      </trkpt>
      <trkpt lat="40.22429" lon="-1.9827">
        <ele>1190.2</ele>
        <time>2023-08-19T10:25:10Z</time>
      </trkpt>
      <trkpt lat="40.22419" lon="-1.98305">
        <ele>1193.8</ele>
        <time>2023-08-19T10:25:14Z</time>
      </trkpt>
      <trkpt lat="40.22403" lon="-1.9834">
        <ele>1195.7</ele>
        <time>2023-08-19T10:25:18Z</time>
      </trkpt>
      <trkpt lat="40.2239" lon="-1.98374">
        <ele>1197.2</ele>
        <time>2023-08-19T10:25:22Z</time>
      </trkpt>
      <trkpt lat="40.22385" lon="-1.98403">
        <ele>1198</ele>
        <time>2023-08-19T10:25:25Z</time>
      </trkpt>
      <trkpt lat="40.22386" lon="-1.98435">
        <ele>1199.8</ele>
        <time>2023-08-19T10:25:28Z</time>
      </trkpt>
      <trkpt lat="40.22396" lon="-1.98472">
        <ele>1202.1</ele>
        <time>2023-08-19T10:25:32Z</time>
      </trkpt>
      <trkpt lat="40.22405" lon="-1.98497">
        <ele>1203.2</ele>
        <time>2023-08-19T10:25:35Z</time>
      </trkpt>
      <trkpt lat="40.22412" lon="-1.98523">
        <ele>1204.6</ele>
        <time>2023-08-19T10:25:38Z</time>
      </trkpt>
      <trkpt lat="40.22419" lon="-1.98559">
        <ele>1205.9</ele>
        <time>2023-08-19T10:25:42Z</time>
      </trkpt>
      <trkpt lat="40.22416" lon="-1.98588">
        <ele>1206.6</ele>
        <time>2023-08-19T10:25:45Z</time>
      </trkpt>
      <trkpt lat="40.2241" lon="-1.98616">
        <ele>1209.5</ele>
        <time>2023-08-19T10:25:48Z</time>
      </trkpt>
      <trkpt lat="40.22405" lon="-1.98654">
        <ele>1210.6</ele>
        <time>2023-08-19T10:25:52Z</time>
      </trkpt>
      <trkpt lat="40.22406" lon="-1.98681">
        <ele>1212</ele>
        <time>2023-08-19T10:25:55Z</time>
      </trkpt>
      <trkpt lat="40.22411" lon="-1.98719">
        <ele>1214.4</ele>
        <time>2023-08-19T10:25:59Z</time>
      </trkpt>
      <trkpt lat="40.22424" lon="-1.98754">
        <ele>1216.4</ele>
        <time>2023-08-19T10:26:03Z</time>
      </trkpt>
      <trkpt lat="40.2244" lon="-1.98785">
        <ele>1217.6</ele>
        <time>2023-08-19T10:26:07Z</time>
      </trkpt>
      <trkpt lat="40.22457" lon="-1.98817">
        <ele>1219.3</ele>
        <time>2023-08-19T10:26:11Z</time>
      </trkpt>
      <trkpt lat="40.22468" lon="-1.9884">
        <ele>1220.5</ele>
        <time>2023-08-19T10:26:14Z</time>
      </trkpt>
      <trkpt lat="40.22479" lon="-1.98864">
        <ele>1221.6</ele>
        <time>2023-08-19T10:26:17Z</time>
      </trkpt>
      <trkpt lat="40.2249" lon="-1.98899">
        <ele>1224.4</ele>
        <time>2023-08-19T10:26:21Z</time>
      </trkpt>
      <trkpt lat="40.22498" lon="-1.98927">
        <ele>1226.2</ele>
        <time>2023-08-19T10:26:24Z</time>
      </trkpt>
      <trkpt lat="40.22503" lon="-1.98964">
        <ele>1226.4</ele>
        <time>2023-08-19T10:26:28Z</time>
      </trkpt>
      <trkpt lat="40.22506" lon="-1.98993">
        <ele>1226.6</ele>
        <time>2023-08-19T10:26:31Z</time>
      </trkpt>
      <trkpt lat="40.22507" lon="-1.99022">
        <ele>1227.5</ele>
        <time>2023-08-19T10:26:34Z</time>
      </trkpt>
      <trkpt lat="40.22507" lon="-1.9906">
        <ele>1227.4</ele>
        <time>2023-08-19T10:26:38Z</time>
      </trkpt>
      <trkpt lat="40.22508" lon="-1.99098">
        <ele>1227.4</ele>
        <time>2023-08-19T10:26:42Z</time>
      </trkpt>
      <trkpt lat="40.22508" lon="-1.99135">
        <ele>1228.2</ele>
        <time>2023-08-19T10:26:46Z</time>
      </trkpt>
      <trkpt lat="40.22509" lon="-1.99173">
        <ele>1228.4</ele>
        <time>2023-08-19T10:26:50Z</time>
      </trkpt>
      <trkpt lat="40.2251" lon="-1.9921">
        <ele>1226.9</ele>
        <time>2023-08-19T10:26:54Z</time>
      </trkpt>
      <trkpt lat="40.2251" lon="-1.99249">
        <ele>1227.8</ele>
        <time>2023-08-19T10:26:58Z</time>
      </trkpt>
      <trkpt lat="40.22516" lon="-1.99287">
        <ele>1228.9</ele>
        <time>2023-08-19T10:27:02Z</time>
      </trkpt>
      <trkpt lat="40.22525" lon="-1.99313">
        <ele>1228.6</ele>
        <time>2023-08-19T10:27:05Z</time>
      </trkpt>
      <trkpt lat="40.22539" lon="-1.99336">
        <ele>1228.7</ele>
        <time>2023-08-19T10:27:08Z</time>
      </trkpt>
      <trkpt lat="40.22562" lon="-1.99359">
        <ele>1228.5</ele>
        <time>2023-08-19T10:27:12Z</time>
      </trkpt>
      <trkpt lat="40.22582" lon="-1.99372">
        <ele>1229</ele>
        <time>2023-08-19T10:27:15Z</time>
      </trkpt>
      <trkpt lat="40.22611" lon="-1.99378">
        <ele>1229.8</ele>
        <time>2023-08-19T10:27:19Z</time>
      </trkpt>
      <trkpt lat="40.22638" lon="-1.99376">
        <ele>1229</ele>
        <time>2023-08-19T10:27:23Z</time>
      </trkpt>
      <trkpt lat="40.22667" lon="-1.99368">
        <ele>1230.9</ele>
        <time>2023-08-19T10:27:27Z</time>
      </trkpt>
      <trkpt lat="40.22696" lon="-1.9936">
        <ele>1231.3</ele>
        <time>2023-08-19T10:27:31Z</time>
      </trkpt>
      <trkpt lat="40.22724" lon="-1.9935">
        <ele>1231.4</ele>
        <time>2023-08-19T10:27:35Z</time>
      </trkpt>
      <trkpt lat="40.22745" lon="-1.99344">
        <ele>1232.2</ele>
        <time>2023-08-19T10:27:38Z</time>
      </trkpt>
      <trkpt lat="40.22774" lon="-1.99335">
        <ele>1232.7</ele>
        <time>2023-08-19T10:27:42Z</time>
      </trkpt>
      <trkpt lat="40.22795" lon="-1.99329">
        <ele>1233.7</ele>
        <time>2023-08-19T10:27:45Z</time>
      </trkpt>
      <trkpt lat="40.22825" lon="-1.99326">
        <ele>1234.4</ele>
        <time>2023-08-19T10:27:49Z</time>
      </trkpt>
      <trkpt lat="40.22847" lon="-1.99329">
        <ele>1234.3</ele>
        <time>2023-08-19T10:27:52Z</time>
      </trkpt>
      <trkpt lat="40.22874" lon="-1.99341">
        <ele>1234.9</ele>
        <time>2023-08-19T10:27:56Z</time>
      </trkpt>
      <trkpt lat="40.22894" lon="-1.99355">
        <ele>1235.7</ele>
        <time>2023-08-19T10:27:59Z</time>
      </trkpt>
      <trkpt lat="40.2292" lon="-1.99376">
        <ele>1237.4</ele>
        <time>2023-08-19T10:28:03Z</time>
      </trkpt>
      <trkpt lat="40.22945" lon="-1.99396">
        <ele>1238.1</ele>
        <time>2023-08-19T10:28:07Z</time>
      </trkpt>
      <trkpt lat="40.22967" lon="-1.99421">
        <ele>1237.5</ele>
        <time>2023-08-19T10:28:11Z</time>
      </trkpt>
      <trkpt lat="40.22979" lon="-1.99444">
        <ele>1236.1</ele>
        <time>2023-08-19T10:28:14Z</time>
      </trkpt>
      <trkpt lat="40.22992" lon="-1.99478">
        <ele>1236.5</ele>
        <time>2023-08-19T10:28:18Z</time>
      </trkpt>
      <trkpt lat="40.22999" lon="-1.99506">
        <ele>1237.9</ele>
        <time>2023-08-19T10:28:21Z</time>
      </trkpt>
      <trkpt lat="40.23006" lon="-1.99533">
        <ele>1238</ele>
        <time>2023-08-19T10:28:24Z</time>
      </trkpt>
      <trkpt lat="40.23013" lon="-1.9956">
        <ele>1238.2</ele>
        <time>2023-08-19T10:28:27Z</time>
      </trkpt>
      <trkpt lat="40.23023" lon="-1.99595">
        <ele>1238.5</ele>
        <time>2023-08-19T10:28:31Z</time>
      </trkpt>
      <trkpt lat="40.2303" lon="-1.99621">
        <ele>1239.3</ele>
        <time>2023-08-19T10:28:34Z</time>
      </trkpt>
      <trkpt lat="40.2304" lon="-1.99656">
        <ele>1240.7</ele>
        <time>2023-08-19T10:28:38Z</time>
      </trkpt>
      <trkpt lat="40.23048" lon="-1.99682">
        <ele>1241</ele>
        <time>2023-08-19T10:28:41Z</time>
      </trkpt>
      <trkpt lat="40.23052" lon="-1.99709">
        <ele>1241.4</ele>
        <time>2023-08-19T10:28:44Z</time>
      </trkpt>
      <trkpt lat="40.23053" lon="-1.99738">
        <ele>1242.2</ele>
        <time>2023-08-19T10:28:47Z</time>
      </trkpt>
      <trkpt lat="40.23056" lon="-1.99777">
        <ele>1242.3</ele>
        <time>2023-08-19T10:28:51Z</time>
      </trkpt>
      <trkpt lat="40.2306" lon="-1.99805">
        <ele>1242.3</ele>
        <time>2023-08-19T10:28:54Z</time>
      </trkpt>
      <trkpt lat="40.23068" lon="-1.99841">
        <ele>1243.3</ele>
        <time>2023-08-19T10:28:58Z</time>
      </trkpt>
      <trkpt lat="40.2308" lon="-1.99876">
        <ele>1242.5</ele>
        <time>2023-08-19T10:29:02Z</time>
      </trkpt>
      <trkpt lat="40.23093" lon="-1.999">
        <ele>1244.8</ele>
        <time>2023-08-19T10:29:05Z</time>
      </trkpt>
      <trkpt lat="40.23113" lon="-1.99926">
        <ele>1245.2</ele>
        <time>2023-08-19T10:29:09Z</time>
      </trkpt>
      <trkpt lat="40.23136" lon="-1.99946">
        <ele>1246.2</ele>
        <time>2023-08-19T10:29:13Z</time>
      </trkpt>
      <trkpt lat="40.23156" lon="-1.99959">
        <ele>1248.6</ele>
        <time>2023-08-19T10:29:16Z</time>
      </trkpt>
      <trkpt lat="40.23176" lon="-1.99968">
        <ele>1248.2</ele>
        <time>2023-08-19T10:29:19Z</time>
      </trkpt>
      <trkpt lat="40.23203" lon="-1.99977">
        <ele>1249.7</ele>
        <time>2023-08-19T10:29:23Z</time>
      </trkpt>
      <trkpt lat="40.23223" lon="-1.99984">
        <ele>1250.4</ele>
        <time>2023-08-19T10:29:26Z</time>
      </trkpt>
      <trkpt lat="40.23243" lon="-1.99994">
        <ele>1250.4</ele>
        <time>2023-08-19T10:29:29Z</time>
      </trkpt>
      <trkpt lat="40.23269" lon="-2.00014">
        <ele>1252.2</ele>
        <time>2023-08-19T10:29:33Z</time>
      </trkpt>
      <trkpt lat="40.23289" lon="-2.00033">
        <ele>1252.1</ele>
        <time>2023-08-19T10:29:36Z</time>
      </trkpt>
      <trkpt lat="40.23306" lon="-2.00054">
        <ele>1253.5</ele>
        <time>2023-08-19T10:29:39Z</time>
      </trkpt>
      <trkpt lat="40.23321" lon="-2.00086">
        <ele>1254.5</ele>
        <time>2023-08-19T10:29:43Z</time>
      </trkpt>
      <trkpt lat="40.23329" lon="-2.00111">
        <ele>1254.5</ele>
        <time>2023-08-19T10:29:46Z</time>
      </trkpt>
      <trkpt lat="40.23335" lon="-2.00138">
        <ele>1254</ele>
        <time>2023-08-19T10:29:49Z</time>
      </trkpt>
      <trkpt lat="40.23347" lon="-2.00176">
        <ele>1254</ele>
        <time>2023-08-19T10:29:53Z</time>
      </trkpt>
      <trkpt lat="40.23359" lon="-2.00198">
        <ele>1254.5</ele>
        <time>2023-08-19T10:29:56Z</time>
      </trkpt>
      <trkpt lat="40.23377" lon="-2.00228">
        <ele>1255.6</ele>
        <time>2023-08-19T10:30:00Z</time>
      </trkpt>
      <trkpt lat="40.23389" lon="-2.0025">
        <ele>1255.9</ele>
        <time>2023-08-19T10:30:03Z</time>
      </trkpt>
      <trkpt lat="40.23405" lon="-2.0028">
        <ele>1257</ele>
        <time>2023-08-19T10:30:07Z</time>
      </trkpt>
      <trkpt lat="40.23418" lon="-2.00313">
        <ele>1258.3</ele>
        <time>2023-08-19T10:30:11Z</time>
      </trkpt>
      <trkpt lat="40.23425" lon="-2.00352">
        <ele>1259.1</ele>
        <time>2023-08-19T10:30:15Z</time>
      </trkpt>
      <trkpt lat="40.2343" lon="-2.0039">
        <ele>1260.2</ele>
        <time>2023-08-19T10:30:19Z</time>
      </trkpt>
      <trkpt lat="40.23436" lon="-2.00417">
        <ele>1260.6</ele>
        <time>2023-08-19T10:30:22Z</time>
      </trkpt>
      <trkpt lat="40.23445" lon="-2.00452">
        <ele>1261.2</ele>
        <time>2023-08-19T10:30:26Z</time>
      </trkpt>
      <trkpt lat="40.23457" lon="-2.00485">
        <ele>1261.6</ele>
        <time>2023-08-19T10:30:30Z</time>
      </trkpt>
      <trkpt lat="40.23475" lon="-2.00514">
        <ele>1262.8</ele>
        <time>2023-08-19T10:30:34Z</time>
      </trkpt>
      <trkpt lat="40.23499" lon="-2.00536">
        <ele>1262.7</ele>
        <time>2023-08-19T10:30:38Z</time>
      </trkpt>
      <trkpt lat="40.23527" lon="-2.00553">
        <ele>1264.3</ele>
        <time>2023-08-19T10:30:42Z</time>
      </trkpt>
      <trkpt lat="40.23555" lon="-2.00564">
        <ele>1267.6</ele>
        <time>2023-08-19T10:30:46Z</time>
      </trkpt>
      <trkpt lat="40.23574" lon="-2.00572">
        <ele>1269.2</ele>
        <time>2023-08-19T10:30:49Z</time>
      </trkpt>
      <trkpt lat="40.23596" lon="-2.00586">
        <ele>1270.8</ele>
        <time>2023-08-19T10:30:53Z</time>
      </trkpt>
      <trkpt lat="40.23614" lon="-2.0061">
        <ele>1269.8</ele>
        <time>2023-08-19T10:30:57Z</time>
      </trkpt>
      <trkpt lat="40.23628" lon="-2.0064">
        <ele>1273.3</ele>
        <time>2023-08-19T10:31:01Z</time>
      </trkpt>
      <trkpt lat="40.2364" lon="-2.00664">
        <ele>1274.1</ele>
        <time>2023-08-19T10:31:04Z</time>
      </trkpt>
      <trkpt lat="40.23651" lon="-2.00689">
        <ele>1275.7</ele>
        <time>2023-08-19T10:31:07Z</time>
      </trkpt>
      <trkpt lat="40.23666" lon="-2.00721">
        <ele>1277</ele>
        <time>2023-08-19T10:31:11Z</time>
      </trkpt>
      <trkpt lat="40.23679" lon="-2.00744">
        <ele>1278.1</ele>
        <time>2023-08-19T10:31:14Z</time>
      </trkpt>
      <trkpt lat="40.23694" lon="-2.00764">
        <ele>1279.1</ele>
        <time>2023-08-19T10:31:17Z</time>
      </trkpt>
      <trkpt lat="40.23716" lon="-2.00788">
        <ele>1280.8</ele>
        <time>2023-08-19T10:31:21Z</time>
      </trkpt>
      <trkpt lat="40.23738" lon="-2.00808">
        <ele>1284.4</ele>
        <time>2023-08-19T10:31:25Z</time>
      </trkpt>
      <trkpt lat="40.23759" lon="-2.00827">
        <ele>1288.7</ele>
        <time>2023-08-19T10:31:29Z</time>
      </trkpt>
      <trkpt lat="40.23773" lon="-2.00844">
        <ele>1289.4</ele>
        <time>2023-08-19T10:31:32Z</time>
      </trkpt>
      <trkpt lat="40.23787" lon="-2.0087">
        <ele>1291.6</ele>
        <time>2023-08-19T10:31:36Z</time>
      </trkpt>
      <trkpt lat="40.23797" lon="-2.009">
        <ele>1295.5</ele>
        <time>2023-08-19T10:31:40Z</time>
      </trkpt>
      <trkpt lat="40.23805" lon="-2.00933">
        <ele>1297</ele>
        <time>2023-08-19T10:31:44Z</time>
      </trkpt>
      <trkpt lat="40.23815" lon="-2.00966">
        <ele>1299.3</ele>
        <time>2023-08-19T10:31:48Z</time>
      </trkpt>
      <trkpt lat="40.23822" lon="-2.00991">
        <ele>1300.1</ele>
        <time>2023-08-19T10:31:51Z</time>
      </trkpt>
      <trkpt lat="40.23828" lon="-2.01028">
        <ele>1301.1</ele>
        <time>2023-08-19T10:31:55Z</time>
      </trkpt>
      <trkpt lat="40.23831" lon="-2.01056">
        <ele>1302.1</ele>
        <time>2023-08-19T10:31:58Z</time>
      </trkpt>
      <trkpt lat="40.23837" lon="-2.01092">
        <ele>1304.4</ele>
        <time>2023-08-19T10:32:02Z</time>
      </trkpt>
      <trkpt lat="40.23845" lon="-2.01119">
        <ele>1306.8</ele>
        <time>2023-08-19T10:32:05Z</time>
      </trkpt>
      <trkpt lat="40.23854" lon="-2.01156">
        <ele>1308.2</ele>
        <time>2023-08-19T10:32:09Z</time>
      </trkpt>
      <trkpt lat="40.23862" lon="-2.01184">
        <ele>1310.2</ele>
        <time>2023-08-19T10:32:12Z</time>
      </trkpt>
      <trkpt lat="40.23877" lon="-2.01216">
        <ele>1311.7</ele>
        <time>2023-08-19T10:32:16Z</time>
      </trkpt>
      <trkpt lat="40.23896" lon="-2.01245">
        <ele>1314.2</ele>
        <time>2023-08-19T10:32:20Z</time>
      </trkpt>
      <trkpt lat="40.23913" lon="-2.01276">
        <ele>1313.9</ele>
        <time>2023-08-19T10:32:24Z</time>
      </trkpt>
      <trkpt lat="40.23921" lon="-2.01302">
        <ele>1315.4</ele>
        <time>2023-08-19T10:32:27Z</time>
      </trkpt>
      <trkpt lat="40.23932" lon="-2.0134">
        <ele>1317.5</ele>
        <time>2023-08-19T10:32:31Z</time>
      </trkpt>
      <trkpt lat="40.23942" lon="-2.01365">
        <ele>1319.3</ele>
        <time>2023-08-19T10:32:34Z</time>
      </trkpt>
      <trkpt lat="40.23955" lon="-2.01387">
        <ele>1321.1</ele>
        <time>2023-08-19T10:32:37Z</time>
      </trkpt>
      <trkpt lat="40.23977" lon="-2.01412">
        <ele>1321.5</ele>
        <time>2023-08-19T10:32:41Z</time>
      </trkpt>
      <trkpt lat="40.23993" lon="-2.0143">
        <ele>1321.7</ele>
        <time>2023-08-19T10:32:44Z</time>
      </trkpt>
      <trkpt lat="40.24009" lon="-2.01451">
        <ele>1322.9</ele>
        <time>2023-08-19T10:32:47Z</time>
      </trkpt>
      <trkpt lat="40.24031" lon="-2.01476">
        <ele>1324.8</ele>
        <time>2023-08-19T10:32:51Z</time>
      </trkpt>
      <trkpt lat="40.24052" lon="-2.01502">
        <ele>1326.1</ele>
        <time>2023-08-19T10:32:55Z</time>
      </trkpt>
      <trkpt lat="40.24067" lon="-2.01522">
        <ele>1326.2</ele>
        <time>2023-08-19T10:32:58Z</time>
      </trkpt>
      <trkpt lat="40.24088" lon="-2.01549">
        <ele>1326.7</ele>
        <time>2023-08-19T10:33:02Z</time>
      </trkpt>
      <trkpt lat="40.24104" lon="-2.01568">
        <ele>1326.9</ele>
        <time>2023-08-19T10:33:05Z</time>
      </trkpt>
      <trkpt lat="40.24125" lon="-2.01597">
        <ele>1326.6</ele>
        <time>2023-08-19T10:33:09Z</time>
      </trkpt>
      <trkpt lat="40.24138" lon="-2.01618">
        <ele>1326.8</ele>
        <time>2023-08-19T10:33:12Z</time>
      </trkpt>
      <trkpt lat="40.24151" lon="-2.01641">
        <ele>1326.7</ele>
        <time>2023-08-19T10:33:15Z</time>
      </trkpt>
      <trkpt lat="40.24165" lon="-2.0167">
        <ele>1327</ele>
        <time>2023-08-19T10:33:19Z</time>
      </trkpt>
      <trkpt lat="40.24176" lon="-2.01693">
        <ele>1327.1</ele>
        <time>2023-08-19T10:33:22Z</time>
      </trkpt>
      <trkpt lat="40.24193" lon="-2.01724">
        <ele>1327.6</ele>
        <time>2023-08-19T10:33:26Z</time>
      </trkpt>
      <trkpt lat="40.24209" lon="-2.01744">
        <ele>1329</ele>
        <time>2023-08-19T10:33:29Z</time>
      </trkpt>
      <trkpt lat="40.24231" lon="-2.0177">
        <ele>1329.4</ele>
        <time>2023-08-19T10:33:33Z</time>
      </trkpt>
      <trkpt lat="40.24254" lon="-2.01794">
        <ele>1332.5</ele>
        <time>2023-08-19T10:33:37Z</time>
      </trkpt>
      <trkpt lat="40.24277" lon="-2.01817">
        <ele>1334.6</ele>
        <time>2023-08-19T10:33:41Z</time>
      </trkpt>
      <trkpt lat="40.24295" lon="-2.01835">
        <ele>1335.5</ele>
        <time>2023-08-19T10:33:44Z</time>
      </trkpt>
      <trkpt lat="40.24313" lon="-2.01853">
        <ele>1336.7</ele>
        <time>2023-08-19T10:33:47Z</time>
      </trkpt>
      <trkpt lat="40.24336" lon="-2.01876">
        <ele>1338</ele>
        <time>2023-08-19T10:33:51Z</time>
      </trkpt>
      <trkpt lat="40.24353" lon="-2.01893">
        <ele>1338.3</ele>
        <time>2023-08-19T10:33:54Z</time>
      </trkpt>
      <trkpt lat="40.24369" lon="-2.01911">
        <ele>1338.8</ele>
        <time>2023-08-19T10:33:57Z</time>
      </trkpt>
      <trkpt lat="40.24392" lon="-2.01934">
        <ele>1342.2</ele>
        <time>2023-08-19T10:34:01Z</time>
      </trkpt>
      <trkpt lat="40.24416" lon="-2.01958">
        <ele>1342.5</ele>
        <time>2023-08-19T10:34:05Z</time>
      </trkpt>
      <trkpt lat="40.24438" lon="-2.01982">
        <ele>1345.2</ele>
        <time>2023-08-19T10:34:09Z</time>
      </trkpt>
      <trkpt lat="40.24462" lon="-2.02004">
        <ele>1346.5</ele>
        <time>2023-08-19T10:34:13Z</time>
      </trkpt>
      <trkpt lat="40.24485" lon="-2.02025">
        <ele>1349.3</ele>
        <time>2023-08-19T10:34:17Z</time>
      </trkpt>
      <trkpt lat="40.24502" lon="-2.02042">
        <ele>1350.2</ele>
        <time>2023-08-19T10:34:20Z</time>
      </trkpt>
      <trkpt lat="40.24523" lon="-2.02069">
        <ele>1351.5</ele>
        <time>2023-08-19T10:34:24Z</time>
      </trkpt>
      <trkpt lat="40.24542" lon="-2.02102">
        <ele>1352.4</ele>
        <time>2023-08-19T10:34:28Z</time>
      </trkpt>
      <trkpt lat="40.24553" lon="-2.02139">
        <ele>1353.2</ele>
        <time>2023-08-19T10:34:32Z</time>
      </trkpt>
      <trkpt lat="40.24558" lon="-2.02178">
        <ele>1354.6</ele>
        <time>2023-08-19T10:34:36Z</time>
      </trkpt>
      <trkpt lat="40.24562" lon="-2.02205">
        <ele>1354.9</ele>
        <time>2023-08-19T10:34:39Z</time>
      </trkpt>
      <trkpt lat="40.24566" lon="-2.02241">
        <ele>1356.3</ele>
        <time>2023-08-19T10:34:43Z</time>
      </trkpt>
      <trkpt lat="40.24565" lon="-2.02278">
        <ele>1356.8</ele>
        <time>2023-08-19T10:34:47Z</time>
      </trkpt>
      <trkpt lat="40.24558" lon="-2.02314">
        <ele>1359.3</ele>
        <time>2023-08-19T10:34:51Z</time>
      </trkpt>
      <trkpt lat="40.24548" lon="-2.0235">
        <ele>1359.3</ele>
        <time>2023-08-19T10:34:55Z</time>
      </trkpt>
      <trkpt lat="40.24539" lon="-2.02385">
        <ele>1358.3</ele>
        <time>2023-08-19T10:34:59Z</time>
      </trkpt>
      <trkpt lat="40.24533" lon="-2.02413">
        <ele>1358</ele>
        <time>2023-08-19T10:35:02Z</time>
      </trkpt>
      <trkpt lat="40.24526" lon="-2.0245">
        <ele>1359</ele>
        <time>2023-08-19T10:35:06Z</time>
      </trkpt>
      <trkpt lat="40.24521" lon="-2.02487">
        <ele>1360.8</ele>
        <time>2023-08-19T10:35:10Z</time>
      </trkpt>
      <trkpt lat="40.24516" lon="-2.02525">
        <ele>1361.3</ele>
        <time>2023-08-19T10:35:14Z</time>
      </trkpt>
      <trkpt lat="40.24511" lon="-2.02553">
        <ele>1361.5</ele>
        <time>2023-08-19T10:35:17Z</time>
      </trkpt>
      <trkpt lat="40.24501" lon="-2.02582">
        <ele>1362.6</ele>
        <time>2023-08-19T10:35:20Z</time>
      </trkpt>
      <trkpt lat="40.24485" lon="-2.02614">
        <ele>1361.5</ele>
        <time>2023-08-19T10:35:24Z</time>
      </trkpt>
      <trkpt lat="40.24471" lon="-2.02646">
        <ele>1360.1</ele>
        <time>2023-08-19T10:35:28Z</time>
      </trkpt>
      <trkpt lat="40.24463" lon="-2.02671">
        <ele>1359.6</ele>
        <time>2023-08-19T10:35:31Z</time>
      </trkpt>
      <trkpt lat="40.24459" lon="-2.02699">
        <ele>1360.5</ele>
        <time>2023-08-19T10:35:34Z</time>
      </trkpt>
      <trkpt lat="40.24463" lon="-2.02738">
        <ele>1362.3</ele>
        <time>2023-08-19T10:35:38Z</time>
      </trkpt>
      <trkpt lat="40.24472" lon="-2.02765">
        <ele>1361.4</ele>
        <time>2023-08-19T10:35:41Z</time>
      </trkpt>
      <trkpt lat="40.24486" lon="-2.02801">
        <ele>1359.9</ele>
        <time>2023-08-19T10:35:45Z</time>
      </trkpt>
      <trkpt lat="40.24494" lon="-2.02837">
        <ele>1356.6</ele>
        <time>2023-08-19T10:35:49Z</time>
      </trkpt>
      <trkpt lat="40.24492" lon="-2.02874">
        <ele>1354.4</ele>
        <time>2023-08-19T10:35:53Z</time>
      </trkpt>
      <trkpt lat="40.24484" lon="-2.02912">
        <ele>1354.6</ele>
        <time>2023-08-19T10:35:57Z</time>
      </trkpt>
      <trkpt lat="40.24476" lon="-2.02949">
        <ele>1353.6</ele>
        <time>2023-08-19T10:36:01Z</time>
      </trkpt>
      <trkpt lat="40.24473" lon="-2.02987">
        <ele>1352.9</ele>
        <time>2023-08-19T10:36:05Z</time>
      </trkpt>
      <trkpt lat="40.24476" lon="-2.03014">
        <ele>1351.8</ele>
        <time>2023-08-19T10:36:08Z</time>
      </trkpt>
      <trkpt lat="40.24482" lon="-2.03042">
        <ele>1351</ele>
        <time>2023-08-19T10:36:11Z</time>
      </trkpt>
      <trkpt lat="40.2449" lon="-2.03079">
        <ele>1350.2</ele>
        <time>2023-08-19T10:36:15Z</time>
      </trkpt>
      <trkpt lat="40.24499" lon="-2.03114">
        <ele>1348.9</ele>
        <time>2023-08-19T10:36:19Z</time>
      </trkpt>
      <trkpt lat="40.24503" lon="-2.03152">
        <ele>1348.1</ele>
        <time>2023-08-19T10:36:23Z</time>
      </trkpt>
      <trkpt lat="40.24502" lon="-2.03181">
        <ele>1346.6</ele>
        <time>2023-08-19T10:36:26Z</time>
      </trkpt>
      <trkpt lat="40.24495" lon="-2.03219">
        <ele>1345.2</ele>
        <time>2023-08-19T10:36:30Z</time>
      </trkpt>
      <trkpt lat="40.24481" lon="-2.03252">
        <ele>1344.4</ele>
        <time>2023-08-19T10:36:34Z</time>
      </trkpt>
      <trkpt lat="40.24467" lon="-2.03286">
        <ele>1343.1</ele>
        <time>2023-08-19T10:36:38Z</time>
      </trkpt>
      <trkpt lat="40.24462" lon="-2.03314">
        <ele>1341.8</ele>
        <time>2023-08-19T10:36:41Z</time>
      </trkpt>
      <trkpt lat="40.24467" lon="-2.03353">
        <ele>1341</ele>
        <time>2023-08-19T10:36:45Z</time>
      </trkpt>
      <trkpt lat="40.24469" lon="-2.03382">
        <ele>1340.5</ele>
        <time>2023-08-19T10:36:48Z</time>
      </trkpt>
      <trkpt lat="40.24465" lon="-2.0342">
        <ele>1339.1</ele>
        <time>2023-08-19T10:36:52Z</time>
      </trkpt>
      <trkpt lat="40.24454" lon="-2.03445">
        <ele>1336.3</ele>
        <time>2023-08-19T10:36:55Z</time>
      </trkpt>
      <trkpt lat="40.24433" lon="-2.03469">
        <ele>1334.2</ele>
        <time>2023-08-19T10:36:59Z</time>
      </trkpt>
      <trkpt lat="40.24415" lon="-2.03487">
        <ele>1334.7</ele>
        <time>2023-08-19T10:37:02Z</time>
      </trkpt>
      <trkpt lat="40.24401" lon="-2.03508">
        <ele>1333.9</ele>
        <time>2023-08-19T10:37:05Z</time>
      </trkpt>
      <trkpt lat="40.24383" lon="-2.0354">
        <ele>1331.5</ele>
        <time>2023-08-19T10:37:09Z</time>
      </trkpt>
      <trkpt lat="40.24365" lon="-2.0357">
        <ele>1330.2</ele>
        <time>2023-08-19T10:37:13Z</time>
      </trkpt>
      <trkpt lat="40.24352" lon="-2.03604">
        <ele>1327.3</ele>
        <time>2023-08-19T10:37:17Z</time>
      </trkpt>
      <trkpt lat="40.24338" lon="-2.03635">
        <ele>1324.3</ele>
        <time>2023-08-19T10:37:21Z</time>
      </trkpt>
      <trkpt lat="40.24314" lon="-2.03654">
        <ele>1321.9</ele>
        <time>2023-08-19T10:37:25Z</time>
      </trkpt>
      <trkpt lat="40.24284" lon="-2.03655">
        <ele>1320.4</ele>
        <time>2023-08-19T10:37:29Z</time>
      </trkpt>
      <trkpt lat="40.24253" lon="-2.03653">
        <ele>1320.1</ele>
        <time>2023-08-19T10:37:33Z</time>
      </trkpt>
      <trkpt lat="40.24232" lon="-2.03661">
        <ele>1318.4</ele>
        <time>2023-08-19T10:37:36Z</time>
      </trkpt>
      <trkpt lat="40.24212" lon="-2.03673">
        <ele>1316.8</ele>
        <time>2023-08-19T10:37:39Z</time>
      </trkpt>
      <trkpt lat="40.24184" lon="-2.03683">
        <ele>1314.4</ele>
        <time>2023-08-19T10:37:43Z</time>
      </trkpt>
      <trkpt lat="40.24155" lon="-2.03689">
        <ele>1312.8</ele>
        <time>2023-08-19T10:37:47Z</time>
      </trkpt>
      <trkpt lat="40.24126" lon="-2.03695">
        <ele>1311.3</ele>
        <time>2023-08-19T10:37:51Z</time>
      </trkpt>
      <trkpt lat="40.24097" lon="-2.03701">
        <ele>1308.2</ele>
        <time>2023-08-19T10:37:55Z</time>
      </trkpt>
      <trkpt lat="40.24076" lon="-2.03703">
        <ele>1306.9</ele>
        <time>2023-08-19T10:37:58Z</time>
      </trkpt>
      <trkpt lat="40.24048" lon="-2.03698">
        <ele>1305.8</ele>
        <time>2023-08-19T10:38:02Z</time>
      </trkpt>
      <trkpt lat="40.2402" lon="-2.03687">
        <ele>1302.9</ele>
        <time>2023-08-19T10:38:06Z</time>
      </trkpt>
      <trkpt lat="40.23998" lon="-2.0368">
        <ele>1301.9</ele>
        <time>2023-08-19T10:38:09Z</time>
      </trkpt>
      <trkpt lat="40.23976" lon="-2.03672">
        <ele>1300.9</ele>
        <time>2023-08-19T10:38:12Z</time>
      </trkpt>
      <trkpt lat="40.23949" lon="-2.03651">
        <ele>1297.8</ele>
        <time>2023-08-19T10:38:16Z</time>
      </trkpt>
      <trkpt lat="40.23926" lon="-2.03627">
        <ele>1296.3</ele>
        <time>2023-08-19T10:38:20Z</time>
      </trkpt>
      <trkpt lat="40.23903" lon="-2.03605">
        <ele>1295.2</ele>
        <time>2023-08-19T10:38:24Z</time>
      </trkpt>
      <trkpt lat="40.23876" lon="-2.03607">
        <ele>1293.9</ele>
        <time>2023-08-19T10:38:28Z</time>
      </trkpt>
      <trkpt lat="40.23863" lon="-2.03639">
        <ele>1294.2</ele>
        <time>2023-08-19T10:38:32Z</time>
      </trkpt>
      <trkpt lat="40.23868" lon="-2.0367">
        <ele>1293.4</ele>
        <time>2023-08-19T10:38:35Z</time>
      </trkpt>
      <trkpt lat="40.23875" lon="-2.03701">
        <ele>1292.7</ele>
        <time>2023-08-19T10:38:38Z</time>
      </trkpt>
      <trkpt lat="40.2388" lon="-2.0374">
        <ele>1291</ele>
        <time>2023-08-19T10:38:42Z</time>
      </trkpt>
      <trkpt lat="40.23882" lon="-2.03767">
        <ele>1290</ele>
        <time>2023-08-19T10:38:45Z</time>
      </trkpt>
      <trkpt lat="40.23885" lon="-2.03794">
        <ele>1288.2</ele>
        <time>2023-08-19T10:38:48Z</time>
      </trkpt>
      <trkpt lat="40.23888" lon="-2.03832">
        <ele>1283.8</ele>
        <time>2023-08-19T10:38:52Z</time>
      </trkpt>
      <trkpt lat="40.23877" lon="-2.0387">
        <ele>1282</ele>
        <time>2023-08-19T10:38:56Z</time>
      </trkpt>
      <trkpt lat="40.23866" lon="-2.03904">
        <ele>1281.4</ele>
        <time>2023-08-19T10:39:00Z</time>
      </trkpt>
      <trkpt lat="40.23866" lon="-2.03941">
        <ele>1278.4</ele>
        <time>2023-08-19T10:39:04Z</time>
      </trkpt>
      <trkpt lat="40.23869" lon="-2.03969">
        <ele>1275.8</ele>
        <time>2023-08-19T10:39:07Z</time>
      </trkpt>
      <trkpt lat="40.23873" lon="-2.03998">
        <ele>1274.6</ele>
        <time>2023-08-19T10:39:10Z</time>
      </trkpt>
      <trkpt lat="40.23881" lon="-2.04037">
        <ele>1273.7</ele>
        <time>2023-08-19T10:39:14Z</time>
      </trkpt>
      <trkpt lat="40.23889" lon="-2.04065">
        <ele>1272.6</ele>
        <time>2023-08-19T10:39:17Z</time>
      </trkpt>
      <trkpt lat="40.23899" lon="-2.04102">
        <ele>1271.2</ele>
        <time>2023-08-19T10:39:21Z</time>
      </trkpt>
      <trkpt lat="40.23907" lon="-2.0413">
        <ele>1270</ele>
        <time>2023-08-19T10:39:24Z</time>
      </trkpt>
      <trkpt lat="40.23916" lon="-2.04165">
        <ele>1267.6</ele>
        <time>2023-08-19T10:39:28Z</time>
      </trkpt>
      <trkpt lat="40.23927" lon="-2.04201">
        <ele>1265.6</ele>
        <time>2023-08-19T10:39:32Z</time>
      </trkpt>
      <trkpt lat="40.23938" lon="-2.04236">
        <ele>1263</ele>
        <time>2023-08-19T10:39:36Z</time>
      </trkpt>
      <trkpt lat="40.23948" lon="-2.0427">
        <ele>1260.9</ele>
        <time>2023-08-19T10:39:40Z</time>
      </trkpt>
      <trkpt lat="40.23955" lon="-2.04297">
        <ele>1259.6</ele>
        <time>2023-08-19T10:39:43Z</time>
      </trkpt>
      <trkpt lat="40.23962" lon="-2.04334">
        <ele>1258.3</ele>
        <time>2023-08-19T10:39:47Z</time>
      </trkpt>
      <trkpt lat="40.23963" lon="-2.04371">
        <ele>1256.3</ele>
        <time>2023-08-19T10:39:51Z</time>
      </trkpt>
      <trkpt lat="40.2396" lon="-2.04409">
        <ele>1254.9</ele>
        <time>2023-08-19T10:39:55Z</time>
      </trkpt>
      <trkpt lat="40.23954" lon="-2.04447">
        <ele>1251.9</ele>
        <time>2023-08-19T10:39:59Z</time>
      </trkpt>
      <trkpt lat="40.2394" lon="-2.0448">
        <ele>1251</ele>
        <time>2023-08-19T10:40:03Z</time>
      </trkpt>
      <trkpt lat="40.23929" lon="-2.04504">
        <ele>1250.3</ele>
        <time>2023-08-19T10:40:06Z</time>
      </trkpt>
      <trkpt lat="40.23923" lon="-2.0453">
        <ele>1250.6</ele>
        <time>2023-08-19T10:40:09Z</time>
      </trkpt>
      <trkpt lat="40.23927" lon="-2.04569">
        <ele>1251.4</ele>
        <time>2023-08-19T10:40:13Z</time>
      </trkpt>
      <trkpt lat="40.23934" lon="-2.04606">
        <ele>1251.5</ele>
        <time>2023-08-19T10:40:17Z</time>
      </trkpt>
      <trkpt lat="40.23939" lon="-2.04644">
        <ele>1251.5</ele>
        <time>2023-08-19T10:40:21Z</time>
      </trkpt>
      <trkpt lat="40.2394" lon="-2.04672">
        <ele>1251.7</ele>
        <time>2023-08-19T10:40:24Z</time>
      </trkpt>
      <trkpt lat="40.23941" lon="-2.04711">
        <ele>1250.9</ele>
        <time>2023-08-19T10:40:28Z</time>
      </trkpt>
      <trkpt lat="40.23939" lon="-2.0474">
        <ele>1251</ele>
        <time>2023-08-19T10:40:31Z</time>
      </trkpt>
      <trkpt lat="40.23938" lon="-2.04776">
        <ele>1250.8</ele>
        <time>2023-08-19T10:40:35Z</time>
      </trkpt>
      <trkpt lat="40.2394" lon="-2.04813">
        <ele>1250.2</ele>
        <time>2023-08-19T10:40:39Z</time>
      </trkpt>
      <trkpt lat="40.23937" lon="-2.04849">
        <ele>1250.4</ele>
        <time>2023-08-19T10:40:43Z</time>
      </trkpt>
      <trkpt lat="40.23937" lon="-2.04886">
        <ele>1252.2</ele>
        <time>2023-08-19T10:40:47Z</time>
      </trkpt>
      <trkpt lat="40.23941" lon="-2.04914">
        <ele>1252.3</ele>
        <time>2023-08-19T10:40:50Z</time>
      </trkpt>
      <trkpt lat="40.23942" lon="-2.04949">
        <ele>1251.4</ele>
        <time>2023-08-19T10:40:54Z</time>
      </trkpt>
      <trkpt lat="40.23934" lon="-2.04976">
        <ele>1250.3</ele>
        <time>2023-08-19T10:40:57Z</time>
      </trkpt>
      <trkpt lat="40.23919" lon="-2.04998">
        <ele>1249.7</ele>
        <time>2023-08-19T10:41:00Z</time>
      </trkpt>
      <trkpt lat="40.2391" lon="-2.05029">
        <ele>1250.7</ele>
        <time>2023-08-19T10:41:04Z</time>
      </trkpt>
      <trkpt lat="40.23918" lon="-2.05052">
        <ele>1250.9</ele>
        <time>2023-08-19T10:41:07Z</time>
      </trkpt>
      <trkpt lat="40.23933" lon="-2.05086">
        <ele>1251</ele>
        <time>2023-08-19T10:41:11Z</time>
      </trkpt>
      <trkpt lat="40.23943" lon="-2.05121">
        <ele>1250.8</ele>
        <time>2023-08-19T10:41:15Z</time>
      </trkpt>
      <trkpt lat="40.23947" lon="-2.05149">
        <ele>1252</ele>
        <time>2023-08-19T10:41:18Z</time>
      </trkpt>
      <trkpt lat="40.23951" lon="-2.05188">
        <ele>1252</ele>
        <time>2023-08-19T10:41:22Z</time>
      </trkpt>
      <trkpt lat="40.23956" lon="-2.05227">
        <ele>1250.7</ele>
        <time>2023-08-19T10:41:26Z</time>
      </trkpt>
      <trkpt lat="40.23961" lon="-2.05255">
        <ele>1250.1</ele>
        <time>2023-08-19T10:41:29Z</time>
      </trkpt>
      <trkpt lat="40.23969" lon="-2.05292">
        <ele>1250</ele>
        <time>2023-08-19T10:41:33Z</time>
      </trkpt>
      <trkpt lat="40.23973" lon="-2.05321">
        <ele>1249.4</ele>
        <time>2023-08-19T10:41:36Z</time>
      </trkpt>
      <trkpt lat="40.2398" lon="-2.05357">
        <ele>1249.8</ele>
        <time>2023-08-19T10:41:40Z</time>
      </trkpt>
      <trkpt lat="40.23993" lon="-2.05382">
        <ele>1249.7</ele>
        <time>2023-08-19T10:41:43Z</time>
      </trkpt>
      <trkpt lat="40.24006" lon="-2.05404">
        <ele>1247.6</ele>
        <time>2023-08-19T10:41:46Z</time>
      </trkpt>
      <trkpt lat="40.24015" lon="-2.05426">
        <ele>1247</ele>
        <time>2023-08-19T10:41:49Z</time>
      </trkpt>
      <trkpt lat="40.24027" lon="-2.05458">
        <ele>1245.1</ele>
        <time>2023-08-19T10:41:53Z</time>
      </trkpt>
      <trkpt lat="40.24035" lon="-2.05491">
        <ele>1245.1</ele>
        <time>2023-08-19T10:41:57Z</time>
      </trkpt>
      <trkpt lat="40.24026" lon="-2.0552">
        <ele>1244.5</ele>
        <time>2023-08-19T10:42:01Z</time>
      </trkpt>
      <trkpt lat="40.24002" lon="-2.05535">
        <ele>1244.6</ele>
        <time>2023-08-19T10:42:05Z</time>
      </trkpt>
      <trkpt lat="40.23989" lon="-2.05553">
        <ele>1245.9</ele>
        <time>2023-08-19T10:42:08Z</time>
      </trkpt>
      <trkpt lat="40.23986" lon="-2.05586">
        <ele>1245.9</ele>
        <time>2023-08-19T10:42:12Z</time>
      </trkpt>
      <trkpt lat="40.23985" lon="-2.05621">
        <ele>1247</ele>
        <time>2023-08-19T10:42:16Z</time>
      </trkpt>
      <trkpt lat="40.23983" lon="-2.05649">
        <ele>1246.3</ele>
        <time>2023-08-19T10:42:19Z</time>
      </trkpt>
      <trkpt lat="40.23975" lon="-2.05688">
        <ele>1244.4</ele>
        <time>2023-08-19T10:42:23Z</time>
      </trkpt>
      <trkpt lat="40.23965" lon="-2.05725">
        <ele>1241.9</ele>
        <time>2023-08-19T10:42:27Z</time>
      </trkpt>
      <trkpt lat="40.23953" lon="-2.05761">
        <ele>1240.1</ele>
        <time>2023-08-19T10:42:31Z</time>
      </trkpt>
      <trkpt lat="40.23942" lon="-2.05786">
        <ele>1238.5</ele>
        <time>2023-08-19T10:42:34Z</time>
      </trkpt>
      <trkpt lat="40.23918" lon="-2.0581">
        <ele>1237.1</ele>
        <time>2023-08-19T10:42:38Z</time>
      </trkpt>
      <trkpt lat="40.23886" lon="-2.05808">
        <ele>1234.9</ele>
        <time>2023-08-19T10:42:42Z</time>
      </trkpt>
      <trkpt lat="40.2386" lon="-2.05784">
        <ele>1234.2</ele>
        <time>2023-08-19T10:42:46Z</time>
      </trkpt>
      <trkpt lat="40.23838" lon="-2.05758">
        <ele>1232</ele>
        <time>2023-08-19T10:42:50Z</time>
      </trkpt>
      <trkpt lat="40.23817" lon="-2.05732">
        <ele>1229.4</ele>
        <time>2023-08-19T10:42:54Z</time>
      </trkpt>
      <trkpt lat="40.23791" lon="-2.05725">
        <ele>1227.2</ele>
        <time>2023-08-19T10:42:58Z</time>
      </trkpt>
      <trkpt lat="40.23771" lon="-2.05739">
        <ele>1226.5</ele>
        <time>2023-08-19T10:43:01Z</time>
      </trkpt>
      <trkpt lat="40.23753" lon="-2.05759">
        <ele>1225.5</ele>
        <time>2023-08-19T10:43:04Z</time>
      </trkpt>
      <trkpt lat="40.23724" lon="-2.05778">
        <ele>1224.3</ele>
        <time>2023-08-19T10:43:08Z</time>
      </trkpt>
      <trkpt lat="40.23704" lon="-2.05785">
        <ele>1222.4</ele>
        <time>2023-08-19T10:43:11Z</time>
      </trkpt>
      <trkpt lat="40.23675" lon="-2.05782">
        <ele>1220.9</ele>
        <time>2023-08-19T10:43:15Z</time>
      </trkpt>
      <trkpt lat="40.23654" lon="-2.05775">
        <ele>1219.8</ele>
        <time>2023-08-19T10:43:18Z</time>
      </trkpt>
      <trkpt lat="40.23625" lon="-2.05768">
        <ele>1215.7</ele>
        <time>2023-08-19T10:43:22Z</time>
      </trkpt>
      <trkpt lat="40.23599" lon="-2.05764">
        <ele>1213.7</ele>
        <time>2023-08-19T10:43:26Z</time>
      </trkpt>
      <trkpt lat="40.23576" lon="-2.05754">
        <ele>1210.9</ele>
        <time>2023-08-19T10:43:30Z</time>
      </trkpt>
      <trkpt lat="40.23558" lon="-2.05752">
        <ele>1209.8</ele>
        <time>2023-08-19T10:43:33Z</time>
      </trkpt>
      <trkpt lat="40.23541" lon="-2.05765">
        <ele>1209.1</ele>
        <time>2023-08-19T10:43:36Z</time>
      </trkpt>
      <trkpt lat="40.23538" lon="-2.05798">
        <ele>1207.5</ele>
        <time>2023-08-19T10:43:40Z</time>
      </trkpt>
      <trkpt lat="40.23546" lon="-2.05825">
        <ele>1206.8</ele>
        <time>2023-08-19T10:43:43Z</time>
      </trkpt>
      <trkpt lat="40.23562" lon="-2.05857">
        <ele>1204.5</ele>
        <time>2023-08-19T10:43:47Z</time>
      </trkpt>
      <trkpt lat="40.23579" lon="-2.0589">
        <ele>1201.3</ele>
        <time>2023-08-19T10:43:51Z</time>
      </trkpt>
      <trkpt lat="40.23584" lon="-2.05929">
        <ele>1197.6</ele>
        <time>2023-08-19T10:43:55Z</time>
      </trkpt>
      <trkpt lat="40.23583" lon="-2.05967">
        <ele>1195.4</ele>
        <time>2023-08-19T10:43:59Z</time>
      </trkpt>
      <trkpt lat="40.23582" lon="-2.06005">
        <ele>1193.1</ele>
        <time>2023-08-19T10:44:03Z</time>
      </trkpt>
      <trkpt lat="40.23572" lon="-2.06042">
        <ele>1191.1</ele>
        <time>2023-08-19T10:44:07Z</time>
      </trkpt>
      <trkpt lat="40.2355" lon="-2.06067">
        <ele>1190.1</ele>
        <time>2023-08-19T10:44:11Z</time>
      </trkpt>
      <trkpt lat="40.2353" lon="-2.06081">
        <ele>1189.2</ele>
        <time>2023-08-19T10:44:14Z</time>
      </trkpt>
      <trkpt lat="40.23505" lon="-2.06102">
        <ele>1186.1</ele>
        <time>2023-08-19T10:44:18Z</time>
      </trkpt>
      <trkpt lat="40.23488" lon="-2.06121">
        <ele>1184.5</ele>
        <time>2023-08-19T10:44:21Z</time>
      </trkpt>
      <trkpt lat="40.23474" lon="-2.06139">
        <ele>1182.5</ele>
        <time>2023-08-19T10:44:24Z</time>
      </trkpt>
      <trkpt lat="40.23454" lon="-2.06159">
        <ele>1181.1</ele>
        <time>2023-08-19T10:44:28Z</time>
      </trkpt>
      <trkpt lat="40.2344" lon="-2.06182">
        <ele>1179</ele>
        <time>2023-08-19T10:44:32Z</time>
      </trkpt>
      <trkpt lat="40.23442" lon="-2.06206">
        <ele>1177.8</ele>
        <time>2023-08-19T10:44:35Z</time>
      </trkpt>
      <trkpt lat="40.2346" lon="-2.0623">
        <ele>1175.6</ele>
        <time>2023-08-19T10:44:39Z</time>
      </trkpt>
      <trkpt lat="40.23487" lon="-2.06227">
        <ele>1173.6</ele>
        <time>2023-08-19T10:44:43Z</time>
      </trkpt>
      <trkpt lat="40.23507" lon="-2.06223">
        <ele>1171.8</ele>
        <time>2023-08-19T10:44:46Z</time>
      </trkpt>
      <trkpt lat="40.23534" lon="-2.0623">
        <ele>1169.3</ele>
        <time>2023-08-19T10:44:50Z</time>
      </trkpt>
      <trkpt lat="40.23551" lon="-2.06246">
        <ele>1166.9</ele>
        <time>2023-08-19T10:44:53Z</time>
      </trkpt>
      <trkpt lat="40.23571" lon="-2.06275">
        <ele>1165.7</ele>
        <time>2023-08-19T10:44:57Z</time>
      </trkpt>
      <trkpt lat="40.23589" lon="-2.06304">
        <ele>1163.6</ele>
        <time>2023-08-19T10:45:01Z</time>
      </trkpt>
      <trkpt lat="40.23604" lon="-2.06326">
        <ele>1162.8</ele>
        <time>2023-08-19T10:45:04Z</time>
      </trkpt>
      <trkpt lat="40.23619" lon="-2.06346">
        <ele>1161.7</ele>
        <time>2023-08-19T10:45:07Z</time>
      </trkpt>
      <trkpt lat="40.23642" lon="-2.06371">
        <ele>1160.1</ele>
        <time>2023-08-19T10:45:11Z</time>
      </trkpt>
      <trkpt lat="40.23665" lon="-2.06393">
        <ele>1157.3</ele>
        <time>2023-08-19T10:45:15Z</time>
      </trkpt>
      <trkpt lat="40.23681" lon="-2.06412">
        <ele>1154.5</ele>
        <time>2023-08-19T10:45:18Z</time>
      </trkpt>
      <trkpt lat="40.23702" lon="-2.06441">
        <ele>1152.8</ele>
        <time>2023-08-19T10:45:22Z</time>
      </trkpt>
      <trkpt lat="40.23721" lon="-2.06471">
        <ele>1150.8</ele>
        <time>2023-08-19T10:45:26Z</time>
      </trkpt>
      <trkpt lat="40.23735" lon="-2.06505">
        <ele>1149.1</ele>
        <time>2023-08-19T10:45:30Z</time>
      </trkpt>
      <trkpt lat="40.23744" lon="-2.06531">
        <ele>1147.7</ele>
        <time>2023-08-19T10:45:33Z</time>
      </trkpt>
      <trkpt lat="40.23758" lon="-2.06563">
        <ele>1146.3</ele>
        <time>2023-08-19T10:45:37Z</time>
      </trkpt>
      <trkpt lat="40.2378" lon="-2.06588">
        <ele>1144.8</ele>
        <time>2023-08-19T10:45:41Z</time>
      </trkpt>
      <trkpt lat="40.23802" lon="-2.06612">
        <ele>1142.4</ele>
        <time>2023-08-19T10:45:45Z</time>
      </trkpt>
      <trkpt lat="40.23817" lon="-2.06645">
        <ele>1137.5</ele>
        <time>2023-08-19T10:45:49Z</time>
      </trkpt>
      <trkpt lat="40.23817" lon="-2.06675">
        <ele>1135.9</ele>
        <time>2023-08-19T10:45:52Z</time>
      </trkpt>
      <trkpt lat="40.23809" lon="-2.06703">
        <ele>1135.8</ele>
        <time>2023-08-19T10:45:55Z</time>
      </trkpt>
      <trkpt lat="40.23799" lon="-2.06729">
        <ele>1134.5</ele>
        <time>2023-08-19T10:45:58Z</time>
      </trkpt>
      <trkpt lat="40.23782" lon="-2.06759">
        <ele>1133.1</ele>
        <time>2023-08-19T10:46:02Z</time>
      </trkpt>
      <trkpt lat="40.23765" lon="-2.06779">
        <ele>1132</ele>
        <time>2023-08-19T10:46:05Z</time>
      </trkpt>
      <trkpt lat="40.23743" lon="-2.06807">
        <ele>1130.2</ele>
        <time>2023-08-19T10:46:09Z</time>
      </trkpt>
      <trkpt lat="40.23728" lon="-2.06827">
        <ele>1127.2</ele>
        <time>2023-08-19T10:46:12Z</time>
      </trkpt>
      <trkpt lat="40.23714" lon="-2.06849">
        <ele>1125.6</ele>
        <time>2023-08-19T10:46:15Z</time>
      </trkpt>
      <trkpt lat="40.23696" lon="-2.06879">
        <ele>1122.4</ele>
        <time>2023-08-19T10:46:19Z</time>
      </trkpt>
      <trkpt lat="40.23681" lon="-2.06912">
        <ele>1121.5</ele>
        <time>2023-08-19T10:46:23Z</time>
      </trkpt>
      <trkpt lat="40.23676" lon="-2.06939">
        <ele>1119.9</ele>
        <time>2023-08-19T10:46:26Z</time>
      </trkpt>
      <trkpt lat="40.23674" lon="-2.06978">
        <ele>1119</ele>
        <time>2023-08-19T10:46:30Z</time>
      </trkpt>
      <trkpt lat="40.23675" lon="-2.07016">
        <ele>1117.7</ele>
        <time>2023-08-19T10:46:34Z</time>
      </trkpt>
      <trkpt lat="40.23677" lon="-2.07042">
        <ele>1116.7</ele>
        <time>2023-08-19T10:46:37Z</time>
      </trkpt>
      <trkpt lat="40.23683" lon="-2.07076">
        <ele>1114.8</ele>
        <time>2023-08-19T10:46:41Z</time>
      </trkpt>
      <trkpt lat="40.23689" lon="-2.07111">
        <ele>1114.1</ele>
        <time>2023-08-19T10:46:45Z</time>
      </trkpt>
      <trkpt lat="40.23683" lon="-2.07136">
        <ele>1112.1</ele>
        <time>2023-08-19T10:46:48Z</time>
      </trkpt>
      <trkpt lat="40.2366" lon="-2.07152">
        <ele>1111.4</ele>
        <time>2023-08-19T10:46:52Z</time>
      </trkpt>
      <trkpt lat="40.23637" lon="-2.0715">
        <ele>1109.9</ele>
        <time>2023-08-19T10:46:55Z</time>
      </trkpt>
      <trkpt lat="40.23616" lon="-2.07145">
        <ele>1109.7</ele>
        <time>2023-08-19T10:46:58Z</time>
      </trkpt>
      <trkpt lat="40.23588" lon="-2.07133">
        <ele>1107.2</ele>
        <time>2023-08-19T10:47:02Z</time>
      </trkpt>
      <trkpt lat="40.23568" lon="-2.07121">
        <ele>1107.1</ele>
        <time>2023-08-19T10:47:05Z</time>
      </trkpt>
      <trkpt lat="40.2354" lon="-2.07114">
        <ele>1104.4</ele>
        <time>2023-08-19T10:47:09Z</time>
      </trkpt>
      <trkpt lat="40.23518" lon="-2.0711">
        <ele>1103.7</ele>
        <time>2023-08-19T10:47:12Z</time>
      </trkpt>
      <trkpt lat="40.23489" lon="-2.07106">
        <ele>1101.5</ele>
        <time>2023-08-19T10:47:16Z</time>
      </trkpt>
      <trkpt lat="40.23463" lon="-2.07093">
        <ele>1099.3</ele>
        <time>2023-08-19T10:47:20Z</time>
      </trkpt>
      <trkpt lat="40.2344" lon="-2.0707">
        <ele>1098.6</ele>
        <time>2023-08-19T10:47:24Z</time>
      </trkpt>
      <trkpt lat="40.23426" lon="-2.0705">
        <ele>1099.5</ele>
        <time>2023-08-19T10:47:27Z</time>
      </trkpt>
      <trkpt lat="40.2341" lon="-2.07024">
        <ele>1099.7</ele>
        <time>2023-08-19T10:47:31Z</time>
      </trkpt>
      <trkpt lat="40.23397" lon="-2.06998">
        <ele>1098.9</ele>
        <time>2023-08-19T10:47:35Z</time>
      </trkpt>
      <trkpt lat="40.23383" lon="-2.06976">
        <ele>1098.6</ele>
        <time>2023-08-19T10:47:39Z</time>
      </trkpt>
      <trkpt lat="40.23373" lon="-2.06961">
        <ele>1099.1</ele>
        <time>2023-08-19T10:47:42Z</time>
      </trkpt>
      <trkpt lat="40.23353" lon="-2.06948">
        <ele>1097.7</ele>
        <time>2023-08-19T10:47:46Z</time>
      </trkpt>
      <trkpt lat="40.23336" lon="-2.06938">
        <ele>1096.9</ele>
        <time>2023-08-19T10:47:49Z</time>
      </trkpt>
      <trkpt lat="40.23311" lon="-2.06921">
        <ele>1095</ele>
        <time>2023-08-19T10:47:53Z</time>
      </trkpt>
      <trkpt lat="40.23293" lon="-2.06909">
        <ele>1094.8</ele>
        <time>2023-08-19T10:47:56Z</time>
      </trkpt>
      <trkpt lat="40.23271" lon="-2.06894">
        <ele>1093.4</ele>
        <time>2023-08-19T10:48:00Z</time>
      </trkpt>
      <trkpt lat="40.23256" lon="-2.06883">
        <ele>1092.5</ele>
        <time>2023-08-19T10:48:03Z</time>
      </trkpt>
      <trkpt lat="40.23235" lon="-2.06873">
        <ele>1090.5</ele>
        <time>2023-08-19T10:48:07Z</time>
      </trkpt>
      <trkpt lat="40.23212" lon="-2.06877">
        <ele>1087.7</ele>
        <time>2023-08-19T10:48:11Z</time>
      </trkpt>
      <trkpt lat="40.23193" lon="-2.06893">
        <ele>1085.3</ele>
        <time>2023-08-19T10:48:14Z</time>
      </trkpt>
      <trkpt lat="40.2318" lon="-2.06928">
        <ele>1082.3</ele>
        <time>2023-08-19T10:48:18Z</time>
      </trkpt>
      <trkpt lat="40.23176" lon="-2.06957">
        <ele>1080.5</ele>
        <time>2023-08-19T10:48:21Z</time>
      </trkpt>
      <trkpt lat="40.23174" lon="-2.06996">
        <ele>1079.1</ele>
        <time>2023-08-19T10:48:25Z</time>
      </trkpt>
      <trkpt lat="40.23176" lon="-2.07026">
        <ele>1076.5</ele>
        <time>2023-08-19T10:48:28Z</time>
      </trkpt>
      <trkpt lat="40.23185" lon="-2.07063">
        <ele>1074.5</ele>
        <time>2023-08-19T10:48:32Z</time>
      </trkpt>
      <trkpt lat="40.23196" lon="-2.07088">
        <ele>1073</ele>
        <time>2023-08-19T10:48:35Z</time>
      </trkpt>
      <trkpt lat="40.23211" lon="-2.0712">
        <ele>1070.7</ele>
        <time>2023-08-19T10:48:39Z</time>
      </trkpt>
      <trkpt lat="40.23229" lon="-2.0715">
        <ele>1068.1</ele>
        <time>2023-08-19T10:48:43Z</time>
      </trkpt>
      <trkpt lat="40.23247" lon="-2.07167">
        <ele>1066.4</ele>
        <time>2023-08-19T10:48:46Z</time>
      </trkpt>
      <trkpt lat="40.23274" lon="-2.07185">
        <ele>1064.2</ele>
        <time>2023-08-19T10:48:50Z</time>
      </trkpt>
      <trkpt lat="40.23293" lon="-2.07197">
        <ele>1062.7</ele>
        <time>2023-08-19T10:48:53Z</time>
      </trkpt>
      <trkpt lat="40.23313" lon="-2.07209">
        <ele>1061.5</ele>
        <time>2023-08-19T10:48:56Z</time>
      </trkpt>
      <trkpt lat="40.23341" lon="-2.07223">
        <ele>1060.4</ele>
        <time>2023-08-19T10:49:00Z</time>
      </trkpt>
      <trkpt lat="40.2337" lon="-2.07232">
        <ele>1057.8</ele>
        <time>2023-08-19T10:49:04Z</time>
      </trkpt>
      <trkpt lat="40.23391" lon="-2.0724">
        <ele>1055.8</ele>
        <time>2023-08-19T10:49:07Z</time>
      </trkpt>
      <trkpt lat="40.23418" lon="-2.07258">
        <ele>1055.9</ele>
        <time>2023-08-19T10:49:11Z</time>
      </trkpt>
      <trkpt lat="40.23443" lon="-2.07281">
        <ele>1054.8</ele>
        <time>2023-08-19T10:49:15Z</time>
      </trkpt>
      <trkpt lat="40.23468" lon="-2.07305">
        <ele>1054.5</ele>
        <time>2023-08-19T10:49:19Z</time>
      </trkpt>
      <trkpt lat="40.23487" lon="-2.07324">
        <ele>1054.2</ele>
        <time>2023-08-19T10:49:22Z</time>
      </trkpt>
      <trkpt lat="40.23504" lon="-2.07341">
        <ele>1053.7</ele>
        <time>2023-08-19T10:49:25Z</time>
      </trkpt>
      <trkpt lat="40.23529" lon="-2.0736">
        <ele>1053.2</ele>
        <time>2023-08-19T10:49:29Z</time>
      </trkpt>
      <trkpt lat="40.23553" lon="-2.07382">
        <ele>1051</ele>
        <time>2023-08-19T10:49:33Z</time>
      </trkpt>
      <trkpt lat="40.23577" lon="-2.07404">
        <ele>1050.4</ele>
        <time>2023-08-19T10:49:37Z</time>
      </trkpt>
      <trkpt lat="40.23602" lon="-2.07421">
        <ele>1048.8</ele>
        <time>2023-08-19T10:49:41Z</time>
      </trkpt>
      <trkpt lat="40.23622" lon="-2.07429">
        <ele>1047</ele>
        <time>2023-08-19T10:49:44Z</time>
      </trkpt>
      <trkpt lat="40.23648" lon="-2.07436">
        <ele>1045.5</ele>
        <time>2023-08-19T10:49:48Z</time>
      </trkpt>
      <trkpt lat="40.23674" lon="-2.07437">
        <ele>1045.1</ele>
        <time>2023-08-19T10:49:52Z</time>
      </trkpt>
      <trkpt lat="40.23691" lon="-2.07456">
        <ele>1043.9</ele>
        <time>2023-08-19T10:49:56Z</time>
      </trkpt>
      <trkpt lat="40.2369" lon="-2.07492">
        <ele>1042.8</ele>
        <time>2023-08-19T10:50:00Z</time>
      </trkpt>
      <trkpt lat="40.23688" lon="-2.07521">
        <ele>1041.8</ele>
        <time>2023-08-19T10:50:03Z</time>
      </trkpt>
      <trkpt lat="40.23686" lon="-2.07549">
        <ele>1042.1</ele>
        <time>2023-08-19T10:50:06Z</time>
      </trkpt>
      <trkpt lat="40.23682" lon="-2.07585">
        <ele>1041.9</ele>
        <time>2023-08-19T10:50:10Z</time>
      </trkpt>
      <trkpt lat="40.23677" lon="-2.07612">
        <ele>1040.7</ele>
        <time>2023-08-19T10:50:13Z</time>
      </trkpt>
      <trkpt lat="40.23659" lon="-2.07643">
        <ele>1040.3</ele>
        <time>2023-08-19T10:50:17Z</time>
      </trkpt>
      <trkpt lat="40.23636" lon="-2.07668">
        <ele>1041.2</ele>
        <time>2023-08-19T10:50:21Z</time>
      </trkpt>
      <trkpt lat="40.23618" lon="-2.07685">
        <ele>1041.4</ele>
        <time>2023-08-19T10:50:24Z</time>
      </trkpt>
      <trkpt lat="40.23602" lon="-2.07705">
        <ele>1040.9</ele>
        <time>2023-08-19T10:50:27Z</time>
      </trkpt>
      <trkpt lat="40.23587" lon="-2.07725">
        <ele>1039.9</ele>
        <time>2023-08-19T10:50:30Z</time>
      </trkpt>
      <trkpt lat="40.23567" lon="-2.07753">
        <ele>1038.3</ele>
        <time>2023-08-19T10:50:34Z</time>
      </trkpt>
      <trkpt lat="40.23543" lon="-2.07775">
        <ele>1038.6</ele>
        <time>2023-08-19T10:50:38Z</time>
      </trkpt>
      <trkpt lat="40.23518" lon="-2.07788">
        <ele>1038.7</ele>
        <time>2023-08-19T10:50:42Z</time>
      </trkpt>
      <trkpt lat="40.23497" lon="-2.07798">
        <ele>1038.2</ele>
        <time>2023-08-19T10:50:45Z</time>
      </trkpt>
      <trkpt lat="40.23477" lon="-2.0781">
        <ele>1038.9</ele>
        <time>2023-08-19T10:50:48Z</time>
      </trkpt>
      <trkpt lat="40.23449" lon="-2.07823">
        <ele>1038.2</ele>
        <time>2023-08-19T10:50:52Z</time>
      </trkpt>
      <trkpt lat="40.23422" lon="-2.07837">
        <ele>1037.7</ele>
        <time>2023-08-19T10:50:56Z</time>
      </trkpt>
      <trkpt lat="40.23402" lon="-2.07849">
        <ele>1037.6</ele>
        <time>2023-08-19T10:50:59Z</time>
      </trkpt>
      <trkpt lat="40.23379" lon="-2.0787">
        <ele>1036.6</ele>
        <time>2023-08-19T10:51:03Z</time>
      </trkpt>
      <trkpt lat="40.23366" lon="-2.07894">
        <ele>1035.6</ele>
        <time>2023-08-19T10:51:06Z</time>
      </trkpt>
      <trkpt lat="40.23358" lon="-2.07922">
        <ele>1035.3</ele>
        <time>2023-08-19T10:51:09Z</time>
      </trkpt>
      <trkpt lat="40.23347" lon="-2.07958">
        <ele>1033.3</ele>
        <time>2023-08-19T10:51:13Z</time>
      </trkpt>
      <trkpt lat="40.23338" lon="-2.07985">
        <ele>1032.9</ele>
        <time>2023-08-19T10:51:16Z</time>
      </trkpt>
      <trkpt lat="40.2333" lon="-2.0801">
        <ele>1032.7</ele>
        <time>2023-08-19T10:51:19Z</time>
      </trkpt>
      <trkpt lat="40.23318" lon="-2.08044">
        <ele>1034.1</ele>
        <time>2023-08-19T10:51:23Z</time>
      </trkpt>
      <trkpt lat="40.23309" lon="-2.08069">
        <ele>1033.4</ele>
        <time>2023-08-19T10:51:26Z</time>
      </trkpt>
      <trkpt lat="40.23296" lon="-2.08104">
        <ele>1033.3</ele>
        <time>2023-08-19T10:51:30Z</time>
      </trkpt>
      <trkpt lat="40.23286" lon="-2.0813">
        <ele>1032.5</ele>
        <time>2023-08-19T10:51:33Z</time>
      </trkpt>
      <trkpt lat="40.23276" lon="-2.08155">
        <ele>1032.1</ele>
        <time>2023-08-19T10:51:36Z</time>
      </trkpt>
      <trkpt lat="40.23262" lon="-2.0819">
        <ele>1031.2</ele>
        <time>2023-08-19T10:51:40Z</time>
      </trkpt>
      <trkpt lat="40.23249" lon="-2.08224">
        <ele>1030.2</ele>
        <time>2023-08-19T10:51:44Z</time>
      </trkpt>
      <trkpt lat="40.2324" lon="-2.0825">
        <ele>1030.1</ele>
        <time>2023-08-19T10:51:47Z</time>
      </trkpt>
      <trkpt lat="40.23229" lon="-2.08285">
        <ele>1031.5</ele>
        <time>2023-08-19T10:51:51Z</time>
      </trkpt>
      <trkpt lat="40.23217" lon="-2.0832">
        <ele>1030.5</ele>
        <time>2023-08-19T10:51:55Z</time>
      </trkpt>
      <trkpt lat="40.23205" lon="-2.08354">
        <ele>1029.9</ele>
        <time>2023-08-19T10:51:59Z</time>
      </trkpt>
      <trkpt lat="40.23192" lon="-2.08388">
        <ele>1029.6</ele>
        <time>2023-08-19T10:52:03Z</time>
      </trkpt>
      <trkpt lat="40.23179" lon="-2.08423">
        <ele>1030.2</ele>
        <time>2023-08-19T10:52:07Z</time>
      </trkpt>
      <trkpt lat="40.2317" lon="-2.08449">
        <ele>1028.9</ele>
        <time>2023-08-19T10:52:10Z</time>
      </trkpt>
      <trkpt lat="40.23161" lon="-2.08474">
        <ele>1028.6</ele>
        <time>2023-08-19T10:52:13Z</time>
      </trkpt>
      <trkpt lat="40.23149" lon="-2.08506">
        <ele>1028.6</ele>
        <time>2023-08-19T10:52:17Z</time>
      </trkpt>
      <trkpt lat="40.23138" lon="-2.08539">
        <ele>1030.7</ele>
        <time>2023-08-19T10:52:21Z</time>
      </trkpt>
      <trkpt lat="40.23125" lon="-2.08575">
        <ele>1029.2</ele>
        <time>2023-08-19T10:52:25Z</time>
      </trkpt>
      <trkpt lat="40.23115" lon="-2.08602">
        <ele>1029.3</ele>
        <time>2023-08-19T10:52:28Z</time>
      </trkpt>
      <trkpt lat="40.23105" lon="-2.0863">
        <ele>1028.2</ele>
        <time>2023-08-19T10:52:31Z</time>
      </trkpt>
      <trkpt lat="40.23094" lon="-2.08667">
        <ele>1028.2</ele>
        <time>2023-08-19T10:52:35Z</time>
      </trkpt>
      <trkpt lat="40.2309" lon="-2.08693">
        <ele>1027</ele>
        <time>2023-08-19T10:52:38Z</time>
      </trkpt>
      <trkpt lat="40.2309" lon="-2.08721">
        <ele>1026.7</ele>
        <time>2023-08-19T10:52:41Z</time>
      </trkpt>
      <trkpt lat="40.23092" lon="-2.08757">
        <ele>1025.2</ele>
        <time>2023-08-19T10:52:45Z</time>
      </trkpt>
      <trkpt lat="40.23093" lon="-2.08794">
        <ele>1026.3</ele>
        <time>2023-08-19T10:52:49Z</time>
      </trkpt>
      <trkpt lat="40.23093" lon="-2.08823">
        <ele>1027.1</ele>
        <time>2023-08-19T10:52:52Z</time>
      </trkpt>
      <trkpt lat="40.23094" lon="-2.08861">
        <ele>1026.3</ele>
        <time>2023-08-19T10:52:56Z</time>
      </trkpt>
      <trkpt lat="40.23095" lon="-2.08899">
        <ele>1027.1</ele>
        <time>2023-08-19T10:53:00Z</time>
      </trkpt>
      <trkpt lat="40.23093" lon="-2.08937">
        <ele>1027.1</ele>
        <time>2023-08-19T10:53:04Z</time>
      </trkpt>
      <trkpt lat="40.23089" lon="-2.08964">
        <ele>1024.3</ele>
        <time>2023-08-19T10:53:07Z</time>
      </trkpt>
      <trkpt lat="40.2308" lon="-2.08991">
        <ele>1023.7</ele>
        <time>2023-08-19T10:53:10Z</time>
      </trkpt>
      <trkpt lat="40.23065" lon="-2.09025">
        <ele>1025.2</ele>
        <time>2023-08-19T10:53:14Z</time>
      </trkpt>
      <trkpt lat="40.23054" lon="-2.09049">
        <ele>1025.7</ele>
        <time>2023-08-19T10:53:17Z</time>
      </trkpt>
      <trkpt lat="40.23043" lon="-2.09071">
        <ele>1028.2</ele>
        <time>2023-08-19T10:53:20Z</time>
      </trkpt>
      <trkpt lat="40.23027" lon="-2.09103">
        <ele>1028.1</ele>
        <time>2023-08-19T10:53:24Z</time>
      </trkpt>
      <trkpt lat="40.23011" lon="-2.09136">
        <ele>1030.5</ele>
        <time>2023-08-19T10:53:28Z</time>
      </trkpt>
      <trkpt lat="40.22996" lon="-2.09171">
        <ele>1030.8</ele>
        <time>2023-08-19T10:53:32Z</time>
      </trkpt>
      <trkpt lat="40.22981" lon="-2.09204">
        <ele>1030</ele>
        <time>2023-08-19T10:53:36Z</time>
      </trkpt>
      <trkpt lat="40.22967" lon="-2.09237">
        <ele>1029.9</ele>
        <time>2023-08-19T10:53:40Z</time>
      </trkpt>
      <trkpt lat="40.22952" lon="-2.09267">
        <ele>1027.3</ele>
        <time>2023-08-19T10:53:44Z</time>
      </trkpt>
      <trkpt lat="40.22939" lon="-2.09291">
        <ele>1026.8</ele>
        <time>2023-08-19T10:53:47Z</time>
      </trkpt>
      <trkpt lat="40.22924" lon="-2.09312">
        <ele>1029.7</ele>
        <time>2023-08-19T10:53:50Z</time>
      </trkpt>
      <trkpt lat="40.22909" lon="-2.09331">
        <ele>1028.1</ele>
        <time>2023-08-19T10:53:53Z</time>
      </trkpt>
      <trkpt lat="40.22888" lon="-2.09355">
        <ele>1028.4</ele>
        <time>2023-08-19T10:53:57Z</time>
      </trkpt>
      <trkpt lat="40.2287" lon="-2.09373">
        <ele>1029.2</ele>
        <time>2023-08-19T10:54:00Z</time>
      </trkpt>
      <trkpt lat="40.22847" lon="-2.09397">
        <ele>1028.2</ele>
        <time>2023-08-19T10:54:04Z</time>
      </trkpt>
      <trkpt lat="40.22823" lon="-2.09419">
        <ele>1027.5</ele>
        <time>2023-08-19T10:54:08Z</time>
      </trkpt>
      <trkpt lat="40.22801" lon="-2.09442">
        <ele>1024.5</ele>
        <time>2023-08-19T10:54:12Z</time>
      </trkpt>
      <trkpt lat="40.22783" lon="-2.0946">
        <ele>1023.5</ele>
        <time>2023-08-19T10:54:15Z</time>
      </trkpt>
      <trkpt lat="40.22767" lon="-2.09477">
        <ele>1023.6</ele>
        <time>2023-08-19T10:54:18Z</time>
      </trkpt>
      <trkpt lat="40.22751" lon="-2.09495">
        <ele>1024.9</ele>
        <time>2023-08-19T10:54:21Z</time>
      </trkpt>
      <trkpt lat="40.22734" lon="-2.09513">
        <ele>1026.2</ele>
        <time>2023-08-19T10:54:24Z</time>
      </trkpt>
      <trkpt lat="40.22717" lon="-2.09531">
        <ele>1026.4</ele>
        <time>2023-08-19T10:54:27Z</time>
      </trkpt>
      <trkpt lat="40.22699" lon="-2.09548">
        <ele>1025.5</ele>
        <time>2023-08-19T10:54:30Z</time>
      </trkpt>
      <trkpt lat="40.22681" lon="-2.09565">
        <ele>1024.6</ele>
        <time>2023-08-19T10:54:33Z</time>
      </trkpt>
      <trkpt lat="40.22658" lon="-2.09589">
        <ele>1022.9</ele>
        <time>2023-08-19T10:54:37Z</time>
      </trkpt>
      <trkpt lat="40.22634" lon="-2.09613">
        <ele>1022.3</ele>
        <time>2023-08-19T10:54:41Z</time>
      </trkpt>
      <trkpt lat="40.22617" lon="-2.0963">
        <ele>1021.5</ele>
        <time>2023-08-19T10:54:44Z</time>
      </trkpt>
      <trkpt lat="40.22594" lon="-2.09652">
        <ele>1021.7</ele>
        <time>2023-08-19T10:54:48Z</time>
      </trkpt>
      <trkpt lat="40.2257" lon="-2.09676">
        <ele>1023</ele>
        <time>2023-08-19T10:54:52Z</time>
      </trkpt>
      <trkpt lat="40.22547" lon="-2.09698">
        <ele>1024.2</ele>
        <time>2023-08-19T10:54:56Z</time>
      </trkpt>
      <trkpt lat="40.22523" lon="-2.09721">
        <ele>1023.2</ele>
        <time>2023-08-19T10:55:00Z</time>
      </trkpt>
      <trkpt lat="40.22501" lon="-2.09743">
        <ele>1022.3</ele>
        <time>2023-08-19T10:55:04Z</time>
      </trkpt>
      <trkpt lat="40.22479" lon="-2.09765">
        <ele>1022.9</ele>
        <time>2023-08-19T10:55:08Z</time>
      </trkpt>
      <trkpt lat="40.22462" lon="-2.09783">
        <ele>1022.2</ele>
        <time>2023-08-19T10:55:11Z</time>
      </trkpt>
      <trkpt lat="40.22439" lon="-2.09807">
        <ele>1022.3</ele>
        <time>2023-08-19T10:55:15Z</time>
      </trkpt>
      <trkpt lat="40.22423" lon="-2.09825">
        <ele>1023.9</ele>
        <time>2023-08-19T10:55:18Z</time>
      </trkpt>
      <trkpt lat="40.22401" lon="-2.0985">
        <ele>1024.2</ele>
        <time>2023-08-19T10:55:22Z</time>
      </trkpt>
      <trkpt lat="40.22383" lon="-2.09866">
        <ele>1024.7</ele>
        <time>2023-08-19T10:55:25Z</time>
      </trkpt>
      <trkpt lat="40.2236" lon="-2.09889">
        <ele>1025.7</ele>
        <time>2023-08-19T10:55:29Z</time>
      </trkpt>
      <trkpt lat="40.22336" lon="-2.09912">
        <ele>1025.1</ele>
        <time>2023-08-19T10:55:33Z</time>
      </trkpt>
      <trkpt lat="40.22311" lon="-2.09935">
        <ele>1024.4</ele>
        <time>2023-08-19T10:55:37Z</time>
      </trkpt>
      <trkpt lat="40.22289" lon="-2.09958">
        <ele>1024</ele>
        <time>2023-08-19T10:55:41Z</time>
      </trkpt>
      <trkpt lat="40.22272" lon="-2.09976">
        <ele>1024.2</ele>
        <time>2023-08-19T10:55:44Z</time>
      </trkpt>
      <trkpt lat="40.22249" lon="-2.10001">
        <ele>1025.2</ele>
        <time>2023-08-19T10:55:48Z</time>
      </trkpt>
      <trkpt lat="40.22227" lon="-2.10023">
        <ele>1024.4</ele>
        <time>2023-08-19T10:55:52Z</time>
      </trkpt>
      <trkpt lat="40.22204" lon="-2.10047">
        <ele>1024.8</ele>
        <time>2023-08-19T10:55:56Z</time>
      </trkpt>
      <trkpt lat="40.2218" lon="-2.10071">
        <ele>1025.3</ele>
        <time>2023-08-19T10:56:00Z</time>
      </trkpt>
      <trkpt lat="40.22157" lon="-2.10093">
        <ele>1023.8</ele>
        <time>2023-08-19T10:56:04Z</time>
      </trkpt>
      <trkpt lat="40.2214" lon="-2.1011">
        <ele>1023.1</ele>
        <time>2023-08-19T10:56:07Z</time>
      </trkpt>
      <trkpt lat="40.22115" lon="-2.1013">
        <ele>1023</ele>
        <time>2023-08-19T10:56:11Z</time>
      </trkpt>
      <trkpt lat="40.22089" lon="-2.10148">
        <ele>1023.4</ele>
        <time>2023-08-19T10:56:15Z</time>
      </trkpt>
      <trkpt lat="40.22062" lon="-2.10162">
        <ele>1023.1</ele>
        <time>2023-08-19T10:56:19Z</time>
      </trkpt>
      <trkpt lat="40.22033" lon="-2.10171">
        <ele>1021.6</ele>
        <time>2023-08-19T10:56:23Z</time>
      </trkpt>
      <trkpt lat="40.22005" lon="-2.10179">
        <ele>1022.9</ele>
        <time>2023-08-19T10:56:27Z</time>
      </trkpt>
      <trkpt lat="40.21976" lon="-2.10189">
        <ele>1021.9</ele>
        <time>2023-08-19T10:56:31Z</time>
      </trkpt>
      <trkpt lat="40.21949" lon="-2.102">
        <ele>1021.3</ele>
        <time>2023-08-19T10:56:35Z</time>
      </trkpt>
      <trkpt lat="40.21927" lon="-2.10208">
        <ele>1021</ele>
        <time>2023-08-19T10:56:38Z</time>
      </trkpt>
      <trkpt lat="40.21907" lon="-2.10216">
        <ele>1020.8</ele>
        <time>2023-08-19T10:56:41Z</time>
      </trkpt>
      <trkpt lat="40.21886" lon="-2.10225">
        <ele>1020.3</ele>
        <time>2023-08-19T10:56:44Z</time>
      </trkpt>
      <trkpt lat="40.21857" lon="-2.10234">
        <ele>1019.9</ele>
        <time>2023-08-19T10:56:48Z</time>
      </trkpt>
      <trkpt lat="40.21828" lon="-2.10243">
        <ele>1019.3</ele>
        <time>2023-08-19T10:56:52Z</time>
      </trkpt>
      <trkpt lat="40.21808" lon="-2.10251">
        <ele>1019.6</ele>
        <time>2023-08-19T10:56:55Z</time>
      </trkpt>
      <trkpt lat="40.2178" lon="-2.10261">
        <ele>1019</ele>
        <time>2023-08-19T10:56:59Z</time>
      </trkpt>
      <trkpt lat="40.21752" lon="-2.10272">
        <ele>1017.9</ele>
        <time>2023-08-19T10:57:03Z</time>
      </trkpt>
      <trkpt lat="40.21724" lon="-2.10281">
        <ele>1018.5</ele>
        <time>2023-08-19T10:57:07Z</time>
      </trkpt>
      <trkpt lat="40.21696" lon="-2.10291">
        <ele>1017.2</ele>
        <time>2023-08-19T10:57:11Z</time>
      </trkpt>
      <trkpt lat="40.21668" lon="-2.10301">
        <ele>1017.2</ele>
        <time>2023-08-19T10:57:15Z</time>
      </trkpt>
      <trkpt lat="40.2164" lon="-2.1031">
        <ele>1016.7</ele>
        <time>2023-08-19T10:57:19Z</time>
      </trkpt>
      <trkpt lat="40.21612" lon="-2.10322">
        <ele>1016.7</ele>
        <time>2023-08-19T10:57:23Z</time>
      </trkpt>
      <trkpt lat="40.21584" lon="-2.10332">
        <ele>1017.2</ele>
        <time>2023-08-19T10:57:27Z</time>
      </trkpt>
      <trkpt lat="40.21564" lon="-2.1034">
        <ele>1016.2</ele>
        <time>2023-08-19T10:57:30Z</time>
      </trkpt>
      <trkpt lat="40.21543" lon="-2.10347">
        <ele>1015.3</ele>
        <time>2023-08-19T10:57:33Z</time>
      </trkpt>
      <trkpt lat="40.21523" lon="-2.10353">
        <ele>1016.9</ele>
        <time>2023-08-19T10:57:36Z</time>
      </trkpt>
      <trkpt lat="40.21494" lon="-2.10365">
        <ele>1015.7</ele>
        <time>2023-08-19T10:57:40Z</time>
      </trkpt>
      <trkpt lat="40.21465" lon="-2.10375">
        <ele>1016.3</ele>
        <time>2023-08-19T10:57:44Z</time>
      </trkpt>
      <trkpt lat="40.21435" lon="-2.10384">
        <ele>1015.6</ele>
        <time>2023-08-19T10:57:48Z</time>
      </trkpt>
      <trkpt lat="40.21414" lon="-2.10391">
        <ele>1015.9</ele>
        <time>2023-08-19T10:57:51Z</time>
      </trkpt>
      <trkpt lat="40.21387" lon="-2.10402">
        <ele>1017</ele>
        <time>2023-08-19T10:57:55Z</time>
      </trkpt>
      <trkpt lat="40.21359" lon="-2.10413">
        <ele>1017.7</ele>
        <time>2023-08-19T10:57:59Z</time>
      </trkpt>
      <trkpt lat="40.21339" lon="-2.1042">
        <ele>1015.7</ele>
        <time>2023-08-19T10:58:02Z</time>
      </trkpt>
      <trkpt lat="40.21318" lon="-2.10428">
        <ele>1015</ele>
        <time>2023-08-19T10:58:05Z</time>
      </trkpt>
      <trkpt lat="40.2129" lon="-2.10438">
        <ele>1014</ele>
        <time>2023-08-19T10:58:09Z</time>
      </trkpt>
      <trkpt lat="40.21268" lon="-2.10446">
        <ele>1014.6</ele>
        <time>2023-08-19T10:58:12Z</time>
      </trkpt>
      <trkpt lat="40.21238" lon="-2.10457">
        <ele>1014.6</ele>
        <time>2023-08-19T10:58:16Z</time>
      </trkpt>
      <trkpt lat="40.21211" lon="-2.10467">
        <ele>1014.9</ele>
        <time>2023-08-19T10:58:20Z</time>
      </trkpt>
      <trkpt lat="40.21184" lon="-2.10476">
        <ele>1015.4</ele>
        <time>2023-08-19T10:58:24Z</time>
      </trkpt>
      <trkpt lat="40.21163" lon="-2.10482">
        <ele>1015.7</ele>
        <time>2023-08-19T10:58:27Z</time>
      </trkpt>
      <trkpt lat="40.21135" lon="-2.10493">
        <ele>1016.2</ele>
        <time>2023-08-19T10:58:31Z</time>
      </trkpt>
      <trkpt lat="40.21114" lon="-2.10499">
        <ele>1016</ele>
        <time>2023-08-19T10:58:34Z</time>
      </trkpt>
      <trkpt lat="40.21086" lon="-2.10509">
        <ele>1015.5</ele>
        <time>2023-08-19T10:58:38Z</time>
      </trkpt>
      <trkpt lat="40.21058" lon="-2.10519">
        <ele>1015.4</ele>
        <time>2023-08-19T10:58:42Z</time>
      </trkpt>
      <trkpt lat="40.21038" lon="-2.10527">
        <ele>1015.2</ele>
        <time>2023-08-19T10:58:45Z</time>
      </trkpt>
      <trkpt lat="40.2101" lon="-2.10537">
        <ele>1016.4</ele>
        <time>2023-08-19T10:58:49Z</time>
      </trkpt>
      <trkpt lat="40.20988" lon="-2.10544">
        <ele>1016.2</ele>
        <time>2023-08-19T10:58:52Z</time>
      </trkpt>
      <trkpt lat="40.20967" lon="-2.10551">
        <ele>1015.5</ele>
        <time>2023-08-19T10:58:55Z</time>
      </trkpt>
      <trkpt lat="40.20946" lon="-2.10559">
        <ele>1014.5</ele>
        <time>2023-08-19T10:58:58Z</time>
      </trkpt>
      <trkpt lat="40.20918" lon="-2.10569">
        <ele>1014.5</ele>
        <time>2023-08-19T10:59:02Z</time>
      </trkpt>
      <trkpt lat="40.2089" lon="-2.10579">
        <ele>1014.7</ele>
        <time>2023-08-19T10:59:06Z</time>
      </trkpt>
      <trkpt lat="40.20862" lon="-2.10588">
        <ele>1014.5</ele>
        <time>2023-08-19T10:59:10Z</time>
      </trkpt>
      <trkpt lat="40.20835" lon="-2.10598">
        <ele>1015</ele>
        <time>2023-08-19T10:59:14Z</time>
      </trkpt>
      <trkpt lat="40.20806" lon="-2.10607">
        <ele>1014.1</ele>
        <time>2023-08-19T10:59:18Z</time>
      </trkpt>
      <trkpt lat="40.20776" lon="-2.10618">
        <ele>1014.5</ele>
        <time>2023-08-19T10:59:22Z</time>
      </trkpt>
      <trkpt lat="40.20747" lon="-2.10629">
        <ele>1013.6</ele>
        <time>2023-08-19T10:59:26Z</time>
      </trkpt>
      <trkpt lat="40.20718" lon="-2.1064">
        <ele>1012.3</ele>
        <time>2023-08-19T10:59:30Z</time>
      </trkpt>
      <trkpt lat="40.20696" lon="-2.10647">
        <ele>1011.8</ele>
        <time>2023-08-19T10:59:33Z</time>
      </trkpt>
      <trkpt lat="40.20668" lon="-2.10657">
        <ele>1011</ele>
        <time>2023-08-19T10:59:37Z</time>
      </trkpt>
      <trkpt lat="40.20641" lon="-2.10669">
        <ele>1010.4</ele>
        <time>2023-08-19T10:59:41Z</time>
      </trkpt>
      <trkpt lat="40.20621" lon="-2.10678">
        <ele>1010.4</ele>
        <time>2023-08-19T10:59:44Z</time>
      </trkpt>
      <trkpt lat="40.20595" lon="-2.10691">
        <ele>1010.6</ele>
        <time>2023-08-19T10:59:48Z</time>
      </trkpt>
      <trkpt lat="40.20576" lon="-2.10699">
        <ele>1010.6</ele>
        <time>2023-08-19T10:59:51Z</time>
      </trkpt>
      <trkpt lat="40.2055" lon="-2.1071">
        <ele>1010.6</ele>
        <time>2023-08-19T10:59:55Z</time>
      </trkpt>
      <trkpt lat="40.20522" lon="-2.10723">
        <ele>1010.3</ele>
        <time>2023-08-19T10:59:59Z</time>
      </trkpt>
      <trkpt lat="40.20494" lon="-2.10738">
        <ele>1010.4</ele>
        <time>2023-08-19T11:00:03Z</time>
      </trkpt>
      <trkpt lat="40.20466" lon="-2.10753">
        <ele>1010.9</ele>
        <time>2023-08-19T11:00:07Z</time>
      </trkpt>
      <trkpt lat="40.20436" lon="-2.10763">
        <ele>1011</ele>
        <time>2023-08-19T11:00:11Z</time>
      </trkpt>
      <trkpt lat="40.20404" lon="-2.10767">
        <ele>1011.2</ele>
        <time>2023-08-19T11:00:15Z</time>
      </trkpt>
      <trkpt lat="40.20374" lon="-2.10764">
        <ele>1011.9</ele>
        <time>2023-08-19T11:00:19Z</time>
      </trkpt>
      <trkpt lat="40.20352" lon="-2.1076">
        <ele>1011.8</ele>
        <time>2023-08-19T11:00:22Z</time>
      </trkpt>
      <trkpt lat="40.20332" lon="-2.10759">
        <ele>1012.1</ele>
        <time>2023-08-19T11:00:25Z</time>
      </trkpt>
      <trkpt lat="40.20304" lon="-2.10763">
        <ele>1012.7</ele>
        <time>2023-08-19T11:00:29Z</time>
      </trkpt>
      <trkpt lat="40.20276" lon="-2.10775">
        <ele>1013.3</ele>
        <time>2023-08-19T11:00:33Z</time>
      </trkpt>
      <trkpt lat="40.20252" lon="-2.1079">
        <ele>1015.1</ele>
        <time>2023-08-19T11:00:37Z</time>
      </trkpt>
      <trkpt lat="40.2023" lon="-2.10808">
        <ele>1017.1</ele>
        <time>2023-08-19T11:00:41Z</time>
      </trkpt>
      <trkpt lat="40.20212" lon="-2.10823">
        <ele>1017.5</ele>
        <time>2023-08-19T11:00:44Z</time>
      </trkpt>
      <trkpt lat="40.20186" lon="-2.10842">
        <ele>1018.7</ele>
        <time>2023-08-19T11:00:48Z</time>
      </trkpt>
      <trkpt lat="40.20159" lon="-2.10863">
        <ele>1018.7</ele>
        <time>2023-08-19T11:00:52Z</time>
      </trkpt>
      <trkpt lat="40.20132" lon="-2.10882">
        <ele>1019</ele>
        <time>2023-08-19T11:00:56Z</time>
      </trkpt>
      <trkpt lat="40.20114" lon="-2.10896">
        <ele>1018.6</ele>
        <time>2023-08-19T11:00:59Z</time>
      </trkpt>
      <trkpt lat="40.20089" lon="-2.10917">
        <ele>1018.1</ele>
        <time>2023-08-19T11:01:03Z</time>
      </trkpt>
      <trkpt lat="40.2007" lon="-2.10934">
        <ele>1017.8</ele>
        <time>2023-08-19T11:01:06Z</time>
      </trkpt>
      <trkpt lat="40.20051" lon="-2.10951">
        <ele>1017.7</ele>
        <time>2023-08-19T11:01:09Z</time>
      </trkpt>
      <trkpt lat="40.20032" lon="-2.10967">
        <ele>1016.2</ele>
        <time>2023-08-19T11:01:12Z</time>
      </trkpt>
      <trkpt lat="40.20008" lon="-2.10984">
        <ele>1015.6</ele>
        <time>2023-08-19T11:01:16Z</time>
      </trkpt>
      <trkpt lat="40.19989" lon="-2.10999">
        <ele>1015</ele>
        <time>2023-08-19T11:01:19Z</time>
      </trkpt>
      <trkpt lat="40.19963" lon="-2.11016">
        <ele>1013.6</ele>
        <time>2023-08-19T11:01:23Z</time>
      </trkpt>
      <trkpt lat="40.19942" lon="-2.11025">
        <ele>1013.2</ele>
        <time>2023-08-19T11:01:26Z</time>
      </trkpt>
      <trkpt lat="40.19914" lon="-2.11034">
        <ele>1013.2</ele>
        <time>2023-08-19T11:01:30Z</time>
      </trkpt>
      <trkpt lat="40.19893" lon="-2.1104">
        <ele>1012.4</ele>
        <time>2023-08-19T11:01:33Z</time>
      </trkpt>
      <trkpt lat="40.19872" lon="-2.11046">
        <ele>1012.9</ele>
        <time>2023-08-19T11:01:36Z</time>
      </trkpt>
      <trkpt lat="40.19844" lon="-2.11055">
        <ele>1012.8</ele>
        <time>2023-08-19T11:01:40Z</time>
      </trkpt>
      <trkpt lat="40.19816" lon="-2.11064">
        <ele>1013.3</ele>
        <time>2023-08-19T11:01:44Z</time>
      </trkpt>
      <trkpt lat="40.19795" lon="-2.11071">
        <ele>1013.1</ele>
        <time>2023-08-19T11:01:47Z</time>
      </trkpt>
      <trkpt lat="40.19766" lon="-2.1108">
        <ele>1011.9</ele>
        <time>2023-08-19T11:01:51Z</time>
      </trkpt>
      <trkpt lat="40.19738" lon="-2.11091">
        <ele>1011.1</ele>
        <time>2023-08-19T11:01:55Z</time>
      </trkpt>
      <trkpt lat="40.19718" lon="-2.11103">
        <ele>1011</ele>
        <time>2023-08-19T11:01:58Z</time>
      </trkpt>
      <trkpt lat="40.19691" lon="-2.11123">
        <ele>1011.2</ele>
        <time>2023-08-19T11:02:02Z</time>
      </trkpt>
      <trkpt lat="40.19667" lon="-2.11144">
        <ele>1011.5</ele>
        <time>2023-08-19T11:02:06Z</time>
      </trkpt>
      <trkpt lat="40.19649" lon="-2.11161">
        <ele>1011.2</ele>
        <time>2023-08-19T11:02:09Z</time>
      </trkpt>
      <trkpt lat="40.19626" lon="-2.11184">
        <ele>1011.1</ele>
        <time>2023-08-19T11:02:13Z</time>
      </trkpt>
      <trkpt lat="40.19607" lon="-2.11201">
        <ele>1011.1</ele>
        <time>2023-08-19T11:02:16Z</time>
      </trkpt>
      <trkpt lat="40.19584" lon="-2.11223">
        <ele>1010.6</ele>
        <time>2023-08-19T11:02:20Z</time>
      </trkpt>
      <trkpt lat="40.19561" lon="-2.11245">
        <ele>1009.6</ele>
        <time>2023-08-19T11:02:24Z</time>
      </trkpt>
      <trkpt lat="40.19539" lon="-2.11268">
        <ele>1009.7</ele>
        <time>2023-08-19T11:02:28Z</time>
      </trkpt>
      <trkpt lat="40.19522" lon="-2.11286">
        <ele>1009.1</ele>
        <time>2023-08-19T11:02:31Z</time>
      </trkpt>
      <trkpt lat="40.19505" lon="-2.11303">
        <ele>1010.3</ele>
        <time>2023-08-19T11:02:34Z</time>
      </trkpt>
      <trkpt lat="40.19486" lon="-2.11319">
        <ele>1010.1</ele>
        <time>2023-08-19T11:02:37Z</time>
      </trkpt>
      <trkpt lat="40.19459" lon="-2.11337">
        <ele>1010.6</ele>
        <time>2023-08-19T11:02:41Z</time>
      </trkpt>
      <trkpt lat="40.19438" lon="-2.11348">
        <ele>1009.6</ele>
        <time>2023-08-19T11:02:44Z</time>
      </trkpt>
      <trkpt lat="40.19417" lon="-2.11358">
        <ele>1009.2</ele>
        <time>2023-08-19T11:02:47Z</time>
      </trkpt>
      <trkpt lat="40.19396" lon="-2.11365">
        <ele>1008.6</ele>
        <time>2023-08-19T11:02:50Z</time>
      </trkpt>
      <trkpt lat="40.19368" lon="-2.1137">
        <ele>1008.3</ele>
        <time>2023-08-19T11:02:54Z</time>
      </trkpt>
      <trkpt lat="40.19348" lon="-2.11374">
        <ele>1008.4</ele>
        <time>2023-08-19T11:02:57Z</time>
      </trkpt>
      <trkpt lat="40.19321" lon="-2.11379">
        <ele>1008.5</ele>
        <time>2023-08-19T11:03:01Z</time>
      </trkpt>
      <trkpt lat="40.19293" lon="-2.11386">
        <ele>1009.7</ele>
        <time>2023-08-19T11:03:05Z</time>
      </trkpt>
      <trkpt lat="40.19264" lon="-2.11394">
        <ele>1008.6</ele>
        <time>2023-08-19T11:03:09Z</time>
      </trkpt>
      <trkpt lat="40.19236" lon="-2.11405">
        <ele>1009.1</ele>
        <time>2023-08-19T11:03:13Z</time>
      </trkpt>
      <trkpt lat="40.19207" lon="-2.11416">
        <ele>1008.3</ele>
        <time>2023-08-19T11:03:17Z</time>
      </trkpt>
      <trkpt lat="40.19181" lon="-2.11428">
        <ele>1007.3</ele>
        <time>2023-08-19T11:03:21Z</time>
      </trkpt>
      <trkpt lat="40.19161" lon="-2.11436">
        <ele>1006.2</ele>
        <time>2023-08-19T11:03:24Z</time>
      </trkpt>
      <trkpt lat="40.19132" lon="-2.11448">
        <ele>1006.6</ele>
        <time>2023-08-19T11:03:28Z</time>
      </trkpt>
      <trkpt lat="40.19111" lon="-2.11456">
        <ele>1006.5</ele>
        <time>2023-08-19T11:03:31Z</time>
      </trkpt>
      <trkpt lat="40.19084" lon="-2.11467">
        <ele>1006.4</ele>
        <time>2023-08-19T11:03:35Z</time>
      </trkpt>
      <trkpt lat="40.19056" lon="-2.11478">
        <ele>1006.7</ele>
        <time>2023-08-19T11:03:39Z</time>
      </trkpt>
      <trkpt lat="40.19036" lon="-2.11487">
        <ele>1007.1</ele>
        <time>2023-08-19T11:03:42Z</time>
      </trkpt>
      <trkpt lat="40.19008" lon="-2.11498">
        <ele>1006.9</ele>
        <time>2023-08-19T11:03:46Z</time>
      </trkpt>
      <trkpt lat="40.18986" lon="-2.11506">
        <ele>1006.3</ele>
        <time>2023-08-19T11:03:49Z</time>
      </trkpt>
      <trkpt lat="40.1896" lon="-2.11517">
        <ele>1006.4</ele>
        <time>2023-08-19T11:03:53Z</time>
      </trkpt>
      <trkpt lat="40.18932" lon="-2.11528">
        <ele>1005.7</ele>
        <time>2023-08-19T11:03:57Z</time>
      </trkpt>
      <trkpt lat="40.18911" lon="-2.11536">
        <ele>1005.7</ele>
        <time>2023-08-19T11:04:00Z</time>
      </trkpt>
      <trkpt lat="40.1889" lon="-2.11544">
        <ele>1005.5</ele>
        <time>2023-08-19T11:04:03Z</time>
      </trkpt>
      <trkpt lat="40.18862" lon="-2.11556">
        <ele>1006.7</ele>
        <time>2023-08-19T11:04:07Z</time>
      </trkpt>
      <trkpt lat="40.18835" lon="-2.11568">
        <ele>1006.7</ele>
        <time>2023-08-19T11:04:11Z</time>
      </trkpt>
      <trkpt lat="40.18814" lon="-2.11577">
        <ele>1006.3</ele>
        <time>2023-08-19T11:04:14Z</time>
      </trkpt>
      <trkpt lat="40.18787" lon="-2.11589">
        <ele>1005.2</ele>
        <time>2023-08-19T11:04:18Z</time>
      </trkpt>
      <trkpt lat="40.18759" lon="-2.116">
        <ele>1005.5</ele>
        <time>2023-08-19T11:04:22Z</time>
      </trkpt>
      <trkpt lat="40.18738" lon="-2.11608">
        <ele>1005.5</ele>
        <time>2023-08-19T11:04:25Z</time>
      </trkpt>
      <trkpt lat="40.1871" lon="-2.11618">
        <ele>1006.1</ele>
        <time>2023-08-19T11:04:29Z</time>
      </trkpt>
      <trkpt lat="40.18688" lon="-2.11626">
        <ele>1005.7</ele>
        <time>2023-08-19T11:04:32Z</time>
      </trkpt>
      <trkpt lat="40.1866" lon="-2.11637">
        <ele>1005.3</ele>
        <time>2023-08-19T11:04:36Z</time>
      </trkpt>
      <trkpt lat="40.1864" lon="-2.11646">
        <ele>1006</ele>
        <time>2023-08-19T11:04:39Z</time>
      </trkpt>
      <trkpt lat="40.18613" lon="-2.11657">
        <ele>1005.6</ele>
        <time>2023-08-19T11:04:43Z</time>
      </trkpt>
      <trkpt lat="40.18585" lon="-2.11669">
        <ele>1005.5</ele>
        <time>2023-08-19T11:04:47Z</time>
      </trkpt>
      <trkpt lat="40.18557" lon="-2.11681">
        <ele>1005</ele>
        <time>2023-08-19T11:04:51Z</time>
      </trkpt>
      <trkpt lat="40.18536" lon="-2.11689">
        <ele>1003.5</ele>
        <time>2023-08-19T11:04:54Z</time>
      </trkpt>
      <trkpt lat="40.18516" lon="-2.11698">
        <ele>1004.2</ele>
        <time>2023-08-19T11:04:57Z</time>
      </trkpt>
      <trkpt lat="40.18488" lon="-2.11708">
        <ele>1005</ele>
        <time>2023-08-19T11:05:01Z</time>
      </trkpt>
      <trkpt lat="40.18461" lon="-2.11719">
        <ele>1002.9</ele>
        <time>2023-08-19T11:05:05Z</time>
      </trkpt>
      <trkpt lat="40.18433" lon="-2.1173">
        <ele>1004.6</ele>
        <time>2023-08-19T11:05:09Z</time>
      </trkpt>
      <trkpt lat="40.18411" lon="-2.11739">
        <ele>1003.9</ele>
        <time>2023-08-19T11:05:12Z</time>
      </trkpt>
      <trkpt lat="40.18391" lon="-2.11748">
        <ele>1002.8</ele>
        <time>2023-08-19T11:05:15Z</time>
      </trkpt>
      <trkpt lat="40.1837" lon="-2.11757">
        <ele>1003</ele>
        <time>2023-08-19T11:05:18Z</time>
      </trkpt>
      <trkpt lat="40.18349" lon="-2.11764">
        <ele>1003.1</ele>
        <time>2023-08-19T11:05:21Z</time>
      </trkpt>
      <trkpt lat="40.18327" lon="-2.11772">
        <ele>1003.6</ele>
        <time>2023-08-19T11:05:24Z</time>
      </trkpt>
      <trkpt lat="40.18306" lon="-2.1178">
        <ele>1003.5</ele>
        <time>2023-08-19T11:05:27Z</time>
      </trkpt>
      <trkpt lat="40.18278" lon="-2.1179">
        <ele>1003.4</ele>
        <time>2023-08-19T11:05:31Z</time>
      </trkpt>
      <trkpt lat="40.18257" lon="-2.11797">
        <ele>1003.3</ele>
        <time>2023-08-19T11:05:34Z</time>
      </trkpt>
      <trkpt lat="40.18228" lon="-2.11805">
        <ele>1003.5</ele>
        <time>2023-08-19T11:05:38Z</time>
      </trkpt>
      <trkpt lat="40.18206" lon="-2.11811">
        <ele>1002.6</ele>
        <time>2023-08-19T11:05:41Z</time>
      </trkpt>
      <trkpt lat="40.18184" lon="-2.11815">
        <ele>1002.1</ele>
        <time>2023-08-19T11:05:44Z</time>
      </trkpt>
      <trkpt lat="40.18156" lon="-2.1182">
        <ele>1002.2</ele>
        <time>2023-08-19T11:05:48Z</time>
      </trkpt>
      <trkpt lat="40.18127" lon="-2.11826">
        <ele>1001</ele>
        <time>2023-08-19T11:05:52Z</time>
      </trkpt>
      <trkpt lat="40.18099" lon="-2.11837">
        <ele>1001.9</ele>
        <time>2023-08-19T11:05:56Z</time>
      </trkpt>
      <trkpt lat="40.1807" lon="-2.1185">
        <ele>1001.9</ele>
        <time>2023-08-19T11:06:00Z</time>
      </trkpt>
      <trkpt lat="40.18051" lon="-2.11859">
        <ele>1002.8</ele>
        <time>2023-08-19T11:06:03Z</time>
      </trkpt>
      <trkpt lat="40.18032" lon="-2.11869">
        <ele>1004.1</ele>
        <time>2023-08-19T11:06:06Z</time>
      </trkpt>
      <trkpt lat="40.18013" lon="-2.11879">
        <ele>1003.1</ele>
        <time>2023-08-19T11:06:09Z</time>
      </trkpt>
      <trkpt lat="40.17988" lon="-2.11895">
        <ele>1003.4</ele>
        <time>2023-08-19T11:06:13Z</time>
      </trkpt>
      <trkpt lat="40.17962" lon="-2.11914">
        <ele>1002.9</ele>
        <time>2023-08-19T11:06:17Z</time>
      </trkpt>
      <trkpt lat="40.17943" lon="-2.1193">
        <ele>1002.6</ele>
        <time>2023-08-19T11:06:20Z</time>
      </trkpt>
      <trkpt lat="40.17919" lon="-2.11951">
        <ele>1004.4</ele>
        <time>2023-08-19T11:06:24Z</time>
      </trkpt>
      <trkpt lat="40.17895" lon="-2.11974">
        <ele>1006.5</ele>
        <time>2023-08-19T11:06:28Z</time>
      </trkpt>
      <trkpt lat="40.17871" lon="-2.11997">
        <ele>1007.2</ele>
        <time>2023-08-19T11:06:32Z</time>
      </trkpt>
      <trkpt lat="40.17844" lon="-2.12017">
        <ele>1008.4</ele>
        <time>2023-08-19T11:06:36Z</time>
      </trkpt>
      <trkpt lat="40.17815" lon="-2.12033">
        <ele>1008.3</ele>
        <time>2023-08-19T11:06:40Z</time>
      </trkpt>
      <trkpt lat="40.17786" lon="-2.12041">
        <ele>1008.7</ele>
        <time>2023-08-19T11:06:44Z</time>
      </trkpt>
      <trkpt lat="40.17764" lon="-2.12041">
        <ele>1007.7</ele>
        <time>2023-08-19T11:06:47Z</time>
      </trkpt>
      <trkpt lat="40.17741" lon="-2.12039">
        <ele>1007.3</ele>
        <time>2023-08-19T11:06:50Z</time>
      </trkpt>
      <trkpt lat="40.17714" lon="-2.12034">
        <ele>1008.5</ele>
        <time>2023-08-19T11:06:54Z</time>
      </trkpt>
      <trkpt lat="40.17694" lon="-2.12031">
        <ele>1008.7</ele>
        <time>2023-08-19T11:06:57Z</time>
      </trkpt>
      <trkpt lat="40.17665" lon="-2.1203">
        <ele>1008.7</ele>
        <time>2023-08-19T11:07:01Z</time>
      </trkpt>
      <trkpt lat="40.17637" lon="-2.12035">
        <ele>1009.1</ele>
        <time>2023-08-19T11:07:05Z</time>
      </trkpt>
      <trkpt lat="40.1761" lon="-2.12048">
        <ele>1010.2</ele>
        <time>2023-08-19T11:07:09Z</time>
      </trkpt>
      <trkpt lat="40.17588" lon="-2.12061">
        <ele>1009.8</ele>
        <time>2023-08-19T11:07:12Z</time>
      </trkpt>
      <trkpt lat="40.17564" lon="-2.1208">
        <ele>1009</ele>
        <time>2023-08-19T11:07:16Z</time>
      </trkpt>
      <trkpt lat="40.17547" lon="-2.12095">
        <ele>1009.6</ele>
        <time>2023-08-19T11:07:19Z</time>
      </trkpt>
      <trkpt lat="40.17523" lon="-2.12117">
        <ele>1011.2</ele>
        <time>2023-08-19T11:07:23Z</time>
      </trkpt>
      <trkpt lat="40.17496" lon="-2.12135">
        <ele>1014.2</ele>
        <time>2023-08-19T11:07:27Z</time>
      </trkpt>
      <trkpt lat="40.17469" lon="-2.12147">
        <ele>1014.8</ele>
        <time>2023-08-19T11:07:31Z</time>
      </trkpt>
      <trkpt lat="40.17447" lon="-2.12152">
        <ele>1014.6</ele>
        <time>2023-08-19T11:07:34Z</time>
      </trkpt>
      <trkpt lat="40.17419" lon="-2.12158">
        <ele>1015.3</ele>
        <time>2023-08-19T11:07:38Z</time>
      </trkpt>
      <trkpt lat="40.17399" lon="-2.12163">
        <ele>1016.3</ele>
        <time>2023-08-19T11:07:41Z</time>
      </trkpt>
      <trkpt lat="40.17371" lon="-2.1217">
        <ele>1016.5</ele>
        <time>2023-08-19T11:07:45Z</time>
      </trkpt>
      <trkpt lat="40.17342" lon="-2.12177">
        <ele>1015.1</ele>
        <time>2023-08-19T11:07:49Z</time>
      </trkpt>
      <trkpt lat="40.17312" lon="-2.12185">
        <ele>1016</ele>
        <time>2023-08-19T11:07:53Z</time>
      </trkpt>
      <trkpt lat="40.17283" lon="-2.12192">
        <ele>1017.5</ele>
        <time>2023-08-19T11:07:57Z</time>
      </trkpt>
      <trkpt lat="40.17256" lon="-2.12199">
        <ele>1018</ele>
        <time>2023-08-19T11:08:01Z</time>
      </trkpt>
      <trkpt lat="40.17227" lon="-2.12205">
        <ele>1016.7</ele>
        <time>2023-08-19T11:08:05Z</time>
      </trkpt>
      <trkpt lat="40.17199" lon="-2.12212">
        <ele>1016.6</ele>
        <time>2023-08-19T11:08:09Z</time>
      </trkpt>
      <trkpt lat="40.17176" lon="-2.12218">
        <ele>1016.1</ele>
        <time>2023-08-19T11:08:12Z</time>
      </trkpt>
      <trkpt lat="40.17147" lon="-2.12224">
        <ele>1016.2</ele>
        <time>2023-08-19T11:08:16Z</time>
      </trkpt>
      <trkpt lat="40.17126" lon="-2.12228">
        <ele>1016</ele>
        <time>2023-08-19T11:08:19Z</time>
      </trkpt>
      <trkpt lat="40.17105" lon="-2.12233">
        <ele>1017</ele>
        <time>2023-08-19T11:08:22Z</time>
      </trkpt>
      <trkpt lat="40.17077" lon="-2.1224">
        <ele>1016.5</ele>
        <time>2023-08-19T11:08:26Z</time>
      </trkpt>
      <trkpt lat="40.17049" lon="-2.12245">
        <ele>1015.6</ele>
        <time>2023-08-19T11:08:30Z</time>
      </trkpt>
      <trkpt lat="40.17028" lon="-2.1225">
        <ele>1015.6</ele>
        <time>2023-08-19T11:08:33Z</time>
      </trkpt>
      <trkpt lat="40.17" lon="-2.12257">
        <ele>1015.9</ele>
        <time>2023-08-19T11:08:37Z</time>
      </trkpt>
      <trkpt lat="40.16971" lon="-2.12264">
        <ele>1016.5</ele>
        <time>2023-08-19T11:08:41Z</time>
      </trkpt>
      <trkpt lat="40.16942" lon="-2.1227">
        <ele>1015.8</ele>
        <time>2023-08-19T11:08:45Z</time>
      </trkpt>
      <trkpt lat="40.1692" lon="-2.12276">
        <ele>1016</ele>
        <time>2023-08-19T11:08:48Z</time>
      </trkpt>
      <trkpt lat="40.16898" lon="-2.12281">
        <ele>1016.4</ele>
        <time>2023-08-19T11:08:51Z</time>
      </trkpt>
      <trkpt lat="40.16866" lon="-2.12288">
        <ele>1016.9</ele>
        <time>2023-08-19T11:08:55Z</time>
      </trkpt>
      <trkpt lat="40.16837" lon="-2.12295">
        <ele>1016.6</ele>
        <time>2023-08-19T11:08:59Z</time>
      </trkpt>
      <trkpt lat="40.16809" lon="-2.12302">
        <ele>1016.8</ele>
        <time>2023-08-19T11:09:03Z</time>
      </trkpt>
      <trkpt lat="40.16783" lon="-2.1231">
        <ele>1019.2</ele>
        <time>2023-08-19T11:09:07Z</time>
      </trkpt>
      <trkpt lat="40.1676" lon="-2.12323">
        <ele>1019.7</ele>
        <time>2023-08-19T11:09:11Z</time>
      </trkpt>
      <trkpt lat="40.1674" lon="-2.12345">
        <ele>1021</ele>
        <time>2023-08-19T11:09:15Z</time>
      </trkpt>
      <trkpt lat="40.16717" lon="-2.12377">
        <ele>1021.8</ele>
        <time>2023-08-19T11:09:19Z</time>
      </trkpt>
      <trkpt lat="40.16693" lon="-2.12404">
        <ele>1022.7</ele>
        <time>2023-08-19T11:09:23Z</time>
      </trkpt>
      <trkpt lat="40.16674" lon="-2.12419">
        <ele>1023.6</ele>
        <time>2023-08-19T11:09:26Z</time>
      </trkpt>
      <trkpt lat="40.16647" lon="-2.12435">
        <ele>1023.2</ele>
        <time>2023-08-19T11:09:30Z</time>
      </trkpt>
      <trkpt lat="40.16621" lon="-2.12448">
        <ele>1023.4</ele>
        <time>2023-08-19T11:09:34Z</time>
      </trkpt>
      <trkpt lat="40.16596" lon="-2.1246">
        <ele>1025.1</ele>
        <time>2023-08-19T11:09:38Z</time>
      </trkpt>
      <trkpt lat="40.16573" lon="-2.12469">
        <ele>1024.8</ele>
        <time>2023-08-19T11:09:41Z</time>
      </trkpt>
      <trkpt lat="40.16543" lon="-2.12481">
        <ele>1024.6</ele>
        <time>2023-08-19T11:09:45Z</time>
      </trkpt>
      <trkpt lat="40.16514" lon="-2.12493">
        <ele>1024.4</ele>
        <time>2023-08-19T11:09:49Z</time>
      </trkpt>
      <trkpt lat="40.16492" lon="-2.12503">
        <ele>1024</ele>
        <time>2023-08-19T11:09:52Z</time>
      </trkpt>
      <trkpt lat="40.16467" lon="-2.12518">
        <ele>1023.3</ele>
        <time>2023-08-19T11:09:56Z</time>
      </trkpt>
      <trkpt lat="40.16448" lon="-2.12532">
        <ele>1022.3</ele>
        <time>2023-08-19T11:09:59Z</time>
      </trkpt>
      <trkpt lat="40.16425" lon="-2.12555">
        <ele>1020.7</ele>
        <time>2023-08-19T11:10:03Z</time>
      </trkpt>
      <trkpt lat="40.16401" lon="-2.12579">
        <ele>1020.3</ele>
        <time>2023-08-19T11:10:07Z</time>
      </trkpt>
      <trkpt lat="40.16378" lon="-2.12602">
        <ele>1018.7</ele>
        <time>2023-08-19T11:10:11Z</time>
      </trkpt>
      <trkpt lat="40.16354" lon="-2.12623">
        <ele>1017.6</ele>
        <time>2023-08-19T11:10:15Z</time>
      </trkpt>
      <trkpt lat="40.1633" lon="-2.12645">
        <ele>1016.9</ele>
        <time>2023-08-19T11:10:19Z</time>
      </trkpt>
      <trkpt lat="40.16308" lon="-2.12665">
        <ele>1017.9</ele>
        <time>2023-08-19T11:10:23Z</time>
      </trkpt>
      <trkpt lat="40.16285" lon="-2.12686">
        <ele>1016.5</ele>
        <time>2023-08-19T11:10:27Z</time>
      </trkpt>
      <trkpt lat="40.16268" lon="-2.12703">
        <ele>1016.6</ele>
        <time>2023-08-19T11:10:30Z</time>
      </trkpt>
      <trkpt lat="40.1625" lon="-2.1272">
        <ele>1016.2</ele>
        <time>2023-08-19T11:10:33Z</time>
      </trkpt>
      <trkpt lat="40.16226" lon="-2.12743">
        <ele>1017.3</ele>
        <time>2023-08-19T11:10:37Z</time>
      </trkpt>
      <trkpt lat="40.16201" lon="-2.12767">
        <ele>1017.5</ele>
        <time>2023-08-19T11:10:41Z</time>
      </trkpt>
      <trkpt lat="40.16183" lon="-2.12783">
        <ele>1017.7</ele>
        <time>2023-08-19T11:10:44Z</time>
      </trkpt>
      <trkpt lat="40.16159" lon="-2.12804">
        <ele>1018.1</ele>
        <time>2023-08-19T11:10:48Z</time>
      </trkpt>
      <trkpt lat="40.16135" lon="-2.12827">
        <ele>1018.5</ele>
        <time>2023-08-19T11:10:52Z</time>
      </trkpt>
      <trkpt lat="40.16112" lon="-2.12848">
        <ele>1017.8</ele>
        <time>2023-08-19T11:10:56Z</time>
      </trkpt>
      <trkpt lat="40.16096" lon="-2.12863">
        <ele>1018.5</ele>
        <time>2023-08-19T11:10:59Z</time>
      </trkpt>
      <trkpt lat="40.1608" lon="-2.12877">
        <ele>1019.8</ele>
        <time>2023-08-19T11:11:02Z</time>
      </trkpt>
      <trkpt lat="40.16057" lon="-2.12901">
        <ele>1020.6</ele>
        <time>2023-08-19T11:11:06Z</time>
      </trkpt>
      <trkpt lat="40.16034" lon="-2.12925">
        <ele>1021.1</ele>
        <time>2023-08-19T11:11:10Z</time>
      </trkpt>
      <trkpt lat="40.16013" lon="-2.12952">
        <ele>1022.8</ele>
        <time>2023-08-19T11:11:14Z</time>
      </trkpt>
      <trkpt lat="40.15996" lon="-2.12975">
        <ele>1023.3</ele>
        <time>2023-08-19T11:11:17Z</time>
      </trkpt>
      <trkpt lat="40.15975" lon="-2.13004">
        <ele>1024.7</ele>
        <time>2023-08-19T11:11:21Z</time>
      </trkpt>
      <trkpt lat="40.15961" lon="-2.13024">
        <ele>1024.5</ele>
        <time>2023-08-19T11:11:24Z</time>
      </trkpt>
      <trkpt lat="40.15942" lon="-2.13052">
        <ele>1024.7</ele>
        <time>2023-08-19T11:11:28Z</time>
      </trkpt>
      <trkpt lat="40.15924" lon="-2.13078">
        <ele>1026</ele>
        <time>2023-08-19T11:11:32Z</time>
      </trkpt>
      <trkpt lat="40.15909" lon="-2.13099">
        <ele>1026.2</ele>
        <time>2023-08-19T11:11:35Z</time>
      </trkpt>
      <trkpt lat="40.1589" lon="-2.13127">
        <ele>1025.9</ele>
        <time>2023-08-19T11:11:39Z</time>
      </trkpt>
      <trkpt lat="40.15869" lon="-2.13154">
        <ele>1025.4</ele>
        <time>2023-08-19T11:11:43Z</time>
      </trkpt>
      <trkpt lat="40.15847" lon="-2.13181">
        <ele>1025.6</ele>
        <time>2023-08-19T11:11:47Z</time>
      </trkpt>
      <trkpt lat="40.15824" lon="-2.13205">
        <ele>1025.2</ele>
        <time>2023-08-19T11:11:51Z</time>
      </trkpt>
      <trkpt lat="40.15801" lon="-2.13227">
        <ele>1025.4</ele>
        <time>2023-08-19T11:11:55Z</time>
      </trkpt>
      <trkpt lat="40.15783" lon="-2.13243">
        <ele>1025.4</ele>
        <time>2023-08-19T11:11:58Z</time>
      </trkpt>
      <trkpt lat="40.15758" lon="-2.13262">
        <ele>1023.5</ele>
        <time>2023-08-19T11:12:02Z</time>
      </trkpt>
      <trkpt lat="40.15739" lon="-2.13277">
        <ele>1022.7</ele>
        <time>2023-08-19T11:12:05Z</time>
      </trkpt>
      <trkpt lat="40.15714" lon="-2.13295">
        <ele>1022.6</ele>
        <time>2023-08-19T11:12:09Z</time>
      </trkpt>
      <trkpt lat="40.15696" lon="-2.1331">
        <ele>1022</ele>
        <time>2023-08-19T11:12:12Z</time>
      </trkpt>
      <trkpt lat="40.15671" lon="-2.13332">
        <ele>1021.7</ele>
        <time>2023-08-19T11:12:16Z</time>
      </trkpt>
      <trkpt lat="40.15651" lon="-2.13347">
        <ele>1021.9</ele>
        <time>2023-08-19T11:12:19Z</time>
      </trkpt>
      <trkpt lat="40.15626" lon="-2.13369">
        <ele>1019.8</ele>
        <time>2023-08-19T11:12:23Z</time>
      </trkpt>
      <trkpt lat="40.15608" lon="-2.13385">
        <ele>1018.3</ele>
        <time>2023-08-19T11:12:26Z</time>
      </trkpt>
      <trkpt lat="40.15591" lon="-2.13401">
        <ele>1017.2</ele>
        <time>2023-08-19T11:12:29Z</time>
      </trkpt>
      <trkpt lat="40.15568" lon="-2.13426">
        <ele>1016.5</ele>
        <time>2023-08-19T11:12:33Z</time>
      </trkpt>
      <trkpt lat="40.15548" lon="-2.13453">
        <ele>1015.9</ele>
        <time>2023-08-19T11:12:37Z</time>
      </trkpt>
      <trkpt lat="40.15528" lon="-2.13481">
        <ele>1015.2</ele>
        <time>2023-08-19T11:12:41Z</time>
      </trkpt>
      <trkpt lat="40.15513" lon="-2.13503">
        <ele>1014.3</ele>
        <time>2023-08-19T11:12:44Z</time>
      </trkpt>
      <trkpt lat="40.15493" lon="-2.13531">
        <ele>1013.6</ele>
        <time>2023-08-19T11:12:48Z</time>
      </trkpt>
      <trkpt lat="40.15477" lon="-2.13552">
        <ele>1013</ele>
        <time>2023-08-19T11:12:51Z</time>
      </trkpt>
      <trkpt lat="40.15461" lon="-2.13571">
        <ele>1011.5</ele>
        <time>2023-08-19T11:12:54Z</time>
      </trkpt>
      <trkpt lat="40.15441" lon="-2.13596">
        <ele>1010.8</ele>
        <time>2023-08-19T11:12:58Z</time>
      </trkpt>
      <trkpt lat="40.15418" lon="-2.13618">
        <ele>1009.8</ele>
        <time>2023-08-19T11:13:02Z</time>
      </trkpt>
      <trkpt lat="40.154" lon="-2.13632">
        <ele>1009</ele>
        <time>2023-08-19T11:13:05Z</time>
      </trkpt>
      <trkpt lat="40.15375" lon="-2.1365">
        <ele>1007.1</ele>
        <time>2023-08-19T11:13:09Z</time>
      </trkpt>
      <trkpt lat="40.15348" lon="-2.13667">
        <ele>1006.4</ele>
        <time>2023-08-19T11:13:13Z</time>
      </trkpt>
      <trkpt lat="40.15328" lon="-2.13679">
        <ele>1005.4</ele>
        <time>2023-08-19T11:13:16Z</time>
      </trkpt>
      <trkpt lat="40.15308" lon="-2.13691">
        <ele>1004.1</ele>
        <time>2023-08-19T11:13:19Z</time>
      </trkpt>
      <trkpt lat="40.15288" lon="-2.13703">
        <ele>1002.3</ele>
        <time>2023-08-19T11:13:22Z</time>
      </trkpt>
      <trkpt lat="40.15262" lon="-2.13719">
        <ele>1001.9</ele>
        <time>2023-08-19T11:13:26Z</time>
      </trkpt>
      <trkpt lat="40.15235" lon="-2.13733">
        <ele>1000.9</ele>
        <time>2023-08-19T11:13:30Z</time>
      </trkpt>
      <trkpt lat="40.15215" lon="-2.13744">
        <ele>1000.3</ele>
        <time>2023-08-19T11:13:33Z</time>
      </trkpt>
      <trkpt lat="40.15185" lon="-2.13754">
        <ele>999.8</ele>
        <time>2023-08-19T11:13:37Z</time>
      </trkpt>
      <trkpt lat="40.15163" lon="-2.1376">
        <ele>999.2</ele>
        <time>2023-08-19T11:13:40Z</time>
      </trkpt>
      <trkpt lat="40.15136" lon="-2.13773">
        <ele>998.6</ele>
        <time>2023-08-19T11:13:44Z</time>
      </trkpt>
      <trkpt lat="40.15116" lon="-2.13782">
        <ele>998.6</ele>
        <time>2023-08-19T11:13:47Z</time>
      </trkpt>
      <trkpt lat="40.15088" lon="-2.13789">
        <ele>997.5</ele>
        <time>2023-08-19T11:13:51Z</time>
      </trkpt>
      <trkpt lat="40.15066" lon="-2.13791">
        <ele>995.8</ele>
        <time>2023-08-19T11:13:54Z</time>
      </trkpt>
      <trkpt lat="40.15036" lon="-2.13793">
        <ele>996.6</ele>
        <time>2023-08-19T11:13:58Z</time>
      </trkpt>
      <trkpt lat="40.15014" lon="-2.13792">
        <ele>995.9</ele>
        <time>2023-08-19T11:14:01Z</time>
      </trkpt>
      <trkpt lat="40.14993" lon="-2.13788">
        <ele>995.7</ele>
        <time>2023-08-19T11:14:04Z</time>
      </trkpt>
      <trkpt lat="40.14965" lon="-2.1378">
        <ele>994.9</ele>
        <time>2023-08-19T11:14:08Z</time>
      </trkpt>
      <trkpt lat="40.14938" lon="-2.13766">
        <ele>994.9</ele>
        <time>2023-08-19T11:14:12Z</time>
      </trkpt>
      <trkpt lat="40.14912" lon="-2.13749">
        <ele>994.6</ele>
        <time>2023-08-19T11:14:16Z</time>
      </trkpt>
      <trkpt lat="40.14892" lon="-2.13737">
        <ele>993.2</ele>
        <time>2023-08-19T11:14:19Z</time>
      </trkpt>
      <trkpt lat="40.14865" lon="-2.13719">
        <ele>992.5</ele>
        <time>2023-08-19T11:14:23Z</time>
      </trkpt>
      <trkpt lat="40.14839" lon="-2.13701">
        <ele>991.8</ele>
        <time>2023-08-19T11:14:27Z</time>
      </trkpt>
      <trkpt lat="40.14812" lon="-2.13684">
        <ele>991.3</ele>
        <time>2023-08-19T11:14:31Z</time>
      </trkpt>
      <trkpt lat="40.14787" lon="-2.13666">
        <ele>991.3</ele>
        <time>2023-08-19T11:14:35Z</time>
      </trkpt>
      <trkpt lat="40.14762" lon="-2.13649">
        <ele>990.5</ele>
        <time>2023-08-19T11:14:39Z</time>
      </trkpt>
      <trkpt lat="40.14744" lon="-2.13638">
        <ele>990.8</ele>
        <time>2023-08-19T11:14:42Z</time>
      </trkpt>
      <trkpt lat="40.14718" lon="-2.1362">
        <ele>990.4</ele>
        <time>2023-08-19T11:14:46Z</time>
      </trkpt>
      <trkpt lat="40.14691" lon="-2.13601">
        <ele>989</ele>
        <time>2023-08-19T11:14:50Z</time>
      </trkpt>
      <trkpt lat="40.14665" lon="-2.13585">
        <ele>989.9</ele>
        <time>2023-08-19T11:14:54Z</time>
      </trkpt>
      <trkpt lat="40.14639" lon="-2.13571">
        <ele>989.7</ele>
        <time>2023-08-19T11:14:58Z</time>
      </trkpt>
      <trkpt lat="40.14619" lon="-2.13563">
        <ele>988.3</ele>
        <time>2023-08-19T11:15:01Z</time>
      </trkpt>
      <trkpt lat="40.14597" lon="-2.1356">
        <ele>988.5</ele>
        <time>2023-08-19T11:15:04Z</time>
      </trkpt>
      <trkpt lat="40.14571" lon="-2.13563">
        <ele>989.5</ele>
        <time>2023-08-19T11:15:08Z</time>
      </trkpt>
      <trkpt lat="40.14544" lon="-2.1357">
        <ele>989.3</ele>
        <time>2023-08-19T11:15:12Z</time>
      </trkpt>
      <trkpt lat="40.14515" lon="-2.13585">
        <ele>988.8</ele>
        <time>2023-08-19T11:15:16Z</time>
      </trkpt>
      <trkpt lat="40.14488" lon="-2.13603">
        <ele>987.5</ele>
        <time>2023-08-19T11:15:20Z</time>
      </trkpt>
      <trkpt lat="40.14459" lon="-2.13621">
        <ele>988.2</ele>
        <time>2023-08-19T11:15:24Z</time>
      </trkpt>
      <trkpt lat="40.14439" lon="-2.13633">
        <ele>989.3</ele>
        <time>2023-08-19T11:15:27Z</time>
      </trkpt>
      <trkpt lat="40.14419" lon="-2.13646">
        <ele>988.6</ele>
        <time>2023-08-19T11:15:30Z</time>
      </trkpt>
      <trkpt lat="40.14391" lon="-2.13663">
        <ele>988</ele>
        <time>2023-08-19T11:15:34Z</time>
      </trkpt>
      <trkpt lat="40.14365" lon="-2.1368">
        <ele>988.8</ele>
        <time>2023-08-19T11:15:38Z</time>
      </trkpt>
      <trkpt lat="40.14341" lon="-2.13698">
        <ele>988.9</ele>
        <time>2023-08-19T11:15:42Z</time>
      </trkpt>
      <trkpt lat="40.1432" lon="-2.13721">
        <ele>987.2</ele>
        <time>2023-08-19T11:15:46Z</time>
      </trkpt>
      <trkpt lat="40.14305" lon="-2.13742">
        <ele>987.7</ele>
        <time>2023-08-19T11:15:49Z</time>
      </trkpt>
      <trkpt lat="40.14293" lon="-2.13765">
        <ele>988</ele>
        <time>2023-08-19T11:15:52Z</time>
      </trkpt>
      <trkpt lat="40.14281" lon="-2.13799">
        <ele>987.8</ele>
        <time>2023-08-19T11:15:56Z</time>
      </trkpt>
      <trkpt lat="40.14272" lon="-2.13835">
        <ele>989.8</ele>
        <time>2023-08-19T11:16:00Z</time>
      </trkpt>
      <trkpt lat="40.14265" lon="-2.13873">
        <ele>989.2</ele>
        <time>2023-08-19T11:16:04Z</time>
      </trkpt>
      <trkpt lat="40.14258" lon="-2.139">
        <ele>988.1</ele>
        <time>2023-08-19T11:16:07Z</time>
      </trkpt>
      <trkpt lat="40.14246" lon="-2.13932">
        <ele>987.9</ele>
        <time>2023-08-19T11:16:11Z</time>
      </trkpt>
      <trkpt lat="40.14233" lon="-2.13961">
        <ele>987.8</ele>
        <time>2023-08-19T11:16:15Z</time>
      </trkpt>
      <trkpt lat="40.1422" lon="-2.13983">
        <ele>988.3</ele>
        <time>2023-08-19T11:16:18Z</time>
      </trkpt>
      <trkpt lat="40.14203" lon="-2.14015">
        <ele>988.4</ele>
        <time>2023-08-19T11:16:22Z</time>
      </trkpt>
      <trkpt lat="40.14186" lon="-2.14047">
        <ele>988.6</ele>
        <time>2023-08-19T11:16:26Z</time>
      </trkpt>
      <trkpt lat="40.14168" lon="-2.14079">
        <ele>988.6</ele>
        <time>2023-08-19T11:16:30Z</time>
      </trkpt>
      <trkpt lat="40.14151" lon="-2.14113">
        <ele>989.8</ele>
        <time>2023-08-19T11:16:34Z</time>
      </trkpt>
      <trkpt lat="40.14135" lon="-2.14147">
        <ele>989.1</ele>
        <time>2023-08-19T11:16:38Z</time>
      </trkpt>
      <trkpt lat="40.1412" lon="-2.14179">
        <ele>988.5</ele>
        <time>2023-08-19T11:16:42Z</time>
      </trkpt>
      <trkpt lat="40.14109" lon="-2.14203">
        <ele>987.1</ele>
        <time>2023-08-19T11:16:45Z</time>
      </trkpt>
      <trkpt lat="40.14098" lon="-2.14229">
        <ele>987.2</ele>
        <time>2023-08-19T11:16:48Z</time>
      </trkpt>
      <trkpt lat="40.14086" lon="-2.14254">
        <ele>988</ele>
        <time>2023-08-19T11:16:51Z</time>
      </trkpt>
      <trkpt lat="40.14072" lon="-2.14287">
        <ele>988.4</ele>
        <time>2023-08-19T11:16:55Z</time>
      </trkpt>
      <trkpt lat="40.14059" lon="-2.14323">
        <ele>988.2</ele>
        <time>2023-08-19T11:16:59Z</time>
      </trkpt>
      <trkpt lat="40.14045" lon="-2.14356">
        <ele>987.5</ele>
        <time>2023-08-19T11:17:03Z</time>
      </trkpt>
      <trkpt lat="40.14036" lon="-2.14379">
        <ele>987</ele>
        <time>2023-08-19T11:17:06Z</time>
      </trkpt>
      <trkpt lat="40.14023" lon="-2.14411">
        <ele>986.3</ele>
        <time>2023-08-19T11:17:10Z</time>
      </trkpt>
      <trkpt lat="40.14012" lon="-2.14436">
        <ele>987.2</ele>
        <time>2023-08-19T11:17:13Z</time>
      </trkpt>
      <trkpt lat="40.13998" lon="-2.14469">
        <ele>987.5</ele>
        <time>2023-08-19T11:17:17Z</time>
      </trkpt>
      <trkpt lat="40.13987" lon="-2.14493">
        <ele>987.3</ele>
        <time>2023-08-19T11:17:20Z</time>
      </trkpt>
      <trkpt lat="40.13978" lon="-2.14517">
        <ele>988.9</ele>
        <time>2023-08-19T11:17:23Z</time>
      </trkpt>
      <trkpt lat="40.13965" lon="-2.1455">
        <ele>989.7</ele>
        <time>2023-08-19T11:17:27Z</time>
      </trkpt>
      <trkpt lat="40.13951" lon="-2.14584">
        <ele>991.1</ele>
        <time>2023-08-19T11:17:31Z</time>
      </trkpt>
      <trkpt lat="40.13937" lon="-2.14618">
        <ele>992.4</ele>
        <time>2023-08-19T11:17:35Z</time>
      </trkpt>
      <trkpt lat="40.13926" lon="-2.14642">
        <ele>993</ele>
        <time>2023-08-19T11:17:38Z</time>
      </trkpt>
      <trkpt lat="40.13915" lon="-2.14666">
        <ele>992.9</ele>
        <time>2023-08-19T11:17:41Z</time>
      </trkpt>
      <trkpt lat="40.139" lon="-2.14699">
        <ele>995.7</ele>
        <time>2023-08-19T11:17:45Z</time>
      </trkpt>
      <trkpt lat="40.13888" lon="-2.14724">
        <ele>997</ele>
        <time>2023-08-19T11:17:48Z</time>
      </trkpt>
      <trkpt lat="40.13873" lon="-2.14757">
        <ele>998.6</ele>
        <time>2023-08-19T11:17:52Z</time>
      </trkpt>
      <trkpt lat="40.13858" lon="-2.14791">
        <ele>1000.1</ele>
        <time>2023-08-19T11:17:56Z</time>
      </trkpt>
      <trkpt lat="40.13846" lon="-2.14815">
        <ele>1001.1</ele>
        <time>2023-08-19T11:17:59Z</time>
      </trkpt>
      <trkpt lat="40.13828" lon="-2.1485">
        <ele>1002.5</ele>
        <time>2023-08-19T11:18:03Z</time>
      </trkpt>
      <trkpt lat="40.13815" lon="-2.14875">
        <ele>1003.1</ele>
        <time>2023-08-19T11:18:06Z</time>
      </trkpt>
      <trkpt lat="40.13801" lon="-2.14904">
        <ele>1003.5</ele>
        <time>2023-08-19T11:18:10Z</time>
      </trkpt>
      <trkpt lat="40.13786" lon="-2.14934">
        <ele>1005.3</ele>
        <time>2023-08-19T11:18:14Z</time>
      </trkpt>
      <trkpt lat="40.13773" lon="-2.14956">
        <ele>1006.2</ele>
        <time>2023-08-19T11:18:17Z</time>
      </trkpt>
      <trkpt lat="40.13757" lon="-2.14988">
        <ele>1007.9</ele>
        <time>2023-08-19T11:18:21Z</time>
      </trkpt>
      <trkpt lat="40.13745" lon="-2.15009">
        <ele>1008.3</ele>
        <time>2023-08-19T11:18:24Z</time>
      </trkpt>
      <trkpt lat="40.1373" lon="-2.15036">
        <ele>1009.2</ele>
        <time>2023-08-19T11:18:28Z</time>
      </trkpt>
      <trkpt lat="40.13715" lon="-2.15059">
        <ele>1010.6</ele>
        <time>2023-08-19T11:18:31Z</time>
      </trkpt>
      <trkpt lat="40.137" lon="-2.15082">
        <ele>1010.2</ele>
        <time>2023-08-19T11:18:34Z</time>
      </trkpt>
      <trkpt lat="40.1368" lon="-2.1511">
        <ele>1009.1</ele>
        <time>2023-08-19T11:18:38Z</time>
      </trkpt>
      <trkpt lat="40.13665" lon="-2.1513">
        <ele>1010.4</ele>
        <time>2023-08-19T11:18:41Z</time>
      </trkpt>
      <trkpt lat="40.1365" lon="-2.15149">
        <ele>1011.6</ele>
        <time>2023-08-19T11:18:44Z</time>
      </trkpt>
      <trkpt lat="40.13628" lon="-2.15176">
        <ele>1010.8</ele>
        <time>2023-08-19T11:18:48Z</time>
      </trkpt>
      <trkpt lat="40.13611" lon="-2.15195">
        <ele>1012.5</ele>
        <time>2023-08-19T11:18:51Z</time>
      </trkpt>
      <trkpt lat="40.13593" lon="-2.15213">
        <ele>1013.1</ele>
        <time>2023-08-19T11:18:54Z</time>
      </trkpt>
      <trkpt lat="40.13576" lon="-2.1523">
        <ele>1012.4</ele>
        <time>2023-08-19T11:18:57Z</time>
      </trkpt>
      <trkpt lat="40.13559" lon="-2.15247">
        <ele>1013.2</ele>
        <time>2023-08-19T11:19:00Z</time>
      </trkpt>
      <trkpt lat="40.13535" lon="-2.15268">
        <ele>1012.8</ele>
        <time>2023-08-19T11:19:04Z</time>
      </trkpt>
      <trkpt lat="40.13516" lon="-2.15283">
        <ele>1012.9</ele>
        <time>2023-08-19T11:19:07Z</time>
      </trkpt>
      <trkpt lat="40.13498" lon="-2.15299">
        <ele>1013.4</ele>
        <time>2023-08-19T11:19:10Z</time>
      </trkpt>
      <trkpt lat="40.13474" lon="-2.15321">
        <ele>1012.8</ele>
        <time>2023-08-19T11:19:14Z</time>
      </trkpt>
      <trkpt lat="40.1345" lon="-2.15342">
        <ele>1012.3</ele>
        <time>2023-08-19T11:19:18Z</time>
      </trkpt>
      <trkpt lat="40.13432" lon="-2.15357">
        <ele>1013.1</ele>
        <time>2023-08-19T11:19:21Z</time>
      </trkpt>
      <trkpt lat="40.13414" lon="-2.15373">
        <ele>1011.5</ele>
        <time>2023-08-19T11:19:24Z</time>
      </trkpt>
      <trkpt lat="40.13395" lon="-2.15388">
        <ele>1011.4</ele>
        <time>2023-08-19T11:19:27Z</time>
      </trkpt>
      <trkpt lat="40.13369" lon="-2.15407">
        <ele>1012.2</ele>
        <time>2023-08-19T11:19:31Z</time>
      </trkpt>
      <trkpt lat="40.13343" lon="-2.15427">
        <ele>1011</ele>
        <time>2023-08-19T11:19:35Z</time>
      </trkpt>
      <trkpt lat="40.13318" lon="-2.15448">
        <ele>1012.1</ele>
        <time>2023-08-19T11:19:39Z</time>
      </trkpt>
      <trkpt lat="40.13293" lon="-2.15467">
        <ele>1011.8</ele>
        <time>2023-08-19T11:19:43Z</time>
      </trkpt>
      <trkpt lat="40.13269" lon="-2.15486">
        <ele>1011.6</ele>
        <time>2023-08-19T11:19:47Z</time>
      </trkpt>
      <trkpt lat="40.13244" lon="-2.15506">
        <ele>1010.9</ele>
        <time>2023-08-19T11:19:51Z</time>
      </trkpt>
      <trkpt lat="40.13219" lon="-2.15525">
        <ele>1011.5</ele>
        <time>2023-08-19T11:19:55Z</time>
      </trkpt>
      <trkpt lat="40.13194" lon="-2.15544">
        <ele>1012.4</ele>
        <time>2023-08-19T11:19:59Z</time>
      </trkpt>
      <trkpt lat="40.1317" lon="-2.15564">
        <ele>1011.6</ele>
        <time>2023-08-19T11:20:03Z</time>
      </trkpt>
      <trkpt lat="40.13151" lon="-2.1558">
        <ele>1011</ele>
        <time>2023-08-19T11:20:06Z</time>
      </trkpt>
      <trkpt lat="40.13127" lon="-2.15599">
        <ele>1012.6</ele>
        <time>2023-08-19T11:20:10Z</time>
      </trkpt>
      <trkpt lat="40.13102" lon="-2.15618">
        <ele>1012.2</ele>
        <time>2023-08-19T11:20:14Z</time>
      </trkpt>
      <trkpt lat="40.13084" lon="-2.15632">
        <ele>1011.5</ele>
        <time>2023-08-19T11:20:17Z</time>
      </trkpt>
      <trkpt lat="40.13066" lon="-2.15647">
        <ele>1010.9</ele>
        <time>2023-08-19T11:20:20Z</time>
      </trkpt>
      <trkpt lat="40.13048" lon="-2.15661">
        <ele>1012.8</ele>
        <time>2023-08-19T11:20:23Z</time>
      </trkpt>
      <trkpt lat="40.13025" lon="-2.1568">
        <ele>1013.4</ele>
        <time>2023-08-19T11:20:27Z</time>
      </trkpt>
      <trkpt lat="40.13001" lon="-2.15702">
        <ele>1012.7</ele>
        <time>2023-08-19T11:20:31Z</time>
      </trkpt>
      <trkpt lat="40.12975" lon="-2.15722">
        <ele>1014.3</ele>
        <time>2023-08-19T11:20:35Z</time>
      </trkpt>
      <trkpt lat="40.1295" lon="-2.15741">
        <ele>1016.3</ele>
        <time>2023-08-19T11:20:39Z</time>
      </trkpt>
      <trkpt lat="40.12924" lon="-2.15761">
        <ele>1014.3</ele>
        <time>2023-08-19T11:20:43Z</time>
      </trkpt>
      <trkpt lat="40.12899" lon="-2.15781">
        <ele>1014.5</ele>
        <time>2023-08-19T11:20:47Z</time>
      </trkpt>
      <trkpt lat="40.12881" lon="-2.15795">
        <ele>1015.8</ele>
        <time>2023-08-19T11:20:50Z</time>
      </trkpt>
      <trkpt lat="40.12858" lon="-2.15815">
        <ele>1016.6</ele>
        <time>2023-08-19T11:20:54Z</time>
      </trkpt>
      <trkpt lat="40.12832" lon="-2.15835">
        <ele>1018.6</ele>
        <time>2023-08-19T11:20:58Z</time>
      </trkpt>
      <trkpt lat="40.12807" lon="-2.15855">
        <ele>1018.3</ele>
        <time>2023-08-19T11:21:02Z</time>
      </trkpt>
      <trkpt lat="40.12787" lon="-2.1587">
        <ele>1020.8</ele>
        <time>2023-08-19T11:21:05Z</time>
      </trkpt>
      <trkpt lat="40.12768" lon="-2.15883">
        <ele>1021.5</ele>
        <time>2023-08-19T11:21:08Z</time>
      </trkpt>
      <trkpt lat="40.12742" lon="-2.15902">
        <ele>1021.3</ele>
        <time>2023-08-19T11:21:12Z</time>
      </trkpt>
      <trkpt lat="40.12722" lon="-2.15915">
        <ele>1021.7</ele>
        <time>2023-08-19T11:21:15Z</time>
      </trkpt>
      <trkpt lat="40.12696" lon="-2.15932">
        <ele>1022.6</ele>
        <time>2023-08-19T11:21:19Z</time>
      </trkpt>
      <trkpt lat="40.12668" lon="-2.15947">
        <ele>1023.1</ele>
        <time>2023-08-19T11:21:23Z</time>
      </trkpt>
      <trkpt lat="40.12649" lon="-2.15958">
        <ele>1024.7</ele>
        <time>2023-08-19T11:21:26Z</time>
      </trkpt>
      <trkpt lat="40.12621" lon="-2.15971">
        <ele>1025.2</ele>
        <time>2023-08-19T11:21:30Z</time>
      </trkpt>
      <trkpt lat="40.12593" lon="-2.15981">
        <ele>1026.3</ele>
        <time>2023-08-19T11:21:34Z</time>
      </trkpt>
      <trkpt lat="40.12564" lon="-2.15989">
        <ele>1028.9</ele>
        <time>2023-08-19T11:21:38Z</time>
      </trkpt>
      <trkpt lat="40.12535" lon="-2.15998">
        <ele>1028.6</ele>
        <time>2023-08-19T11:21:42Z</time>
      </trkpt>
      <trkpt lat="40.12515" lon="-2.16006">
        <ele>1030.5</ele>
        <time>2023-08-19T11:21:45Z</time>
      </trkpt>
      <trkpt lat="40.12486" lon="-2.16016">
        <ele>1029.6</ele>
        <time>2023-08-19T11:21:49Z</time>
      </trkpt>
      <trkpt lat="40.12465" lon="-2.16023">
        <ele>1031.7</ele>
        <time>2023-08-19T11:21:52Z</time>
      </trkpt>
      <trkpt lat="40.12436" lon="-2.16033">
        <ele>1033.2</ele>
        <time>2023-08-19T11:21:56Z</time>
      </trkpt>
      <trkpt lat="40.12414" lon="-2.16042">
        <ele>1033.8</ele>
        <time>2023-08-19T11:21:59Z</time>
      </trkpt>
      <trkpt lat="40.12392" lon="-2.16053">
        <ele>1034.6</ele>
        <time>2023-08-19T11:22:02Z</time>
      </trkpt>
      <trkpt lat="40.12366" lon="-2.16065">
        <ele>1035.9</ele>
        <time>2023-08-19T11:22:06Z</time>
      </trkpt>
      <trkpt lat="40.12341" lon="-2.16077">
        <ele>1038.9</ele>
        <time>2023-08-19T11:22:10Z</time>
      </trkpt>
      <trkpt lat="40.12323" lon="-2.16086">
        <ele>1040.8</ele>
        <time>2023-08-19T11:22:13Z</time>
      </trkpt>
      <trkpt lat="40.12304" lon="-2.16098">
        <ele>1041.6</ele>
        <time>2023-08-19T11:22:16Z</time>
      </trkpt>
      <trkpt lat="40.12278" lon="-2.16115">
        <ele>1043.9</ele>
        <time>2023-08-19T11:22:20Z</time>
      </trkpt>
      <trkpt lat="40.12253" lon="-2.16135">
        <ele>1046.1</ele>
        <time>2023-08-19T11:22:24Z</time>
      </trkpt>
      <trkpt lat="40.12229" lon="-2.16154">
        <ele>1046.4</ele>
        <time>2023-08-19T11:22:28Z</time>
      </trkpt>
      <trkpt lat="40.12206" lon="-2.16175">
        <ele>1048.7</ele>
        <time>2023-08-19T11:22:32Z</time>
      </trkpt>
      <trkpt lat="40.12183" lon="-2.16195">
        <ele>1049.9</ele>
        <time>2023-08-19T11:22:36Z</time>
      </trkpt>
      <trkpt lat="40.1216" lon="-2.16217">
        <ele>1049.9</ele>
        <time>2023-08-19T11:22:40Z</time>
      </trkpt>
      <trkpt lat="40.12137" lon="-2.16241">
        <ele>1051.6</ele>
        <time>2023-08-19T11:22:44Z</time>
      </trkpt>
      <trkpt lat="40.12115" lon="-2.16266">
        <ele>1055</ele>
        <time>2023-08-19T11:22:48Z</time>
      </trkpt>
      <trkpt lat="40.12093" lon="-2.16292">
        <ele>1056.4</ele>
        <time>2023-08-19T11:22:52Z</time>
      </trkpt>
      <trkpt lat="40.12071" lon="-2.16318">
        <ele>1058.6</ele>
        <time>2023-08-19T11:22:56Z</time>
      </trkpt>
      <trkpt lat="40.1205" lon="-2.16344">
        <ele>1060.5</ele>
        <time>2023-08-19T11:23:00Z</time>
      </trkpt>
      <trkpt lat="40.12034" lon="-2.16364">
        <ele>1061.2</ele>
        <time>2023-08-19T11:23:03Z</time>
      </trkpt>
      <trkpt lat="40.12018" lon="-2.16384">
        <ele>1062</ele>
        <time>2023-08-19T11:23:06Z</time>
      </trkpt>
      <trkpt lat="40.11997" lon="-2.16411">
        <ele>1063.1</ele>
        <time>2023-08-19T11:23:10Z</time>
      </trkpt>
      <trkpt lat="40.11982" lon="-2.16431">
        <ele>1064.5</ele>
        <time>2023-08-19T11:23:13Z</time>
      </trkpt>
      <trkpt lat="40.1196" lon="-2.16457">
        <ele>1067.5</ele>
        <time>2023-08-19T11:23:17Z</time>
      </trkpt>
      <trkpt lat="40.11945" lon="-2.16477">
        <ele>1068.8</ele>
        <time>2023-08-19T11:23:20Z</time>
      </trkpt>
      <trkpt lat="40.11929" lon="-2.16496">
        <ele>1069.5</ele>
        <time>2023-08-19T11:23:23Z</time>
      </trkpt>
      <trkpt lat="40.11913" lon="-2.16518">
        <ele>1070.6</ele>
        <time>2023-08-19T11:23:26Z</time>
      </trkpt>
      <trkpt lat="40.11891" lon="-2.16548">
        <ele>1072.2</ele>
        <time>2023-08-19T11:23:30Z</time>
      </trkpt>
      <trkpt lat="40.11871" lon="-2.16573">
        <ele>1072.5</ele>
        <time>2023-08-19T11:23:34Z</time>
      </trkpt>
      <trkpt lat="40.11848" lon="-2.16599">
        <ele>1075.4</ele>
        <time>2023-08-19T11:23:38Z</time>
      </trkpt>
      <trkpt lat="40.11828" lon="-2.16621">
        <ele>1075.2</ele>
        <time>2023-08-19T11:23:42Z</time>
      </trkpt>
      <trkpt lat="40.11807" lon="-2.16645">
        <ele>1078.2</ele>
        <time>2023-08-19T11:23:46Z</time>
      </trkpt>
      <trkpt lat="40.11787" lon="-2.1667">
        <ele>1081</ele>
        <time>2023-08-19T11:23:50Z</time>
      </trkpt>
      <trkpt lat="40.11767" lon="-2.16696">
        <ele>1083.3</ele>
        <time>2023-08-19T11:23:54Z</time>
      </trkpt>
      <trkpt lat="40.11747" lon="-2.16723">
        <ele>1084.6</ele>
        <time>2023-08-19T11:23:58Z</time>
      </trkpt>
      <trkpt lat="40.11731" lon="-2.16742">
        <ele>1086.9</ele>
        <time>2023-08-19T11:24:01Z</time>
      </trkpt>
      <trkpt lat="40.1171" lon="-2.16768">
        <ele>1087.5</ele>
        <time>2023-08-19T11:24:05Z</time>
      </trkpt>
      <trkpt lat="40.11695" lon="-2.16789">
        <ele>1089</ele>
        <time>2023-08-19T11:24:08Z</time>
      </trkpt>
      <trkpt lat="40.11681" lon="-2.16806">
        <ele>1089.8</ele>
        <time>2023-08-19T11:24:11Z</time>
      </trkpt>
      <trkpt lat="40.11664" lon="-2.16826">
        <ele>1091.1</ele>
        <time>2023-08-19T11:24:14Z</time>
      </trkpt>
      <trkpt lat="40.11643" lon="-2.16851">
        <ele>1093.2</ele>
        <time>2023-08-19T11:24:18Z</time>
      </trkpt>
      <trkpt lat="40.11626" lon="-2.16871">
        <ele>1094.3</ele>
        <time>2023-08-19T11:24:21Z</time>
      </trkpt>
      <trkpt lat="40.11604" lon="-2.16897">
        <ele>1095.8</ele>
        <time>2023-08-19T11:24:25Z</time>
      </trkpt>
      <trkpt lat="40.11588" lon="-2.16916">
        <ele>1097.3</ele>
        <time>2023-08-19T11:24:28Z</time>
      </trkpt>
      <trkpt lat="40.11571" lon="-2.16935">
        <ele>1098.8</ele>
        <time>2023-08-19T11:24:31Z</time>
      </trkpt>
      <trkpt lat="40.11555" lon="-2.16956">
        <ele>1099.7</ele>
        <time>2023-08-19T11:24:34Z</time>
      </trkpt>
      <trkpt lat="40.11533" lon="-2.16982">
        <ele>1100.7</ele>
        <time>2023-08-19T11:24:38Z</time>
      </trkpt>
      <trkpt lat="40.11512" lon="-2.17008">
        <ele>1101.6</ele>
        <time>2023-08-19T11:24:42Z</time>
      </trkpt>
      <trkpt lat="40.11492" lon="-2.17034">
        <ele>1102.8</ele>
        <time>2023-08-19T11:24:46Z</time>
      </trkpt>
      <trkpt lat="40.11472" lon="-2.17059">
        <ele>1103</ele>
        <time>2023-08-19T11:24:50Z</time>
      </trkpt>
      <trkpt lat="40.11452" lon="-2.17085">
        <ele>1103.7</ele>
        <time>2023-08-19T11:24:54Z</time>
      </trkpt>
      <trkpt lat="40.11431" lon="-2.17113">
        <ele>1103.9</ele>
        <time>2023-08-19T11:24:58Z</time>
      </trkpt>
      <trkpt lat="40.11409" lon="-2.17139">
        <ele>1104.3</ele>
        <time>2023-08-19T11:25:02Z</time>
      </trkpt>
      <trkpt lat="40.11388" lon="-2.17166">
        <ele>1104.2</ele>
        <time>2023-08-19T11:25:06Z</time>
      </trkpt>
      <trkpt lat="40.11373" lon="-2.17185">
        <ele>1102.9</ele>
        <time>2023-08-19T11:25:09Z</time>
      </trkpt>
      <trkpt lat="40.11351" lon="-2.17211">
        <ele>1102.6</ele>
        <time>2023-08-19T11:25:13Z</time>
      </trkpt>
      <trkpt lat="40.1133" lon="-2.17238">
        <ele>1102.4</ele>
        <time>2023-08-19T11:25:17Z</time>
      </trkpt>
      <trkpt lat="40.11314" lon="-2.17258">
        <ele>1101.6</ele>
        <time>2023-08-19T11:25:20Z</time>
      </trkpt>
      <trkpt lat="40.11298" lon="-2.17277">
        <ele>1100</ele>
        <time>2023-08-19T11:25:23Z</time>
      </trkpt>
      <trkpt lat="40.11276" lon="-2.17303">
        <ele>1098.5</ele>
        <time>2023-08-19T11:25:27Z</time>
      </trkpt>
      <trkpt lat="40.11257" lon="-2.17327">
        <ele>1096.8</ele>
        <time>2023-08-19T11:25:31Z</time>
      </trkpt>
      <trkpt lat="40.1124" lon="-2.17344">
        <ele>1095.6</ele>
        <time>2023-08-19T11:25:34Z</time>
      </trkpt>
      <trkpt lat="40.11216" lon="-2.17368">
        <ele>1093.3</ele>
        <time>2023-08-19T11:25:38Z</time>
      </trkpt>
      <trkpt lat="40.11197" lon="-2.17386">
        <ele>1091.7</ele>
        <time>2023-08-19T11:25:41Z</time>
      </trkpt>
      <trkpt lat="40.11172" lon="-2.17406">
        <ele>1090.6</ele>
        <time>2023-08-19T11:25:45Z</time>
      </trkpt>
      <trkpt lat="40.11146" lon="-2.17425">
        <ele>1088.9</ele>
        <time>2023-08-19T11:25:49Z</time>
      </trkpt>
      <trkpt lat="40.11127" lon="-2.17438">
        <ele>1088.1</ele>
        <time>2023-08-19T11:25:52Z</time>
      </trkpt>
      <trkpt lat="40.11099" lon="-2.17452">
        <ele>1086.7</ele>
        <time>2023-08-19T11:25:56Z</time>
      </trkpt>
      <trkpt lat="40.1107" lon="-2.17462">
        <ele>1084.8</ele>
        <time>2023-08-19T11:26:00Z</time>
      </trkpt>
      <trkpt lat="40.11042" lon="-2.1747">
        <ele>1082.5</ele>
        <time>2023-08-19T11:26:04Z</time>
      </trkpt>
      <trkpt lat="40.11013" lon="-2.17475">
        <ele>1080.8</ele>
        <time>2023-08-19T11:26:08Z</time>
      </trkpt>
      <trkpt lat="40.10991" lon="-2.17476">
        <ele>1079.6</ele>
        <time>2023-08-19T11:26:11Z</time>
      </trkpt>
      <trkpt lat="40.10962" lon="-2.17475">
        <ele>1078.4</ele>
        <time>2023-08-19T11:26:15Z</time>
      </trkpt>
      <trkpt lat="40.10932" lon="-2.17472">
        <ele>1076.5</ele>
        <time>2023-08-19T11:26:19Z</time>
      </trkpt>
      <trkpt lat="40.1091" lon="-2.17468">
        <ele>1075.5</ele>
        <time>2023-08-19T11:26:22Z</time>
      </trkpt>
      <trkpt lat="40.10882" lon="-2.17459">
        <ele>1074.3</ele>
        <time>2023-08-19T11:26:26Z</time>
      </trkpt>
      <trkpt lat="40.10854" lon="-2.17447">
        <ele>1073.2</ele>
        <time>2023-08-19T11:26:30Z</time>
      </trkpt>
      <trkpt lat="40.10828" lon="-2.17431">
        <ele>1070.6</ele>
        <time>2023-08-19T11:26:34Z</time>
      </trkpt>
      <trkpt lat="40.10809" lon="-2.17417">
        <ele>1069.1</ele>
        <time>2023-08-19T11:26:37Z</time>
      </trkpt>
      <trkpt lat="40.1079" lon="-2.17402">
        <ele>1068.1</ele>
        <time>2023-08-19T11:26:40Z</time>
      </trkpt>
      <trkpt lat="40.10765" lon="-2.17382">
        <ele>1067.1</ele>
        <time>2023-08-19T11:26:44Z</time>
      </trkpt>
      <trkpt lat="40.10741" lon="-2.1736">
        <ele>1066.1</ele>
        <time>2023-08-19T11:26:48Z</time>
      </trkpt>
      <trkpt lat="40.10719" lon="-2.17336">
        <ele>1065.3</ele>
        <time>2023-08-19T11:26:52Z</time>
      </trkpt>
      <trkpt lat="40.10703" lon="-2.17316">
        <ele>1063.9</ele>
        <time>2023-08-19T11:26:55Z</time>
      </trkpt>
      <trkpt lat="40.10682" lon="-2.17291">
        <ele>1064</ele>
        <time>2023-08-19T11:26:59Z</time>
      </trkpt>
      <trkpt lat="40.10666" lon="-2.17271">
        <ele>1063.3</ele>
        <time>2023-08-19T11:27:02Z</time>
      </trkpt>
      <trkpt lat="40.10646" lon="-2.17244">
        <ele>1062.8</ele>
        <time>2023-08-19T11:27:06Z</time>
      </trkpt>
      <trkpt lat="40.10631" lon="-2.17224">
        <ele>1062.4</ele>
        <time>2023-08-19T11:27:09Z</time>
      </trkpt>
      <trkpt lat="40.10611" lon="-2.17198">
        <ele>1062.5</ele>
        <time>2023-08-19T11:27:13Z</time>
      </trkpt>
      <trkpt lat="40.10594" lon="-2.17178">
        <ele>1062.5</ele>
        <time>2023-08-19T11:27:16Z</time>
      </trkpt>
      <trkpt lat="40.10573" lon="-2.17152">
        <ele>1062.4</ele>
        <time>2023-08-19T11:27:20Z</time>
      </trkpt>
      <trkpt lat="40.10552" lon="-2.17126">
        <ele>1061.6</ele>
        <time>2023-08-19T11:27:24Z</time>
      </trkpt>
      <trkpt lat="40.10531" lon="-2.17098">
        <ele>1062.3</ele>
        <time>2023-08-19T11:27:28Z</time>
      </trkpt>
      <trkpt lat="40.10515" lon="-2.17079">
        <ele>1061.4</ele>
        <time>2023-08-19T11:27:31Z</time>
      </trkpt>
      <trkpt lat="40.10495" lon="-2.17053">
        <ele>1060.3</ele>
        <time>2023-08-19T11:27:35Z</time>
      </trkpt>
      <trkpt lat="40.10481" lon="-2.17032">
        <ele>1060.7</ele>
        <time>2023-08-19T11:27:38Z</time>
      </trkpt>
      <trkpt lat="40.10465" lon="-2.17012">
        <ele>1061.7</ele>
        <time>2023-08-19T11:27:41Z</time>
      </trkpt>
      <trkpt lat="40.10444" lon="-2.16985">
        <ele>1060.9</ele>
        <time>2023-08-19T11:27:45Z</time>
      </trkpt>
      <trkpt lat="40.10423" lon="-2.16958">
        <ele>1060.8</ele>
        <time>2023-08-19T11:27:49Z</time>
      </trkpt>
      <trkpt lat="40.10403" lon="-2.16931">
        <ele>1059.6</ele>
        <time>2023-08-19T11:27:53Z</time>
      </trkpt>
      <trkpt lat="40.1038" lon="-2.16905">
        <ele>1060.3</ele>
        <time>2023-08-19T11:27:57Z</time>
      </trkpt>
      <trkpt lat="40.10359" lon="-2.16878">
        <ele>1060.2</ele>
        <time>2023-08-19T11:28:01Z</time>
      </trkpt>
      <trkpt lat="40.10342" lon="-2.1686">
        <ele>1059.7</ele>
        <time>2023-08-19T11:28:04Z</time>
      </trkpt>
      <trkpt lat="40.10321" lon="-2.16837">
        <ele>1059.8</ele>
        <time>2023-08-19T11:28:08Z</time>
      </trkpt>
      <trkpt lat="40.10306" lon="-2.16819">
        <ele>1060.5</ele>
        <time>2023-08-19T11:28:11Z</time>
      </trkpt>
      <trkpt lat="40.10289" lon="-2.168">
        <ele>1060.7</ele>
        <time>2023-08-19T11:28:14Z</time>
      </trkpt>
      <trkpt lat="40.10266" lon="-2.16776">
        <ele>1060.8</ele>
        <time>2023-08-19T11:28:18Z</time>
      </trkpt>
      <trkpt lat="40.10249" lon="-2.16758">
        <ele>1060.9</ele>
        <time>2023-08-19T11:28:21Z</time>
      </trkpt>
      <trkpt lat="40.10226" lon="-2.16734">
        <ele>1060.5</ele>
        <time>2023-08-19T11:28:25Z</time>
      </trkpt>
      <trkpt lat="40.10204" lon="-2.1671">
        <ele>1060</ele>
        <time>2023-08-19T11:28:29Z</time>
      </trkpt>
      <trkpt lat="40.10181" lon="-2.16687">
        <ele>1059.2</ele>
        <time>2023-08-19T11:28:33Z</time>
      </trkpt>
      <trkpt lat="40.10157" lon="-2.16665">
        <ele>1059.5</ele>
        <time>2023-08-19T11:28:37Z</time>
      </trkpt>
      <trkpt lat="40.10133" lon="-2.16642">
        <ele>1059.2</ele>
        <time>2023-08-19T11:28:41Z</time>
      </trkpt>
      <trkpt lat="40.10116" lon="-2.16625">
        <ele>1058.1</ele>
        <time>2023-08-19T11:28:44Z</time>
      </trkpt>
      <trkpt lat="40.10097" lon="-2.16609">
        <ele>1058</ele>
        <time>2023-08-19T11:28:47Z</time>
      </trkpt>
      <trkpt lat="40.10073" lon="-2.16588">
        <ele>1054.5</ele>
        <time>2023-08-19T11:28:51Z</time>
      </trkpt>
      <trkpt lat="40.10049" lon="-2.16567">
        <ele>1053.9</ele>
        <time>2023-08-19T11:28:55Z</time>
      </trkpt>
      <trkpt lat="40.1003" lon="-2.16552">
        <ele>1052.9</ele>
        <time>2023-08-19T11:28:58Z</time>
      </trkpt>
      <trkpt lat="40.10011" lon="-2.16536">
        <ele>1052.9</ele>
        <time>2023-08-19T11:29:01Z</time>
      </trkpt>
      <trkpt lat="40.09986" lon="-2.16516">
        <ele>1052.2</ele>
        <time>2023-08-19T11:29:05Z</time>
      </trkpt>
      <trkpt lat="40.09961" lon="-2.16496">
        <ele>1051.7</ele>
        <time>2023-08-19T11:29:09Z</time>
      </trkpt>
      <trkpt lat="40.09942" lon="-2.16481">
        <ele>1050.4</ele>
        <time>2023-08-19T11:29:12Z</time>
      </trkpt>
      <trkpt lat="40.09923" lon="-2.16467">
        <ele>1049.2</ele>
        <time>2023-08-19T11:29:15Z</time>
      </trkpt>
      <trkpt lat="40.09905" lon="-2.16453">
        <ele>1048</ele>
        <time>2023-08-19T11:29:18Z</time>
      </trkpt>
      <trkpt lat="40.0988" lon="-2.16434">
        <ele>1046.9</ele>
        <time>2023-08-19T11:29:22Z</time>
      </trkpt>
      <trkpt lat="40.09854" lon="-2.16415">
        <ele>1044.9</ele>
        <time>2023-08-19T11:29:26Z</time>
      </trkpt>
      <trkpt lat="40.09829" lon="-2.16395">
        <ele>1043.2</ele>
        <time>2023-08-19T11:29:30Z</time>
      </trkpt>
      <trkpt lat="40.09803" lon="-2.16375">
        <ele>1040.4</ele>
        <time>2023-08-19T11:29:34Z</time>
      </trkpt>
      <trkpt lat="40.09777" lon="-2.16355">
        <ele>1039.2</ele>
        <time>2023-08-19T11:29:38Z</time>
      </trkpt>
      <trkpt lat="40.09759" lon="-2.16339">
        <ele>1038.1</ele>
        <time>2023-08-19T11:29:41Z</time>
      </trkpt>
      <trkpt lat="40.09735" lon="-2.16319">
        <ele>1037.3</ele>
        <time>2023-08-19T11:29:45Z</time>
      </trkpt>
      <trkpt lat="40.09711" lon="-2.163">
        <ele>1034.9</ele>
        <time>2023-08-19T11:29:49Z</time>
      </trkpt>
      <trkpt lat="40.09686" lon="-2.16281">
        <ele>1033.3</ele>
        <time>2023-08-19T11:29:53Z</time>
      </trkpt>
      <trkpt lat="40.09661" lon="-2.16261">
        <ele>1033.1</ele>
        <time>2023-08-19T11:29:57Z</time>
      </trkpt>
      <trkpt lat="40.09641" lon="-2.16247">
        <ele>1031.7</ele>
        <time>2023-08-19T11:30:00Z</time>
      </trkpt>
      <trkpt lat="40.09622" lon="-2.16232">
        <ele>1030.5</ele>
        <time>2023-08-19T11:30:03Z</time>
      </trkpt>
      <trkpt lat="40.09604" lon="-2.16217">
        <ele>1030.3</ele>
        <time>2023-08-19T11:30:06Z</time>
      </trkpt>
      <trkpt lat="40.09585" lon="-2.16203">
        <ele>1029.6</ele>
        <time>2023-08-19T11:30:09Z</time>
      </trkpt>
      <trkpt lat="40.0956" lon="-2.16182">
        <ele>1028.7</ele>
        <time>2023-08-19T11:30:13Z</time>
      </trkpt>
      <trkpt lat="40.09542" lon="-2.16167">
        <ele>1028.3</ele>
        <time>2023-08-19T11:30:16Z</time>
      </trkpt>
      <trkpt lat="40.09524" lon="-2.16152">
        <ele>1027.8</ele>
        <time>2023-08-19T11:30:19Z</time>
      </trkpt>
      <trkpt lat="40.095" lon="-2.16134">
        <ele>1025.1</ele>
        <time>2023-08-19T11:30:23Z</time>
      </trkpt>
      <trkpt lat="40.09481" lon="-2.16121">
        <ele>1024.5</ele>
        <time>2023-08-19T11:30:26Z</time>
      </trkpt>
      <trkpt lat="40.09456" lon="-2.16102">
        <ele>1025.2</ele>
        <time>2023-08-19T11:30:30Z</time>
      </trkpt>
      <trkpt lat="40.09432" lon="-2.16082">
        <ele>1026.1</ele>
        <time>2023-08-19T11:30:34Z</time>
      </trkpt>
      <trkpt lat="40.09406" lon="-2.16063">
        <ele>1027.2</ele>
        <time>2023-08-19T11:30:38Z</time>
      </trkpt>
      <trkpt lat="40.09387" lon="-2.16049">
        <ele>1027</ele>
        <time>2023-08-19T11:30:41Z</time>
      </trkpt>
      <trkpt lat="40.09362" lon="-2.1603">
        <ele>1027.9</ele>
        <time>2023-08-19T11:30:45Z</time>
      </trkpt>
      <trkpt lat="40.09343" lon="-2.16015">
        <ele>1028.1</ele>
        <time>2023-08-19T11:30:48Z</time>
      </trkpt>
      <trkpt lat="40.09325" lon="-2.16001">
        <ele>1028.2</ele>
        <time>2023-08-19T11:30:51Z</time>
      </trkpt>
      <trkpt lat="40.09301" lon="-2.15981">
        <ele>1027.2</ele>
        <time>2023-08-19T11:30:55Z</time>
      </trkpt>
      <trkpt lat="40.09277" lon="-2.15962">
        <ele>1027.4</ele>
        <time>2023-08-19T11:30:59Z</time>
      </trkpt>
      <trkpt lat="40.09258" lon="-2.15947">
        <ele>1027.8</ele>
        <time>2023-08-19T11:31:02Z</time>
      </trkpt>
      <trkpt lat="40.09233" lon="-2.15928">
        <ele>1028.7</ele>
        <time>2023-08-19T11:31:06Z</time>
      </trkpt>
      <trkpt lat="40.09208" lon="-2.15909">
        <ele>1028.7</ele>
        <time>2023-08-19T11:31:10Z</time>
      </trkpt>
      <trkpt lat="40.09183" lon="-2.15888">
        <ele>1029.7</ele>
        <time>2023-08-19T11:31:14Z</time>
      </trkpt>
      <trkpt lat="40.09158" lon="-2.15868">
        <ele>1030</ele>
        <time>2023-08-19T11:31:18Z</time>
      </trkpt>
      <trkpt lat="40.09139" lon="-2.15854">
        <ele>1029.5</ele>
        <time>2023-08-19T11:31:21Z</time>
      </trkpt>
      <trkpt lat="40.09114" lon="-2.15835">
        <ele>1029.5</ele>
        <time>2023-08-19T11:31:25Z</time>
      </trkpt>
      <trkpt lat="40.09089" lon="-2.15817">
        <ele>1028.6</ele>
        <time>2023-08-19T11:31:29Z</time>
      </trkpt>
      <trkpt lat="40.09062" lon="-2.158">
        <ele>1028.4</ele>
        <time>2023-08-19T11:31:33Z</time>
      </trkpt>
      <trkpt lat="40.09035" lon="-2.15785">
        <ele>1027.7</ele>
        <time>2023-08-19T11:31:37Z</time>
      </trkpt>
      <trkpt lat="40.09014" lon="-2.15774">
        <ele>1027</ele>
        <time>2023-08-19T11:31:40Z</time>
      </trkpt>
      <trkpt lat="40.08986" lon="-2.1576">
        <ele>1026.9</ele>
        <time>2023-08-19T11:31:44Z</time>
      </trkpt>
      <trkpt lat="40.08958" lon="-2.15748">
        <ele>1026.4</ele>
        <time>2023-08-19T11:31:48Z</time>
      </trkpt>
      <trkpt lat="40.08937" lon="-2.1574">
        <ele>1023.8</ele>
        <time>2023-08-19T11:31:51Z</time>
      </trkpt>
      <trkpt lat="40.08909" lon="-2.15728">
        <ele>1022.9</ele>
        <time>2023-08-19T11:31:55Z</time>
      </trkpt>
      <trkpt lat="40.08881" lon="-2.15716">
        <ele>1022</ele>
        <time>2023-08-19T11:31:59Z</time>
      </trkpt>
      <trkpt lat="40.0886" lon="-2.1571">
        <ele>1021.7</ele>
        <time>2023-08-19T11:32:02Z</time>
      </trkpt>
      <trkpt lat="40.08832" lon="-2.15701">
        <ele>1020.8</ele>
        <time>2023-08-19T11:32:06Z</time>
      </trkpt>
      <trkpt lat="40.08811" lon="-2.15693">
        <ele>1020.1</ele>
        <time>2023-08-19T11:32:09Z</time>
      </trkpt>
      <trkpt lat="40.08782" lon="-2.15685">
        <ele>1017.7</ele>
        <time>2023-08-19T11:32:13Z</time>
      </trkpt>
      <trkpt lat="40.08754" lon="-2.15675">
        <ele>1017.2</ele>
        <time>2023-08-19T11:32:17Z</time>
      </trkpt>
      <trkpt lat="40.08725" lon="-2.15666">
        <ele>1016.3</ele>
        <time>2023-08-19T11:32:21Z</time>
      </trkpt>
      <trkpt lat="40.08704" lon="-2.1566">
        <ele>1014.7</ele>
        <time>2023-08-19T11:32:24Z</time>
      </trkpt>
      <trkpt lat="40.08676" lon="-2.15652">
        <ele>1013.7</ele>
        <time>2023-08-19T11:32:28Z</time>
      </trkpt>
      <trkpt lat="40.08648" lon="-2.15642">
        <ele>1012.3</ele>
        <time>2023-08-19T11:32:32Z</time>
      </trkpt>
      <trkpt lat="40.0862" lon="-2.15633">
        <ele>1011.3</ele>
        <time>2023-08-19T11:32:36Z</time>
      </trkpt>
      <trkpt lat="40.08592" lon="-2.15624">
        <ele>1010.6</ele>
        <time>2023-08-19T11:32:40Z</time>
      </trkpt>
      <trkpt lat="40.0857" lon="-2.15617">
        <ele>1010.3</ele>
        <time>2023-08-19T11:32:43Z</time>
      </trkpt>
      <trkpt lat="40.08542" lon="-2.15609">
        <ele>1009.4</ele>
        <time>2023-08-19T11:32:47Z</time>
      </trkpt>
      <trkpt lat="40.08513" lon="-2.15599">
        <ele>1008</ele>
        <time>2023-08-19T11:32:51Z</time>
      </trkpt>
      <trkpt lat="40.08485" lon="-2.1559">
        <ele>1007.1</ele>
        <time>2023-08-19T11:32:55Z</time>
      </trkpt>
      <trkpt lat="40.08464" lon="-2.15584">
        <ele>1006.2</ele>
        <time>2023-08-19T11:32:58Z</time>
      </trkpt>
      <trkpt lat="40.08436" lon="-2.15576">
        <ele>1007.6</ele>
        <time>2023-08-19T11:33:02Z</time>
      </trkpt>
      <trkpt lat="40.08408" lon="-2.15568">
        <ele>1006.4</ele>
        <time>2023-08-19T11:33:06Z</time>
      </trkpt>
      <trkpt lat="40.08379" lon="-2.15561">
        <ele>1007.1</ele>
        <time>2023-08-19T11:33:10Z</time>
      </trkpt>
      <trkpt lat="40.08357" lon="-2.15559">
        <ele>1007.1</ele>
        <time>2023-08-19T11:33:13Z</time>
      </trkpt>
      <trkpt lat="40.08328" lon="-2.15561">
        <ele>1006.2</ele>
        <time>2023-08-19T11:33:17Z</time>
      </trkpt>
      <trkpt lat="40.08306" lon="-2.15566">
        <ele>1005.9</ele>
        <time>2023-08-19T11:33:20Z</time>
      </trkpt>
      <trkpt lat="40.08279" lon="-2.15577">
        <ele>1005.4</ele>
        <time>2023-08-19T11:33:24Z</time>
      </trkpt>
      <trkpt lat="40.08253" lon="-2.15592">
        <ele>1006</ele>
        <time>2023-08-19T11:33:28Z</time>
      </trkpt>
      <trkpt lat="40.08227" lon="-2.15612">
        <ele>1006.4</ele>
        <time>2023-08-19T11:33:32Z</time>
      </trkpt>
      <trkpt lat="40.08203" lon="-2.15635">
        <ele>1006.4</ele>
        <time>2023-08-19T11:33:36Z</time>
      </trkpt>
      <trkpt lat="40.08187" lon="-2.15654">
        <ele>1006</ele>
        <time>2023-08-19T11:33:39Z</time>
      </trkpt>
      <trkpt lat="40.08165" lon="-2.15678">
        <ele>1006.5</ele>
        <time>2023-08-19T11:33:43Z</time>
      </trkpt>
      <trkpt lat="40.08148" lon="-2.15696">
        <ele>1005.5</ele>
        <time>2023-08-19T11:33:46Z</time>
      </trkpt>
      <trkpt lat="40.08124" lon="-2.15718">
        <ele>1004.8</ele>
        <time>2023-08-19T11:33:50Z</time>
      </trkpt>
      <trkpt lat="40.08098" lon="-2.15738">
        <ele>1004.2</ele>
        <time>2023-08-19T11:33:54Z</time>
      </trkpt>
      <trkpt lat="40.08078" lon="-2.15751">
        <ele>1004.3</ele>
        <time>2023-08-19T11:33:57Z</time>
      </trkpt>
      <trkpt lat="40.0805" lon="-2.15762">
        <ele>1003</ele>
        <time>2023-08-19T11:34:01Z</time>
      </trkpt>
      <trkpt lat="40.08028" lon="-2.15768">
        <ele>1002.9</ele>
        <time>2023-08-19T11:34:04Z</time>
      </trkpt>
      <trkpt lat="40.07998" lon="-2.15772">
        <ele>1001.7</ele>
        <time>2023-08-19T11:34:08Z</time>
      </trkpt>
      <trkpt lat="40.07976" lon="-2.15772">
        <ele>1001</ele>
        <time>2023-08-19T11:34:11Z</time>
      </trkpt>
      <trkpt lat="40.07946" lon="-2.15767">
        <ele>999.2</ele>
        <time>2023-08-19T11:34:15Z</time>
      </trkpt>
      <trkpt lat="40.07925" lon="-2.15759">
        <ele>998.2</ele>
        <time>2023-08-19T11:34:18Z</time>
      </trkpt>
      <trkpt lat="40.07897" lon="-2.15746">
        <ele>996.4</ele>
        <time>2023-08-19T11:34:22Z</time>
      </trkpt>
      <trkpt lat="40.0787" lon="-2.1573">
        <ele>995.2</ele>
        <time>2023-08-19T11:34:26Z</time>
      </trkpt>
      <trkpt lat="40.07844" lon="-2.15714">
        <ele>992.7</ele>
        <time>2023-08-19T11:34:30Z</time>
      </trkpt>
      <trkpt lat="40.07825" lon="-2.15701">
        <ele>991.6</ele>
        <time>2023-08-19T11:34:33Z</time>
      </trkpt>
      <trkpt lat="40.07805" lon="-2.15688">
        <ele>990.1</ele>
        <time>2023-08-19T11:34:36Z</time>
      </trkpt>
      <trkpt lat="40.07778" lon="-2.1567">
        <ele>988.7</ele>
        <time>2023-08-19T11:34:40Z</time>
      </trkpt>
      <trkpt lat="40.07758" lon="-2.15658">
        <ele>987.4</ele>
        <time>2023-08-19T11:34:43Z</time>
      </trkpt>
      <trkpt lat="40.07732" lon="-2.15643">
        <ele>984.7</ele>
        <time>2023-08-19T11:34:47Z</time>
      </trkpt>
      <trkpt lat="40.07706" lon="-2.15632">
        <ele>982.4</ele>
        <time>2023-08-19T11:34:51Z</time>
      </trkpt>
      <trkpt lat="40.07679" lon="-2.15628">
        <ele>981.7</ele>
        <time>2023-08-19T11:34:55Z</time>
      </trkpt>
      <trkpt lat="40.07654" lon="-2.15633">
        <ele>980.9</ele>
        <time>2023-08-19T11:34:59Z</time>
      </trkpt>
      <trkpt lat="40.07641" lon="-2.15649">
        <ele>981.1</ele>
        <time>2023-08-19T11:35:02Z</time>
      </trkpt>
      <trkpt lat="40.07631" lon="-2.15669">
        <ele>980.5</ele>
        <time>2023-08-19T11:35:05Z</time>
      </trkpt>
      <trkpt lat="40.07618" lon="-2.15682">
        <ele>980</ele>
        <time>2023-08-19T11:35:08Z</time>
      </trkpt>
      <trkpt lat="40.076" lon="-2.15688">
        <ele>981.1</ele>
        <time>2023-08-19T11:35:12Z</time>
      </trkpt>
      <trkpt lat="40.07588" lon="-2.15695">
        <ele>980.7</ele>
        <time>2023-08-19T11:35:16Z</time>
      </trkpt>
      <trkpt lat="40.07586" lon="-2.1571">
        <ele>980.3</ele>
        <time>2023-08-19T11:35:19Z</time>
      </trkpt>
      <trkpt lat="40.07587" lon="-2.15724">
        <ele>979.9</ele>
        <time>2023-08-19T11:35:22Z</time>
      </trkpt>
      <trkpt lat="40.07587" lon="-2.15744">
        <ele>979.5</ele>
        <time>2023-08-19T11:35:25Z</time>
      </trkpt>
      <trkpt lat="40.07584" lon="-2.15771">
        <ele>980.9</ele>
        <time>2023-08-19T11:35:29Z</time>
      </trkpt>
      <trkpt lat="40.07581" lon="-2.15796">
        <ele>981.6</ele>
        <time>2023-08-19T11:35:33Z</time>
      </trkpt>
      <trkpt lat="40.07576" lon="-2.1582">
        <ele>981.7</ele>
        <time>2023-08-19T11:35:37Z</time>
      </trkpt>
      <trkpt lat="40.0757" lon="-2.15846">
        <ele>981.9</ele>
        <time>2023-08-19T11:35:41Z</time>
      </trkpt>
      <trkpt lat="40.07557" lon="-2.15874">
        <ele>982.3</ele>
        <time>2023-08-19T11:35:45Z</time>
      </trkpt>
      <trkpt lat="40.07547" lon="-2.15894">
        <ele>982</ele>
        <time>2023-08-19T11:35:48Z</time>
      </trkpt>
      <trkpt lat="40.07535" lon="-2.15917">
        <ele>982.7</ele>
        <time>2023-08-19T11:35:52Z</time>
      </trkpt>
      <trkpt lat="40.07525" lon="-2.15939">
        <ele>983.7</ele>
        <time>2023-08-19T11:35:56Z</time>
      </trkpt>
      <trkpt lat="40.07518" lon="-2.15953">
        <ele>984</ele>
        <time>2023-08-19T11:35:59Z</time>
      </trkpt>
      <trkpt lat="40.07511" lon="-2.15969">
        <ele>984.4</ele>
        <time>2023-08-19T11:36:02Z</time>
      </trkpt>
      <trkpt lat="40.07499" lon="-2.15991">
        <ele>984.5</ele>
        <time>2023-08-19T11:36:06Z</time>
      </trkpt>
      <trkpt lat="40.07491" lon="-2.16008">
        <ele>984.9</ele>
        <time>2023-08-19T11:36:09Z</time>
      </trkpt>
      <trkpt lat="40.07483" lon="-2.16024">
        <ele>984.8</ele>
        <time>2023-08-19T11:36:12Z</time>
      </trkpt>
      <trkpt lat="40.0747" lon="-2.16046">
        <ele>984.2</ele>
        <time>2023-08-19T11:36:16Z</time>
      </trkpt>
      <trkpt lat="40.07463" lon="-2.16061">
        <ele>985.3</ele>
        <time>2023-08-19T11:36:19Z</time>
      </trkpt>
      <trkpt lat="40.07458" lon="-2.16074">
        <ele>985.8</ele>
        <time>2023-08-19T11:36:22Z</time>
      </trkpt>
      <trkpt lat="40.07454" lon="-2.16084">
        <ele>985.9</ele>
        <time>2023-08-19T11:36:25Z</time>
      </trkpt>
      <trkpt lat="40.07447" lon="-2.16098">
        <ele>985.8</ele>
        <time>2023-08-19T11:36:29Z</time>
      </trkpt>
      <trkpt lat="40.07443" lon="-2.1611">
        <ele>986.2</ele>
        <time>2023-08-19T11:36:33Z</time>
      </trkpt>
      <trkpt lat="40.07443" lon="-2.1612">
        <ele>987.1</ele>
        <time>2023-08-19T11:36:36Z</time>
      </trkpt>
      <trkpt lat="40.07442" lon="-2.16128">
        <ele>987.4</ele>
        <time>2023-08-19T11:36:40Z</time>
      </trkpt>
      <trkpt lat="40.07438" lon="-2.16131">
        <ele>986.9</ele>
        <time>2023-08-19T11:36:43Z</time>
      </trkpt>
      <trkpt lat="40.07435" lon="-2.16131">
        <ele>986.4</ele>
        <time>2023-08-19T11:36:46Z</time>
      </trkpt>
      <trkpt lat="40.07433" lon="-2.16129">
        <ele>986.5</ele>
        <time>2023-08-19T11:37:40Z</time>
      </trkpt>
      <trkpt lat="40.07429" lon="-2.16123">
        <ele>986.4</ele>
        <time>2023-08-19T11:37:44Z</time>
      </trkpt>
      <trkpt lat="40.07435" lon="-2.16104">
        <ele>986.9</ele>
        <time>2023-08-19T11:37:48Z</time>
      </trkpt>
      <trkpt lat="40.07443" lon="-2.16088">
        <ele>986.1</ele>
        <time>2023-08-19T11:37:51Z</time>
      </trkpt>
      <trkpt lat="40.07454" lon="-2.16066">
        <ele>986.2</ele>
        <time>2023-08-19T11:37:55Z</time>
      </trkpt>
      <trkpt lat="40.07464" lon="-2.16049">
        <ele>986.3</ele>
        <time>2023-08-19T11:37:58Z</time>
      </trkpt>
      <trkpt lat="40.07478" lon="-2.16024">
        <ele>985.6</ele>
        <time>2023-08-19T11:38:02Z</time>
      </trkpt>
      <trkpt lat="40.07489" lon="-2.15999">
        <ele>985.2</ele>
        <time>2023-08-19T11:38:06Z</time>
      </trkpt>
      <trkpt lat="40.07498" lon="-2.15981">
        <ele>983.4</ele>
        <time>2023-08-19T11:38:09Z</time>
      </trkpt>
      <trkpt lat="40.0751" lon="-2.15957">
        <ele>983.8</ele>
        <time>2023-08-19T11:38:13Z</time>
      </trkpt>
      <trkpt lat="40.07522" lon="-2.15933">
        <ele>984.8</ele>
        <time>2023-08-19T11:38:17Z</time>
      </trkpt>
      <trkpt lat="40.07531" lon="-2.15916">
        <ele>984.2</ele>
        <time>2023-08-19T11:38:20Z</time>
      </trkpt>
      <trkpt lat="40.07542" lon="-2.15893">
        <ele>983.4</ele>
        <time>2023-08-19T11:38:24Z</time>
      </trkpt>
      <trkpt lat="40.07549" lon="-2.15879">
        <ele>983.5</ele>
        <time>2023-08-19T11:38:27Z</time>
      </trkpt>
      <trkpt lat="40.07559" lon="-2.15856">
        <ele>983.2</ele>
        <time>2023-08-19T11:38:31Z</time>
      </trkpt>
      <trkpt lat="40.07569" lon="-2.15828">
        <ele>982.3</ele>
        <time>2023-08-19T11:38:35Z</time>
      </trkpt>
      <trkpt lat="40.07575" lon="-2.15797">
        <ele>980.9</ele>
        <time>2023-08-19T11:38:39Z</time>
      </trkpt>
      <trkpt lat="40.07581" lon="-2.15764">
        <ele>981.4</ele>
        <time>2023-08-19T11:38:43Z</time>
      </trkpt>
      <trkpt lat="40.07584" lon="-2.15733">
        <ele>981.6</ele>
        <time>2023-08-19T11:38:47Z</time>
      </trkpt>
      <trkpt lat="40.07583" lon="-2.15706">
        <ele>980.8</ele>
        <time>2023-08-19T11:38:51Z</time>
      </trkpt>
      <trkpt lat="40.0758" lon="-2.15691">
        <ele>980.3</ele>
        <time>2023-08-19T11:38:55Z</time>
      </trkpt>
      <trkpt lat="40.07577" lon="-2.15682">
        <ele>980.4</ele>
        <time>2023-08-19T11:38:59Z</time>
      </trkpt>
      <trkpt lat="40.07576" lon="-2.15677">
        <ele>979.5</ele>
        <time>2023-08-19T11:39:08Z</time>
      </trkpt>
      <trkpt lat="40.07575" lon="-2.15675">
        <ele>980.1</ele>
        <time>2023-08-19T11:39:13Z</time>
      </trkpt>
      <trkpt lat="40.07572" lon="-2.15668">
        <ele>980.1</ele>
        <time>2023-08-19T11:39:16Z</time>
      </trkpt>
      <trkpt lat="40.07561" lon="-2.15646">
        <ele>979.7</ele>
        <time>2023-08-19T11:39:20Z</time>
      </trkpt>
      <trkpt lat="40.07544" lon="-2.15625">
        <ele>978.3</ele>
        <time>2023-08-19T11:39:24Z</time>
      </trkpt>
      <trkpt lat="40.07528" lon="-2.156">
        <ele>978.4</ele>
        <time>2023-08-19T11:39:28Z</time>
      </trkpt>
      <trkpt lat="40.07527" lon="-2.15575">
        <ele>978.5</ele>
        <time>2023-08-19T11:39:31Z</time>
      </trkpt>
      <trkpt lat="40.07535" lon="-2.15543">
        <ele>978.4</ele>
        <time>2023-08-19T11:39:35Z</time>
      </trkpt>
      <trkpt lat="40.07545" lon="-2.15508">
        <ele>978.3</ele>
        <time>2023-08-19T11:39:39Z</time>
      </trkpt>
      <trkpt lat="40.07549" lon="-2.15473">
        <ele>979.6</ele>
        <time>2023-08-19T11:39:43Z</time>
      </trkpt>
      <trkpt lat="40.07548" lon="-2.15448">
        <ele>979</ele>
        <time>2023-08-19T11:39:46Z</time>
      </trkpt>
      <trkpt lat="40.07547" lon="-2.15421">
        <ele>978.1</ele>
        <time>2023-08-19T11:39:49Z</time>
      </trkpt>
      <trkpt lat="40.07546" lon="-2.15389">
        <ele>976.7</ele>
        <time>2023-08-19T11:39:53Z</time>
      </trkpt>
      <trkpt lat="40.07545" lon="-2.15359">
        <ele>976.1</ele>
        <time>2023-08-19T11:39:57Z</time>
      </trkpt>
      <trkpt lat="40.07545" lon="-2.15328">
        <ele>975.6</ele>
        <time>2023-08-19T11:40:01Z</time>
      </trkpt>
      <trkpt lat="40.07545" lon="-2.15298">
        <ele>974.6</ele>
        <time>2023-08-19T11:40:05Z</time>
      </trkpt>
      <trkpt lat="40.07545" lon="-2.1527">
        <ele>974</ele>
        <time>2023-08-19T11:40:09Z</time>
      </trkpt>
      <trkpt lat="40.07544" lon="-2.15249">
        <ele>974.1</ele>
        <time>2023-08-19T11:40:12Z</time>
      </trkpt>
      <trkpt lat="40.07543" lon="-2.1522">
        <ele>973.6</ele>
        <time>2023-08-19T11:40:16Z</time>
      </trkpt>
      <trkpt lat="40.07541" lon="-2.15191">
        <ele>972.5</ele>
        <time>2023-08-19T11:40:20Z</time>
      </trkpt>
      <trkpt lat="40.07538" lon="-2.15166">
        <ele>972.1</ele>
        <time>2023-08-19T11:40:24Z</time>
      </trkpt>
      <trkpt lat="40.07536" lon="-2.15147">
        <ele>972</ele>
        <time>2023-08-19T11:40:28Z</time>
      </trkpt>
      <trkpt lat="40.07534" lon="-2.15133">
        <ele>971.9</ele>
        <time>2023-08-19T11:40:31Z</time>
      </trkpt>
      <trkpt lat="40.07532" lon="-2.15116">
        <ele>970.7</ele>
        <time>2023-08-19T11:40:34Z</time>
      </trkpt>
      <trkpt lat="40.07529" lon="-2.15095">
        <ele>970</ele>
        <time>2023-08-19T11:40:38Z</time>
      </trkpt>
      <trkpt lat="40.07524" lon="-2.15074">
        <ele>970.4</ele>
        <time>2023-08-19T11:40:42Z</time>
      </trkpt>
      <trkpt lat="40.07522" lon="-2.15058">
        <ele>970.2</ele>
        <time>2023-08-19T11:40:45Z</time>
      </trkpt>
      <trkpt lat="40.07519" lon="-2.15037">
        <ele>969.7</ele>
        <time>2023-08-19T11:40:49Z</time>
      </trkpt>
      <trkpt lat="40.07516" lon="-2.15017">
        <ele>970</ele>
        <time>2023-08-19T11:40:53Z</time>
      </trkpt>
      <trkpt lat="40.07515" lon="-2.15003">
        <ele>970.1</ele>
        <time>2023-08-19T11:40:57Z</time>
      </trkpt>
      <trkpt lat="40.07514" lon="-2.14998">
        <ele>969.8</ele>
        <time>2023-08-19T11:41:00Z</time>
      </trkpt>
      <trkpt lat="40.07513" lon="-2.14994">
        <ele>969.9</ele>
        <time>2023-08-19T11:41:03Z</time>
      </trkpt>
      <trkpt lat="40.07512" lon="-2.1499">
        <ele>969.2</ele>
        <time>2023-08-19T11:41:06Z</time>
      </trkpt>
      <trkpt lat="40.0751" lon="-2.14984">
        <ele>969.7</ele>
        <time>2023-08-19T11:41:10Z</time>
      </trkpt>
      <trkpt lat="40.07504" lon="-2.14979">
        <ele>969.8</ele>
        <time>2023-08-19T11:41:13Z</time>
      </trkpt>
      <trkpt lat="40.07493" lon="-2.14974">
        <ele>969.3</ele>
        <time>2023-08-19T11:41:16Z</time>
      </trkpt>
      <trkpt lat="40.0748" lon="-2.14959">
        <ele>968.5</ele>
        <time>2023-08-19T11:41:20Z</time>
      </trkpt>
      <trkpt lat="40.07485" lon="-2.14935">
        <ele>969.5</ele>
        <time>2023-08-19T11:41:24Z</time>
      </trkpt>
      <trkpt lat="40.07494" lon="-2.1492">
        <ele>970.6</ele>
        <time>2023-08-19T11:41:28Z</time>
      </trkpt>
      <trkpt lat="40.07494" lon="-2.14899">
        <ele>971.3</ele>
        <time>2023-08-19T11:41:32Z</time>
      </trkpt>
      <trkpt lat="40.07488" lon="-2.14877">
        <ele>971.7</ele>
        <time>2023-08-19T11:41:35Z</time>
      </trkpt>
      <trkpt lat="40.07482" lon="-2.14856">
        <ele>972.3</ele>
        <time>2023-08-19T11:41:38Z</time>
      </trkpt>
      <trkpt lat="40.07474" lon="-2.14832">
        <ele>974</ele>
        <time>2023-08-19T11:41:42Z</time>
      </trkpt>
      <trkpt lat="40.07471" lon="-2.14814">
        <ele>974.6</ele>
        <time>2023-08-19T11:41:45Z</time>
      </trkpt>
      <trkpt lat="40.07469" lon="-2.14796">
        <ele>975.6</ele>
        <time>2023-08-19T11:41:48Z</time>
      </trkpt>
      <trkpt lat="40.07461" lon="-2.14776">
        <ele>975.7</ele>
        <time>2023-08-19T11:41:51Z</time>
      </trkpt>
      <trkpt lat="40.0745" lon="-2.14747">
        <ele>975.7</ele>
        <time>2023-08-19T11:41:55Z</time>
      </trkpt>
      <trkpt lat="40.07442" lon="-2.14725">
        <ele>975.2</ele>
        <time>2023-08-19T11:41:58Z</time>
      </trkpt>
      <trkpt lat="40.07432" lon="-2.14701">
        <ele>975.2</ele>
        <time>2023-08-19T11:42:01Z</time>
      </trkpt>
      <trkpt lat="40.07418" lon="-2.14669">
        <ele>974.3</ele>
        <time>2023-08-19T11:42:05Z</time>
      </trkpt>
      <trkpt lat="40.07408" lon="-2.14645">
        <ele>974.8</ele>
        <time>2023-08-19T11:42:08Z</time>
      </trkpt>
      <trkpt lat="40.07399" lon="-2.14621">
        <ele>975</ele>
        <time>2023-08-19T11:42:11Z</time>
      </trkpt>
      <trkpt lat="40.07386" lon="-2.14587">
        <ele>974.6</ele>
        <time>2023-08-19T11:42:15Z</time>
      </trkpt>
      <trkpt lat="40.07372" lon="-2.14553">
        <ele>975.1</ele>
        <time>2023-08-19T11:42:19Z</time>
      </trkpt>
      <trkpt lat="40.07358" lon="-2.1452">
        <ele>975.6</ele>
        <time>2023-08-19T11:42:23Z</time>
      </trkpt>
      <trkpt lat="40.07347" lon="-2.14494">
        <ele>975.1</ele>
        <time>2023-08-19T11:42:26Z</time>
      </trkpt>
      <trkpt lat="40.07335" lon="-2.14459">
        <ele>974.8</ele>
        <time>2023-08-19T11:42:30Z</time>
      </trkpt>
      <trkpt lat="40.07322" lon="-2.14426">
        <ele>974.3</ele>
        <time>2023-08-19T11:42:34Z</time>
      </trkpt>
      <trkpt lat="40.07308" lon="-2.14392">
        <ele>974.9</ele>
        <time>2023-08-19T11:42:38Z</time>
      </trkpt>
      <trkpt lat="40.07297" lon="-2.14367">
        <ele>974.5</ele>
        <time>2023-08-19T11:42:41Z</time>
      </trkpt>
      <trkpt lat="40.07287" lon="-2.14342">
        <ele>974.7</ele>
        <time>2023-08-19T11:42:44Z</time>
      </trkpt>
      <trkpt lat="40.07273" lon="-2.14309">
        <ele>975</ele>
        <time>2023-08-19T11:42:48Z</time>
      </trkpt>
      <trkpt lat="40.07263" lon="-2.14285">
        <ele>974.9</ele>
        <time>2023-08-19T11:42:51Z</time>
      </trkpt>
      <trkpt lat="40.0725" lon="-2.14255">
        <ele>974.5</ele>
        <time>2023-08-19T11:42:55Z</time>
      </trkpt>
      <trkpt lat="40.07242" lon="-2.14237">
        <ele>973.5</ele>
        <time>2023-08-19T11:42:58Z</time>
      </trkpt>
      <trkpt lat="40.07236" lon="-2.1422">
        <ele>973.3</ele>
        <time>2023-08-19T11:43:02Z</time>
      </trkpt>
      <trkpt lat="40.07231" lon="-2.14208">
        <ele>973.5</ele>
        <time>2023-08-19T11:43:05Z</time>
      </trkpt>
      <trkpt lat="40.07228" lon="-2.14199">
        <ele>973.6</ele>
        <time>2023-08-19T11:43:08Z</time>
      </trkpt>
      <trkpt lat="40.07227" lon="-2.14194">
        <ele>973.2</ele>
        <time>2023-08-19T11:43:30Z</time>
      </trkpt>
      <trkpt lat="40.07224" lon="-2.14182">
        <ele>973.7</ele>
        <time>2023-08-19T11:43:34Z</time>
      </trkpt>
      <trkpt lat="40.07219" lon="-2.14159">
        <ele>973.1</ele>
        <time>2023-08-19T11:43:38Z</time>
      </trkpt>
      <trkpt lat="40.07216" lon="-2.14149">
        <ele>973.8</ele>
        <time>2023-08-19T11:43:48Z</time>
      </trkpt>
      <trkpt lat="40.0721" lon="-2.14143">
        <ele>974.1</ele>
        <time>2023-08-19T11:43:51Z</time>
      </trkpt>
      <trkpt lat="40.07201" lon="-2.14131">
        <ele>973.4</ele>
        <time>2023-08-19T11:43:54Z</time>
      </trkpt>
      <trkpt lat="40.07195" lon="-2.14109">
        <ele>973.1</ele>
        <time>2023-08-19T11:43:58Z</time>
      </trkpt>
      <trkpt lat="40.07188" lon="-2.14088">
        <ele>973.9</ele>
        <time>2023-08-19T11:44:02Z</time>
      </trkpt>
      <trkpt lat="40.07177" lon="-2.14067">
        <ele>973.4</ele>
        <time>2023-08-19T11:44:06Z</time>
      </trkpt>
      <trkpt lat="40.07169" lon="-2.14047">
        <ele>973.5</ele>
        <time>2023-08-19T11:44:09Z</time>
      </trkpt>
      <trkpt lat="40.07158" lon="-2.14019">
        <ele>972.8</ele>
        <time>2023-08-19T11:44:13Z</time>
      </trkpt>
      <trkpt lat="40.0715" lon="-2.13998">
        <ele>973.1</ele>
        <time>2023-08-19T11:44:16Z</time>
      </trkpt>
      <trkpt lat="40.07139" lon="-2.13972">
        <ele>974.3</ele>
        <time>2023-08-19T11:44:20Z</time>
      </trkpt>
      <trkpt lat="40.0713" lon="-2.13951">
        <ele>973.8</ele>
        <time>2023-08-19T11:44:23Z</time>
      </trkpt>
      <trkpt lat="40.07119" lon="-2.13922">
        <ele>973.3</ele>
        <time>2023-08-19T11:44:27Z</time>
      </trkpt>
      <trkpt lat="40.07113" lon="-2.13902">
        <ele>973.5</ele>
        <time>2023-08-19T11:44:30Z</time>
      </trkpt>
      <trkpt lat="40.07105" lon="-2.13883">
        <ele>973.5</ele>
        <time>2023-08-19T11:44:33Z</time>
      </trkpt>
      <trkpt lat="40.07097" lon="-2.1386">
        <ele>972.7</ele>
        <time>2023-08-19T11:44:37Z</time>
      </trkpt>
      <trkpt lat="40.07088" lon="-2.13839">
        <ele>972.6</ele>
        <time>2023-08-19T11:44:41Z</time>
      </trkpt>
      <trkpt lat="40.07082" lon="-2.13822">
        <ele>972.7</ele>
        <time>2023-08-19T11:44:44Z</time>
      </trkpt>
      <trkpt lat="40.07075" lon="-2.138">
        <ele>972.4</ele>
        <time>2023-08-19T11:44:48Z</time>
      </trkpt>
      <trkpt lat="40.0707" lon="-2.13785">
        <ele>973.1</ele>
        <time>2023-08-19T11:44:51Z</time>
      </trkpt>
      <trkpt lat="40.07064" lon="-2.13771">
        <ele>972.3</ele>
        <time>2023-08-19T11:44:54Z</time>
      </trkpt>
      <trkpt lat="40.07055" lon="-2.1375">
        <ele>972.7</ele>
        <time>2023-08-19T11:44:58Z</time>
      </trkpt>
      <trkpt lat="40.07045" lon="-2.13728">
        <ele>972.7</ele>
        <time>2023-08-19T11:45:01Z</time>
      </trkpt>
      <trkpt lat="40.07031" lon="-2.13696">
        <ele>972.9</ele>
        <time>2023-08-19T11:45:05Z</time>
      </trkpt>
      <trkpt lat="40.07021" lon="-2.13675">
        <ele>973.9</ele>
        <time>2023-08-19T11:45:08Z</time>
      </trkpt>
      <trkpt lat="40.07011" lon="-2.13654">
        <ele>974.4</ele>
        <time>2023-08-19T11:45:11Z</time>
      </trkpt>
      <trkpt lat="40.07002" lon="-2.13632">
        <ele>975.1</ele>
        <time>2023-08-19T11:45:15Z</time>
      </trkpt>
      <trkpt lat="40.06993" lon="-2.13616">
        <ele>976.4</ele>
        <time>2023-08-19T11:45:19Z</time>
      </trkpt>
      <trkpt lat="40.06981" lon="-2.1361">
        <ele>976.5</ele>
        <time>2023-08-19T11:45:22Z</time>
      </trkpt>
      <trkpt lat="40.06969" lon="-2.13606">
        <ele>976.1</ele>
        <time>2023-08-19T11:45:25Z</time>
      </trkpt>
      <trkpt lat="40.06964" lon="-2.13604">
        <ele>976.6</ele>
        <time>2023-08-19T11:45:31Z</time>
      </trkpt>
      <trkpt lat="40.06959" lon="-2.13601">
        <ele>975.8</ele>
        <time>2023-08-19T11:45:34Z</time>
      </trkpt>
      <trkpt lat="40.06949" lon="-2.13596">
        <ele>975.2</ele>
        <time>2023-08-19T11:45:38Z</time>
      </trkpt>
      <trkpt lat="40.06939" lon="-2.13591">
        <ele>975.8</ele>
        <time>2023-08-19T11:45:42Z</time>
      </trkpt>
      <trkpt lat="40.06931" lon="-2.13587">
        <ele>975.6</ele>
        <time>2023-08-19T11:45:46Z</time>
      </trkpt>
      <trkpt lat="40.06922" lon="-2.13582">
        <ele>975.9</ele>
        <time>2023-08-19T11:45:55Z</time>
      </trkpt>
      <trkpt lat="40.06919" lon="-2.1358">
        <ele>976.1</ele>
        <time>2023-08-19T11:46:00Z</time>
      </trkpt>
      <trkpt lat="40.06917" lon="-2.13575">
        <ele>975.6</ele>
        <time>2023-08-19T11:46:04Z</time>
      </trkpt>
      <trkpt lat="40.06917" lon="-2.13575">
        <ele>976.3</ele>
        <time>2023-08-19T11:46:10Z</time>
      </trkpt>
      <trkpt lat="40.06918" lon="-2.13576">
        <ele>976.4</ele>
        <time>2023-08-19T11:46:16Z</time>
      </trkpt>
      <trkpt lat="40.06917" lon="-2.1357">
        <ele>976</ele>
        <time>2023-08-19T11:46:41Z</time>
      </trkpt>
      <trkpt lat="40.06915" lon="-2.13578">
        <ele>976.4</ele>
        <time>2023-08-19T11:49:19Z</time>
      </trkpt>
      <trkpt lat="40.06931" lon="-2.13566">
        <ele>975.8</ele>
        <time>2023-08-19T11:49:45Z</time>
      </trkpt>
      <trkpt lat="40.06934" lon="-2.13565">
        <ele>976.3</ele>
        <time>2023-08-19T11:49:48Z</time>
      </trkpt>
      <trkpt lat="40.06937" lon="-2.13564">
        <ele>977.1</ele>
        <time>2023-08-19T11:49:51Z</time>
      </trkpt>
      <trkpt lat="40.06941" lon="-2.13564">
        <ele>976.1</ele>
        <time>2023-08-19T11:49:55Z</time>
      </trkpt>
      <trkpt lat="40.06943" lon="-2.13563">
        <ele>976.3</ele>
        <time>2023-08-19T11:49:58Z</time>
      </trkpt>
      <trkpt lat="40.06945" lon="-2.13564">
        <ele>975.6</ele>
        <time>2023-08-19T11:50:01Z</time>
      </trkpt>
      <trkpt lat="40.06949" lon="-2.13607">
        <ele>990.9</ele>
        <time>2023-08-19T12:03:44Z</time>
      </trkpt>
      <trkpt lat="39.74874" lon="-2.36213">
        <ele>969.6</ele>
        <time>2023-08-19T14:35:50Z</time>
      </trkpt>
      <trkpt lat="39.74844" lon="-2.36211">
        <ele>970.4</ele>
        <time>2023-08-19T14:35:54Z</time>
      </trkpt>
      <trkpt lat="39.74818" lon="-2.36209">
        <ele>967.7</ele>
        <time>2023-08-19T14:35:57Z</time>
      </trkpt>
      <trkpt lat="39.74787" lon="-2.36204">
        <ele>960.1</ele>
        <time>2023-08-19T14:36:01Z</time>
      </trkpt>
      <trkpt lat="39.74764" lon="-2.36201">
        <ele>960.8</ele>
        <time>2023-08-19T14:36:04Z</time>
      </trkpt>
      <trkpt lat="39.74741" lon="-2.36198">
        <ele>962</ele>
        <time>2023-08-19T14:36:07Z</time>
      </trkpt>
      <trkpt lat="39.74711" lon="-2.36194">
        <ele>964.1</ele>
        <time>2023-08-19T14:36:11Z</time>
      </trkpt>
      <trkpt lat="39.74688" lon="-2.3619">
        <ele>966.2</ele>
        <time>2023-08-19T14:36:14Z</time>
      </trkpt>
      <trkpt lat="39.74658" lon="-2.36184">
        <ele>967</ele>
        <time>2023-08-19T14:36:18Z</time>
      </trkpt>
      <trkpt lat="39.74621" lon="-2.36176">
        <ele>969.9</ele>
        <time>2023-08-19T14:36:23Z</time>
      </trkpt>
      <trkpt lat="39.7459" lon="-2.36169">
        <ele>972.3</ele>
        <time>2023-08-19T14:36:27Z</time>
      </trkpt>
      <trkpt lat="39.7456" lon="-2.36162">
        <ele>972.9</ele>
        <time>2023-08-19T14:36:31Z</time>
      </trkpt>
      <trkpt lat="39.74532" lon="-2.36154">
        <ele>974.5</ele>
        <time>2023-08-19T14:36:35Z</time>
      </trkpt>
      <trkpt lat="39.74501" lon="-2.36145">
        <ele>976.6</ele>
        <time>2023-08-19T14:36:39Z</time>
      </trkpt>
      <trkpt lat="39.74479" lon="-2.36139">
        <ele>977.9</ele>
        <time>2023-08-19T14:36:42Z</time>
      </trkpt>
      <trkpt lat="39.7445" lon="-2.3613">
        <ele>980</ele>
        <time>2023-08-19T14:36:46Z</time>
      </trkpt>
      <trkpt lat="39.74427" lon="-2.36122">
        <ele>981.7</ele>
        <time>2023-08-19T14:36:49Z</time>
      </trkpt>
      <trkpt lat="39.74396" lon="-2.36111">
        <ele>983.4</ele>
        <time>2023-08-19T14:36:53Z</time>
      </trkpt>
      <trkpt lat="39.74373" lon="-2.36103">
        <ele>984.5</ele>
        <time>2023-08-19T14:36:56Z</time>
      </trkpt>
      <trkpt lat="39.74343" lon="-2.36091">
        <ele>987.8</ele>
        <time>2023-08-19T14:37:00Z</time>
      </trkpt>
      <trkpt lat="39.74312" lon="-2.36078">
        <ele>988.1</ele>
        <time>2023-08-19T14:37:04Z</time>
      </trkpt>
      <trkpt lat="39.7429" lon="-2.36069">
        <ele>989</ele>
        <time>2023-08-19T14:37:07Z</time>
      </trkpt>
      <trkpt lat="39.7426" lon="-2.36055">
        <ele>990.3</ele>
        <time>2023-08-19T14:37:11Z</time>
      </trkpt>
      <trkpt lat="39.74237" lon="-2.36043">
        <ele>991.4</ele>
        <time>2023-08-19T14:37:14Z</time>
      </trkpt>
      <trkpt lat="39.74206" lon="-2.36028">
        <ele>992.4</ele>
        <time>2023-08-19T14:37:18Z</time>
      </trkpt>
      <trkpt lat="39.74184" lon="-2.36017">
        <ele>991.9</ele>
        <time>2023-08-19T14:37:21Z</time>
      </trkpt>
      <trkpt lat="39.74153" lon="-2.36">
        <ele>994.7</ele>
        <time>2023-08-19T14:37:25Z</time>
      </trkpt>
      <trkpt lat="39.74129" lon="-2.35988">
        <ele>996.4</ele>
        <time>2023-08-19T14:37:28Z</time>
      </trkpt>
      <trkpt lat="39.74104" lon="-2.35974">
        <ele>994.4</ele>
        <time>2023-08-19T14:37:31Z</time>
      </trkpt>
      <trkpt lat="39.74081" lon="-2.3596">
        <ele>996</ele>
        <time>2023-08-19T14:37:34Z</time>
      </trkpt>
      <trkpt lat="39.74051" lon="-2.35942">
        <ele>997</ele>
        <time>2023-08-19T14:37:38Z</time>
      </trkpt>
      <trkpt lat="39.74023" lon="-2.35924">
        <ele>997.5</ele>
        <time>2023-08-19T14:37:42Z</time>
      </trkpt>
      <trkpt lat="39.74002" lon="-2.35911">
        <ele>997.6</ele>
        <time>2023-08-19T14:37:45Z</time>
      </trkpt>
      <trkpt lat="39.73971" lon="-2.35895">
        <ele>996.8</ele>
        <time>2023-08-19T14:37:49Z</time>
      </trkpt>
      <trkpt lat="39.73942" lon="-2.35879">
        <ele>997.3</ele>
        <time>2023-08-19T14:37:53Z</time>
      </trkpt>
      <trkpt lat="39.73911" lon="-2.35867">
        <ele>996.1</ele>
        <time>2023-08-19T14:37:57Z</time>
      </trkpt>
      <trkpt lat="39.73888" lon="-2.35857">
        <ele>995.7</ele>
        <time>2023-08-19T14:38:00Z</time>
      </trkpt>
      <trkpt lat="39.73855" lon="-2.35848">
        <ele>995.2</ele>
        <time>2023-08-19T14:38:04Z</time>
      </trkpt>
      <trkpt lat="39.73833" lon="-2.35845">
        <ele>993.2</ele>
        <time>2023-08-19T14:38:07Z</time>
      </trkpt>
      <trkpt lat="39.73804" lon="-2.35839">
        <ele>992.1</ele>
        <time>2023-08-19T14:38:11Z</time>
      </trkpt>
      <trkpt lat="39.73782" lon="-2.35836">
        <ele>992.5</ele>
        <time>2023-08-19T14:38:14Z</time>
      </trkpt>
      <trkpt lat="39.73762" lon="-2.35834">
        <ele>991.3</ele>
        <time>2023-08-19T14:38:17Z</time>
      </trkpt>
      <trkpt lat="39.73735" lon="-2.35832">
        <ele>989.8</ele>
        <time>2023-08-19T14:38:21Z</time>
      </trkpt>
      <trkpt lat="39.73706" lon="-2.35829">
        <ele>988</ele>
        <time>2023-08-19T14:38:25Z</time>
      </trkpt>
      <trkpt lat="39.73676" lon="-2.35824">
        <ele>987.5</ele>
        <time>2023-08-19T14:38:29Z</time>
      </trkpt>
      <trkpt lat="39.73646" lon="-2.3582">
        <ele>985.1</ele>
        <time>2023-08-19T14:38:33Z</time>
      </trkpt>
      <trkpt lat="39.73625" lon="-2.35817">
        <ele>985</ele>
        <time>2023-08-19T14:38:36Z</time>
      </trkpt>
      <trkpt lat="39.73604" lon="-2.35813">
        <ele>984.3</ele>
        <time>2023-08-19T14:38:39Z</time>
      </trkpt>
      <trkpt lat="39.73577" lon="-2.35807">
        <ele>984.3</ele>
        <time>2023-08-19T14:38:43Z</time>
      </trkpt>
      <trkpt lat="39.73552" lon="-2.35802">
        <ele>985.3</ele>
        <time>2023-08-19T14:38:47Z</time>
      </trkpt>
      <trkpt lat="39.7353" lon="-2.35799">
        <ele>985.4</ele>
        <time>2023-08-19T14:38:50Z</time>
      </trkpt>
      <trkpt lat="39.73501" lon="-2.35794">
        <ele>985.2</ele>
        <time>2023-08-19T14:38:54Z</time>
      </trkpt>
      <trkpt lat="39.73474" lon="-2.35793">
        <ele>985.9</ele>
        <time>2023-08-19T14:38:58Z</time>
      </trkpt>
      <trkpt lat="39.73446" lon="-2.35787">
        <ele>984.7</ele>
        <time>2023-08-19T14:39:02Z</time>
      </trkpt>
      <trkpt lat="39.73421" lon="-2.3578">
        <ele>985.5</ele>
        <time>2023-08-19T14:39:05Z</time>
      </trkpt>
      <trkpt lat="39.73398" lon="-2.35774">
        <ele>986.2</ele>
        <time>2023-08-19T14:39:08Z</time>
      </trkpt>
      <trkpt lat="39.73371" lon="-2.35766">
        <ele>985.4</ele>
        <time>2023-08-19T14:39:12Z</time>
      </trkpt>
      <trkpt lat="39.73343" lon="-2.35758">
        <ele>986.7</ele>
        <time>2023-08-19T14:39:16Z</time>
      </trkpt>
      <trkpt lat="39.73317" lon="-2.35748">
        <ele>987.2</ele>
        <time>2023-08-19T14:39:20Z</time>
      </trkpt>
      <trkpt lat="39.73291" lon="-2.35737">
        <ele>987.8</ele>
        <time>2023-08-19T14:39:24Z</time>
      </trkpt>
      <trkpt lat="39.73262" lon="-2.35727">
        <ele>988.6</ele>
        <time>2023-08-19T14:39:28Z</time>
      </trkpt>
      <trkpt lat="39.73237" lon="-2.35722">
        <ele>988</ele>
        <time>2023-08-19T14:39:31Z</time>
      </trkpt>
      <trkpt lat="39.7321" lon="-2.35716">
        <ele>986.3</ele>
        <time>2023-08-19T14:39:35Z</time>
      </trkpt>
      <trkpt lat="39.73184" lon="-2.35712">
        <ele>986.7</ele>
        <time>2023-08-19T14:39:39Z</time>
      </trkpt>
      <trkpt lat="39.73155" lon="-2.35709">
        <ele>985.1</ele>
        <time>2023-08-19T14:39:43Z</time>
      </trkpt>
      <trkpt lat="39.73124" lon="-2.35709">
        <ele>982.5</ele>
        <time>2023-08-19T14:39:47Z</time>
      </trkpt>
      <trkpt lat="39.73093" lon="-2.35714">
        <ele>982.8</ele>
        <time>2023-08-19T14:39:51Z</time>
      </trkpt>
      <trkpt lat="39.73066" lon="-2.3572">
        <ele>982.3</ele>
        <time>2023-08-19T14:39:54Z</time>
      </trkpt>
      <trkpt lat="39.73038" lon="-2.3573">
        <ele>981.5</ele>
        <time>2023-08-19T14:39:58Z</time>
      </trkpt>
      <trkpt lat="39.73008" lon="-2.3574">
        <ele>980.3</ele>
        <time>2023-08-19T14:40:02Z</time>
      </trkpt>
      <trkpt lat="39.72978" lon="-2.35755">
        <ele>978.6</ele>
        <time>2023-08-19T14:40:06Z</time>
      </trkpt>
      <trkpt lat="39.72947" lon="-2.35769">
        <ele>979.4</ele>
        <time>2023-08-19T14:40:10Z</time>
      </trkpt>
      <trkpt lat="39.72925" lon="-2.35779">
        <ele>979.7</ele>
        <time>2023-08-19T14:40:13Z</time>
      </trkpt>
      <trkpt lat="39.72893" lon="-2.35794">
        <ele>978.1</ele>
        <time>2023-08-19T14:40:17Z</time>
      </trkpt>
      <trkpt lat="39.72863" lon="-2.3581">
        <ele>978.3</ele>
        <time>2023-08-19T14:40:21Z</time>
      </trkpt>
      <trkpt lat="39.72842" lon="-2.3582">
        <ele>977.9</ele>
        <time>2023-08-19T14:40:24Z</time>
      </trkpt>
      <trkpt lat="39.72813" lon="-2.35834">
        <ele>976.9</ele>
        <time>2023-08-19T14:40:28Z</time>
      </trkpt>
      <trkpt lat="39.72785" lon="-2.35848">
        <ele>976.8</ele>
        <time>2023-08-19T14:40:32Z</time>
      </trkpt>
      <trkpt lat="39.72757" lon="-2.35862">
        <ele>976.1</ele>
        <time>2023-08-19T14:40:36Z</time>
      </trkpt>
      <trkpt lat="39.7273" lon="-2.35877">
        <ele>975</ele>
        <time>2023-08-19T14:40:40Z</time>
      </trkpt>
      <trkpt lat="39.72704" lon="-2.35889">
        <ele>975.2</ele>
        <time>2023-08-19T14:40:44Z</time>
      </trkpt>
      <trkpt lat="39.72682" lon="-2.35899">
        <ele>974.8</ele>
        <time>2023-08-19T14:40:47Z</time>
      </trkpt>
      <trkpt lat="39.72652" lon="-2.35914">
        <ele>975</ele>
        <time>2023-08-19T14:40:51Z</time>
      </trkpt>
      <trkpt lat="39.72623" lon="-2.3593">
        <ele>973.1</ele>
        <time>2023-08-19T14:40:55Z</time>
      </trkpt>
      <trkpt lat="39.72604" lon="-2.3594">
        <ele>971.8</ele>
        <time>2023-08-19T14:40:58Z</time>
      </trkpt>
      <trkpt lat="39.72574" lon="-2.35955">
        <ele>970.9</ele>
        <time>2023-08-19T14:41:02Z</time>
      </trkpt>
      <trkpt lat="39.72543" lon="-2.35969">
        <ele>969.6</ele>
        <time>2023-08-19T14:41:06Z</time>
      </trkpt>
      <trkpt lat="39.72516" lon="-2.35982">
        <ele>968.9</ele>
        <time>2023-08-19T14:41:10Z</time>
      </trkpt>
      <trkpt lat="39.72487" lon="-2.35996">
        <ele>967.3</ele>
        <time>2023-08-19T14:41:14Z</time>
      </trkpt>
      <trkpt lat="39.72465" lon="-2.36005">
        <ele>967.6</ele>
        <time>2023-08-19T14:41:17Z</time>
      </trkpt>
      <trkpt lat="39.72442" lon="-2.36014">
        <ele>966.7</ele>
        <time>2023-08-19T14:41:20Z</time>
      </trkpt>
      <trkpt lat="39.72412" lon="-2.36025">
        <ele>965.1</ele>
        <time>2023-08-19T14:41:24Z</time>
      </trkpt>
      <trkpt lat="39.72381" lon="-2.36039">
        <ele>964</ele>
        <time>2023-08-19T14:41:28Z</time>
      </trkpt>
      <trkpt lat="39.72359" lon="-2.36052">
        <ele>963.4</ele>
        <time>2023-08-19T14:41:31Z</time>
      </trkpt>
      <trkpt lat="39.7234" lon="-2.36065">
        <ele>962.4</ele>
        <time>2023-08-19T14:41:34Z</time>
      </trkpt>
      <trkpt lat="39.72314" lon="-2.36084">
        <ele>962.7</ele>
        <time>2023-08-19T14:41:38Z</time>
      </trkpt>
      <trkpt lat="39.72296" lon="-2.36101">
        <ele>960.6</ele>
        <time>2023-08-19T14:41:41Z</time>
      </trkpt>
      <trkpt lat="39.72277" lon="-2.36118">
        <ele>960.8</ele>
        <time>2023-08-19T14:41:44Z</time>
      </trkpt>
      <trkpt lat="39.72252" lon="-2.36142">
        <ele>960.2</ele>
        <time>2023-08-19T14:41:48Z</time>
      </trkpt>
      <trkpt lat="39.72227" lon="-2.36171">
        <ele>958.5</ele>
        <time>2023-08-19T14:41:52Z</time>
      </trkpt>
      <trkpt lat="39.72208" lon="-2.36195">
        <ele>958.5</ele>
        <time>2023-08-19T14:41:55Z</time>
      </trkpt>
      <trkpt lat="39.72188" lon="-2.36216">
        <ele>957.2</ele>
        <time>2023-08-19T14:41:58Z</time>
      </trkpt>
      <trkpt lat="39.72167" lon="-2.36242">
        <ele>957.4</ele>
        <time>2023-08-19T14:42:02Z</time>
      </trkpt>
      <trkpt lat="39.72152" lon="-2.36262">
        <ele>955.4</ele>
        <time>2023-08-19T14:42:05Z</time>
      </trkpt>
      <trkpt lat="39.72136" lon="-2.36282">
        <ele>955</ele>
        <time>2023-08-19T14:42:08Z</time>
      </trkpt>
      <trkpt lat="39.72119" lon="-2.36304">
        <ele>952.8</ele>
        <time>2023-08-19T14:42:11Z</time>
      </trkpt>
      <trkpt lat="39.72099" lon="-2.36332">
        <ele>951.2</ele>
        <time>2023-08-19T14:42:15Z</time>
      </trkpt>
      <trkpt lat="39.72078" lon="-2.36356">
        <ele>949.7</ele>
        <time>2023-08-19T14:42:19Z</time>
      </trkpt>
      <trkpt lat="39.7205" lon="-2.36379">
        <ele>948.7</ele>
        <time>2023-08-19T14:42:23Z</time>
      </trkpt>
      <trkpt lat="39.72023" lon="-2.36399">
        <ele>946.2</ele>
        <time>2023-08-19T14:42:27Z</time>
      </trkpt>
      <trkpt lat="39.72002" lon="-2.36413">
        <ele>945.4</ele>
        <time>2023-08-19T14:42:30Z</time>
      </trkpt>
      <trkpt lat="39.71982" lon="-2.36426">
        <ele>944.6</ele>
        <time>2023-08-19T14:42:33Z</time>
      </trkpt>
      <trkpt lat="39.71956" lon="-2.3644">
        <ele>944.3</ele>
        <time>2023-08-19T14:42:37Z</time>
      </trkpt>
      <trkpt lat="39.71936" lon="-2.3645">
        <ele>942.5</ele>
        <time>2023-08-19T14:42:40Z</time>
      </trkpt>
      <trkpt lat="39.71906" lon="-2.3646">
        <ele>941.5</ele>
        <time>2023-08-19T14:42:44Z</time>
      </trkpt>
      <trkpt lat="39.71875" lon="-2.36464">
        <ele>940.5</ele>
        <time>2023-08-19T14:42:48Z</time>
      </trkpt>
      <trkpt lat="39.71853" lon="-2.36466">
        <ele>940.1</ele>
        <time>2023-08-19T14:42:51Z</time>
      </trkpt>
      <trkpt lat="39.71829" lon="-2.36467">
        <ele>938.5</ele>
        <time>2023-08-19T14:42:54Z</time>
      </trkpt>
      <trkpt lat="39.71805" lon="-2.36466">
        <ele>937.4</ele>
        <time>2023-08-19T14:42:57Z</time>
      </trkpt>
      <trkpt lat="39.71773" lon="-2.36463">
        <ele>936.5</ele>
        <time>2023-08-19T14:43:01Z</time>
      </trkpt>
      <trkpt lat="39.7175" lon="-2.36459">
        <ele>936.1</ele>
        <time>2023-08-19T14:43:04Z</time>
      </trkpt>
      <trkpt lat="39.71727" lon="-2.36454">
        <ele>934.5</ele>
        <time>2023-08-19T14:43:07Z</time>
      </trkpt>
      <trkpt lat="39.71703" lon="-2.36448">
        <ele>932.4</ele>
        <time>2023-08-19T14:43:10Z</time>
      </trkpt>
      <trkpt lat="39.71678" lon="-2.36443">
        <ele>931.5</ele>
        <time>2023-08-19T14:43:13Z</time>
      </trkpt>
      <trkpt lat="39.71647" lon="-2.36438">
        <ele>930.1</ele>
        <time>2023-08-19T14:43:17Z</time>
      </trkpt>
      <trkpt lat="39.71624" lon="-2.36436">
        <ele>928.5</ele>
        <time>2023-08-19T14:43:20Z</time>
      </trkpt>
      <trkpt lat="39.716" lon="-2.36434">
        <ele>926.4</ele>
        <time>2023-08-19T14:43:23Z</time>
      </trkpt>
      <trkpt lat="39.71578" lon="-2.36433">
        <ele>927.6</ele>
        <time>2023-08-19T14:43:26Z</time>
      </trkpt>
      <trkpt lat="39.71549" lon="-2.36433">
        <ele>925.9</ele>
        <time>2023-08-19T14:43:30Z</time>
      </trkpt>
      <trkpt lat="39.71526" lon="-2.36435">
        <ele>924.6</ele>
        <time>2023-08-19T14:43:33Z</time>
      </trkpt>
      <trkpt lat="39.71496" lon="-2.36437">
        <ele>923.6</ele>
        <time>2023-08-19T14:43:37Z</time>
      </trkpt>
      <trkpt lat="39.71471" lon="-2.36441">
        <ele>923.4</ele>
        <time>2023-08-19T14:43:40Z</time>
      </trkpt>
      <trkpt lat="39.71437" lon="-2.36445">
        <ele>922.1</ele>
        <time>2023-08-19T14:43:44Z</time>
      </trkpt>
      <trkpt lat="39.71413" lon="-2.36448">
        <ele>920.4</ele>
        <time>2023-08-19T14:43:47Z</time>
      </trkpt>
      <trkpt lat="39.71381" lon="-2.36453">
        <ele>919.7</ele>
        <time>2023-08-19T14:43:51Z</time>
      </trkpt>
      <trkpt lat="39.71351" lon="-2.36458">
        <ele>917.9</ele>
        <time>2023-08-19T14:43:55Z</time>
      </trkpt>
      <trkpt lat="39.71323" lon="-2.36464">
        <ele>916.5</ele>
        <time>2023-08-19T14:43:59Z</time>
      </trkpt>
      <trkpt lat="39.71292" lon="-2.36474">
        <ele>914.8</ele>
        <time>2023-08-19T14:44:03Z</time>
      </trkpt>
      <trkpt lat="39.7127" lon="-2.36484">
        <ele>913.5</ele>
        <time>2023-08-19T14:44:06Z</time>
      </trkpt>
      <trkpt lat="39.71242" lon="-2.36496">
        <ele>913.2</ele>
        <time>2023-08-19T14:44:10Z</time>
      </trkpt>
      <trkpt lat="39.71212" lon="-2.36514">
        <ele>912.5</ele>
        <time>2023-08-19T14:44:14Z</time>
      </trkpt>
      <trkpt lat="39.71182" lon="-2.36536">
        <ele>911.6</ele>
        <time>2023-08-19T14:44:18Z</time>
      </trkpt>
      <trkpt lat="39.71156" lon="-2.36558">
        <ele>912</ele>
        <time>2023-08-19T14:44:22Z</time>
      </trkpt>
      <trkpt lat="39.7114" lon="-2.36577">
        <ele>909.1</ele>
        <time>2023-08-19T14:44:25Z</time>
      </trkpt>
      <trkpt lat="39.71115" lon="-2.36599">
        <ele>907.3</ele>
        <time>2023-08-19T14:44:29Z</time>
      </trkpt>
      <trkpt lat="39.71089" lon="-2.36622">
        <ele>906.8</ele>
        <time>2023-08-19T14:44:33Z</time>
      </trkpt>
      <trkpt lat="39.71064" lon="-2.36644">
        <ele>907.6</ele>
        <time>2023-08-19T14:44:37Z</time>
      </trkpt>
      <trkpt lat="39.71045" lon="-2.36661">
        <ele>907.4</ele>
        <time>2023-08-19T14:44:40Z</time>
      </trkpt>
      <trkpt lat="39.7102" lon="-2.36681">
        <ele>905.8</ele>
        <time>2023-08-19T14:44:44Z</time>
      </trkpt>
      <trkpt lat="39.70995" lon="-2.36701">
        <ele>905.4</ele>
        <time>2023-08-19T14:44:48Z</time>
      </trkpt>
      <trkpt lat="39.7097" lon="-2.36723">
        <ele>903.5</ele>
        <time>2023-08-19T14:44:52Z</time>
      </trkpt>
      <trkpt lat="39.70943" lon="-2.36746">
        <ele>902.2</ele>
        <time>2023-08-19T14:44:56Z</time>
      </trkpt>
      <trkpt lat="39.70923" lon="-2.36763">
        <ele>903.2</ele>
        <time>2023-08-19T14:44:59Z</time>
      </trkpt>
      <trkpt lat="39.70903" lon="-2.36779">
        <ele>902.9</ele>
        <time>2023-08-19T14:45:02Z</time>
      </trkpt>
      <trkpt lat="39.70879" lon="-2.36801">
        <ele>904.5</ele>
        <time>2023-08-19T14:45:06Z</time>
      </trkpt>
      <trkpt lat="39.70861" lon="-2.36818">
        <ele>902.8</ele>
        <time>2023-08-19T14:45:09Z</time>
      </trkpt>
      <trkpt lat="39.70835" lon="-2.36839">
        <ele>902.9</ele>
        <time>2023-08-19T14:45:13Z</time>
      </trkpt>
      <trkpt lat="39.70809" lon="-2.36861">
        <ele>902.7</ele>
        <time>2023-08-19T14:45:17Z</time>
      </trkpt>
      <trkpt lat="39.7079" lon="-2.36878">
        <ele>902.6</ele>
        <time>2023-08-19T14:45:20Z</time>
      </trkpt>
      <trkpt lat="39.70763" lon="-2.36899">
        <ele>904.6</ele>
        <time>2023-08-19T14:45:24Z</time>
      </trkpt>
      <trkpt lat="39.70744" lon="-2.36914">
        <ele>904</ele>
        <time>2023-08-19T14:45:27Z</time>
      </trkpt>
      <trkpt lat="39.70724" lon="-2.36929">
        <ele>904.6</ele>
        <time>2023-08-19T14:45:30Z</time>
      </trkpt>
      <trkpt lat="39.70705" lon="-2.36943">
        <ele>905.4</ele>
        <time>2023-08-19T14:45:33Z</time>
      </trkpt>
      <trkpt lat="39.70677" lon="-2.3696">
        <ele>906.6</ele>
        <time>2023-08-19T14:45:37Z</time>
      </trkpt>
      <trkpt lat="39.70658" lon="-2.36973">
        <ele>907.8</ele>
        <time>2023-08-19T14:45:40Z</time>
      </trkpt>
      <trkpt lat="39.70631" lon="-2.36991">
        <ele>908.9</ele>
        <time>2023-08-19T14:45:44Z</time>
      </trkpt>
      <trkpt lat="39.70603" lon="-2.37008">
        <ele>909.9</ele>
        <time>2023-08-19T14:45:48Z</time>
      </trkpt>
      <trkpt lat="39.70577" lon="-2.37026">
        <ele>912.6</ele>
        <time>2023-08-19T14:45:52Z</time>
      </trkpt>
      <trkpt lat="39.70557" lon="-2.37039">
        <ele>913.3</ele>
        <time>2023-08-19T14:45:55Z</time>
      </trkpt>
      <trkpt lat="39.70537" lon="-2.37051">
        <ele>915.5</ele>
        <time>2023-08-19T14:45:58Z</time>
      </trkpt>
      <trkpt lat="39.7051" lon="-2.37068">
        <ele>917</ele>
        <time>2023-08-19T14:46:02Z</time>
      </trkpt>
      <trkpt lat="39.70482" lon="-2.37085">
        <ele>918.4</ele>
        <time>2023-08-19T14:46:06Z</time>
      </trkpt>
      <trkpt lat="39.70453" lon="-2.37102">
        <ele>920.4</ele>
        <time>2023-08-19T14:46:10Z</time>
      </trkpt>
      <trkpt lat="39.70424" lon="-2.37118">
        <ele>921.9</ele>
        <time>2023-08-19T14:46:14Z</time>
      </trkpt>
      <trkpt lat="39.70395" lon="-2.37133">
        <ele>923.4</ele>
        <time>2023-08-19T14:46:18Z</time>
      </trkpt>
      <trkpt lat="39.70373" lon="-2.37144">
        <ele>923.7</ele>
        <time>2023-08-19T14:46:21Z</time>
      </trkpt>
      <trkpt lat="39.70351" lon="-2.37155">
        <ele>924.4</ele>
        <time>2023-08-19T14:46:24Z</time>
      </trkpt>
      <trkpt lat="39.70322" lon="-2.37169">
        <ele>925.8</ele>
        <time>2023-08-19T14:46:28Z</time>
      </trkpt>
      <trkpt lat="39.703" lon="-2.37179">
        <ele>926.2</ele>
        <time>2023-08-19T14:46:31Z</time>
      </trkpt>
      <trkpt lat="39.70272" lon="-2.37193">
        <ele>926.5</ele>
        <time>2023-08-19T14:46:35Z</time>
      </trkpt>
      <trkpt lat="39.70243" lon="-2.37208">
        <ele>926.4</ele>
        <time>2023-08-19T14:46:39Z</time>
      </trkpt>
      <trkpt lat="39.70222" lon="-2.37219">
        <ele>927.1</ele>
        <time>2023-08-19T14:46:42Z</time>
      </trkpt>
      <trkpt lat="39.70192" lon="-2.37235">
        <ele>925.8</ele>
        <time>2023-08-19T14:46:46Z</time>
      </trkpt>
      <trkpt lat="39.70171" lon="-2.37246">
        <ele>925.4</ele>
        <time>2023-08-19T14:46:49Z</time>
      </trkpt>
      <trkpt lat="39.70142" lon="-2.37263">
        <ele>925.1</ele>
        <time>2023-08-19T14:46:53Z</time>
      </trkpt>
      <trkpt lat="39.70114" lon="-2.37278">
        <ele>926</ele>
        <time>2023-08-19T14:46:57Z</time>
      </trkpt>
      <trkpt lat="39.70084" lon="-2.37296">
        <ele>923.9</ele>
        <time>2023-08-19T14:47:01Z</time>
      </trkpt>
      <trkpt lat="39.70057" lon="-2.37315">
        <ele>922.5</ele>
        <time>2023-08-19T14:47:05Z</time>
      </trkpt>
      <trkpt lat="39.70029" lon="-2.37332">
        <ele>921</ele>
        <time>2023-08-19T14:47:09Z</time>
      </trkpt>
      <trkpt lat="39.70006" lon="-2.37345">
        <ele>920.2</ele>
        <time>2023-08-19T14:47:12Z</time>
      </trkpt>
      <trkpt lat="39.69979" lon="-2.37362">
        <ele>918.2</ele>
        <time>2023-08-19T14:47:16Z</time>
      </trkpt>
      <trkpt lat="39.69959" lon="-2.37374">
        <ele>918.7</ele>
        <time>2023-08-19T14:47:19Z</time>
      </trkpt>
      <trkpt lat="39.69931" lon="-2.37391">
        <ele>915.6</ele>
        <time>2023-08-19T14:47:23Z</time>
      </trkpt>
      <trkpt lat="39.69911" lon="-2.37405">
        <ele>915.2</ele>
        <time>2023-08-19T14:47:26Z</time>
      </trkpt>
      <trkpt lat="39.69883" lon="-2.37423">
        <ele>914.6</ele>
        <time>2023-08-19T14:47:30Z</time>
      </trkpt>
      <trkpt lat="39.69863" lon="-2.37435">
        <ele>913.8</ele>
        <time>2023-08-19T14:47:33Z</time>
      </trkpt>
      <trkpt lat="39.69843" lon="-2.37447">
        <ele>913.6</ele>
        <time>2023-08-19T14:47:36Z</time>
      </trkpt>
      <trkpt lat="39.69822" lon="-2.3746">
        <ele>914.2</ele>
        <time>2023-08-19T14:47:39Z</time>
      </trkpt>
      <trkpt lat="39.69803" lon="-2.37473">
        <ele>914.7</ele>
        <time>2023-08-19T14:47:42Z</time>
      </trkpt>
      <trkpt lat="39.69781" lon="-2.37485">
        <ele>914.4</ele>
        <time>2023-08-19T14:47:45Z</time>
      </trkpt>
      <trkpt lat="39.69752" lon="-2.37499">
        <ele>914.1</ele>
        <time>2023-08-19T14:47:49Z</time>
      </trkpt>
      <trkpt lat="39.69729" lon="-2.37509">
        <ele>913</ele>
        <time>2023-08-19T14:47:52Z</time>
      </trkpt>
      <trkpt lat="39.69706" lon="-2.37517">
        <ele>913.9</ele>
        <time>2023-08-19T14:47:55Z</time>
      </trkpt>
      <trkpt lat="39.69676" lon="-2.37526">
        <ele>915.3</ele>
        <time>2023-08-19T14:47:59Z</time>
      </trkpt>
      <trkpt lat="39.69645" lon="-2.37532">
        <ele>916.7</ele>
        <time>2023-08-19T14:48:03Z</time>
      </trkpt>
      <trkpt lat="39.69615" lon="-2.37534">
        <ele>916.9</ele>
        <time>2023-08-19T14:48:07Z</time>
      </trkpt>
      <trkpt lat="39.69582" lon="-2.37531">
        <ele>917.2</ele>
        <time>2023-08-19T14:48:11Z</time>
      </trkpt>
      <trkpt lat="39.69552" lon="-2.37526">
        <ele>915.2</ele>
        <time>2023-08-19T14:48:15Z</time>
      </trkpt>
      <trkpt lat="39.69531" lon="-2.37522">
        <ele>913.2</ele>
        <time>2023-08-19T14:48:18Z</time>
      </trkpt>
      <trkpt lat="39.69509" lon="-2.37518">
        <ele>913.2</ele>
        <time>2023-08-19T14:48:21Z</time>
      </trkpt>
      <trkpt lat="39.69487" lon="-2.37513">
        <ele>912.4</ele>
        <time>2023-08-19T14:48:24Z</time>
      </trkpt>
      <trkpt lat="39.69457" lon="-2.37507">
        <ele>910.5</ele>
        <time>2023-08-19T14:48:28Z</time>
      </trkpt>
      <trkpt lat="39.69434" lon="-2.37503">
        <ele>909.6</ele>
        <time>2023-08-19T14:48:31Z</time>
      </trkpt>
      <trkpt lat="39.69403" lon="-2.37497">
        <ele>907.4</ele>
        <time>2023-08-19T14:48:35Z</time>
      </trkpt>
      <trkpt lat="39.69372" lon="-2.37491">
        <ele>908.8</ele>
        <time>2023-08-19T14:48:39Z</time>
      </trkpt>
      <trkpt lat="39.69349" lon="-2.37489">
        <ele>907</ele>
        <time>2023-08-19T14:48:42Z</time>
      </trkpt>
      <trkpt lat="39.69326" lon="-2.3749">
        <ele>905.9</ele>
        <time>2023-08-19T14:48:45Z</time>
      </trkpt>
      <trkpt lat="39.69304" lon="-2.37493">
        <ele>905.5</ele>
        <time>2023-08-19T14:48:48Z</time>
      </trkpt>
      <trkpt lat="39.69281" lon="-2.37499">
        <ele>904</ele>
        <time>2023-08-19T14:48:51Z</time>
      </trkpt>
      <trkpt lat="39.6925" lon="-2.37509">
        <ele>903.4</ele>
        <time>2023-08-19T14:48:55Z</time>
      </trkpt>
      <trkpt lat="39.69221" lon="-2.37521">
        <ele>901.3</ele>
        <time>2023-08-19T14:48:59Z</time>
      </trkpt>
      <trkpt lat="39.69193" lon="-2.37537">
        <ele>899.6</ele>
        <time>2023-08-19T14:49:03Z</time>
      </trkpt>
      <trkpt lat="39.69166" lon="-2.3756">
        <ele>899.6</ele>
        <time>2023-08-19T14:49:07Z</time>
      </trkpt>
      <trkpt lat="39.69147" lon="-2.3758">
        <ele>897.5</ele>
        <time>2023-08-19T14:49:10Z</time>
      </trkpt>
      <trkpt lat="39.6913" lon="-2.37602">
        <ele>897.7</ele>
        <time>2023-08-19T14:49:13Z</time>
      </trkpt>
      <trkpt lat="39.69107" lon="-2.37632">
        <ele>897.4</ele>
        <time>2023-08-19T14:49:17Z</time>
      </trkpt>
      <trkpt lat="39.69088" lon="-2.37664">
        <ele>898.9</ele>
        <time>2023-08-19T14:49:21Z</time>
      </trkpt>
      <trkpt lat="39.69075" lon="-2.37689">
        <ele>898.4</ele>
        <time>2023-08-19T14:49:24Z</time>
      </trkpt>
      <trkpt lat="39.69059" lon="-2.37724">
        <ele>898.8</ele>
        <time>2023-08-19T14:49:28Z</time>
      </trkpt>
      <trkpt lat="39.69046" lon="-2.37751">
        <ele>898.1</ele>
        <time>2023-08-19T14:49:31Z</time>
      </trkpt>
      <trkpt lat="39.6903" lon="-2.37787">
        <ele>898.7</ele>
        <time>2023-08-19T14:49:35Z</time>
      </trkpt>
      <trkpt lat="39.69016" lon="-2.37818">
        <ele>898.4</ele>
        <time>2023-08-19T14:49:39Z</time>
      </trkpt>
      <trkpt lat="39.6899" lon="-2.37879">
        <ele>898.9</ele>
        <time>2023-08-19T14:49:47Z</time>
      </trkpt>
      <trkpt lat="39.68943" lon="-2.37996">
        <ele>900</ele>
        <time>2023-08-19T14:50:02Z</time>
      </trkpt>
      <trkpt lat="39.68934" lon="-2.38027">
        <ele>901.1</ele>
        <time>2023-08-19T14:50:05Z</time>
      </trkpt>
      <trkpt lat="39.6892" lon="-2.38068">
        <ele>901.9</ele>
        <time>2023-08-19T14:50:10Z</time>
      </trkpt>
      <trkpt lat="39.68909" lon="-2.381">
        <ele>902.2</ele>
        <time>2023-08-19T14:50:13Z</time>
      </trkpt>
      <trkpt lat="39.68857" lon="-2.38224">
        <ele>906.2</ele>
        <time>2023-08-19T14:50:25Z</time>
      </trkpt>
      <trkpt lat="39.68847" lon="-2.38273">
        <ele>905.8</ele>
        <time>2023-08-19T14:50:28Z</time>
      </trkpt>
      <trkpt lat="39.68836" lon="-2.3832">
        <ele>906.4</ele>
        <time>2023-08-19T14:50:32Z</time>
      </trkpt>
      <trkpt lat="39.68828" lon="-2.38357">
        <ele>907.2</ele>
        <time>2023-08-19T14:50:36Z</time>
      </trkpt>
      <trkpt lat="39.68822" lon="-2.38384">
        <ele>906.6</ele>
        <time>2023-08-19T14:50:39Z</time>
      </trkpt>
      <trkpt lat="39.68817" lon="-2.3841">
        <ele>907.7</ele>
        <time>2023-08-19T14:50:42Z</time>
      </trkpt>
      <trkpt lat="39.68813" lon="-2.38446">
        <ele>907.4</ele>
        <time>2023-08-19T14:50:46Z</time>
      </trkpt>
      <trkpt lat="39.68809" lon="-2.38471">
        <ele>908.3</ele>
        <time>2023-08-19T14:50:49Z</time>
      </trkpt>
      <trkpt lat="39.68801" lon="-2.38505">
        <ele>908.6</ele>
        <time>2023-08-19T14:50:53Z</time>
      </trkpt>
      <trkpt lat="39.68796" lon="-2.3853">
        <ele>908</ele>
        <time>2023-08-19T14:50:57Z</time>
      </trkpt>
      <trkpt lat="39.68794" lon="-2.38521">
        <ele>911.7</ele>
        <time>2023-08-19T14:51:09Z</time>
      </trkpt>
      <trkpt lat="39.68782" lon="-2.38513">
        <ele>907.5</ele>
        <time>2023-08-19T14:51:13Z</time>
      </trkpt>
      <trkpt lat="39.68766" lon="-2.38506">
        <ele>909.6</ele>
        <time>2023-08-19T14:51:17Z</time>
      </trkpt>
      <trkpt lat="39.68752" lon="-2.38503">
        <ele>909.6</ele>
        <time>2023-08-19T14:51:21Z</time>
      </trkpt>
      <trkpt lat="39.68733" lon="-2.38499">
        <ele>909.4</ele>
        <time>2023-08-19T14:51:25Z</time>
      </trkpt>
      <trkpt lat="39.68719" lon="-2.38497">
        <ele>910.1</ele>
        <time>2023-08-19T14:51:28Z</time>
      </trkpt>
      <trkpt lat="39.68698" lon="-2.38494">
        <ele>910.2</ele>
        <time>2023-08-19T14:51:32Z</time>
      </trkpt>
      <trkpt lat="39.68681" lon="-2.38492">
        <ele>910.5</ele>
        <time>2023-08-19T14:51:35Z</time>
      </trkpt>
      <trkpt lat="39.6866" lon="-2.38489">
        <ele>910.2</ele>
        <time>2023-08-19T14:51:39Z</time>
      </trkpt>
      <trkpt lat="39.68642" lon="-2.38489">
        <ele>912.2</ele>
        <time>2023-08-19T14:51:43Z</time>
      </trkpt>
      <trkpt lat="39.68632" lon="-2.38488">
        <ele>911.4</ele>
        <time>2023-08-19T14:51:47Z</time>
      </trkpt>
      <trkpt lat="39.68634" lon="-2.38491">
        <ele>910.9</ele>
        <time>2023-08-19T14:52:52Z</time>
      </trkpt>
      <trkpt lat="39.68628" lon="-2.3849">
        <ele>911.1</ele>
        <time>2023-08-19T14:52:55Z</time>
      </trkpt>
      <trkpt lat="39.68616" lon="-2.38487">
        <ele>911.8</ele>
        <time>2023-08-19T14:52:59Z</time>
      </trkpt>
      <trkpt lat="39.68604" lon="-2.38483">
        <ele>911.8</ele>
        <time>2023-08-19T14:53:02Z</time>
      </trkpt>
      <trkpt lat="39.68588" lon="-2.38481">
        <ele>912.9</ele>
        <time>2023-08-19T14:53:05Z</time>
      </trkpt>
      <trkpt lat="39.68562" lon="-2.38475">
        <ele>913.9</ele>
        <time>2023-08-19T14:53:09Z</time>
      </trkpt>
      <trkpt lat="39.68534" lon="-2.3847">
        <ele>914.3</ele>
        <time>2023-08-19T14:53:13Z</time>
      </trkpt>
      <trkpt lat="39.68514" lon="-2.38468">
        <ele>913.7</ele>
        <time>2023-08-19T14:53:16Z</time>
      </trkpt>
      <trkpt lat="39.68496" lon="-2.38466">
        <ele>914.1</ele>
        <time>2023-08-19T14:53:19Z</time>
      </trkpt>
      <trkpt lat="39.68477" lon="-2.3846">
        <ele>915.2</ele>
        <time>2023-08-19T14:53:23Z</time>
      </trkpt>
      <trkpt lat="39.68463" lon="-2.38455">
        <ele>915.2</ele>
        <time>2023-08-19T14:53:26Z</time>
      </trkpt>
      <trkpt lat="39.68442" lon="-2.38449">
        <ele>915.8</ele>
        <time>2023-08-19T14:53:30Z</time>
      </trkpt>
      <trkpt lat="39.68418" lon="-2.38434">
        <ele>917</ele>
        <time>2023-08-19T14:53:34Z</time>
      </trkpt>
      <trkpt lat="39.68394" lon="-2.38418">
        <ele>916.7</ele>
        <time>2023-08-19T14:53:37Z</time>
      </trkpt>
      <trkpt lat="39.6837" lon="-2.38402">
        <ele>917.6</ele>
        <time>2023-08-19T14:53:40Z</time>
      </trkpt>
      <trkpt lat="39.6834" lon="-2.38379">
        <ele>918</ele>
        <time>2023-08-19T14:53:44Z</time>
      </trkpt>
      <trkpt lat="39.68323" lon="-2.38364">
        <ele>917.8</ele>
        <time>2023-08-19T14:53:47Z</time>
      </trkpt>
      <trkpt lat="39.6831" lon="-2.3835">
        <ele>917.9</ele>
        <time>2023-08-19T14:53:50Z</time>
      </trkpt>
      <trkpt lat="39.68294" lon="-2.38333">
        <ele>919.9</ele>
        <time>2023-08-19T14:53:54Z</time>
      </trkpt>
      <trkpt lat="39.68279" lon="-2.38316">
        <ele>919.8</ele>
        <time>2023-08-19T14:53:57Z</time>
      </trkpt>
      <trkpt lat="39.68256" lon="-2.38292">
        <ele>919.8</ele>
        <time>2023-08-19T14:54:01Z</time>
      </trkpt>
      <trkpt lat="39.68236" lon="-2.38273">
        <ele>921</ele>
        <time>2023-08-19T14:54:04Z</time>
      </trkpt>
      <trkpt lat="39.6821" lon="-2.38245">
        <ele>919.2</ele>
        <time>2023-08-19T14:54:08Z</time>
      </trkpt>
      <trkpt lat="39.68184" lon="-2.38219">
        <ele>919.5</ele>
        <time>2023-08-19T14:54:12Z</time>
      </trkpt>
      <trkpt lat="39.68159" lon="-2.38194">
        <ele>918.6</ele>
        <time>2023-08-19T14:54:16Z</time>
      </trkpt>
      <trkpt lat="39.68135" lon="-2.3817">
        <ele>918.4</ele>
        <time>2023-08-19T14:54:20Z</time>
      </trkpt>
      <trkpt lat="39.68109" lon="-2.38148">
        <ele>918</ele>
        <time>2023-08-19T14:54:24Z</time>
      </trkpt>
      <trkpt lat="39.68082" lon="-2.38132">
        <ele>917.4</ele>
        <time>2023-08-19T14:54:28Z</time>
      </trkpt>
      <trkpt lat="39.68057" lon="-2.38125">
        <ele>919.4</ele>
        <time>2023-08-19T14:54:32Z</time>
      </trkpt>
      <trkpt lat="39.6804" lon="-2.38124">
        <ele>921.6</ele>
        <time>2023-08-19T14:54:35Z</time>
      </trkpt>
      <trkpt lat="39.68019" lon="-2.38125">
        <ele>922.2</ele>
        <time>2023-08-19T14:54:38Z</time>
      </trkpt>
      <trkpt lat="39.67999" lon="-2.3813">
        <ele>922.6</ele>
        <time>2023-08-19T14:54:41Z</time>
      </trkpt>
      <trkpt lat="39.67971" lon="-2.38138">
        <ele>923.6</ele>
        <time>2023-08-19T14:54:45Z</time>
      </trkpt>
      <trkpt lat="39.67949" lon="-2.38144">
        <ele>923.7</ele>
        <time>2023-08-19T14:54:48Z</time>
      </trkpt>
      <trkpt lat="39.67922" lon="-2.38146">
        <ele>922.6</ele>
        <time>2023-08-19T14:54:51Z</time>
      </trkpt>
      <trkpt lat="39.67886" lon="-2.3814">
        <ele>920.7</ele>
        <time>2023-08-19T14:54:55Z</time>
      </trkpt>
      <trkpt lat="39.67864" lon="-2.38129">
        <ele>920.2</ele>
        <time>2023-08-19T14:54:58Z</time>
      </trkpt>
      <trkpt lat="39.67847" lon="-2.38113">
        <ele>917.5</ele>
        <time>2023-08-19T14:55:01Z</time>
      </trkpt>
      <trkpt lat="39.67824" lon="-2.38084">
        <ele>917.6</ele>
        <time>2023-08-19T14:55:05Z</time>
      </trkpt>
      <trkpt lat="39.67805" lon="-2.3805">
        <ele>916.5</ele>
        <time>2023-08-19T14:55:09Z</time>
      </trkpt>
      <trkpt lat="39.67788" lon="-2.38013">
        <ele>915.2</ele>
        <time>2023-08-19T14:55:13Z</time>
      </trkpt>
      <trkpt lat="39.67777" lon="-2.37986">
        <ele>914.2</ele>
        <time>2023-08-19T14:55:16Z</time>
      </trkpt>
      <trkpt lat="39.67765" lon="-2.37962">
        <ele>913.7</ele>
        <time>2023-08-19T14:55:19Z</time>
      </trkpt>
      <trkpt lat="39.67748" lon="-2.37927">
        <ele>912.5</ele>
        <time>2023-08-19T14:55:23Z</time>
      </trkpt>
      <trkpt lat="39.67732" lon="-2.37906">
        <ele>912</ele>
        <time>2023-08-19T14:55:26Z</time>
      </trkpt>
      <trkpt lat="39.6771" lon="-2.3788">
        <ele>914.3</ele>
        <time>2023-08-19T14:55:30Z</time>
      </trkpt>
      <trkpt lat="39.67686" lon="-2.37856">
        <ele>913.5</ele>
        <time>2023-08-19T14:55:34Z</time>
      </trkpt>
      <trkpt lat="39.67659" lon="-2.37836">
        <ele>913.1</ele>
        <time>2023-08-19T14:55:38Z</time>
      </trkpt>
      <trkpt lat="39.67631" lon="-2.37819">
        <ele>913.1</ele>
        <time>2023-08-19T14:55:42Z</time>
      </trkpt>
      <trkpt lat="39.67602" lon="-2.37802">
        <ele>913.8</ele>
        <time>2023-08-19T14:55:46Z</time>
      </trkpt>
      <trkpt lat="39.67571" lon="-2.37785">
        <ele>914.2</ele>
        <time>2023-08-19T14:55:50Z</time>
      </trkpt>
      <trkpt lat="39.67548" lon="-2.37774">
        <ele>913.7</ele>
        <time>2023-08-19T14:55:53Z</time>
      </trkpt>
      <trkpt lat="39.67526" lon="-2.37764">
        <ele>913.9</ele>
        <time>2023-08-19T14:55:56Z</time>
      </trkpt>
      <trkpt lat="39.67495" lon="-2.37753">
        <ele>914.3</ele>
        <time>2023-08-19T14:56:00Z</time>
      </trkpt>
      <trkpt lat="39.67472" lon="-2.37745">
        <ele>915</ele>
        <time>2023-08-19T14:56:03Z</time>
      </trkpt>
      <trkpt lat="39.67448" lon="-2.37737">
        <ele>915.6</ele>
        <time>2023-08-19T14:56:06Z</time>
      </trkpt>
      <trkpt lat="39.67417" lon="-2.37726">
        <ele>915.9</ele>
        <time>2023-08-19T14:56:10Z</time>
      </trkpt>
      <trkpt lat="39.67385" lon="-2.37716">
        <ele>916.6</ele>
        <time>2023-08-19T14:56:14Z</time>
      </trkpt>
      <trkpt lat="39.67354" lon="-2.37706">
        <ele>917.5</ele>
        <time>2023-08-19T14:56:18Z</time>
      </trkpt>
      <trkpt lat="39.67322" lon="-2.37696">
        <ele>917.9</ele>
        <time>2023-08-19T14:56:22Z</time>
      </trkpt>
      <trkpt lat="39.67299" lon="-2.37688">
        <ele>918.3</ele>
        <time>2023-08-19T14:56:25Z</time>
      </trkpt>
      <trkpt lat="39.67267" lon="-2.37677">
        <ele>919.4</ele>
        <time>2023-08-19T14:56:29Z</time>
      </trkpt>
      <trkpt lat="39.67242" lon="-2.3767">
        <ele>920.6</ele>
        <time>2023-08-19T14:56:32Z</time>
      </trkpt>
      <trkpt lat="39.67212" lon="-2.3766">
        <ele>920.9</ele>
        <time>2023-08-19T14:56:36Z</time>
      </trkpt>
      <trkpt lat="39.67181" lon="-2.37649">
        <ele>921.6</ele>
        <time>2023-08-19T14:56:40Z</time>
      </trkpt>
      <trkpt lat="39.6715" lon="-2.37637">
        <ele>922.3</ele>
        <time>2023-08-19T14:56:44Z</time>
      </trkpt>
      <trkpt lat="39.67126" lon="-2.3763">
        <ele>922.6</ele>
        <time>2023-08-19T14:56:47Z</time>
      </trkpt>
      <trkpt lat="39.67103" lon="-2.37623">
        <ele>922.8</ele>
        <time>2023-08-19T14:56:50Z</time>
      </trkpt>
      <trkpt lat="39.67072" lon="-2.37614">
        <ele>922.2</ele>
        <time>2023-08-19T14:56:54Z</time>
      </trkpt>
      <trkpt lat="39.67039" lon="-2.37604">
        <ele>924.2</ele>
        <time>2023-08-19T14:56:58Z</time>
      </trkpt>
      <trkpt lat="39.67014" lon="-2.37598">
        <ele>924.4</ele>
        <time>2023-08-19T14:57:01Z</time>
      </trkpt>
      <trkpt lat="39.66981" lon="-2.37592">
        <ele>924.5</ele>
        <time>2023-08-19T14:57:05Z</time>
      </trkpt>
      <trkpt lat="39.66958" lon="-2.37588">
        <ele>924.8</ele>
        <time>2023-08-19T14:57:08Z</time>
      </trkpt>
      <trkpt lat="39.66928" lon="-2.37584">
        <ele>926.6</ele>
        <time>2023-08-19T14:57:12Z</time>
      </trkpt>
      <trkpt lat="39.66897" lon="-2.37578">
        <ele>929</ele>
        <time>2023-08-19T14:57:16Z</time>
      </trkpt>
      <trkpt lat="39.66867" lon="-2.37573">
        <ele>930.7</ele>
        <time>2023-08-19T14:57:20Z</time>
      </trkpt>
      <trkpt lat="39.66834" lon="-2.37568">
        <ele>932.9</ele>
        <time>2023-08-19T14:57:24Z</time>
      </trkpt>
      <trkpt lat="39.66811" lon="-2.37564">
        <ele>935.2</ele>
        <time>2023-08-19T14:57:27Z</time>
      </trkpt>
      <trkpt lat="39.66787" lon="-2.37559">
        <ele>935.6</ele>
        <time>2023-08-19T14:57:30Z</time>
      </trkpt>
      <trkpt lat="39.66764" lon="-2.37557">
        <ele>936.7</ele>
        <time>2023-08-19T14:57:33Z</time>
      </trkpt>
      <trkpt lat="39.66745" lon="-2.37562">
        <ele>937.8</ele>
        <time>2023-08-19T14:57:36Z</time>
      </trkpt>
      <trkpt lat="39.6673" lon="-2.37581">
        <ele>937.6</ele>
        <time>2023-08-19T14:57:40Z</time>
      </trkpt>
      <trkpt lat="39.66728" lon="-2.37609">
        <ele>939.2</ele>
        <time>2023-08-19T14:57:44Z</time>
      </trkpt>
      <trkpt lat="39.66718" lon="-2.37631">
        <ele>937.5</ele>
        <time>2023-08-19T14:57:48Z</time>
      </trkpt>
      <trkpt lat="39.66705" lon="-2.37647">
        <ele>936.9</ele>
        <time>2023-08-19T14:57:51Z</time>
      </trkpt>
      <trkpt lat="39.66695" lon="-2.37675">
        <ele>938</ele>
        <time>2023-08-19T14:57:55Z</time>
      </trkpt>
      <trkpt lat="39.66691" lon="-2.37703">
        <ele>939.2</ele>
        <time>2023-08-19T14:57:58Z</time>
      </trkpt>
      <trkpt lat="39.66684" lon="-2.37742">
        <ele>940</ele>
        <time>2023-08-19T14:58:02Z</time>
      </trkpt>
      <trkpt lat="39.6668" lon="-2.37768">
        <ele>941.2</ele>
        <time>2023-08-19T14:58:05Z</time>
      </trkpt>
      <trkpt lat="39.66674" lon="-2.37804">
        <ele>942.4</ele>
        <time>2023-08-19T14:58:09Z</time>
      </trkpt>
      <trkpt lat="39.66667" lon="-2.37835">
        <ele>942.5</ele>
        <time>2023-08-19T14:58:12Z</time>
      </trkpt>
      <trkpt lat="39.66661" lon="-2.37866">
        <ele>944.1</ele>
        <time>2023-08-19T14:58:15Z</time>
      </trkpt>
      <trkpt lat="39.66653" lon="-2.37902">
        <ele>944.6</ele>
        <time>2023-08-19T14:58:19Z</time>
      </trkpt>
      <trkpt lat="39.66646" lon="-2.37938">
        <ele>943.8</ele>
        <time>2023-08-19T14:58:23Z</time>
      </trkpt>
      <trkpt lat="39.66637" lon="-2.37975">
        <ele>945</ele>
        <time>2023-08-19T14:58:27Z</time>
      </trkpt>
      <trkpt lat="39.66629" lon="-2.38012">
        <ele>945.6</ele>
        <time>2023-08-19T14:58:31Z</time>
      </trkpt>
      <trkpt lat="39.66623" lon="-2.3804">
        <ele>946.6</ele>
        <time>2023-08-19T14:58:34Z</time>
      </trkpt>
      <trkpt lat="39.66615" lon="-2.38077">
        <ele>947.8</ele>
        <time>2023-08-19T14:58:38Z</time>
      </trkpt>
      <trkpt lat="39.6661" lon="-2.38103">
        <ele>947.9</ele>
        <time>2023-08-19T14:58:41Z</time>
      </trkpt>
      <trkpt lat="39.66605" lon="-2.38141">
        <ele>949.5</ele>
        <time>2023-08-19T14:58:45Z</time>
      </trkpt>
      <trkpt lat="39.66603" lon="-2.3817">
        <ele>950.2</ele>
        <time>2023-08-19T14:58:48Z</time>
      </trkpt>
      <trkpt lat="39.66601" lon="-2.38211">
        <ele>950.8</ele>
        <time>2023-08-19T14:58:52Z</time>
      </trkpt>
      <trkpt lat="39.66601" lon="-2.38241">
        <ele>952.1</ele>
        <time>2023-08-19T14:58:55Z</time>
      </trkpt>
      <trkpt lat="39.66602" lon="-2.38282">
        <ele>954.6</ele>
        <time>2023-08-19T14:58:59Z</time>
      </trkpt>
      <trkpt lat="39.66605" lon="-2.38321">
        <ele>957.1</ele>
        <time>2023-08-19T14:59:03Z</time>
      </trkpt>
      <trkpt lat="39.66607" lon="-2.38349">
        <ele>958.3</ele>
        <time>2023-08-19T14:59:06Z</time>
      </trkpt>
      <trkpt lat="39.66611" lon="-2.38388">
        <ele>960.3</ele>
        <time>2023-08-19T14:59:10Z</time>
      </trkpt>
      <trkpt lat="39.66614" lon="-2.38427">
        <ele>962</ele>
        <time>2023-08-19T14:59:14Z</time>
      </trkpt>
      <trkpt lat="39.66616" lon="-2.38455">
        <ele>963.9</ele>
        <time>2023-08-19T14:59:17Z</time>
      </trkpt>
      <trkpt lat="39.66614" lon="-2.38492">
        <ele>962.7</ele>
        <time>2023-08-19T14:59:21Z</time>
      </trkpt>
      <trkpt lat="39.6661" lon="-2.3853">
        <ele>967.1</ele>
        <time>2023-08-19T14:59:25Z</time>
      </trkpt>
      <trkpt lat="39.66603" lon="-2.38566">
        <ele>968.8</ele>
        <time>2023-08-19T14:59:29Z</time>
      </trkpt>
      <trkpt lat="39.66594" lon="-2.38604">
        <ele>971.5</ele>
        <time>2023-08-19T14:59:33Z</time>
      </trkpt>
      <trkpt lat="39.66582" lon="-2.38639">
        <ele>972.9</ele>
        <time>2023-08-19T14:59:37Z</time>
      </trkpt>
      <trkpt lat="39.66567" lon="-2.38673">
        <ele>974.8</ele>
        <time>2023-08-19T14:59:41Z</time>
      </trkpt>
      <trkpt lat="39.66552" lon="-2.38699">
        <ele>975.3</ele>
        <time>2023-08-19T14:59:44Z</time>
      </trkpt>
      <trkpt lat="39.66536" lon="-2.38722">
        <ele>974.7</ele>
        <time>2023-08-19T14:59:47Z</time>
      </trkpt>
      <trkpt lat="39.6652" lon="-2.38744">
        <ele>975.4</ele>
        <time>2023-08-19T14:59:50Z</time>
      </trkpt>
      <trkpt lat="39.66495" lon="-2.3877">
        <ele>976.8</ele>
        <time>2023-08-19T14:59:54Z</time>
      </trkpt>
      <trkpt lat="39.66474" lon="-2.38789">
        <ele>977.7</ele>
        <time>2023-08-19T14:59:57Z</time>
      </trkpt>
      <trkpt lat="39.66446" lon="-2.3881">
        <ele>977.4</ele>
        <time>2023-08-19T15:00:01Z</time>
      </trkpt>
      <trkpt lat="39.66425" lon="-2.38822">
        <ele>978.1</ele>
        <time>2023-08-19T15:00:04Z</time>
      </trkpt>
      <trkpt lat="39.66403" lon="-2.38834">
        <ele>977.6</ele>
        <time>2023-08-19T15:00:07Z</time>
      </trkpt>
      <trkpt lat="39.66374" lon="-2.38845">
        <ele>977.1</ele>
        <time>2023-08-19T15:00:11Z</time>
      </trkpt>
      <trkpt lat="39.66351" lon="-2.38853">
        <ele>975.2</ele>
        <time>2023-08-19T15:00:14Z</time>
      </trkpt>
      <trkpt lat="39.6632" lon="-2.3886">
        <ele>975.8</ele>
        <time>2023-08-19T15:00:18Z</time>
      </trkpt>
      <trkpt lat="39.66288" lon="-2.38866">
        <ele>973.6</ele>
        <time>2023-08-19T15:00:22Z</time>
      </trkpt>
      <trkpt lat="39.66263" lon="-2.38869">
        <ele>973.7</ele>
        <time>2023-08-19T15:00:25Z</time>
      </trkpt>
      <trkpt lat="39.6624" lon="-2.38871">
        <ele>973.1</ele>
        <time>2023-08-19T15:00:28Z</time>
      </trkpt>
      <trkpt lat="39.66216" lon="-2.38872">
        <ele>971.6</ele>
        <time>2023-08-19T15:00:31Z</time>
      </trkpt>
      <trkpt lat="39.66185" lon="-2.38876">
        <ele>968.3</ele>
        <time>2023-08-19T15:00:35Z</time>
      </trkpt>
      <trkpt lat="39.66162" lon="-2.3888">
        <ele>966.4</ele>
        <time>2023-08-19T15:00:38Z</time>
      </trkpt>
      <trkpt lat="39.66131" lon="-2.38886">
        <ele>966.1</ele>
        <time>2023-08-19T15:00:42Z</time>
      </trkpt>
      <trkpt lat="39.66101" lon="-2.38897">
        <ele>963.5</ele>
        <time>2023-08-19T15:00:46Z</time>
      </trkpt>
      <trkpt lat="39.66079" lon="-2.38908">
        <ele>963.3</ele>
        <time>2023-08-19T15:00:49Z</time>
      </trkpt>
      <trkpt lat="39.66051" lon="-2.38927">
        <ele>961.1</ele>
        <time>2023-08-19T15:00:53Z</time>
      </trkpt>
      <trkpt lat="39.66026" lon="-2.38949">
        <ele>960.3</ele>
        <time>2023-08-19T15:00:57Z</time>
      </trkpt>
      <trkpt lat="39.66011" lon="-2.3897">
        <ele>958.8</ele>
        <time>2023-08-19T15:01:00Z</time>
      </trkpt>
      <trkpt lat="39.65993" lon="-2.39008">
        <ele>955.7</ele>
        <time>2023-08-19T15:01:05Z</time>
      </trkpt>
      <trkpt lat="39.6598" lon="-2.39041">
        <ele>954.2</ele>
        <time>2023-08-19T15:01:09Z</time>
      </trkpt>
      <trkpt lat="39.65963" lon="-2.39079">
        <ele>951</ele>
        <time>2023-08-19T15:01:13Z</time>
      </trkpt>
      <trkpt lat="39.65949" lon="-2.39108">
        <ele>950.4</ele>
        <time>2023-08-19T15:01:16Z</time>
      </trkpt>
      <trkpt lat="39.6593" lon="-2.39144">
        <ele>949.3</ele>
        <time>2023-08-19T15:01:20Z</time>
      </trkpt>
      <trkpt lat="39.65917" lon="-2.39168">
        <ele>948.8</ele>
        <time>2023-08-19T15:01:23Z</time>
      </trkpt>
      <trkpt lat="39.65903" lon="-2.39192">
        <ele>948.7</ele>
        <time>2023-08-19T15:01:26Z</time>
      </trkpt>
      <trkpt lat="39.65883" lon="-2.39218">
        <ele>948.4</ele>
        <time>2023-08-19T15:01:30Z</time>
      </trkpt>
      <trkpt lat="39.65865" lon="-2.39236">
        <ele>949.7</ele>
        <time>2023-08-19T15:01:33Z</time>
      </trkpt>
      <trkpt lat="39.65848" lon="-2.39253">
        <ele>948.4</ele>
        <time>2023-08-19T15:01:36Z</time>
      </trkpt>
      <trkpt lat="39.65822" lon="-2.39273">
        <ele>948.2</ele>
        <time>2023-08-19T15:01:40Z</time>
      </trkpt>
      <trkpt lat="39.658" lon="-2.39283">
        <ele>949.4</ele>
        <time>2023-08-19T15:01:43Z</time>
      </trkpt>
      <trkpt lat="39.65778" lon="-2.39291">
        <ele>950.1</ele>
        <time>2023-08-19T15:01:46Z</time>
      </trkpt>
      <trkpt lat="39.65746" lon="-2.39298">
        <ele>951.8</ele>
        <time>2023-08-19T15:01:50Z</time>
      </trkpt>
      <trkpt lat="39.65717" lon="-2.39303">
        <ele>953</ele>
        <time>2023-08-19T15:01:54Z</time>
      </trkpt>
      <trkpt lat="39.65689" lon="-2.39304">
        <ele>955</ele>
        <time>2023-08-19T15:01:58Z</time>
      </trkpt>
      <trkpt lat="39.65662" lon="-2.39304">
        <ele>955.8</ele>
        <time>2023-08-19T15:02:02Z</time>
      </trkpt>
      <trkpt lat="39.65641" lon="-2.39305">
        <ele>956.8</ele>
        <time>2023-08-19T15:02:05Z</time>
      </trkpt>
      <trkpt lat="39.65619" lon="-2.39306">
        <ele>956.2</ele>
        <time>2023-08-19T15:02:08Z</time>
      </trkpt>
      <trkpt lat="39.65587" lon="-2.39311">
        <ele>956.6</ele>
        <time>2023-08-19T15:02:12Z</time>
      </trkpt>
      <trkpt lat="39.65552" lon="-2.39323">
        <ele>958</ele>
        <time>2023-08-19T15:02:16Z</time>
      </trkpt>
      <trkpt lat="39.65527" lon="-2.39334">
        <ele>958.8</ele>
        <time>2023-08-19T15:02:19Z</time>
      </trkpt>
      <trkpt lat="39.65505" lon="-2.39348">
        <ele>958.8</ele>
        <time>2023-08-19T15:02:22Z</time>
      </trkpt>
      <trkpt lat="39.65487" lon="-2.39365">
        <ele>958.5</ele>
        <time>2023-08-19T15:02:25Z</time>
      </trkpt>
      <trkpt lat="39.65463" lon="-2.39392">
        <ele>958</ele>
        <time>2023-08-19T15:02:29Z</time>
      </trkpt>
      <trkpt lat="39.65437" lon="-2.39422">
        <ele>958.5</ele>
        <time>2023-08-19T15:02:33Z</time>
      </trkpt>
      <trkpt lat="39.65423" lon="-2.39444">
        <ele>956.8</ele>
        <time>2023-08-19T15:02:36Z</time>
      </trkpt>
      <trkpt lat="39.65403" lon="-2.39475">
        <ele>956.3</ele>
        <time>2023-08-19T15:02:40Z</time>
      </trkpt>
      <trkpt lat="39.6539" lon="-2.395">
        <ele>955.4</ele>
        <time>2023-08-19T15:02:43Z</time>
      </trkpt>
      <trkpt lat="39.65371" lon="-2.39532">
        <ele>954.6</ele>
        <time>2023-08-19T15:02:47Z</time>
      </trkpt>
      <trkpt lat="39.65352" lon="-2.3956">
        <ele>953.1</ele>
        <time>2023-08-19T15:02:51Z</time>
      </trkpt>
      <trkpt lat="39.65335" lon="-2.3958">
        <ele>953.5</ele>
        <time>2023-08-19T15:02:54Z</time>
      </trkpt>
      <trkpt lat="39.65319" lon="-2.39598">
        <ele>953.2</ele>
        <time>2023-08-19T15:02:57Z</time>
      </trkpt>
      <trkpt lat="39.65303" lon="-2.39615">
        <ele>954.1</ele>
        <time>2023-08-19T15:03:00Z</time>
      </trkpt>
      <trkpt lat="39.65279" lon="-2.39639">
        <ele>953.5</ele>
        <time>2023-08-19T15:03:04Z</time>
      </trkpt>
      <trkpt lat="39.65258" lon="-2.39655">
        <ele>954.5</ele>
        <time>2023-08-19T15:03:07Z</time>
      </trkpt>
      <trkpt lat="39.6523" lon="-2.39674">
        <ele>954.6</ele>
        <time>2023-08-19T15:03:11Z</time>
      </trkpt>
      <trkpt lat="39.65211" lon="-2.39685">
        <ele>955.4</ele>
        <time>2023-08-19T15:03:14Z</time>
      </trkpt>
      <trkpt lat="39.65191" lon="-2.39696">
        <ele>957.4</ele>
        <time>2023-08-19T15:03:17Z</time>
      </trkpt>
      <trkpt lat="39.65166" lon="-2.39711">
        <ele>958.1</ele>
        <time>2023-08-19T15:03:21Z</time>
      </trkpt>
      <trkpt lat="39.65139" lon="-2.39726">
        <ele>961.3</ele>
        <time>2023-08-19T15:03:25Z</time>
      </trkpt>
      <trkpt lat="39.65113" lon="-2.39742">
        <ele>962.8</ele>
        <time>2023-08-19T15:03:29Z</time>
      </trkpt>
      <trkpt lat="39.65092" lon="-2.39755">
        <ele>963.9</ele>
        <time>2023-08-19T15:03:32Z</time>
      </trkpt>
      <trkpt lat="39.65063" lon="-2.39771">
        <ele>964.8</ele>
        <time>2023-08-19T15:03:36Z</time>
      </trkpt>
      <trkpt lat="39.65041" lon="-2.39785">
        <ele>967.3</ele>
        <time>2023-08-19T15:03:39Z</time>
      </trkpt>
      <trkpt lat="39.6502" lon="-2.39799">
        <ele>968.1</ele>
        <time>2023-08-19T15:03:42Z</time>
      </trkpt>
      <trkpt lat="39.6499" lon="-2.39817">
        <ele>971</ele>
        <time>2023-08-19T15:03:46Z</time>
      </trkpt>
      <trkpt lat="39.6497" lon="-2.3983">
        <ele>973.3</ele>
        <time>2023-08-19T15:03:49Z</time>
      </trkpt>
      <trkpt lat="39.64942" lon="-2.39847">
        <ele>974.9</ele>
        <time>2023-08-19T15:03:53Z</time>
      </trkpt>
      <trkpt lat="39.64921" lon="-2.3986">
        <ele>976.5</ele>
        <time>2023-08-19T15:03:56Z</time>
      </trkpt>
      <trkpt lat="39.64894" lon="-2.39876">
        <ele>977.9</ele>
        <time>2023-08-19T15:04:00Z</time>
      </trkpt>
      <trkpt lat="39.64873" lon="-2.39888">
        <ele>978</ele>
        <time>2023-08-19T15:04:03Z</time>
      </trkpt>
      <trkpt lat="39.64843" lon="-2.39907">
        <ele>979.7</ele>
        <time>2023-08-19T15:04:07Z</time>
      </trkpt>
      <trkpt lat="39.64816" lon="-2.39923">
        <ele>979.2</ele>
        <time>2023-08-19T15:04:11Z</time>
      </trkpt>
      <trkpt lat="39.64789" lon="-2.39939">
        <ele>981.3</ele>
        <time>2023-08-19T15:04:15Z</time>
      </trkpt>
      <trkpt lat="39.64767" lon="-2.39952">
        <ele>982</ele>
        <time>2023-08-19T15:04:18Z</time>
      </trkpt>
      <trkpt lat="39.64739" lon="-2.3997">
        <ele>982.7</ele>
        <time>2023-08-19T15:04:22Z</time>
      </trkpt>
      <trkpt lat="39.64711" lon="-2.39987">
        <ele>983.1</ele>
        <time>2023-08-19T15:04:26Z</time>
      </trkpt>
      <trkpt lat="39.64691" lon="-2.4">
        <ele>985.6</ele>
        <time>2023-08-19T15:04:29Z</time>
      </trkpt>
      <trkpt lat="39.6467" lon="-2.40013">
        <ele>984.7</ele>
        <time>2023-08-19T15:04:32Z</time>
      </trkpt>
      <trkpt lat="39.6465" lon="-2.40025">
        <ele>985.7</ele>
        <time>2023-08-19T15:04:35Z</time>
      </trkpt>
      <trkpt lat="39.64622" lon="-2.40043">
        <ele>987.4</ele>
        <time>2023-08-19T15:04:39Z</time>
      </trkpt>
      <trkpt lat="39.64603" lon="-2.40055">
        <ele>988.6</ele>
        <time>2023-08-19T15:04:42Z</time>
      </trkpt>
      <trkpt lat="39.64576" lon="-2.40071">
        <ele>988.9</ele>
        <time>2023-08-19T15:04:46Z</time>
      </trkpt>
      <trkpt lat="39.64547" lon="-2.4009">
        <ele>991.7</ele>
        <time>2023-08-19T15:04:50Z</time>
      </trkpt>
      <trkpt lat="39.6452" lon="-2.40105">
        <ele>991.4</ele>
        <time>2023-08-19T15:04:54Z</time>
      </trkpt>
      <trkpt lat="39.64492" lon="-2.40122">
        <ele>991.1</ele>
        <time>2023-08-19T15:04:58Z</time>
      </trkpt>
      <trkpt lat="39.64471" lon="-2.40134">
        <ele>992.3</ele>
        <time>2023-08-19T15:05:01Z</time>
      </trkpt>
      <trkpt lat="39.64445" lon="-2.40151">
        <ele>995</ele>
        <time>2023-08-19T15:05:05Z</time>
      </trkpt>
      <trkpt lat="39.64419" lon="-2.40169">
        <ele>994.9</ele>
        <time>2023-08-19T15:05:09Z</time>
      </trkpt>
      <trkpt lat="39.64388" lon="-2.40186">
        <ele>995.2</ele>
        <time>2023-08-19T15:05:13Z</time>
      </trkpt>
      <trkpt lat="39.64366" lon="-2.402">
        <ele>997</ele>
        <time>2023-08-19T15:05:16Z</time>
      </trkpt>
      <trkpt lat="39.64339" lon="-2.40216">
        <ele>996.7</ele>
        <time>2023-08-19T15:05:20Z</time>
      </trkpt>
      <trkpt lat="39.64318" lon="-2.4023">
        <ele>995.7</ele>
        <time>2023-08-19T15:05:23Z</time>
      </trkpt>
      <trkpt lat="39.64297" lon="-2.40244">
        <ele>995.6</ele>
        <time>2023-08-19T15:05:26Z</time>
      </trkpt>
      <trkpt lat="39.64268" lon="-2.40261">
        <ele>995.9</ele>
        <time>2023-08-19T15:05:30Z</time>
      </trkpt>
      <trkpt lat="39.64239" lon="-2.40279">
        <ele>995.6</ele>
        <time>2023-08-19T15:05:34Z</time>
      </trkpt>
      <trkpt lat="39.64211" lon="-2.40296">
        <ele>995.1</ele>
        <time>2023-08-19T15:05:38Z</time>
      </trkpt>
      <trkpt lat="39.64175" lon="-2.4032">
        <ele>995.2</ele>
        <time>2023-08-19T15:05:43Z</time>
      </trkpt>
      <trkpt lat="39.64155" lon="-2.40334">
        <ele>993.7</ele>
        <time>2023-08-19T15:05:46Z</time>
      </trkpt>
      <trkpt lat="39.64134" lon="-2.4035">
        <ele>993.4</ele>
        <time>2023-08-19T15:05:49Z</time>
      </trkpt>
      <trkpt lat="39.6411" lon="-2.40371">
        <ele>993.3</ele>
        <time>2023-08-19T15:05:53Z</time>
      </trkpt>
      <trkpt lat="39.6409" lon="-2.40388">
        <ele>992.1</ele>
        <time>2023-08-19T15:05:56Z</time>
      </trkpt>
      <trkpt lat="39.64065" lon="-2.40412">
        <ele>991.4</ele>
        <time>2023-08-19T15:06:00Z</time>
      </trkpt>
      <trkpt lat="39.64048" lon="-2.4043">
        <ele>991.5</ele>
        <time>2023-08-19T15:06:03Z</time>
      </trkpt>
      <trkpt lat="39.64031" lon="-2.4045">
        <ele>991.7</ele>
        <time>2023-08-19T15:06:06Z</time>
      </trkpt>
      <trkpt lat="39.64013" lon="-2.40469">
        <ele>991.7</ele>
        <time>2023-08-19T15:06:09Z</time>
      </trkpt>
      <trkpt lat="39.63994" lon="-2.40488">
        <ele>990.5</ele>
        <time>2023-08-19T15:06:12Z</time>
      </trkpt>
      <trkpt lat="39.6397" lon="-2.40513">
        <ele>990.3</ele>
        <time>2023-08-19T15:06:16Z</time>
      </trkpt>
      <trkpt lat="39.63945" lon="-2.40539">
        <ele>989.6</ele>
        <time>2023-08-19T15:06:20Z</time>
      </trkpt>
      <trkpt lat="39.63921" lon="-2.40563">
        <ele>989.3</ele>
        <time>2023-08-19T15:06:24Z</time>
      </trkpt>
      <trkpt lat="39.63898" lon="-2.40589">
        <ele>988.2</ele>
        <time>2023-08-19T15:06:28Z</time>
      </trkpt>
      <trkpt lat="39.6388" lon="-2.40609">
        <ele>987.9</ele>
        <time>2023-08-19T15:06:31Z</time>
      </trkpt>
      <trkpt lat="39.63857" lon="-2.40633">
        <ele>986.6</ele>
        <time>2023-08-19T15:06:35Z</time>
      </trkpt>
      <trkpt lat="39.63839" lon="-2.40651">
        <ele>987</ele>
        <time>2023-08-19T15:06:38Z</time>
      </trkpt>
      <trkpt lat="39.6382" lon="-2.40669">
        <ele>986.1</ele>
        <time>2023-08-19T15:06:41Z</time>
      </trkpt>
      <trkpt lat="39.638" lon="-2.4069">
        <ele>986.6</ele>
        <time>2023-08-19T15:06:44Z</time>
      </trkpt>
      <trkpt lat="39.63774" lon="-2.40718">
        <ele>986.5</ele>
        <time>2023-08-19T15:06:48Z</time>
      </trkpt>
      <trkpt lat="39.63749" lon="-2.40745">
        <ele>985.6</ele>
        <time>2023-08-19T15:06:52Z</time>
      </trkpt>
      <trkpt lat="39.63732" lon="-2.40764">
        <ele>984</ele>
        <time>2023-08-19T15:06:55Z</time>
      </trkpt>
      <trkpt lat="39.63714" lon="-2.40782">
        <ele>985.5</ele>
        <time>2023-08-19T15:06:58Z</time>
      </trkpt>
      <trkpt lat="39.63696" lon="-2.408">
        <ele>984.4</ele>
        <time>2023-08-19T15:07:01Z</time>
      </trkpt>
      <trkpt lat="39.6368" lon="-2.40818">
        <ele>983.8</ele>
        <time>2023-08-19T15:07:04Z</time>
      </trkpt>
      <trkpt lat="39.63657" lon="-2.40843">
        <ele>982.6</ele>
        <time>2023-08-19T15:07:08Z</time>
      </trkpt>
      <trkpt lat="39.63639" lon="-2.40862">
        <ele>982</ele>
        <time>2023-08-19T15:07:11Z</time>
      </trkpt>
      <trkpt lat="39.63615" lon="-2.40887">
        <ele>981.7</ele>
        <time>2023-08-19T15:07:15Z</time>
      </trkpt>
      <trkpt lat="39.63591" lon="-2.40913">
        <ele>980.4</ele>
        <time>2023-08-19T15:07:19Z</time>
      </trkpt>
      <trkpt lat="39.63566" lon="-2.40938">
        <ele>978.7</ele>
        <time>2023-08-19T15:07:23Z</time>
      </trkpt>
      <trkpt lat="39.63544" lon="-2.40959">
        <ele>977</ele>
        <time>2023-08-19T15:07:27Z</time>
      </trkpt>
      <trkpt lat="39.63527" lon="-2.40979">
        <ele>976</ele>
        <time>2023-08-19T15:07:30Z</time>
      </trkpt>
      <trkpt lat="39.63502" lon="-2.41008">
        <ele>974.3</ele>
        <time>2023-08-19T15:07:34Z</time>
      </trkpt>
      <trkpt lat="39.63483" lon="-2.41029">
        <ele>974.1</ele>
        <time>2023-08-19T15:07:37Z</time>
      </trkpt>
      <trkpt lat="39.63466" lon="-2.41047">
        <ele>973.7</ele>
        <time>2023-08-19T15:07:40Z</time>
      </trkpt>
      <trkpt lat="39.63443" lon="-2.41071">
        <ele>968.8</ele>
        <time>2023-08-19T15:07:44Z</time>
      </trkpt>
      <trkpt lat="39.6342" lon="-2.41095">
        <ele>969.2</ele>
        <time>2023-08-19T15:07:48Z</time>
      </trkpt>
      <trkpt lat="39.63393" lon="-2.41119">
        <ele>967</ele>
        <time>2023-08-19T15:07:52Z</time>
      </trkpt>
      <trkpt lat="39.63375" lon="-2.41136">
        <ele>965.4</ele>
        <time>2023-08-19T15:07:55Z</time>
      </trkpt>
      <trkpt lat="39.63356" lon="-2.41153">
        <ele>963.9</ele>
        <time>2023-08-19T15:07:58Z</time>
      </trkpt>
      <trkpt lat="39.63329" lon="-2.41175">
        <ele>963.5</ele>
        <time>2023-08-19T15:08:02Z</time>
      </trkpt>
      <trkpt lat="39.63311" lon="-2.41189">
        <ele>962.8</ele>
        <time>2023-08-19T15:08:05Z</time>
      </trkpt>
      <trkpt lat="39.6329" lon="-2.41202">
        <ele>962.1</ele>
        <time>2023-08-19T15:08:08Z</time>
      </trkpt>
      <trkpt lat="39.63262" lon="-2.41218">
        <ele>958</ele>
        <time>2023-08-19T15:08:12Z</time>
      </trkpt>
      <trkpt lat="39.63233" lon="-2.41233">
        <ele>958.6</ele>
        <time>2023-08-19T15:08:16Z</time>
      </trkpt>
      <trkpt lat="39.63203" lon="-2.41247">
        <ele>957.2</ele>
        <time>2023-08-19T15:08:20Z</time>
      </trkpt>
      <trkpt lat="39.63181" lon="-2.41259">
        <ele>955.8</ele>
        <time>2023-08-19T15:08:23Z</time>
      </trkpt>
      <trkpt lat="39.63154" lon="-2.4127">
        <ele>955.3</ele>
        <time>2023-08-19T15:08:27Z</time>
      </trkpt>
      <trkpt lat="39.63125" lon="-2.4128">
        <ele>953.5</ele>
        <time>2023-08-19T15:08:31Z</time>
      </trkpt>
      <trkpt lat="39.63091" lon="-2.41289">
        <ele>951.1</ele>
        <time>2023-08-19T15:08:35Z</time>
      </trkpt>
      <trkpt lat="39.6306" lon="-2.41297">
        <ele>950.1</ele>
        <time>2023-08-19T15:08:39Z</time>
      </trkpt>
      <trkpt lat="39.63031" lon="-2.41301">
        <ele>950.2</ele>
        <time>2023-08-19T15:08:43Z</time>
      </trkpt>
      <trkpt lat="39.63001" lon="-2.41304">
        <ele>946.6</ele>
        <time>2023-08-19T15:08:47Z</time>
      </trkpt>
      <trkpt lat="39.62982" lon="-2.41306">
        <ele>946.4</ele>
        <time>2023-08-19T15:08:50Z</time>
      </trkpt>
      <trkpt lat="39.62952" lon="-2.41308">
        <ele>943.6</ele>
        <time>2023-08-19T15:08:54Z</time>
      </trkpt>
      <trkpt lat="39.62929" lon="-2.41307">
        <ele>944.1</ele>
        <time>2023-08-19T15:08:57Z</time>
      </trkpt>
      <trkpt lat="39.62899" lon="-2.41305">
        <ele>942</ele>
        <time>2023-08-19T15:09:01Z</time>
      </trkpt>
      <trkpt lat="39.62874" lon="-2.41302">
        <ele>941.4</ele>
        <time>2023-08-19T15:09:04Z</time>
      </trkpt>
      <trkpt lat="39.62842" lon="-2.41298">
        <ele>939.2</ele>
        <time>2023-08-19T15:09:08Z</time>
      </trkpt>
      <trkpt lat="39.62738" lon="-2.41291">
        <ele>936.5</ele>
        <time>2023-08-19T15:09:22Z</time>
      </trkpt>
      <trkpt lat="39.62714" lon="-2.4129">
        <ele>935.2</ele>
        <time>2023-08-19T15:09:25Z</time>
      </trkpt>
      <trkpt lat="39.62577" lon="-2.41303">
        <ele>933.7</ele>
        <time>2023-08-19T15:09:42Z</time>
      </trkpt>
      <trkpt lat="39.62549" lon="-2.41321">
        <ele>934</ele>
        <time>2023-08-19T15:09:46Z</time>
      </trkpt>
      <trkpt lat="39.62529" lon="-2.41335">
        <ele>934.1</ele>
        <time>2023-08-19T15:09:49Z</time>
      </trkpt>
      <trkpt lat="39.62503" lon="-2.41355">
        <ele>933</ele>
        <time>2023-08-19T15:09:53Z</time>
      </trkpt>
      <trkpt lat="39.62442" lon="-2.41443">
        <ele>934.4</ele>
        <time>2023-08-19T15:10:04Z</time>
      </trkpt>
      <trkpt lat="39.62426" lon="-2.4147">
        <ele>933.9</ele>
        <time>2023-08-19T15:10:07Z</time>
      </trkpt>
      <trkpt lat="39.62403" lon="-2.41497">
        <ele>935.8</ele>
        <time>2023-08-19T15:10:11Z</time>
      </trkpt>
      <trkpt lat="39.62381" lon="-2.41519">
        <ele>935.7</ele>
        <time>2023-08-19T15:10:14Z</time>
      </trkpt>
      <trkpt lat="39.61894" lon="-2.42084">
        <ele>917.2</ele>
        <time>2023-08-19T15:11:39Z</time>
      </trkpt>
      <trkpt lat="39.61881" lon="-2.421">
        <ele>915.7</ele>
        <time>2023-08-19T15:11:42Z</time>
      </trkpt>
      <trkpt lat="39.61864" lon="-2.42116">
        <ele>916.5</ele>
        <time>2023-08-19T15:11:45Z</time>
      </trkpt>
      <trkpt lat="39.61841" lon="-2.42137">
        <ele>917.6</ele>
        <time>2023-08-19T15:11:49Z</time>
      </trkpt>
      <trkpt lat="39.61816" lon="-2.42159">
        <ele>918</ele>
        <time>2023-08-19T15:11:53Z</time>
      </trkpt>
      <trkpt lat="39.61796" lon="-2.42175">
        <ele>918.4</ele>
        <time>2023-08-19T15:11:56Z</time>
      </trkpt>
      <trkpt lat="39.61771" lon="-2.42197">
        <ele>919.1</ele>
        <time>2023-08-19T15:12:00Z</time>
      </trkpt>
      <trkpt lat="39.61753" lon="-2.42212">
        <ele>920.3</ele>
        <time>2023-08-19T15:12:03Z</time>
      </trkpt>
      <trkpt lat="39.61735" lon="-2.42227">
        <ele>920.4</ele>
        <time>2023-08-19T15:12:06Z</time>
      </trkpt>
      <trkpt lat="39.6171" lon="-2.42247">
        <ele>920.8</ele>
        <time>2023-08-19T15:12:10Z</time>
      </trkpt>
      <trkpt lat="39.61692" lon="-2.42262">
        <ele>922.6</ele>
        <time>2023-08-19T15:12:13Z</time>
      </trkpt>
      <trkpt lat="39.61674" lon="-2.42279">
        <ele>921.8</ele>
        <time>2023-08-19T15:12:17Z</time>
      </trkpt>
      <trkpt lat="39.6166" lon="-2.42301">
        <ele>925.4</ele>
        <time>2023-08-19T15:12:21Z</time>
      </trkpt>
      <trkpt lat="39.6165" lon="-2.42323">
        <ele>923.9</ele>
        <time>2023-08-19T15:12:24Z</time>
      </trkpt>
      <trkpt lat="39.61637" lon="-2.4235">
        <ele>924.2</ele>
        <time>2023-08-19T15:12:28Z</time>
      </trkpt>
      <trkpt lat="39.61627" lon="-2.42364">
        <ele>923.1</ele>
        <time>2023-08-19T15:12:31Z</time>
      </trkpt>
      <trkpt lat="39.61613" lon="-2.42376">
        <ele>922.8</ele>
        <time>2023-08-19T15:12:34Z</time>
      </trkpt>
      <trkpt lat="39.61594" lon="-2.42378">
        <ele>921.3</ele>
        <time>2023-08-19T15:12:38Z</time>
      </trkpt>
      <trkpt lat="39.61582" lon="-2.4237">
        <ele>921.6</ele>
        <time>2023-08-19T15:12:41Z</time>
      </trkpt>
      <trkpt lat="39.61566" lon="-2.42361">
        <ele>921.2</ele>
        <time>2023-08-19T15:12:44Z</time>
      </trkpt>
      <trkpt lat="39.61545" lon="-2.4235">
        <ele>921</ele>
        <time>2023-08-19T15:12:48Z</time>
      </trkpt>
      <trkpt lat="39.61524" lon="-2.42335">
        <ele>920.2</ele>
        <time>2023-08-19T15:12:52Z</time>
      </trkpt>
      <trkpt lat="39.61509" lon="-2.42322">
        <ele>921.2</ele>
        <time>2023-08-19T15:12:55Z</time>
      </trkpt>
      <trkpt lat="39.61489" lon="-2.42305">
        <ele>921.3</ele>
        <time>2023-08-19T15:12:59Z</time>
      </trkpt>
      <trkpt lat="39.61474" lon="-2.42293">
        <ele>920.2</ele>
        <time>2023-08-19T15:13:02Z</time>
      </trkpt>
      <trkpt lat="39.61452" lon="-2.42274">
        <ele>918.9</ele>
        <time>2023-08-19T15:13:06Z</time>
      </trkpt>
      <trkpt lat="39.6143" lon="-2.42258">
        <ele>916.9</ele>
        <time>2023-08-19T15:13:10Z</time>
      </trkpt>
      <trkpt lat="39.61408" lon="-2.42249">
        <ele>916.5</ele>
        <time>2023-08-19T15:13:13Z</time>
      </trkpt>
      <trkpt lat="39.61378" lon="-2.4224">
        <ele>915</ele>
        <time>2023-08-19T15:13:17Z</time>
      </trkpt>
      <trkpt lat="39.61355" lon="-2.42234">
        <ele>912.2</ele>
        <time>2023-08-19T15:13:20Z</time>
      </trkpt>
      <trkpt lat="39.61333" lon="-2.42229">
        <ele>911.3</ele>
        <time>2023-08-19T15:13:23Z</time>
      </trkpt>
      <trkpt lat="39.61303" lon="-2.4222">
        <ele>909.8</ele>
        <time>2023-08-19T15:13:27Z</time>
      </trkpt>
      <trkpt lat="39.61282" lon="-2.42214">
        <ele>909.3</ele>
        <time>2023-08-19T15:13:30Z</time>
      </trkpt>
      <trkpt lat="39.61253" lon="-2.42206">
        <ele>907.1</ele>
        <time>2023-08-19T15:13:34Z</time>
      </trkpt>
      <trkpt lat="39.61223" lon="-2.42199">
        <ele>905.3</ele>
        <time>2023-08-19T15:13:38Z</time>
      </trkpt>
      <trkpt lat="39.61201" lon="-2.42191">
        <ele>904.5</ele>
        <time>2023-08-19T15:13:41Z</time>
      </trkpt>
      <trkpt lat="39.61171" lon="-2.42182">
        <ele>902.4</ele>
        <time>2023-08-19T15:13:45Z</time>
      </trkpt>
      <trkpt lat="39.61141" lon="-2.42173">
        <ele>902</ele>
        <time>2023-08-19T15:13:49Z</time>
      </trkpt>
      <trkpt lat="39.61111" lon="-2.42166">
        <ele>900.6</ele>
        <time>2023-08-19T15:13:53Z</time>
      </trkpt>
      <trkpt lat="39.61089" lon="-2.42161">
        <ele>899.6</ele>
        <time>2023-08-19T15:13:56Z</time>
      </trkpt>
      <trkpt lat="39.61057" lon="-2.42157">
        <ele>900.2</ele>
        <time>2023-08-19T15:14:00Z</time>
      </trkpt>
      <trkpt lat="39.61033" lon="-2.42155">
        <ele>899.6</ele>
        <time>2023-08-19T15:14:03Z</time>
      </trkpt>
      <trkpt lat="39.6101" lon="-2.42152">
        <ele>897.8</ele>
        <time>2023-08-19T15:14:06Z</time>
      </trkpt>
      <trkpt lat="39.60987" lon="-2.42151">
        <ele>896.6</ele>
        <time>2023-08-19T15:14:09Z</time>
      </trkpt>
      <trkpt lat="39.60956" lon="-2.42151">
        <ele>895.6</ele>
        <time>2023-08-19T15:14:13Z</time>
      </trkpt>
      <trkpt lat="39.60932" lon="-2.4215">
        <ele>895.2</ele>
        <time>2023-08-19T15:14:16Z</time>
      </trkpt>
      <trkpt lat="39.60908" lon="-2.42152">
        <ele>894</ele>
        <time>2023-08-19T15:14:19Z</time>
      </trkpt>
      <trkpt lat="39.60877" lon="-2.42157">
        <ele>894.4</ele>
        <time>2023-08-19T15:14:23Z</time>
      </trkpt>
      <trkpt lat="39.60846" lon="-2.42162">
        <ele>893.6</ele>
        <time>2023-08-19T15:14:27Z</time>
      </trkpt>
      <trkpt lat="39.60823" lon="-2.42167">
        <ele>892.1</ele>
        <time>2023-08-19T15:14:30Z</time>
      </trkpt>
      <trkpt lat="39.60793" lon="-2.42174">
        <ele>892.3</ele>
        <time>2023-08-19T15:14:34Z</time>
      </trkpt>
      <trkpt lat="39.60766" lon="-2.42186">
        <ele>888.7</ele>
        <time>2023-08-19T15:14:38Z</time>
      </trkpt>
      <trkpt lat="39.60738" lon="-2.42199">
        <ele>891</ele>
        <time>2023-08-19T15:14:42Z</time>
      </trkpt>
      <trkpt lat="39.60708" lon="-2.42214">
        <ele>888.1</ele>
        <time>2023-08-19T15:14:46Z</time>
      </trkpt>
      <trkpt lat="39.60687" lon="-2.42227">
        <ele>886.9</ele>
        <time>2023-08-19T15:14:49Z</time>
      </trkpt>
      <trkpt lat="39.60664" lon="-2.4224">
        <ele>886.6</ele>
        <time>2023-08-19T15:14:52Z</time>
      </trkpt>
      <trkpt lat="39.60643" lon="-2.42254">
        <ele>886</ele>
        <time>2023-08-19T15:14:55Z</time>
      </trkpt>
      <trkpt lat="39.6062" lon="-2.42268">
        <ele>886</ele>
        <time>2023-08-19T15:14:58Z</time>
      </trkpt>
      <trkpt lat="39.60592" lon="-2.42287">
        <ele>884.8</ele>
        <time>2023-08-19T15:15:02Z</time>
      </trkpt>
      <trkpt lat="39.60567" lon="-2.42306">
        <ele>882.8</ele>
        <time>2023-08-19T15:15:06Z</time>
      </trkpt>
      <trkpt lat="39.6054" lon="-2.42325">
        <ele>883</ele>
        <time>2023-08-19T15:15:10Z</time>
      </trkpt>
      <trkpt lat="39.60512" lon="-2.42341">
        <ele>882.8</ele>
        <time>2023-08-19T15:15:14Z</time>
      </trkpt>
      <trkpt lat="39.60485" lon="-2.42358">
        <ele>883</ele>
        <time>2023-08-19T15:15:18Z</time>
      </trkpt>
      <trkpt lat="39.60465" lon="-2.42371">
        <ele>881.5</ele>
        <time>2023-08-19T15:15:21Z</time>
      </trkpt>
      <trkpt lat="39.60444" lon="-2.42382">
        <ele>880.5</ele>
        <time>2023-08-19T15:15:24Z</time>
      </trkpt>
      <trkpt lat="39.60413" lon="-2.42397">
        <ele>879.9</ele>
        <time>2023-08-19T15:15:28Z</time>
      </trkpt>
      <trkpt lat="39.60392" lon="-2.42407">
        <ele>879.4</ele>
        <time>2023-08-19T15:15:31Z</time>
      </trkpt>
      <trkpt lat="39.60361" lon="-2.42418">
        <ele>876.7</ele>
        <time>2023-08-19T15:15:35Z</time>
      </trkpt>
      <trkpt lat="39.60338" lon="-2.42425">
        <ele>877.9</ele>
        <time>2023-08-19T15:15:38Z</time>
      </trkpt>
      <trkpt lat="39.6031" lon="-2.42433">
        <ele>878.1</ele>
        <time>2023-08-19T15:15:42Z</time>
      </trkpt>
      <trkpt lat="39.60281" lon="-2.42441">
        <ele>878.2</ele>
        <time>2023-08-19T15:15:46Z</time>
      </trkpt>
      <trkpt lat="39.60251" lon="-2.42449">
        <ele>877.4</ele>
        <time>2023-08-19T15:15:50Z</time>
      </trkpt>
      <trkpt lat="39.60221" lon="-2.42455">
        <ele>878</ele>
        <time>2023-08-19T15:15:54Z</time>
      </trkpt>
      <trkpt lat="39.6019" lon="-2.42461">
        <ele>878.1</ele>
        <time>2023-08-19T15:15:58Z</time>
      </trkpt>
      <trkpt lat="39.6016" lon="-2.42467">
        <ele>877.8</ele>
        <time>2023-08-19T15:16:02Z</time>
      </trkpt>
      <trkpt lat="39.60131" lon="-2.42474">
        <ele>878.5</ele>
        <time>2023-08-19T15:16:06Z</time>
      </trkpt>
      <trkpt lat="39.60108" lon="-2.42481">
        <ele>877.7</ele>
        <time>2023-08-19T15:16:09Z</time>
      </trkpt>
      <trkpt lat="39.6008" lon="-2.42489">
        <ele>879</ele>
        <time>2023-08-19T15:16:13Z</time>
      </trkpt>
      <trkpt lat="39.6005" lon="-2.42497">
        <ele>878.5</ele>
        <time>2023-08-19T15:16:17Z</time>
      </trkpt>
      <trkpt lat="39.60027" lon="-2.42503">
        <ele>878.8</ele>
        <time>2023-08-19T15:16:20Z</time>
      </trkpt>
      <trkpt lat="39.59997" lon="-2.4251">
        <ele>877.8</ele>
        <time>2023-08-19T15:16:24Z</time>
      </trkpt>
      <trkpt lat="39.59965" lon="-2.42516">
        <ele>878.8</ele>
        <time>2023-08-19T15:16:28Z</time>
      </trkpt>
      <trkpt lat="39.59935" lon="-2.42525">
        <ele>879.4</ele>
        <time>2023-08-19T15:16:32Z</time>
      </trkpt>
      <trkpt lat="39.59911" lon="-2.42532">
        <ele>880.2</ele>
        <time>2023-08-19T15:16:35Z</time>
      </trkpt>
      <trkpt lat="39.59889" lon="-2.42537">
        <ele>870.7</ele>
        <time>2023-08-19T15:16:38Z</time>
      </trkpt>
      <trkpt lat="39.59859" lon="-2.42542">
        <ele>888.6</ele>
        <time>2023-08-19T15:16:42Z</time>
      </trkpt>
      <trkpt lat="39.59829" lon="-2.42551">
        <ele>881.7</ele>
        <time>2023-08-19T15:16:46Z</time>
      </trkpt>
      <trkpt lat="39.59806" lon="-2.42556">
        <ele>881.3</ele>
        <time>2023-08-19T15:16:49Z</time>
      </trkpt>
      <trkpt lat="39.59776" lon="-2.42564">
        <ele>881.3</ele>
        <time>2023-08-19T15:16:53Z</time>
      </trkpt>
      <trkpt lat="39.59746" lon="-2.42571">
        <ele>881.7</ele>
        <time>2023-08-19T15:16:57Z</time>
      </trkpt>
      <trkpt lat="39.59716" lon="-2.42578">
        <ele>882.4</ele>
        <time>2023-08-19T15:17:01Z</time>
      </trkpt>
      <trkpt lat="39.59695" lon="-2.42584">
        <ele>881.9</ele>
        <time>2023-08-19T15:17:04Z</time>
      </trkpt>
      <trkpt lat="39.59666" lon="-2.42592">
        <ele>883.9</ele>
        <time>2023-08-19T15:17:08Z</time>
      </trkpt>
      <trkpt lat="39.59644" lon="-2.42596">
        <ele>884</ele>
        <time>2023-08-19T15:17:11Z</time>
      </trkpt>
      <trkpt lat="39.59612" lon="-2.42605">
        <ele>883</ele>
        <time>2023-08-19T15:17:15Z</time>
      </trkpt>
      <trkpt lat="39.59588" lon="-2.42611">
        <ele>883.5</ele>
        <time>2023-08-19T15:17:18Z</time>
      </trkpt>
      <trkpt lat="39.59557" lon="-2.42619">
        <ele>882.4</ele>
        <time>2023-08-19T15:17:22Z</time>
      </trkpt>
      <trkpt lat="39.59527" lon="-2.42626">
        <ele>885.7</ele>
        <time>2023-08-19T15:17:26Z</time>
      </trkpt>
      <trkpt lat="39.59497" lon="-2.42633">
        <ele>885.5</ele>
        <time>2023-08-19T15:17:30Z</time>
      </trkpt>
      <trkpt lat="39.59474" lon="-2.42639">
        <ele>885.8</ele>
        <time>2023-08-19T15:17:33Z</time>
      </trkpt>
      <trkpt lat="39.59444" lon="-2.42646">
        <ele>886.3</ele>
        <time>2023-08-19T15:17:37Z</time>
      </trkpt>
      <trkpt lat="39.59413" lon="-2.42654">
        <ele>885.9</ele>
        <time>2023-08-19T15:17:41Z</time>
      </trkpt>
      <trkpt lat="39.59384" lon="-2.42661">
        <ele>886.1</ele>
        <time>2023-08-19T15:17:45Z</time>
      </trkpt>
      <trkpt lat="39.5936" lon="-2.42667">
        <ele>885.9</ele>
        <time>2023-08-19T15:17:48Z</time>
      </trkpt>
      <trkpt lat="39.5933" lon="-2.42674">
        <ele>885.7</ele>
        <time>2023-08-19T15:17:52Z</time>
      </trkpt>
      <trkpt lat="39.59308" lon="-2.42679">
        <ele>885.5</ele>
        <time>2023-08-19T15:17:55Z</time>
      </trkpt>
      <trkpt lat="39.59286" lon="-2.42685">
        <ele>885.3</ele>
        <time>2023-08-19T15:17:58Z</time>
      </trkpt>
      <trkpt lat="39.59255" lon="-2.42693">
        <ele>885.4</ele>
        <time>2023-08-19T15:18:02Z</time>
      </trkpt>
      <trkpt lat="39.59232" lon="-2.427">
        <ele>884.8</ele>
        <time>2023-08-19T15:18:05Z</time>
      </trkpt>
      <trkpt lat="39.59192" lon="-2.4271">
        <ele>882.7</ele>
        <time>2023-08-19T15:18:10Z</time>
      </trkpt>
      <trkpt lat="39.5916" lon="-2.42717">
        <ele>882.6</ele>
        <time>2023-08-19T15:18:14Z</time>
      </trkpt>
      <trkpt lat="39.59129" lon="-2.42725">
        <ele>882.3</ele>
        <time>2023-08-19T15:18:18Z</time>
      </trkpt>
      <trkpt lat="39.591" lon="-2.42734">
        <ele>881</ele>
        <time>2023-08-19T15:18:22Z</time>
      </trkpt>
      <trkpt lat="39.59078" lon="-2.42739">
        <ele>881.3</ele>
        <time>2023-08-19T15:18:25Z</time>
      </trkpt>
      <trkpt lat="39.59048" lon="-2.42746">
        <ele>879.8</ele>
        <time>2023-08-19T15:18:29Z</time>
      </trkpt>
      <trkpt lat="39.59025" lon="-2.42751">
        <ele>878.6</ele>
        <time>2023-08-19T15:18:32Z</time>
      </trkpt>
      <trkpt lat="39.58995" lon="-2.42759">
        <ele>876.7</ele>
        <time>2023-08-19T15:18:36Z</time>
      </trkpt>
      <trkpt lat="39.58966" lon="-2.42767">
        <ele>877.6</ele>
        <time>2023-08-19T15:18:40Z</time>
      </trkpt>
      <trkpt lat="39.58935" lon="-2.42773">
        <ele>875.5</ele>
        <time>2023-08-19T15:18:44Z</time>
      </trkpt>
      <trkpt lat="39.58913" lon="-2.42779">
        <ele>875.2</ele>
        <time>2023-08-19T15:18:47Z</time>
      </trkpt>
      <trkpt lat="39.58883" lon="-2.42786">
        <ele>876.3</ele>
        <time>2023-08-19T15:18:51Z</time>
      </trkpt>
      <trkpt lat="39.58853" lon="-2.42792">
        <ele>875</ele>
        <time>2023-08-19T15:18:55Z</time>
      </trkpt>
      <trkpt lat="39.58822" lon="-2.42801">
        <ele>874</ele>
        <time>2023-08-19T15:18:59Z</time>
      </trkpt>
      <trkpt lat="39.58791" lon="-2.42809">
        <ele>876.9</ele>
        <time>2023-08-19T15:19:03Z</time>
      </trkpt>
      <trkpt lat="39.58769" lon="-2.42815">
        <ele>876.6</ele>
        <time>2023-08-19T15:19:06Z</time>
      </trkpt>
      <trkpt lat="39.5874" lon="-2.42824">
        <ele>876.3</ele>
        <time>2023-08-19T15:19:10Z</time>
      </trkpt>
      <trkpt lat="39.5871" lon="-2.42831">
        <ele>876.7</ele>
        <time>2023-08-19T15:19:14Z</time>
      </trkpt>
      <trkpt lat="39.5868" lon="-2.42837">
        <ele>876.7</ele>
        <time>2023-08-19T15:19:18Z</time>
      </trkpt>
      <trkpt lat="39.5865" lon="-2.42845">
        <ele>876.6</ele>
        <time>2023-08-19T15:19:22Z</time>
      </trkpt>
      <trkpt lat="39.58627" lon="-2.42851">
        <ele>876.3</ele>
        <time>2023-08-19T15:19:25Z</time>
      </trkpt>
      <trkpt lat="39.58597" lon="-2.42858">
        <ele>875.2</ele>
        <time>2023-08-19T15:19:29Z</time>
      </trkpt>
      <trkpt lat="39.58565" lon="-2.42861">
        <ele>875.4</ele>
        <time>2023-08-19T15:19:33Z</time>
      </trkpt>
      <trkpt lat="39.58535" lon="-2.42864">
        <ele>876.4</ele>
        <time>2023-08-19T15:19:37Z</time>
      </trkpt>
      <trkpt lat="39.58503" lon="-2.42863">
        <ele>875.2</ele>
        <time>2023-08-19T15:19:41Z</time>
      </trkpt>
      <trkpt lat="39.58479" lon="-2.42862">
        <ele>873.6</ele>
        <time>2023-08-19T15:19:44Z</time>
      </trkpt>
      <trkpt lat="39.58455" lon="-2.42859">
        <ele>874.5</ele>
        <time>2023-08-19T15:19:47Z</time>
      </trkpt>
      <trkpt lat="39.58426" lon="-2.42854">
        <ele>875.3</ele>
        <time>2023-08-19T15:19:51Z</time>
      </trkpt>
      <trkpt lat="39.58403" lon="-2.42849">
        <ele>872.3</ele>
        <time>2023-08-19T15:19:54Z</time>
      </trkpt>
      <trkpt lat="39.58371" lon="-2.42838">
        <ele>871.3</ele>
        <time>2023-08-19T15:19:58Z</time>
      </trkpt>
      <trkpt lat="39.58342" lon="-2.42826">
        <ele>872.3</ele>
        <time>2023-08-19T15:20:02Z</time>
      </trkpt>
      <trkpt lat="39.5832" lon="-2.42817">
        <ele>871.1</ele>
        <time>2023-08-19T15:20:05Z</time>
      </trkpt>
      <trkpt lat="39.58292" lon="-2.42805">
        <ele>871.2</ele>
        <time>2023-08-19T15:20:09Z</time>
      </trkpt>
      <trkpt lat="39.5827" lon="-2.42796">
        <ele>870.6</ele>
        <time>2023-08-19T15:20:12Z</time>
      </trkpt>
      <trkpt lat="39.5824" lon="-2.42784">
        <ele>869</ele>
        <time>2023-08-19T15:20:16Z</time>
      </trkpt>
      <trkpt lat="39.5821" lon="-2.42772">
        <ele>868.6</ele>
        <time>2023-08-19T15:20:20Z</time>
      </trkpt>
      <trkpt lat="39.58187" lon="-2.42763">
        <ele>865.8</ele>
        <time>2023-08-19T15:20:23Z</time>
      </trkpt>
      <trkpt lat="39.58163" lon="-2.42753">
        <ele>866.2</ele>
        <time>2023-08-19T15:20:26Z</time>
      </trkpt>
      <trkpt lat="39.58131" lon="-2.4274">
        <ele>867</ele>
        <time>2023-08-19T15:20:30Z</time>
      </trkpt>
      <trkpt lat="39.58111" lon="-2.42732">
        <ele>867.1</ele>
        <time>2023-08-19T15:20:33Z</time>
      </trkpt>
      <trkpt lat="39.58082" lon="-2.42721">
        <ele>865.9</ele>
        <time>2023-08-19T15:20:37Z</time>
      </trkpt>
      <trkpt lat="39.5806" lon="-2.42712">
        <ele>864.8</ele>
        <time>2023-08-19T15:20:40Z</time>
      </trkpt>
      <trkpt lat="39.58037" lon="-2.42704">
        <ele>865.2</ele>
        <time>2023-08-19T15:20:43Z</time>
      </trkpt>
      <trkpt lat="39.58017" lon="-2.42694">
        <ele>865.3</ele>
        <time>2023-08-19T15:20:46Z</time>
      </trkpt>
      <trkpt lat="39.57997" lon="-2.42685">
        <ele>863.6</ele>
        <time>2023-08-19T15:20:49Z</time>
      </trkpt>
      <trkpt lat="39.57967" lon="-2.42673">
        <ele>863.9</ele>
        <time>2023-08-19T15:20:53Z</time>
      </trkpt>
      <trkpt lat="39.57939" lon="-2.42662">
        <ele>864.7</ele>
        <time>2023-08-19T15:20:57Z</time>
      </trkpt>
      <trkpt lat="39.57902" lon="-2.42649">
        <ele>864.3</ele>
        <time>2023-08-19T15:21:02Z</time>
      </trkpt>
      <trkpt lat="39.57871" lon="-2.42639">
        <ele>865.4</ele>
        <time>2023-08-19T15:21:06Z</time>
      </trkpt>
      <trkpt lat="39.5784" lon="-2.42633">
        <ele>863.7</ele>
        <time>2023-08-19T15:21:10Z</time>
      </trkpt>
      <trkpt lat="39.57817" lon="-2.42629">
        <ele>864.5</ele>
        <time>2023-08-19T15:21:13Z</time>
      </trkpt>
      <trkpt lat="39.57786" lon="-2.42627">
        <ele>862.6</ele>
        <time>2023-08-19T15:21:17Z</time>
      </trkpt>
      <trkpt lat="39.57763" lon="-2.42626">
        <ele>862.8</ele>
        <time>2023-08-19T15:21:20Z</time>
      </trkpt>
      <trkpt lat="39.5774" lon="-2.42625">
        <ele>864.1</ele>
        <time>2023-08-19T15:21:23Z</time>
      </trkpt>
      <trkpt lat="39.57709" lon="-2.42623">
        <ele>865.9</ele>
        <time>2023-08-19T15:21:27Z</time>
      </trkpt>
      <trkpt lat="39.57678" lon="-2.42622">
        <ele>864.5</ele>
        <time>2023-08-19T15:21:31Z</time>
      </trkpt>
      <trkpt lat="39.57655" lon="-2.42621">
        <ele>863.4</ele>
        <time>2023-08-19T15:21:34Z</time>
      </trkpt>
      <trkpt lat="39.57625" lon="-2.42619">
        <ele>862.2</ele>
        <time>2023-08-19T15:21:38Z</time>
      </trkpt>
      <trkpt lat="39.57602" lon="-2.42618">
        <ele>861.8</ele>
        <time>2023-08-19T15:21:41Z</time>
      </trkpt>
      <trkpt lat="39.5758" lon="-2.42618">
        <ele>862</ele>
        <time>2023-08-19T15:21:44Z</time>
      </trkpt>
      <trkpt lat="39.57549" lon="-2.42617">
        <ele>862.2</ele>
        <time>2023-08-19T15:21:48Z</time>
      </trkpt>
      <trkpt lat="39.57526" lon="-2.42616">
        <ele>861.4</ele>
        <time>2023-08-19T15:21:51Z</time>
      </trkpt>
      <trkpt lat="39.57497" lon="-2.42615">
        <ele>862.2</ele>
        <time>2023-08-19T15:21:55Z</time>
      </trkpt>
      <trkpt lat="39.57467" lon="-2.42613">
        <ele>862.8</ele>
        <time>2023-08-19T15:21:59Z</time>
      </trkpt>
      <trkpt lat="39.57444" lon="-2.42612">
        <ele>862.8</ele>
        <time>2023-08-19T15:22:02Z</time>
      </trkpt>
      <trkpt lat="39.5742" lon="-2.42611">
        <ele>864.1</ele>
        <time>2023-08-19T15:22:05Z</time>
      </trkpt>
      <trkpt lat="39.57388" lon="-2.42607">
        <ele>857.9</ele>
        <time>2023-08-19T15:22:09Z</time>
      </trkpt>
      <trkpt lat="39.57363" lon="-2.42606">
        <ele>862.4</ele>
        <time>2023-08-19T15:22:12Z</time>
      </trkpt>
      <trkpt lat="39.57338" lon="-2.42605">
        <ele>863.1</ele>
        <time>2023-08-19T15:22:15Z</time>
      </trkpt>
      <trkpt lat="39.57301" lon="-2.42603">
        <ele>862.9</ele>
        <time>2023-08-19T15:22:20Z</time>
      </trkpt>
      <trkpt lat="39.57279" lon="-2.42602">
        <ele>862.4</ele>
        <time>2023-08-19T15:22:23Z</time>
      </trkpt>
      <trkpt lat="39.57247" lon="-2.426">
        <ele>862.9</ele>
        <time>2023-08-19T15:22:27Z</time>
      </trkpt>
      <trkpt lat="39.57222" lon="-2.42598">
        <ele>860.4</ele>
        <time>2023-08-19T15:22:30Z</time>
      </trkpt>
      <trkpt lat="39.57199" lon="-2.42597">
        <ele>862.2</ele>
        <time>2023-08-19T15:22:33Z</time>
      </trkpt>
      <trkpt lat="39.57176" lon="-2.42596">
        <ele>861.4</ele>
        <time>2023-08-19T15:22:36Z</time>
      </trkpt>
      <trkpt lat="39.57145" lon="-2.42595">
        <ele>859.7</ele>
        <time>2023-08-19T15:22:40Z</time>
      </trkpt>
      <trkpt lat="39.57123" lon="-2.42594">
        <ele>860.1</ele>
        <time>2023-08-19T15:22:43Z</time>
      </trkpt>
      <trkpt lat="39.57093" lon="-2.42593">
        <ele>862.3</ele>
        <time>2023-08-19T15:22:47Z</time>
      </trkpt>
      <trkpt lat="39.57069" lon="-2.4259">
        <ele>861.8</ele>
        <time>2023-08-19T15:22:50Z</time>
      </trkpt>
      <trkpt lat="39.57047" lon="-2.42589">
        <ele>861.6</ele>
        <time>2023-08-19T15:22:53Z</time>
      </trkpt>
      <trkpt lat="39.57023" lon="-2.42588">
        <ele>860.5</ele>
        <time>2023-08-19T15:22:56Z</time>
      </trkpt>
      <trkpt lat="39.56993" lon="-2.42588">
        <ele>858.9</ele>
        <time>2023-08-19T15:23:00Z</time>
      </trkpt>
      <trkpt lat="39.56962" lon="-2.42587">
        <ele>859.9</ele>
        <time>2023-08-19T15:23:04Z</time>
      </trkpt>
      <trkpt lat="39.56939" lon="-2.42588">
        <ele>860.3</ele>
        <time>2023-08-19T15:23:07Z</time>
      </trkpt>
      <trkpt lat="39.56915" lon="-2.42587">
        <ele>860.6</ele>
        <time>2023-08-19T15:23:10Z</time>
      </trkpt>
      <trkpt lat="39.56884" lon="-2.42586">
        <ele>858.4</ele>
        <time>2023-08-19T15:23:14Z</time>
      </trkpt>
      <trkpt lat="39.56861" lon="-2.42588">
        <ele>858.4</ele>
        <time>2023-08-19T15:23:17Z</time>
      </trkpt>
      <trkpt lat="39.56838" lon="-2.42587">
        <ele>858</ele>
        <time>2023-08-19T15:23:20Z</time>
      </trkpt>
      <trkpt lat="39.56806" lon="-2.42586">
        <ele>857.2</ele>
        <time>2023-08-19T15:23:24Z</time>
      </trkpt>
      <trkpt lat="39.56784" lon="-2.42586">
        <ele>856.9</ele>
        <time>2023-08-19T15:23:27Z</time>
      </trkpt>
      <trkpt lat="39.56762" lon="-2.42585">
        <ele>855.5</ele>
        <time>2023-08-19T15:23:30Z</time>
      </trkpt>
      <trkpt lat="39.5673" lon="-2.42584">
        <ele>855.6</ele>
        <time>2023-08-19T15:23:34Z</time>
      </trkpt>
      <trkpt lat="39.56706" lon="-2.42584">
        <ele>855.3</ele>
        <time>2023-08-19T15:23:37Z</time>
      </trkpt>
      <trkpt lat="39.56676" lon="-2.42583">
        <ele>856.8</ele>
        <time>2023-08-19T15:23:41Z</time>
      </trkpt>
      <trkpt lat="39.56646" lon="-2.42582">
        <ele>855.6</ele>
        <time>2023-08-19T15:23:45Z</time>
      </trkpt>
      <trkpt lat="39.56623" lon="-2.42581">
        <ele>855.4</ele>
        <time>2023-08-19T15:23:48Z</time>
      </trkpt>
      <trkpt lat="39.56591" lon="-2.4258">
        <ele>854.7</ele>
        <time>2023-08-19T15:23:52Z</time>
      </trkpt>
      <trkpt lat="39.56569" lon="-2.42581">
        <ele>852.8</ele>
        <time>2023-08-19T15:23:55Z</time>
      </trkpt>
      <trkpt lat="39.56536" lon="-2.4258">
        <ele>854.2</ele>
        <time>2023-08-19T15:23:59Z</time>
      </trkpt>
      <trkpt lat="39.56506" lon="-2.4258">
        <ele>855.3</ele>
        <time>2023-08-19T15:24:03Z</time>
      </trkpt>
      <trkpt lat="39.56476" lon="-2.42578">
        <ele>853</ele>
        <time>2023-08-19T15:24:07Z</time>
      </trkpt>
      <trkpt lat="39.56453" lon="-2.42577">
        <ele>853.3</ele>
        <time>2023-08-19T15:24:10Z</time>
      </trkpt>
      <trkpt lat="39.56431" lon="-2.42577">
        <ele>853.7</ele>
        <time>2023-08-19T15:24:13Z</time>
      </trkpt>
      <trkpt lat="39.56408" lon="-2.42576">
        <ele>853.3</ele>
        <time>2023-08-19T15:24:16Z</time>
      </trkpt>
      <trkpt lat="39.56377" lon="-2.42576">
        <ele>851.8</ele>
        <time>2023-08-19T15:24:20Z</time>
      </trkpt>
      <trkpt lat="39.56354" lon="-2.42575">
        <ele>852.1</ele>
        <time>2023-08-19T15:24:23Z</time>
      </trkpt>
      <trkpt lat="39.56322" lon="-2.4257">
        <ele>850</ele>
        <time>2023-08-19T15:24:27Z</time>
      </trkpt>
      <trkpt lat="39.56293" lon="-2.42561">
        <ele>851.6</ele>
        <time>2023-08-19T15:24:31Z</time>
      </trkpt>
      <trkpt lat="39.56276" lon="-2.42555">
        <ele>849.9</ele>
        <time>2023-08-19T15:24:34Z</time>
      </trkpt>
      <trkpt lat="39.5626" lon="-2.42549">
        <ele>849.2</ele>
        <time>2023-08-19T15:24:37Z</time>
      </trkpt>
      <trkpt lat="39.56234" lon="-2.42538">
        <ele>849.1</ele>
        <time>2023-08-19T15:24:42Z</time>
      </trkpt>
      <trkpt lat="39.56219" lon="-2.42534">
        <ele>848.3</ele>
        <time>2023-08-19T15:24:45Z</time>
      </trkpt>
      <trkpt lat="39.56193" lon="-2.42531">
        <ele>847.5</ele>
        <time>2023-08-19T15:24:49Z</time>
      </trkpt>
      <trkpt lat="39.56166" lon="-2.42531">
        <ele>845</ele>
        <time>2023-08-19T15:24:53Z</time>
      </trkpt>
      <trkpt lat="39.56141" lon="-2.42533">
        <ele>847.9</ele>
        <time>2023-08-19T15:24:57Z</time>
      </trkpt>
      <trkpt lat="39.56117" lon="-2.42536">
        <ele>847</ele>
        <time>2023-08-19T15:25:01Z</time>
      </trkpt>
      <trkpt lat="39.56091" lon="-2.42536">
        <ele>848.8</ele>
        <time>2023-08-19T15:25:05Z</time>
      </trkpt>
      <trkpt lat="39.56073" lon="-2.42536">
        <ele>845</ele>
        <time>2023-08-19T15:25:08Z</time>
      </trkpt>
      <trkpt lat="39.56047" lon="-2.42536">
        <ele>847.6</ele>
        <time>2023-08-19T15:25:12Z</time>
      </trkpt>
      <trkpt lat="39.5603" lon="-2.42534">
        <ele>847.4</ele>
        <time>2023-08-19T15:25:15Z</time>
      </trkpt>
      <trkpt lat="39.56016" lon="-2.42531">
        <ele>848</ele>
        <time>2023-08-19T15:25:18Z</time>
      </trkpt>
      <trkpt lat="39.55995" lon="-2.42523">
        <ele>847.2</ele>
        <time>2023-08-19T15:25:22Z</time>
      </trkpt>
      <trkpt lat="39.55976" lon="-2.42516">
        <ele>848.3</ele>
        <time>2023-08-19T15:25:25Z</time>
      </trkpt>
      <trkpt lat="39.55958" lon="-2.42507">
        <ele>848.3</ele>
        <time>2023-08-19T15:25:28Z</time>
      </trkpt>
      <trkpt lat="39.5594" lon="-2.42499">
        <ele>847.7</ele>
        <time>2023-08-19T15:25:31Z</time>
      </trkpt>
      <trkpt lat="39.55922" lon="-2.42493">
        <ele>845.6</ele>
        <time>2023-08-19T15:25:35Z</time>
      </trkpt>
      <trkpt lat="39.55907" lon="-2.4249">
        <ele>847.5</ele>
        <time>2023-08-19T15:25:39Z</time>
      </trkpt>
      <trkpt lat="39.55893" lon="-2.42487">
        <ele>845.6</ele>
        <time>2023-08-19T15:25:42Z</time>
      </trkpt>
      <trkpt lat="39.55874" lon="-2.42482">
        <ele>845.6</ele>
        <time>2023-08-19T15:25:45Z</time>
      </trkpt>
      <trkpt lat="39.55854" lon="-2.42476">
        <ele>845.2</ele>
        <time>2023-08-19T15:25:49Z</time>
      </trkpt>
      <trkpt lat="39.55841" lon="-2.4247">
        <ele>845.4</ele>
        <time>2023-08-19T15:25:52Z</time>
      </trkpt>
      <trkpt lat="39.55822" lon="-2.42467">
        <ele>845.5</ele>
        <time>2023-08-19T15:25:56Z</time>
      </trkpt>
      <trkpt lat="39.55803" lon="-2.42469">
        <ele>845.8</ele>
        <time>2023-08-19T15:26:00Z</time>
      </trkpt>
      <trkpt lat="39.55786" lon="-2.42477">
        <ele>844.4</ele>
        <time>2023-08-19T15:26:03Z</time>
      </trkpt>
      <trkpt lat="39.55761" lon="-2.425">
        <ele>844.6</ele>
        <time>2023-08-19T15:26:07Z</time>
      </trkpt>
      <trkpt lat="39.55744" lon="-2.42528">
        <ele>844.6</ele>
        <time>2023-08-19T15:26:11Z</time>
      </trkpt>
      <trkpt lat="39.55731" lon="-2.42556">
        <ele>844.6</ele>
        <time>2023-08-19T15:26:15Z</time>
      </trkpt>
      <trkpt lat="39.55723" lon="-2.42577">
        <ele>844.7</ele>
        <time>2023-08-19T15:26:18Z</time>
      </trkpt>
      <trkpt lat="39.55711" lon="-2.42603">
        <ele>845</ele>
        <time>2023-08-19T15:26:22Z</time>
      </trkpt>
      <trkpt lat="39.55703" lon="-2.4262">
        <ele>843.9</ele>
        <time>2023-08-19T15:26:25Z</time>
      </trkpt>
      <trkpt lat="39.5569" lon="-2.42647">
        <ele>845.6</ele>
        <time>2023-08-19T15:26:29Z</time>
      </trkpt>
      <trkpt lat="39.55679" lon="-2.4267">
        <ele>845.5</ele>
        <time>2023-08-19T15:26:32Z</time>
      </trkpt>
      <trkpt lat="39.55665" lon="-2.42694">
        <ele>844.9</ele>
        <time>2023-08-19T15:26:35Z</time>
      </trkpt>
      <trkpt lat="39.55647" lon="-2.42724">
        <ele>844.5</ele>
        <time>2023-08-19T15:26:39Z</time>
      </trkpt>
      <trkpt lat="39.55635" lon="-2.42742">
        <ele>845.8</ele>
        <time>2023-08-19T15:26:42Z</time>
      </trkpt>
      <trkpt lat="39.55617" lon="-2.42766">
        <ele>846.3</ele>
        <time>2023-08-19T15:26:46Z</time>
      </trkpt>
      <trkpt lat="39.55596" lon="-2.42784">
        <ele>846.3</ele>
        <time>2023-08-19T15:26:49Z</time>
      </trkpt>
      <trkpt lat="39.55573" lon="-2.42809">
        <ele>848</ele>
        <time>2023-08-19T15:26:53Z</time>
      </trkpt>
      <trkpt lat="39.55551" lon="-2.42833">
        <ele>846.8</ele>
        <time>2023-08-19T15:26:57Z</time>
      </trkpt>
      <trkpt lat="39.55532" lon="-2.4285">
        <ele>846.2</ele>
        <time>2023-08-19T15:27:00Z</time>
      </trkpt>
      <trkpt lat="39.55508" lon="-2.42874">
        <ele>847</ele>
        <time>2023-08-19T15:27:04Z</time>
      </trkpt>
      <trkpt lat="39.55485" lon="-2.42897">
        <ele>845.4</ele>
        <time>2023-08-19T15:27:08Z</time>
      </trkpt>
      <trkpt lat="39.55456" lon="-2.42924">
        <ele>848</ele>
        <time>2023-08-19T15:27:13Z</time>
      </trkpt>
      <trkpt lat="39.55433" lon="-2.42948">
        <ele>848</ele>
        <time>2023-08-19T15:27:17Z</time>
      </trkpt>
      <trkpt lat="39.55419" lon="-2.42967">
        <ele>846.2</ele>
        <time>2023-08-19T15:27:20Z</time>
      </trkpt>
      <trkpt lat="39.55399" lon="-2.42994">
        <ele>846.7</ele>
        <time>2023-08-19T15:27:24Z</time>
      </trkpt>
      <trkpt lat="39.5538" lon="-2.43024">
        <ele>847.4</ele>
        <time>2023-08-19T15:27:28Z</time>
      </trkpt>
      <trkpt lat="39.55367" lon="-2.43048">
        <ele>847.4</ele>
        <time>2023-08-19T15:27:31Z</time>
      </trkpt>
      <trkpt lat="39.55354" lon="-2.43071">
        <ele>847.3</ele>
        <time>2023-08-19T15:27:34Z</time>
      </trkpt>
      <trkpt lat="39.55337" lon="-2.43101">
        <ele>846.2</ele>
        <time>2023-08-19T15:27:38Z</time>
      </trkpt>
      <trkpt lat="39.55321" lon="-2.4313">
        <ele>848.5</ele>
        <time>2023-08-19T15:27:42Z</time>
      </trkpt>
      <trkpt lat="39.55304" lon="-2.4316">
        <ele>847.5</ele>
        <time>2023-08-19T15:27:46Z</time>
      </trkpt>
      <trkpt lat="39.55286" lon="-2.43191">
        <ele>847.9</ele>
        <time>2023-08-19T15:27:50Z</time>
      </trkpt>
      <trkpt lat="39.55269" lon="-2.43222">
        <ele>847.6</ele>
        <time>2023-08-19T15:27:54Z</time>
      </trkpt>
      <trkpt lat="39.55252" lon="-2.43252">
        <ele>847.9</ele>
        <time>2023-08-19T15:27:58Z</time>
      </trkpt>
      <trkpt lat="39.55239" lon="-2.43274">
        <ele>846.8</ele>
        <time>2023-08-19T15:28:01Z</time>
      </trkpt>
      <trkpt lat="39.55222" lon="-2.43304">
        <ele>847.9</ele>
        <time>2023-08-19T15:28:05Z</time>
      </trkpt>
      <trkpt lat="39.55204" lon="-2.43336">
        <ele>847.2</ele>
        <time>2023-08-19T15:28:09Z</time>
      </trkpt>
      <trkpt lat="39.55187" lon="-2.43366">
        <ele>849.2</ele>
        <time>2023-08-19T15:28:13Z</time>
      </trkpt>
      <trkpt lat="39.55174" lon="-2.43388">
        <ele>848.3</ele>
        <time>2023-08-19T15:28:16Z</time>
      </trkpt>
      <trkpt lat="39.55157" lon="-2.43417">
        <ele>848</ele>
        <time>2023-08-19T15:28:20Z</time>
      </trkpt>
      <trkpt lat="39.5514" lon="-2.43446">
        <ele>848.5</ele>
        <time>2023-08-19T15:28:24Z</time>
      </trkpt>
      <trkpt lat="39.55126" lon="-2.43469">
        <ele>848.9</ele>
        <time>2023-08-19T15:28:27Z</time>
      </trkpt>
      <trkpt lat="39.55114" lon="-2.43492">
        <ele>850.3</ele>
        <time>2023-08-19T15:28:30Z</time>
      </trkpt>
      <trkpt lat="39.55096" lon="-2.43522">
        <ele>848.4</ele>
        <time>2023-08-19T15:28:34Z</time>
      </trkpt>
      <trkpt lat="39.55078" lon="-2.43552">
        <ele>849.1</ele>
        <time>2023-08-19T15:28:38Z</time>
      </trkpt>
      <trkpt lat="39.55061" lon="-2.43582">
        <ele>848.7</ele>
        <time>2023-08-19T15:28:42Z</time>
      </trkpt>
      <trkpt lat="39.55047" lon="-2.43605">
        <ele>848.8</ele>
        <time>2023-08-19T15:28:45Z</time>
      </trkpt>
      <trkpt lat="39.55029" lon="-2.43636">
        <ele>847.4</ele>
        <time>2023-08-19T15:28:49Z</time>
      </trkpt>
      <trkpt lat="39.55013" lon="-2.43667">
        <ele>848.9</ele>
        <time>2023-08-19T15:28:53Z</time>
      </trkpt>
      <trkpt lat="39.54996" lon="-2.43697">
        <ele>847.7</ele>
        <time>2023-08-19T15:28:57Z</time>
      </trkpt>
      <trkpt lat="39.54984" lon="-2.4372">
        <ele>847.7</ele>
        <time>2023-08-19T15:29:00Z</time>
      </trkpt>
      <trkpt lat="39.54972" lon="-2.43743">
        <ele>846.5</ele>
        <time>2023-08-19T15:29:03Z</time>
      </trkpt>
      <trkpt lat="39.54959" lon="-2.43766">
        <ele>846.8</ele>
        <time>2023-08-19T15:29:06Z</time>
      </trkpt>
      <trkpt lat="39.54942" lon="-2.43795">
        <ele>847.4</ele>
        <time>2023-08-19T15:29:10Z</time>
      </trkpt>
      <trkpt lat="39.54923" lon="-2.43827">
        <ele>845.1</ele>
        <time>2023-08-19T15:29:14Z</time>
      </trkpt>
      <trkpt lat="39.54904" lon="-2.43857">
        <ele>843</ele>
        <time>2023-08-19T15:29:18Z</time>
      </trkpt>
      <trkpt lat="39.54892" lon="-2.4388">
        <ele>846.1</ele>
        <time>2023-08-19T15:29:21Z</time>
      </trkpt>
      <trkpt lat="39.5488" lon="-2.43902">
        <ele>844</ele>
        <time>2023-08-19T15:29:24Z</time>
      </trkpt>
      <trkpt lat="39.54866" lon="-2.43925">
        <ele>844.8</ele>
        <time>2023-08-19T15:29:27Z</time>
      </trkpt>
      <trkpt lat="39.54853" lon="-2.43948">
        <ele>843.3</ele>
        <time>2023-08-19T15:29:30Z</time>
      </trkpt>
      <trkpt lat="39.54836" lon="-2.43977">
        <ele>844.4</ele>
        <time>2023-08-19T15:29:34Z</time>
      </trkpt>
      <trkpt lat="39.54826" lon="-2.43999">
        <ele>844.7</ele>
        <time>2023-08-19T15:29:37Z</time>
      </trkpt>
      <trkpt lat="39.54809" lon="-2.44029">
        <ele>842.7</ele>
        <time>2023-08-19T15:29:41Z</time>
      </trkpt>
      <trkpt lat="39.54792" lon="-2.4406">
        <ele>842.7</ele>
        <time>2023-08-19T15:29:45Z</time>
      </trkpt>
      <trkpt lat="39.54774" lon="-2.4409">
        <ele>842.8</ele>
        <time>2023-08-19T15:29:49Z</time>
      </trkpt>
      <trkpt lat="39.54757" lon="-2.44121">
        <ele>840.3</ele>
        <time>2023-08-19T15:29:53Z</time>
      </trkpt>
      <trkpt lat="39.54742" lon="-2.44145">
        <ele>842.1</ele>
        <time>2023-08-19T15:29:56Z</time>
      </trkpt>
      <trkpt lat="39.54729" lon="-2.44168">
        <ele>841.5</ele>
        <time>2023-08-19T15:29:59Z</time>
      </trkpt>
      <trkpt lat="39.54712" lon="-2.44199">
        <ele>840.9</ele>
        <time>2023-08-19T15:30:03Z</time>
      </trkpt>
      <trkpt lat="39.547" lon="-2.4422">
        <ele>840.1</ele>
        <time>2023-08-19T15:30:06Z</time>
      </trkpt>
      <trkpt lat="39.54687" lon="-2.44241">
        <ele>841.1</ele>
        <time>2023-08-19T15:30:09Z</time>
      </trkpt>
      <trkpt lat="39.54671" lon="-2.4427">
        <ele>840.4</ele>
        <time>2023-08-19T15:30:13Z</time>
      </trkpt>
      <trkpt lat="39.54657" lon="-2.44293">
        <ele>839.3</ele>
        <time>2023-08-19T15:30:16Z</time>
      </trkpt>
      <trkpt lat="39.54641" lon="-2.44323">
        <ele>841.3</ele>
        <time>2023-08-19T15:30:20Z</time>
      </trkpt>
      <trkpt lat="39.54628" lon="-2.44345">
        <ele>840.7</ele>
        <time>2023-08-19T15:30:23Z</time>
      </trkpt>
      <trkpt lat="39.54615" lon="-2.44367">
        <ele>840.4</ele>
        <time>2023-08-19T15:30:26Z</time>
      </trkpt>
      <trkpt lat="39.54601" lon="-2.44389">
        <ele>838.4</ele>
        <time>2023-08-19T15:30:29Z</time>
      </trkpt>
      <trkpt lat="39.54584" lon="-2.44421">
        <ele>839.6</ele>
        <time>2023-08-19T15:30:33Z</time>
      </trkpt>
      <trkpt lat="39.5457" lon="-2.44444">
        <ele>838.9</ele>
        <time>2023-08-19T15:30:36Z</time>
      </trkpt>
      <trkpt lat="39.54552" lon="-2.44475">
        <ele>838.2</ele>
        <time>2023-08-19T15:30:40Z</time>
      </trkpt>
      <trkpt lat="39.54539" lon="-2.44498">
        <ele>838.8</ele>
        <time>2023-08-19T15:30:43Z</time>
      </trkpt>
      <trkpt lat="39.54525" lon="-2.4452">
        <ele>838.8</ele>
        <time>2023-08-19T15:30:46Z</time>
      </trkpt>
      <trkpt lat="39.54512" lon="-2.44544">
        <ele>838</ele>
        <time>2023-08-19T15:30:49Z</time>
      </trkpt>
      <trkpt lat="39.54496" lon="-2.44575">
        <ele>837.7</ele>
        <time>2023-08-19T15:30:53Z</time>
      </trkpt>
      <trkpt lat="39.54482" lon="-2.44598">
        <ele>838.7</ele>
        <time>2023-08-19T15:30:56Z</time>
      </trkpt>
      <trkpt lat="39.54468" lon="-2.44621">
        <ele>838.1</ele>
        <time>2023-08-19T15:30:59Z</time>
      </trkpt>
      <trkpt lat="39.54455" lon="-2.44645">
        <ele>837.2</ele>
        <time>2023-08-19T15:31:02Z</time>
      </trkpt>
      <trkpt lat="39.54439" lon="-2.44674">
        <ele>837.7</ele>
        <time>2023-08-19T15:31:06Z</time>
      </trkpt>
      <trkpt lat="39.54427" lon="-2.44696">
        <ele>837.6</ele>
        <time>2023-08-19T15:31:09Z</time>
      </trkpt>
      <trkpt lat="39.54414" lon="-2.44717">
        <ele>837.8</ele>
        <time>2023-08-19T15:31:12Z</time>
      </trkpt>
      <trkpt lat="39.54402" lon="-2.44742">
        <ele>837.4</ele>
        <time>2023-08-19T15:31:15Z</time>
      </trkpt>
      <trkpt lat="39.54384" lon="-2.44771">
        <ele>838</ele>
        <time>2023-08-19T15:31:19Z</time>
      </trkpt>
      <trkpt lat="39.54367" lon="-2.44801">
        <ele>836.8</ele>
        <time>2023-08-19T15:31:23Z</time>
      </trkpt>
      <trkpt lat="39.54349" lon="-2.4483">
        <ele>836.9</ele>
        <time>2023-08-19T15:31:27Z</time>
      </trkpt>
      <trkpt lat="39.54332" lon="-2.4486">
        <ele>836.9</ele>
        <time>2023-08-19T15:31:31Z</time>
      </trkpt>
      <trkpt lat="39.54319" lon="-2.44883">
        <ele>836.7</ele>
        <time>2023-08-19T15:31:34Z</time>
      </trkpt>
      <trkpt lat="39.54307" lon="-2.44905">
        <ele>835.7</ele>
        <time>2023-08-19T15:31:37Z</time>
      </trkpt>
      <trkpt lat="39.5429" lon="-2.44936">
        <ele>838.1</ele>
        <time>2023-08-19T15:31:41Z</time>
      </trkpt>
      <trkpt lat="39.54273" lon="-2.44967">
        <ele>839.6</ele>
        <time>2023-08-19T15:31:45Z</time>
      </trkpt>
      <trkpt lat="39.54256" lon="-2.44997">
        <ele>839</ele>
        <time>2023-08-19T15:31:49Z</time>
      </trkpt>
      <trkpt lat="39.54243" lon="-2.4502">
        <ele>839</ele>
        <time>2023-08-19T15:31:52Z</time>
      </trkpt>
      <trkpt lat="39.5423" lon="-2.45043">
        <ele>840.3</ele>
        <time>2023-08-19T15:31:55Z</time>
      </trkpt>
      <trkpt lat="39.54218" lon="-2.45065">
        <ele>837.9</ele>
        <time>2023-08-19T15:31:58Z</time>
      </trkpt>
      <trkpt lat="39.54201" lon="-2.45093">
        <ele>839.9</ele>
        <time>2023-08-19T15:32:02Z</time>
      </trkpt>
      <trkpt lat="39.54189" lon="-2.45115">
        <ele>842.5</ele>
        <time>2023-08-19T15:32:05Z</time>
      </trkpt>
      <trkpt lat="39.54171" lon="-2.45145">
        <ele>840.5</ele>
        <time>2023-08-19T15:32:09Z</time>
      </trkpt>
      <trkpt lat="39.54158" lon="-2.45168">
        <ele>842</ele>
        <time>2023-08-19T15:32:12Z</time>
      </trkpt>
      <trkpt lat="39.54139" lon="-2.45199">
        <ele>841.8</ele>
        <time>2023-08-19T15:32:16Z</time>
      </trkpt>
      <trkpt lat="39.54127" lon="-2.45221">
        <ele>842.2</ele>
        <time>2023-08-19T15:32:19Z</time>
      </trkpt>
      <trkpt lat="39.54114" lon="-2.45243">
        <ele>842.6</ele>
        <time>2023-08-19T15:32:22Z</time>
      </trkpt>
      <trkpt lat="39.54102" lon="-2.45265">
        <ele>841.2</ele>
        <time>2023-08-19T15:32:25Z</time>
      </trkpt>
      <trkpt lat="39.54088" lon="-2.4529">
        <ele>842.1</ele>
        <time>2023-08-19T15:32:28Z</time>
      </trkpt>
      <trkpt lat="39.5407" lon="-2.45324">
        <ele>842.8</ele>
        <time>2023-08-19T15:32:32Z</time>
      </trkpt>
      <trkpt lat="39.54047" lon="-2.45363">
        <ele>843.5</ele>
        <time>2023-08-19T15:32:37Z</time>
      </trkpt>
      <trkpt lat="39.5403" lon="-2.45392">
        <ele>844.3</ele>
        <time>2023-08-19T15:32:41Z</time>
      </trkpt>
      <trkpt lat="39.54014" lon="-2.45423">
        <ele>843.9</ele>
        <time>2023-08-19T15:32:45Z</time>
      </trkpt>
      <trkpt lat="39.54001" lon="-2.45445">
        <ele>844</ele>
        <time>2023-08-19T15:32:48Z</time>
      </trkpt>
      <trkpt lat="39.53983" lon="-2.45474">
        <ele>844.4</ele>
        <time>2023-08-19T15:32:52Z</time>
      </trkpt>
      <trkpt lat="39.53966" lon="-2.45504">
        <ele>844.3</ele>
        <time>2023-08-19T15:32:56Z</time>
      </trkpt>
      <trkpt lat="39.53944" lon="-2.45543">
        <ele>845</ele>
        <time>2023-08-19T15:33:01Z</time>
      </trkpt>
      <trkpt lat="39.53932" lon="-2.45564">
        <ele>844.3</ele>
        <time>2023-08-19T15:33:04Z</time>
      </trkpt>
      <trkpt lat="39.53919" lon="-2.45586">
        <ele>844.4</ele>
        <time>2023-08-19T15:33:07Z</time>
      </trkpt>
      <trkpt lat="39.53901" lon="-2.45615">
        <ele>845.9</ele>
        <time>2023-08-19T15:33:11Z</time>
      </trkpt>
      <trkpt lat="39.53881" lon="-2.4565">
        <ele>844.2</ele>
        <time>2023-08-19T15:33:16Z</time>
      </trkpt>
      <trkpt lat="39.53868" lon="-2.45672">
        <ele>845.3</ele>
        <time>2023-08-19T15:33:19Z</time>
      </trkpt>
      <trkpt lat="39.53851" lon="-2.45703">
        <ele>845</ele>
        <time>2023-08-19T15:33:23Z</time>
      </trkpt>
      <trkpt lat="39.53833" lon="-2.45733">
        <ele>846.1</ele>
        <time>2023-08-19T15:33:27Z</time>
      </trkpt>
      <trkpt lat="39.5382" lon="-2.45756">
        <ele>846.6</ele>
        <time>2023-08-19T15:33:30Z</time>
      </trkpt>
      <trkpt lat="39.53808" lon="-2.45778">
        <ele>846.3</ele>
        <time>2023-08-19T15:33:33Z</time>
      </trkpt>
      <trkpt lat="39.53791" lon="-2.45809">
        <ele>847.4</ele>
        <time>2023-08-19T15:33:37Z</time>
      </trkpt>
      <trkpt lat="39.53773" lon="-2.45841">
        <ele>846.8</ele>
        <time>2023-08-19T15:33:41Z</time>
      </trkpt>
      <trkpt lat="39.5376" lon="-2.45863">
        <ele>848</ele>
        <time>2023-08-19T15:33:44Z</time>
      </trkpt>
      <trkpt lat="39.53742" lon="-2.45893">
        <ele>847.6</ele>
        <time>2023-08-19T15:33:48Z</time>
      </trkpt>
      <trkpt lat="39.53727" lon="-2.45922">
        <ele>847.6</ele>
        <time>2023-08-19T15:33:52Z</time>
      </trkpt>
      <trkpt lat="39.53715" lon="-2.45945">
        <ele>848.2</ele>
        <time>2023-08-19T15:33:55Z</time>
      </trkpt>
      <trkpt lat="39.53698" lon="-2.45976">
        <ele>849.1</ele>
        <time>2023-08-19T15:33:59Z</time>
      </trkpt>
      <trkpt lat="39.53679" lon="-2.46008">
        <ele>848.2</ele>
        <time>2023-08-19T15:34:03Z</time>
      </trkpt>
      <trkpt lat="39.53662" lon="-2.46037">
        <ele>849.1</ele>
        <time>2023-08-19T15:34:07Z</time>
      </trkpt>
      <trkpt lat="39.53639" lon="-2.46076">
        <ele>850.1</ele>
        <time>2023-08-19T15:34:12Z</time>
      </trkpt>
      <trkpt lat="39.53626" lon="-2.46099">
        <ele>848.8</ele>
        <time>2023-08-19T15:34:15Z</time>
      </trkpt>
      <trkpt lat="39.53608" lon="-2.4613">
        <ele>851.9</ele>
        <time>2023-08-19T15:34:19Z</time>
      </trkpt>
      <trkpt lat="39.53591" lon="-2.46161">
        <ele>849.6</ele>
        <time>2023-08-19T15:34:23Z</time>
      </trkpt>
      <trkpt lat="39.53576" lon="-2.46191">
        <ele>849.7</ele>
        <time>2023-08-19T15:34:27Z</time>
      </trkpt>
      <trkpt lat="39.53564" lon="-2.46212">
        <ele>851</ele>
        <time>2023-08-19T15:34:30Z</time>
      </trkpt>
      <trkpt lat="39.53548" lon="-2.46245">
        <ele>849.5</ele>
        <time>2023-08-19T15:34:34Z</time>
      </trkpt>
      <trkpt lat="39.53532" lon="-2.46277">
        <ele>849.7</ele>
        <time>2023-08-19T15:34:38Z</time>
      </trkpt>
      <trkpt lat="39.53516" lon="-2.46308">
        <ele>849.4</ele>
        <time>2023-08-19T15:34:42Z</time>
      </trkpt>
      <trkpt lat="39.535" lon="-2.46341">
        <ele>849.1</ele>
        <time>2023-08-19T15:34:46Z</time>
      </trkpt>
      <trkpt lat="39.5349" lon="-2.46365">
        <ele>847.9</ele>
        <time>2023-08-19T15:34:49Z</time>
      </trkpt>
      <trkpt lat="39.53476" lon="-2.46396">
        <ele>847</ele>
        <time>2023-08-19T15:34:53Z</time>
      </trkpt>
      <trkpt lat="39.53462" lon="-2.4643">
        <ele>847.7</ele>
        <time>2023-08-19T15:34:57Z</time>
      </trkpt>
      <trkpt lat="39.53446" lon="-2.46466">
        <ele>845.4</ele>
        <time>2023-08-19T15:35:01Z</time>
      </trkpt>
      <trkpt lat="39.53431" lon="-2.46501">
        <ele>846.8</ele>
        <time>2023-08-19T15:35:05Z</time>
      </trkpt>
      <trkpt lat="39.5342" lon="-2.46525">
        <ele>846.9</ele>
        <time>2023-08-19T15:35:08Z</time>
      </trkpt>
      <trkpt lat="39.53406" lon="-2.46557">
        <ele>846.8</ele>
        <time>2023-08-19T15:35:12Z</time>
      </trkpt>
      <trkpt lat="39.53394" lon="-2.46581">
        <ele>845.8</ele>
        <time>2023-08-19T15:35:15Z</time>
      </trkpt>
      <trkpt lat="39.53384" lon="-2.46604">
        <ele>844.9</ele>
        <time>2023-08-19T15:35:18Z</time>
      </trkpt>
      <trkpt lat="39.53371" lon="-2.46637">
        <ele>845.2</ele>
        <time>2023-08-19T15:35:22Z</time>
      </trkpt>
      <trkpt lat="39.53357" lon="-2.46672">
        <ele>845.7</ele>
        <time>2023-08-19T15:35:26Z</time>
      </trkpt>
      <trkpt lat="39.53345" lon="-2.46697">
        <ele>845</ele>
        <time>2023-08-19T15:35:29Z</time>
      </trkpt>
      <trkpt lat="39.53333" lon="-2.46724">
        <ele>844.4</ele>
        <time>2023-08-19T15:35:32Z</time>
      </trkpt>
      <trkpt lat="39.53321" lon="-2.46751">
        <ele>844.4</ele>
        <time>2023-08-19T15:35:36Z</time>
      </trkpt>
      <trkpt lat="39.53307" lon="-2.46782">
        <ele>844.1</ele>
        <time>2023-08-19T15:35:40Z</time>
      </trkpt>
      <trkpt lat="39.53296" lon="-2.46806">
        <ele>844.3</ele>
        <time>2023-08-19T15:35:43Z</time>
      </trkpt>
      <trkpt lat="39.53284" lon="-2.4683">
        <ele>843.3</ele>
        <time>2023-08-19T15:35:46Z</time>
      </trkpt>
      <trkpt lat="39.5327" lon="-2.46862">
        <ele>845.1</ele>
        <time>2023-08-19T15:35:50Z</time>
      </trkpt>
      <trkpt lat="39.5326" lon="-2.46887">
        <ele>842.2</ele>
        <time>2023-08-19T15:35:53Z</time>
      </trkpt>
      <trkpt lat="39.53249" lon="-2.46911">
        <ele>843.8</ele>
        <time>2023-08-19T15:35:56Z</time>
      </trkpt>
      <trkpt lat="39.53233" lon="-2.46944">
        <ele>844.6</ele>
        <time>2023-08-19T15:36:00Z</time>
      </trkpt>
      <trkpt lat="39.53218" lon="-2.46977">
        <ele>843.9</ele>
        <time>2023-08-19T15:36:04Z</time>
      </trkpt>
      <trkpt lat="39.53207" lon="-2.47001">
        <ele>845.6</ele>
        <time>2023-08-19T15:36:07Z</time>
      </trkpt>
      <trkpt lat="39.53191" lon="-2.47032">
        <ele>846.9</ele>
        <time>2023-08-19T15:36:11Z</time>
      </trkpt>
      <trkpt lat="39.53178" lon="-2.47054">
        <ele>846.6</ele>
        <time>2023-08-19T15:36:14Z</time>
      </trkpt>
      <trkpt lat="39.5316" lon="-2.47081">
        <ele>846.7</ele>
        <time>2023-08-19T15:36:18Z</time>
      </trkpt>
      <trkpt lat="39.53139" lon="-2.47111">
        <ele>848.2</ele>
        <time>2023-08-19T15:36:22Z</time>
      </trkpt>
      <trkpt lat="39.53126" lon="-2.47133">
        <ele>848.6</ele>
        <time>2023-08-19T15:36:25Z</time>
      </trkpt>
      <trkpt lat="39.5311" lon="-2.47161">
        <ele>849.2</ele>
        <time>2023-08-19T15:36:29Z</time>
      </trkpt>
      <trkpt lat="39.53097" lon="-2.47181">
        <ele>849.3</ele>
        <time>2023-08-19T15:36:32Z</time>
      </trkpt>
      <trkpt lat="39.53079" lon="-2.4721">
        <ele>849.9</ele>
        <time>2023-08-19T15:36:36Z</time>
      </trkpt>
      <trkpt lat="39.53066" lon="-2.47231">
        <ele>850.9</ele>
        <time>2023-08-19T15:36:39Z</time>
      </trkpt>
      <trkpt lat="39.53047" lon="-2.47259">
        <ele>852.3</ele>
        <time>2023-08-19T15:36:43Z</time>
      </trkpt>
      <trkpt lat="39.53034" lon="-2.4728">
        <ele>852.3</ele>
        <time>2023-08-19T15:36:46Z</time>
      </trkpt>
      <trkpt lat="39.53014" lon="-2.47308">
        <ele>854.1</ele>
        <time>2023-08-19T15:36:50Z</time>
      </trkpt>
      <trkpt lat="39.52995" lon="-2.47336">
        <ele>855.6</ele>
        <time>2023-08-19T15:36:54Z</time>
      </trkpt>
      <trkpt lat="39.52976" lon="-2.47367">
        <ele>855.5</ele>
        <time>2023-08-19T15:36:58Z</time>
      </trkpt>
      <trkpt lat="39.52961" lon="-2.47393">
        <ele>855.2</ele>
        <time>2023-08-19T15:37:01Z</time>
      </trkpt>
      <trkpt lat="39.52946" lon="-2.47414">
        <ele>856.6</ele>
        <time>2023-08-19T15:37:04Z</time>
      </trkpt>
      <trkpt lat="39.52933" lon="-2.47435">
        <ele>856.8</ele>
        <time>2023-08-19T15:37:07Z</time>
      </trkpt>
      <trkpt lat="39.52914" lon="-2.47463">
        <ele>858.2</ele>
        <time>2023-08-19T15:37:11Z</time>
      </trkpt>
      <trkpt lat="39.52901" lon="-2.47487">
        <ele>858.7</ele>
        <time>2023-08-19T15:37:14Z</time>
      </trkpt>
      <trkpt lat="39.52884" lon="-2.47519">
        <ele>858.3</ele>
        <time>2023-08-19T15:37:18Z</time>
      </trkpt>
      <trkpt lat="39.52866" lon="-2.4755">
        <ele>860.3</ele>
        <time>2023-08-19T15:37:22Z</time>
      </trkpt>
      <trkpt lat="39.52849" lon="-2.47581">
        <ele>859.2</ele>
        <time>2023-08-19T15:37:26Z</time>
      </trkpt>
      <trkpt lat="39.52836" lon="-2.47603">
        <ele>859.7</ele>
        <time>2023-08-19T15:37:29Z</time>
      </trkpt>
      <trkpt lat="39.52824" lon="-2.47626">
        <ele>860.2</ele>
        <time>2023-08-19T15:37:32Z</time>
      </trkpt>
      <trkpt lat="39.52809" lon="-2.47657">
        <ele>859.7</ele>
        <time>2023-08-19T15:37:36Z</time>
      </trkpt>
      <trkpt lat="39.52798" lon="-2.47679">
        <ele>860.7</ele>
        <time>2023-08-19T15:37:39Z</time>
      </trkpt>
      <trkpt lat="39.52783" lon="-2.47709">
        <ele>860.3</ele>
        <time>2023-08-19T15:37:43Z</time>
      </trkpt>
      <trkpt lat="39.52772" lon="-2.47731">
        <ele>860.7</ele>
        <time>2023-08-19T15:37:46Z</time>
      </trkpt>
      <trkpt lat="39.52756" lon="-2.47762">
        <ele>861.2</ele>
        <time>2023-08-19T15:37:50Z</time>
      </trkpt>
      <trkpt lat="39.5274" lon="-2.47792">
        <ele>860.9</ele>
        <time>2023-08-19T15:37:54Z</time>
      </trkpt>
      <trkpt lat="39.52726" lon="-2.47815">
        <ele>861.2</ele>
        <time>2023-08-19T15:37:57Z</time>
      </trkpt>
      <trkpt lat="39.52714" lon="-2.47837">
        <ele>862</ele>
        <time>2023-08-19T15:38:00Z</time>
      </trkpt>
      <trkpt lat="39.52698" lon="-2.47868">
        <ele>861.4</ele>
        <time>2023-08-19T15:38:04Z</time>
      </trkpt>
      <trkpt lat="39.52686" lon="-2.4789">
        <ele>862.4</ele>
        <time>2023-08-19T15:38:07Z</time>
      </trkpt>
      <trkpt lat="39.52666" lon="-2.4792">
        <ele>862.3</ele>
        <time>2023-08-19T15:38:11Z</time>
      </trkpt>
      <trkpt lat="39.52645" lon="-2.47949">
        <ele>863.5</ele>
        <time>2023-08-19T15:38:15Z</time>
      </trkpt>
      <trkpt lat="39.52624" lon="-2.47977">
        <ele>862.8</ele>
        <time>2023-08-19T15:38:19Z</time>
      </trkpt>
      <trkpt lat="39.5261" lon="-2.47997">
        <ele>863.4</ele>
        <time>2023-08-19T15:38:22Z</time>
      </trkpt>
      <trkpt lat="39.52595" lon="-2.48017">
        <ele>862.9</ele>
        <time>2023-08-19T15:38:25Z</time>
      </trkpt>
      <trkpt lat="39.52574" lon="-2.48047">
        <ele>863.5</ele>
        <time>2023-08-19T15:38:29Z</time>
      </trkpt>
      <trkpt lat="39.52559" lon="-2.48067">
        <ele>863.8</ele>
        <time>2023-08-19T15:38:32Z</time>
      </trkpt>
      <trkpt lat="39.52542" lon="-2.48088">
        <ele>864.8</ele>
        <time>2023-08-19T15:38:35Z</time>
      </trkpt>
      <trkpt lat="39.52526" lon="-2.48111">
        <ele>865.2</ele>
        <time>2023-08-19T15:38:38Z</time>
      </trkpt>
      <trkpt lat="39.52507" lon="-2.48138">
        <ele>865.1</ele>
        <time>2023-08-19T15:38:42Z</time>
      </trkpt>
      <trkpt lat="39.52493" lon="-2.48157">
        <ele>865.6</ele>
        <time>2023-08-19T15:38:45Z</time>
      </trkpt>
      <trkpt lat="39.52474" lon="-2.48183">
        <ele>865</ele>
        <time>2023-08-19T15:38:49Z</time>
      </trkpt>
      <trkpt lat="39.5246" lon="-2.48203">
        <ele>864.9</ele>
        <time>2023-08-19T15:38:52Z</time>
      </trkpt>
      <trkpt lat="39.52445" lon="-2.48223">
        <ele>865.4</ele>
        <time>2023-08-19T15:38:55Z</time>
      </trkpt>
      <trkpt lat="39.52432" lon="-2.48244">
        <ele>867</ele>
        <time>2023-08-19T15:38:58Z</time>
      </trkpt>
      <trkpt lat="39.52412" lon="-2.48271">
        <ele>866.2</ele>
        <time>2023-08-19T15:39:02Z</time>
      </trkpt>
      <trkpt lat="39.52392" lon="-2.483">
        <ele>866</ele>
        <time>2023-08-19T15:39:06Z</time>
      </trkpt>
      <trkpt lat="39.52371" lon="-2.48329">
        <ele>865.8</ele>
        <time>2023-08-19T15:39:10Z</time>
      </trkpt>
      <trkpt lat="39.52352" lon="-2.48358">
        <ele>866.1</ele>
        <time>2023-08-19T15:39:14Z</time>
      </trkpt>
      <trkpt lat="39.52331" lon="-2.48387">
        <ele>865.5</ele>
        <time>2023-08-19T15:39:18Z</time>
      </trkpt>
      <trkpt lat="39.52316" lon="-2.48408">
        <ele>865.7</ele>
        <time>2023-08-19T15:39:21Z</time>
      </trkpt>
      <trkpt lat="39.52303" lon="-2.48428">
        <ele>863.6</ele>
        <time>2023-08-19T15:39:24Z</time>
      </trkpt>
      <trkpt lat="39.52284" lon="-2.48455">
        <ele>867.4</ele>
        <time>2023-08-19T15:39:28Z</time>
      </trkpt>
      <trkpt lat="39.52264" lon="-2.48482">
        <ele>865.8</ele>
        <time>2023-08-19T15:39:32Z</time>
      </trkpt>
      <trkpt lat="39.52241" lon="-2.48509">
        <ele>866.9</ele>
        <time>2023-08-19T15:39:36Z</time>
      </trkpt>
      <trkpt lat="39.52221" lon="-2.48536">
        <ele>866.5</ele>
        <time>2023-08-19T15:39:40Z</time>
      </trkpt>
      <trkpt lat="39.52201" lon="-2.48565">
        <ele>866.3</ele>
        <time>2023-08-19T15:39:44Z</time>
      </trkpt>
      <trkpt lat="39.52187" lon="-2.48585">
        <ele>866.5</ele>
        <time>2023-08-19T15:39:47Z</time>
      </trkpt>
      <trkpt lat="39.52168" lon="-2.4861">
        <ele>867.9</ele>
        <time>2023-08-19T15:39:51Z</time>
      </trkpt>
      <trkpt lat="39.52154" lon="-2.4863">
        <ele>866.8</ele>
        <time>2023-08-19T15:39:54Z</time>
      </trkpt>
      <trkpt lat="39.52133" lon="-2.48658">
        <ele>869.3</ele>
        <time>2023-08-19T15:39:58Z</time>
      </trkpt>
      <trkpt lat="39.52113" lon="-2.48687">
        <ele>866.8</ele>
        <time>2023-08-19T15:40:02Z</time>
      </trkpt>
      <trkpt lat="39.52094" lon="-2.48714">
        <ele>867.6</ele>
        <time>2023-08-19T15:40:06Z</time>
      </trkpt>
      <trkpt lat="39.52075" lon="-2.4874">
        <ele>868.5</ele>
        <time>2023-08-19T15:40:10Z</time>
      </trkpt>
      <trkpt lat="39.52056" lon="-2.48765">
        <ele>866.7</ele>
        <time>2023-08-19T15:40:14Z</time>
      </trkpt>
      <trkpt lat="39.5204" lon="-2.48786">
        <ele>867.1</ele>
        <time>2023-08-19T15:40:17Z</time>
      </trkpt>
      <trkpt lat="39.52021" lon="-2.48809">
        <ele>866.9</ele>
        <time>2023-08-19T15:40:21Z</time>
      </trkpt>
      <trkpt lat="39.52003" lon="-2.48834">
        <ele>864.8</ele>
        <time>2023-08-19T15:40:25Z</time>
      </trkpt>
      <trkpt lat="39.51989" lon="-2.48852">
        <ele>863.7</ele>
        <time>2023-08-19T15:40:28Z</time>
      </trkpt>
      <trkpt lat="39.51969" lon="-2.48876">
        <ele>864.3</ele>
        <time>2023-08-19T15:40:32Z</time>
      </trkpt>
      <trkpt lat="39.5195" lon="-2.489">
        <ele>862.8</ele>
        <time>2023-08-19T15:40:36Z</time>
      </trkpt>
      <trkpt lat="39.51938" lon="-2.48916">
        <ele>862.2</ele>
        <time>2023-08-19T15:40:39Z</time>
      </trkpt>
      <trkpt lat="39.51921" lon="-2.4894">
        <ele>862.6</ele>
        <time>2023-08-19T15:40:43Z</time>
      </trkpt>
      <trkpt lat="39.51905" lon="-2.48964">
        <ele>861.6</ele>
        <time>2023-08-19T15:40:47Z</time>
      </trkpt>
      <trkpt lat="39.51891" lon="-2.48984">
        <ele>861.8</ele>
        <time>2023-08-19T15:40:50Z</time>
      </trkpt>
      <trkpt lat="39.51878" lon="-2.49003">
        <ele>861.5</ele>
        <time>2023-08-19T15:40:53Z</time>
      </trkpt>
      <trkpt lat="39.51862" lon="-2.49029">
        <ele>860.9</ele>
        <time>2023-08-19T15:40:57Z</time>
      </trkpt>
      <trkpt lat="39.51851" lon="-2.49049">
        <ele>859.2</ele>
        <time>2023-08-19T15:41:00Z</time>
      </trkpt>
      <trkpt lat="39.51838" lon="-2.49077">
        <ele>859.3</ele>
        <time>2023-08-19T15:41:04Z</time>
      </trkpt>
      <trkpt lat="39.51824" lon="-2.49102">
        <ele>859</ele>
        <time>2023-08-19T15:41:08Z</time>
      </trkpt>
      <trkpt lat="39.51814" lon="-2.49121">
        <ele>858.4</ele>
        <time>2023-08-19T15:41:11Z</time>
      </trkpt>
      <trkpt lat="39.51803" lon="-2.49142">
        <ele>857</ele>
        <time>2023-08-19T15:41:14Z</time>
      </trkpt>
      <trkpt lat="39.51794" lon="-2.49162">
        <ele>857</ele>
        <time>2023-08-19T15:41:17Z</time>
      </trkpt>
      <trkpt lat="39.51781" lon="-2.49191">
        <ele>858.1</ele>
        <time>2023-08-19T15:41:21Z</time>
      </trkpt>
      <trkpt lat="39.5177" lon="-2.49211">
        <ele>858.5</ele>
        <time>2023-08-19T15:41:24Z</time>
      </trkpt>
      <trkpt lat="39.51755" lon="-2.49237">
        <ele>857.9</ele>
        <time>2023-08-19T15:41:28Z</time>
      </trkpt>
      <trkpt lat="39.51739" lon="-2.4926">
        <ele>862.3</ele>
        <time>2023-08-19T15:41:32Z</time>
      </trkpt>
      <trkpt lat="39.51726" lon="-2.49281">
        <ele>857.9</ele>
        <time>2023-08-19T15:41:35Z</time>
      </trkpt>
      <trkpt lat="39.51712" lon="-2.4931">
        <ele>862.8</ele>
        <time>2023-08-19T15:41:39Z</time>
      </trkpt>
      <trkpt lat="39.51704" lon="-2.49334">
        <ele>862.8</ele>
        <time>2023-08-19T15:41:42Z</time>
      </trkpt>
      <trkpt lat="39.51692" lon="-2.49356">
        <ele>865.1</ele>
        <time>2023-08-19T15:41:45Z</time>
      </trkpt>
      <trkpt lat="39.51677" lon="-2.49384">
        <ele>860.8</ele>
        <time>2023-08-19T15:41:49Z</time>
      </trkpt>
      <trkpt lat="39.51662" lon="-2.49408">
        <ele>860.8</ele>
        <time>2023-08-19T15:41:53Z</time>
      </trkpt>
      <trkpt lat="39.51643" lon="-2.49429">
        <ele>857.4</ele>
        <time>2023-08-19T15:41:57Z</time>
      </trkpt>
      <trkpt lat="39.51627" lon="-2.49445">
        <ele>856.3</ele>
        <time>2023-08-19T15:42:00Z</time>
      </trkpt>
      <trkpt lat="39.51613" lon="-2.49461">
        <ele>855.5</ele>
        <time>2023-08-19T15:42:03Z</time>
      </trkpt>
      <trkpt lat="39.51593" lon="-2.49482">
        <ele>855.9</ele>
        <time>2023-08-19T15:42:07Z</time>
      </trkpt>
      <trkpt lat="39.51574" lon="-2.49502">
        <ele>854.8</ele>
        <time>2023-08-19T15:42:11Z</time>
      </trkpt>
      <trkpt lat="39.51553" lon="-2.49523">
        <ele>855.8</ele>
        <time>2023-08-19T15:42:15Z</time>
      </trkpt>
      <trkpt lat="39.51538" lon="-2.49542">
        <ele>856.3</ele>
        <time>2023-08-19T15:42:18Z</time>
      </trkpt>
      <trkpt lat="39.51521" lon="-2.49568">
        <ele>853.8</ele>
        <time>2023-08-19T15:42:22Z</time>
      </trkpt>
      <trkpt lat="39.51505" lon="-2.49593">
        <ele>853.2</ele>
        <time>2023-08-19T15:42:26Z</time>
      </trkpt>
      <trkpt lat="39.51493" lon="-2.49611">
        <ele>854.2</ele>
        <time>2023-08-19T15:42:29Z</time>
      </trkpt>
      <trkpt lat="39.51482" lon="-2.49628">
        <ele>854.5</ele>
        <time>2023-08-19T15:42:32Z</time>
      </trkpt>
      <trkpt lat="39.51473" lon="-2.49649">
        <ele>854.3</ele>
        <time>2023-08-19T15:42:35Z</time>
      </trkpt>
      <trkpt lat="39.51462" lon="-2.49678">
        <ele>854.2</ele>
        <time>2023-08-19T15:42:39Z</time>
      </trkpt>
      <trkpt lat="39.51455" lon="-2.49712">
        <ele>856.3</ele>
        <time>2023-08-19T15:42:43Z</time>
      </trkpt>
      <trkpt lat="39.51452" lon="-2.49737">
        <ele>858.6</ele>
        <time>2023-08-19T15:42:46Z</time>
      </trkpt>
      <trkpt lat="39.5145" lon="-2.49769">
        <ele>859.5</ele>
        <time>2023-08-19T15:42:50Z</time>
      </trkpt>
      <trkpt lat="39.51448" lon="-2.49794">
        <ele>860.8</ele>
        <time>2023-08-19T15:42:53Z</time>
      </trkpt>
      <trkpt lat="39.51438" lon="-2.49824">
        <ele>861.2</ele>
        <time>2023-08-19T15:42:57Z</time>
      </trkpt>
      <trkpt lat="39.51426" lon="-2.49841">
        <ele>861</ele>
        <time>2023-08-19T15:43:00Z</time>
      </trkpt>
      <trkpt lat="39.51405" lon="-2.49854">
        <ele>860.8</ele>
        <time>2023-08-19T15:43:04Z</time>
      </trkpt>
      <trkpt lat="39.51389" lon="-2.49847">
        <ele>859.4</ele>
        <time>2023-08-19T15:43:07Z</time>
      </trkpt>
      <trkpt lat="39.51366" lon="-2.49832">
        <ele>858.4</ele>
        <time>2023-08-19T15:43:11Z</time>
      </trkpt>
      <trkpt lat="39.5134" lon="-2.4982">
        <ele>857.6</ele>
        <time>2023-08-19T15:43:15Z</time>
      </trkpt>
      <trkpt lat="39.51313" lon="-2.49809">
        <ele>857.3</ele>
        <time>2023-08-19T15:43:19Z</time>
      </trkpt>
      <trkpt lat="39.51287" lon="-2.49799">
        <ele>855.7</ele>
        <time>2023-08-19T15:43:23Z</time>
      </trkpt>
      <trkpt lat="39.51262" lon="-2.49789">
        <ele>855.7</ele>
        <time>2023-08-19T15:43:27Z</time>
      </trkpt>
      <trkpt lat="39.51244" lon="-2.49783">
        <ele>854.6</ele>
        <time>2023-08-19T15:43:30Z</time>
      </trkpt>
      <trkpt lat="39.51221" lon="-2.49773">
        <ele>853.6</ele>
        <time>2023-08-19T15:43:34Z</time>
      </trkpt>
      <trkpt lat="39.51204" lon="-2.49766">
        <ele>852.5</ele>
        <time>2023-08-19T15:43:37Z</time>
      </trkpt>
      <trkpt lat="39.51179" lon="-2.49756">
        <ele>851.9</ele>
        <time>2023-08-19T15:43:41Z</time>
      </trkpt>
      <trkpt lat="39.51161" lon="-2.49749">
        <ele>851.2</ele>
        <time>2023-08-19T15:43:44Z</time>
      </trkpt>
      <trkpt lat="39.51136" lon="-2.49739">
        <ele>850.4</ele>
        <time>2023-08-19T15:43:48Z</time>
      </trkpt>
      <trkpt lat="39.51112" lon="-2.49731">
        <ele>849.8</ele>
        <time>2023-08-19T15:43:52Z</time>
      </trkpt>
      <trkpt lat="39.51093" lon="-2.49723">
        <ele>849.2</ele>
        <time>2023-08-19T15:43:55Z</time>
      </trkpt>
      <trkpt lat="39.51068" lon="-2.49712">
        <ele>849.4</ele>
        <time>2023-08-19T15:43:59Z</time>
      </trkpt>
      <trkpt lat="39.51044" lon="-2.49703">
        <ele>848.4</ele>
        <time>2023-08-19T15:44:03Z</time>
      </trkpt>
      <trkpt lat="39.51026" lon="-2.49696">
        <ele>848.3</ele>
        <time>2023-08-19T15:44:06Z</time>
      </trkpt>
      <trkpt lat="39.51002" lon="-2.49687">
        <ele>846.4</ele>
        <time>2023-08-19T15:44:10Z</time>
      </trkpt>
      <trkpt lat="39.50979" lon="-2.49677">
        <ele>847.1</ele>
        <time>2023-08-19T15:44:14Z</time>
      </trkpt>
      <trkpt lat="39.50951" lon="-2.49667">
        <ele>846.1</ele>
        <time>2023-08-19T15:44:18Z</time>
      </trkpt>
      <trkpt lat="39.50925" lon="-2.49658">
        <ele>845.5</ele>
        <time>2023-08-19T15:44:22Z</time>
      </trkpt>
      <trkpt lat="39.50908" lon="-2.49651">
        <ele>845.3</ele>
        <time>2023-08-19T15:44:25Z</time>
      </trkpt>
      <trkpt lat="39.50883" lon="-2.49641">
        <ele>844.5</ele>
        <time>2023-08-19T15:44:29Z</time>
      </trkpt>
      <trkpt lat="39.50864" lon="-2.49633">
        <ele>843.5</ele>
        <time>2023-08-19T15:44:32Z</time>
      </trkpt>
      <trkpt lat="39.50839" lon="-2.49623">
        <ele>843.6</ele>
        <time>2023-08-19T15:44:36Z</time>
      </trkpt>
      <trkpt lat="39.50815" lon="-2.49614">
        <ele>842.4</ele>
        <time>2023-08-19T15:44:40Z</time>
      </trkpt>
      <trkpt lat="39.50791" lon="-2.49605">
        <ele>842.2</ele>
        <time>2023-08-19T15:44:44Z</time>
      </trkpt>
      <trkpt lat="39.50772" lon="-2.49597">
        <ele>839.6</ele>
        <time>2023-08-19T15:44:47Z</time>
      </trkpt>
      <trkpt lat="39.50747" lon="-2.49589">
        <ele>840.8</ele>
        <time>2023-08-19T15:44:51Z</time>
      </trkpt>
      <trkpt lat="39.50723" lon="-2.49579">
        <ele>840.7</ele>
        <time>2023-08-19T15:44:55Z</time>
      </trkpt>
      <trkpt lat="39.50705" lon="-2.49572">
        <ele>839.7</ele>
        <time>2023-08-19T15:44:58Z</time>
      </trkpt>
      <trkpt lat="39.50686" lon="-2.49564">
        <ele>839.6</ele>
        <time>2023-08-19T15:45:01Z</time>
      </trkpt>
      <trkpt lat="39.50656" lon="-2.49553">
        <ele>841.1</ele>
        <time>2023-08-19T15:45:05Z</time>
      </trkpt>
      <trkpt lat="39.50628" lon="-2.49541">
        <ele>839.9</ele>
        <time>2023-08-19T15:45:09Z</time>
      </trkpt>
      <trkpt lat="39.50611" lon="-2.49533">
        <ele>840</ele>
        <time>2023-08-19T15:45:12Z</time>
      </trkpt>
      <trkpt lat="39.50594" lon="-2.49523">
        <ele>839.5</ele>
        <time>2023-08-19T15:45:15Z</time>
      </trkpt>
      <trkpt lat="39.50571" lon="-2.49509">
        <ele>839.2</ele>
        <time>2023-08-19T15:45:19Z</time>
      </trkpt>
      <trkpt lat="39.50551" lon="-2.49495">
        <ele>840.1</ele>
        <time>2023-08-19T15:45:23Z</time>
      </trkpt>
      <trkpt lat="39.50535" lon="-2.49484">
        <ele>839.5</ele>
        <time>2023-08-19T15:45:26Z</time>
      </trkpt>
      <trkpt lat="39.50524" lon="-2.49476">
        <ele>838.8</ele>
        <time>2023-08-19T15:45:29Z</time>
      </trkpt>
      <trkpt lat="39.50516" lon="-2.49471">
        <ele>839.2</ele>
        <time>2023-08-19T15:45:32Z</time>
      </trkpt>
      <trkpt lat="39.50505" lon="-2.49461">
        <ele>838.6</ele>
        <time>2023-08-19T15:45:36Z</time>
      </trkpt>
      <trkpt lat="39.50495" lon="-2.49454">
        <ele>837.8</ele>
        <time>2023-08-19T15:45:40Z</time>
      </trkpt>
      <trkpt lat="39.50498" lon="-2.49453">
        <ele>835</ele>
        <time>2023-08-19T15:54:19Z</time>
      </trkpt>
      <trkpt lat="39.5049" lon="-2.49446">
        <ele>837</ele>
        <time>2023-08-19T15:54:23Z</time>
      </trkpt>
      <trkpt lat="39.50478" lon="-2.49438">
        <ele>836.9</ele>
        <time>2023-08-19T15:54:26Z</time>
      </trkpt>
      <trkpt lat="39.50462" lon="-2.49426">
        <ele>835.8</ele>
        <time>2023-08-19T15:54:29Z</time>
      </trkpt>
      <trkpt lat="39.50428" lon="-2.49402">
        <ele>837</ele>
        <time>2023-08-19T15:54:33Z</time>
      </trkpt>
      <trkpt lat="39.50395" lon="-2.49379">
        <ele>836.7</ele>
        <time>2023-08-19T15:54:37Z</time>
      </trkpt>
      <trkpt lat="39.50363" lon="-2.49356">
        <ele>834.4</ele>
        <time>2023-08-19T15:54:41Z</time>
      </trkpt>
      <trkpt lat="39.50338" lon="-2.49339">
        <ele>835.9</ele>
        <time>2023-08-19T15:54:44Z</time>
      </trkpt>
      <trkpt lat="39.50305" lon="-2.49317">
        <ele>834.5</ele>
        <time>2023-08-19T15:54:48Z</time>
      </trkpt>
      <trkpt lat="39.50284" lon="-2.49302">
        <ele>834</ele>
        <time>2023-08-19T15:54:51Z</time>
      </trkpt>
      <trkpt lat="39.50264" lon="-2.49289">
        <ele>833.9</ele>
        <time>2023-08-19T15:54:54Z</time>
      </trkpt>
      <trkpt lat="39.50244" lon="-2.49275">
        <ele>835.1</ele>
        <time>2023-08-19T15:54:57Z</time>
      </trkpt>
      <trkpt lat="39.50217" lon="-2.49254">
        <ele>835.2</ele>
        <time>2023-08-19T15:55:01Z</time>
      </trkpt>
      <trkpt lat="39.50188" lon="-2.49235">
        <ele>833.4</ele>
        <time>2023-08-19T15:55:05Z</time>
      </trkpt>
      <trkpt lat="39.50159" lon="-2.49214">
        <ele>835.5</ele>
        <time>2023-08-19T15:55:09Z</time>
      </trkpt>
      <trkpt lat="39.5013" lon="-2.49193">
        <ele>836</ele>
        <time>2023-08-19T15:55:13Z</time>
      </trkpt>
      <trkpt lat="39.50109" lon="-2.49178">
        <ele>834.8</ele>
        <time>2023-08-19T15:55:16Z</time>
      </trkpt>
      <trkpt lat="39.50088" lon="-2.49163">
        <ele>838.9</ele>
        <time>2023-08-19T15:55:19Z</time>
      </trkpt>
      <trkpt lat="39.50068" lon="-2.49148">
        <ele>838.2</ele>
        <time>2023-08-19T15:55:22Z</time>
      </trkpt>
      <trkpt lat="39.50038" lon="-2.49128">
        <ele>837.8</ele>
        <time>2023-08-19T15:55:26Z</time>
      </trkpt>
      <trkpt lat="39.50009" lon="-2.49107">
        <ele>839.5</ele>
        <time>2023-08-19T15:55:30Z</time>
      </trkpt>
      <trkpt lat="39.49981" lon="-2.49087">
        <ele>839.1</ele>
        <time>2023-08-19T15:55:34Z</time>
      </trkpt>
      <trkpt lat="39.49952" lon="-2.49067">
        <ele>839.6</ele>
        <time>2023-08-19T15:55:38Z</time>
      </trkpt>
      <trkpt lat="39.4993" lon="-2.49053">
        <ele>839.6</ele>
        <time>2023-08-19T15:55:41Z</time>
      </trkpt>
      <trkpt lat="39.49901" lon="-2.49032">
        <ele>839.6</ele>
        <time>2023-08-19T15:55:45Z</time>
      </trkpt>
      <trkpt lat="39.49873" lon="-2.49013">
        <ele>840.4</ele>
        <time>2023-08-19T15:55:49Z</time>
      </trkpt>
      <trkpt lat="39.49851" lon="-2.48997">
        <ele>840</ele>
        <time>2023-08-19T15:55:52Z</time>
      </trkpt>
      <trkpt lat="39.49815" lon="-2.48973">
        <ele>839.3</ele>
        <time>2023-08-19T15:55:57Z</time>
      </trkpt>
      <trkpt lat="39.49794" lon="-2.48958">
        <ele>839.9</ele>
        <time>2023-08-19T15:56:00Z</time>
      </trkpt>
      <trkpt lat="39.49758" lon="-2.48933">
        <ele>838.5</ele>
        <time>2023-08-19T15:56:05Z</time>
      </trkpt>
      <trkpt lat="39.49736" lon="-2.48917">
        <ele>838.1</ele>
        <time>2023-08-19T15:56:08Z</time>
      </trkpt>
      <trkpt lat="39.49714" lon="-2.48902">
        <ele>839.4</ele>
        <time>2023-08-19T15:56:11Z</time>
      </trkpt>
      <trkpt lat="39.49685" lon="-2.48882">
        <ele>839.2</ele>
        <time>2023-08-19T15:56:15Z</time>
      </trkpt>
      <trkpt lat="39.49657" lon="-2.48863">
        <ele>836.6</ele>
        <time>2023-08-19T15:56:19Z</time>
      </trkpt>
      <trkpt lat="39.4963" lon="-2.48844">
        <ele>840.7</ele>
        <time>2023-08-19T15:56:23Z</time>
      </trkpt>
      <trkpt lat="39.49608" lon="-2.48829">
        <ele>838.3</ele>
        <time>2023-08-19T15:56:26Z</time>
      </trkpt>
      <trkpt lat="39.49586" lon="-2.48813">
        <ele>840.9</ele>
        <time>2023-08-19T15:56:29Z</time>
      </trkpt>
      <trkpt lat="39.49556" lon="-2.48792">
        <ele>842.2</ele>
        <time>2023-08-19T15:56:33Z</time>
      </trkpt>
      <trkpt lat="39.49535" lon="-2.48777">
        <ele>843.2</ele>
        <time>2023-08-19T15:56:36Z</time>
      </trkpt>
      <trkpt lat="39.49515" lon="-2.48761">
        <ele>840.9</ele>
        <time>2023-08-19T15:56:39Z</time>
      </trkpt>
      <trkpt lat="39.49493" lon="-2.48747">
        <ele>843.6</ele>
        <time>2023-08-19T15:56:42Z</time>
      </trkpt>
      <trkpt lat="39.49465" lon="-2.48726">
        <ele>842.4</ele>
        <time>2023-08-19T15:56:46Z</time>
      </trkpt>
      <trkpt lat="39.49443" lon="-2.48711">
        <ele>843.6</ele>
        <time>2023-08-19T15:56:49Z</time>
      </trkpt>
      <trkpt lat="39.49414" lon="-2.48691">
        <ele>843</ele>
        <time>2023-08-19T15:56:53Z</time>
      </trkpt>
      <trkpt lat="39.49385" lon="-2.4867">
        <ele>843.4</ele>
        <time>2023-08-19T15:56:57Z</time>
      </trkpt>
      <trkpt lat="39.49357" lon="-2.48651">
        <ele>843</ele>
        <time>2023-08-19T15:57:01Z</time>
      </trkpt>
      <trkpt lat="39.49337" lon="-2.48636">
        <ele>845.9</ele>
        <time>2023-08-19T15:57:04Z</time>
      </trkpt>
      <trkpt lat="39.49308" lon="-2.48615">
        <ele>845.6</ele>
        <time>2023-08-19T15:57:08Z</time>
      </trkpt>
      <trkpt lat="39.49279" lon="-2.48595">
        <ele>844</ele>
        <time>2023-08-19T15:57:12Z</time>
      </trkpt>
      <trkpt lat="39.49258" lon="-2.4858">
        <ele>843.8</ele>
        <time>2023-08-19T15:57:15Z</time>
      </trkpt>
      <trkpt lat="39.49237" lon="-2.48564">
        <ele>839.8</ele>
        <time>2023-08-19T15:57:18Z</time>
      </trkpt>
      <trkpt lat="39.49201" lon="-2.48538">
        <ele>841.8</ele>
        <time>2023-08-19T15:57:23Z</time>
      </trkpt>
      <trkpt lat="39.4918" lon="-2.48524">
        <ele>841.6</ele>
        <time>2023-08-19T15:57:26Z</time>
      </trkpt>
      <trkpt lat="39.49154" lon="-2.48505">
        <ele>841.7</ele>
        <time>2023-08-19T15:57:30Z</time>
      </trkpt>
      <trkpt lat="39.49125" lon="-2.48484">
        <ele>839.1</ele>
        <time>2023-08-19T15:57:34Z</time>
      </trkpt>
      <trkpt lat="39.49096" lon="-2.48464">
        <ele>841.4</ele>
        <time>2023-08-19T15:57:38Z</time>
      </trkpt>
      <trkpt lat="39.49067" lon="-2.48444">
        <ele>843.8</ele>
        <time>2023-08-19T15:57:42Z</time>
      </trkpt>
      <trkpt lat="39.49046" lon="-2.4843">
        <ele>843.5</ele>
        <time>2023-08-19T15:57:45Z</time>
      </trkpt>
      <trkpt lat="39.49024" lon="-2.48416">
        <ele>844.1</ele>
        <time>2023-08-19T15:57:48Z</time>
      </trkpt>
      <trkpt lat="39.48995" lon="-2.48397">
        <ele>847.5</ele>
        <time>2023-08-19T15:57:52Z</time>
      </trkpt>
      <trkpt lat="39.48972" lon="-2.48382">
        <ele>845.1</ele>
        <time>2023-08-19T15:57:55Z</time>
      </trkpt>
      <trkpt lat="39.48941" lon="-2.48359">
        <ele>845.7</ele>
        <time>2023-08-19T15:57:59Z</time>
      </trkpt>
      <trkpt lat="39.48911" lon="-2.48338">
        <ele>846.1</ele>
        <time>2023-08-19T15:58:03Z</time>
      </trkpt>
      <trkpt lat="39.48882" lon="-2.48319">
        <ele>845.2</ele>
        <time>2023-08-19T15:58:07Z</time>
      </trkpt>
      <trkpt lat="39.48863" lon="-2.48304">
        <ele>843.3</ele>
        <time>2023-08-19T15:58:10Z</time>
      </trkpt>
      <trkpt lat="39.48834" lon="-2.48283">
        <ele>844.2</ele>
        <time>2023-08-19T15:58:14Z</time>
      </trkpt>
      <trkpt lat="39.48813" lon="-2.48268">
        <ele>840.2</ele>
        <time>2023-08-19T15:58:17Z</time>
      </trkpt>
      <trkpt lat="39.48784" lon="-2.48247">
        <ele>841.2</ele>
        <time>2023-08-19T15:58:21Z</time>
      </trkpt>
      <trkpt lat="39.48762" lon="-2.48232">
        <ele>842.7</ele>
        <time>2023-08-19T15:58:24Z</time>
      </trkpt>
      <trkpt lat="39.48726" lon="-2.48207">
        <ele>841.6</ele>
        <time>2023-08-19T15:58:29Z</time>
      </trkpt>
      <trkpt lat="39.48706" lon="-2.48193">
        <ele>843.4</ele>
        <time>2023-08-19T15:58:32Z</time>
      </trkpt>
      <trkpt lat="39.48679" lon="-2.48173">
        <ele>840.5</ele>
        <time>2023-08-19T15:58:36Z</time>
      </trkpt>
      <trkpt lat="39.48659" lon="-2.48158">
        <ele>844.8</ele>
        <time>2023-08-19T15:58:39Z</time>
      </trkpt>
      <trkpt lat="39.4863" lon="-2.48138">
        <ele>843.9</ele>
        <time>2023-08-19T15:58:43Z</time>
      </trkpt>
      <trkpt lat="39.48604" lon="-2.48119">
        <ele>845.8</ele>
        <time>2023-08-19T15:58:47Z</time>
      </trkpt>
      <trkpt lat="39.48576" lon="-2.48099">
        <ele>846.4</ele>
        <time>2023-08-19T15:58:51Z</time>
      </trkpt>
      <trkpt lat="39.4855" lon="-2.48081">
        <ele>848.9</ele>
        <time>2023-08-19T15:58:55Z</time>
      </trkpt>
      <trkpt lat="39.48523" lon="-2.48062">
        <ele>850.5</ele>
        <time>2023-08-19T15:58:59Z</time>
      </trkpt>
      <trkpt lat="39.48504" lon="-2.48049">
        <ele>851.3</ele>
        <time>2023-08-19T15:59:02Z</time>
      </trkpt>
      <trkpt lat="39.48484" lon="-2.48035">
        <ele>851.2</ele>
        <time>2023-08-19T15:59:05Z</time>
      </trkpt>
      <trkpt lat="39.48465" lon="-2.48021">
        <ele>851.2</ele>
        <time>2023-08-19T15:59:08Z</time>
      </trkpt>
      <trkpt lat="39.48444" lon="-2.48007">
        <ele>854.5</ele>
        <time>2023-08-19T15:59:11Z</time>
      </trkpt>
      <trkpt lat="39.48411" lon="-2.47984">
        <ele>853</ele>
        <time>2023-08-19T15:59:16Z</time>
      </trkpt>
      <trkpt lat="39.4839" lon="-2.47969">
        <ele>852.8</ele>
        <time>2023-08-19T15:59:19Z</time>
      </trkpt>
      <trkpt lat="39.4836" lon="-2.47948">
        <ele>853.4</ele>
        <time>2023-08-19T15:59:23Z</time>
      </trkpt>
      <trkpt lat="39.48329" lon="-2.47928">
        <ele>856.4</ele>
        <time>2023-08-19T15:59:27Z</time>
      </trkpt>
      <trkpt lat="39.48296" lon="-2.4791">
        <ele>853.3</ele>
        <time>2023-08-19T15:59:31Z</time>
      </trkpt>
      <trkpt lat="39.48267" lon="-2.47893">
        <ele>851.2</ele>
        <time>2023-08-19T15:59:35Z</time>
      </trkpt>
      <trkpt lat="39.48237" lon="-2.47875">
        <ele>852.8</ele>
        <time>2023-08-19T15:59:39Z</time>
      </trkpt>
      <trkpt lat="39.48215" lon="-2.47861">
        <ele>851.6</ele>
        <time>2023-08-19T15:59:42Z</time>
      </trkpt>
      <trkpt lat="39.48185" lon="-2.4784">
        <ele>849.9</ele>
        <time>2023-08-19T15:59:46Z</time>
      </trkpt>
      <trkpt lat="39.48155" lon="-2.47821">
        <ele>847.5</ele>
        <time>2023-08-19T15:59:50Z</time>
      </trkpt>
      <trkpt lat="39.48131" lon="-2.47807">
        <ele>848.7</ele>
        <time>2023-08-19T15:59:53Z</time>
      </trkpt>
      <trkpt lat="39.4811" lon="-2.47794">
        <ele>848.5</ele>
        <time>2023-08-19T15:59:56Z</time>
      </trkpt>
      <trkpt lat="39.48088" lon="-2.4778">
        <ele>846.3</ele>
        <time>2023-08-19T15:59:59Z</time>
      </trkpt>
      <trkpt lat="39.48059" lon="-2.47762">
        <ele>844.8</ele>
        <time>2023-08-19T16:00:03Z</time>
      </trkpt>
      <trkpt lat="39.48039" lon="-2.47749">
        <ele>845</ele>
        <time>2023-08-19T16:00:06Z</time>
      </trkpt>
      <trkpt lat="39.48018" lon="-2.47737">
        <ele>844.6</ele>
        <time>2023-08-19T16:00:09Z</time>
      </trkpt>
      <trkpt lat="39.47988" lon="-2.47718">
        <ele>846.3</ele>
        <time>2023-08-19T16:00:13Z</time>
      </trkpt>
      <trkpt lat="39.47966" lon="-2.47704">
        <ele>847.8</ele>
        <time>2023-08-19T16:00:16Z</time>
      </trkpt>
      <trkpt lat="39.47945" lon="-2.47691">
        <ele>847.6</ele>
        <time>2023-08-19T16:00:19Z</time>
      </trkpt>
      <trkpt lat="39.47907" lon="-2.47668">
        <ele>848.2</ele>
        <time>2023-08-19T16:00:24Z</time>
      </trkpt>
      <trkpt lat="39.47878" lon="-2.4765">
        <ele>850.4</ele>
        <time>2023-08-19T16:00:28Z</time>
      </trkpt>
      <trkpt lat="39.47849" lon="-2.47631">
        <ele>848.4</ele>
        <time>2023-08-19T16:00:32Z</time>
      </trkpt>
      <trkpt lat="39.47827" lon="-2.47618">
        <ele>849.2</ele>
        <time>2023-08-19T16:00:35Z</time>
      </trkpt>
      <trkpt lat="39.47798" lon="-2.476">
        <ele>848.2</ele>
        <time>2023-08-19T16:00:39Z</time>
      </trkpt>
      <trkpt lat="39.47769" lon="-2.47581">
        <ele>849.8</ele>
        <time>2023-08-19T16:00:43Z</time>
      </trkpt>
      <trkpt lat="39.47748" lon="-2.47566">
        <ele>849.5</ele>
        <time>2023-08-19T16:00:46Z</time>
      </trkpt>
      <trkpt lat="39.47718" lon="-2.47547">
        <ele>848.2</ele>
        <time>2023-08-19T16:00:50Z</time>
      </trkpt>
      <trkpt lat="39.4768" lon="-2.47524">
        <ele>849.5</ele>
        <time>2023-08-19T16:00:55Z</time>
      </trkpt>
      <trkpt lat="39.47656" lon="-2.47511">
        <ele>848.6</ele>
        <time>2023-08-19T16:00:58Z</time>
      </trkpt>
      <trkpt lat="39.47634" lon="-2.47497">
        <ele>846.6</ele>
        <time>2023-08-19T16:01:01Z</time>
      </trkpt>
      <trkpt lat="39.47613" lon="-2.47483">
        <ele>845.5</ele>
        <time>2023-08-19T16:01:04Z</time>
      </trkpt>
      <trkpt lat="39.47592" lon="-2.47469">
        <ele>845</ele>
        <time>2023-08-19T16:01:07Z</time>
      </trkpt>
      <trkpt lat="39.47562" lon="-2.4745">
        <ele>847.1</ele>
        <time>2023-08-19T16:01:11Z</time>
      </trkpt>
      <trkpt lat="39.47535" lon="-2.47433">
        <ele>842.4</ele>
        <time>2023-08-19T16:01:15Z</time>
      </trkpt>
      <trkpt lat="39.47513" lon="-2.47421">
        <ele>843.1</ele>
        <time>2023-08-19T16:01:18Z</time>
      </trkpt>
      <trkpt lat="39.4749" lon="-2.47407">
        <ele>844.1</ele>
        <time>2023-08-19T16:01:21Z</time>
      </trkpt>
      <trkpt lat="39.47461" lon="-2.47387">
        <ele>841.5</ele>
        <time>2023-08-19T16:01:25Z</time>
      </trkpt>
      <trkpt lat="39.47438" lon="-2.47372">
        <ele>843.6</ele>
        <time>2023-08-19T16:01:28Z</time>
      </trkpt>
      <trkpt lat="39.47408" lon="-2.47353">
        <ele>840.8</ele>
        <time>2023-08-19T16:01:32Z</time>
      </trkpt>
      <trkpt lat="39.47386" lon="-2.4734">
        <ele>841.3</ele>
        <time>2023-08-19T16:01:35Z</time>
      </trkpt>
      <trkpt lat="39.47359" lon="-2.47322">
        <ele>841.3</ele>
        <time>2023-08-19T16:01:39Z</time>
      </trkpt>
      <trkpt lat="39.47321" lon="-2.47298">
        <ele>837.8</ele>
        <time>2023-08-19T16:01:44Z</time>
      </trkpt>
      <trkpt lat="39.47292" lon="-2.4728">
        <ele>839.7</ele>
        <time>2023-08-19T16:01:48Z</time>
      </trkpt>
      <trkpt lat="39.47269" lon="-2.47268">
        <ele>840.5</ele>
        <time>2023-08-19T16:01:51Z</time>
      </trkpt>
      <trkpt lat="39.47242" lon="-2.47252">
        <ele>838.6</ele>
        <time>2023-08-19T16:01:55Z</time>
      </trkpt>
      <trkpt lat="39.47222" lon="-2.47239">
        <ele>840.2</ele>
        <time>2023-08-19T16:01:58Z</time>
      </trkpt>
      <trkpt lat="39.47194" lon="-2.47221">
        <ele>840.5</ele>
        <time>2023-08-19T16:02:02Z</time>
      </trkpt>
      <trkpt lat="39.47173" lon="-2.47208">
        <ele>839.7</ele>
        <time>2023-08-19T16:02:05Z</time>
      </trkpt>
      <trkpt lat="39.4714" lon="-2.47189">
        <ele>841.9</ele>
        <time>2023-08-19T16:02:09Z</time>
      </trkpt>
      <trkpt lat="39.47115" lon="-2.47173">
        <ele>842.3</ele>
        <time>2023-08-19T16:02:12Z</time>
      </trkpt>
      <trkpt lat="39.47082" lon="-2.47152">
        <ele>840.8</ele>
        <time>2023-08-19T16:02:16Z</time>
      </trkpt>
      <trkpt lat="39.47054" lon="-2.47135">
        <ele>838.5</ele>
        <time>2023-08-19T16:02:20Z</time>
      </trkpt>
      <trkpt lat="39.47025" lon="-2.47116">
        <ele>838.7</ele>
        <time>2023-08-19T16:02:24Z</time>
      </trkpt>
      <trkpt lat="39.46996" lon="-2.47098">
        <ele>837.4</ele>
        <time>2023-08-19T16:02:28Z</time>
      </trkpt>
      <trkpt lat="39.46968" lon="-2.47081">
        <ele>837.2</ele>
        <time>2023-08-19T16:02:32Z</time>
      </trkpt>
      <trkpt lat="39.46946" lon="-2.47067">
        <ele>835.2</ele>
        <time>2023-08-19T16:02:35Z</time>
      </trkpt>
      <trkpt lat="39.46917" lon="-2.47048">
        <ele>834.7</ele>
        <time>2023-08-19T16:02:39Z</time>
      </trkpt>
      <trkpt lat="39.46896" lon="-2.47034">
        <ele>833.1</ele>
        <time>2023-08-19T16:02:42Z</time>
      </trkpt>
      <trkpt lat="39.46866" lon="-2.47016">
        <ele>833</ele>
        <time>2023-08-19T16:02:46Z</time>
      </trkpt>
      <trkpt lat="39.46844" lon="-2.47003">
        <ele>832.2</ele>
        <time>2023-08-19T16:02:49Z</time>
      </trkpt>
      <trkpt lat="39.46814" lon="-2.46984">
        <ele>832</ele>
        <time>2023-08-19T16:02:53Z</time>
      </trkpt>
      <trkpt lat="39.46785" lon="-2.46966">
        <ele>830.3</ele>
        <time>2023-08-19T16:02:57Z</time>
      </trkpt>
      <trkpt lat="39.46763" lon="-2.46952">
        <ele>829.8</ele>
        <time>2023-08-19T16:03:00Z</time>
      </trkpt>
      <trkpt lat="39.46734" lon="-2.46933">
        <ele>828.4</ele>
        <time>2023-08-19T16:03:04Z</time>
      </trkpt>
      <trkpt lat="39.46698" lon="-2.4691">
        <ele>830.1</ele>
        <time>2023-08-19T16:03:09Z</time>
      </trkpt>
      <trkpt lat="39.46677" lon="-2.46897">
        <ele>830.2</ele>
        <time>2023-08-19T16:03:12Z</time>
      </trkpt>
      <trkpt lat="39.4665" lon="-2.4688">
        <ele>831.4</ele>
        <time>2023-08-19T16:03:16Z</time>
      </trkpt>
      <trkpt lat="39.46628" lon="-2.46867">
        <ele>831.5</ele>
        <time>2023-08-19T16:03:19Z</time>
      </trkpt>
      <trkpt lat="39.46605" lon="-2.46853">
        <ele>832.6</ele>
        <time>2023-08-19T16:03:22Z</time>
      </trkpt>
      <trkpt lat="39.46572" lon="-2.46831">
        <ele>832.4</ele>
        <time>2023-08-19T16:03:26Z</time>
      </trkpt>
      <trkpt lat="39.4654" lon="-2.46811">
        <ele>828.2</ele>
        <time>2023-08-19T16:03:30Z</time>
      </trkpt>
      <trkpt lat="39.4652" lon="-2.46798">
        <ele>828.1</ele>
        <time>2023-08-19T16:03:33Z</time>
      </trkpt>
      <trkpt lat="39.46492" lon="-2.46782">
        <ele>828.5</ele>
        <time>2023-08-19T16:03:37Z</time>
      </trkpt>
      <trkpt lat="39.46471" lon="-2.46768">
        <ele>826.8</ele>
        <time>2023-08-19T16:03:40Z</time>
      </trkpt>
      <trkpt lat="39.46442" lon="-2.4675">
        <ele>824.5</ele>
        <time>2023-08-19T16:03:44Z</time>
      </trkpt>
      <trkpt lat="39.46411" lon="-2.46731">
        <ele>825.6</ele>
        <time>2023-08-19T16:03:48Z</time>
      </trkpt>
      <trkpt lat="39.4638" lon="-2.46712">
        <ele>823.4</ele>
        <time>2023-08-19T16:03:52Z</time>
      </trkpt>
      <trkpt lat="39.46359" lon="-2.46699">
        <ele>821.6</ele>
        <time>2023-08-19T16:03:55Z</time>
      </trkpt>
      <trkpt lat="39.46337" lon="-2.46686">
        <ele>822.2</ele>
        <time>2023-08-19T16:03:58Z</time>
      </trkpt>
      <trkpt lat="39.4631" lon="-2.46669">
        <ele>822.9</ele>
        <time>2023-08-19T16:04:02Z</time>
      </trkpt>
      <trkpt lat="39.46282" lon="-2.46651">
        <ele>823.2</ele>
        <time>2023-08-19T16:04:06Z</time>
      </trkpt>
      <trkpt lat="39.46261" lon="-2.46638">
        <ele>825.2</ele>
        <time>2023-08-19T16:04:09Z</time>
      </trkpt>
      <trkpt lat="39.46231" lon="-2.46619">
        <ele>826.3</ele>
        <time>2023-08-19T16:04:13Z</time>
      </trkpt>
      <trkpt lat="39.46201" lon="-2.46601">
        <ele>826.5</ele>
        <time>2023-08-19T16:04:17Z</time>
      </trkpt>
      <trkpt lat="39.46177" lon="-2.46585">
        <ele>827.8</ele>
        <time>2023-08-19T16:04:20Z</time>
      </trkpt>
      <trkpt lat="39.46143" lon="-2.46565">
        <ele>824.1</ele>
        <time>2023-08-19T16:04:24Z</time>
      </trkpt>
      <trkpt lat="39.46115" lon="-2.46547">
        <ele>825.6</ele>
        <time>2023-08-19T16:04:28Z</time>
      </trkpt>
      <trkpt lat="39.46088" lon="-2.46529">
        <ele>822.8</ele>
        <time>2023-08-19T16:04:32Z</time>
      </trkpt>
      <trkpt lat="39.46067" lon="-2.46516">
        <ele>824.6</ele>
        <time>2023-08-19T16:04:35Z</time>
      </trkpt>
      <trkpt lat="39.46044" lon="-2.46501">
        <ele>822.9</ele>
        <time>2023-08-19T16:04:38Z</time>
      </trkpt>
      <trkpt lat="39.46013" lon="-2.46484">
        <ele>822.7</ele>
        <time>2023-08-19T16:04:42Z</time>
      </trkpt>
      <trkpt lat="39.45991" lon="-2.46469">
        <ele>822.2</ele>
        <time>2023-08-19T16:04:45Z</time>
      </trkpt>
      <trkpt lat="39.45968" lon="-2.46455">
        <ele>821.2</ele>
        <time>2023-08-19T16:04:48Z</time>
      </trkpt>
      <trkpt lat="39.45939" lon="-2.46437">
        <ele>819.4</ele>
        <time>2023-08-19T16:04:52Z</time>
      </trkpt>
      <trkpt lat="39.45912" lon="-2.46419">
        <ele>819.6</ele>
        <time>2023-08-19T16:04:56Z</time>
      </trkpt>
      <trkpt lat="39.45883" lon="-2.46401">
        <ele>818.2</ele>
        <time>2023-08-19T16:05:00Z</time>
      </trkpt>
      <trkpt lat="39.45853" lon="-2.46383">
        <ele>817.5</ele>
        <time>2023-08-19T16:05:04Z</time>
      </trkpt>
      <trkpt lat="39.45822" lon="-2.46364">
        <ele>816.4</ele>
        <time>2023-08-19T16:05:08Z</time>
      </trkpt>
      <trkpt lat="39.45794" lon="-2.46347">
        <ele>818.4</ele>
        <time>2023-08-19T16:05:12Z</time>
      </trkpt>
      <trkpt lat="39.45766" lon="-2.46329">
        <ele>815.5</ele>
        <time>2023-08-19T16:05:16Z</time>
      </trkpt>
      <trkpt lat="39.45745" lon="-2.46315">
        <ele>816.7</ele>
        <time>2023-08-19T16:05:19Z</time>
      </trkpt>
      <trkpt lat="39.45716" lon="-2.46297">
        <ele>816.2</ele>
        <time>2023-08-19T16:05:23Z</time>
      </trkpt>
      <trkpt lat="39.45694" lon="-2.46282">
        <ele>815.7</ele>
        <time>2023-08-19T16:05:26Z</time>
      </trkpt>
      <trkpt lat="39.4567" lon="-2.46267">
        <ele>814.1</ele>
        <time>2023-08-19T16:05:29Z</time>
      </trkpt>
      <trkpt lat="39.45641" lon="-2.46249">
        <ele>815.7</ele>
        <time>2023-08-19T16:05:33Z</time>
      </trkpt>
      <trkpt lat="39.45619" lon="-2.46234">
        <ele>816.4</ele>
        <time>2023-08-19T16:05:36Z</time>
      </trkpt>
      <trkpt lat="39.4559" lon="-2.46217">
        <ele>815</ele>
        <time>2023-08-19T16:05:40Z</time>
      </trkpt>
      <trkpt lat="39.45569" lon="-2.46205">
        <ele>818</ele>
        <time>2023-08-19T16:05:43Z</time>
      </trkpt>
      <trkpt lat="39.45547" lon="-2.4619">
        <ele>817.1</ele>
        <time>2023-08-19T16:05:46Z</time>
      </trkpt>
      <trkpt lat="39.45517" lon="-2.46172">
        <ele>818.1</ele>
        <time>2023-08-19T16:05:50Z</time>
      </trkpt>
      <trkpt lat="39.45487" lon="-2.46154">
        <ele>816.7</ele>
        <time>2023-08-19T16:05:54Z</time>
      </trkpt>
      <trkpt lat="39.45451" lon="-2.4613">
        <ele>814.7</ele>
        <time>2023-08-19T16:05:59Z</time>
      </trkpt>
      <trkpt lat="39.45429" lon="-2.46117">
        <ele>820.1</ele>
        <time>2023-08-19T16:06:02Z</time>
      </trkpt>
      <trkpt lat="39.45399" lon="-2.46098">
        <ele>817.8</ele>
        <time>2023-08-19T16:06:06Z</time>
      </trkpt>
      <trkpt lat="39.45377" lon="-2.46084">
        <ele>817.4</ele>
        <time>2023-08-19T16:06:09Z</time>
      </trkpt>
      <trkpt lat="39.45355" lon="-2.46069">
        <ele>815.8</ele>
        <time>2023-08-19T16:06:12Z</time>
      </trkpt>
      <trkpt lat="39.45325" lon="-2.46051">
        <ele>816.9</ele>
        <time>2023-08-19T16:06:16Z</time>
      </trkpt>
      <trkpt lat="39.45303" lon="-2.46039">
        <ele>815</ele>
        <time>2023-08-19T16:06:19Z</time>
      </trkpt>
      <trkpt lat="39.45281" lon="-2.46026">
        <ele>815</ele>
        <time>2023-08-19T16:06:22Z</time>
      </trkpt>
      <trkpt lat="39.45251" lon="-2.46007">
        <ele>811.6</ele>
        <time>2023-08-19T16:06:26Z</time>
      </trkpt>
      <trkpt lat="39.4522" lon="-2.45988">
        <ele>812.4</ele>
        <time>2023-08-19T16:06:30Z</time>
      </trkpt>
      <trkpt lat="39.45199" lon="-2.45974">
        <ele>811.2</ele>
        <time>2023-08-19T16:06:33Z</time>
      </trkpt>
      <trkpt lat="39.45171" lon="-2.45956">
        <ele>811.9</ele>
        <time>2023-08-19T16:06:37Z</time>
      </trkpt>
      <trkpt lat="39.45143" lon="-2.45939">
        <ele>812.1</ele>
        <time>2023-08-19T16:06:41Z</time>
      </trkpt>
      <trkpt lat="39.45123" lon="-2.45925">
        <ele>812.3</ele>
        <time>2023-08-19T16:06:44Z</time>
      </trkpt>
      <trkpt lat="39.451" lon="-2.45912">
        <ele>814.8</ele>
        <time>2023-08-19T16:06:47Z</time>
      </trkpt>
      <trkpt lat="39.45072" lon="-2.45893">
        <ele>815.1</ele>
        <time>2023-08-19T16:06:51Z</time>
      </trkpt>
      <trkpt lat="39.45049" lon="-2.45879">
        <ele>813.7</ele>
        <time>2023-08-19T16:06:54Z</time>
      </trkpt>
      <trkpt lat="39.45021" lon="-2.45862">
        <ele>815.3</ele>
        <time>2023-08-19T16:06:58Z</time>
      </trkpt>
      <trkpt lat="39.44998" lon="-2.45848">
        <ele>816.1</ele>
        <time>2023-08-19T16:07:01Z</time>
      </trkpt>
      <trkpt lat="39.4497" lon="-2.4583">
        <ele>817.4</ele>
        <time>2023-08-19T16:07:05Z</time>
      </trkpt>
      <trkpt lat="39.4494" lon="-2.45811">
        <ele>817.2</ele>
        <time>2023-08-19T16:07:09Z</time>
      </trkpt>
      <trkpt lat="39.44918" lon="-2.45797">
        <ele>816.9</ele>
        <time>2023-08-19T16:07:12Z</time>
      </trkpt>
      <trkpt lat="39.44888" lon="-2.45779">
        <ele>816.8</ele>
        <time>2023-08-19T16:07:16Z</time>
      </trkpt>
      <trkpt lat="39.44866" lon="-2.45766">
        <ele>817.2</ele>
        <time>2023-08-19T16:07:19Z</time>
      </trkpt>
      <trkpt lat="39.44834" lon="-2.45747">
        <ele>817.8</ele>
        <time>2023-08-19T16:07:23Z</time>
      </trkpt>
      <trkpt lat="39.4481" lon="-2.45733">
        <ele>815.9</ele>
        <time>2023-08-19T16:07:26Z</time>
      </trkpt>
      <trkpt lat="39.44789" lon="-2.45718">
        <ele>816.1</ele>
        <time>2023-08-19T16:07:29Z</time>
      </trkpt>
      <trkpt lat="39.44762" lon="-2.45701">
        <ele>816.2</ele>
        <time>2023-08-19T16:07:33Z</time>
      </trkpt>
      <trkpt lat="39.44733" lon="-2.45683">
        <ele>816.7</ele>
        <time>2023-08-19T16:07:37Z</time>
      </trkpt>
      <trkpt lat="39.4471" lon="-2.45668">
        <ele>816.6</ele>
        <time>2023-08-19T16:07:40Z</time>
      </trkpt>
      <trkpt lat="39.4468" lon="-2.45649">
        <ele>815</ele>
        <time>2023-08-19T16:07:44Z</time>
      </trkpt>
      <trkpt lat="39.44649" lon="-2.4563">
        <ele>814.7</ele>
        <time>2023-08-19T16:07:48Z</time>
      </trkpt>
      <trkpt lat="39.44625" lon="-2.45616">
        <ele>810.8</ele>
        <time>2023-08-19T16:07:51Z</time>
      </trkpt>
      <trkpt lat="39.44596" lon="-2.45599">
        <ele>812.9</ele>
        <time>2023-08-19T16:07:55Z</time>
      </trkpt>
      <trkpt lat="39.44568" lon="-2.45581">
        <ele>810</ele>
        <time>2023-08-19T16:07:59Z</time>
      </trkpt>
      <trkpt lat="39.44539" lon="-2.45563">
        <ele>809.8</ele>
        <time>2023-08-19T16:08:03Z</time>
      </trkpt>
      <trkpt lat="39.44518" lon="-2.4555">
        <ele>812.5</ele>
        <time>2023-08-19T16:08:06Z</time>
      </trkpt>
      <trkpt lat="39.44497" lon="-2.45536">
        <ele>809</ele>
        <time>2023-08-19T16:08:09Z</time>
      </trkpt>
      <trkpt lat="39.44468" lon="-2.45518">
        <ele>812.2</ele>
        <time>2023-08-19T16:08:13Z</time>
      </trkpt>
      <trkpt lat="39.4444" lon="-2.45501">
        <ele>811.3</ele>
        <time>2023-08-19T16:08:17Z</time>
      </trkpt>
      <trkpt lat="39.44408" lon="-2.4548">
        <ele>809.7</ele>
        <time>2023-08-19T16:08:21Z</time>
      </trkpt>
      <trkpt lat="39.44377" lon="-2.45461">
        <ele>811</ele>
        <time>2023-08-19T16:08:25Z</time>
      </trkpt>
      <trkpt lat="39.44355" lon="-2.45447">
        <ele>809.8</ele>
        <time>2023-08-19T16:08:28Z</time>
      </trkpt>
      <trkpt lat="39.44326" lon="-2.45429">
        <ele>809.1</ele>
        <time>2023-08-19T16:08:32Z</time>
      </trkpt>
      <trkpt lat="39.44306" lon="-2.45417">
        <ele>808.2</ele>
        <time>2023-08-19T16:08:35Z</time>
      </trkpt>
      <trkpt lat="39.44277" lon="-2.45397">
        <ele>808.3</ele>
        <time>2023-08-19T16:08:39Z</time>
      </trkpt>
      <trkpt lat="39.44255" lon="-2.45383">
        <ele>810</ele>
        <time>2023-08-19T16:08:42Z</time>
      </trkpt>
      <trkpt lat="39.44233" lon="-2.45369">
        <ele>809</ele>
        <time>2023-08-19T16:08:45Z</time>
      </trkpt>
      <trkpt lat="39.44211" lon="-2.45355">
        <ele>808.7</ele>
        <time>2023-08-19T16:08:48Z</time>
      </trkpt>
      <trkpt lat="39.44184" lon="-2.45337">
        <ele>807.2</ele>
        <time>2023-08-19T16:08:52Z</time>
      </trkpt>
      <trkpt lat="39.44153" lon="-2.45319">
        <ele>807.2</ele>
        <time>2023-08-19T16:08:56Z</time>
      </trkpt>
      <trkpt lat="39.44124" lon="-2.45301">
        <ele>807.7</ele>
        <time>2023-08-19T16:09:00Z</time>
      </trkpt>
      <trkpt lat="39.44102" lon="-2.45288">
        <ele>809.2</ele>
        <time>2023-08-19T16:09:03Z</time>
      </trkpt>
      <trkpt lat="39.44073" lon="-2.4527">
        <ele>808.3</ele>
        <time>2023-08-19T16:09:07Z</time>
      </trkpt>
      <trkpt lat="39.44042" lon="-2.45251">
        <ele>806.1</ele>
        <time>2023-08-19T16:09:11Z</time>
      </trkpt>
      <trkpt lat="39.4402" lon="-2.45237">
        <ele>808</ele>
        <time>2023-08-19T16:09:14Z</time>
      </trkpt>
      <trkpt lat="39.43997" lon="-2.45223">
        <ele>808.3</ele>
        <time>2023-08-19T16:09:17Z</time>
      </trkpt>
      <trkpt lat="39.43967" lon="-2.45204">
        <ele>807</ele>
        <time>2023-08-19T16:09:21Z</time>
      </trkpt>
      <trkpt lat="39.43938" lon="-2.45186">
        <ele>806.9</ele>
        <time>2023-08-19T16:09:25Z</time>
      </trkpt>
      <trkpt lat="39.4391" lon="-2.45168">
        <ele>806.8</ele>
        <time>2023-08-19T16:09:29Z</time>
      </trkpt>
      <trkpt lat="39.43889" lon="-2.45155">
        <ele>806.4</ele>
        <time>2023-08-19T16:09:32Z</time>
      </trkpt>
      <trkpt lat="39.43868" lon="-2.45142">
        <ele>807.6</ele>
        <time>2023-08-19T16:09:35Z</time>
      </trkpt>
      <trkpt lat="39.43836" lon="-2.45122">
        <ele>807.4</ele>
        <time>2023-08-19T16:09:39Z</time>
      </trkpt>
      <trkpt lat="39.43813" lon="-2.45107">
        <ele>806.2</ele>
        <time>2023-08-19T16:09:42Z</time>
      </trkpt>
      <trkpt lat="39.43791" lon="-2.45094">
        <ele>807.6</ele>
        <time>2023-08-19T16:09:45Z</time>
      </trkpt>
      <trkpt lat="39.43763" lon="-2.45077">
        <ele>806.1</ele>
        <time>2023-08-19T16:09:49Z</time>
      </trkpt>
      <trkpt lat="39.43741" lon="-2.45063">
        <ele>805.9</ele>
        <time>2023-08-19T16:09:52Z</time>
      </trkpt>
      <trkpt lat="39.4372" lon="-2.45049">
        <ele>807</ele>
        <time>2023-08-19T16:09:55Z</time>
      </trkpt>
      <trkpt lat="39.4369" lon="-2.45031">
        <ele>807</ele>
        <time>2023-08-19T16:09:59Z</time>
      </trkpt>
      <trkpt lat="39.43668" lon="-2.45017">
        <ele>806.8</ele>
        <time>2023-08-19T16:10:02Z</time>
      </trkpt>
      <trkpt lat="39.43638" lon="-2.44998">
        <ele>804.9</ele>
        <time>2023-08-19T16:10:06Z</time>
      </trkpt>
      <trkpt lat="39.43607" lon="-2.44978">
        <ele>805.7</ele>
        <time>2023-08-19T16:10:10Z</time>
      </trkpt>
      <trkpt lat="39.43584" lon="-2.44964">
        <ele>804.9</ele>
        <time>2023-08-19T16:10:13Z</time>
      </trkpt>
      <trkpt lat="39.43555" lon="-2.44945">
        <ele>802.1</ele>
        <time>2023-08-19T16:10:17Z</time>
      </trkpt>
      <trkpt lat="39.43527" lon="-2.44928">
        <ele>800.7</ele>
        <time>2023-08-19T16:10:21Z</time>
      </trkpt>
      <trkpt lat="39.43506" lon="-2.44914">
        <ele>800.3</ele>
        <time>2023-08-19T16:10:24Z</time>
      </trkpt>
      <trkpt lat="39.43477" lon="-2.44896">
        <ele>800.7</ele>
        <time>2023-08-19T16:10:28Z</time>
      </trkpt>
      <trkpt lat="39.43448" lon="-2.44876">
        <ele>800</ele>
        <time>2023-08-19T16:10:32Z</time>
      </trkpt>
      <trkpt lat="39.43426" lon="-2.4486">
        <ele>796.1</ele>
        <time>2023-08-19T16:10:35Z</time>
      </trkpt>
      <trkpt lat="39.43399" lon="-2.44835">
        <ele>797.2</ele>
        <time>2023-08-19T16:10:39Z</time>
      </trkpt>
      <trkpt lat="39.43373" lon="-2.44807">
        <ele>794.6</ele>
        <time>2023-08-19T16:10:43Z</time>
      </trkpt>
      <trkpt lat="39.43355" lon="-2.44785">
        <ele>793.9</ele>
        <time>2023-08-19T16:10:46Z</time>
      </trkpt>
      <trkpt lat="39.43333" lon="-2.44756">
        <ele>795.8</ele>
        <time>2023-08-19T16:10:50Z</time>
      </trkpt>
      <trkpt lat="39.43311" lon="-2.44726">
        <ele>792.5</ele>
        <time>2023-08-19T16:10:54Z</time>
      </trkpt>
      <trkpt lat="39.43289" lon="-2.44697">
        <ele>793.2</ele>
        <time>2023-08-19T16:10:58Z</time>
      </trkpt>
      <trkpt lat="39.43271" lon="-2.44675">
        <ele>791.4</ele>
        <time>2023-08-19T16:11:01Z</time>
      </trkpt>
      <trkpt lat="39.43254" lon="-2.44653">
        <ele>791.4</ele>
        <time>2023-08-19T16:11:04Z</time>
      </trkpt>
      <trkpt lat="39.43231" lon="-2.44622">
        <ele>791.4</ele>
        <time>2023-08-19T16:11:08Z</time>
      </trkpt>
      <trkpt lat="39.4321" lon="-2.44594">
        <ele>790.3</ele>
        <time>2023-08-19T16:11:12Z</time>
      </trkpt>
      <trkpt lat="39.43193" lon="-2.44572">
        <ele>791</ele>
        <time>2023-08-19T16:11:15Z</time>
      </trkpt>
      <trkpt lat="39.43175" lon="-2.44548">
        <ele>793.1</ele>
        <time>2023-08-19T16:11:18Z</time>
      </trkpt>
      <trkpt lat="39.43152" lon="-2.44517">
        <ele>789.1</ele>
        <time>2023-08-19T16:11:22Z</time>
      </trkpt>
      <trkpt lat="39.43135" lon="-2.44494">
        <ele>790.7</ele>
        <time>2023-08-19T16:11:25Z</time>
      </trkpt>
      <trkpt lat="39.43113" lon="-2.44464">
        <ele>790.6</ele>
        <time>2023-08-19T16:11:29Z</time>
      </trkpt>
      <trkpt lat="39.43096" lon="-2.44443">
        <ele>791.7</ele>
        <time>2023-08-19T16:11:32Z</time>
      </trkpt>
      <trkpt lat="39.43072" lon="-2.44413">
        <ele>791.3</ele>
        <time>2023-08-19T16:11:36Z</time>
      </trkpt>
      <trkpt lat="39.43055" lon="-2.44391">
        <ele>790.1</ele>
        <time>2023-08-19T16:11:39Z</time>
      </trkpt>
      <trkpt lat="39.43031" lon="-2.44361">
        <ele>789.8</ele>
        <time>2023-08-19T16:11:43Z</time>
      </trkpt>
      <trkpt lat="39.43014" lon="-2.44339">
        <ele>789.6</ele>
        <time>2023-08-19T16:11:46Z</time>
      </trkpt>
      <trkpt lat="39.42996" lon="-2.44315">
        <ele>788.2</ele>
        <time>2023-08-19T16:11:49Z</time>
      </trkpt>
      <trkpt lat="39.42978" lon="-2.44292">
        <ele>788.2</ele>
        <time>2023-08-19T16:11:52Z</time>
      </trkpt>
      <trkpt lat="39.42956" lon="-2.44264">
        <ele>789.5</ele>
        <time>2023-08-19T16:11:56Z</time>
      </trkpt>
      <trkpt lat="39.42934" lon="-2.44234">
        <ele>788.6</ele>
        <time>2023-08-19T16:12:00Z</time>
      </trkpt>
      <trkpt lat="39.42918" lon="-2.44212">
        <ele>789.1</ele>
        <time>2023-08-19T16:12:03Z</time>
      </trkpt>
      <trkpt lat="39.42895" lon="-2.44182">
        <ele>787.9</ele>
        <time>2023-08-19T16:12:07Z</time>
      </trkpt>
      <trkpt lat="39.42877" lon="-2.4416">
        <ele>788.8</ele>
        <time>2023-08-19T16:12:10Z</time>
      </trkpt>
      <trkpt lat="39.42854" lon="-2.4413">
        <ele>787.6</ele>
        <time>2023-08-19T16:12:14Z</time>
      </trkpt>
      <trkpt lat="39.4283" lon="-2.441">
        <ele>787.2</ele>
        <time>2023-08-19T16:12:18Z</time>
      </trkpt>
      <trkpt lat="39.42806" lon="-2.44069">
        <ele>788.8</ele>
        <time>2023-08-19T16:12:22Z</time>
      </trkpt>
      <trkpt lat="39.42789" lon="-2.44047">
        <ele>785.7</ele>
        <time>2023-08-19T16:12:25Z</time>
      </trkpt>
      <trkpt lat="39.42767" lon="-2.44017">
        <ele>787.3</ele>
        <time>2023-08-19T16:12:29Z</time>
      </trkpt>
      <trkpt lat="39.42744" lon="-2.43987">
        <ele>785.6</ele>
        <time>2023-08-19T16:12:33Z</time>
      </trkpt>
      <trkpt lat="39.42721" lon="-2.43957">
        <ele>787</ele>
        <time>2023-08-19T16:12:37Z</time>
      </trkpt>
      <trkpt lat="39.42704" lon="-2.43935">
        <ele>787.4</ele>
        <time>2023-08-19T16:12:40Z</time>
      </trkpt>
      <trkpt lat="39.42681" lon="-2.43905">
        <ele>786.3</ele>
        <time>2023-08-19T16:12:44Z</time>
      </trkpt>
      <trkpt lat="39.42658" lon="-2.43875">
        <ele>789.4</ele>
        <time>2023-08-19T16:12:48Z</time>
      </trkpt>
      <trkpt lat="39.42636" lon="-2.43846">
        <ele>786.1</ele>
        <time>2023-08-19T16:12:52Z</time>
      </trkpt>
      <trkpt lat="39.42618" lon="-2.43824">
        <ele>784.9</ele>
        <time>2023-08-19T16:12:55Z</time>
      </trkpt>
      <trkpt lat="39.42595" lon="-2.43793">
        <ele>784.4</ele>
        <time>2023-08-19T16:12:59Z</time>
      </trkpt>
      <trkpt lat="39.42578" lon="-2.43771">
        <ele>783.5</ele>
        <time>2023-08-19T16:13:02Z</time>
      </trkpt>
      <trkpt lat="39.42555" lon="-2.43741">
        <ele>785.6</ele>
        <time>2023-08-19T16:13:06Z</time>
      </trkpt>
      <trkpt lat="39.42532" lon="-2.43711">
        <ele>785.9</ele>
        <time>2023-08-19T16:13:10Z</time>
      </trkpt>
      <trkpt lat="39.42515" lon="-2.43689">
        <ele>784.5</ele>
        <time>2023-08-19T16:13:13Z</time>
      </trkpt>
      <trkpt lat="39.42491" lon="-2.43659">
        <ele>784.9</ele>
        <time>2023-08-19T16:13:17Z</time>
      </trkpt>
      <trkpt lat="39.42474" lon="-2.43637">
        <ele>783.8</ele>
        <time>2023-08-19T16:13:20Z</time>
      </trkpt>
      <trkpt lat="39.42452" lon="-2.43607">
        <ele>783</ele>
        <time>2023-08-19T16:13:24Z</time>
      </trkpt>
      <trkpt lat="39.4243" lon="-2.43577">
        <ele>782.7</ele>
        <time>2023-08-19T16:13:28Z</time>
      </trkpt>
      <trkpt lat="39.42407" lon="-2.43546">
        <ele>781.5</ele>
        <time>2023-08-19T16:13:32Z</time>
      </trkpt>
      <trkpt lat="39.42385" lon="-2.43518">
        <ele>781.8</ele>
        <time>2023-08-19T16:13:36Z</time>
      </trkpt>
      <trkpt lat="39.42363" lon="-2.43489">
        <ele>781.2</ele>
        <time>2023-08-19T16:13:40Z</time>
      </trkpt>
      <trkpt lat="39.4234" lon="-2.4346">
        <ele>780.7</ele>
        <time>2023-08-19T16:13:44Z</time>
      </trkpt>
      <trkpt lat="39.42322" lon="-2.43436">
        <ele>780.4</ele>
        <time>2023-08-19T16:13:47Z</time>
      </trkpt>
      <trkpt lat="39.42299" lon="-2.43407">
        <ele>780</ele>
        <time>2023-08-19T16:13:51Z</time>
      </trkpt>
      <trkpt lat="39.42277" lon="-2.43378">
        <ele>782.1</ele>
        <time>2023-08-19T16:13:55Z</time>
      </trkpt>
      <trkpt lat="39.4226" lon="-2.43356">
        <ele>781.2</ele>
        <time>2023-08-19T16:13:58Z</time>
      </trkpt>
      <trkpt lat="39.42242" lon="-2.43333">
        <ele>781.1</ele>
        <time>2023-08-19T16:14:01Z</time>
      </trkpt>
      <trkpt lat="39.42218" lon="-2.43303">
        <ele>781.7</ele>
        <time>2023-08-19T16:14:05Z</time>
      </trkpt>
      <trkpt lat="39.422" lon="-2.43281">
        <ele>780.2</ele>
        <time>2023-08-19T16:14:08Z</time>
      </trkpt>
      <trkpt lat="39.42181" lon="-2.4326">
        <ele>782.3</ele>
        <time>2023-08-19T16:14:11Z</time>
      </trkpt>
      <trkpt lat="39.42158" lon="-2.4323">
        <ele>778</ele>
        <time>2023-08-19T16:14:15Z</time>
      </trkpt>
      <trkpt lat="39.42136" lon="-2.432">
        <ele>782.4</ele>
        <time>2023-08-19T16:14:19Z</time>
      </trkpt>
      <trkpt lat="39.42121" lon="-2.43181">
        <ele>783.8</ele>
        <time>2023-08-19T16:14:22Z</time>
      </trkpt>
      <trkpt lat="39.42099" lon="-2.43155">
        <ele>784.3</ele>
        <time>2023-08-19T16:14:26Z</time>
      </trkpt>
      <trkpt lat="39.42075" lon="-2.4313">
        <ele>788.5</ele>
        <time>2023-08-19T16:14:30Z</time>
      </trkpt>
      <trkpt lat="39.42056" lon="-2.43111">
        <ele>787.3</ele>
        <time>2023-08-19T16:14:33Z</time>
      </trkpt>
      <trkpt lat="39.4203" lon="-2.43087">
        <ele>787.8</ele>
        <time>2023-08-19T16:14:37Z</time>
      </trkpt>
      <trkpt lat="39.42002" lon="-2.43062">
        <ele>790.2</ele>
        <time>2023-08-19T16:14:41Z</time>
      </trkpt>
      <trkpt lat="39.41974" lon="-2.43039">
        <ele>789.5</ele>
        <time>2023-08-19T16:14:45Z</time>
      </trkpt>
      <trkpt lat="39.41946" lon="-2.43017">
        <ele>788.2</ele>
        <time>2023-08-19T16:14:49Z</time>
      </trkpt>
      <trkpt lat="39.41927" lon="-2.43">
        <ele>790</ele>
        <time>2023-08-19T16:14:52Z</time>
      </trkpt>
      <trkpt lat="39.41908" lon="-2.42984">
        <ele>790.5</ele>
        <time>2023-08-19T16:14:55Z</time>
      </trkpt>
      <trkpt lat="39.41884" lon="-2.42961">
        <ele>789.5</ele>
        <time>2023-08-19T16:14:59Z</time>
      </trkpt>
      <trkpt lat="39.41859" lon="-2.4294">
        <ele>790</ele>
        <time>2023-08-19T16:15:03Z</time>
      </trkpt>
      <trkpt lat="39.4184" lon="-2.42922">
        <ele>789.8</ele>
        <time>2023-08-19T16:15:06Z</time>
      </trkpt>
      <trkpt lat="39.41821" lon="-2.42903">
        <ele>790.5</ele>
        <time>2023-08-19T16:15:09Z</time>
      </trkpt>
      <trkpt lat="39.41795" lon="-2.42879">
        <ele>789.1</ele>
        <time>2023-08-19T16:15:13Z</time>
      </trkpt>
      <trkpt lat="39.41776" lon="-2.42864">
        <ele>791.7</ele>
        <time>2023-08-19T16:15:16Z</time>
      </trkpt>
      <trkpt lat="39.41751" lon="-2.42842">
        <ele>791.3</ele>
        <time>2023-08-19T16:15:20Z</time>
      </trkpt>
      <trkpt lat="39.41732" lon="-2.42825">
        <ele>791.3</ele>
        <time>2023-08-19T16:15:23Z</time>
      </trkpt>
      <trkpt lat="39.41706" lon="-2.42802">
        <ele>788.4</ele>
        <time>2023-08-19T16:15:27Z</time>
      </trkpt>
      <trkpt lat="39.41681" lon="-2.4278">
        <ele>790.9</ele>
        <time>2023-08-19T16:15:31Z</time>
      </trkpt>
      <trkpt lat="39.41662" lon="-2.42763">
        <ele>794.5</ele>
        <time>2023-08-19T16:15:34Z</time>
      </trkpt>
      <trkpt lat="39.41643" lon="-2.42746">
        <ele>794.8</ele>
        <time>2023-08-19T16:15:37Z</time>
      </trkpt>
      <trkpt lat="39.41625" lon="-2.42729">
        <ele>791.7</ele>
        <time>2023-08-19T16:15:40Z</time>
      </trkpt>
      <trkpt lat="39.41599" lon="-2.42707">
        <ele>792.3</ele>
        <time>2023-08-19T16:15:44Z</time>
      </trkpt>
      <trkpt lat="39.41579" lon="-2.4269">
        <ele>792.3</ele>
        <time>2023-08-19T16:15:47Z</time>
      </trkpt>
      <trkpt lat="39.41553" lon="-2.42667">
        <ele>792.7</ele>
        <time>2023-08-19T16:15:51Z</time>
      </trkpt>
      <trkpt lat="39.41527" lon="-2.42644">
        <ele>792</ele>
        <time>2023-08-19T16:15:55Z</time>
      </trkpt>
      <trkpt lat="39.41508" lon="-2.42628">
        <ele>791.3</ele>
        <time>2023-08-19T16:15:58Z</time>
      </trkpt>
      <trkpt lat="39.41489" lon="-2.42612">
        <ele>790.6</ele>
        <time>2023-08-19T16:16:01Z</time>
      </trkpt>
      <trkpt lat="39.41464" lon="-2.42588">
        <ele>793.6</ele>
        <time>2023-08-19T16:16:05Z</time>
      </trkpt>
      <trkpt lat="39.41445" lon="-2.42571">
        <ele>792</ele>
        <time>2023-08-19T16:16:08Z</time>
      </trkpt>
      <trkpt lat="39.41425" lon="-2.42554">
        <ele>785.5</ele>
        <time>2023-08-19T16:16:11Z</time>
      </trkpt>
      <trkpt lat="39.41406" lon="-2.42538">
        <ele>792.9</ele>
        <time>2023-08-19T16:16:14Z</time>
      </trkpt>
      <trkpt lat="39.41382" lon="-2.42516">
        <ele>790.1</ele>
        <time>2023-08-19T16:16:18Z</time>
      </trkpt>
      <trkpt lat="39.41364" lon="-2.42499">
        <ele>792.3</ele>
        <time>2023-08-19T16:16:21Z</time>
      </trkpt>
      <trkpt lat="39.41346" lon="-2.42484">
        <ele>789.8</ele>
        <time>2023-08-19T16:16:24Z</time>
      </trkpt>
      <trkpt lat="39.41322" lon="-2.42464">
        <ele>790.9</ele>
        <time>2023-08-19T16:16:28Z</time>
      </trkpt>
      <trkpt lat="39.41305" lon="-2.42449">
        <ele>790.9</ele>
        <time>2023-08-19T16:16:31Z</time>
      </trkpt>
      <trkpt lat="39.41281" lon="-2.42426">
        <ele>789.8</ele>
        <time>2023-08-19T16:16:35Z</time>
      </trkpt>
      <trkpt lat="39.41263" lon="-2.42409">
        <ele>789.5</ele>
        <time>2023-08-19T16:16:38Z</time>
      </trkpt>
      <trkpt lat="39.41243" lon="-2.42393">
        <ele>789.7</ele>
        <time>2023-08-19T16:16:41Z</time>
      </trkpt>
      <trkpt lat="39.41218" lon="-2.42372">
        <ele>786.8</ele>
        <time>2023-08-19T16:16:45Z</time>
      </trkpt>
      <trkpt lat="39.41199" lon="-2.42356">
        <ele>785.7</ele>
        <time>2023-08-19T16:16:48Z</time>
      </trkpt>
      <trkpt lat="39.41173" lon="-2.42334">
        <ele>786.7</ele>
        <time>2023-08-19T16:16:52Z</time>
      </trkpt>
      <trkpt lat="39.41148" lon="-2.42311">
        <ele>783.8</ele>
        <time>2023-08-19T16:16:56Z</time>
      </trkpt>
      <trkpt lat="39.41129" lon="-2.42294">
        <ele>785.2</ele>
        <time>2023-08-19T16:16:59Z</time>
      </trkpt>
      <trkpt lat="39.41106" lon="-2.42273">
        <ele>781.9</ele>
        <time>2023-08-19T16:17:03Z</time>
      </trkpt>
      <trkpt lat="39.41083" lon="-2.42251">
        <ele>781.6</ele>
        <time>2023-08-19T16:17:07Z</time>
      </trkpt>
      <trkpt lat="39.41068" lon="-2.42232">
        <ele>781.5</ele>
        <time>2023-08-19T16:17:10Z</time>
      </trkpt>
      <trkpt lat="39.41055" lon="-2.42211">
        <ele>782.5</ele>
        <time>2023-08-19T16:17:13Z</time>
      </trkpt>
      <trkpt lat="39.41042" lon="-2.42179">
        <ele>780.4</ele>
        <time>2023-08-19T16:17:17Z</time>
      </trkpt>
      <trkpt lat="39.41033" lon="-2.42151">
        <ele>783.9</ele>
        <time>2023-08-19T16:17:21Z</time>
      </trkpt>
      <trkpt lat="39.41028" lon="-2.4213">
        <ele>783.6</ele>
        <time>2023-08-19T16:17:24Z</time>
      </trkpt>
      <trkpt lat="39.41018" lon="-2.42099">
        <ele>782.1</ele>
        <time>2023-08-19T16:17:28Z</time>
      </trkpt>
      <trkpt lat="39.41006" lon="-2.4207">
        <ele>781.4</ele>
        <time>2023-08-19T16:17:32Z</time>
      </trkpt>
      <trkpt lat="39.41001" lon="-2.42057">
        <ele>779.6</ele>
        <time>2023-08-19T16:17:35Z</time>
      </trkpt>
      <trkpt lat="39.40997" lon="-2.42048">
        <ele>788.1</ele>
        <time>2023-08-19T16:17:38Z</time>
      </trkpt>
      <trkpt lat="39.4099" lon="-2.42049">
        <ele>785.6</ele>
        <time>2023-08-19T16:17:41Z</time>
      </trkpt>
      <trkpt lat="39.40976" lon="-2.42058">
        <ele>785.1</ele>
        <time>2023-08-19T16:17:44Z</time>
      </trkpt>
      <trkpt lat="39.40958" lon="-2.42067">
        <ele>784.2</ele>
        <time>2023-08-19T16:17:48Z</time>
      </trkpt>
      <trkpt lat="39.40936" lon="-2.42075">
        <ele>785.3</ele>
        <time>2023-08-19T16:17:52Z</time>
      </trkpt>
      <trkpt lat="39.4092" lon="-2.42079">
        <ele>784.2</ele>
        <time>2023-08-19T16:17:55Z</time>
      </trkpt>
      <trkpt lat="39.40907" lon="-2.42087">
        <ele>784.6</ele>
        <time>2023-08-19T16:17:58Z</time>
      </trkpt>
      <trkpt lat="39.40903" lon="-2.42102">
        <ele>784.3</ele>
        <time>2023-08-19T16:18:01Z</time>
      </trkpt>
      <trkpt lat="39.40892" lon="-2.42121">
        <ele>783.9</ele>
        <time>2023-08-19T16:18:05Z</time>
      </trkpt>
      <trkpt lat="39.40879" lon="-2.4213">
        <ele>785.9</ele>
        <time>2023-08-19T16:18:09Z</time>
      </trkpt>
      <trkpt lat="39.40869" lon="-2.42141">
        <ele>782.4</ele>
        <time>2023-08-19T16:18:13Z</time>
      </trkpt>
      <trkpt lat="39.4086" lon="-2.42148">
        <ele>783.1</ele>
        <time>2023-08-19T16:18:16Z</time>
      </trkpt>
      <trkpt lat="39.40853" lon="-2.42157">
        <ele>783</ele>
        <time>2023-08-19T16:18:19Z</time>
      </trkpt>
      <trkpt lat="39.40841" lon="-2.42174">
        <ele>784.8</ele>
        <time>2023-08-19T16:18:23Z</time>
      </trkpt>
      <trkpt lat="39.40827" lon="-2.42202">
        <ele>785</ele>
        <time>2023-08-19T16:18:28Z</time>
      </trkpt>
      <trkpt lat="39.40821" lon="-2.42217">
        <ele>784.4</ele>
        <time>2023-08-19T16:18:31Z</time>
      </trkpt>
      <trkpt lat="39.40811" lon="-2.42236">
        <ele>784.2</ele>
        <time>2023-08-19T16:18:35Z</time>
      </trkpt>
      <trkpt lat="39.40803" lon="-2.4225">
        <ele>784.7</ele>
        <time>2023-08-19T16:18:38Z</time>
      </trkpt>
      <trkpt lat="39.40794" lon="-2.42266">
        <ele>785.5</ele>
        <time>2023-08-19T16:18:41Z</time>
      </trkpt>
      <trkpt lat="39.40783" lon="-2.42282">
        <ele>784.3</ele>
        <time>2023-08-19T16:18:44Z</time>
      </trkpt>
      <trkpt lat="39.4077" lon="-2.42297">
        <ele>785</ele>
        <time>2023-08-19T16:18:48Z</time>
      </trkpt>
      <trkpt lat="39.40753" lon="-2.4232">
        <ele>783.8</ele>
        <time>2023-08-19T16:18:53Z</time>
      </trkpt>
      <trkpt lat="39.40743" lon="-2.42338">
        <ele>783.7</ele>
        <time>2023-08-19T16:18:57Z</time>
      </trkpt>
      <trkpt lat="39.40736" lon="-2.42358">
        <ele>783.8</ele>
        <time>2023-08-19T16:19:01Z</time>
      </trkpt>
      <trkpt lat="39.40732" lon="-2.42371">
        <ele>782.9</ele>
        <time>2023-08-19T16:19:04Z</time>
      </trkpt>
      <trkpt lat="39.40724" lon="-2.42387">
        <ele>783.5</ele>
        <time>2023-08-19T16:19:08Z</time>
      </trkpt>
      <trkpt lat="39.40715" lon="-2.424">
        <ele>784.1</ele>
        <time>2023-08-19T16:19:12Z</time>
      </trkpt>
      <trkpt lat="39.40713" lon="-2.42411">
        <ele>782.3</ele>
        <time>2023-08-19T16:19:16Z</time>
      </trkpt>
      <trkpt lat="39.40721" lon="-2.42419">
        <ele>784.6</ele>
        <time>2023-08-19T16:19:19Z</time>
      </trkpt>
      <trkpt lat="39.4074" lon="-2.42436">
        <ele>783.9</ele>
        <time>2023-08-19T16:19:23Z</time>
      </trkpt>
      <trkpt lat="39.4076" lon="-2.42452">
        <ele>783.8</ele>
        <time>2023-08-19T16:19:27Z</time>
      </trkpt>
      <trkpt lat="39.40775" lon="-2.42464">
        <ele>783.5</ele>
        <time>2023-08-19T16:19:31Z</time>
      </trkpt>
      <trkpt lat="39.40785" lon="-2.42472">
        <ele>783.6</ele>
        <time>2023-08-19T16:19:34Z</time>
      </trkpt>
      <trkpt lat="39.40792" lon="-2.42479">
        <ele>783.3</ele>
        <time>2023-08-19T16:19:37Z</time>
      </trkpt>
      <trkpt lat="39.40792" lon="-2.42486">
        <ele>782.7</ele>
        <time>2023-08-19T16:19:41Z</time>
      </trkpt>
      <trkpt lat="39.40787" lon="-2.42499">
        <ele>783.1</ele>
        <time>2023-08-19T16:19:44Z</time>
      </trkpt>
      <trkpt lat="39.40781" lon="-2.42515">
        <ele>782.7</ele>
        <time>2023-08-19T16:19:48Z</time>
      </trkpt>
      <trkpt lat="39.40779" lon="-2.42536">
        <ele>782.8</ele>
        <time>2023-08-19T16:19:51Z</time>
      </trkpt>
      <trkpt lat="39.40775" lon="-2.42555">
        <ele>783.4</ele>
        <time>2023-08-19T16:19:54Z</time>
      </trkpt>
      <trkpt lat="39.40766" lon="-2.42576">
        <ele>783.3</ele>
        <time>2023-08-19T16:19:58Z</time>
      </trkpt>
      <trkpt lat="39.40762" lon="-2.42589">
        <ele>782.9</ele>
        <time>2023-08-19T16:20:01Z</time>
      </trkpt>
      <trkpt lat="39.40758" lon="-2.42602">
        <ele>782</ele>
        <time>2023-08-19T16:20:05Z</time>
      </trkpt>
      <trkpt lat="39.40752" lon="-2.42624">
        <ele>783</ele>
        <time>2023-08-19T16:20:09Z</time>
      </trkpt>
      <trkpt lat="39.40746" lon="-2.4264">
        <ele>782.5</ele>
        <time>2023-08-19T16:20:12Z</time>
      </trkpt>
      <trkpt lat="39.4074" lon="-2.42655">
        <ele>782.5</ele>
        <time>2023-08-19T16:20:15Z</time>
      </trkpt>
      <trkpt lat="39.40731" lon="-2.4267">
        <ele>782.6</ele>
        <time>2023-08-19T16:20:19Z</time>
      </trkpt>
      <trkpt lat="39.40727" lon="-2.4269">
        <ele>782.2</ele>
        <time>2023-08-19T16:20:22Z</time>
      </trkpt>
      <trkpt lat="39.40722" lon="-2.42712">
        <ele>783</ele>
        <time>2023-08-19T16:20:25Z</time>
      </trkpt>
      <trkpt lat="39.40715" lon="-2.42738">
        <ele>783.1</ele>
        <time>2023-08-19T16:20:29Z</time>
      </trkpt>
      <trkpt lat="39.40709" lon="-2.42764">
        <ele>782.1</ele>
        <time>2023-08-19T16:20:33Z</time>
      </trkpt>
      <trkpt lat="39.40705" lon="-2.42789">
        <ele>782.5</ele>
        <time>2023-08-19T16:20:37Z</time>
      </trkpt>
      <trkpt lat="39.40703" lon="-2.42812">
        <ele>782.1</ele>
        <time>2023-08-19T16:20:41Z</time>
      </trkpt>
      <trkpt lat="39.40699" lon="-2.42829">
        <ele>781.9</ele>
        <time>2023-08-19T16:20:44Z</time>
      </trkpt>
      <trkpt lat="39.40693" lon="-2.42849">
        <ele>781.7</ele>
        <time>2023-08-19T16:20:48Z</time>
      </trkpt>
      <trkpt lat="39.40689" lon="-2.42857">
        <ele>781.6</ele>
        <time>2023-08-19T16:20:51Z</time>
      </trkpt>
      <trkpt lat="39.40683" lon="-2.4286">
        <ele>782</ele>
        <time>2023-08-19T16:20:54Z</time>
      </trkpt>
      <trkpt lat="39.40676" lon="-2.42859">
        <ele>782.5</ele>
        <time>2023-08-19T16:20:57Z</time>
      </trkpt>
      <trkpt lat="39.40662" lon="-2.42853">
        <ele>782.2</ele>
        <time>2023-08-19T16:21:00Z</time>
      </trkpt>
      <trkpt lat="39.40648" lon="-2.42842">
        <ele>781.8</ele>
        <time>2023-08-19T16:21:04Z</time>
      </trkpt>
      <trkpt lat="39.40635" lon="-2.42833">
        <ele>781.5</ele>
        <time>2023-08-19T16:21:08Z</time>
      </trkpt>
      <trkpt lat="39.40629" lon="-2.42826">
        <ele>781.8</ele>
        <time>2023-08-19T16:21:12Z</time>
      </trkpt>
      <trkpt lat="39.40614" lon="-2.42817">
        <ele>780.9</ele>
        <time>2023-08-19T16:21:16Z</time>
      </trkpt>
      <trkpt lat="39.40604" lon="-2.42812">
        <ele>781.6</ele>
        <time>2023-08-19T16:21:20Z</time>
      </trkpt>
      <trkpt lat="39.40589" lon="-2.42812">
        <ele>781.8</ele>
        <time>2023-08-19T16:21:24Z</time>
      </trkpt>
      <trkpt lat="39.40573" lon="-2.4281">
        <ele>782.5</ele>
        <time>2023-08-19T16:21:27Z</time>
      </trkpt>
      <trkpt lat="39.40556" lon="-2.42805">
        <ele>781.8</ele>
        <time>2023-08-19T16:21:30Z</time>
      </trkpt>
      <trkpt lat="39.40544" lon="-2.42799">
        <ele>781.4</ele>
        <time>2023-08-19T16:21:33Z</time>
      </trkpt>
      <trkpt lat="39.40538" lon="-2.42796">
        <ele>781.8</ele>
        <time>2023-08-19T16:21:36Z</time>
      </trkpt>
      <trkpt lat="39.40533" lon="-2.42791">
        <ele>782.7</ele>
        <time>2023-08-19T16:21:55Z</time>
      </trkpt>
      <trkpt lat="39.40532" lon="-2.42774">
        <ele>782.8</ele>
        <time>2023-08-19T16:21:58Z</time>
      </trkpt>
      <trkpt lat="39.40536" lon="-2.42743">
        <ele>782.5</ele>
        <time>2023-08-19T16:22:02Z</time>
      </trkpt>
      <trkpt lat="39.4054" lon="-2.42721">
        <ele>782.8</ele>
        <time>2023-08-19T16:22:05Z</time>
      </trkpt>
      <trkpt lat="39.40544" lon="-2.42699">
        <ele>782.1</ele>
        <time>2023-08-19T16:22:09Z</time>
      </trkpt>
      <trkpt lat="39.40542" lon="-2.42686">
        <ele>781.9</ele>
        <time>2023-08-19T16:22:13Z</time>
      </trkpt>
      <trkpt lat="39.40542" lon="-2.42679">
        <ele>781.4</ele>
        <time>2023-08-19T16:22:16Z</time>
      </trkpt>
      <trkpt lat="39.40543" lon="-2.42669">
        <ele>781.7</ele>
        <time>2023-08-19T16:22:20Z</time>
      </trkpt>
      <trkpt lat="39.40545" lon="-2.42656">
        <ele>782.5</ele>
        <time>2023-08-19T16:22:24Z</time>
      </trkpt>
      <trkpt lat="39.40551" lon="-2.42638">
        <ele>782.7</ele>
        <time>2023-08-19T16:22:28Z</time>
      </trkpt>
      <trkpt lat="39.40559" lon="-2.42618">
        <ele>781.7</ele>
        <time>2023-08-19T16:22:32Z</time>
      </trkpt>
      <trkpt lat="39.4056" lon="-2.42611">
        <ele>781.5</ele>
        <time>2023-08-19T16:22:35Z</time>
      </trkpt>
      <trkpt lat="39.40565" lon="-2.42606">
        <ele>782</ele>
        <time>2023-08-19T16:22:39Z</time>
      </trkpt>
      <trkpt lat="39.4057" lon="-2.42598">
        <ele>780.9</ele>
        <time>2023-08-19T16:22:42Z</time>
      </trkpt>
      <trkpt lat="39.40571" lon="-2.42592">
        <ele>780.9</ele>
        <time>2023-08-19T16:23:14Z</time>
      </trkpt>
      <trkpt lat="39.40563" lon="-2.42588">
        <ele>781.4</ele>
        <time>2023-08-19T16:23:17Z</time>
      </trkpt>
      <trkpt lat="39.40546" lon="-2.42582">
        <ele>780.5</ele>
        <time>2023-08-19T16:23:21Z</time>
      </trkpt>
      <trkpt lat="39.40533" lon="-2.4258">
        <ele>780.3</ele>
        <time>2023-08-19T16:23:24Z</time>
      </trkpt>
      <trkpt lat="39.40514" lon="-2.42571">
        <ele>778.8</ele>
        <time>2023-08-19T16:23:28Z</time>
      </trkpt>
      <trkpt lat="39.40504" lon="-2.42563">
        <ele>778.7</ele>
        <time>2023-08-19T16:23:31Z</time>
      </trkpt>
      <trkpt lat="39.40498" lon="-2.42554">
        <ele>778.4</ele>
        <time>2023-08-19T16:23:35Z</time>
      </trkpt>
      <trkpt lat="39.40497" lon="-2.42553">
        <ele>777.4</ele>
        <time>2023-08-19T16:23:39Z</time>
      </trkpt>
      <trkpt lat="39.40495" lon="-2.42557">
        <ele>777.7</ele>
        <time>2023-08-19T16:23:43Z</time>
      </trkpt>
      <trkpt lat="39.40488" lon="-2.42562">
        <ele>778.2</ele>
        <time>2023-08-19T16:23:46Z</time>
      </trkpt>
      <trkpt lat="39.40484" lon="-2.42572">
        <ele>778.5</ele>
        <time>2023-08-19T16:23:50Z</time>
      </trkpt>
      <trkpt lat="39.40482" lon="-2.42584">
        <ele>779</ele>
        <time>2023-08-19T16:23:53Z</time>
      </trkpt>
      <trkpt lat="39.40482" lon="-2.42599">
        <ele>778.1</ele>
        <time>2023-08-19T16:23:56Z</time>
      </trkpt>
      <trkpt lat="39.40485" lon="-2.42618">
        <ele>778.7</ele>
        <time>2023-08-19T16:24:00Z</time>
      </trkpt>
      <trkpt lat="39.40485" lon="-2.42629">
        <ele>778.4</ele>
        <time>2023-08-19T16:24:03Z</time>
      </trkpt>
      <trkpt lat="39.40478" lon="-2.42641">
        <ele>778.9</ele>
        <time>2023-08-19T16:24:07Z</time>
      </trkpt>
      <trkpt lat="39.4047" lon="-2.4265">
        <ele>778.7</ele>
        <time>2023-08-19T16:24:10Z</time>
      </trkpt>
      <trkpt lat="39.40467" lon="-2.42661">
        <ele>780.1</ele>
        <time>2023-08-19T16:24:13Z</time>
      </trkpt>
      <trkpt lat="39.40467" lon="-2.42671">
        <ele>780.5</ele>
        <time>2023-08-19T16:24:16Z</time>
      </trkpt>
      <trkpt lat="39.40465" lon="-2.42685">
        <ele>781.3</ele>
        <time>2023-08-19T16:24:20Z</time>
      </trkpt>
      <trkpt lat="39.4047" lon="-2.42695">
        <ele>781.5</ele>
        <time>2023-08-19T16:24:24Z</time>
      </trkpt>
      <trkpt lat="39.40474" lon="-2.42706">
        <ele>781.3</ele>
        <time>2023-08-19T16:24:28Z</time>
      </trkpt>
      <trkpt lat="39.40472" lon="-2.42712">
        <ele>781.8</ele>
        <time>2023-08-19T16:24:31Z</time>
      </trkpt>
      <trkpt lat="39.40464" lon="-2.42722">
        <ele>781.6</ele>
        <time>2023-08-19T16:24:35Z</time>
      </trkpt>
      <trkpt lat="39.40458" lon="-2.42726">
        <ele>781.1</ele>
        <time>2023-08-19T16:24:38Z</time>
      </trkpt>
      <trkpt lat="39.40447" lon="-2.4273">
        <ele>782.1</ele>
        <time>2023-08-19T16:24:42Z</time>
      </trkpt>
      <trkpt lat="39.40437" lon="-2.42736">
        <ele>782.3</ele>
        <time>2023-08-19T16:24:46Z</time>
      </trkpt>
      <trkpt lat="39.40435" lon="-2.42747">
        <ele>782</ele>
        <time>2023-08-19T16:25:22Z</time>
      </trkpt>
      <trkpt lat="39.40424" lon="-2.42753">
        <ele>780.8</ele>
        <time>2023-08-19T16:25:26Z</time>
      </trkpt>
      <trkpt lat="39.40415" lon="-2.42754">
        <ele>781.6</ele>
        <time>2023-08-19T16:25:29Z</time>
      </trkpt>
      <trkpt lat="39.40413" lon="-2.42753">
        <ele>781.6</ele>
        <time>2023-08-19T16:25:32Z</time>
      </trkpt>
      <trkpt lat="39.40407" lon="-2.42756">
        <ele>781.8</ele>
        <time>2023-08-19T16:25:56Z</time>
      </trkpt>
      <trkpt lat="39.40401" lon="-2.42762">
        <ele>781.6</ele>
        <time>2023-08-19T16:25:59Z</time>
      </trkpt>
      <trkpt lat="39.40394" lon="-2.42769">
        <ele>780.5</ele>
        <time>2023-08-19T16:26:03Z</time>
      </trkpt>
      <trkpt lat="39.40392" lon="-2.42769">
        <ele>783.7</ele>
        <time>2023-08-19T16:28:13Z</time>
      </trkpt>
      <trkpt lat="39.40404" lon="-2.42766">
        <ele>786.5</ele>
        <time>2023-08-19T16:28:55Z</time>
      </trkpt>
      <trkpt lat="39.40414" lon="-2.42756">
        <ele>780.7</ele>
        <time>2023-08-19T16:29:14Z</time>
      </trkpt>
      <trkpt lat="39.40439" lon="-2.42738">
        <ele>783.7</ele>
        <time>2023-08-19T16:31:00Z</time>
      </trkpt>
      <trkpt lat="39.40441" lon="-2.42736">
        <ele>782.9</ele>
        <time>2023-08-19T16:31:03Z</time>
      </trkpt>
      <trkpt lat="39.40442" lon="-2.42735">
        <ele>782.8</ele>
        <time>2023-08-19T16:31:07Z</time>
      </trkpt>
      <trkpt lat="39.40444" lon="-2.42734">
        <ele>783.2</ele>
        <time>2023-08-19T16:31:10Z</time>
      </trkpt>
      <trkpt lat="39.40446" lon="-2.42732">
        <ele>783.6</ele>
        <time>2023-08-19T16:31:13Z</time>
      </trkpt>
      <trkpt lat="39.40449" lon="-2.42728">
        <ele>785.2</ele>
        <time>2023-08-19T16:31:17Z</time>
      </trkpt>
      <trkpt lat="39.40451" lon="-2.42727">
        <ele>782.9</ele>
        <time>2023-08-19T16:31:20Z</time>
      </trkpt>
      <trkpt lat="39.40443" lon="-2.42734">
        <ele>784.3</ele>
        <time>2023-08-19T16:31:45Z</time>
      </trkpt>
      <trkpt lat="39.40437" lon="-2.42737">
        <ele>783.8</ele>
        <time>2023-08-19T16:31:49Z</time>
      </trkpt>
      <trkpt lat="39.40434" lon="-2.4274">
        <ele>783</ele>
        <time>2023-08-19T16:31:52Z</time>
      </trkpt>
      <trkpt lat="39.4043" lon="-2.42743">
        <ele>784.4</ele>
        <time>2023-08-19T16:31:56Z</time>
      </trkpt>
      <trkpt lat="39.40427" lon="-2.42745">
        <ele>784.9</ele>
        <time>2023-08-19T16:31:59Z</time>
      </trkpt>
      <trkpt lat="39.40425" lon="-2.42747">
        <ele>784.8</ele>
        <time>2023-08-19T16:32:02Z</time>
      </trkpt>
      <trkpt lat="39.40423" lon="-2.42749">
        <ele>784.6</ele>
        <time>2023-08-19T16:32:05Z</time>
      </trkpt>
      <trkpt lat="39.40413" lon="-2.42755">
        <ele>783.4</ele>
        <time>2023-08-19T16:32:21Z</time>
      </trkpt>
      <trkpt lat="39.4041" lon="-2.42758">
        <ele>783.4</ele>
        <time>2023-08-19T16:32:24Z</time>
      </trkpt>
      <trkpt lat="39.40408" lon="-2.4276">
        <ele>783.9</ele>
        <time>2023-08-19T16:32:27Z</time>
      </trkpt>
      <trkpt lat="39.40406" lon="-2.4276">
        <ele>783.7</ele>
        <time>2023-08-19T16:32:30Z</time>
      </trkpt>
      <trkpt lat="39.40405" lon="-2.42762">
        <ele>783.8</ele>
        <time>2023-08-19T16:32:34Z</time>
      </trkpt>
      <trkpt lat="39.40403" lon="-2.42764">
        <ele>784</ele>
        <time>2023-08-19T16:32:37Z</time>
      </trkpt>
      <trkpt lat="39.40401" lon="-2.42766">
        <ele>784</ele>
        <time>2023-08-19T16:32:41Z</time>
      </trkpt>
      <trkpt lat="39.40397" lon="-2.42768">
        <ele>784.6</ele>
        <time>2023-08-19T16:32:44Z</time>
      </trkpt>
      <trkpt lat="39.40394" lon="-2.4277">
        <ele>784.1</ele>
        <time>2023-08-19T16:32:48Z</time>
      </trkpt>
      <trkpt lat="39.40392" lon="-2.42771">
        <ele>783.7</ele>
        <time>2023-08-19T16:32:52Z</time>
      </trkpt>
      <trkpt lat="39.40391" lon="-2.42773">
        <ele>783.1</ele>
        <time>2023-08-19T16:32:55Z</time>
      </trkpt>
      <trkpt lat="39.4039" lon="-2.42776">
        <ele>783.2</ele>
        <time>2023-08-19T16:32:58Z</time>
      </trkpt>
      <trkpt lat="39.40388" lon="-2.42778">
        <ele>783.1</ele>
        <time>2023-08-19T16:33:01Z</time>
      </trkpt>
      <trkpt lat="39.40385" lon="-2.42782">
        <ele>783.9</ele>
        <time>2023-08-19T16:33:05Z</time>
      </trkpt>
      <trkpt lat="39.40382" lon="-2.42786">
        <ele>782.8</ele>
        <time>2023-08-19T16:33:08Z</time>
      </trkpt>
      <trkpt lat="39.40379" lon="-2.42789">
        <ele>784.7</ele>
        <time>2023-08-19T16:33:12Z</time>
      </trkpt>
      <trkpt lat="39.40374" lon="-2.42793">
        <ele>783.7</ele>
        <time>2023-08-19T16:33:16Z</time>
      </trkpt>
      <trkpt lat="39.4037" lon="-2.42799">
        <ele>783.1</ele>
        <time>2023-08-19T16:33:19Z</time>
      </trkpt>
      <trkpt lat="39.40368" lon="-2.42802">
        <ele>782.5</ele>
        <time>2023-08-19T16:33:22Z</time>
      </trkpt>
      <trkpt lat="39.40366" lon="-2.42805">
        <ele>783.3</ele>
        <time>2023-08-19T16:33:26Z</time>
      </trkpt>
      <trkpt lat="39.40363" lon="-2.42808">
        <ele>783.4</ele>
        <time>2023-08-19T16:33:29Z</time>
      </trkpt>
      <trkpt lat="39.4036" lon="-2.42811">
        <ele>782.7</ele>
        <time>2023-08-19T16:33:32Z</time>
      </trkpt>
      <trkpt lat="39.40359" lon="-2.42814">
        <ele>783.9</ele>
        <time>2023-08-19T16:33:35Z</time>
      </trkpt>
      <trkpt lat="39.40359" lon="-2.42815">
        <ele>784.1</ele>
        <time>2023-08-19T16:33:39Z</time>
      </trkpt>
      <trkpt lat="39.40359" lon="-2.42815">
        <ele>783.3</ele>
        <time>2023-08-19T16:33:42Z</time>
      </trkpt>
      <trkpt lat="39.40358" lon="-2.42815">
        <ele>782.8</ele>
        <time>2023-08-19T16:33:45Z</time>
      </trkpt>
      <trkpt lat="39.40351" lon="-2.42825">
        <ele>783.3</ele>
        <time>2023-08-19T16:33:57Z</time>
      </trkpt>
      <trkpt lat="39.40349" lon="-2.4283">
        <ele>783.8</ele>
        <time>2023-08-19T16:34:01Z</time>
      </trkpt>
      <trkpt lat="39.4035" lon="-2.42832">
        <ele>784.1</ele>
        <time>2023-08-19T16:34:04Z</time>
      </trkpt>
      <trkpt lat="39.40356" lon="-2.42838">
        <ele>783.6</ele>
        <time>2023-08-19T16:37:36Z</time>
      </trkpt>
      <trkpt lat="39.40355" lon="-2.42838">
        <ele>785.1</ele>
        <time>2023-08-19T16:37:40Z</time>
      </trkpt>
      <trkpt lat="39.40355" lon="-2.42813">
        <ele>815.9</ele>
        <time>2023-08-19T17:23:42Z</time>
      </trkpt>
      <trkpt lat="39.40357" lon="-2.42813">
        <ele>808.6</ele>
        <time>2023-08-19T17:23:46Z</time>
      </trkpt>
      <trkpt lat="39.40361" lon="-2.42809">
        <ele>798</ele>
        <time>2023-08-19T17:24:05Z</time>
      </trkpt>
      <trkpt lat="39.40362" lon="-2.42808">
        <ele>797.1</ele>
        <time>2023-08-19T17:25:07Z</time>
      </trkpt>
      <trkpt lat="39.40366" lon="-2.42804">
        <ele>797</ele>
        <time>2023-08-19T17:25:10Z</time>
      </trkpt>
      <trkpt lat="39.40368" lon="-2.42799">
        <ele>797</ele>
        <time>2023-08-19T17:25:13Z</time>
      </trkpt>
      <trkpt lat="39.4037" lon="-2.42795">
        <ele>797.1</ele>
        <time>2023-08-19T17:25:16Z</time>
      </trkpt>
      <trkpt lat="39.40372" lon="-2.42791">
        <ele>797.2</ele>
        <time>2023-08-19T17:25:19Z</time>
      </trkpt>
      <trkpt lat="39.40377" lon="-2.42787">
        <ele>797.3</ele>
        <time>2023-08-19T17:25:23Z</time>
      </trkpt>
      <trkpt lat="39.40381" lon="-2.42784">
        <ele>797.4</ele>
        <time>2023-08-19T17:25:27Z</time>
      </trkpt>
      <trkpt lat="39.40384" lon="-2.42782">
        <ele>797.4</ele>
        <time>2023-08-19T17:25:30Z</time>
      </trkpt>
      <trkpt lat="39.40387" lon="-2.4278">
        <ele>797.4</ele>
        <time>2023-08-19T17:25:34Z</time>
      </trkpt>
      <trkpt lat="39.40389" lon="-2.42778">
        <ele>797.7</ele>
        <time>2023-08-19T17:25:37Z</time>
      </trkpt>
      <trkpt lat="39.40391" lon="-2.42776">
        <ele>797.8</ele>
        <time>2023-08-19T17:25:40Z</time>
      </trkpt>
      <trkpt lat="39.40393" lon="-2.42773">
        <ele>797.6</ele>
        <time>2023-08-19T17:25:43Z</time>
      </trkpt>
      <trkpt lat="39.40395" lon="-2.42771">
        <ele>797.7</ele>
        <time>2023-08-19T17:25:47Z</time>
      </trkpt>
      <trkpt lat="39.40388" lon="-2.42768">
        <ele>786.7</ele>
        <time>2023-08-19T17:28:37Z</time>
      </trkpt>
      <trkpt lat="39.40385" lon="-2.42756">
        <ele>786.3</ele>
        <time>2023-08-19T17:28:40Z</time>
      </trkpt>
      <trkpt lat="39.40386" lon="-2.42747">
        <ele>786.7</ele>
        <time>2023-08-19T17:28:43Z</time>
      </trkpt>
      <trkpt lat="39.40392" lon="-2.42741">
        <ele>786.7</ele>
        <time>2023-08-19T17:28:47Z</time>
      </trkpt>
      <trkpt lat="39.404" lon="-2.42733">
        <ele>787.3</ele>
        <time>2023-08-19T17:28:50Z</time>
      </trkpt>
      <trkpt lat="39.40412" lon="-2.42722">
        <ele>787.3</ele>
        <time>2023-08-19T17:28:54Z</time>
      </trkpt>
      <trkpt lat="39.40427" lon="-2.42711">
        <ele>789.5</ele>
        <time>2023-08-19T17:28:57Z</time>
      </trkpt>
      <trkpt lat="39.40438" lon="-2.42702">
        <ele>787.1</ele>
        <time>2023-08-19T17:29:00Z</time>
      </trkpt>
      <trkpt lat="39.40449" lon="-2.42696">
        <ele>787.4</ele>
        <time>2023-08-19T17:29:03Z</time>
      </trkpt>
      <trkpt lat="39.40458" lon="-2.42691">
        <ele>787.3</ele>
        <time>2023-08-19T17:29:06Z</time>
      </trkpt>
      <trkpt lat="39.40465" lon="-2.42685">
        <ele>786.2</ele>
        <time>2023-08-19T17:29:10Z</time>
      </trkpt>
      <trkpt lat="39.40467" lon="-2.42679">
        <ele>785.9</ele>
        <time>2023-08-19T17:29:13Z</time>
      </trkpt>
      <trkpt lat="39.40466" lon="-2.42665">
        <ele>786.2</ele>
        <time>2023-08-19T17:29:17Z</time>
      </trkpt>
      <trkpt lat="39.4047" lon="-2.42646">
        <ele>785</ele>
        <time>2023-08-19T17:29:21Z</time>
      </trkpt>
      <trkpt lat="39.40482" lon="-2.42628">
        <ele>783.8</ele>
        <time>2023-08-19T17:29:24Z</time>
      </trkpt>
      <trkpt lat="39.4049" lon="-2.42598">
        <ele>783.5</ele>
        <time>2023-08-19T17:29:28Z</time>
      </trkpt>
      <trkpt lat="39.40489" lon="-2.42568">
        <ele>783.5</ele>
        <time>2023-08-19T17:29:32Z</time>
      </trkpt>
      <trkpt lat="39.40488" lon="-2.42554">
        <ele>783.7</ele>
        <time>2023-08-19T17:29:35Z</time>
      </trkpt>
      <trkpt lat="39.40496" lon="-2.4254">
        <ele>783.5</ele>
        <time>2023-08-19T17:29:39Z</time>
      </trkpt>
      <trkpt lat="39.40501" lon="-2.4253">
        <ele>783.1</ele>
        <time>2023-08-19T17:29:43Z</time>
      </trkpt>
      <trkpt lat="39.40507" lon="-2.42528">
        <ele>783.6</ele>
        <time>2023-08-19T17:29:46Z</time>
      </trkpt>
      <trkpt lat="39.40526" lon="-2.42535">
        <ele>784</ele>
        <time>2023-08-19T17:29:50Z</time>
      </trkpt>
      <trkpt lat="39.40542" lon="-2.42544">
        <ele>785.7</ele>
        <time>2023-08-19T17:29:53Z</time>
      </trkpt>
      <trkpt lat="39.40557" lon="-2.42555">
        <ele>785.2</ele>
        <time>2023-08-19T17:29:56Z</time>
      </trkpt>
      <trkpt lat="39.40576" lon="-2.42557">
        <ele>785.6</ele>
        <time>2023-08-19T17:30:00Z</time>
      </trkpt>
      <trkpt lat="39.40584" lon="-2.42553">
        <ele>785.7</ele>
        <time>2023-08-19T17:30:03Z</time>
      </trkpt>
      <trkpt lat="39.40591" lon="-2.42542">
        <ele>786.3</ele>
        <time>2023-08-19T17:30:07Z</time>
      </trkpt>
      <trkpt lat="39.40597" lon="-2.42521">
        <ele>786.7</ele>
        <time>2023-08-19T17:30:11Z</time>
      </trkpt>
      <trkpt lat="39.40603" lon="-2.42495">
        <ele>786.5</ele>
        <time>2023-08-19T17:30:15Z</time>
      </trkpt>
      <trkpt lat="39.4061" lon="-2.42473">
        <ele>786.4</ele>
        <time>2023-08-19T17:30:19Z</time>
      </trkpt>
      <trkpt lat="39.40615" lon="-2.42457">
        <ele>787.3</ele>
        <time>2023-08-19T17:30:22Z</time>
      </trkpt>
      <trkpt lat="39.40621" lon="-2.42432">
        <ele>787.3</ele>
        <time>2023-08-19T17:30:26Z</time>
      </trkpt>
      <trkpt lat="39.40633" lon="-2.42401">
        <ele>787.3</ele>
        <time>2023-08-19T17:30:30Z</time>
      </trkpt>
      <trkpt lat="39.40641" lon="-2.42385">
        <ele>788.1</ele>
        <time>2023-08-19T17:30:33Z</time>
      </trkpt>
      <trkpt lat="39.4065" lon="-2.42369">
        <ele>787.8</ele>
        <time>2023-08-19T17:30:37Z</time>
      </trkpt>
      <trkpt lat="39.4066" lon="-2.42349">
        <ele>787.4</ele>
        <time>2023-08-19T17:30:41Z</time>
      </trkpt>
      <trkpt lat="39.40673" lon="-2.4233">
        <ele>787.9</ele>
        <time>2023-08-19T17:30:45Z</time>
      </trkpt>
      <trkpt lat="39.40684" lon="-2.42315">
        <ele>787.9</ele>
        <time>2023-08-19T17:30:48Z</time>
      </trkpt>
      <trkpt lat="39.40694" lon="-2.42301">
        <ele>788.2</ele>
        <time>2023-08-19T17:30:51Z</time>
      </trkpt>
      <trkpt lat="39.40704" lon="-2.4229">
        <ele>788.2</ele>
        <time>2023-08-19T17:30:54Z</time>
      </trkpt>
      <trkpt lat="39.40717" lon="-2.42274">
        <ele>788.5</ele>
        <time>2023-08-19T17:30:57Z</time>
      </trkpt>
      <trkpt lat="39.40744" lon="-2.42247">
        <ele>788</ele>
        <time>2023-08-19T17:31:02Z</time>
      </trkpt>
      <trkpt lat="39.40762" lon="-2.42224">
        <ele>788</ele>
        <time>2023-08-19T17:31:06Z</time>
      </trkpt>
      <trkpt lat="39.40776" lon="-2.42205">
        <ele>787.8</ele>
        <time>2023-08-19T17:31:09Z</time>
      </trkpt>
      <trkpt lat="39.40796" lon="-2.42185">
        <ele>787.5</ele>
        <time>2023-08-19T17:31:13Z</time>
      </trkpt>
      <trkpt lat="39.40808" lon="-2.42177">
        <ele>788.2</ele>
        <time>2023-08-19T17:31:17Z</time>
      </trkpt>
      <trkpt lat="39.40827" lon="-2.42161">
        <ele>788.1</ele>
        <time>2023-08-19T17:31:21Z</time>
      </trkpt>
      <trkpt lat="39.40846" lon="-2.42147">
        <ele>788.1</ele>
        <time>2023-08-19T17:31:25Z</time>
      </trkpt>
      <trkpt lat="39.40859" lon="-2.42137">
        <ele>788</ele>
        <time>2023-08-19T17:31:28Z</time>
      </trkpt>
      <trkpt lat="39.4087" lon="-2.42127">
        <ele>787.9</ele>
        <time>2023-08-19T17:31:31Z</time>
      </trkpt>
      <trkpt lat="39.40879" lon="-2.42118">
        <ele>788.1</ele>
        <time>2023-08-19T17:31:34Z</time>
      </trkpt>
      <trkpt lat="39.40888" lon="-2.42109">
        <ele>788</ele>
        <time>2023-08-19T17:31:37Z</time>
      </trkpt>
      <trkpt lat="39.4089" lon="-2.42104">
        <ele>787.8</ele>
        <time>2023-08-19T17:31:40Z</time>
      </trkpt>
      <trkpt lat="39.40888" lon="-2.42103">
        <ele>788.1</ele>
        <time>2023-08-19T17:31:44Z</time>
      </trkpt>
      <trkpt lat="39.40885" lon="-2.421">
        <ele>787.6</ele>
        <time>2023-08-19T17:31:47Z</time>
      </trkpt>
      <trkpt lat="39.40871" lon="-2.42098">
        <ele>787.3</ele>
        <time>2023-08-19T17:31:51Z</time>
      </trkpt>
      <trkpt lat="39.40859" lon="-2.42105">
        <ele>786.5</ele>
        <time>2023-08-19T17:31:54Z</time>
      </trkpt>
      <trkpt lat="39.40836" lon="-2.42112">
        <ele>785.5</ele>
        <time>2023-08-19T17:31:58Z</time>
      </trkpt>
      <trkpt lat="39.4081" lon="-2.4212">
        <ele>784.6</ele>
        <time>2023-08-19T17:32:02Z</time>
      </trkpt>
      <trkpt lat="39.40794" lon="-2.42131">
        <ele>784.5</ele>
        <time>2023-08-19T17:32:05Z</time>
      </trkpt>
      <trkpt lat="39.40775" lon="-2.42141">
        <ele>783.7</ele>
        <time>2023-08-19T17:32:09Z</time>
      </trkpt>
      <trkpt lat="39.40759" lon="-2.42147">
        <ele>783.4</ele>
        <time>2023-08-19T17:32:12Z</time>
      </trkpt>
      <trkpt lat="39.40745" lon="-2.42154">
        <ele>783.2</ele>
        <time>2023-08-19T17:32:16Z</time>
      </trkpt>
      <trkpt lat="39.40736" lon="-2.42151">
        <ele>783</ele>
        <time>2023-08-19T17:32:19Z</time>
      </trkpt>
      <trkpt lat="39.4074" lon="-2.42141">
        <ele>782.7</ele>
        <time>2023-08-19T17:32:22Z</time>
      </trkpt>
      <trkpt lat="39.4075" lon="-2.42132">
        <ele>782.3</ele>
        <time>2023-08-19T17:32:25Z</time>
      </trkpt>
      <trkpt lat="39.40763" lon="-2.42122">
        <ele>782.5</ele>
        <time>2023-08-19T17:32:29Z</time>
      </trkpt>
      <trkpt lat="39.40773" lon="-2.42115">
        <ele>782.9</ele>
        <time>2023-08-19T17:32:33Z</time>
      </trkpt>
      <trkpt lat="39.40774" lon="-2.42108">
        <ele>782.4</ele>
        <time>2023-08-19T17:32:36Z</time>
      </trkpt>
      <trkpt lat="39.40773" lon="-2.42099">
        <ele>783</ele>
        <time>2023-08-19T17:32:40Z</time>
      </trkpt>
      <trkpt lat="39.40774" lon="-2.42092">
        <ele>783.1</ele>
        <time>2023-08-19T17:32:44Z</time>
      </trkpt>
      <trkpt lat="39.40818" lon="-2.42067">
        <ele>781.8</ele>
        <time>2023-08-19T17:52:04Z</time>
      </trkpt>
      <trkpt lat="39.4078" lon="-2.4209">
        <ele>779.3</ele>
        <time>2023-08-19T17:56:24Z</time>
      </trkpt>
      <trkpt lat="39.40777" lon="-2.42105">
        <ele>788.5</ele>
        <time>2023-08-19T17:56:28Z</time>
      </trkpt>
      <trkpt lat="39.40778" lon="-2.42113">
        <ele>779.9</ele>
        <time>2023-08-19T17:56:32Z</time>
      </trkpt>
      <trkpt lat="39.40782" lon="-2.4212">
        <ele>784.6</ele>
        <time>2023-08-19T17:56:35Z</time>
      </trkpt>
      <trkpt lat="39.40789" lon="-2.42124">
        <ele>783.7</ele>
        <time>2023-08-19T17:56:39Z</time>
      </trkpt>
      <trkpt lat="39.40797" lon="-2.42125">
        <ele>782.5</ele>
        <time>2023-08-19T17:56:42Z</time>
      </trkpt>
      <trkpt lat="39.40808" lon="-2.42118">
        <ele>783.8</ele>
        <time>2023-08-19T17:56:45Z</time>
      </trkpt>
      <trkpt lat="39.40824" lon="-2.42115">
        <ele>783.5</ele>
        <time>2023-08-19T17:56:49Z</time>
      </trkpt>
      <trkpt lat="39.4084" lon="-2.42112">
        <ele>785.3</ele>
        <time>2023-08-19T17:56:52Z</time>
      </trkpt>
      <trkpt lat="39.40853" lon="-2.42103">
        <ele>783.3</ele>
        <time>2023-08-19T17:56:55Z</time>
      </trkpt>
      <trkpt lat="39.40862" lon="-2.42089">
        <ele>786.4</ele>
        <time>2023-08-19T17:56:58Z</time>
      </trkpt>
      <trkpt lat="39.40878" lon="-2.42076">
        <ele>788.2</ele>
        <time>2023-08-19T17:57:02Z</time>
      </trkpt>
      <trkpt lat="39.40893" lon="-2.42076">
        <ele>782.1</ele>
        <time>2023-08-19T17:57:05Z</time>
      </trkpt>
      <trkpt lat="39.40902" lon="-2.42092">
        <ele>792.4</ele>
        <time>2023-08-19T17:57:09Z</time>
      </trkpt>
      <trkpt lat="39.40894" lon="-2.42102">
        <ele>784.7</ele>
        <time>2023-08-19T17:57:13Z</time>
      </trkpt>
      <trkpt lat="39.4087" lon="-2.42114">
        <ele>785.3</ele>
        <time>2023-08-19T17:57:18Z</time>
      </trkpt>
      <trkpt lat="39.40846" lon="-2.42128">
        <ele>784.6</ele>
        <time>2023-08-19T17:57:22Z</time>
      </trkpt>
      <trkpt lat="39.40821" lon="-2.42143">
        <ele>784.9</ele>
        <time>2023-08-19T17:57:26Z</time>
      </trkpt>
      <trkpt lat="39.40797" lon="-2.42156">
        <ele>783.7</ele>
        <time>2023-08-19T17:57:30Z</time>
      </trkpt>
      <trkpt lat="39.40778" lon="-2.42164">
        <ele>781</ele>
        <time>2023-08-19T17:57:33Z</time>
      </trkpt>
      <trkpt lat="39.40751" lon="-2.42178">
        <ele>778.9</ele>
        <time>2023-08-19T17:57:37Z</time>
      </trkpt>
      <trkpt lat="39.40727" lon="-2.42183">
        <ele>782.1</ele>
        <time>2023-08-19T17:57:40Z</time>
      </trkpt>
      <trkpt lat="39.40696" lon="-2.42188">
        <ele>779.8</ele>
        <time>2023-08-19T17:57:44Z</time>
      </trkpt>
      <trkpt lat="39.40668" lon="-2.42197">
        <ele>779.4</ele>
        <time>2023-08-19T17:57:48Z</time>
      </trkpt>
      <trkpt lat="39.40644" lon="-2.42206">
        <ele>776.8</ele>
        <time>2023-08-19T17:57:51Z</time>
      </trkpt>
      <trkpt lat="39.40611" lon="-2.42217">
        <ele>782.7</ele>
        <time>2023-08-19T17:57:55Z</time>
      </trkpt>
      <trkpt lat="39.40588" lon="-2.4222">
        <ele>781.1</ele>
        <time>2023-08-19T17:57:58Z</time>
      </trkpt>
      <trkpt lat="39.40565" lon="-2.42224">
        <ele>778.2</ele>
        <time>2023-08-19T17:58:01Z</time>
      </trkpt>
      <trkpt lat="39.40535" lon="-2.42234">
        <ele>780</ele>
        <time>2023-08-19T17:58:05Z</time>
      </trkpt>
      <trkpt lat="39.40502" lon="-2.42247">
        <ele>779.8</ele>
        <time>2023-08-19T17:58:09Z</time>
      </trkpt>
      <trkpt lat="39.40468" lon="-2.42259">
        <ele>779.4</ele>
        <time>2023-08-19T17:58:13Z</time>
      </trkpt>
      <trkpt lat="39.40443" lon="-2.42268">
        <ele>778.7</ele>
        <time>2023-08-19T17:58:16Z</time>
      </trkpt>
      <trkpt lat="39.40419" lon="-2.42278">
        <ele>778.8</ele>
        <time>2023-08-19T17:58:19Z</time>
      </trkpt>
      <trkpt lat="39.40386" lon="-2.42291">
        <ele>777.7</ele>
        <time>2023-08-19T17:58:23Z</time>
      </trkpt>
      <trkpt lat="39.40362" lon="-2.42302">
        <ele>781.1</ele>
        <time>2023-08-19T17:58:26Z</time>
      </trkpt>
      <trkpt lat="39.4033" lon="-2.42317">
        <ele>780</ele>
        <time>2023-08-19T17:58:30Z</time>
      </trkpt>
      <trkpt lat="39.40299" lon="-2.42332">
        <ele>778.6</ele>
        <time>2023-08-19T17:58:34Z</time>
      </trkpt>
      <trkpt lat="39.40275" lon="-2.42343">
        <ele>779.8</ele>
        <time>2023-08-19T17:58:37Z</time>
      </trkpt>
      <trkpt lat="39.40243" lon="-2.42358">
        <ele>779.3</ele>
        <time>2023-08-19T17:58:41Z</time>
      </trkpt>
      <trkpt lat="39.40212" lon="-2.42372">
        <ele>779.6</ele>
        <time>2023-08-19T17:58:45Z</time>
      </trkpt>
      <trkpt lat="39.40181" lon="-2.42388">
        <ele>778.9</ele>
        <time>2023-08-19T17:58:49Z</time>
      </trkpt>
      <trkpt lat="39.4015" lon="-2.42406">
        <ele>778.8</ele>
        <time>2023-08-19T17:58:53Z</time>
      </trkpt>
      <trkpt lat="39.40128" lon="-2.42424">
        <ele>777.8</ele>
        <time>2023-08-19T17:58:56Z</time>
      </trkpt>
      <trkpt lat="39.40101" lon="-2.42455">
        <ele>778.6</ele>
        <time>2023-08-19T17:59:00Z</time>
      </trkpt>
      <trkpt lat="39.40083" lon="-2.4248">
        <ele>777.9</ele>
        <time>2023-08-19T17:59:03Z</time>
      </trkpt>
      <trkpt lat="39.40059" lon="-2.42511">
        <ele>776.8</ele>
        <time>2023-08-19T17:59:07Z</time>
      </trkpt>
      <trkpt lat="39.40034" lon="-2.42545">
        <ele>777</ele>
        <time>2023-08-19T17:59:11Z</time>
      </trkpt>
      <trkpt lat="39.40009" lon="-2.42581">
        <ele>780.3</ele>
        <time>2023-08-19T17:59:15Z</time>
      </trkpt>
      <trkpt lat="39.39994" lon="-2.42604">
        <ele>778.7</ele>
        <time>2023-08-19T17:59:18Z</time>
      </trkpt>
      <trkpt lat="39.39983" lon="-2.42623">
        <ele>778.1</ele>
        <time>2023-08-19T17:59:22Z</time>
      </trkpt>
      <trkpt lat="39.39974" lon="-2.42637">
        <ele>777.6</ele>
        <time>2023-08-19T17:59:26Z</time>
      </trkpt>
      <trkpt lat="39.39967" lon="-2.42644">
        <ele>777.2</ele>
        <time>2023-08-19T17:59:30Z</time>
      </trkpt>
      <trkpt lat="39.39972" lon="-2.42644">
        <ele>777.9</ele>
        <time>2023-08-19T17:59:39Z</time>
      </trkpt>
      <trkpt lat="39.39977" lon="-2.42645">
        <ele>782</ele>
        <time>2023-08-19T17:59:44Z</time>
      </trkpt>
      <trkpt lat="39.39974" lon="-2.42652">
        <ele>776.7</ele>
        <time>2023-08-19T17:59:47Z</time>
      </trkpt>
      <trkpt lat="39.39963" lon="-2.42664">
        <ele>778.7</ele>
        <time>2023-08-19T17:59:51Z</time>
      </trkpt>
      <trkpt lat="39.39952" lon="-2.42674">
        <ele>778.4</ele>
        <time>2023-08-19T17:59:54Z</time>
      </trkpt>
      <trkpt lat="39.3994" lon="-2.42692">
        <ele>777.1</ele>
        <time>2023-08-19T17:59:57Z</time>
      </trkpt>
      <trkpt lat="39.39921" lon="-2.42721">
        <ele>777</ele>
        <time>2023-08-19T18:00:01Z</time>
      </trkpt>
      <trkpt lat="39.39896" lon="-2.42758">
        <ele>777.8</ele>
        <time>2023-08-19T18:00:05Z</time>
      </trkpt>
      <trkpt lat="39.39867" lon="-2.42795">
        <ele>777.8</ele>
        <time>2023-08-19T18:00:09Z</time>
      </trkpt>
      <trkpt lat="39.39848" lon="-2.42822">
        <ele>776.5</ele>
        <time>2023-08-19T18:00:12Z</time>
      </trkpt>
      <trkpt lat="39.39819" lon="-2.42858">
        <ele>777.9</ele>
        <time>2023-08-19T18:00:16Z</time>
      </trkpt>
      <trkpt lat="39.39793" lon="-2.42892">
        <ele>777</ele>
        <time>2023-08-19T18:00:20Z</time>
      </trkpt>
      <trkpt lat="39.39769" lon="-2.42925">
        <ele>775.1</ele>
        <time>2023-08-19T18:00:24Z</time>
      </trkpt>
      <trkpt lat="39.39745" lon="-2.42958">
        <ele>776.7</ele>
        <time>2023-08-19T18:00:28Z</time>
      </trkpt>
      <trkpt lat="39.39728" lon="-2.42984">
        <ele>776.1</ele>
        <time>2023-08-19T18:00:31Z</time>
      </trkpt>
      <trkpt lat="39.39712" lon="-2.43024">
        <ele>777.5</ele>
        <time>2023-08-19T18:00:35Z</time>
      </trkpt>
      <trkpt lat="39.39695" lon="-2.43062">
        <ele>775.5</ele>
        <time>2023-08-19T18:00:39Z</time>
      </trkpt>
      <trkpt lat="39.39673" lon="-2.43096">
        <ele>779.5</ele>
        <time>2023-08-19T18:00:43Z</time>
      </trkpt>
      <trkpt lat="39.39651" lon="-2.43132">
        <ele>775.3</ele>
        <time>2023-08-19T18:00:47Z</time>
      </trkpt>
      <trkpt lat="39.39631" lon="-2.43164">
        <ele>777.1</ele>
        <time>2023-08-19T18:00:51Z</time>
      </trkpt>
      <trkpt lat="39.39622" lon="-2.43191">
        <ele>775</ele>
        <time>2023-08-19T18:00:54Z</time>
      </trkpt>
      <trkpt lat="39.39603" lon="-2.43226">
        <ele>775.6</ele>
        <time>2023-08-19T18:00:58Z</time>
      </trkpt>
      <trkpt lat="39.39587" lon="-2.43252">
        <ele>777.8</ele>
        <time>2023-08-19T18:01:01Z</time>
      </trkpt>
      <trkpt lat="39.39571" lon="-2.43278">
        <ele>775.7</ele>
        <time>2023-08-19T18:01:04Z</time>
      </trkpt>
      <trkpt lat="39.39554" lon="-2.43304">
        <ele>776.4</ele>
        <time>2023-08-19T18:01:07Z</time>
      </trkpt>
      <trkpt lat="39.39533" lon="-2.43338">
        <ele>777.7</ele>
        <time>2023-08-19T18:01:11Z</time>
      </trkpt>
      <trkpt lat="39.3951" lon="-2.43372">
        <ele>774.9</ele>
        <time>2023-08-19T18:01:15Z</time>
      </trkpt>
      <trkpt lat="39.3949" lon="-2.43406">
        <ele>775.2</ele>
        <time>2023-08-19T18:01:19Z</time>
      </trkpt>
      <trkpt lat="39.39476" lon="-2.43432">
        <ele>775.3</ele>
        <time>2023-08-19T18:01:22Z</time>
      </trkpt>
      <trkpt lat="39.39461" lon="-2.43458">
        <ele>775.1</ele>
        <time>2023-08-19T18:01:25Z</time>
      </trkpt>
      <trkpt lat="39.3944" lon="-2.43492">
        <ele>774.2</ele>
        <time>2023-08-19T18:01:29Z</time>
      </trkpt>
      <trkpt lat="39.39418" lon="-2.43524">
        <ele>779.2</ele>
        <time>2023-08-19T18:01:33Z</time>
      </trkpt>
      <trkpt lat="39.39401" lon="-2.4355">
        <ele>773</ele>
        <time>2023-08-19T18:01:36Z</time>
      </trkpt>
      <trkpt lat="39.3938" lon="-2.43585">
        <ele>776.8</ele>
        <time>2023-08-19T18:01:40Z</time>
      </trkpt>
      <trkpt lat="39.39365" lon="-2.43611">
        <ele>776.8</ele>
        <time>2023-08-19T18:01:43Z</time>
      </trkpt>
      <trkpt lat="39.39348" lon="-2.43637">
        <ele>777.3</ele>
        <time>2023-08-19T18:01:46Z</time>
      </trkpt>
      <trkpt lat="39.39331" lon="-2.43663">
        <ele>776.9</ele>
        <time>2023-08-19T18:01:49Z</time>
      </trkpt>
      <trkpt lat="39.39309" lon="-2.43697">
        <ele>776.4</ele>
        <time>2023-08-19T18:01:53Z</time>
      </trkpt>
      <trkpt lat="39.39288" lon="-2.4373">
        <ele>776.2</ele>
        <time>2023-08-19T18:01:57Z</time>
      </trkpt>
      <trkpt lat="39.39271" lon="-2.43756">
        <ele>776.8</ele>
        <time>2023-08-19T18:02:00Z</time>
      </trkpt>
      <trkpt lat="39.39249" lon="-2.43791">
        <ele>778.4</ele>
        <time>2023-08-19T18:02:04Z</time>
      </trkpt>
      <trkpt lat="39.39226" lon="-2.43824">
        <ele>776.9</ele>
        <time>2023-08-19T18:02:08Z</time>
      </trkpt>
      <trkpt lat="39.39205" lon="-2.43858">
        <ele>776.8</ele>
        <time>2023-08-19T18:02:12Z</time>
      </trkpt>
      <trkpt lat="39.39189" lon="-2.43884">
        <ele>775.9</ele>
        <time>2023-08-19T18:02:15Z</time>
      </trkpt>
      <trkpt lat="39.39168" lon="-2.43918">
        <ele>778.2</ele>
        <time>2023-08-19T18:02:19Z</time>
      </trkpt>
      <trkpt lat="39.39147" lon="-2.43954">
        <ele>777.4</ele>
        <time>2023-08-19T18:02:23Z</time>
      </trkpt>
      <trkpt lat="39.39127" lon="-2.43987">
        <ele>775.6</ele>
        <time>2023-08-19T18:02:27Z</time>
      </trkpt>
      <trkpt lat="39.3911" lon="-2.44013">
        <ele>775.9</ele>
        <time>2023-08-19T18:02:30Z</time>
      </trkpt>
      <trkpt lat="39.39093" lon="-2.44039">
        <ele>775</ele>
        <time>2023-08-19T18:02:33Z</time>
      </trkpt>
      <trkpt lat="39.39077" lon="-2.44065">
        <ele>772.3</ele>
        <time>2023-08-19T18:02:36Z</time>
      </trkpt>
      <trkpt lat="39.39055" lon="-2.441">
        <ele>778.9</ele>
        <time>2023-08-19T18:02:40Z</time>
      </trkpt>
      <trkpt lat="39.39039" lon="-2.44126">
        <ele>777.3</ele>
        <time>2023-08-19T18:02:43Z</time>
      </trkpt>
      <trkpt lat="39.39012" lon="-2.44171">
        <ele>776.2</ele>
        <time>2023-08-19T18:02:48Z</time>
      </trkpt>
      <trkpt lat="39.38991" lon="-2.44206">
        <ele>774.5</ele>
        <time>2023-08-19T18:02:52Z</time>
      </trkpt>
      <trkpt lat="39.38971" lon="-2.44241">
        <ele>779.2</ele>
        <time>2023-08-19T18:02:56Z</time>
      </trkpt>
      <trkpt lat="39.38948" lon="-2.44274">
        <ele>776.6</ele>
        <time>2023-08-19T18:03:00Z</time>
      </trkpt>
      <trkpt lat="39.38925" lon="-2.44307">
        <ele>774.6</ele>
        <time>2023-08-19T18:03:04Z</time>
      </trkpt>
      <trkpt lat="39.3891" lon="-2.44332">
        <ele>775.8</ele>
        <time>2023-08-19T18:03:07Z</time>
      </trkpt>
      <trkpt lat="39.38888" lon="-2.44365">
        <ele>772.7</ele>
        <time>2023-08-19T18:03:11Z</time>
      </trkpt>
      <trkpt lat="39.38867" lon="-2.44399">
        <ele>774.4</ele>
        <time>2023-08-19T18:03:15Z</time>
      </trkpt>
      <trkpt lat="39.38845" lon="-2.44432">
        <ele>776.4</ele>
        <time>2023-08-19T18:03:19Z</time>
      </trkpt>
      <trkpt lat="39.38824" lon="-2.44466">
        <ele>773.8</ele>
        <time>2023-08-19T18:03:23Z</time>
      </trkpt>
      <trkpt lat="39.38808" lon="-2.44492">
        <ele>775.3</ele>
        <time>2023-08-19T18:03:26Z</time>
      </trkpt>
      <trkpt lat="39.38786" lon="-2.44525">
        <ele>778.3</ele>
        <time>2023-08-19T18:03:30Z</time>
      </trkpt>
      <trkpt lat="39.38765" lon="-2.44558">
        <ele>775.4</ele>
        <time>2023-08-19T18:03:34Z</time>
      </trkpt>
      <trkpt lat="39.3875" lon="-2.44583">
        <ele>774.4</ele>
        <time>2023-08-19T18:03:37Z</time>
      </trkpt>
      <trkpt lat="39.38735" lon="-2.44606">
        <ele>774.4</ele>
        <time>2023-08-19T18:03:40Z</time>
      </trkpt>
      <trkpt lat="39.3872" lon="-2.44637">
        <ele>774.2</ele>
        <time>2023-08-19T18:03:44Z</time>
      </trkpt>
      <trkpt lat="39.38712" lon="-2.44662">
        <ele>778.3</ele>
        <time>2023-08-19T18:03:47Z</time>
      </trkpt>
      <trkpt lat="39.38698" lon="-2.44685">
        <ele>776.2</ele>
        <time>2023-08-19T18:03:50Z</time>
      </trkpt>
      <trkpt lat="39.38679" lon="-2.44705">
        <ele>772.8</ele>
        <time>2023-08-19T18:03:53Z</time>
      </trkpt>
      <trkpt lat="39.38659" lon="-2.44728">
        <ele>771.9</ele>
        <time>2023-08-19T18:03:56Z</time>
      </trkpt>
      <trkpt lat="39.38636" lon="-2.44764">
        <ele>776.3</ele>
        <time>2023-08-19T18:04:00Z</time>
      </trkpt>
      <trkpt lat="39.38619" lon="-2.4479">
        <ele>775.6</ele>
        <time>2023-08-19T18:04:03Z</time>
      </trkpt>
      <trkpt lat="39.38598" lon="-2.44824">
        <ele>775.2</ele>
        <time>2023-08-19T18:04:07Z</time>
      </trkpt>
      <trkpt lat="39.38577" lon="-2.44858">
        <ele>779.1</ele>
        <time>2023-08-19T18:04:11Z</time>
      </trkpt>
      <trkpt lat="39.38556" lon="-2.44893">
        <ele>774.7</ele>
        <time>2023-08-19T18:04:15Z</time>
      </trkpt>
      <trkpt lat="39.38539" lon="-2.44919">
        <ele>776.6</ele>
        <time>2023-08-19T18:04:18Z</time>
      </trkpt>
      <trkpt lat="39.38523" lon="-2.44945">
        <ele>771.5</ele>
        <time>2023-08-19T18:04:21Z</time>
      </trkpt>
      <trkpt lat="39.38502" lon="-2.4498">
        <ele>775.3</ele>
        <time>2023-08-19T18:04:25Z</time>
      </trkpt>
      <trkpt lat="39.38487" lon="-2.45005">
        <ele>773.8</ele>
        <time>2023-08-19T18:04:28Z</time>
      </trkpt>
      <trkpt lat="39.38466" lon="-2.45039">
        <ele>776</ele>
        <time>2023-08-19T18:04:32Z</time>
      </trkpt>
      <trkpt lat="39.38443" lon="-2.45073">
        <ele>776.3</ele>
        <time>2023-08-19T18:04:36Z</time>
      </trkpt>
      <trkpt lat="39.38421" lon="-2.45107">
        <ele>774.6</ele>
        <time>2023-08-19T18:04:40Z</time>
      </trkpt>
      <trkpt lat="39.38399" lon="-2.4514">
        <ele>774.4</ele>
        <time>2023-08-19T18:04:44Z</time>
      </trkpt>
      <trkpt lat="39.38376" lon="-2.45174">
        <ele>774.8</ele>
        <time>2023-08-19T18:04:48Z</time>
      </trkpt>
      <trkpt lat="39.38359" lon="-2.452">
        <ele>774.4</ele>
        <time>2023-08-19T18:04:51Z</time>
      </trkpt>
      <trkpt lat="39.38337" lon="-2.45234">
        <ele>776.4</ele>
        <time>2023-08-19T18:04:55Z</time>
      </trkpt>
      <trkpt lat="39.3832" lon="-2.4526">
        <ele>774.8</ele>
        <time>2023-08-19T18:04:58Z</time>
      </trkpt>
      <trkpt lat="39.38304" lon="-2.45286">
        <ele>774.2</ele>
        <time>2023-08-19T18:05:01Z</time>
      </trkpt>
      <trkpt lat="39.38283" lon="-2.45319">
        <ele>769.6</ele>
        <time>2023-08-19T18:05:05Z</time>
      </trkpt>
      <trkpt lat="39.3826" lon="-2.45353">
        <ele>771.6</ele>
        <time>2023-08-19T18:05:09Z</time>
      </trkpt>
      <trkpt lat="39.38242" lon="-2.4538">
        <ele>771.8</ele>
        <time>2023-08-19T18:05:12Z</time>
      </trkpt>
      <trkpt lat="39.38221" lon="-2.45414">
        <ele>775.8</ele>
        <time>2023-08-19T18:05:16Z</time>
      </trkpt>
      <trkpt lat="39.382" lon="-2.45449">
        <ele>775.7</ele>
        <time>2023-08-19T18:05:20Z</time>
      </trkpt>
      <trkpt lat="39.38185" lon="-2.45476">
        <ele>773</ele>
        <time>2023-08-19T18:05:23Z</time>
      </trkpt>
      <trkpt lat="39.38163" lon="-2.4551">
        <ele>773.9</ele>
        <time>2023-08-19T18:05:27Z</time>
      </trkpt>
      <trkpt lat="39.38141" lon="-2.45545">
        <ele>773.4</ele>
        <time>2023-08-19T18:05:31Z</time>
      </trkpt>
      <trkpt lat="39.3812" lon="-2.45581">
        <ele>773</ele>
        <time>2023-08-19T18:05:35Z</time>
      </trkpt>
      <trkpt lat="39.38099" lon="-2.45615">
        <ele>774.6</ele>
        <time>2023-08-19T18:05:39Z</time>
      </trkpt>
      <trkpt lat="39.38077" lon="-2.45648">
        <ele>774</ele>
        <time>2023-08-19T18:05:43Z</time>
      </trkpt>
      <trkpt lat="39.38056" lon="-2.45682">
        <ele>774</ele>
        <time>2023-08-19T18:05:47Z</time>
      </trkpt>
      <trkpt lat="39.38041" lon="-2.45708">
        <ele>772.1</ele>
        <time>2023-08-19T18:05:50Z</time>
      </trkpt>
      <trkpt lat="39.3802" lon="-2.45742">
        <ele>773.3</ele>
        <time>2023-08-19T18:05:54Z</time>
      </trkpt>
      <trkpt lat="39.38004" lon="-2.45767">
        <ele>773</ele>
        <time>2023-08-19T18:05:57Z</time>
      </trkpt>
      <trkpt lat="39.37988" lon="-2.45793">
        <ele>772</ele>
        <time>2023-08-19T18:06:00Z</time>
      </trkpt>
      <trkpt lat="39.37971" lon="-2.45818">
        <ele>773.7</ele>
        <time>2023-08-19T18:06:03Z</time>
      </trkpt>
      <trkpt lat="39.3795" lon="-2.45853">
        <ele>773.2</ele>
        <time>2023-08-19T18:06:07Z</time>
      </trkpt>
      <trkpt lat="39.37929" lon="-2.45888">
        <ele>769.9</ele>
        <time>2023-08-19T18:06:11Z</time>
      </trkpt>
      <trkpt lat="39.37914" lon="-2.45913">
        <ele>774.2</ele>
        <time>2023-08-19T18:06:14Z</time>
      </trkpt>
      <trkpt lat="39.37898" lon="-2.45938">
        <ele>774.6</ele>
        <time>2023-08-19T18:06:17Z</time>
      </trkpt>
      <trkpt lat="39.37882" lon="-2.45964">
        <ele>773.4</ele>
        <time>2023-08-19T18:06:20Z</time>
      </trkpt>
      <trkpt lat="39.3786" lon="-2.45997">
        <ele>772.4</ele>
        <time>2023-08-19T18:06:24Z</time>
      </trkpt>
      <trkpt lat="39.37837" lon="-2.46029">
        <ele>773.1</ele>
        <time>2023-08-19T18:06:28Z</time>
      </trkpt>
      <trkpt lat="39.37819" lon="-2.46054">
        <ele>772.5</ele>
        <time>2023-08-19T18:06:31Z</time>
      </trkpt>
      <trkpt lat="39.37797" lon="-2.46086">
        <ele>770.9</ele>
        <time>2023-08-19T18:06:35Z</time>
      </trkpt>
      <trkpt lat="39.37769" lon="-2.46114">
        <ele>773.3</ele>
        <time>2023-08-19T18:06:39Z</time>
      </trkpt>
      <trkpt lat="39.37749" lon="-2.46135">
        <ele>771.8</ele>
        <time>2023-08-19T18:06:42Z</time>
      </trkpt>
      <trkpt lat="39.37733" lon="-2.46159">
        <ele>774</ele>
        <time>2023-08-19T18:06:45Z</time>
      </trkpt>
      <trkpt lat="39.37709" lon="-2.46192">
        <ele>775.2</ele>
        <time>2023-08-19T18:06:49Z</time>
      </trkpt>
      <trkpt lat="39.37691" lon="-2.46216">
        <ele>772.1</ele>
        <time>2023-08-19T18:06:52Z</time>
      </trkpt>
      <trkpt lat="39.37666" lon="-2.46248">
        <ele>771.2</ele>
        <time>2023-08-19T18:06:56Z</time>
      </trkpt>
      <trkpt lat="39.37647" lon="-2.46273">
        <ele>771.1</ele>
        <time>2023-08-19T18:06:59Z</time>
      </trkpt>
      <trkpt lat="39.37622" lon="-2.46304">
        <ele>772.9</ele>
        <time>2023-08-19T18:07:03Z</time>
      </trkpt>
      <trkpt lat="39.37598" lon="-2.46335">
        <ele>773.1</ele>
        <time>2023-08-19T18:07:07Z</time>
      </trkpt>
      <trkpt lat="39.37581" lon="-2.46356">
        <ele>770.8</ele>
        <time>2023-08-19T18:07:10Z</time>
      </trkpt>
      <trkpt lat="39.37564" lon="-2.46378">
        <ele>770.7</ele>
        <time>2023-08-19T18:07:13Z</time>
      </trkpt>
      <trkpt lat="39.37541" lon="-2.46408">
        <ele>771.5</ele>
        <time>2023-08-19T18:07:17Z</time>
      </trkpt>
      <trkpt lat="39.37524" lon="-2.46432">
        <ele>773.2</ele>
        <time>2023-08-19T18:07:20Z</time>
      </trkpt>
      <trkpt lat="39.375" lon="-2.46464">
        <ele>769.6</ele>
        <time>2023-08-19T18:07:24Z</time>
      </trkpt>
      <trkpt lat="39.37481" lon="-2.46488">
        <ele>772.7</ele>
        <time>2023-08-19T18:07:27Z</time>
      </trkpt>
      <trkpt lat="39.37457" lon="-2.46519">
        <ele>767.6</ele>
        <time>2023-08-19T18:07:31Z</time>
      </trkpt>
      <trkpt lat="39.37439" lon="-2.46542">
        <ele>771.3</ele>
        <time>2023-08-19T18:07:34Z</time>
      </trkpt>
      <trkpt lat="39.3742" lon="-2.46566">
        <ele>772.7</ele>
        <time>2023-08-19T18:07:37Z</time>
      </trkpt>
      <trkpt lat="39.37403" lon="-2.46589">
        <ele>775.9</ele>
        <time>2023-08-19T18:07:40Z</time>
      </trkpt>
      <trkpt lat="39.3738" lon="-2.46621">
        <ele>771.7</ele>
        <time>2023-08-19T18:07:44Z</time>
      </trkpt>
      <trkpt lat="39.37362" lon="-2.46646">
        <ele>771.7</ele>
        <time>2023-08-19T18:07:47Z</time>
      </trkpt>
      <trkpt lat="39.37338" lon="-2.46677">
        <ele>771.6</ele>
        <time>2023-08-19T18:07:51Z</time>
      </trkpt>
      <trkpt lat="39.3732" lon="-2.46701">
        <ele>771.1</ele>
        <time>2023-08-19T18:07:54Z</time>
      </trkpt>
      <trkpt lat="39.37302" lon="-2.46724">
        <ele>770.7</ele>
        <time>2023-08-19T18:07:57Z</time>
      </trkpt>
      <trkpt lat="39.37277" lon="-2.46756">
        <ele>770.2</ele>
        <time>2023-08-19T18:08:01Z</time>
      </trkpt>
      <trkpt lat="39.37247" lon="-2.46796">
        <ele>770.7</ele>
        <time>2023-08-19T18:08:06Z</time>
      </trkpt>
      <trkpt lat="39.37229" lon="-2.46819">
        <ele>770.5</ele>
        <time>2023-08-19T18:08:09Z</time>
      </trkpt>
      <trkpt lat="39.37205" lon="-2.46849">
        <ele>770.3</ele>
        <time>2023-08-19T18:08:13Z</time>
      </trkpt>
      <trkpt lat="39.37186" lon="-2.46872">
        <ele>770.8</ele>
        <time>2023-08-19T18:08:16Z</time>
      </trkpt>
      <trkpt lat="39.37168" lon="-2.46895">
        <ele>770.3</ele>
        <time>2023-08-19T18:08:19Z</time>
      </trkpt>
      <trkpt lat="39.37144" lon="-2.46927">
        <ele>771.1</ele>
        <time>2023-08-19T18:08:23Z</time>
      </trkpt>
      <trkpt lat="39.37125" lon="-2.46951">
        <ele>770.7</ele>
        <time>2023-08-19T18:08:26Z</time>
      </trkpt>
      <trkpt lat="39.37101" lon="-2.46983">
        <ele>774</ele>
        <time>2023-08-19T18:08:30Z</time>
      </trkpt>
      <trkpt lat="39.37079" lon="-2.47012">
        <ele>773.2</ele>
        <time>2023-08-19T18:08:34Z</time>
      </trkpt>
      <trkpt lat="39.37063" lon="-2.47034">
        <ele>775</ele>
        <time>2023-08-19T18:08:37Z</time>
      </trkpt>
      <trkpt lat="39.37047" lon="-2.47055">
        <ele>774.9</ele>
        <time>2023-08-19T18:08:40Z</time>
      </trkpt>
      <trkpt lat="39.37026" lon="-2.47082">
        <ele>777.3</ele>
        <time>2023-08-19T18:08:44Z</time>
      </trkpt>
      <trkpt lat="39.37005" lon="-2.47109">
        <ele>778.5</ele>
        <time>2023-08-19T18:08:48Z</time>
      </trkpt>
      <trkpt lat="39.36984" lon="-2.47136">
        <ele>778.9</ele>
        <time>2023-08-19T18:08:52Z</time>
      </trkpt>
      <trkpt lat="39.36962" lon="-2.47167">
        <ele>779.4</ele>
        <time>2023-08-19T18:08:56Z</time>
      </trkpt>
      <trkpt lat="39.36944" lon="-2.47189">
        <ele>781</ele>
        <time>2023-08-19T18:08:59Z</time>
      </trkpt>
      <trkpt lat="39.3692" lon="-2.4722">
        <ele>780.6</ele>
        <time>2023-08-19T18:09:03Z</time>
      </trkpt>
      <trkpt lat="39.36902" lon="-2.47244">
        <ele>779.1</ele>
        <time>2023-08-19T18:09:06Z</time>
      </trkpt>
      <trkpt lat="39.36877" lon="-2.47276">
        <ele>782.3</ele>
        <time>2023-08-19T18:09:10Z</time>
      </trkpt>
      <trkpt lat="39.36858" lon="-2.473">
        <ele>782.1</ele>
        <time>2023-08-19T18:09:13Z</time>
      </trkpt>
      <trkpt lat="39.36833" lon="-2.47333">
        <ele>780.5</ele>
        <time>2023-08-19T18:09:17Z</time>
      </trkpt>
      <trkpt lat="39.36813" lon="-2.47358">
        <ele>780.6</ele>
        <time>2023-08-19T18:09:20Z</time>
      </trkpt>
      <trkpt lat="39.36789" lon="-2.47391">
        <ele>780.4</ele>
        <time>2023-08-19T18:09:24Z</time>
      </trkpt>
      <trkpt lat="39.36771" lon="-2.47416">
        <ele>777.3</ele>
        <time>2023-08-19T18:09:27Z</time>
      </trkpt>
      <trkpt lat="39.36747" lon="-2.47449">
        <ele>780.2</ele>
        <time>2023-08-19T18:09:31Z</time>
      </trkpt>
      <trkpt lat="39.36725" lon="-2.47479">
        <ele>777.3</ele>
        <time>2023-08-19T18:09:35Z</time>
      </trkpt>
      <trkpt lat="39.367" lon="-2.47511">
        <ele>776.9</ele>
        <time>2023-08-19T18:09:39Z</time>
      </trkpt>
      <trkpt lat="39.36681" lon="-2.47536">
        <ele>774.7</ele>
        <time>2023-08-19T18:09:42Z</time>
      </trkpt>
      <trkpt lat="39.36656" lon="-2.4757">
        <ele>772.6</ele>
        <time>2023-08-19T18:09:46Z</time>
      </trkpt>
      <trkpt lat="39.36631" lon="-2.47602">
        <ele>771.2</ele>
        <time>2023-08-19T18:09:50Z</time>
      </trkpt>
      <trkpt lat="39.36607" lon="-2.47632">
        <ele>773</ele>
        <time>2023-08-19T18:09:54Z</time>
      </trkpt>
      <trkpt lat="39.36583" lon="-2.47664">
        <ele>769.3</ele>
        <time>2023-08-19T18:09:58Z</time>
      </trkpt>
      <trkpt lat="39.36565" lon="-2.47686">
        <ele>769</ele>
        <time>2023-08-19T18:10:01Z</time>
      </trkpt>
      <trkpt lat="39.36543" lon="-2.47716">
        <ele>766.1</ele>
        <time>2023-08-19T18:10:05Z</time>
      </trkpt>
      <trkpt lat="39.36519" lon="-2.47746">
        <ele>767.5</ele>
        <time>2023-08-19T18:10:09Z</time>
      </trkpt>
      <trkpt lat="39.36494" lon="-2.47778">
        <ele>770</ele>
        <time>2023-08-19T18:10:13Z</time>
      </trkpt>
      <trkpt lat="39.36476" lon="-2.47803">
        <ele>766.3</ele>
        <time>2023-08-19T18:10:16Z</time>
      </trkpt>
      <trkpt lat="39.36451" lon="-2.47836">
        <ele>768.8</ele>
        <time>2023-08-19T18:10:20Z</time>
      </trkpt>
      <trkpt lat="39.36433" lon="-2.47859">
        <ele>768.7</ele>
        <time>2023-08-19T18:10:23Z</time>
      </trkpt>
      <trkpt lat="39.36409" lon="-2.47889">
        <ele>768.2</ele>
        <time>2023-08-19T18:10:27Z</time>
      </trkpt>
      <trkpt lat="39.36391" lon="-2.4791">
        <ele>767.4</ele>
        <time>2023-08-19T18:10:30Z</time>
      </trkpt>
      <trkpt lat="39.36362" lon="-2.47948">
        <ele>769</ele>
        <time>2023-08-19T18:10:35Z</time>
      </trkpt>
      <trkpt lat="39.36345" lon="-2.4797">
        <ele>768.2</ele>
        <time>2023-08-19T18:10:38Z</time>
      </trkpt>
      <trkpt lat="39.36321" lon="-2.48002">
        <ele>767.9</ele>
        <time>2023-08-19T18:10:42Z</time>
      </trkpt>
      <trkpt lat="39.36304" lon="-2.48024">
        <ele>767.7</ele>
        <time>2023-08-19T18:10:45Z</time>
      </trkpt>
      <trkpt lat="39.36281" lon="-2.48054">
        <ele>768</ele>
        <time>2023-08-19T18:10:49Z</time>
      </trkpt>
      <trkpt lat="39.36264" lon="-2.48076">
        <ele>766.6</ele>
        <time>2023-08-19T18:10:52Z</time>
      </trkpt>
      <trkpt lat="39.36239" lon="-2.48109">
        <ele>767.6</ele>
        <time>2023-08-19T18:10:56Z</time>
      </trkpt>
      <trkpt lat="39.36215" lon="-2.48139">
        <ele>766.7</ele>
        <time>2023-08-19T18:11:00Z</time>
      </trkpt>
      <trkpt lat="39.36195" lon="-2.48162">
        <ele>767.3</ele>
        <time>2023-08-19T18:11:03Z</time>
      </trkpt>
      <trkpt lat="39.36176" lon="-2.48188">
        <ele>766.9</ele>
        <time>2023-08-19T18:11:06Z</time>
      </trkpt>
      <trkpt lat="39.36157" lon="-2.48212">
        <ele>768.2</ele>
        <time>2023-08-19T18:11:09Z</time>
      </trkpt>
      <trkpt lat="39.36133" lon="-2.48243">
        <ele>767.4</ele>
        <time>2023-08-19T18:11:13Z</time>
      </trkpt>
      <trkpt lat="39.36114" lon="-2.48268">
        <ele>767.3</ele>
        <time>2023-08-19T18:11:16Z</time>
      </trkpt>
      <trkpt lat="39.3609" lon="-2.483">
        <ele>768.6</ele>
        <time>2023-08-19T18:11:20Z</time>
      </trkpt>
      <trkpt lat="39.36067" lon="-2.48332">
        <ele>769.6</ele>
        <time>2023-08-19T18:11:24Z</time>
      </trkpt>
      <trkpt lat="39.36043" lon="-2.48364">
        <ele>766.8</ele>
        <time>2023-08-19T18:11:28Z</time>
      </trkpt>
      <trkpt lat="39.3602" lon="-2.48394">
        <ele>766.8</ele>
        <time>2023-08-19T18:11:32Z</time>
      </trkpt>
      <trkpt lat="39.36001" lon="-2.48417">
        <ele>767.5</ele>
        <time>2023-08-19T18:11:35Z</time>
      </trkpt>
      <trkpt lat="39.35981" lon="-2.48442">
        <ele>767.6</ele>
        <time>2023-08-19T18:11:38Z</time>
      </trkpt>
      <trkpt lat="39.35956" lon="-2.48474">
        <ele>766.2</ele>
        <time>2023-08-19T18:11:42Z</time>
      </trkpt>
      <trkpt lat="39.35931" lon="-2.48507">
        <ele>767.1</ele>
        <time>2023-08-19T18:11:46Z</time>
      </trkpt>
      <trkpt lat="39.35904" lon="-2.4854">
        <ele>767.9</ele>
        <time>2023-08-19T18:11:50Z</time>
      </trkpt>
      <trkpt lat="39.35879" lon="-2.48571">
        <ele>767.7</ele>
        <time>2023-08-19T18:11:54Z</time>
      </trkpt>
      <trkpt lat="39.35856" lon="-2.486">
        <ele>766.6</ele>
        <time>2023-08-19T18:11:58Z</time>
      </trkpt>
      <trkpt lat="39.35838" lon="-2.48623">
        <ele>767.1</ele>
        <time>2023-08-19T18:12:01Z</time>
      </trkpt>
      <trkpt lat="39.3582" lon="-2.48646">
        <ele>767.1</ele>
        <time>2023-08-19T18:12:04Z</time>
      </trkpt>
      <trkpt lat="39.35794" lon="-2.48674">
        <ele>767.8</ele>
        <time>2023-08-19T18:12:08Z</time>
      </trkpt>
      <trkpt lat="39.35775" lon="-2.48697">
        <ele>766.9</ele>
        <time>2023-08-19T18:12:11Z</time>
      </trkpt>
      <trkpt lat="39.3575" lon="-2.4873">
        <ele>768.9</ele>
        <time>2023-08-19T18:12:15Z</time>
      </trkpt>
      <trkpt lat="39.35732" lon="-2.48752">
        <ele>768</ele>
        <time>2023-08-19T18:12:18Z</time>
      </trkpt>
      <trkpt lat="39.3571" lon="-2.48783">
        <ele>767.4</ele>
        <time>2023-08-19T18:12:22Z</time>
      </trkpt>
      <trkpt lat="39.35693" lon="-2.48805">
        <ele>768</ele>
        <time>2023-08-19T18:12:25Z</time>
      </trkpt>
      <trkpt lat="39.35668" lon="-2.48835">
        <ele>767.3</ele>
        <time>2023-08-19T18:12:29Z</time>
      </trkpt>
      <trkpt lat="39.35643" lon="-2.48864">
        <ele>764.7</ele>
        <time>2023-08-19T18:12:33Z</time>
      </trkpt>
      <trkpt lat="39.35625" lon="-2.48887">
        <ele>768.8</ele>
        <time>2023-08-19T18:12:36Z</time>
      </trkpt>
      <trkpt lat="39.356" lon="-2.48917">
        <ele>767.3</ele>
        <time>2023-08-19T18:12:40Z</time>
      </trkpt>
      <trkpt lat="39.35576" lon="-2.48948">
        <ele>767.9</ele>
        <time>2023-08-19T18:12:44Z</time>
      </trkpt>
      <trkpt lat="39.35557" lon="-2.4897">
        <ele>767.2</ele>
        <time>2023-08-19T18:12:47Z</time>
      </trkpt>
      <trkpt lat="39.35532" lon="-2.49">
        <ele>767.9</ele>
        <time>2023-08-19T18:12:51Z</time>
      </trkpt>
      <trkpt lat="39.35507" lon="-2.49031">
        <ele>768.5</ele>
        <time>2023-08-19T18:12:55Z</time>
      </trkpt>
      <trkpt lat="39.35482" lon="-2.49062">
        <ele>767.4</ele>
        <time>2023-08-19T18:12:59Z</time>
      </trkpt>
      <trkpt lat="39.35457" lon="-2.49093">
        <ele>769.9</ele>
        <time>2023-08-19T18:13:03Z</time>
      </trkpt>
      <trkpt lat="39.35433" lon="-2.49126">
        <ele>771.8</ele>
        <time>2023-08-19T18:13:07Z</time>
      </trkpt>
      <trkpt lat="39.35415" lon="-2.49147">
        <ele>766.9</ele>
        <time>2023-08-19T18:13:10Z</time>
      </trkpt>
      <trkpt lat="39.35389" lon="-2.49178">
        <ele>767.4</ele>
        <time>2023-08-19T18:13:14Z</time>
      </trkpt>
      <trkpt lat="39.35363" lon="-2.4921">
        <ele>767.2</ele>
        <time>2023-08-19T18:13:18Z</time>
      </trkpt>
      <trkpt lat="39.35339" lon="-2.4924">
        <ele>766.9</ele>
        <time>2023-08-19T18:13:22Z</time>
      </trkpt>
      <trkpt lat="39.3532" lon="-2.49263">
        <ele>767</ele>
        <time>2023-08-19T18:13:25Z</time>
      </trkpt>
      <trkpt lat="39.35295" lon="-2.49293">
        <ele>767.5</ele>
        <time>2023-08-19T18:13:29Z</time>
      </trkpt>
      <trkpt lat="39.35277" lon="-2.49318">
        <ele>766.8</ele>
        <time>2023-08-19T18:13:32Z</time>
      </trkpt>
      <trkpt lat="39.35252" lon="-2.4935">
        <ele>767.3</ele>
        <time>2023-08-19T18:13:36Z</time>
      </trkpt>
      <trkpt lat="39.35233" lon="-2.49373">
        <ele>767</ele>
        <time>2023-08-19T18:13:39Z</time>
      </trkpt>
      <trkpt lat="39.3521" lon="-2.49402">
        <ele>768.1</ele>
        <time>2023-08-19T18:13:43Z</time>
      </trkpt>
      <trkpt lat="39.35193" lon="-2.49422">
        <ele>768.4</ele>
        <time>2023-08-19T18:13:46Z</time>
      </trkpt>
      <trkpt lat="39.35168" lon="-2.49453">
        <ele>768.6</ele>
        <time>2023-08-19T18:13:50Z</time>
      </trkpt>
      <trkpt lat="39.35144" lon="-2.49482">
        <ele>769.5</ele>
        <time>2023-08-19T18:13:54Z</time>
      </trkpt>
      <trkpt lat="39.35124" lon="-2.49504">
        <ele>769.6</ele>
        <time>2023-08-19T18:13:57Z</time>
      </trkpt>
      <trkpt lat="39.35105" lon="-2.49529">
        <ele>770.6</ele>
        <time>2023-08-19T18:14:00Z</time>
      </trkpt>
      <trkpt lat="39.35085" lon="-2.49553">
        <ele>771.2</ele>
        <time>2023-08-19T18:14:03Z</time>
      </trkpt>
      <trkpt lat="39.35061" lon="-2.49582">
        <ele>770.2</ele>
        <time>2023-08-19T18:14:07Z</time>
      </trkpt>
      <trkpt lat="39.35042" lon="-2.49606">
        <ele>770.3</ele>
        <time>2023-08-19T18:14:10Z</time>
      </trkpt>
      <trkpt lat="39.35016" lon="-2.49637">
        <ele>770.6</ele>
        <time>2023-08-19T18:14:14Z</time>
      </trkpt>
      <trkpt lat="39.34993" lon="-2.49669">
        <ele>770.4</ele>
        <time>2023-08-19T18:14:18Z</time>
      </trkpt>
      <trkpt lat="39.34968" lon="-2.49698">
        <ele>770</ele>
        <time>2023-08-19T18:14:22Z</time>
      </trkpt>
      <trkpt lat="39.3495" lon="-2.49722">
        <ele>770</ele>
        <time>2023-08-19T18:14:25Z</time>
      </trkpt>
      <trkpt lat="39.34927" lon="-2.49751">
        <ele>769.4</ele>
        <time>2023-08-19T18:14:29Z</time>
      </trkpt>
      <trkpt lat="39.34907" lon="-2.49775">
        <ele>769.6</ele>
        <time>2023-08-19T18:14:32Z</time>
      </trkpt>
      <trkpt lat="39.34882" lon="-2.49807">
        <ele>769</ele>
        <time>2023-08-19T18:14:36Z</time>
      </trkpt>
      <trkpt lat="39.34858" lon="-2.49837">
        <ele>770.3</ele>
        <time>2023-08-19T18:14:40Z</time>
      </trkpt>
      <trkpt lat="39.34841" lon="-2.4986">
        <ele>769.5</ele>
        <time>2023-08-19T18:14:43Z</time>
      </trkpt>
      <trkpt lat="39.34823" lon="-2.49883">
        <ele>770.8</ele>
        <time>2023-08-19T18:14:46Z</time>
      </trkpt>
      <trkpt lat="39.34798" lon="-2.49913">
        <ele>771.7</ele>
        <time>2023-08-19T18:14:50Z</time>
      </trkpt>
      <trkpt lat="39.34777" lon="-2.4994">
        <ele>773.2</ele>
        <time>2023-08-19T18:14:54Z</time>
      </trkpt>
      <trkpt lat="39.34757" lon="-2.49965">
        <ele>773.2</ele>
        <time>2023-08-19T18:14:58Z</time>
      </trkpt>
      <trkpt lat="39.34742" lon="-2.49985">
        <ele>773.9</ele>
        <time>2023-08-19T18:15:01Z</time>
      </trkpt>
      <trkpt lat="39.34725" lon="-2.50005">
        <ele>774.5</ele>
        <time>2023-08-19T18:15:04Z</time>
      </trkpt>
      <trkpt lat="39.34705" lon="-2.5003">
        <ele>775.9</ele>
        <time>2023-08-19T18:15:08Z</time>
      </trkpt>
      <trkpt lat="39.34686" lon="-2.50053">
        <ele>776.4</ele>
        <time>2023-08-19T18:15:12Z</time>
      </trkpt>
      <trkpt lat="39.34668" lon="-2.50075">
        <ele>776.9</ele>
        <time>2023-08-19T18:15:16Z</time>
      </trkpt>
      <trkpt lat="39.34649" lon="-2.501">
        <ele>776.4</ele>
        <time>2023-08-19T18:15:20Z</time>
      </trkpt>
      <trkpt lat="39.3463" lon="-2.50128">
        <ele>775.4</ele>
        <time>2023-08-19T18:15:24Z</time>
      </trkpt>
      <trkpt lat="39.34618" lon="-2.50151">
        <ele>774.3</ele>
        <time>2023-08-19T18:15:27Z</time>
      </trkpt>
      <trkpt lat="39.3461" lon="-2.50177">
        <ele>773.7</ele>
        <time>2023-08-19T18:15:30Z</time>
      </trkpt>
      <trkpt lat="39.34616" lon="-2.50212">
        <ele>772.2</ele>
        <time>2023-08-19T18:15:34Z</time>
      </trkpt>
      <trkpt lat="39.34637" lon="-2.50241">
        <ele>771.7</ele>
        <time>2023-08-19T18:15:38Z</time>
      </trkpt>
      <trkpt lat="39.34661" lon="-2.50251">
        <ele>771.5</ele>
        <time>2023-08-19T18:15:41Z</time>
      </trkpt>
      <trkpt lat="39.34684" lon="-2.5025">
        <ele>770.4</ele>
        <time>2023-08-19T18:15:44Z</time>
      </trkpt>
      <trkpt lat="39.34703" lon="-2.5023">
        <ele>769.6</ele>
        <time>2023-08-19T18:15:48Z</time>
      </trkpt>
      <trkpt lat="39.34711" lon="-2.50198">
        <ele>769</ele>
        <time>2023-08-19T18:15:51Z</time>
      </trkpt>
      <trkpt lat="39.34713" lon="-2.50135">
        <ele>768.8</ele>
        <time>2023-08-19T18:15:55Z</time>
      </trkpt>
      <trkpt lat="39.34701" lon="-2.50097">
        <ele>769.1</ele>
        <time>2023-08-19T18:15:58Z</time>
      </trkpt>
      <trkpt lat="39.34676" lon="-2.50054">
        <ele>768.5</ele>
        <time>2023-08-19T18:16:02Z</time>
      </trkpt>
      <trkpt lat="39.34662" lon="-2.50022">
        <ele>769</ele>
        <time>2023-08-19T18:16:05Z</time>
      </trkpt>
      <trkpt lat="39.34642" lon="-2.4998">
        <ele>769</ele>
        <time>2023-08-19T18:16:09Z</time>
      </trkpt>
      <trkpt lat="39.34625" lon="-2.49941">
        <ele>769.4</ele>
        <time>2023-08-19T18:16:13Z</time>
      </trkpt>
      <trkpt lat="39.34608" lon="-2.49902">
        <ele>769.2</ele>
        <time>2023-08-19T18:16:17Z</time>
      </trkpt>
      <trkpt lat="39.34595" lon="-2.49872">
        <ele>768.8</ele>
        <time>2023-08-19T18:16:20Z</time>
      </trkpt>
      <trkpt lat="39.3458" lon="-2.49833">
        <ele>769.7</ele>
        <time>2023-08-19T18:16:24Z</time>
      </trkpt>
      <trkpt lat="39.34568" lon="-2.49805">
        <ele>769.3</ele>
        <time>2023-08-19T18:16:27Z</time>
      </trkpt>
      <trkpt lat="39.34555" lon="-2.49777">
        <ele>769</ele>
        <time>2023-08-19T18:16:30Z</time>
      </trkpt>
      <trkpt lat="39.34538" lon="-2.49736">
        <ele>768.9</ele>
        <time>2023-08-19T18:16:34Z</time>
      </trkpt>
      <trkpt lat="39.34522" lon="-2.49697">
        <ele>769.2</ele>
        <time>2023-08-19T18:16:38Z</time>
      </trkpt>
      <trkpt lat="39.34507" lon="-2.49657">
        <ele>770.1</ele>
        <time>2023-08-19T18:16:42Z</time>
      </trkpt>
      <trkpt lat="39.34495" lon="-2.49628">
        <ele>769.3</ele>
        <time>2023-08-19T18:16:45Z</time>
      </trkpt>
      <trkpt lat="39.34478" lon="-2.4959">
        <ele>769.4</ele>
        <time>2023-08-19T18:16:49Z</time>
      </trkpt>
      <trkpt lat="39.34466" lon="-2.49561">
        <ele>769.4</ele>
        <time>2023-08-19T18:16:52Z</time>
      </trkpt>
      <trkpt lat="39.34454" lon="-2.49531">
        <ele>769.5</ele>
        <time>2023-08-19T18:16:55Z</time>
      </trkpt>
      <trkpt lat="39.34439" lon="-2.49492">
        <ele>768.6</ele>
        <time>2023-08-19T18:16:59Z</time>
      </trkpt>
      <trkpt lat="39.34422" lon="-2.49452">
        <ele>767.6</ele>
        <time>2023-08-19T18:17:03Z</time>
      </trkpt>
      <trkpt lat="39.34405" lon="-2.49412">
        <ele>767.4</ele>
        <time>2023-08-19T18:17:07Z</time>
      </trkpt>
      <trkpt lat="39.34391" lon="-2.49383">
        <ele>767.9</ele>
        <time>2023-08-19T18:17:10Z</time>
      </trkpt>
      <trkpt lat="39.34381" lon="-2.49354">
        <ele>768.1</ele>
        <time>2023-08-19T18:17:13Z</time>
      </trkpt>
      <trkpt lat="39.3437" lon="-2.49325">
        <ele>767.2</ele>
        <time>2023-08-19T18:17:16Z</time>
      </trkpt>
      <trkpt lat="39.34356" lon="-2.49286">
        <ele>768.2</ele>
        <time>2023-08-19T18:17:20Z</time>
      </trkpt>
      <trkpt lat="39.34342" lon="-2.49248">
        <ele>768.8</ele>
        <time>2023-08-19T18:17:24Z</time>
      </trkpt>
      <trkpt lat="39.34329" lon="-2.49219">
        <ele>769</ele>
        <time>2023-08-19T18:17:27Z</time>
      </trkpt>
      <trkpt lat="39.34313" lon="-2.49182">
        <ele>770.8</ele>
        <time>2023-08-19T18:17:31Z</time>
      </trkpt>
      <trkpt lat="39.34301" lon="-2.49153">
        <ele>771</ele>
        <time>2023-08-19T18:17:34Z</time>
      </trkpt>
      <trkpt lat="39.34285" lon="-2.49114">
        <ele>773</ele>
        <time>2023-08-19T18:17:38Z</time>
      </trkpt>
      <trkpt lat="39.34274" lon="-2.49085">
        <ele>771.7</ele>
        <time>2023-08-19T18:17:41Z</time>
      </trkpt>
      <trkpt lat="39.34257" lon="-2.49044">
        <ele>770.6</ele>
        <time>2023-08-19T18:17:45Z</time>
      </trkpt>
      <trkpt lat="39.34246" lon="-2.49013">
        <ele>771.1</ele>
        <time>2023-08-19T18:17:48Z</time>
      </trkpt>
      <trkpt lat="39.3423" lon="-2.48974">
        <ele>771</ele>
        <time>2023-08-19T18:17:52Z</time>
      </trkpt>
      <trkpt lat="39.34214" lon="-2.48937">
        <ele>770.7</ele>
        <time>2023-08-19T18:17:56Z</time>
      </trkpt>
      <trkpt lat="39.342" lon="-2.48908">
        <ele>771.9</ele>
        <time>2023-08-19T18:17:59Z</time>
      </trkpt>
      <trkpt lat="39.34184" lon="-2.4887">
        <ele>771.2</ele>
        <time>2023-08-19T18:18:03Z</time>
      </trkpt>
      <trkpt lat="39.34169" lon="-2.48831">
        <ele>771.2</ele>
        <time>2023-08-19T18:18:07Z</time>
      </trkpt>
      <trkpt lat="39.34157" lon="-2.48802">
        <ele>771.7</ele>
        <time>2023-08-19T18:18:10Z</time>
      </trkpt>
      <trkpt lat="39.3414" lon="-2.48762">
        <ele>770.3</ele>
        <time>2023-08-19T18:18:14Z</time>
      </trkpt>
      <trkpt lat="39.34128" lon="-2.48733">
        <ele>770.7</ele>
        <time>2023-08-19T18:18:17Z</time>
      </trkpt>
      <trkpt lat="39.34113" lon="-2.48693">
        <ele>770.8</ele>
        <time>2023-08-19T18:18:21Z</time>
      </trkpt>
      <trkpt lat="39.34103" lon="-2.48667">
        <ele>770.7</ele>
        <time>2023-08-19T18:18:24Z</time>
      </trkpt>
      <trkpt lat="39.34082" lon="-2.4862">
        <ele>772.2</ele>
        <time>2023-08-19T18:18:29Z</time>
      </trkpt>
      <trkpt lat="39.34069" lon="-2.4859">
        <ele>771.1</ele>
        <time>2023-08-19T18:18:32Z</time>
      </trkpt>
      <trkpt lat="39.34053" lon="-2.48553">
        <ele>771.5</ele>
        <time>2023-08-19T18:18:36Z</time>
      </trkpt>
      <trkpt lat="39.34036" lon="-2.48514">
        <ele>771.8</ele>
        <time>2023-08-19T18:18:40Z</time>
      </trkpt>
      <trkpt lat="39.34024" lon="-2.48483">
        <ele>771.3</ele>
        <time>2023-08-19T18:18:43Z</time>
      </trkpt>
      <trkpt lat="39.34008" lon="-2.48445">
        <ele>771.6</ele>
        <time>2023-08-19T18:18:47Z</time>
      </trkpt>
      <trkpt lat="39.33997" lon="-2.48415">
        <ele>771.7</ele>
        <time>2023-08-19T18:18:50Z</time>
      </trkpt>
      <trkpt lat="39.33981" lon="-2.48375">
        <ele>770.7</ele>
        <time>2023-08-19T18:18:54Z</time>
      </trkpt>
      <trkpt lat="39.33968" lon="-2.48344">
        <ele>771.2</ele>
        <time>2023-08-19T18:18:57Z</time>
      </trkpt>
      <trkpt lat="39.33952" lon="-2.48305">
        <ele>771.4</ele>
        <time>2023-08-19T18:19:01Z</time>
      </trkpt>
      <trkpt lat="39.33935" lon="-2.48266">
        <ele>771.4</ele>
        <time>2023-08-19T18:19:05Z</time>
      </trkpt>
      <trkpt lat="39.33922" lon="-2.48236">
        <ele>772</ele>
        <time>2023-08-19T18:19:08Z</time>
      </trkpt>
      <trkpt lat="39.33906" lon="-2.48197">
        <ele>771.6</ele>
        <time>2023-08-19T18:19:12Z</time>
      </trkpt>
      <trkpt lat="39.33892" lon="-2.48158">
        <ele>771.5</ele>
        <time>2023-08-19T18:19:16Z</time>
      </trkpt>
      <trkpt lat="39.33878" lon="-2.4812">
        <ele>772</ele>
        <time>2023-08-19T18:19:20Z</time>
      </trkpt>
      <trkpt lat="39.33865" lon="-2.4809">
        <ele>772</ele>
        <time>2023-08-19T18:19:23Z</time>
      </trkpt>
      <trkpt lat="39.3385" lon="-2.48051">
        <ele>772.3</ele>
        <time>2023-08-19T18:19:27Z</time>
      </trkpt>
      <trkpt lat="39.33839" lon="-2.48022">
        <ele>772.6</ele>
        <time>2023-08-19T18:19:30Z</time>
      </trkpt>
      <trkpt lat="39.33824" lon="-2.47982">
        <ele>772.8</ele>
        <time>2023-08-19T18:19:34Z</time>
      </trkpt>
      <trkpt lat="39.33811" lon="-2.47952">
        <ele>773.4</ele>
        <time>2023-08-19T18:19:37Z</time>
      </trkpt>
      <trkpt lat="39.33794" lon="-2.47916">
        <ele>772.9</ele>
        <time>2023-08-19T18:19:41Z</time>
      </trkpt>
      <trkpt lat="39.3378" lon="-2.47887">
        <ele>773.5</ele>
        <time>2023-08-19T18:19:44Z</time>
      </trkpt>
      <trkpt lat="39.33764" lon="-2.47849">
        <ele>773.8</ele>
        <time>2023-08-19T18:19:48Z</time>
      </trkpt>
      <trkpt lat="39.3375" lon="-2.47812">
        <ele>773</ele>
        <time>2023-08-19T18:19:52Z</time>
      </trkpt>
      <trkpt lat="39.33735" lon="-2.47777">
        <ele>773</ele>
        <time>2023-08-19T18:19:56Z</time>
      </trkpt>
      <trkpt lat="39.33723" lon="-2.47751">
        <ele>773.5</ele>
        <time>2023-08-19T18:19:59Z</time>
      </trkpt>
      <trkpt lat="39.33711" lon="-2.47724">
        <ele>773.8</ele>
        <time>2023-08-19T18:20:02Z</time>
      </trkpt>
      <trkpt lat="39.33696" lon="-2.47687">
        <ele>774.4</ele>
        <time>2023-08-19T18:20:06Z</time>
      </trkpt>
      <trkpt lat="39.33681" lon="-2.4765">
        <ele>773.9</ele>
        <time>2023-08-19T18:20:10Z</time>
      </trkpt>
      <trkpt lat="39.33666" lon="-2.47612">
        <ele>774.2</ele>
        <time>2023-08-19T18:20:14Z</time>
      </trkpt>
      <trkpt lat="39.33651" lon="-2.47573">
        <ele>774.3</ele>
        <time>2023-08-19T18:20:18Z</time>
      </trkpt>
      <trkpt lat="39.33633" lon="-2.47532">
        <ele>773.8</ele>
        <time>2023-08-19T18:20:22Z</time>
      </trkpt>
      <trkpt lat="39.33621" lon="-2.47503">
        <ele>774.9</ele>
        <time>2023-08-19T18:20:25Z</time>
      </trkpt>
      <trkpt lat="39.3361" lon="-2.47474">
        <ele>774</ele>
        <time>2023-08-19T18:20:28Z</time>
      </trkpt>
      <trkpt lat="39.33599" lon="-2.47447">
        <ele>774.1</ele>
        <time>2023-08-19T18:20:31Z</time>
      </trkpt>
      <trkpt lat="39.33585" lon="-2.47411">
        <ele>774.6</ele>
        <time>2023-08-19T18:20:35Z</time>
      </trkpt>
      <trkpt lat="39.33571" lon="-2.47378">
        <ele>773.5</ele>
        <time>2023-08-19T18:20:39Z</time>
      </trkpt>
      <trkpt lat="39.33558" lon="-2.47345">
        <ele>773.7</ele>
        <time>2023-08-19T18:20:43Z</time>
      </trkpt>
      <trkpt lat="39.33549" lon="-2.47317">
        <ele>772.3</ele>
        <time>2023-08-19T18:20:47Z</time>
      </trkpt>
      <trkpt lat="39.33542" lon="-2.47296">
        <ele>772.1</ele>
        <time>2023-08-19T18:20:51Z</time>
      </trkpt>
      <trkpt lat="39.33546" lon="-2.47294">
        <ele>772.2</ele>
        <time>2023-08-19T18:20:55Z</time>
      </trkpt>
      <trkpt lat="39.33551" lon="-2.47294">
        <ele>772.2</ele>
        <time>2023-08-19T18:21:34Z</time>
      </trkpt>
      <trkpt lat="39.33557" lon="-2.47288">
        <ele>772.1</ele>
        <time>2023-08-19T18:21:37Z</time>
      </trkpt>
      <trkpt lat="39.33568" lon="-2.47288">
        <ele>772.1</ele>
        <time>2023-08-19T18:21:41Z</time>
      </trkpt>
      <trkpt lat="39.33583" lon="-2.47293">
        <ele>771.5</ele>
        <time>2023-08-19T18:21:45Z</time>
      </trkpt>
      <trkpt lat="39.33591" lon="-2.47298">
        <ele>771.2</ele>
        <time>2023-08-19T18:21:48Z</time>
      </trkpt>
      <trkpt lat="39.33605" lon="-2.47311">
        <ele>770.8</ele>
        <time>2023-08-19T18:21:52Z</time>
      </trkpt>
      <trkpt lat="39.33616" lon="-2.47326">
        <ele>771.9</ele>
        <time>2023-08-19T18:21:56Z</time>
      </trkpt>
      <trkpt lat="39.33627" lon="-2.47341">
        <ele>771.4</ele>
        <time>2023-08-19T18:22:00Z</time>
      </trkpt>
      <trkpt lat="39.33642" lon="-2.47361">
        <ele>771.9</ele>
        <time>2023-08-19T18:22:04Z</time>
      </trkpt>
      <trkpt lat="39.33653" lon="-2.47372">
        <ele>771.7</ele>
        <time>2023-08-19T18:22:08Z</time>
      </trkpt>
      <trkpt lat="39.33662" lon="-2.47376">
        <ele>771.8</ele>
        <time>2023-08-19T18:22:12Z</time>
      </trkpt>
      <trkpt lat="39.3367" lon="-2.47378">
        <ele>770.4</ele>
        <time>2023-08-19T18:22:16Z</time>
      </trkpt>
      <trkpt lat="39.33676" lon="-2.47381">
        <ele>769.5</ele>
        <time>2023-08-19T18:22:20Z</time>
      </trkpt>
      <trkpt lat="39.33679" lon="-2.47379">
        <ele>768.1</ele>
        <time>2023-08-19T18:23:45Z</time>
      </trkpt>
      <trkpt lat="39.3368" lon="-2.47378">
        <ele>770.3</ele>
        <time>2023-08-19T18:23:57Z</time>
      </trkpt>
      <trkpt lat="39.33681" lon="-2.47379">
        <ele>771</ele>
        <time>2023-08-19T18:24:00Z</time>
      </trkpt>
      <trkpt lat="39.33679" lon="-2.4738">
        <ele>771.3</ele>
        <time>2023-08-19T18:24:04Z</time>
      </trkpt>
      <trkpt lat="39.3368" lon="-2.4736">
        <ele>768.7</ele>
        <time>2023-08-19T18:25:48Z</time>
      </trkpt>
      <trkpt lat="39.33682" lon="-2.47363">
        <ele>769.9</ele>
        <time>2023-08-19T18:25:52Z</time>
      </trkpt>
      <trkpt lat="39.33681" lon="-2.47357">
        <ele>770.9</ele>
        <time>2023-08-19T18:31:09Z</time>
      </trkpt>
      <trkpt lat="39.33682" lon="-2.47359">
        <ele>769.3</ele>
        <time>2023-08-19T18:31:12Z</time>
      </trkpt>
      <trkpt lat="39.33681" lon="-2.47361">
        <ele>767.3</ele>
        <time>2023-08-19T18:31:15Z</time>
      </trkpt>
      <trkpt lat="39.33677" lon="-2.47364">
        <ele>768.4</ele>
        <time>2023-08-19T18:34:50Z</time>
      </trkpt>
      <trkpt lat="39.33676" lon="-2.4736">
        <ele>769.5</ele>
        <time>2023-08-19T18:34:54Z</time>
      </trkpt>
      <trkpt lat="39.33676" lon="-2.47356">
        <ele>768.2</ele>
        <time>2023-08-19T18:36:16Z</time>
      </trkpt>
      <trkpt lat="39.33677" lon="-2.47359">
        <ele>767.9</ele>
        <time>2023-08-19T18:36:20Z</time>
      </trkpt>
      <trkpt lat="39.33686" lon="-2.47377">
        <ele>768.7</ele>
        <time>2023-08-19T18:39:03Z</time>
      </trkpt>
      <trkpt lat="39.33683" lon="-2.47379">
        <ele>768.6</ele>
        <time>2023-08-19T18:39:06Z</time>
      </trkpt>
      <trkpt lat="39.33681" lon="-2.47376">
        <ele>767.8</ele>
        <time>2023-08-19T18:39:10Z</time>
      </trkpt>
      <trkpt lat="39.3368" lon="-2.47372">
        <ele>768.3</ele>
        <time>2023-08-19T18:39:13Z</time>
      </trkpt>
      <trkpt lat="39.33677" lon="-2.4737">
        <ele>768.4</ele>
        <time>2023-08-19T18:39:16Z</time>
      </trkpt>
      <trkpt lat="39.33675" lon="-2.47355">
        <ele>768.7</ele>
        <time>2023-08-19T18:40:24Z</time>
      </trkpt>
      <trkpt lat="39.3368" lon="-2.47354">
        <ele>769.1</ele>
        <time>2023-08-19T18:40:31Z</time>
      </trkpt>
      <trkpt lat="39.33682" lon="-2.47359">
        <ele>768</ele>
        <time>2023-08-19T18:40:35Z</time>
      </trkpt>
      <trkpt lat="39.3369" lon="-2.47376">
        <ele>768</ele>
        <time>2023-08-19T18:41:21Z</time>
      </trkpt>
      <trkpt lat="39.33693" lon="-2.47389">
        <ele>767.8</ele>
        <time>2023-08-19T18:41:24Z</time>
      </trkpt>
      <trkpt lat="39.33694" lon="-2.47404">
        <ele>767.9</ele>
        <time>2023-08-19T18:41:27Z</time>
      </trkpt>
      <trkpt lat="39.33694" lon="-2.47418">
        <ele>770.2</ele>
        <time>2023-08-19T18:41:30Z</time>
      </trkpt>
      <trkpt lat="39.33695" lon="-2.47434">
        <ele>767.9</ele>
        <time>2023-08-19T18:41:33Z</time>
      </trkpt>
      <trkpt lat="39.33699" lon="-2.47447">
        <ele>768.4</ele>
        <time>2023-08-19T18:41:37Z</time>
      </trkpt>
      <trkpt lat="39.33706" lon="-2.47452">
        <ele>768.5</ele>
        <time>2023-08-19T18:41:40Z</time>
      </trkpt>
      <trkpt lat="39.33721" lon="-2.47447">
        <ele>768.2</ele>
        <time>2023-08-19T18:41:43Z</time>
      </trkpt>
      <trkpt lat="39.33733" lon="-2.4744">
        <ele>767.6</ele>
        <time>2023-08-19T18:41:47Z</time>
      </trkpt>
      <trkpt lat="39.33743" lon="-2.47434">
        <ele>769.2</ele>
        <time>2023-08-19T18:41:50Z</time>
      </trkpt>
      <trkpt lat="39.33756" lon="-2.47424">
        <ele>767.7</ele>
        <time>2023-08-19T18:41:54Z</time>
      </trkpt>
      <trkpt lat="39.33764" lon="-2.47418">
        <ele>768</ele>
        <time>2023-08-19T18:41:57Z</time>
      </trkpt>
      <trkpt lat="39.33769" lon="-2.47414">
        <ele>768.1</ele>
        <time>2023-08-19T18:42:01Z</time>
      </trkpt>
      <trkpt lat="39.33771" lon="-2.47411">
        <ele>767.8</ele>
        <time>2023-08-19T18:42:11Z</time>
      </trkpt>
      <trkpt lat="39.33772" lon="-2.47405">
        <ele>767.3</ele>
        <time>2023-08-19T18:42:14Z</time>
      </trkpt>
      <trkpt lat="39.33776" lon="-2.47389">
        <ele>768.2</ele>
        <time>2023-08-19T18:42:18Z</time>
      </trkpt>
      <trkpt lat="39.33777" lon="-2.47363">
        <ele>768.1</ele>
        <time>2023-08-19T18:42:22Z</time>
      </trkpt>
      <trkpt lat="39.33775" lon="-2.4734">
        <ele>767.6</ele>
        <time>2023-08-19T18:42:26Z</time>
      </trkpt>
      <trkpt lat="39.33772" lon="-2.47315">
        <ele>768.1</ele>
        <time>2023-08-19T18:42:30Z</time>
      </trkpt>
      <trkpt lat="39.33771" lon="-2.47298">
        <ele>767.1</ele>
        <time>2023-08-19T18:42:33Z</time>
      </trkpt>
      <trkpt lat="39.33774" lon="-2.47275">
        <ele>767.8</ele>
        <time>2023-08-19T18:42:37Z</time>
      </trkpt>
      <trkpt lat="39.3378" lon="-2.47251">
        <ele>766.7</ele>
        <time>2023-08-19T18:42:41Z</time>
      </trkpt>
      <trkpt lat="39.33785" lon="-2.47236">
        <ele>766.4</ele>
        <time>2023-08-19T18:42:45Z</time>
      </trkpt>
      <trkpt lat="39.33786" lon="-2.47221">
        <ele>767.1</ele>
        <time>2023-08-19T18:42:49Z</time>
      </trkpt>
      <trkpt lat="39.33783" lon="-2.47208">
        <ele>767.2</ele>
        <time>2023-08-19T18:42:52Z</time>
      </trkpt>
      <trkpt lat="39.33781" lon="-2.47187">
        <ele>767</ele>
        <time>2023-08-19T18:42:56Z</time>
      </trkpt>
      <trkpt lat="39.33781" lon="-2.47173">
        <ele>767.5</ele>
        <time>2023-08-19T18:42:59Z</time>
      </trkpt>
      <trkpt lat="39.33778" lon="-2.47154">
        <ele>767.3</ele>
        <time>2023-08-19T18:43:03Z</time>
      </trkpt>
      <trkpt lat="39.33774" lon="-2.47136">
        <ele>767.4</ele>
        <time>2023-08-19T18:43:07Z</time>
      </trkpt>
      <trkpt lat="39.33771" lon="-2.47122">
        <ele>768.1</ele>
        <time>2023-08-19T18:43:10Z</time>
      </trkpt>
      <trkpt lat="39.3377" lon="-2.47106">
        <ele>767.2</ele>
        <time>2023-08-19T18:43:14Z</time>
      </trkpt>
      <trkpt lat="39.33772" lon="-2.47093">
        <ele>768.3</ele>
        <time>2023-08-19T18:43:17Z</time>
      </trkpt>
      <trkpt lat="39.33779" lon="-2.47075">
        <ele>768.5</ele>
        <time>2023-08-19T18:43:21Z</time>
      </trkpt>
      <trkpt lat="39.33788" lon="-2.47066">
        <ele>768.3</ele>
        <time>2023-08-19T18:43:25Z</time>
      </trkpt>
      <trkpt lat="39.33797" lon="-2.47057">
        <ele>768.6</ele>
        <time>2023-08-19T18:43:29Z</time>
      </trkpt>
      <trkpt lat="39.33805" lon="-2.47041">
        <ele>768.1</ele>
        <time>2023-08-19T18:43:33Z</time>
      </trkpt>
      <trkpt lat="39.3381" lon="-2.47026">
        <ele>768</ele>
        <time>2023-08-19T18:43:36Z</time>
      </trkpt>
      <trkpt lat="39.33812" lon="-2.47004">
        <ele>768.6</ele>
        <time>2023-08-19T18:43:40Z</time>
      </trkpt>
      <trkpt lat="39.33811" lon="-2.46988">
        <ele>768.6</ele>
        <time>2023-08-19T18:43:43Z</time>
      </trkpt>
      <trkpt lat="39.33809" lon="-2.4697">
        <ele>768.3</ele>
        <time>2023-08-19T18:43:47Z</time>
      </trkpt>
      <trkpt lat="39.33805" lon="-2.46951">
        <ele>768.3</ele>
        <time>2023-08-19T18:43:51Z</time>
      </trkpt>
      <trkpt lat="39.33802" lon="-2.46937">
        <ele>768.4</ele>
        <time>2023-08-19T18:43:54Z</time>
      </trkpt>
      <trkpt lat="39.33802" lon="-2.46925">
        <ele>768.1</ele>
        <time>2023-08-19T18:43:57Z</time>
      </trkpt>
      <trkpt lat="39.33807" lon="-2.46915">
        <ele>768.4</ele>
        <time>2023-08-19T18:44:00Z</time>
      </trkpt>
      <trkpt lat="39.33814" lon="-2.46902">
        <ele>768.6</ele>
        <time>2023-08-19T18:44:04Z</time>
      </trkpt>
      <trkpt lat="39.33821" lon="-2.46892">
        <ele>768.3</ele>
        <time>2023-08-19T18:44:07Z</time>
      </trkpt>
      <trkpt lat="39.33829" lon="-2.46876">
        <ele>769.5</ele>
        <time>2023-08-19T18:44:11Z</time>
      </trkpt>
      <trkpt lat="39.33833" lon="-2.46864">
        <ele>768.7</ele>
        <time>2023-08-19T18:44:14Z</time>
      </trkpt>
      <trkpt lat="39.33839" lon="-2.46854">
        <ele>769.8</ele>
        <time>2023-08-19T18:44:17Z</time>
      </trkpt>
      <trkpt lat="39.33851" lon="-2.46846">
        <ele>768.7</ele>
        <time>2023-08-19T18:44:21Z</time>
      </trkpt>
      <trkpt lat="39.33864" lon="-2.46835">
        <ele>770.4</ele>
        <time>2023-08-19T18:44:25Z</time>
      </trkpt>
      <trkpt lat="39.33875" lon="-2.46819">
        <ele>769.3</ele>
        <time>2023-08-19T18:44:29Z</time>
      </trkpt>
      <trkpt lat="39.33883" lon="-2.46808">
        <ele>769.1</ele>
        <time>2023-08-19T18:44:32Z</time>
      </trkpt>
      <trkpt lat="39.33892" lon="-2.46792">
        <ele>770</ele>
        <time>2023-08-19T18:44:36Z</time>
      </trkpt>
      <trkpt lat="39.33896" lon="-2.46783">
        <ele>769.4</ele>
        <time>2023-08-19T18:44:39Z</time>
      </trkpt>
      <trkpt lat="39.33903" lon="-2.46778">
        <ele>769.5</ele>
        <time>2023-08-19T18:44:58Z</time>
      </trkpt>
      <trkpt lat="39.33913" lon="-2.46774">
        <ele>769.8</ele>
        <time>2023-08-19T18:45:01Z</time>
      </trkpt>
      <trkpt lat="39.33918" lon="-2.46764">
        <ele>769.9</ele>
        <time>2023-08-19T18:45:04Z</time>
      </trkpt>
      <trkpt lat="39.33923" lon="-2.46747">
        <ele>770</ele>
        <time>2023-08-19T18:45:08Z</time>
      </trkpt>
      <trkpt lat="39.3393" lon="-2.46724">
        <ele>769.9</ele>
        <time>2023-08-19T18:45:12Z</time>
      </trkpt>
      <trkpt lat="39.33941" lon="-2.46707">
        <ele>769.8</ele>
        <time>2023-08-19T18:45:16Z</time>
      </trkpt>
      <trkpt lat="39.33953" lon="-2.46695">
        <ele>770.2</ele>
        <time>2023-08-19T18:45:20Z</time>
      </trkpt>
      <trkpt lat="39.33962" lon="-2.46683">
        <ele>770.1</ele>
        <time>2023-08-19T18:45:23Z</time>
      </trkpt>
      <trkpt lat="39.33972" lon="-2.46667">
        <ele>771.2</ele>
        <time>2023-08-19T18:45:27Z</time>
      </trkpt>
      <trkpt lat="39.33977" lon="-2.46653">
        <ele>770.7</ele>
        <time>2023-08-19T18:45:30Z</time>
      </trkpt>
      <trkpt lat="39.33983" lon="-2.4664">
        <ele>770.6</ele>
        <time>2023-08-19T18:45:33Z</time>
      </trkpt>
      <trkpt lat="39.33989" lon="-2.46624">
        <ele>770.2</ele>
        <time>2023-08-19T18:45:37Z</time>
      </trkpt>
      <trkpt lat="39.34" lon="-2.46606">
        <ele>770.2</ele>
        <time>2023-08-19T18:45:41Z</time>
      </trkpt>
      <trkpt lat="39.34005" lon="-2.46591">
        <ele>770.6</ele>
        <time>2023-08-19T18:45:44Z</time>
      </trkpt>
      <trkpt lat="39.34007" lon="-2.46575">
        <ele>770.5</ele>
        <time>2023-08-19T18:45:47Z</time>
      </trkpt>
      <trkpt lat="39.3401" lon="-2.46562">
        <ele>770.9</ele>
        <time>2023-08-19T18:45:51Z</time>
      </trkpt>
      <trkpt lat="39.34011" lon="-2.46557">
        <ele>771</ele>
        <time>2023-08-19T18:45:54Z</time>
      </trkpt>
      <trkpt lat="39.34008" lon="-2.46554">
        <ele>771.8</ele>
        <time>2023-08-19T18:45:57Z</time>
      </trkpt>
      <trkpt lat="39.33991" lon="-2.46551">
        <ele>770.6</ele>
        <time>2023-08-19T18:46:01Z</time>
      </trkpt>
      <trkpt lat="39.33976" lon="-2.46556">
        <ele>770.7</ele>
        <time>2023-08-19T18:46:05Z</time>
      </trkpt>
      <trkpt lat="39.33965" lon="-2.46558">
        <ele>770.4</ele>
        <time>2023-08-19T18:46:08Z</time>
      </trkpt>
      <trkpt lat="39.33952" lon="-2.46562">
        <ele>770.2</ele>
        <time>2023-08-19T18:46:12Z</time>
      </trkpt>
      <trkpt lat="39.33935" lon="-2.46573">
        <ele>769.9</ele>
        <time>2023-08-19T18:46:16Z</time>
      </trkpt>
      <trkpt lat="39.3392" lon="-2.46578">
        <ele>770.3</ele>
        <time>2023-08-19T18:46:20Z</time>
      </trkpt>
      <trkpt lat="39.33905" lon="-2.46582">
        <ele>770.6</ele>
        <time>2023-08-19T18:46:24Z</time>
      </trkpt>
      <trkpt lat="39.33893" lon="-2.46586">
        <ele>769.7</ele>
        <time>2023-08-19T18:46:27Z</time>
      </trkpt>
      <trkpt lat="39.33879" lon="-2.46591">
        <ele>769.3</ele>
        <time>2023-08-19T18:46:30Z</time>
      </trkpt>
      <trkpt lat="39.33863" lon="-2.46595">
        <ele>770.6</ele>
        <time>2023-08-19T18:46:34Z</time>
      </trkpt>
      <trkpt lat="39.33844" lon="-2.46597">
        <ele>771.1</ele>
        <time>2023-08-19T18:46:38Z</time>
      </trkpt>
      <trkpt lat="39.33826" lon="-2.46602">
        <ele>769.9</ele>
        <time>2023-08-19T18:46:42Z</time>
      </trkpt>
      <trkpt lat="39.33812" lon="-2.46608">
        <ele>769.5</ele>
        <time>2023-08-19T18:46:45Z</time>
      </trkpt>
      <trkpt lat="39.33786" lon="-2.46616">
        <ele>769.8</ele>
        <time>2023-08-19T18:46:49Z</time>
      </trkpt>
      <trkpt lat="39.33765" lon="-2.46624">
        <ele>769.1</ele>
        <time>2023-08-19T18:46:53Z</time>
      </trkpt>
      <trkpt lat="39.33744" lon="-2.46632">
        <ele>768.4</ele>
        <time>2023-08-19T18:46:57Z</time>
      </trkpt>
      <trkpt lat="39.33732" lon="-2.46636">
        <ele>768.2</ele>
        <time>2023-08-19T18:47:00Z</time>
      </trkpt>
      <trkpt lat="39.33719" lon="-2.46641">
        <ele>767.7</ele>
        <time>2023-08-19T18:47:04Z</time>
      </trkpt>
      <trkpt lat="39.33705" lon="-2.46645">
        <ele>768.6</ele>
        <time>2023-08-19T18:47:07Z</time>
      </trkpt>
      <trkpt lat="39.33687" lon="-2.46647">
        <ele>767.7</ele>
        <time>2023-08-19T18:47:10Z</time>
      </trkpt>
      <trkpt lat="39.33666" lon="-2.46649">
        <ele>768.5</ele>
        <time>2023-08-19T18:47:14Z</time>
      </trkpt>
      <trkpt lat="39.33645" lon="-2.46649">
        <ele>768.6</ele>
        <time>2023-08-19T18:47:18Z</time>
      </trkpt>
      <trkpt lat="39.33627" lon="-2.46653">
        <ele>769.1</ele>
        <time>2023-08-19T18:47:22Z</time>
      </trkpt>
      <trkpt lat="39.33612" lon="-2.46657">
        <ele>769.2</ele>
        <time>2023-08-19T18:47:25Z</time>
      </trkpt>
      <trkpt lat="39.33591" lon="-2.46658">
        <ele>769.3</ele>
        <time>2023-08-19T18:47:29Z</time>
      </trkpt>
      <trkpt lat="39.33572" lon="-2.46657">
        <ele>769.4</ele>
        <time>2023-08-19T18:47:33Z</time>
      </trkpt>
      <trkpt lat="39.33554" lon="-2.46655">
        <ele>769.1</ele>
        <time>2023-08-19T18:47:37Z</time>
      </trkpt>
      <trkpt lat="39.33538" lon="-2.46653">
        <ele>769.1</ele>
        <time>2023-08-19T18:47:40Z</time>
      </trkpt>
      <trkpt lat="39.33523" lon="-2.46651">
        <ele>768.1</ele>
        <time>2023-08-19T18:47:43Z</time>
      </trkpt>
      <trkpt lat="39.33502" lon="-2.46645">
        <ele>768.6</ele>
        <time>2023-08-19T18:47:47Z</time>
      </trkpt>
      <trkpt lat="39.33482" lon="-2.46636">
        <ele>768.6</ele>
        <time>2023-08-19T18:47:51Z</time>
      </trkpt>
      <trkpt lat="39.33467" lon="-2.46628">
        <ele>768.9</ele>
        <time>2023-08-19T18:47:54Z</time>
      </trkpt>
      <trkpt lat="39.33448" lon="-2.46619">
        <ele>767.9</ele>
        <time>2023-08-19T18:47:58Z</time>
      </trkpt>
      <trkpt lat="39.33433" lon="-2.46613">
        <ele>768.2</ele>
        <time>2023-08-19T18:48:01Z</time>
      </trkpt>
      <trkpt lat="39.33412" lon="-2.46609">
        <ele>767.8</ele>
        <time>2023-08-19T18:48:05Z</time>
      </trkpt>
      <trkpt lat="39.33395" lon="-2.46607">
        <ele>767.7</ele>
        <time>2023-08-19T18:48:08Z</time>
      </trkpt>
      <trkpt lat="39.33372" lon="-2.46604">
        <ele>768</ele>
        <time>2023-08-19T18:48:12Z</time>
      </trkpt>
      <trkpt lat="39.33356" lon="-2.46604">
        <ele>768</ele>
        <time>2023-08-19T18:48:15Z</time>
      </trkpt>
      <trkpt lat="39.33336" lon="-2.46604">
        <ele>767.7</ele>
        <time>2023-08-19T18:48:19Z</time>
      </trkpt>
      <trkpt lat="39.33316" lon="-2.46604">
        <ele>767.8</ele>
        <time>2023-08-19T18:48:23Z</time>
      </trkpt>
      <trkpt lat="39.33297" lon="-2.46605">
        <ele>767.6</ele>
        <time>2023-08-19T18:48:27Z</time>
      </trkpt>
      <trkpt lat="39.33283" lon="-2.46607">
        <ele>767.5</ele>
        <time>2023-08-19T18:48:30Z</time>
      </trkpt>
      <trkpt lat="39.33273" lon="-2.46606">
        <ele>768</ele>
        <time>2023-08-19T18:48:33Z</time>
      </trkpt>
      <trkpt lat="39.33262" lon="-2.46599">
        <ele>768.3</ele>
        <time>2023-08-19T18:48:37Z</time>
      </trkpt>
      <trkpt lat="39.33257" lon="-2.46592">
        <ele>767.8</ele>
        <time>2023-08-19T18:48:40Z</time>
      </trkpt>
      <trkpt lat="39.33261" lon="-2.46588">
        <ele>770.8</ele>
        <time>2023-08-19T18:49:27Z</time>
      </trkpt>
      <trkpt lat="39.33261" lon="-2.46595">
        <ele>768.6</ele>
        <time>2023-08-19T18:49:31Z</time>
      </trkpt>
      <trkpt lat="39.3326" lon="-2.46598">
        <ele>768.8</ele>
        <time>2023-08-19T18:49:35Z</time>
      </trkpt>
      <trkpt lat="39.33257" lon="-2.46602">
        <ele>769.1</ele>
        <time>2023-08-19T18:49:39Z</time>
      </trkpt>
      <trkpt lat="39.33256" lon="-2.46606">
        <ele>768.7</ele>
        <time>2023-08-19T18:49:42Z</time>
      </trkpt>
      <trkpt lat="39.33254" lon="-2.46609">
        <ele>769</ele>
        <time>2023-08-19T18:49:45Z</time>
      </trkpt>
      <trkpt lat="39.33252" lon="-2.46613">
        <ele>769</ele>
        <time>2023-08-19T18:49:49Z</time>
      </trkpt>
      <trkpt lat="39.33249" lon="-2.46616">
        <ele>768.2</ele>
        <time>2023-08-19T18:49:52Z</time>
      </trkpt>
      <trkpt lat="39.33253" lon="-2.46605">
        <ele>768.3</ele>
        <time>2023-08-19T18:50:20Z</time>
      </trkpt>
      <trkpt lat="39.33255" lon="-2.46602">
        <ele>768.3</ele>
        <time>2023-08-19T18:50:23Z</time>
      </trkpt>
      <trkpt lat="39.33257" lon="-2.466">
        <ele>768.2</ele>
        <time>2023-08-19T18:50:26Z</time>
      </trkpt>
      <trkpt lat="39.33259" lon="-2.46597">
        <ele>768</ele>
        <time>2023-08-19T18:50:30Z</time>
      </trkpt>
      <trkpt lat="39.3326" lon="-2.46593">
        <ele>768.5</ele>
        <time>2023-08-19T18:50:33Z</time>
      </trkpt>
      <trkpt lat="39.33261" lon="-2.46589">
        <ele>768.4</ele>
        <time>2023-08-19T18:50:37Z</time>
      </trkpt>
      <trkpt lat="39.33262" lon="-2.46587">
        <ele>768.9</ele>
        <time>2023-08-19T18:50:40Z</time>
      </trkpt>
      <trkpt lat="39.33264" lon="-2.46588">
        <ele>769.5</ele>
        <time>2023-08-19T18:57:19Z</time>
      </trkpt>
      <trkpt lat="39.33263" lon="-2.4659">
        <ele>768.2</ele>
        <time>2023-08-19T18:57:23Z</time>
      </trkpt>
      <trkpt lat="39.33261" lon="-2.46592">
        <ele>768</ele>
        <time>2023-08-19T18:57:27Z</time>
      </trkpt>
      <trkpt lat="39.33261" lon="-2.46593">
        <ele>769.5</ele>
        <time>2023-08-19T18:57:30Z</time>
      </trkpt>
      <trkpt lat="39.33261" lon="-2.46593">
        <ele>768.1</ele>
        <time>2023-08-19T18:57:58Z</time>
      </trkpt>
      <trkpt lat="39.33262" lon="-2.46591">
        <ele>768</ele>
        <time>2023-08-19T18:58:03Z</time>
      </trkpt>
      <trkpt lat="39.33254" lon="-2.46596">
        <ele>767.4</ele>
        <time>2023-08-19T18:58:33Z</time>
      </trkpt>
      <trkpt lat="39.3325" lon="-2.46606">
        <ele>767.3</ele>
        <time>2023-08-19T18:58:37Z</time>
      </trkpt>
      <trkpt lat="39.33245" lon="-2.46616">
        <ele>767.2</ele>
        <time>2023-08-19T18:58:41Z</time>
      </trkpt>
      <trkpt lat="39.33239" lon="-2.46623">
        <ele>767.3</ele>
        <time>2023-08-19T18:58:44Z</time>
      </trkpt>
      <trkpt lat="39.33234" lon="-2.46629">
        <ele>766.7</ele>
        <time>2023-08-19T18:58:47Z</time>
      </trkpt>
      <trkpt lat="39.33228" lon="-2.46636">
        <ele>766.8</ele>
        <time>2023-08-19T18:58:50Z</time>
      </trkpt>
      <trkpt lat="39.33221" lon="-2.46646">
        <ele>766.4</ele>
        <time>2023-08-19T18:58:54Z</time>
      </trkpt>
      <trkpt lat="39.33215" lon="-2.46652">
        <ele>767</ele>
        <time>2023-08-19T18:58:57Z</time>
      </trkpt>
      <trkpt lat="39.33208" lon="-2.46658">
        <ele>767.1</ele>
        <time>2023-08-19T18:59:01Z</time>
      </trkpt>
      <trkpt lat="39.33202" lon="-2.46664">
        <ele>767</ele>
        <time>2023-08-19T18:59:04Z</time>
      </trkpt>
      <trkpt lat="39.33195" lon="-2.46673">
        <ele>766.5</ele>
        <time>2023-08-19T18:59:08Z</time>
      </trkpt>
      <trkpt lat="39.33189" lon="-2.46683">
        <ele>766.7</ele>
        <time>2023-08-19T18:59:12Z</time>
      </trkpt>
      <trkpt lat="39.33184" lon="-2.4669">
        <ele>766.5</ele>
        <time>2023-08-19T18:59:15Z</time>
      </trkpt>
      <trkpt lat="39.33178" lon="-2.46695">
        <ele>766.5</ele>
        <time>2023-08-19T18:59:18Z</time>
      </trkpt>
      <trkpt lat="39.33172" lon="-2.46701">
        <ele>766.6</ele>
        <time>2023-08-19T18:59:21Z</time>
      </trkpt>
      <trkpt lat="39.33166" lon="-2.46707">
        <ele>766.3</ele>
        <time>2023-08-19T18:59:24Z</time>
      </trkpt>
      <trkpt lat="39.33159" lon="-2.46716">
        <ele>766.1</ele>
        <time>2023-08-19T18:59:28Z</time>
      </trkpt>
      <trkpt lat="39.33152" lon="-2.46724">
        <ele>766</ele>
        <time>2023-08-19T18:59:32Z</time>
      </trkpt>
      <trkpt lat="39.33146" lon="-2.46732">
        <ele>766</ele>
        <time>2023-08-19T18:59:36Z</time>
      </trkpt>
      <trkpt lat="39.33142" lon="-2.46738">
        <ele>766.3</ele>
        <time>2023-08-19T18:59:39Z</time>
      </trkpt>
      <trkpt lat="39.33136" lon="-2.46744">
        <ele>765.7</ele>
        <time>2023-08-19T18:59:43Z</time>
      </trkpt>
      <trkpt lat="39.3313" lon="-2.46751">
        <ele>765.8</ele>
        <time>2023-08-19T18:59:47Z</time>
      </trkpt>
      <trkpt lat="39.33125" lon="-2.46757">
        <ele>766.2</ele>
        <time>2023-08-19T18:59:51Z</time>
      </trkpt>
      <trkpt lat="39.33121" lon="-2.46762">
        <ele>765.9</ele>
        <time>2023-08-19T18:59:54Z</time>
      </trkpt>
      <trkpt lat="39.33121" lon="-2.46762">
        <ele>765.8</ele>
        <time>2023-08-19T19:00:13Z</time>
      </trkpt>
      <trkpt lat="39.33118" lon="-2.46766">
        <ele>765.7</ele>
        <time>2023-08-19T19:00:16Z</time>
      </trkpt>
      <trkpt lat="39.33115" lon="-2.4677">
        <ele>765.7</ele>
        <time>2023-08-19T19:00:19Z</time>
      </trkpt>
      <trkpt lat="39.33111" lon="-2.46773">
        <ele>765.4</ele>
        <time>2023-08-19T19:00:23Z</time>
      </trkpt>
      <trkpt lat="39.33109" lon="-2.46775">
        <ele>765.3</ele>
        <time>2023-08-19T19:00:26Z</time>
      </trkpt>
      <trkpt lat="39.33107" lon="-2.46777">
        <ele>765.6</ele>
        <time>2023-08-19T19:00:29Z</time>
      </trkpt>
      <trkpt lat="39.33104" lon="-2.46781">
        <ele>765.6</ele>
        <time>2023-08-19T19:00:33Z</time>
      </trkpt>
      <trkpt lat="39.33103" lon="-2.46784">
        <ele>765.5</ele>
        <time>2023-08-19T19:00:36Z</time>
      </trkpt>
      <trkpt lat="39.331" lon="-2.46786">
        <ele>765.6</ele>
        <time>2023-08-19T19:00:40Z</time>
      </trkpt>
      <trkpt lat="39.33098" lon="-2.46789">
        <ele>765.8</ele>
        <time>2023-08-19T19:00:43Z</time>
      </trkpt>
      <trkpt lat="39.33096" lon="-2.46792">
        <ele>765.3</ele>
        <time>2023-08-19T19:00:46Z</time>
      </trkpt>
      <trkpt lat="39.33093" lon="-2.46796">
        <ele>765.3</ele>
        <time>2023-08-19T19:00:50Z</time>
      </trkpt>
      <trkpt lat="39.3309" lon="-2.468">
        <ele>765.6</ele>
        <time>2023-08-19T19:00:54Z</time>
      </trkpt>
      <trkpt lat="39.33088" lon="-2.46803">
        <ele>765.3</ele>
        <time>2023-08-19T19:00:57Z</time>
      </trkpt>
      <trkpt lat="39.33085" lon="-2.46806">
        <ele>781.7</ele>
        <time>2023-08-19T19:01:40Z</time>
      </trkpt>
      <trkpt lat="39.33084" lon="-2.46808">
        <ele>767.5</ele>
        <time>2023-08-19T19:01:43Z</time>
      </trkpt>
      <trkpt lat="39.3308" lon="-2.46812">
        <ele>765.5</ele>
        <time>2023-08-19T19:01:47Z</time>
      </trkpt>
      <trkpt lat="39.33076" lon="-2.46815">
        <ele>765.3</ele>
        <time>2023-08-19T19:01:51Z</time>
      </trkpt>
      <trkpt lat="39.33072" lon="-2.4682">
        <ele>765.4</ele>
        <time>2023-08-19T19:01:54Z</time>
      </trkpt>
      <trkpt lat="39.33069" lon="-2.46824">
        <ele>765.2</ele>
        <time>2023-08-19T19:01:57Z</time>
      </trkpt>
      <trkpt lat="39.33063" lon="-2.46831">
        <ele>765.2</ele>
        <time>2023-08-19T19:02:01Z</time>
      </trkpt>
      <trkpt lat="39.3306" lon="-2.46836">
        <ele>765.2</ele>
        <time>2023-08-19T19:02:05Z</time>
      </trkpt>
      <trkpt lat="39.33056" lon="-2.4684">
        <ele>764.8</ele>
        <time>2023-08-19T19:02:08Z</time>
      </trkpt>
      <trkpt lat="39.33052" lon="-2.46844">
        <ele>764.7</ele>
        <time>2023-08-19T19:02:12Z</time>
      </trkpt>
      <trkpt lat="39.33051" lon="-2.46846">
        <ele>765</ele>
        <time>2023-08-19T19:02:15Z</time>
      </trkpt>
      <trkpt lat="39.33049" lon="-2.46848">
        <ele>764.7</ele>
        <time>2023-08-19T19:02:19Z</time>
      </trkpt>
      <trkpt lat="39.33047" lon="-2.46851">
        <ele>764.7</ele>
        <time>2023-08-19T19:02:22Z</time>
      </trkpt>
      <trkpt lat="39.33044" lon="-2.46854">
        <ele>764.5</ele>
        <time>2023-08-19T19:02:26Z</time>
      </trkpt>
      <trkpt lat="39.33042" lon="-2.46857">
        <ele>764.7</ele>
        <time>2023-08-19T19:02:30Z</time>
      </trkpt>
      <trkpt lat="39.33039" lon="-2.46862">
        <ele>764.6</ele>
        <time>2023-08-19T19:03:09Z</time>
      </trkpt>
      <trkpt lat="39.33034" lon="-2.46867">
        <ele>764.5</ele>
        <time>2023-08-19T19:03:12Z</time>
      </trkpt>
      <trkpt lat="39.3303" lon="-2.46873">
        <ele>764.2</ele>
        <time>2023-08-19T19:03:16Z</time>
      </trkpt>
      <trkpt lat="39.33027" lon="-2.46876">
        <ele>764.3</ele>
        <time>2023-08-19T19:03:20Z</time>
      </trkpt>
      <trkpt lat="39.33025" lon="-2.46879">
        <ele>764.2</ele>
        <time>2023-08-19T19:03:23Z</time>
      </trkpt>
      <trkpt lat="39.33025" lon="-2.4688">
        <ele>764.2</ele>
        <time>2023-08-19T19:03:27Z</time>
      </trkpt>
      <trkpt lat="39.33021" lon="-2.46884">
        <ele>764.4</ele>
        <time>2023-08-19T19:03:30Z</time>
      </trkpt>
      <trkpt lat="39.33018" lon="-2.46888">
        <ele>764.4</ele>
        <time>2023-08-19T19:03:34Z</time>
      </trkpt>
      <trkpt lat="39.33016" lon="-2.4689">
        <ele>764.4</ele>
        <time>2023-08-19T19:03:37Z</time>
      </trkpt>
      <trkpt lat="39.33013" lon="-2.46893">
        <ele>764.3</ele>
        <time>2023-08-19T19:03:41Z</time>
      </trkpt>
      <trkpt lat="39.33011" lon="-2.46895">
        <ele>764.1</ele>
        <time>2023-08-19T19:03:45Z</time>
      </trkpt>
      <trkpt lat="39.33009" lon="-2.46897">
        <ele>764.5</ele>
        <time>2023-08-19T19:03:48Z</time>
      </trkpt>
      <trkpt lat="39.33006" lon="-2.46901">
        <ele>764.2</ele>
        <time>2023-08-19T19:03:52Z</time>
      </trkpt>
      <trkpt lat="39.33004" lon="-2.46903">
        <ele>764.3</ele>
        <time>2023-08-19T19:03:55Z</time>
      </trkpt>
      <trkpt lat="39.33002" lon="-2.46905">
        <ele>764.5</ele>
        <time>2023-08-19T19:03:58Z</time>
      </trkpt>
      <trkpt lat="39.33" lon="-2.46908">
        <ele>764.5</ele>
        <time>2023-08-19T19:04:02Z</time>
      </trkpt>
      <trkpt lat="39.32997" lon="-2.46911">
        <ele>764</ele>
        <time>2023-08-19T19:04:05Z</time>
      </trkpt>
      <trkpt lat="39.32995" lon="-2.46913">
        <ele>764.1</ele>
        <time>2023-08-19T19:04:08Z</time>
      </trkpt>
      <trkpt lat="39.32993" lon="-2.46916">
        <ele>764.4</ele>
        <time>2023-08-19T19:04:12Z</time>
      </trkpt>
      <trkpt lat="39.32968" lon="-2.46948">
        <ele>767.4</ele>
        <time>2023-08-19T19:07:46Z</time>
      </trkpt>
      <trkpt lat="39.32965" lon="-2.46955">
        <ele>765.1</ele>
        <time>2023-08-19T19:07:49Z</time>
      </trkpt>
      <trkpt lat="39.32963" lon="-2.46961">
        <ele>764.8</ele>
        <time>2023-08-19T19:07:54Z</time>
      </trkpt>
      <trkpt lat="39.32964" lon="-2.46959">
        <ele>765.2</ele>
        <time>2023-08-19T19:07:58Z</time>
      </trkpt>
      <trkpt lat="39.32969" lon="-2.46955">
        <ele>765</ele>
        <time>2023-08-19T19:08:01Z</time>
      </trkpt>
      <trkpt lat="39.32969" lon="-2.46954">
        <ele>762</ele>
        <time>2023-08-19T19:08:04Z</time>
      </trkpt>
      <trkpt lat="39.32961" lon="-2.47011">
        <ele>764.5</ele>
        <time>2023-08-19T19:14:24Z</time>
      </trkpt>
      <trkpt lat="39.32959" lon="-2.47013">
        <ele>767.7</ele>
        <time>2023-08-19T19:14:32Z</time>
      </trkpt>
      <trkpt lat="39.32961" lon="-2.46993">
        <ele>764.6</ele>
        <time>2023-08-19T19:16:33Z</time>
      </trkpt>
      <trkpt lat="39.32961" lon="-2.46991">
        <ele>764.6</ele>
        <time>2023-08-19T19:16:36Z</time>
      </trkpt>
      <trkpt lat="39.3296" lon="-2.46991">
        <ele>764.7</ele>
        <time>2023-08-19T19:16:52Z</time>
      </trkpt>
      <trkpt lat="39.32955" lon="-2.46994">
        <ele>764.5</ele>
        <time>2023-08-19T19:18:13Z</time>
      </trkpt>
      <trkpt lat="39.32954" lon="-2.46996">
        <ele>764.7</ele>
        <time>2023-08-19T19:18:17Z</time>
      </trkpt>
      <trkpt lat="39.32955" lon="-2.46994">
        <ele>763.8</ele>
        <time>2023-08-19T19:18:32Z</time>
      </trkpt>
      <trkpt lat="39.32956" lon="-2.46988">
        <ele>765.1</ele>
        <time>2023-08-19T19:21:53Z</time>
      </trkpt>
      <trkpt lat="39.32957" lon="-2.46987">
        <ele>761.6</ele>
        <time>2023-08-19T19:21:56Z</time>
      </trkpt>
      <trkpt lat="39.32955" lon="-2.46987">
        <ele>762.4</ele>
        <time>2023-08-19T19:21:59Z</time>
      </trkpt>
      <trkpt lat="39.32953" lon="-2.46983">
        <ele>761.9</ele>
        <time>2023-08-19T19:22:04Z</time>
      </trkpt>
      <trkpt lat="39.32952" lon="-2.46979">
        <ele>762.3</ele>
        <time>2023-08-19T19:22:08Z</time>
      </trkpt>
      <trkpt lat="39.32951" lon="-2.46974">
        <ele>762.9</ele>
        <time>2023-08-19T19:22:11Z</time>
      </trkpt>
      <trkpt lat="39.32951" lon="-2.46971">
        <ele>761.9</ele>
        <time>2023-08-19T19:22:14Z</time>
      </trkpt>
      <trkpt lat="39.32953" lon="-2.46967">
        <ele>763.8</ele>
        <time>2023-08-19T19:25:01Z</time>
      </trkpt>
      <trkpt lat="39.32948" lon="-2.46967">
        <ele>766.1</ele>
        <time>2023-08-19T19:25:41Z</time>
      </trkpt>
      <trkpt lat="39.32944" lon="-2.46967">
        <ele>764.8</ele>
        <time>2023-08-19T19:25:44Z</time>
      </trkpt>
      <trkpt lat="39.32942" lon="-2.46968">
        <ele>764.5</ele>
        <time>2023-08-19T19:25:49Z</time>
      </trkpt>
      <trkpt lat="39.32937" lon="-2.46967">
        <ele>764.7</ele>
        <time>2023-08-19T19:26:01Z</time>
      </trkpt>
      <trkpt lat="39.32933" lon="-2.46966">
        <ele>764.9</ele>
        <time>2023-08-19T19:26:04Z</time>
      </trkpt>
      <trkpt lat="39.32928" lon="-2.46968">
        <ele>764.8</ele>
        <time>2023-08-19T19:26:07Z</time>
      </trkpt>
      <trkpt lat="39.32923" lon="-2.4697">
        <ele>764</ele>
        <time>2023-08-19T19:26:11Z</time>
      </trkpt>
      <trkpt lat="39.32918" lon="-2.4697">
        <ele>764</ele>
        <time>2023-08-19T19:26:14Z</time>
      </trkpt>
      <trkpt lat="39.32915" lon="-2.46969">
        <ele>763.8</ele>
        <time>2023-08-19T19:26:17Z</time>
      </trkpt>
      <trkpt lat="39.32913" lon="-2.46967">
        <ele>764.7</ele>
        <time>2023-08-19T19:26:21Z</time>
      </trkpt>
      <trkpt lat="39.32912" lon="-2.46964">
        <ele>762.9</ele>
        <time>2023-08-19T19:26:24Z</time>
      </trkpt>
      <trkpt lat="39.32909" lon="-2.46962">
        <ele>761.3</ele>
        <time>2023-08-19T19:26:27Z</time>
      </trkpt>
      <trkpt lat="39.32904" lon="-2.46963">
        <ele>763.8</ele>
        <time>2023-08-19T19:26:31Z</time>
      </trkpt>
      <trkpt lat="39.32901" lon="-2.46967">
        <ele>764.1</ele>
        <time>2023-08-19T19:26:34Z</time>
      </trkpt>
      <trkpt lat="39.32899" lon="-2.46971">
        <ele>765.3</ele>
        <time>2023-08-19T19:26:37Z</time>
      </trkpt>
      <trkpt lat="39.32898" lon="-2.46976">
        <ele>764.6</ele>
        <time>2023-08-19T19:26:41Z</time>
      </trkpt>
      <trkpt lat="39.32897" lon="-2.46981">
        <ele>763.7</ele>
        <time>2023-08-19T19:26:44Z</time>
      </trkpt>
      <trkpt lat="39.32896" lon="-2.46985">
        <ele>764.5</ele>
        <time>2023-08-19T19:26:47Z</time>
      </trkpt>
      <trkpt lat="39.32896" lon="-2.46991">
        <ele>763.5</ele>
        <time>2023-08-19T19:26:50Z</time>
      </trkpt>
      <trkpt lat="39.32896" lon="-2.46997">
        <ele>763.9</ele>
        <time>2023-08-19T19:26:53Z</time>
      </trkpt>
      <trkpt lat="39.32896" lon="-2.47001">
        <ele>763.4</ele>
        <time>2023-08-19T19:26:57Z</time>
      </trkpt>
      <trkpt lat="39.32896" lon="-2.47007">
        <ele>764.3</ele>
        <time>2023-08-19T19:27:00Z</time>
      </trkpt>
      <trkpt lat="39.32898" lon="-2.47012">
        <ele>764.8</ele>
        <time>2023-08-19T19:27:03Z</time>
      </trkpt>
      <trkpt lat="39.32898" lon="-2.47016">
        <ele>763.3</ele>
        <time>2023-08-19T19:27:06Z</time>
      </trkpt>
      <trkpt lat="39.32898" lon="-2.47021">
        <ele>764.2</ele>
        <time>2023-08-19T19:27:10Z</time>
      </trkpt>
      <trkpt lat="39.32898" lon="-2.47026">
        <ele>762.9</ele>
        <time>2023-08-19T19:27:13Z</time>
      </trkpt>
      <trkpt lat="39.32898" lon="-2.47031">
        <ele>764.5</ele>
        <time>2023-08-19T19:27:17Z</time>
      </trkpt>
      <trkpt lat="39.32898" lon="-2.47036">
        <ele>763.3</ele>
        <time>2023-08-19T19:27:21Z</time>
      </trkpt>
      <trkpt lat="39.32897" lon="-2.47041">
        <ele>762.4</ele>
        <time>2023-08-19T19:27:24Z</time>
      </trkpt>
      <trkpt lat="39.32895" lon="-2.47046">
        <ele>763.5</ele>
        <time>2023-08-19T19:27:28Z</time>
      </trkpt>
      <trkpt lat="39.32891" lon="-2.47047">
        <ele>764.3</ele>
        <time>2023-08-19T19:27:31Z</time>
      </trkpt>
      <trkpt lat="39.32888" lon="-2.47047">
        <ele>764.5</ele>
        <time>2023-08-19T19:27:34Z</time>
      </trkpt>
      <trkpt lat="39.32883" lon="-2.47046">
        <ele>763.6</ele>
        <time>2023-08-19T19:27:38Z</time>
      </trkpt>
      <trkpt lat="39.32878" lon="-2.47046">
        <ele>760.4</ele>
        <time>2023-08-19T19:27:41Z</time>
      </trkpt>
      <trkpt lat="39.32874" lon="-2.47048">
        <ele>763.7</ele>
        <time>2023-08-19T19:27:44Z</time>
      </trkpt>
      <trkpt lat="39.32871" lon="-2.47052">
        <ele>762.9</ele>
        <time>2023-08-19T19:27:48Z</time>
      </trkpt>
      <trkpt lat="39.32869" lon="-2.47056">
        <ele>763.7</ele>
        <time>2023-08-19T19:27:51Z</time>
      </trkpt>
      <trkpt lat="39.32866" lon="-2.4706">
        <ele>762.4</ele>
        <time>2023-08-19T19:27:54Z</time>
      </trkpt>
      <trkpt lat="39.32867" lon="-2.47064">
        <ele>764.6</ele>
        <time>2023-08-19T19:27:58Z</time>
      </trkpt>
      <trkpt lat="39.32867" lon="-2.47069">
        <ele>764.8</ele>
        <time>2023-08-19T19:28:01Z</time>
      </trkpt>
      <trkpt lat="39.32869" lon="-2.47069">
        <ele>763.6</ele>
        <time>2023-08-19T19:28:04Z</time>
      </trkpt>
      <trkpt lat="39.3287" lon="-2.47068">
        <ele>763.3</ele>
        <time>2023-08-19T19:28:08Z</time>
      </trkpt>
      <trkpt lat="39.3287" lon="-2.47067">
        <ele>762.9</ele>
        <time>2023-08-19T19:28:12Z</time>
      </trkpt>
      <trkpt lat="39.32871" lon="-2.47068">
        <ele>765</ele>
        <time>2023-08-19T19:50:30Z</time>
      </trkpt>
      <trkpt lat="39.32871" lon="-2.47062">
        <ele>766.9</ele>
        <time>2023-08-19T19:50:33Z</time>
      </trkpt>
      <trkpt lat="39.32875" lon="-2.47054">
        <ele>766.4</ele>
        <time>2023-08-19T19:50:37Z</time>
      </trkpt>
      <trkpt lat="39.32878" lon="-2.4705">
        <ele>764.7</ele>
        <time>2023-08-19T19:50:40Z</time>
      </trkpt>
      <trkpt lat="39.32882" lon="-2.47047">
        <ele>762.4</ele>
        <time>2023-08-19T19:50:43Z</time>
      </trkpt>
      <trkpt lat="39.32886" lon="-2.47046">
        <ele>763.2</ele>
        <time>2023-08-19T19:50:47Z</time>
      </trkpt>
      <trkpt lat="39.32891" lon="-2.47046">
        <ele>766.2</ele>
        <time>2023-08-19T19:50:50Z</time>
      </trkpt>
      <trkpt lat="39.32894" lon="-2.47045">
        <ele>766.5</ele>
        <time>2023-08-19T19:50:53Z</time>
      </trkpt>
      <trkpt lat="39.32897" lon="-2.47041">
        <ele>765.8</ele>
        <time>2023-08-19T19:50:57Z</time>
      </trkpt>
      <trkpt lat="39.32898" lon="-2.47035">
        <ele>764.9</ele>
        <time>2023-08-19T19:51:00Z</time>
      </trkpt>
      <trkpt lat="39.32897" lon="-2.4703">
        <ele>764.9</ele>
        <time>2023-08-19T19:51:04Z</time>
      </trkpt>
      <trkpt lat="39.32896" lon="-2.47025">
        <ele>766.3</ele>
        <time>2023-08-19T19:51:08Z</time>
      </trkpt>
      <trkpt lat="39.32895" lon="-2.4702">
        <ele>765.9</ele>
        <time>2023-08-19T19:51:11Z</time>
      </trkpt>
      <trkpt lat="39.32895" lon="-2.47016">
        <ele>765.1</ele>
        <time>2023-08-19T19:51:14Z</time>
      </trkpt>
      <trkpt lat="39.32896" lon="-2.47012">
        <ele>765.7</ele>
        <time>2023-08-19T19:51:18Z</time>
      </trkpt>
      <trkpt lat="39.32897" lon="-2.4701">
        <ele>763.3</ele>
        <time>2023-08-19T19:51:22Z</time>
      </trkpt>
      <trkpt lat="39.32896" lon="-2.4701">
        <ele>765.3</ele>
        <time>2023-08-19T19:51:25Z</time>
      </trkpt>
      <trkpt lat="39.32896" lon="-2.47011">
        <ele>763.7</ele>
        <time>2023-08-19T19:51:28Z</time>
      </trkpt>
      <trkpt lat="39.32898" lon="-2.47002">
        <ele>763.5</ele>
        <time>2023-08-19T19:52:02Z</time>
      </trkpt>
      <trkpt lat="39.32899" lon="-2.46997">
        <ele>766.6</ele>
        <time>2023-08-19T19:52:05Z</time>
      </trkpt>
      <trkpt lat="39.32902" lon="-2.46993">
        <ele>767.6</ele>
        <time>2023-08-19T19:52:09Z</time>
      </trkpt>
      <trkpt lat="39.32905" lon="-2.46991">
        <ele>767.5</ele>
        <time>2023-08-19T19:52:12Z</time>
      </trkpt>
      <trkpt lat="39.32908" lon="-2.4699">
        <ele>767.2</ele>
        <time>2023-08-19T19:52:16Z</time>
      </trkpt>
      <trkpt lat="39.3291" lon="-2.46991">
        <ele>765.1</ele>
        <time>2023-08-19T19:52:19Z</time>
      </trkpt>
      <trkpt lat="39.32911" lon="-2.46991">
        <ele>766.8</ele>
        <time>2023-08-19T19:52:23Z</time>
      </trkpt>
      <trkpt lat="39.32905" lon="-2.46991">
        <ele>763.1</ele>
        <time>2023-08-19T19:57:58Z</time>
      </trkpt>
      <trkpt lat="39.32901" lon="-2.46995">
        <ele>763.6</ele>
        <time>2023-08-19T19:58:01Z</time>
      </trkpt>
      <trkpt lat="39.32898" lon="-2.46998">
        <ele>763.2</ele>
        <time>2023-08-19T19:58:05Z</time>
      </trkpt>
      <trkpt lat="39.32896" lon="-2.47002">
        <ele>762.7</ele>
        <time>2023-08-19T19:58:08Z</time>
      </trkpt>
      <trkpt lat="39.32895" lon="-2.47006">
        <ele>763</ele>
        <time>2023-08-19T19:58:12Z</time>
      </trkpt>
      <trkpt lat="39.32894" lon="-2.47009">
        <ele>763.5</ele>
        <time>2023-08-19T19:58:15Z</time>
      </trkpt>
      <trkpt lat="39.32893" lon="-2.47012">
        <ele>763.2</ele>
        <time>2023-08-19T19:58:18Z</time>
      </trkpt>
      <trkpt lat="39.32893" lon="-2.47017">
        <ele>762.4</ele>
        <time>2023-08-19T19:58:22Z</time>
      </trkpt>
      <trkpt lat="39.32894" lon="-2.47021">
        <ele>763.6</ele>
        <time>2023-08-19T19:58:25Z</time>
      </trkpt>
      <trkpt lat="39.32895" lon="-2.47023">
        <ele>763.1</ele>
        <time>2023-08-19T19:58:28Z</time>
      </trkpt>
      <trkpt lat="39.32896" lon="-2.47033">
        <ele>763.3</ele>
        <time>2023-08-19T19:59:37Z</time>
      </trkpt>
      <trkpt lat="39.32897" lon="-2.47038">
        <ele>763.6</ele>
        <time>2023-08-19T19:59:41Z</time>
      </trkpt>
      <trkpt lat="39.32897" lon="-2.47042">
        <ele>763.7</ele>
        <time>2023-08-19T19:59:44Z</time>
      </trkpt>
      <trkpt lat="39.32896" lon="-2.47045">
        <ele>762.8</ele>
        <time>2023-08-19T19:59:48Z</time>
      </trkpt>
      <trkpt lat="39.32893" lon="-2.47048">
        <ele>763.1</ele>
        <time>2023-08-19T19:59:51Z</time>
      </trkpt>
      <trkpt lat="39.32886" lon="-2.47047">
        <ele>762.4</ele>
        <time>2023-08-19T20:00:04Z</time>
      </trkpt>
      <trkpt lat="39.32883" lon="-2.47048">
        <ele>763</ele>
        <time>2023-08-19T20:00:07Z</time>
      </trkpt>
      <trkpt lat="39.32881" lon="-2.47047">
        <ele>762.2</ele>
        <time>2023-08-19T20:00:11Z</time>
      </trkpt>
      <trkpt lat="39.32878" lon="-2.47048">
        <ele>762.6</ele>
        <time>2023-08-19T20:00:18Z</time>
      </trkpt>
      <trkpt lat="39.32874" lon="-2.47048">
        <ele>762.7</ele>
        <time>2023-08-19T20:00:22Z</time>
      </trkpt>
      <trkpt lat="39.32871" lon="-2.47049">
        <ele>761.4</ele>
        <time>2023-08-19T20:00:25Z</time>
      </trkpt>
      <trkpt lat="39.32869" lon="-2.47052">
        <ele>762.2</ele>
        <time>2023-08-19T20:00:29Z</time>
      </trkpt>
      <trkpt lat="39.32868" lon="-2.47055">
        <ele>764.5</ele>
        <time>2023-08-19T20:00:32Z</time>
      </trkpt>
      <trkpt lat="39.32868" lon="-2.47059">
        <ele>762.9</ele>
        <time>2023-08-19T20:00:35Z</time>
      </trkpt>
      <trkpt lat="39.32868" lon="-2.47063">
        <ele>762.7</ele>
        <time>2023-08-19T20:00:39Z</time>
      </trkpt>
      <trkpt lat="39.32869" lon="-2.47066">
        <ele>762.3</ele>
        <time>2023-08-19T20:00:42Z</time>
      </trkpt>
      <trkpt lat="39.3287" lon="-2.47067">
        <ele>762.4</ele>
        <time>2023-08-19T20:00:45Z</time>
      </trkpt>
      <trkpt lat="39.32867" lon="-2.47066">
        <ele>761.2</ele>
        <time>2023-08-19T20:02:46Z</time>
      </trkpt>
      <trkpt lat="39.32867" lon="-2.47061">
        <ele>761.2</ele>
        <time>2023-08-19T20:02:50Z</time>
      </trkpt>
      <trkpt lat="39.32868" lon="-2.47057">
        <ele>762.2</ele>
        <time>2023-08-19T20:02:53Z</time>
      </trkpt>
      <trkpt lat="39.32868" lon="-2.47056">
        <ele>762</ele>
        <time>2023-08-19T20:02:56Z</time>
      </trkpt>
      <trkpt lat="39.32869" lon="-2.47055">
        <ele>762.2</ele>
        <time>2023-08-19T20:03:05Z</time>
      </trkpt>
      <trkpt lat="39.32878" lon="-2.47052">
        <ele>762.2</ele>
        <time>2023-08-19T20:03:08Z</time>
      </trkpt>
      <trkpt lat="39.32889" lon="-2.47051">
        <ele>762.9</ele>
        <time>2023-08-19T20:03:12Z</time>
      </trkpt>
      <trkpt lat="39.32897" lon="-2.47059">
        <ele>762</ele>
        <time>2023-08-19T20:03:15Z</time>
      </trkpt>
      <trkpt lat="39.32901" lon="-2.47068">
        <ele>761.6</ele>
        <time>2023-08-19T20:03:18Z</time>
      </trkpt>
      <trkpt lat="39.32906" lon="-2.4708">
        <ele>762.4</ele>
        <time>2023-08-19T20:03:22Z</time>
      </trkpt>
      <trkpt lat="39.32914" lon="-2.47091">
        <ele>763.4</ele>
        <time>2023-08-19T20:03:26Z</time>
      </trkpt>
      <trkpt lat="39.3292" lon="-2.47101">
        <ele>762.3</ele>
        <time>2023-08-19T20:03:29Z</time>
      </trkpt>
      <trkpt lat="39.32929" lon="-2.47112">
        <ele>762.9</ele>
        <time>2023-08-19T20:03:33Z</time>
      </trkpt>
      <trkpt lat="39.32939" lon="-2.47122">
        <ele>762.5</ele>
        <time>2023-08-19T20:03:37Z</time>
      </trkpt>
      <trkpt lat="39.32948" lon="-2.47132">
        <ele>763.2</ele>
        <time>2023-08-19T20:03:41Z</time>
      </trkpt>
      <trkpt lat="39.32955" lon="-2.4714">
        <ele>762.4</ele>
        <time>2023-08-19T20:03:44Z</time>
      </trkpt>
      <trkpt lat="39.32962" lon="-2.47149">
        <ele>761.9</ele>
        <time>2023-08-19T20:03:47Z</time>
      </trkpt>
      <trkpt lat="39.32972" lon="-2.47162">
        <ele>762.7</ele>
        <time>2023-08-19T20:03:51Z</time>
      </trkpt>
      <trkpt lat="39.3298" lon="-2.47171">
        <ele>763.4</ele>
        <time>2023-08-19T20:03:54Z</time>
      </trkpt>
      <trkpt lat="39.32987" lon="-2.47179">
        <ele>763.4</ele>
        <time>2023-08-19T20:03:57Z</time>
      </trkpt>
      <trkpt lat="39.32996" lon="-2.47191">
        <ele>763.8</ele>
        <time>2023-08-19T20:04:01Z</time>
      </trkpt>
      <trkpt lat="39.33005" lon="-2.472">
        <ele>764</ele>
        <time>2023-08-19T20:04:05Z</time>
      </trkpt>
      <trkpt lat="39.33012" lon="-2.47207">
        <ele>764</ele>
        <time>2023-08-19T20:04:09Z</time>
      </trkpt>
      <trkpt lat="39.3302" lon="-2.47214">
        <ele>763.6</ele>
        <time>2023-08-19T20:04:13Z</time>
      </trkpt>
      <trkpt lat="39.33025" lon="-2.47223">
        <ele>762.7</ele>
        <time>2023-08-19T20:04:17Z</time>
      </trkpt>
      <trkpt lat="39.3303" lon="-2.47229">
        <ele>763.4</ele>
        <time>2023-08-19T20:04:20Z</time>
      </trkpt>
      <trkpt lat="39.33038" lon="-2.47238">
        <ele>763.7</ele>
        <time>2023-08-19T20:04:24Z</time>
      </trkpt>
      <trkpt lat="39.33043" lon="-2.47244">
        <ele>763.5</ele>
        <time>2023-08-19T20:04:27Z</time>
      </trkpt>
      <trkpt lat="39.33047" lon="-2.47249">
        <ele>763.4</ele>
        <time>2023-08-19T20:04:30Z</time>
      </trkpt>
      <trkpt lat="39.33056" lon="-2.47258">
        <ele>763.5</ele>
        <time>2023-08-19T20:04:34Z</time>
      </trkpt>
      <trkpt lat="39.33065" lon="-2.47268">
        <ele>764.1</ele>
        <time>2023-08-19T20:04:38Z</time>
      </trkpt>
      <trkpt lat="39.33071" lon="-2.47275">
        <ele>763.6</ele>
        <time>2023-08-19T20:04:41Z</time>
      </trkpt>
      <trkpt lat="39.33077" lon="-2.47282">
        <ele>763.1</ele>
        <time>2023-08-19T20:04:44Z</time>
      </trkpt>
      <trkpt lat="39.33085" lon="-2.47294">
        <ele>763.9</ele>
        <time>2023-08-19T20:04:48Z</time>
      </trkpt>
      <trkpt lat="39.33094" lon="-2.47304">
        <ele>764.9</ele>
        <time>2023-08-19T20:04:52Z</time>
      </trkpt>
      <trkpt lat="39.33102" lon="-2.47315">
        <ele>764.3</ele>
        <time>2023-08-19T20:04:56Z</time>
      </trkpt>
      <trkpt lat="39.3311" lon="-2.47323">
        <ele>764.7</ele>
        <time>2023-08-19T20:04:59Z</time>
      </trkpt>
      <trkpt lat="39.33117" lon="-2.4733">
        <ele>765.1</ele>
        <time>2023-08-19T20:05:02Z</time>
      </trkpt>
      <trkpt lat="39.33129" lon="-2.47335">
        <ele>765.8</ele>
        <time>2023-08-19T20:05:06Z</time>
      </trkpt>
      <trkpt lat="39.33139" lon="-2.47336">
        <ele>765.4</ele>
        <time>2023-08-19T20:05:10Z</time>
      </trkpt>
      <trkpt lat="39.33146" lon="-2.47336">
        <ele>764.8</ele>
        <time>2023-08-19T20:05:13Z</time>
      </trkpt>
      <trkpt lat="39.33157" lon="-2.47335">
        <ele>766</ele>
        <time>2023-08-19T20:05:17Z</time>
      </trkpt>
      <trkpt lat="39.33166" lon="-2.47334">
        <ele>766.5</ele>
        <time>2023-08-19T20:05:20Z</time>
      </trkpt>
      <trkpt lat="39.3318" lon="-2.47334">
        <ele>765.9</ele>
        <time>2023-08-19T20:05:24Z</time>
      </trkpt>
      <trkpt lat="39.33192" lon="-2.47334">
        <ele>766.3</ele>
        <time>2023-08-19T20:05:28Z</time>
      </trkpt>
      <trkpt lat="39.33202" lon="-2.47333">
        <ele>766.3</ele>
        <time>2023-08-19T20:05:31Z</time>
      </trkpt>
      <trkpt lat="39.33213" lon="-2.47331">
        <ele>766.7</ele>
        <time>2023-08-19T20:05:35Z</time>
      </trkpt>
      <trkpt lat="39.33221" lon="-2.4733">
        <ele>766</ele>
        <time>2023-08-19T20:05:38Z</time>
      </trkpt>
      <trkpt lat="39.33233" lon="-2.47329">
        <ele>765.6</ele>
        <time>2023-08-19T20:05:42Z</time>
      </trkpt>
      <trkpt lat="39.33248" lon="-2.47328">
        <ele>765.7</ele>
        <time>2023-08-19T20:05:46Z</time>
      </trkpt>
      <trkpt lat="39.33262" lon="-2.47328">
        <ele>765.6</ele>
        <time>2023-08-19T20:05:50Z</time>
      </trkpt>
      <trkpt lat="39.33274" lon="-2.4733">
        <ele>765.3</ele>
        <time>2023-08-19T20:05:54Z</time>
      </trkpt>
      <trkpt lat="39.33285" lon="-2.4733">
        <ele>766.1</ele>
        <time>2023-08-19T20:05:58Z</time>
      </trkpt>
      <trkpt lat="39.33296" lon="-2.4733">
        <ele>766.2</ele>
        <time>2023-08-19T20:06:02Z</time>
      </trkpt>
      <trkpt lat="39.33307" lon="-2.47329">
        <ele>766.1</ele>
        <time>2023-08-19T20:06:06Z</time>
      </trkpt>
      <trkpt lat="39.33317" lon="-2.47329">
        <ele>765.6</ele>
        <time>2023-08-19T20:06:10Z</time>
      </trkpt>
      <trkpt lat="39.33327" lon="-2.4733">
        <ele>766.1</ele>
        <time>2023-08-19T20:06:14Z</time>
      </trkpt>
      <trkpt lat="39.33334" lon="-2.47331">
        <ele>767</ele>
        <time>2023-08-19T20:06:18Z</time>
      </trkpt>
      <trkpt lat="39.33336" lon="-2.4733">
        <ele>766.3</ele>
        <time>2023-08-19T20:06:22Z</time>
      </trkpt>
      <trkpt lat="39.33336" lon="-2.47331">
        <ele>767.7</ele>
        <time>2023-08-19T20:06:45Z</time>
      </trkpt>
      <trkpt lat="39.33346" lon="-2.47331">
        <ele>768</ele>
        <time>2023-08-19T20:06:49Z</time>
      </trkpt>
      <trkpt lat="39.33356" lon="-2.47331">
        <ele>766.9</ele>
        <time>2023-08-19T20:06:52Z</time>
      </trkpt>
      <trkpt lat="39.33369" lon="-2.4733">
        <ele>767.2</ele>
        <time>2023-08-19T20:06:56Z</time>
      </trkpt>
      <trkpt lat="39.3338" lon="-2.47331">
        <ele>767.5</ele>
        <time>2023-08-19T20:07:00Z</time>
      </trkpt>
      <trkpt lat="39.33392" lon="-2.4733">
        <ele>766.7</ele>
        <time>2023-08-19T20:07:04Z</time>
      </trkpt>
      <trkpt lat="39.33405" lon="-2.47331">
        <ele>766.3</ele>
        <time>2023-08-19T20:07:08Z</time>
      </trkpt>
      <trkpt lat="39.33417" lon="-2.4733">
        <ele>766.4</ele>
        <time>2023-08-19T20:07:12Z</time>
      </trkpt>
      <trkpt lat="39.33428" lon="-2.47329">
        <ele>767.7</ele>
        <time>2023-08-19T20:07:16Z</time>
      </trkpt>
      <trkpt lat="39.33436" lon="-2.47329">
        <ele>767.5</ele>
        <time>2023-08-19T20:07:19Z</time>
      </trkpt>
      <trkpt lat="39.33445" lon="-2.47328">
        <ele>767.2</ele>
        <time>2023-08-19T20:07:22Z</time>
      </trkpt>
      <trkpt lat="39.33453" lon="-2.47326">
        <ele>766.9</ele>
        <time>2023-08-19T20:07:25Z</time>
      </trkpt>
      <trkpt lat="39.3346" lon="-2.47324">
        <ele>766.8</ele>
        <time>2023-08-19T20:07:28Z</time>
      </trkpt>
      <trkpt lat="39.33471" lon="-2.47321">
        <ele>766.6</ele>
        <time>2023-08-19T20:07:32Z</time>
      </trkpt>
      <trkpt lat="39.33479" lon="-2.47319">
        <ele>766.3</ele>
        <time>2023-08-19T20:07:35Z</time>
      </trkpt>
      <trkpt lat="39.3349" lon="-2.47316">
        <ele>766.1</ele>
        <time>2023-08-19T20:07:39Z</time>
      </trkpt>
      <trkpt lat="39.33498" lon="-2.47314">
        <ele>766.5</ele>
        <time>2023-08-19T20:07:42Z</time>
      </trkpt>
      <trkpt lat="39.33505" lon="-2.47314">
        <ele>766.3</ele>
        <time>2023-08-19T20:07:45Z</time>
      </trkpt>
      <trkpt lat="39.33515" lon="-2.47312">
        <ele>765.8</ele>
        <time>2023-08-19T20:07:49Z</time>
      </trkpt>
      <trkpt lat="39.33522" lon="-2.4731">
        <ele>767.8</ele>
        <time>2023-08-19T20:07:52Z</time>
      </trkpt>
      <trkpt lat="39.33527" lon="-2.4731">
        <ele>766.9</ele>
        <time>2023-08-19T20:07:55Z</time>
      </trkpt>
      <trkpt lat="39.3353" lon="-2.4731">
        <ele>767</ele>
        <time>2023-08-19T20:07:58Z</time>
      </trkpt>
      <trkpt lat="39.33527" lon="-2.47312">
        <ele>766.7</ele>
        <time>2023-08-19T20:08:02Z</time>
      </trkpt>
      <trkpt lat="39.3353" lon="-2.4731">
        <ele>767.2</ele>
        <time>2023-08-19T20:08:31Z</time>
      </trkpt>
      <trkpt lat="39.33536" lon="-2.47305">
        <ele>767.7</ele>
        <time>2023-08-19T20:08:35Z</time>
      </trkpt>
      <trkpt lat="39.33545" lon="-2.47298">
        <ele>767.6</ele>
        <time>2023-08-19T20:08:39Z</time>
      </trkpt>
      <trkpt lat="39.33552" lon="-2.47295">
        <ele>766.3</ele>
        <time>2023-08-19T20:08:43Z</time>
      </trkpt>
      <trkpt lat="39.33551" lon="-2.47295">
        <ele>766.7</ele>
        <time>2023-08-19T20:08:53Z</time>
      </trkpt>
      <trkpt lat="39.33556" lon="-2.47292">
        <ele>766.2</ele>
        <time>2023-08-19T20:08:57Z</time>
      </trkpt>
      <trkpt lat="39.33563" lon="-2.4729">
        <ele>765.9</ele>
        <time>2023-08-19T20:09:00Z</time>
      </trkpt>
      <trkpt lat="39.33573" lon="-2.47292">
        <ele>766.4</ele>
        <time>2023-08-19T20:09:04Z</time>
      </trkpt>
      <trkpt lat="39.33582" lon="-2.47298">
        <ele>765.6</ele>
        <time>2023-08-19T20:09:07Z</time>
      </trkpt>
      <trkpt lat="39.3359" lon="-2.47304">
        <ele>765.8</ele>
        <time>2023-08-19T20:09:11Z</time>
      </trkpt>
      <trkpt lat="39.33594" lon="-2.4731">
        <ele>765.5</ele>
        <time>2023-08-19T20:09:14Z</time>
      </trkpt>
      <trkpt lat="39.336" lon="-2.47318">
        <ele>765.8</ele>
        <time>2023-08-19T20:09:18Z</time>
      </trkpt>
      <trkpt lat="39.33607" lon="-2.47324">
        <ele>766.5</ele>
        <time>2023-08-19T20:09:21Z</time>
      </trkpt>
      <trkpt lat="39.33614" lon="-2.47332">
        <ele>766.8</ele>
        <time>2023-08-19T20:09:24Z</time>
      </trkpt>
      <trkpt lat="39.33621" lon="-2.47339">
        <ele>767.1</ele>
        <time>2023-08-19T20:09:28Z</time>
      </trkpt>
      <trkpt lat="39.33625" lon="-2.47343">
        <ele>766.4</ele>
        <time>2023-08-19T20:09:32Z</time>
      </trkpt>
      <trkpt lat="39.33629" lon="-2.47349">
        <ele>767.2</ele>
        <time>2023-08-19T20:09:36Z</time>
      </trkpt>
      <trkpt lat="39.33636" lon="-2.47354">
        <ele>766.3</ele>
        <time>2023-08-19T20:09:40Z</time>
      </trkpt>
      <trkpt lat="39.33643" lon="-2.4736">
        <ele>766</ele>
        <time>2023-08-19T20:09:43Z</time>
      </trkpt>
      <trkpt lat="39.33651" lon="-2.47366">
        <ele>766.1</ele>
        <time>2023-08-19T20:09:47Z</time>
      </trkpt>
      <trkpt lat="39.33656" lon="-2.47372">
        <ele>766.2</ele>
        <time>2023-08-19T20:09:51Z</time>
      </trkpt>
      <trkpt lat="39.33662" lon="-2.47378">
        <ele>766.4</ele>
        <time>2023-08-19T20:09:54Z</time>
      </trkpt>
      <trkpt lat="39.33664" lon="-2.47384">
        <ele>766.5</ele>
        <time>2023-08-19T20:09:57Z</time>
      </trkpt>
      <trkpt lat="39.33668" lon="-2.47388">
        <ele>766.4</ele>
        <time>2023-08-19T20:10:01Z</time>
      </trkpt>
      <trkpt lat="39.33671" lon="-2.47391">
        <ele>766.5</ele>
        <time>2023-08-19T20:10:04Z</time>
      </trkpt>
      <trkpt lat="39.33675" lon="-2.47393">
        <ele>766.1</ele>
        <time>2023-08-19T20:10:08Z</time>
      </trkpt>
      <trkpt lat="39.33678" lon="-2.47392">
        <ele>766.9</ele>
        <time>2023-08-19T20:10:11Z</time>
      </trkpt>
      <trkpt lat="39.33682" lon="-2.47388">
        <ele>766.1</ele>
        <time>2023-08-19T20:10:14Z</time>
      </trkpt>
      <trkpt lat="39.33683" lon="-2.47382">
        <ele>766.5</ele>
        <time>2023-08-19T20:10:18Z</time>
      </trkpt>
      <trkpt lat="39.33677" lon="-2.47375">
        <ele>766.3</ele>
        <time>2023-08-19T20:10:22Z</time>
      </trkpt>
      <trkpt lat="39.33671" lon="-2.4737">
        <ele>765.9</ele>
        <time>2023-08-19T20:10:26Z</time>
      </trkpt>
      <trkpt lat="39.3367" lon="-2.47365">
        <ele>766.2</ele>
        <time>2023-08-19T20:10:29Z</time>
      </trkpt>
      <trkpt lat="39.33671" lon="-2.47362">
        <ele>765.8</ele>
        <time>2023-08-19T20:10:33Z</time>
      </trkpt>
    </trkseg>
  </trk>
</gpx>